
Distance (Route):
Temperature : 14.2°C
Humidity : 86.5%
Pressure : 892.5hPa| Receiver | Frames | First received | Last received |
|---|---|---|---|
| DL1NUX | 827 | 2026-09-03 23:53:24 | 2026-09-04 02:15:22 |
| DM0DOS-11 | 524 | 2026-09-03 23:58:15 | 2026-09-04 02:01:21 |
| BIOWL1-15 | 450 | 2026-09-04 00:05:33 | 2026-09-04 02:00:30 |
| DF8AY | 428 | 2026-09-04 00:09:18 | 2026-09-04 01:52:22 |
| DL1XH-west | 419 | 2026-09-04 00:19:47 | 2026-09-04 01:41:29 |
| HSKMA3-T | 373 | 2026-09-04 00:32:41 | 2026-09-04 01:48:40 |
| DO3MHA-11 | 344 | 2026-09-04 00:06:34 | 2026-09-04 02:18:47 |
| DL1XH1-15 | 285 | 2026-09-04 00:20:50 | 2026-09-04 01:37:24 |
| DB0NH | 143 | 2026-09-03 23:52:55 | 2026-09-04 02:20:48 |
| NBG1-10 | 133 | 2026-09-03 23:54:52 | 2026-09-04 02:21:15 |
| SO1NDE-10 | 127 | 2026-09-03 23:53:23 | 2026-09-04 02:15:21 |
| DK7TD | 95 | 2026-09-04 00:41:10 | 2026-09-04 01:43:37 |
| AA1-15 | 94 | 2026-09-04 00:38:26 | 2026-09-04 01:37:03 |
| DF2AP-13 | 82 | 2026-09-03 23:56:48 | 2026-09-04 02:10:19 |
| SONCRA | 74 | 2026-09-03 23:55:58 | 2026-09-04 02:07:29 |
| DH8WE-5 | 69 | 2026-09-04 00:10:01 | 2026-09-04 02:18:43 |
| DF7PN | 64 | 2026-09-03 23:57:49 | 2026-09-04 02:04:09 |
| DB0UT-7 | 60 | 2026-09-03 23:56:28 | 2026-09-04 02:06:54 |
| DJ8HS-15 | 60 | 2026-09-04 00:12:49 | 2026-09-04 01:51:40 |
| DF8AY-15 | 60 | 2026-09-04 00:17:02 | 2026-09-04 01:50:08 |
| DL1XH-15 | 60 | 2026-09-04 00:57:26 | 2026-09-04 01:26:44 |
| DB0ND-19 | 57 | 2026-09-03 23:55:49 | 2026-09-04 02:07:12 |
| DL0LBS | 56 | 2026-09-04 01:13:45 | 2026-09-04 02:20:42 |
| SONDE2-11 | 49 | 2026-09-04 00:22:04 | 2026-09-04 01:58:51 |
| EDDB2-11 | 48 | 2026-09-04 00:22:02 | 2026-09-04 01:58:47 |
| DD8BA-10 | 48 | 2026-09-04 01:02:34 | 2026-09-04 01:28:21 |
| BIOWL9-15 | 47 | 2026-09-04 00:14:52 | 2026-09-04 01:59:55 |
| EDDB2-12 | 44 | 2026-09-04 00:21:18 | 2026-09-04 01:58:35 |
| DL6DJ-15 | 42 | 2026-09-04 00:25:59 | 2026-09-04 02:04:22 |
| DO9HM | 42 | 2026-09-04 01:06:44 | 2026-09-04 02:16:46 |
| DL1ZP-14 | 40 | 2026-09-03 23:56:05 | 2026-09-04 01:23:05 |
| AM1SDL-15 | 37 | 2026-09-04 00:14:40 | 2026-09-04 02:02:41 |
| PG1ADW-2 | 36 | 2026-09-04 00:43:23 | 2026-09-04 01:33:22 |
| OE5MMP-10 | 32 | 2026-09-04 01:03:29 | 2026-09-04 01:29:31 |
| PETON7-10 | 31 | 2026-09-04 00:59:22 | 2026-09-04 01:29:53 |
| OE5DXL-15 | 29 | 2026-09-04 00:32:44 | 2026-09-04 01:59:11 |
| DL4BBY-15 | 24 | 2026-09-04 00:35:17 | 2026-09-04 01:32:59 |
| OE5DRO-10 | 21 | 2026-09-04 00:40:01 | 2026-09-04 01:58:01 |
| DM7RM-13 | 20 | 2026-09-04 00:42:31 | 2026-09-04 01:54:36 |
| ANDY1245 | 19 | 2026-09-04 00:12:04 | 2026-09-04 01:49:15 |
| DJTTGO | 16 | 2026-09-03 23:59:10 | 2026-09-04 01:57:32 |
| 13BRC | 14 | 2026-09-04 00:59:34 | 2026-09-04 01:35:12 |
| SP3BTT-10 | 9 | 2026-09-04 00:34:20 | 2026-09-04 01:37:25 |
| DJ2DS-15 | 9 | 2026-09-04 00:39:34 | 2026-09-04 01:40:52 |
| DF3TZ-5 | 8 | 2026-09-04 00:52:20 | 2026-09-04 01:44:36 |
| D01LWL | 7 | 2026-09-04 01:10:57 | 2026-09-04 01:34:14 |
| AU51GT2 | 6 | 2026-09-04 01:02:12 | 2026-09-04 01:29:06 |
| S52SK | 5 | 2026-09-04 00:59:21 | 2026-09-04 01:26:04 |
| OE5WHR-10 | 2 | 2026-09-04 01:22:14 | 2026-09-04 01:23:53 |
| DL2RXE-15 | 2 | 2026-09-04 01:22:55 | 2026-09-04 01:49:57 |
| KANTATE | 2 | 2026-09-04 01:27:09 | 2026-09-04 01:29:44 |
| DL8DAS-14 | 1 | 2026-09-04 00:33:18 | 2026-09-04 00:33:18 |
| BIOWL7-15 | 1 | 2026-09-04 01:58:57 | 2026-09-04 01:58:57 |
| Receiver | Date | Latitude | Longitude | Direction | Speed | Altitude | Climb | Temperature | Humidity | Pressure | Voltage | Killtimer | Uptime | BKT | XDATA |
|---|---|---|---|---|---|---|---|---|---|---|---|---|---|---|---|
| NBG1-10 | 2026-09-04 02:21:15 | 49.80686 | 12.23158 | 96° | 42km/h | 1165m | -3.7m/s | 14.2°C | 86.5% | 892.5hPa | 2.7V | 00:00:00 | 02:46:40 | 00:00:00 | |
| NBG1-10 | 2026-09-04 02:21:08 | 49.80682 | 12.23042 | 88° | 49km/h | 1193m | -4.2m/s | 14.0°C | 87.5% | 889.5hPa | 2.7V | 00:00:00 | 02:46:33 | 00:00:00 | |
| NBG1-10 | 2026-09-04 02:21:01 | 49.80696 | 12.22909 | 107° | 40km/h | 1222m | -3.8m/s | 13.8°C | 88.7% | 886.7hPa | 2.7V | 07:33:00 | 02:46:26 | 00:00:00 | |
| NBG1-10 | 2026-09-04 02:20:54 | 49.80703 | 12.22800 | 89° | 49km/h | 1249m | -4.0m/s | 13.6°C | 90.7% | 883.8hPa | 2.7V | 00:00:00 | 02:46:19 | 00:00:00 | |
| DB0NH | 2026-09-04 02:20:48 | 49.80702 | 12.22686 | 94° | 42km/h | 1274m | -4.5m/s | 13.6°C | 92.8% | 881.1hPa | 2.7V | 07:33:00 | 02:46:13 | 00:00:00 | |
| NBG1-10 | 2026-09-04 02:20:47 | 49.80703 | 12.22665 | 93° | 51km/h | 1279m | -4.1m/s | 13.5°C | 93.2% | 880.7hPa | 2.7V | 00:00:00 | 02:46:12 | 00:00:00 | |
| DL0LBS | 2026-09-04 02:20:42 | 49.80710 | 12.22582 | 104° | 51km/h | 1294m | -3.8m/s | 13.5°C | 94.2% | 879.2hPa | 2.7V | 00:00:00 | 00:00:00 | 00:00:00 | |
| NBG1-10 | 2026-09-04 02:20:40 | 49.80719 | 12.22528 | 105° | 42km/h | 1306m | -4.0m/s | 13.3°C | 95.9% | 877.8hPa | 2.7V | 00:00:00 | 02:46:05 | 00:00:00 | |
| DB0NH | 2026-09-04 02:20:35 | 49.80726 | 12.22449 | 93° | 51km/h | 1326m | -3.8m/s | 13.1°C | 96.7% | 875.8hPa | 2.7V | 00:00:00 | 02:46:00 | 00:00:00 | |
| NBG1-10 | 2026-09-04 02:20:33 | 49.80727 | 12.22413 | 90° | 53km/h | 1333m | -3.7m/s | 13.1°C | 97.0% | 874.8hPa | 2.7V | 00:00:00 | 02:45:58 | 00:00:00 | |
| NBG1-10 | 2026-09-04 02:20:26 | 49.80736 | 12.22265 | 103° | 51km/h | 1360m | -4.2m/s | 12.9°C | 96.9% | 872.0hPa | 2.7V | 00:00:00 | 02:45:51 | 00:00:00 | |
| DB0NH | 2026-09-04 02:20:25 | 49.80739 | 12.22244 | 105° | 49km/h | 1364m | -4.1m/s | 12.8°C | 97.0% | 871.6hPa | 2.7V | 00:00:00 | 02:45:50 | 00:00:00 | |
| DL0LBS | 2026-09-04 02:20:21 | 49.80751 | 12.22184 | 109° | 49km/h | 1376m | -3.9m/s | 12.8°C | 95.2% | 870.3hPa | 2.7V | 00:00:00 | 00:00:00 | 00:00:00 | |
| NBG1-10 | 2026-09-04 02:20:19 | 49.80762 | 12.22132 | 107° | 49km/h | 1388m | -3.4m/s | 12.7°C | 95.9% | 869.2hPa | 2.7V | 00:00:00 | 02:45:44 | 00:00:00 | |
| DB0NH | 2026-09-04 02:20:15 | 49.80769 | 12.22059 | 97° | 57km/h | 1402m | -3.7m/s | 12.6°C | 94.8% | 867.6hPa | 2.7V | 00:00:00 | 02:45:40 | 00:00:00 | |
| NBG1-10 | 2026-09-04 02:20:12 | 49.80775 | 12.21994 | 101° | 57km/h | 1414m | -3.9m/s | 12.8°C | 90.5% | 866.5hPa | 2.7V | 00:00:00 | 02:45:37 | 00:00:00 | |
| DB0NH | 2026-09-04 02:20:05 | 49.80808 | 12.21849 | 114° | 51km/h | 1442m | -3.7m/s | 13.0°C | 79.4% | 863.5hPa | 2.7V | 00:00:00 | 02:45:30 | 00:00:00 | |
| NBG1-10 | 2026-09-04 02:20:05 | 49.80808 | 12.21849 | 114° | 47km/h | 1442m | -3.7m/s | 13.0°C | 79.4% | 863.5hPa | 2.7V | 07:34:00 | 02:45:30 | 00:00:00 | |
| DL0LBS | 2026-09-04 02:20:01 | 49.80819 | 12.21797 | 103° | 47km/h | 1453m | -3.9m/s | 12.9°C | 78.8% | 862.4hPa | 2.7V | 00:00:00 | 00:00:00 | 00:00:00 | |
| NBG1-10 | 2026-09-04 02:19:58 | 49.80827 | 12.21721 | 98° | 58km/h | 1469m | -4.1m/s | 12.7°C | 80.6% | 860.7hPa | 2.7V | 00:00:00 | 02:45:23 | 00:00:00 | |
| NBG1-10 | 2026-09-04 02:19:51 | 49.80850 | 12.21562 | 111° | 57km/h | 1498m | -4.0m/s | 12.6°C | 80.7% | 857.7hPa | 2.7V | 00:00:00 | 02:45:16 | 00:00:00 | |
| DB0NH | 2026-09-04 02:19:45 | 49.80879 | 12.21445 | 104° | 58km/h | 1521m | -4.0m/s | 12.4°C | 81.0% | 855.3hPa | 2.7V | 00:00:00 | 02:45:10 | 00:00:00 | |
| NBG1-10 | 2026-09-04 02:19:36 | 49.80909 | 12.21243 | 112° | 60km/h | 1558m | -4.2m/s | 12.2°C | 81.0% | 851.5hPa | 2.7V | 00:00:00 | 02:45:01 | 00:00:00 | |
| DB0NH | 2026-09-04 02:19:35 | 49.80915 | 12.21221 | 113° | 57km/h | 1562m | -4.0m/s | 12.2°C | 81.2% | 851.2hPa | 2.7V | 00:00:00 | 02:45:00 | 00:00:00 | |
| DL0LBS | 2026-09-04 02:19:34 | 49.80915 | 12.21221 | 114° | 60km/h | 1562m | -4.0m/s | 12.2°C | 80.1% | 851.3hPa | 2.7V | 00:00:00 | 00:00:00 | 00:00:00 | |
| DB0NH | 2026-09-04 02:19:25 | 49.80952 | 12.21003 | 103° | 62km/h | 1602m | -4.1m/s | 11.9°C | 81.6% | 847.2hPa | 2.7V | 07:34:00 | 02:44:50 | 00:00:00 | |
| DB0NH | 2026-09-04 02:19:15 | 49.81001 | 12.20775 | 102° | 64km/h | 1642m | -4.0m/s | 11.6°C | 83.4% | 843.2hPa | 2.7V | 00:00:00 | 02:44:40 | 00:00:00 | |
| NBG1-10 | 2026-09-04 02:19:14 | 49.81004 | 12.20753 | 101° | 64km/h | 1646m | -4.0m/s | 11.6°C | 83.6% | 842.8hPa | 2.7V | 00:00:00 | 02:44:39 | 00:00:00 | |
| DL0LBS | 2026-09-04 02:19:10 | 49.81013 | 12.20679 | 104° | 68km/h | 1659m | -4.2m/s | 11.5°C | 84.1% | 841.4hPa | 2.7V | 00:00:00 | 00:00:00 | 00:00:00 | |
| DB0NH | 2026-09-04 02:19:05 | 49.81046 | 12.20534 | 112° | 64km/h | 1683m | -4.1m/s | 11.5°C | 85.1% | 839.0hPa | 2.7V | 00:00:00 | 02:44:30 | 00:00:00 | |
| DB0NH | 2026-09-04 02:18:55 | 49.81087 | 12.20292 | 109° | 60km/h | 1725m | -4.1m/s | 11.4°C | 84.2% | 834.8hPa | 2.7V | 00:00:00 | 02:44:20 | 00:00:00 | |
| NBG1-10 | 2026-09-04 02:18:52 | 49.81103 | 12.20221 | 109° | 62km/h | 1737m | -4.0m/s | 11.3°C | 83.8% | 833.4hPa | 2.7V | 00:00:00 | 02:44:17 | 00:00:00 | |
| DO3MHA-11 | 2026-09-04 02:18:47 | 49.81119 | 12.20112 | 99° | 64km/h | 1760m | -4.4m/s | 11.2°C | 84.0% | 831.3hPa | 2.7V | 00:00:00 | 02:44:12 | 00:00:00 | |
| DB0NH | 2026-09-04 02:18:45 | 49.81123 | 12.20064 | 97° | 66km/h | 1768m | -4.1m/s | 11.1°C | 84.2% | 830.4hPa | 2.7V | 00:00:00 | 02:44:10 | 00:00:00 | |
| DH8WE-5 | 2026-09-04 02:18:43 | 49.81125 | 12.20039 | 99° | 68km/h | 1772m | -4.3m/s | 11.1°C | 82.8% | 830.1hPa | 2.7V | 00:00:00 | 00:00:00 | 00:00:00 | |
| DL0LBS | 2026-09-04 02:18:43 | 49.81125 | 12.20039 | 99° | 68km/h | 1772m | -4.3m/s | 11.1°C | 82.8% | 830.1hPa | 2.7V | 00:00:00 | 00:00:00 | 00:00:00 | |
| DO3MHA-11 | 2026-09-04 02:18:42 | 49.81130 | 12.19986 | 102° | 68km/h | 1781m | -4.3m/s | 11.0°C | 84.2% | 829.2hPa | 2.7V | 00:00:00 | 02:44:07 | 00:00:00 | |
| DO3MHA-11 | 2026-09-04 02:18:37 | 49.81152 | 12.19862 | 104° | 58km/h | 1802m | -4.0m/s | 10.9°C | 84.9% | 827.2hPa | 2.7V | 00:00:00 | 02:44:02 | 00:00:00 | |
| DB0NH | 2026-09-04 02:18:35 | 49.81157 | 12.19818 | 98° | 68km/h | 1810m | -4.0m/s | 10.8°C | 85.2% | 826.3hPa | 2.7V | 00:00:00 | 02:44:00 | 00:00:00 | |
| DO3MHA-11 | 2026-09-04 02:18:32 | 49.81161 | 12.19745 | 95° | 69km/h | 1823m | -4.1m/s | 10.7°C | 85.7% | 825.1hPa | 2.7V | 00:00:00 | 02:43:57 | 00:00:00 | |
| NBG1-10 | 2026-09-04 02:18:30 | 49.81164 | 12.19692 | 97° | 66km/h | 1831m | -4.1m/s | 10.6°C | 86.2% | 824.2hPa | 2.7V | 00:00:00 | 02:43:55 | 00:00:00 | |
| DO3MHA-11 | 2026-09-04 02:18:27 | 49.81173 | 12.19609 | 103° | 64km/h | 1843m | -3.9m/s | 10.5°C | 86.6% | 822.9hPa | 2.7V | 07:35:00 | 02:43:52 | 00:00:00 | |
| DB0NH | 2026-09-04 02:18:25 | 49.81181 | 12.19557 | 104° | 64km/h | 1851m | -4.1m/s | 10.4°C | 87.0% | 822.3hPa | 2.7V | 00:00:00 | 02:43:50 | 00:00:00 | |
| DL0LBS | 2026-09-04 02:18:22 | 49.81187 | 12.19510 | 100° | 58km/h | 1859m | -4.2m/s | 10.4°C | 86.0% | 821.5hPa | 2.7V | 07:36:00 | 00:00:00 | 00:00:00 | |
| DO3MHA-11 | 2026-09-04 02:18:22 | 49.81189 | 12.19487 | 97° | 64km/h | 1864m | -4.2m/s | 10.3°C | 87.7% | 821.1hPa | 2.7V | 00:00:00 | 02:43:47 | 00:00:00 | |
| DH8WE-5 | 2026-09-04 02:18:20 | 49.81191 | 12.19464 | 96° | 60km/h | 1868m | -4.2m/s | 10.3°C | 86.4% | 820.8hPa | 2.7V | 07:36:00 | 00:00:00 | 00:00:00 | |
| DO3MHA-11 | 2026-09-04 02:18:17 | 49.81197 | 12.19360 | 97° | 69km/h | 1884m | -4.1m/s | 10.2°C | 88.4% | 819.1hPa | 2.7V | 00:00:00 | 02:43:42 | 00:00:00 | |
| DB0NH | 2026-09-04 02:18:15 | 49.81202 | 12.19305 | 101° | 68km/h | 1892m | -4.1m/s | 10.1°C | 88.8% | 818.2hPa | 2.7V | 00:00:00 | 02:43:40 | 00:00:00 | |
| DO3MHA-11 | 2026-09-04 02:18:12 | 49.81211 | 12.19227 | 99° | 66km/h | 1905m | -3.9m/s | 10.0°C | 89.3% | 816.9hPa | 2.7V | 00:00:00 | 02:43:37 | 00:00:00 | |
| NBG1-10 | 2026-09-04 02:18:08 | 49.81215 | 12.19125 | 92° | 68km/h | 1921m | -4.2m/s | 9.8°C | 90.3% | 815.3hPa | 2.7V | 00:00:00 | 02:43:33 | 00:00:00 | |
| DO3MHA-11 | 2026-09-04 02:18:07 | 49.81216 | 12.19097 | 94° | 73km/h | 1926m | -4.5m/s | 9.8°C | 90.4% | 815.0hPa | 2.7V | 00:00:00 | 02:43:32 | 00:00:00 | |
| DB0NH | 2026-09-04 02:18:05 | 49.81219 | 12.19040 | 98° | 66km/h | 1934m | -4.0m/s | 9.7°C | 90.7% | 814.1hPa | 2.7V | 07:36:00 | 02:43:30 | 00:00:00 | |
| DO3MHA-11 | 2026-09-04 02:18:02 | 49.81229 | 12.18957 | 103° | 64km/h | 1946m | -3.9m/s | 9.6°C | 91.4% | 813.0hPa | 2.7V | 00:00:00 | 02:43:27 | 00:00:00 | |
| DL0LBS | 2026-09-04 02:18:01 | 49.81229 | 12.18957 | 103° | 68km/h | 1946m | -4.0m/s | 9.7°C | 90.0% | 813.0hPa | 2.7V | 07:36:00 | 00:00:00 | 00:00:00 | |
| DH8WE-5 | 2026-09-04 02:17:59 | 49.81236 | 12.18907 | 102° | 62km/h | 1955m | -4.2m/s | 9.7°C | 89.9% | 812.1hPa | 2.7V | 07:36:00 | 00:00:00 | 00:00:00 | |
| DO3MHA-11 | 2026-09-04 02:17:57 | 49.81243 | 12.18836 | 97° | 62km/h | 1967m | -4.2m/s | 9.6°C | 90.9% | 810.8hPa | 2.7V | 00:00:00 | 02:43:22 | 00:00:00 | |
| DB0NH | 2026-09-04 02:17:55 | 49.81245 | 12.18788 | 93° | 69km/h | 1976m | -4.0m/s | 9.6°C | 90.4% | 810.1hPa | 2.7V | 00:00:00 | 02:43:20 | 00:00:00 | |
| DO3MHA-11 | 2026-09-04 02:17:52 | 49.81245 | 12.18713 | 89° | 71km/h | 1989m | -4.2m/s | 9.5°C | 89.9% | 808.8hPa | 2.7V | 00:00:00 | 02:43:17 | 00:00:00 | |
| DO3MHA-11 | 2026-09-04 02:17:47 | 49.81249 | 12.18572 | 98° | 69km/h | 2009m | -4.1m/s | !°C | 89.8% | 806.8hPa | 2.7V | 07:36:00 | 02:43:12 | 00:00:00 | |
| NBG1-10 | 2026-09-04 02:17:46 | 49.81251 | 12.18543 | 100° | 69km/h | 2013m | -4.1m/s | 9.3°C | 90.1% | 806.5hPa | 2.7V | 07:36:00 | 02:43:11 | 00:00:00 | |
| DB0NH | 2026-09-04 02:17:45 | 49.81254 | 12.18516 | 100° | 69km/h | 2017m | -4.1m/s | 9.3°C | 90.0% | 806.1hPa | 2.7V | 00:00:00 | 02:43:10 | 00:00:00 | |
| DO3MHA-11 | 2026-09-04 02:17:42 | 49.81260 | 12.18439 | 93° | 69km/h | 2029m | -3.8m/s | 9.2°C | 90.8% | 804.9hPa | 2.7V | 00:00:00 | 02:43:07 | 00:00:00 | |
| DL0LBS | 2026-09-04 02:17:41 | 49.81260 | 12.18439 | 94° | 64km/h | 2029m | -3.9m/s | 9.3°C | 89.4% | 804.9hPa | 2.7V | 00:00:00 | 00:00:00 | 00:00:00 | |
| DH8WE-5 | 2026-09-04 02:17:38 | 49.81260 | 12.18359 | 90° | 71km/h | 2042m | -4.2m/s | 9.2°C | 89.8% | 803.6hPa | 2.7V | 00:00:00 | 00:00:00 | 00:00:00 | |
| DO3MHA-11 | 2026-09-04 02:17:37 | 49.81260 | 12.18301 | 92° | 73km/h | 2050m | -4.2m/s | 9.1°C | 91.9% | 802.8hPa | 2.7V | 00:00:00 | 02:43:02 | 00:00:00 | |
| DO3MHA-11 | 2026-09-04 02:17:32 | 49.81270 | 12.18160 | 99° | 68km/h | 2071m | -4.1m/s | 9.1°C | 90.0% | 800.9hPa | 2.7V | 00:00:00 | 02:42:57 | 00:00:00 | |
| DO3MHA-11 | 2026-09-04 02:17:27 | 49.81276 | 12.18029 | 91° | 73km/h | 2091m | -4.0m/s | 9.1°C | 86.7% | 798.9hPa | 2.7V | 00:00:00 | 02:42:52 | 00:00:00 | |
| DB0NH | 2026-09-04 02:17:25 | 49.81277 | 12.17971 | 95° | 71km/h | 2099m | -4.1m/s | 9.1°C | 86.1% | 798.0hPa | 2.7V | 00:00:00 | 02:42:50 | 00:00:00 | |
| NBG1-10 | 2026-09-04 02:17:24 | 49.81279 | 12.17942 | 97° | 71km/h | 2103m | -4.1m/s | 9.1°C | 86.3% | 797.7hPa | 2.7V | 00:00:00 | 02:42:49 | 00:00:00 | |
| DO3MHA-11 | 2026-09-04 02:17:22 | 49.81284 | 12.17887 | 98° | 68km/h | 2111m | -4.1m/s | 9.0°C | 85.9% | 796.9hPa | 2.7V | 00:00:00 | 02:42:47 | 00:00:00 | |
| DL0LBS | 2026-09-04 02:17:21 | 49.81284 | 12.17887 | 99° | 68km/h | 2111m | -4.1m/s | 9.1°C | 84.4% | 797.0hPa | 2.7V | 00:00:00 | 00:00:00 | 00:00:00 | |
| DO3MHA-11 | 2026-09-04 02:17:17 | 49.81287 | 12.17755 | 90° | 75km/h | 2132m | -4.2m/s | 8.9°C | 86.5% | 795.0hPa | 2.7V | 00:00:00 | 02:42:42 | 00:00:00 | |
| DO3MHA-11 | 2026-09-04 02:17:12 | 49.81292 | 12.17608 | 99° | 69km/h | 2153m | -4.0m/s | 8.9°C | 80.5% | 793.0hPa | 2.7V | 00:00:00 | 02:42:37 | 00:00:00 | |
| DO3MHA-11 | 2026-09-04 02:17:07 | 49.81304 | 12.17477 | 94° | 71km/h | 2174m | -3.9m/s | 8.8°C | 82.1% | 790.8hPa | 2.7V | 07:37:00 | 02:42:32 | 00:00:00 | |
| DB0NH | 2026-09-04 02:17:05 | 49.81305 | 12.17423 | 91° | 71km/h | 2182m | -4.0m/s | 8.7°C | 84.8% | 790.0hPa | 2.7V | 00:00:00 | 02:42:30 | 00:00:00 | |
| DO3MHA-11 | 2026-09-04 02:17:02 | 49.81308 | 12.17335 | 95° | 75km/h | 2194m | -4.1m/s | 8.6°C | 86.1% | 789.0hPa | 2.7V | 00:00:00 | 02:42:27 | 00:00:00 | |
| DL0LBS | 2026-09-04 02:16:58 | 49.81315 | 12.17247 | 101° | 73km/h | 2207m | -4.4m/s | 8.5°C | 85.0% | 787.8hPa | 2.7V | 00:00:00 | 00:00:00 | 00:00:00 | |
| DO3MHA-11 | 2026-09-04 02:16:57 | 49.81321 | 12.17193 | 100° | 66km/h | 2215m | -4.0m/s | 8.5°C | 85.2% | 787.0hPa | 2.7V | 00:00:00 | 02:42:22 | 00:00:00 | |
| DO3MHA-11 | 2026-09-04 02:16:52 | 49.81329 | 12.17064 | 92° | 73km/h | 2236m | -4.1m/s | 8.5°C | 82.1% | 785.1hPa | 2.7V | 00:00:00 | 02:42:17 | 00:00:00 | |
| DO3MHA-11 | 2026-09-04 02:16:47 | 49.81336 | 12.16924 | 99° | 68km/h | 2256m | -4.2m/s | 8.6°C | 77.2% | 783.1hPa | 2.7V | 00:00:00 | 02:42:12 | 00:00:00 | |
| DO9HM | 2026-09-04 02:16:46 | 49.81336 | 12.16924 | 99° | 69km/h | 2256m | -4.2m/s | 8.7°C | 75.9% | 783.1hPa | 2.7V | 07:38:00 | 00:00:00 | 00:00:00 | |
| DB0NH | 2026-09-04 02:16:45 | 49.81340 | 12.16871 | 97° | 69km/h | 2265m | -4.0m/s | 8.6°C | 77.1% | 782.3hPa | 2.7V | 00:00:00 | 02:42:10 | 00:00:00 | |
| DO3MHA-11 | 2026-09-04 02:16:42 | 49.81343 | 12.16793 | 91° | 73km/h | 2277m | -4.0m/s | 8.7°C | 74.0% | 781.2hPa | 2.7V | 00:00:00 | 02:42:07 | 00:00:00 | |
| NBG1-10 | 2026-09-04 02:16:40 | 49.81344 | 12.16736 | 94° | 69km/h | 2285m | -4.0m/s | 8.7°C | 71.8% | 780.4hPa | 2.7V | 00:00:00 | 02:42:05 | 00:00:00 | |
| DO3MHA-11 | 2026-09-04 02:16:37 | 49.81351 | 12.16650 | 100° | 66km/h | 2298m | -4.2m/s | 8.7°C | 68.8% | 779.2hPa | 2.7V | 00:00:00 | 02:42:02 | 00:00:00 | |
| DL0LBS | 2026-09-04 02:16:34 | 49.81357 | 12.16598 | 101° | 64km/h | 2306m | -3.8m/s | 8.8°C | 65.6% | 778.5hPa | 2.7V | 00:00:00 | 00:00:00 | 00:00:00 | |
| DO3MHA-11 | 2026-09-04 02:16:32 | 49.81362 | 12.16525 | 93° | 68km/h | 2317m | -4.0m/s | 8.8°C | 64.7% | 777.3hPa | 2.7V | 00:00:00 | 02:41:57 | 00:00:00 | |
| DO3MHA-11 | 2026-09-04 02:16:27 | 49.81362 | 12.16392 | 92° | 73km/h | 2338m | -3.9m/s | 8.6°C | 64.6% | 775.5hPa | 2.7V | 07:37:00 | 02:41:52 | 00:00:00 | |
| DO9HM | 2026-09-04 02:16:26 | 49.81362 | 12.16392 | 93° | 75km/h | 2338m | -4.0m/s | 8.6°C | 63.5% | 775.6hPa | 2.7V | 07:38:00 | 00:00:00 | 00:00:00 | |
| DB0NH | 2026-09-04 02:16:25 | 49.81365 | 12.16335 | 97° | 69km/h | 2345m | -3.9m/s | 8.5°C | 65.1% | 774.7hPa | 2.7V | 00:00:00 | 02:41:50 | 00:00:00 | |
| DO3MHA-11 | 2026-09-04 02:16:22 | 49.81372 | 12.16253 | 98° | 66km/h | 2357m | -4.0m/s | 8.5°C | 64.7% | 773.6hPa | 2.7V | 00:00:00 | 02:41:47 | 00:00:00 | |
| NBG1-10 | 2026-09-04 02:16:18 | 49.81377 | 12.16151 | 92° | 68km/h | 2373m | -3.9m/s | 8.5°C | 62.8% | 772.0hPa | 2.7V | 00:00:00 | 02:41:43 | 00:00:00 | |
| DO3MHA-11 | 2026-09-04 02:16:17 | 49.81377 | 12.16123 | 93° | 66km/h | 2377m | -4.1m/s | 8.4°C | 63.2% | 771.7hPa | 2.7V | 00:00:00 | 02:41:42 | 00:00:00 | |
| DL0LBS | 2026-09-04 02:16:14 | 49.81380 | 12.16067 | 98° | 71km/h | 2386m | -4.0m/s | 8.4°C | 62.5% | 771.0hPa | 2.7V | 00:00:00 | 00:00:00 | 00:00:00 | |
| DH8WE-5 | 2026-09-04 02:16:12 | 49.81384 | 12.16014 | 99° | 66km/h | 2394m | -3.9m/s | 8.4°C | 62.7% | 770.2hPa | 2.7V | 07:38:00 | 00:00:00 | 00:00:00 | |
| DO3MHA-11 | 2026-09-04 02:16:10 | 49.81390 | 12.15939 | 95° | 69km/h | 2406m | -3.9m/s | 8.3°C | 63.7% | 769.1hPa | 2.7V | 00:00:00 | 02:41:35 | 00:00:00 | |
| DO9HM | 2026-09-04 02:16:06 | 49.81395 | 12.15858 | 99° | 71km/h | 2418m | -4.1m/s | 8.2°C | 62.2% | 768.0hPa | 2.7V | 07:38:00 | 00:00:00 | 00:00:00 | |
| DB0NH | 2026-09-04 02:16:05 | 49.81401 | 12.15803 | 101° | 68km/h | 2426m | -4.2m/s | 8.1°C | 63.5% | 767.2hPa | 2.7V | 00:00:00 | 02:41:30 | 00:00:00 | |
| DO3MHA-11 | 2026-09-04 02:16:00 | 49.81414 | 12.15677 | 96° | 69km/h | 2447m | -4.0m/s | 8.0°C | 63.6% | 765.3hPa | 2.7V | 00:00:00 | 02:41:25 | 00:00:00 | |
| NBG1-10 | 2026-09-04 02:15:56 | 49.81422 | 12.15569 | 101° | 68km/h | 2462m | -4.0m/s | 8.0°C | 63.9% | 763.8hPa | 2.7V | 00:00:00 | 02:41:21 | 00:00:00 | |
| DO3MHA-11 | 2026-09-04 02:15:55 | 49.81425 | 12.15541 | 103° | 66km/h | 2466m | -4.0m/s | 8.0°C | 64.2% | 763.4hPa | 2.7V | 00:00:00 | 02:41:20 | 00:00:00 | |
| DL0LBS | 2026-09-04 02:15:53 | 49.81429 | 12.15514 | 104° | 69km/h | 2470m | -4.1m/s | 8.0°C | 63.1% | 763.1hPa | 2.7V | 07:38:00 | 00:00:00 | 00:00:00 | |
| DH8WE-5 | 2026-09-04 02:15:51 | 49.81437 | 12.15464 | 103° | 62km/h | 2478m | -4.0m/s | 8.0°C | 63.7% | 762.2hPa | 2.7V | 07:38:00 | 00:00:00 | 00:00:00 | |
| DO3MHA-11 | 2026-09-04 02:15:50 | 49.81442 | 12.15417 | 97° | 66km/h | 2487m | -4.0m/s | 7.9°C | 65.1% | 761.6hPa | 2.7V | 00:00:00 | 02:41:15 | 00:00:00 | |
| DO9HM | 2026-09-04 02:15:46 | 49.81447 | 12.15313 | 97° | 71km/h | 2502m | -3.9m/s | 8.0°C | 58.5% | 760.1hPa | 2.7V | 07:38:00 | 00:00:00 | 00:00:00 | |
| DO3MHA-11 | 2026-09-04 02:15:45 | 49.81450 | 12.15285 | 99° | 69km/h | 2506m | -3.9m/s | 8.0°C | 59.2% | 759.7hPa | 2.7V | 07:38:00 | 02:41:10 | 00:00:00 | |
| DO3MHA-11 | 2026-09-04 02:15:40 | 49.81468 | 12.15154 | 101° | 69km/h | 2526m | -4.1m/s | 7.9°C | 60.2% | 757.9hPa | 2.7V | 00:00:00 | 02:41:05 | 00:00:00 | |
| DO3MHA-11 | 2026-09-04 02:15:35 | 49.81484 | 12.15020 | 105° | 68km/h | 2547m | -4.1m/s | 7.7°C | 61.7% | 756.0hPa | 2.7V | 00:00:00 | 02:41:00 | 00:00:00 | |
| NBG1-10 | 2026-09-04 02:15:34 | 49.81489 | 12.14993 | 106° | 69km/h | 2551m | -4.2m/s | 7.7°C | 61.7% | 755.7hPa | 2.6V | 00:00:00 | 02:40:59 | 00:00:00 | |
| DL0LBS | 2026-09-04 02:15:32 | 49.81494 | 12.14967 | 107° | 68km/h | 2555m | -4.3m/s | 7.8°C | 60.7% | 755.2hPa | 2.7V | 07:38:00 | 00:00:00 | 00:00:00 | |
| DH8WE-5 | 2026-09-04 02:15:31 | 49.81498 | 12.14942 | 107° | 66km/h | 2559m | -4.1m/s | 7.8°C | 58.8% | 754.8hPa | 2.7V | 07:38:00 | 00:00:00 | 00:00:00 | |
| DO3MHA-11 | 2026-09-04 02:15:30 | 49.81506 | 12.14894 | 104° | 68km/h | 2567m | -3.9m/s | 7.7°C | 59.6% | 754.1hPa | 2.7V | 00:00:00 | 02:40:55 | 00:00:00 | |
| DB0NH | 2026-09-04 02:15:25 | 49.81523 | 12.14763 | 104° | 69km/h | 2587m | -4.2m/s | 7.6°C | 58.5% | 752.3hPa | 2.7V | 00:00:00 | 02:40:50 | 00:00:00 | |
| DL1NUX | 2026-09-04 02:15:22 | 49.81537 | 12.14682 | 107° | 69km/h | 2600m | -4.1m/s | 7.7°C | 58.7% | 751.2hPa | 2.7V | 07:38:49 | 02:40:47 | 00:00:00 | |
| DL1NUX | 2026-09-04 02:15:22 | 49.81559 | 12.14551 | 102° | 73km/h | 2620m | -3.7m/s | 7.5°C | 58.9% | 749.5hPa | 2.7V | 07:38:54 | 02:40:42 | 00:00:00 | |
| SO1NDE-10 | 2026-09-04 02:15:21 | 49.81542 | 12.14657 | 107° | 75km/h | 2604m | -4.3m/s | 7.6°C | 58.9% | 750.8hPa | 2.7V | 00:00:00 | 02:40:46 | 00:00:00 | |
| DO3MHA-11 | 2026-09-04 02:15:20 | 49.81547 | 12.14631 | 105° | 71km/h | 2608m | -3.8m/s | 7.5°C | 58.9% | 750.4hPa | 2.7V | 00:00:00 | 02:40:45 | 00:00:00 | |
| DO3MHA-11 | 2026-09-04 02:15:15 | 49.81568 | 12.14494 | 107° | 71km/h | 2628m | -4.1m/s | 7.4°C | 60.0% | 748.5hPa | 2.7V | 00:00:00 | 02:40:40 | 00:00:00 | |
| NBG1-10 | 2026-09-04 02:15:12 | 49.81585 | 12.14414 | 110° | 71km/h | 2640m | -4.1m/s | 7.2°C | 66.2% | 747.4hPa | 2.7V | 00:00:00 | 02:40:37 | 00:00:00 | |
| DH8WE-5 | 2026-09-04 02:15:11 | 49.81585 | 12.14414 | 110° | 68km/h | 2640m | -4.2m/s | 7.3°C | 64.9% | 747.5hPa | 2.7V | 07:39:00 | 00:00:00 | 00:00:00 | |
| DO3MHA-11 | 2026-09-04 02:15:10 | 49.81595 | 12.14365 | 106° | 68km/h | 2648m | -3.9m/s | 7.2°C | 66.7% | 746.8hPa | 2.7V | 00:00:00 | 02:40:35 | 00:00:00 | |
| DL1NUX | 2026-09-04 02:15:06 | 49.81630 | 12.14114 | 108° | 78km/h | 2685m | -4m/s | 7°C | 71.7% | 743.5hPa | 2.7V | 07:39:10 | 02:40:26 | 00:00:00 | |
| DO3MHA-11 | 2026-09-04 02:15:05 | 49.81611 | 12.14232 | 101° | 78km/h | 2668m | -4.2m/s | 7.0°C | 71.7% | 744.9hPa | 2.7V | 07:39:00 | 02:40:30 | 00:00:00 | |
| SO1NDE-10 | 2026-09-04 02:15:01 | 49.81630 | 12.14114 | 109° | 77km/h | 2685m | -4.0m/s | 6.9°C | 71.7% | 743.4hPa | 2.6V | 00:00:00 | 02:40:26 | 00:00:00 | |
| DO3MHA-11 | 2026-09-04 02:15:00 | 49.81637 | 12.14085 | 111° | 71km/h | 2689m | -4.0m/s | 6.9°C | 71.9% | 743.1hPa | 2.6V | 00:00:00 | 02:40:25 | 00:00:00 | |
| DO3MHA-11 | 2026-09-04 02:14:55 | 49.81667 | 12.13955 | 106° | 71km/h | 2709m | -4.0m/s | 6.7°C | 74.3% | 741.2hPa | 2.6V | 00:00:00 | 02:40:20 | 00:00:00 | |
| DL1NUX | 2026-09-04 02:14:50 | 49.81685 | 12.13816 | 101° | 78km/h | 2729m | -4m/s | 6.6°C | 75.5% | 739.6hPa | 2.6V | 07:39:21 | 02:40:15 | 00:00:00 | |
| DL1NUX | 2026-09-04 02:14:50 | 49.81713 | 12.13667 | 110° | 77km/h | 2749m | -4m/s | 6.4°C | 77.8% | 737.7hPa | 2.7V | 07:39:26 | 02:40:10 | 00:00:00 | |
| NBG1-10 | 2026-09-04 02:14:50 | 49.81685 | 12.13816 | 102° | 77km/h | 2729m | -4.0m/s | 6.6°C | 75.5% | 739.5hPa | 2.7V | 07:39:00 | 02:40:15 | 00:00:00 | |
| DB0NH | 2026-09-04 02:14:45 | 49.81714 | 12.13667 | 111° | 77km/h | 2749m | -4.0m/s | 6.4°C | 77.8% | 737.6hPa | 2.7V | 00:00:00 | 02:40:10 | 00:00:00 | |
| DO9HM | 2026-09-04 02:14:44 | 49.81713 | 12.13667 | 111° | 77km/h | 2749m | -4.0m/s | 6.4°C | 76.2% | 737.7hPa | 2.7V | 07:39:00 | 00:00:00 | 00:00:00 | |
| DO3MHA-11 | 2026-09-04 02:14:40 | 49.81740 | 12.13532 | 104° | 77km/h | 2769m | -4.0m/s | 6.2°C | 79.7% | 735.8hPa | 2.7V | 00:00:00 | 02:40:05 | 00:00:00 | |
| DL1NUX | 2026-09-04 02:14:38 | 49.81749 | 12.13474 | 104° | 78km/h | 2777m | -4.1m/s | 6.2°C | 79.9% | 735.2hPa | 2.7V | 07:39:33 | 02:40:03 | 00:00:00 | |
| DL1NUX | 2026-09-04 02:14:38 | 49.81780 | 12.13330 | 107° | 73km/h | 2798m | -4.2m/s | 6.1°C | 86.3% | 733.3hPa | 2.7V | 07:39:38 | 02:39:58 | 00:00:00 | |
| DO3MHA-11 | 2026-09-04 02:14:35 | 49.81767 | 12.13385 | 110° | 75km/h | 2789m | -4.2m/s | 6.1°C | 81.3% | 734.0hPa | 2.7V | 00:00:00 | 02:40:00 | 00:00:00 | |
| DL1NUX | 2026-09-04 02:14:33 | 49.81802 | 12.13185 | 102° | 82km/h | 2818m | -4.2m/s | 5.9°C | 86.9% | 731.5hPa | 2.7V | 07:39:43 | 02:39:53 | 00:00:00 | |
| SO1NDE-10 | 2026-09-04 02:14:33 | 49.81780 | 12.13330 | 108° | 75km/h | 2798m | -4.2m/s | 6.0°C | 86.3% | 733.2hPa | 2.7V | 00:00:00 | 02:39:58 | 00:00:00 | |
| DO3MHA-11 | 2026-09-04 02:14:30 | 49.81793 | 12.13245 | 102° | 80km/h | 2810m | -4.2m/s | 5.9°C | 86.8% | 732.2hPa | 2.7V | 00:00:00 | 02:39:55 | 00:00:00 | |
| NBG1-10 | 2026-09-04 02:14:28 | 49.81801 | 12.13184 | 103° | 77km/h | 2818m | -4.2m/s | 5.9°C | 86.9% | 731.4hPa | 2.7V | 00:00:00 | 02:39:53 | 00:00:00 | |
| DL1NUX | 2026-09-04 02:14:27 | 49.81837 | 12.13005 | 108° | 73km/h | 2843m | -3.9m/s | 5.8°C | 87.3% | 729.2hPa | 2.6V | 07:39:49 | 02:39:47 | 00:00:00 | |
| DO3MHA-11 | 2026-09-04 02:14:25 | 49.81818 | 12.13091 | 109° | 77km/h | 2831m | -4.1m/s | 5.8°C | 87.2% | 730.4hPa | 2.7V | 07:39:00 | 02:39:50 | 00:00:00 | |
| DO3MHA-11 | 2026-09-04 02:14:20 | 49.81847 | 12.12951 | 104° | 77km/h | 2851m | -4.0m/s | 5.7°C | 87.1% | 728.5hPa | 2.7V | 00:00:00 | 02:39:45 | 00:00:00 | |
| DL1NUX | 2026-09-04 02:14:17 | 49.81860 | 12.12865 | 103° | 78km/h | 2864m | -4.2m/s | 5.7°C | 86.3% | 727.5hPa | 2.7V | 07:39:54 | 02:39:42 | 00:00:00 | |
| DL1NUX | 2026-09-04 02:14:17 | 49.81890 | 12.12718 | 109° | 73km/h | 2884m | -4.4m/s | 5.8°C | 82.2% | 725.6hPa | 2.7V | 07:39:59 | 02:39:37 | 00:00:00 | |
| DO3MHA-11 | 2026-09-04 02:14:15 | 49.81871 | 12.12804 | 108° | 77km/h | 2872m | -4.1m/s | 5.6°C | 86.7% | 726.7hPa | 2.7V | 00:00:00 | 02:39:40 | 00:00:00 | |
| SO1NDE-10 | 2026-09-04 02:14:13 | 49.81884 | 12.12746 | 110° | 75km/h | 2880m | -4.1m/s | 5.7°C | 85.7% | 725.9hPa | 2.7V | 00:00:00 | 02:39:38 | 00:00:00 | |
| DH8WE-5 | 2026-09-04 02:14:10 | 49.81901 | 12.12665 | 107° | 69km/h | 2893m | -4.2m/s | 5.9°C | 77.3% | 724.8hPa | 2.7V | 07:40:00 | 00:00:00 | 00:00:00 | |
| DL0LBS | 2026-09-04 02:14:09 | 49.81901 | 12.12665 | 107° | 69km/h | 2893m | -4.2m/s | 5.9°C | 77.3% | 724.8hPa | 2.7V | 07:40:00 | 00:00:00 | 00:00:00 | |
| DL1NUX | 2026-09-04 02:14:07 | 49.81914 | 12.12583 | 101° | 75km/h | 2906m | -4m/s | 6.3°C | 55.2% | 723.7hPa | 2.7V | 07:40:04 | 02:39:32 | 00:00:00 | |
| DL1NUX | 2026-09-04 02:14:07 | 49.81942 | 12.12435 | 110° | 78km/h | 2927m | -4.3m/s | 6.8°C | 23.2% | 721.9hPa | 2.7V | 07:40:09 | 02:39:27 | 00:00:00 | |
| NBG1-10 | 2026-09-04 02:14:06 | 49.81918 | 12.12554 | 103° | 73km/h | 2910m | -4.1m/s | 6.4°C | 46.8% | 723.3hPa | 2.6V | 00:00:00 | 02:39:31 | 00:00:00 | |
| DO3MHA-11 | 2026-09-04 02:14:05 | 49.81923 | 12.12524 | 105° | 78km/h | 2914m | -4.2m/s | 6.5°C | 41.4% | 722.9hPa | 2.6V | 00:00:00 | 02:39:30 | 00:00:00 | |
| DO9HM | 2026-09-04 02:14:01 | 49.81949 | 12.12406 | 113° | 77km/h | 2931m | -4.3m/s | 6.9°C | 21.5% | 721.5hPa | 2.7V | 07:40:00 | 00:00:00 | 00:00:00 | |
| DO3MHA-11 | 2026-09-04 02:14:00 | 49.81956 | 12.12379 | 113° | 69km/h | 2936m | -4.2m/s | 6.9°C | 17.3% | 721.1hPa | 2.7V | 00:00:00 | 02:39:25 | 00:00:00 | |
| DL1NUX | 2026-09-04 02:13:58 | 49.81993 | 12.12196 | 105° | 77km/h | 2965m | -4.1m/s | 7.1°C | 11.4% | 718.6hPa | 2.7V | 07:40:18 | 02:39:18 | 00:00:00 | |
| DO3MHA-11 | 2026-09-04 02:13:55 | 49.81983 | 12.12252 | 104° | 77km/h | 2957m | -4.1m/s | 7.1°C | 10.9% | 719.3hPa | 2.6V | 00:00:00 | 02:39:20 | 00:00:00 | |
| SO1NDE-10 | 2026-09-04 02:13:53 | 49.81992 | 12.12196 | 106° | 71km/h | 2965m | -4.1m/s | 7.1°C | 11.4% | 718.5hPa | 2.6V | 00:00:00 | 02:39:18 | 00:00:00 | |
| DL1NUX | 2026-09-04 02:13:51 | 49.82040 | 12.12004 | 111° | 66km/h | 2994m | -4.2m/s | 7.2°C | 8.7% | 715.9hPa | 2.6V | 07:40:25 | 02:39:11 | 00:00:00 | |
| DO3MHA-11 | 2026-09-04 02:13:50 | 49.82011 | 12.12108 | 112° | 73km/h | 2978m | -4.2m/s | 7.1°C | 11.3% | 717.5hPa | 2.7V | 00:00:00 | 02:39:15 | 00:00:00 | |
| DH8WE-5 | 2026-09-04 02:13:48 | 49.82019 | 12.12081 | 114° | 75km/h | 2982m | -4.3m/s | 7.2°C | 10.3% | 717.0hPa | 2.7V | 07:40:00 | 00:00:00 | 00:00:00 | |
| DL0LBS | 2026-09-04 02:13:46 | 49.82033 | 12.12028 | 114° | 69km/h | 2990m | -4.2m/s | 7.2°C | 8.8% | 716.4hPa | 2.7V | 07:40:00 | 00:00:00 | 00:00:00 | |
| DO3MHA-11 | 2026-09-04 02:13:45 | 49.82045 | 12.11980 | 110° | 69km/h | 2999m | -4.5m/s | 7.2°C | 8.2% | 715.4hPa | 2.7V | 07:40:00 | 02:39:10 | 00:00:00 | |
| NBG1-10 | 2026-09-04 02:13:44 | 49.82051 | 12.11955 | 108° | 71km/h | 3003m | -4.4m/s | 7.3°C | 5.9% | 715.1hPa | 2.7V | 00:00:00 | 02:39:09 | 00:00:00 | |
| DL1NUX | 2026-09-04 02:13:41 | 49.82065 | 12.11876 | 106° | 75km/h | 3016m | -4.3m/s | 7.6°C | 2.3% | 714.1hPa | 2.7V | 07:40:30 | 02:39:06 | 00:00:00 | |
| DL1NUX | 2026-09-04 02:13:41 | 49.82100 | 12.11742 | 113° | 68km/h | 3037m | -4.5m/s | 7.5°C | 6.5% | 712.2hPa | 2.7V | 07:40:35 | 02:39:01 | 00:00:00 | |
| DO3MHA-11 | 2026-09-04 02:13:40 | 49.82071 | 12.11848 | 110° | 73km/h | 3020m | -4.0m/s | 7.5°C | 2.8% | 713.7hPa | 2.7V | 00:00:00 | 02:39:05 | 00:00:00 | |
| DO9HM | 2026-09-04 02:13:39 | 49.82071 | 12.11848 | 110° | 77km/h | 3020m | -4.1m/s | 7.6°C | 2.8% | 713.7hPa | 2.7V | 07:40:00 | 00:00:00 | 00:00:00 | |
| DL1NUX | 2026-09-04 02:13:36 | 49.82127 | 12.11617 | 105° | 73km/h | 3059m | -4.3m/s | 7.3°C | 8% | 710.4hPa | 2.7V | 07:40:40 | 02:38:56 | 00:00:00 | |
| DO3MHA-11 | 2026-09-04 02:13:35 | 49.82106 | 12.11718 | 113° | 69km/h | 3042m | -4.4m/s | 7.4°C | 6.6% | 711.8hPa | 2.7V | 00:00:00 | 02:39:00 | 00:00:00 | |
| DL1NUX | 2026-09-04 02:13:31 | 49.82160 | 12.11479 | 113° | 73km/h | 3081m | -4.1m/s | 7.2°C | 5.8% | 708.5hPa | 2.7V | 07:40:45 | 02:38:51 | 00:00:00 | |
| DO3MHA-11 | 2026-09-04 02:13:29 | 49.82138 | 12.11561 | 109° | 75km/h | 3068m | -4.3m/s | 7.3°C | 7.1% | 709.6hPa | 2.6V | 00:00:00 | 02:38:54 | 00:00:00 | |
| DH8WE-5 | 2026-09-04 02:13:28 | 49.82138 | 12.11561 | 110° | 77km/h | 3068m | -4.4m/s | 7.3°C | 7.1% | 709.6hPa | 2.6V | 00:00:00 | 00:00:00 | 00:00:00 | |
| DL1NUX | 2026-09-04 02:13:26 | 49.82192 | 12.11355 | 108° | 68km/h | 3102m | -4.4m/s | 7.2°C | 3.7% | 706.7hPa | 2.6V | 07:40:50 | 02:38:46 | 00:00:00 | |
| DB0NH | 2026-09-04 02:13:25 | 49.82167 | 12.11453 | 115° | 71km/h | 3085m | -4.2m/s | 7.2°C | 5.2% | 708.0hPa | 2.6V | 00:00:00 | 02:38:50 | 00:00:00 | |
| DO3MHA-11 | 2026-09-04 02:13:24 | 49.82174 | 12.11428 | 114° | 68km/h | 3089m | -4.3m/s | 7.2°C | 5.0% | 707.7hPa | 2.6V | 00:00:00 | 02:38:49 | 00:00:00 | |
| NBG1-10 | 2026-09-04 02:13:22 | 49.82187 | 12.11380 | 110° | 71km/h | 3098m | -4.3m/s | 7.1°C | 4.1% | 706.9hPa | 2.6V | 00:00:00 | 02:38:47 | 00:00:00 | |
| DL1NUX | 2026-09-04 02:13:21 | 49.82223 | 12.11225 | 112° | 69km/h | 3125m | -4.4m/s | 7.1°C | 3.1% | 704.7hPa | 2.7V | 07:40:55 | 02:38:41 | 00:00:00 | |
| DO3MHA-11 | 2026-09-04 02:13:19 | 49.82203 | 12.11303 | 110° | 71km/h | 3111m | -4.3m/s | 7.1°C | 3.2% | 705.9hPa | 2.7V | 00:00:00 | 02:38:44 | 00:00:00 | |
| DO9HM | 2026-09-04 02:13:18 | 49.82204 | 12.11303 | 110° | 73km/h | 3111m | -4.3m/s | 7.2°C | 3.2% | 705.9hPa | 2.7V | 07:41:00 | 00:00:00 | 00:00:00 | |
| DO3MHA-11 | 2026-09-04 02:13:14 | 49.82236 | 12.11175 | 110° | 71km/h | 3133m | -4.5m/s | 7.0°C | 4.1% | 704.0hPa | 2.7V | 00:00:00 | 02:38:39 | 00:00:00 | |
| DL1NUX | 2026-09-04 02:13:11 | 49.82253 | 12.11097 | 108° | 73km/h | 3147m | -4.5m/s | 7°C | 5.2% | 702.8hPa | 2.7V | 07:41:00 | 02:38:36 | 00:00:00 | |
| DL1NUX | 2026-09-04 02:13:11 | 49.82286 | 12.10965 | 111° | 68km/h | 3169m | -4.4m/s | 6.8°C | 8.3% | 700.9hPa | 2.7V | 07:41:05 | 02:38:31 | 00:00:00 | |
| SO1NDE-10 | 2026-09-04 02:13:09 | 49.82265 | 12.11042 | 113° | 71km/h | 3156m | -4.4m/s | 6.9°C | 6.1% | 702.1hPa | 2.6V | 00:00:00 | 02:38:34 | 00:00:00 | |
| DH8WE-5 | 2026-09-04 02:13:06 | 49.82280 | 12.10990 | 114° | 69km/h | 3164m | -4.4m/s | 6.9°C | 8.1% | 701.2hPa | 2.6V | 00:00:00 | 00:00:00 | 00:00:00 | |
| DO3MHA-11 | 2026-09-04 02:13:04 | 49.82298 | 12.10915 | 109° | 73km/h | 3178m | -4.3m/s | 6.7°C | 8.4% | 700.0hPa | 2.6V | 07:41:00 | 02:38:29 | 00:00:00 | |
| DL0LBS | 2026-09-04 02:13:03 | 49.82298 | 12.10915 | 109° | 69km/h | 3178m | -4.4m/s | 6.8°C | 8.3% | 700.0hPa | 2.7V | 07:41:00 | 00:00:00 | 00:00:00 | |
| DL1NUX | 2026-09-04 02:13:01 | 49.82315 | 12.10834 | 110° | 75km/h | 3191m | -4.5m/s | 6.7°C | 8.3% | 698.9hPa | 2.7V | 07:41:10 | 02:38:26 | 00:00:00 | |
| DL1NUX | 2026-09-04 02:13:01 | 49.82349 | 12.10706 | 109° | 66km/h | 3214m | -4.6m/s | 6.5°C | 7.2% | 697hPa | 2.6V | 07:41:15 | 02:38:21 | 00:00:00 | |
| NBG1-10 | 2026-09-04 02:13:00 | 49.82322 | 12.10807 | 113° | 71km/h | 3196m | -4.4m/s | 6.6°C | 8.0% | 698.5hPa | 2.7V | 00:00:00 | 02:38:25 | 00:00:00 | |
| DO3MHA-11 | 2026-09-04 02:12:59 | 49.82330 | 12.10780 | 114° | 69km/h | 3200m | -4.5m/s | 6.6°C | 7.9% | 698.2hPa | 2.7V | 00:00:00 | 02:38:24 | 00:00:00 | |
| DO9HM | 2026-09-04 02:12:57 | 49.82337 | 12.10755 | 115° | 69km/h | 3205m | -4.5m/s | 6.6°C | 7.3% | 697.9hPa | 2.7V | 07:41:00 | 00:00:00 | 00:00:00 | |
| DL1NUX | 2026-09-04 02:12:56 | 49.82375 | 12.10573 | 107° | 75km/h | 3236m | -4.6m/s | 6.4°C | 7.5% | 695.1hPa | 2.7V | 07:41:20 | 02:38:16 | 00:00:00 | |
| DB0NH | 2026-09-04 02:12:55 | 49.82355 | 12.10681 | 107° | 69km/h | 3218m | -4.4m/s | 6.5°C | 7.5% | 696.7hPa | 2.7V | 07:41:00 | 02:38:20 | 00:00:00 | |
| DO3MHA-11 | 2026-09-04 02:12:54 | 49.82360 | 12.10655 | 106° | 73km/h | 3223m | -4.5m/s | 6.4°C | 8.1% | 696.2hPa | 2.7V | 00:00:00 | 02:38:19 | 00:00:00 | |
| DL1NUX | 2026-09-04 02:12:51 | 49.82405 | 12.10442 | 108° | 66km/h | 3259m | -4.5m/s | 6.2°C | 6.8% | 693.2hPa | 2.7V | 07:41:25 | 02:38:11 | 00:00:00 | |
| DO3MHA-11 | 2026-09-04 02:12:49 | 49.82387 | 12.10518 | 111° | 69km/h | 3246m | -4.5m/s | 6.3°C | 7.7% | 694.4hPa | 2.6V | 00:00:00 | 02:38:14 | 00:00:00 | |
| DL1NUX | 2026-09-04 02:12:46 | 49.82431 | 12.10311 | 109° | 73km/h | 3282m | -4.6m/s | 6.1°C | 7% | 691.3hPa | 2.6V | 07:41:30 | 02:38:06 | 00:00:00 | |
| DO3MHA-11 | 2026-09-04 02:12:44 | 49.82415 | 12.10391 | 106° | 71km/h | 3268m | -4.7m/s | 6.1°C | 7.0% | 692.5hPa | 2.7V | 00:00:00 | 02:38:09 | 00:00:00 | |
| DL0LBS | 2026-09-04 02:12:42 | 49.82420 | 12.10364 | 107° | 71km/h | 3273m | -4.7m/s | 6.2°C | 7.1% | 692.2hPa | 2.7V | 07:41:00 | 00:00:00 | 00:00:00 | |
| DL1NUX | 2026-09-04 02:12:41 | 49.82459 | 12.10184 | 105° | 68km/h | 3305m | -4.7m/s | 6°C | 7.8% | 689.5hPa | 2.7V | 07:41:35 | 02:38:01 | 00:00:00 | |
| DO3MHA-11 | 2026-09-04 02:12:39 | 49.82443 | 12.10259 | 111° | 68km/h | 3292m | -4.5m/s | 6.0°C | 7.5% | 690.5hPa | 2.7V | 00:00:00 | 02:38:04 | 00:00:00 | |
| DO9HM | 2026-09-04 02:12:37 | 49.82449 | 12.10234 | 110° | 68km/h | 3296m | -4.4m/s | 6.0°C | 7.9% | 690.1hPa | 2.7V | 07:42:00 | 00:00:00 | 00:00:00 | |
| DO3MHA-11 | 2026-09-04 02:12:34 | 49.82468 | 12.10130 | 106° | 69km/h | 3314m | -4.5m/s | 5.9°C | 7.3% | 688.6hPa | 2.7V | 00:00:00 | 02:37:59 | 00:00:00 | |
| DL1NUX | 2026-09-04 02:12:31 | 49.82485 | 12.10051 | 108° | 69km/h | 3328m | -4.6m/s | 5.9°C | 6.3% | 687.5hPa | 2.7V | 07:41:40 | 02:37:56 | 00:00:00 | |
| DL1NUX | 2026-09-04 02:12:31 | 49.82508 | 12.09924 | 105° | 69km/h | 3351m | -4.6m/s | 5.7°C | 7.6% | 685.6hPa | 2.7V | 07:41:45 | 02:37:51 | 00:00:00 | |
| SO1NDE-10 | 2026-09-04 02:12:29 | 49.82495 | 12.10001 | 107° | 68km/h | 3337m | -4.6m/s | 5.8°C | 5.9% | 686.7hPa | 2.7V | 00:00:00 | 02:37:54 | 00:00:00 | |
| DB0NH | 2026-09-04 02:12:25 | 49.82513 | 12.09898 | 107° | 68km/h | 3356m | -4.4m/s | 5.7°C | 7.6% | 685.1hPa | 2.6V | 00:00:00 | 02:37:50 | 00:00:00 | |
| DO3MHA-11 | 2026-09-04 02:12:24 | 49.82518 | 12.09873 | 108° | 66km/h | 3360m | -4.5m/s | 5.6°C | 8.2% | 684.7hPa | 2.7V | 07:41:00 | 02:37:49 | 00:00:00 | |
| DL1NUX | 2026-09-04 02:12:21 | 49.82531 | 12.09800 | 102° | 64km/h | 3374m | -4.9m/s | 5.6°C | 9.4% | 683.6hPa | 2.7V | 07:41:50 | 02:37:46 | 00:00:00 | |
| DL1NUX | 2026-09-04 02:12:21 | 49.82552 | 12.09664 | 107° | 75km/h | 3398m | -4.5m/s | 5.5°C | 10.2% | 681.6hPa | 2.6V | 07:41:55 | 02:37:41 | 00:00:00 | |
| DO3MHA-11 | 2026-09-04 02:12:19 | 49.82538 | 12.09748 | 102° | 73km/h | 3384m | -4.4m/s | 5.5°C | 10.0% | 682.7hPa | 2.7V | 00:00:00 | 02:37:44 | 00:00:00 | |
| DL1NUX | 2026-09-04 02:12:16 | 49.82581 | 12.09537 | 108° | 64km/h | 3420m | -4.5m/s | 5.3°C | 11% | 679.7hPa | 2.7V | 07:42:00 | 02:37:36 | 00:00:00 | |
| DO3MHA-11 | 2026-09-04 02:12:14 | 49.82564 | 12.09610 | 111° | 66km/h | 3406m | -4.5m/s | 5.4°C | 10.7% | 680.8hPa | 2.7V | 00:00:00 | 02:37:39 | 00:00:00 | |
| DL1NUX | 2026-09-04 02:12:11 | 49.82605 | 12.09412 | 107° | 69km/h | 3443m | -4.7m/s | 5.2°C | 10.8% | 677.9hPa | 2.7V | 07:42:05 | 02:37:31 | 00:00:00 | |
| DO3MHA-11 | 2026-09-04 02:12:09 | 49.82591 | 12.09489 | 106° | 68km/h | 3429m | -4.3m/s | 5.2°C | 10.8% | 679.0hPa | 2.7V | 00:00:00 | 02:37:34 | 00:00:00 | |
| DL1NUX | 2026-09-04 02:12:06 | 49.82631 | 12.09289 | 105° | 64km/h | 3466m | -4.7m/s | 5°C | 10.9% | 676hPa | 2.7V | 07:42:10 | 02:37:26 | 00:00:00 | |
| DO3MHA-11 | 2026-09-04 02:12:04 | 49.82616 | 12.09361 | 110° | 66km/h | 3452m | -4.5m/s | 5.1°C | 11.0% | 677.2hPa | 2.6V | 00:00:00 | 02:37:29 | 00:00:00 | |
| DL1NUX | 2026-09-04 02:12:01 | 49.82656 | 12.09165 | 110° | 64km/h | 3488m | -4.5m/s | 4.9°C | 10.2% | 674hPa | 2.7V | 07:42:15 | 02:37:21 | 00:00:00 | |
| DL0LBS | 2026-09-04 02:12:00 | 49.82630 | 12.09289 | 106° | 64km/h | 3466m | -4.7m/s | 5.0°C | 10.7% | 676.0hPa | 2.7V | 00:00:00 | 00:00:00 | 00:00:00 | |
| DO3MHA-11 | 2026-09-04 02:11:59 | 49.82640 | 12.09239 | 107° | 66km/h | 3475m | -4.6m/s | 4.9°C | 10.5% | 675.2hPa | 2.7V | 00:00:00 | 02:37:24 | 00:00:00 | |
| DL1NUX | 2026-09-04 02:11:56 | 49.82681 | 12.09043 | 106° | 69km/h | 3511m | -4.5m/s | 4.7°C | 10.2% | 672.2hPa | 2.7V | 07:42:20 | 02:37:16 | 00:00:00 | |
| DB0NH | 2026-09-04 02:11:55 | 49.82661 | 12.09142 | 110° | 68km/h | 3493m | -4.5m/s | 4.8°C | 10.2% | 673.6hPa | 2.7V | 00:00:00 | 02:37:20 | 00:00:00 | |
| DO3MHA-11 | 2026-09-04 02:11:54 | 49.82667 | 12.09118 | 108° | 68km/h | 3498m | -4.6m/s | 4.8°C | 10.2% | 673.1hPa | 2.7V | 00:00:00 | 02:37:19 | 00:00:00 | |
| DL1NUX | 2026-09-04 02:11:51 | 49.82711 | 12.08917 | 109° | 66km/h | 3534m | -4.6m/s | 4.6°C | 10.6% | 670.3hPa | 2.7V | 07:42:25 | 02:37:11 | 00:00:00 | |
| SO1NDE-10 | 2026-09-04 02:11:49 | 49.82692 | 12.08990 | 111° | 68km/h | 3521m | -4.5m/s | 4.6°C | 10.2% | 671.2hPa | 2.7V | 00:00:00 | 02:37:14 | 00:00:00 | |
| DO3MHA-11 | 2026-09-04 02:11:44 | 49.82721 | 12.08867 | 109° | 68km/h | 3543m | -4.5m/s | 4.5°C | 10.7% | 669.5hPa | 2.7V | 07:42:00 | 02:37:09 | 00:00:00 | |
| DL1NUX | 2026-09-04 02:11:41 | 49.82739 | 12.08791 | 110° | 68km/h | 3557m | -4.7m/s | 4.5°C | 12.7% | 668.4hPa | 2.7V | 07:42:30 | 02:37:06 | 00:00:00 | |
| DL1NUX | 2026-09-04 02:11:41 | 49.82766 | 12.08665 | 107° | 71km/h | 3580m | -4.6m/s | 4.5°C | 12.3% | 666.5hPa | 2.7V | 07:42:35 | 02:37:01 | 00:00:00 | |
| DO3MHA-11 | 2026-09-04 02:11:39 | 49.82751 | 12.08742 | 109° | 69km/h | 3566m | -4.4m/s | 4.5°C | 12.5% | 667.6hPa | 2.7V | 00:00:00 | 02:37:04 | 00:00:00 | |
| DL1NUX | 2026-09-04 02:11:36 | 49.82798 | 12.08539 | 113° | 66km/h | 3602m | -4.5m/s | 4.4°C | 12% | 664.8hPa | 2.7V | 07:42:40 | 02:36:56 | 00:00:00 | |
| DO9HM | 2026-09-04 02:11:35 | 49.82772 | 12.08638 | 111° | 73km/h | 3584m | -4.3m/s | 4.5°C | 12.0% | 666.2hPa | 2.6V | 00:00:00 | 00:00:00 | 00:00:00 | |
| DO3MHA-11 | 2026-09-04 02:11:34 | 49.82778 | 12.08612 | 112° | 68km/h | 3589m | -4.3m/s | 4.4°C | 12.2% | 665.7hPa | 2.6V | 00:00:00 | 02:36:59 | 00:00:00 | |
| DL1NUX | 2026-09-04 02:11:31 | 49.82827 | 12.08417 | 110° | 69km/h | 3624m | -4.3m/s | 4.3°C | 13% | 662.8hPa | 2.7V | 07:42:45 | 02:36:51 | 00:00:00 | |
| DO3MHA-11 | 2026-09-04 02:11:29 | 49.82810 | 12.08491 | 110° | 68km/h | 3611m | -4.4m/s | 4.3°C | 11.9% | 663.9hPa | 2.6V | 00:00:00 | 02:36:54 | 00:00:00 | |
| DL1NUX | 2026-09-04 02:11:26 | 49.82858 | 12.08295 | 109° | 64km/h | 3646m | -4.4m/s | 4.2°C | 14.6% | 661hPa | 2.6V | 07:42:50 | 02:36:46 | 00:00:00 | |
| NBG1-10 | 2026-09-04 02:11:26 | 49.82827 | 12.08417 | 111° | 68km/h | 3624m | -4.3m/s | 4.2°C | 13.0% | 662.8hPa | 2.7V | 07:42:00 | 02:36:51 | 00:00:00 | |
| DB0NH | 2026-09-04 02:11:25 | 49.82833 | 12.08391 | 112° | 68km/h | 3628m | -4.5m/s | 4.2°C | 13.2% | 662.5hPa | 2.7V | 00:00:00 | 02:36:50 | 00:00:00 | |
| DO3MHA-11 | 2026-09-04 02:11:24 | 49.82840 | 12.08366 | 113° | 66km/h | 3633m | -4.5m/s | 4.2°C | 14.0% | 662.1hPa | 2.7V | 00:00:00 | 02:36:49 | 00:00:00 | |
| SO1NDE-10 | 2026-09-04 02:11:23 | 49.82847 | 12.08342 | 113° | 68km/h | 3637m | -4.5m/s | 4.2°C | 14.2% | 661.7hPa | 2.7V | 00:00:00 | 02:36:48 | 00:00:00 | |
| DL1NUX | 2026-09-04 02:11:21 | 49.82887 | 12.08171 | 112° | 68km/h | 3668m | -4.5m/s | 4°C | 39.8% | 659.2hPa | 2.7V | 07:42:55 | 02:36:41 | 00:00:00 | |
| DO3MHA-11 | 2026-09-04 02:11:19 | 49.82869 | 12.08246 | 109° | 68km/h | 3655m | -4.2m/s | 4.1°C | 17.1% | 660.3hPa | 2.7V | 00:00:00 | 02:36:44 | 00:00:00 | |
| DL0LBS | 2026-09-04 02:11:18 | 49.82869 | 12.08246 | 110° | 68km/h | 3655m | -4.2m/s | 4.2°C | 16.7% | 660.4hPa | 2.7V | 07:43:00 | 00:00:00 | 00:00:00 | |
| DO3MHA-11 | 2026-09-04 02:11:14 | 49.82900 | 12.08123 | 112° | 68km/h | 3678m | -4.5m/s | 3.8°C | 55.8% | 658.5hPa | 2.7V | 00:00:00 | 02:36:39 | 00:00:00 | |
| DL1NUX | 2026-09-04 02:11:11 | 49.82918 | 12.08049 | 111° | 69km/h | 3691m | -4.5m/s | 3.6°C | 59.3% | 657.5hPa | 2.7V | 07:43:00 | 02:36:36 | 00:00:00 | |
| DL1NUX | 2026-09-04 02:11:11 | 49.82952 | 12.07927 | 112° | 66km/h | 3714m | -4.6m/s | 3.4°C | 61.3% | 655.6hPa | 2.6V | 07:43:05 | 02:36:31 | 00:00:00 | |
| DO3MHA-11 | 2026-09-04 02:11:09 | 49.82932 | 12.07998 | 114° | 66km/h | 3700m | -4.7m/s | 3.5°C | 60.1% | 656.6hPa | 2.7V | 00:00:00 | 02:36:34 | 00:00:00 | |
| DO3MHA-11 | 2026-09-04 02:11:04 | 49.82964 | 12.07879 | 113° | 66km/h | 3724m | -4.5m/s | 3.3°C | 61.4% | 654.8hPa | 2.7V | 07:43:00 | 02:36:29 | 00:00:00 | |
| DL1NUX | 2026-09-04 02:11:01 | 49.82985 | 12.07807 | 113° | 66km/h | 3737m | -4.6m/s | 3.2°C | 62.6% | 653.8hPa | 2.7V | 07:43:10 | 02:36:26 | 00:00:00 | |
| DL1NUX | 2026-09-04 02:11:01 | 49.83017 | 12.07681 | 113° | 73km/h | 3760m | -4.5m/s | 3°C | 63.3% | 652hPa | 2.7V | 07:43:15 | 02:36:21 | 00:00:00 | |
| DO3MHA-11 | 2026-09-04 02:10:59 | 49.82997 | 12.07759 | 111° | 71km/h | 3746m | -4.4m/s | 3.1°C | 63.0% | 653.0hPa | 2.6V | 00:00:00 | 02:36:24 | 00:00:00 | |
| DL0LBS | 2026-09-04 02:10:58 | 49.82997 | 12.07759 | 111° | 68km/h | 3746m | -4.5m/s | 3.1°C | 61.4% | 653.0hPa | 2.6V | 07:43:00 | 00:00:00 | 00:00:00 | |
| DL1NUX | 2026-09-04 02:10:56 | 49.83055 | 12.07558 | 114° | 68km/h | 3781m | -4.1m/s | 2.8°C | 64% | 650.1hPa | 2.6V | 07:43:20 | 02:36:16 | 00:00:00 | |
| DB0NH | 2026-09-04 02:10:55 | 49.83024 | 12.07655 | 116° | 69km/h | 3764m | -4.5m/s | 2.9°C | 63.5% | 651.5hPa | 2.7V | 00:00:00 | 02:36:20 | 00:00:00 | |
| DO3MHA-11 | 2026-09-04 02:10:54 | 49.83032 | 12.07630 | 117° | 68km/h | 3769m | -4.3m/s | 2.8°C | 63.7% | 651.1hPa | 2.7V | 00:00:00 | 02:36:19 | 00:00:00 | |
| NBG1-10 | 2026-09-04 02:10:53 | 49.83040 | 12.07606 | 117° | 69km/h | 3773m | -4.2m/s | 2.8°C | 63.9% | 650.8hPa | 2.7V | 00:00:00 | 02:36:18 | 00:00:00 | |
| DL1NUX | 2026-09-04 02:10:51 | 49.83090 | 12.07434 | 114° | 71km/h | 3804m | -4.5m/s | 2.6°C | 64.2% | 648.5hPa | 2.7V | 07:43:25 | 02:36:11 | 00:00:00 | |
| DO3MHA-11 | 2026-09-04 02:10:49 | 49.83069 | 12.07510 | 113° | 69km/h | 3790m | -4.5m/s | 2.6°C | 64.4% | 649.4hPa | 2.7V | 00:00:00 | 02:36:14 | 00:00:00 | |
| DL1NUX | 2026-09-04 02:10:46 | 49.83125 | 12.07311 | 112° | 69km/h | 3826m | -4.4m/s | 2.4°C | 63.5% | 646.6hPa | 2.7V | 07:43:30 | 02:36:06 | 00:00:00 | |
| DO3MHA-11 | 2026-09-04 02:10:44 | 49.83105 | 12.07385 | 115° | 69km/h | 3813m | -4.2m/s | 2.4°C | 64.7% | 647.7hPa | 2.7V | 00:00:00 | 02:36:09 | 00:00:00 | |
| DL1NUX | 2026-09-04 02:10:41 | 49.83162 | 12.07188 | 114° | 69km/h | 3848m | -4.3m/s | 2.2°C | 63.1% | 644.8hPa | 2.7V | 07:43:35 | 02:36:01 | 00:00:00 | |
| DO3MHA-11 | 2026-09-04 02:10:39 | 49.83139 | 12.07261 | 116° | 69km/h | 3835m | -4.4m/s | 2.3°C | 63.8% | 645.9hPa | 2.6V | 00:00:00 | 02:36:04 | 00:00:00 | |
| DL1NUX | 2026-09-04 02:10:36 | 49.83200 | 12.07063 | 117° | 69km/h | 3869m | -4.3m/s | 2°C | 63.3% | 643.2hPa | 2.6V | 07:43:40 | 02:35:56 | 00:00:00 | |
| DO3MHA-11 | 2026-09-04 02:10:34 | 49.83176 | 12.07138 | 116° | 71km/h | 3857m | -4.3m/s | 2.1°C | 63.0% | 644.2hPa | 2.7V | 00:00:00 | 02:35:59 | 00:00:00 | |
| DO3MHA-11 | 2026-09-04 02:10:29 | 49.83215 | 12.07014 | 114° | 71km/h | 3878m | -4.2m/s | 1.9°C | 63.1% | 642.4hPa | 2.7V | 00:00:00 | 02:35:54 | 00:00:00 | |
| DL1NUX | 2026-09-04 02:10:26 | 49.83236 | 12.06937 | 113° | 73km/h | 3891m | -4.6m/s | 1.8°C | 63.5% | 641.3hPa | 2.7V | 07:43:45 | 02:35:51 | 00:00:00 | |
| DL1NUX | 2026-09-04 02:10:26 | 49.83276 | 12.06810 | 114° | 69km/h | 3914m | -4.5m/s | 1.6°C | 63.8% | 639.7hPa | 2.7V | 07:43:50 | 02:35:46 | 00:00:00 | |
| DB0NH | 2026-09-04 02:10:25 | 49.83244 | 12.06911 | 116° | 73km/h | 3896m | -4.5m/s | 1.7°C | 63.8% | 641.0hPa | 2.7V | 00:00:00 | 02:35:50 | 00:00:00 | |
| DO3MHA-11 | 2026-09-04 02:10:24 | 49.83252 | 12.06885 | 117° | 71km/h | 3901m | -4.5m/s | 1.7°C | 63.5% | 640.7hPa | 2.7V | 07:43:00 | 02:35:49 | 00:00:00 | |
| SO1NDE-10 | 2026-09-04 02:10:23 | 49.83260 | 12.06860 | 117° | 73km/h | 3905m | -4.3m/s | 1.7°C | 63.6% | 640.2hPa | 2.7V | 00:00:00 | 02:35:48 | 00:00:00 | |
| NBG1-10 | 2026-09-04 02:10:20 | 49.83283 | 12.06785 | 115° | 75km/h | 3918m | -4.4m/s | 1.5°C | 64.0% | 639.2hPa | 2.7V | 00:00:00 | 02:35:45 | 00:00:00 | |
| DF2AP-13 | 2026-09-04 02:10:19 | 49.83291 | 12.06759 | 115° | 73km/h | 3923m | -4.4m/s | 1.5°C | 63.5% | 638.9hPa | 2.6V | 00:00:00 | 02:35:44 | 00:00:00 | |
| DL1NUX | 2026-09-04 02:10:16 | 49.83315 | 12.06682 | 117° | 73km/h | 3936m | -4.5m/s | 1.4°C | 63.6% | 637.9hPa | 2.6V | 07:43:55 | 02:35:41 | 00:00:00 | |
| DL1NUX | 2026-09-04 02:10:16 | 49.83355 | 12.06556 | 115° | 75km/h | 3958m | -4.3m/s | 1.2°C | 64% | 636.1hPa | 2.7V | 07:44:00 | 02:35:36 | 00:00:00 | |
| DO3MHA-11 | 2026-09-04 02:10:14 | 49.83332 | 12.06632 | 117° | 73km/h | 3945m | -4.4m/s | 1.3°C | 63.6% | 637.1hPa | 2.7V | 00:00:00 | 02:35:39 | 00:00:00 | |
| DO3MHA-11 | 2026-09-04 02:10:09 | 49.83372 | 12.06503 | 117° | 75km/h | 3967m | -4.3m/s | 1.1°C | 64.3% | 635.3hPa | 2.7V | 00:00:00 | 02:35:34 | 00:00:00 | |
| DL1NUX | 2026-09-04 02:10:06 | 49.83395 | 12.06424 | 114° | 77km/h | 3980m | -4.6m/s | 1°C | 64.8% | 634.3hPa | 2.7V | 07:44:05 | 02:35:31 | 00:00:00 | |
| DL1NUX | 2026-09-04 02:10:06 | 49.83440 | 12.06293 | 117° | 73km/h | 4002m | -4.2m/s | 0.8°C | 65.4% | 632.6hPa | 2.7V | 07:44:10 | 02:35:26 | 00:00:00 | |
| DO3MHA-11 | 2026-09-04 02:10:04 | 49.83412 | 12.06370 | 118° | 75km/h | 3989m | -4.5m/s | 0.9°C | 64.9% | 633.6hPa | 2.7V | 00:00:00 | 02:35:29 | 00:00:00 | |
| DH8WE-5 | 2026-09-04 02:10:02 | 49.83422 | 12.06344 | 120° | 75km/h | 3994m | -4.4m/s | 0.9°C | 63.1% | 633.2hPa | 2.6V | 00:00:00 | 00:00:00 | 00:00:00 | |
| DL1NUX | 2026-09-04 02:10:01 | 49.83481 | 12.06161 | 116° | 77km/h | 4024m | -4.4m/s | 0.6°C | 66.1% | 630.9hPa | 2.6V | 07:44:15 | 02:35:21 | 00:00:00 | |
| DO3MHA-11 | 2026-09-04 02:09:59 | 49.83456 | 12.06241 | 116° | 77km/h | 4011m | -4.3m/s | 0.7°C | 65.7% | 631.9hPa | 2.7V | 00:00:00 | 02:35:24 | 00:00:00 | |
| DB0NH | 2026-09-04 02:09:55 | 49.83490 | 12.06134 | 117° | 75km/h | 4029m | -4.4m/s | 0.5°C | 66.4% | 630.6hPa | 2.7V | 00:00:00 | 02:35:20 | 00:00:00 | |
| DO3MHA-11 | 2026-09-04 02:09:54 | 49.83498 | 12.06108 | 116° | 77km/h | 4033m | -4.3m/s | 0.5°C | 66.6% | 630.2hPa | 2.7V | 00:00:00 | 02:35:19 | 00:00:00 | |
| SO1NDE-10 | 2026-09-04 02:09:53 | 49.83506 | 12.06082 | 115° | 75km/h | 4037m | -4.3m/s | 0.4°C | 66.7% | 629.7hPa | 2.7V | 00:00:00 | 02:35:18 | 00:00:00 | |
| DL1NUX | 2026-09-04 02:09:51 | 49.83522 | 12.06028 | 115° | 77km/h | 4046m | -4.3m/s | 0.4°C | 67% | 629.2hPa | 2.7V | 07:44:20 | 02:35:16 | 00:00:00 | |
| DL1NUX | 2026-09-04 02:09:51 | 49.83566 | 12.05896 | 116° | 75km/h | 4068m | -4.4m/s | 0.2°C | 66.3% | 627.5hPa | 2.7V | 07:44:25 | 02:35:11 | 00:00:00 | |
| DF2AP-13 | 2026-09-04 02:09:49 | 49.83540 | 12.05974 | 119° | 77km/h | 4055m | -4.2m/s | 0.3°C | 67.4% | 628.5hPa | 2.6V | 00:00:00 | 02:35:14 | 00:00:00 | |
| DL0LBS | 2026-09-04 02:09:48 | 49.83540 | 12.05974 | 119° | 77km/h | 4055m | -4.3m/s | 0.3°C | 65.4% | 628.6hPa | 2.7V | 00:00:00 | 00:00:00 | 00:00:00 | |
| NBG1-10 | 2026-09-04 02:09:47 | 49.83558 | 12.05922 | 118° | 77km/h | 4063m | -4.3m/s | 0.2°C | 67.6% | 627.7hPa | 2.7V | 00:00:00 | 02:35:12 | 00:00:00 | |
| DO3MHA-11 | 2026-09-04 02:09:44 | 49.83583 | 12.05843 | 118° | 75km/h | 4076m | -4.2m/s | 0.1°C | 66.3% | 626.8hPa | 2.7V | 07:44:00 | 02:35:09 | 00:00:00 | |
| DL1NUX | 2026-09-04 02:09:41 | 49.83610 | 12.05766 | 118° | 73km/h | 4089m | -4.3m/s | 0.1°C | 66% | 625.8hPa | 2.7V | 07:44:30 | 02:35:06 | 00:00:00 | |
| DL1NUX | 2026-09-04 02:09:41 | 49.83654 | 12.05635 | 119° | 77km/h | 4111m | -4.4m/s | -0.1°C | 65.5% | 624.1hPa | 2.6V | 07:44:35 | 02:35:01 | 00:00:00 | |
| DO3MHA-11 | 2026-09-04 02:09:39 | 49.83627 | 12.05714 | 117° | 77km/h | 4098m | -4.2m/s | -0.0°C | 66.0% | 625.1hPa | 2.7V | 00:00:00 | 02:35:04 | 00:00:00 | |
| DL1NUX | 2026-09-04 02:09:36 | 49.83702 | 12.05504 | 120° | 80km/h | 4132m | -4.6m/s | -0.2°C | 62.7% | 622.4hPa | 2.7V | 07:44:40 | 02:34:56 | 00:00:00 | |
| DO9HM | 2026-09-04 02:09:35 | 49.83654 | 12.05635 | 121° | 77km/h | 4111m | -4.4m/s | -0.1°C | 63.5% | 624.1hPa | 2.7V | 07:44:00 | 00:00:00 | 00:00:00 | |
| DO3MHA-11 | 2026-09-04 02:09:34 | 49.83673 | 12.05583 | 120° | 78km/h | 4119m | -4.2m/s | -0.1°C | 63.1% | 623.4hPa | 2.7V | 00:00:00 | 02:34:59 | 00:00:00 | |
| DH8WE-5 | 2026-09-04 02:09:32 | 49.83682 | 12.05557 | 120° | 77km/h | 4124m | -4.2m/s | -0.2°C | 60.6% | 623.1hPa | 2.7V | 00:00:00 | 00:00:00 | 00:00:00 | |
| DL1NUX | 2026-09-04 02:09:31 | 49.83754 | 12.05380 | 121° | 71km/h | 4153m | -4.3m/s | -0.4°C | 60.4% | 620.8hPa | 2.7V | 07:44:45 | 02:34:51 | 00:00:00 | |
| DO3MHA-11 | 2026-09-04 02:09:29 | 49.83723 | 12.05452 | 124° | 73km/h | 4141m | -4.3m/s | -0.2°C | 61.2% | 621.6hPa | 2.7V | 00:00:00 | 02:34:54 | 00:00:00 | |
| DL0LBS | 2026-09-04 02:09:27 | 49.83734 | 12.05427 | 125° | 75km/h | 4145m | -4.1m/s | -0.3°C | 58.9% | 621.3hPa | 2.7V | 00:00:00 | 00:00:00 | 00:00:00 | |
| DL1NUX | 2026-09-04 02:09:26 | 49.83799 | 12.05250 | 119° | 82km/h | 4174m | -4.5m/s | -0.5°C | 55.3% | 619.1hPa | 2.7V | 07:44:50 | 02:34:46 | 00:00:00 | |
| DB0NH | 2026-09-04 02:09:25 | 49.83763 | 12.05356 | 120° | 77km/h | 4158m | -4.2m/s | -0.4°C | 60.3% | 620.4hPa | 2.7V | 00:00:00 | 02:34:50 | 00:00:00 | |
| DO3MHA-11 | 2026-09-04 02:09:24 | 49.83771 | 12.05331 | 118° | 78km/h | 4162m | -4.1m/s | -0.4°C | 59.8% | 620.0hPa | 2.6V | 00:00:00 | 02:34:49 | 00:00:00 | |
| DL1NUX | 2026-09-04 02:09:21 | 49.83854 | 12.05118 | 124° | 77km/h | 4196m | -4.1m/s | -0.3°C | 39.9% | 617.5hPa | 2.6V | 07:44:55 | 02:34:41 | 00:00:00 | |
| DO3MHA-11 | 2026-09-04 02:09:19 | 49.83820 | 12.05195 | 123° | 78km/h | 4183m | -4.2m/s | -0.5°C | 54.0% | 618.4hPa | 2.7V | 00:00:00 | 02:34:44 | 00:00:00 | |
| DO9HM | 2026-09-04 02:09:15 | 49.83864 | 12.05092 | 124° | 77km/h | 4200m | -4.1m/s | -0.3°C | 33.9% | 617.1hPa | 2.7V | 07:45:00 | 00:00:00 | 00:00:00 | |
| NBG1-10 | 2026-09-04 02:09:14 | 49.83875 | 12.05067 | 122° | 77km/h | 4205m | -4.0m/s | -0.3°C | 34.9% | 616.8hPa | 2.7V | 00:00:00 | 02:34:39 | 00:00:00 | |
| DH8WE-5 | 2026-09-04 02:09:12 | 49.83885 | 12.05042 | 123° | 77km/h | 4209m | -4.2m/s | -0.4°C | 34.4% | 616.5hPa | 2.7V | 07:45:00 | 00:00:00 | 00:00:00 | |
| DL1NUX | 2026-09-04 02:09:11 | 49.83907 | 12.04990 | 123° | 77km/h | 4218m | -4.4m/s | -0.5°C | 35.8% | 615.8hPa | 2.7V | 07:45:00 | 02:34:36 | 00:00:00 | |
| DL1NUX | 2026-09-04 02:09:11 | 49.83957 | 12.04871 | 121° | 73km/h | 4239m | -4.4m/s | -0.6°C | 33.7% | 614.2hPa | 2.7V | 07:45:05 | 02:34:31 | 00:00:00 | |
| DO3MHA-11 | 2026-09-04 02:09:09 | 49.83928 | 12.04942 | 125° | 73km/h | 4226m | -4.3m/s | -0.5°C | 35.4% | 615.1hPa | 2.7V | 00:00:00 | 02:34:34 | 00:00:00 | |
| DL0LBS | 2026-09-04 02:09:06 | 49.83948 | 12.04895 | 122° | 71km/h | 4235m | -4.4m/s | -0.5°C | 32.4% | 614.5hPa | 2.7V | 07:45:00 | 00:00:00 | 00:00:00 | |
| DO3MHA-11 | 2026-09-04 02:09:04 | 49.83977 | 12.04819 | 124° | 80km/h | 4248m | -4.0m/s | -0.6°C | 34.0% | 613.4hPa | 2.7V | 07:45:00 | 02:34:29 | 00:00:00 | |
| DL1NUX | 2026-09-04 02:09:01 | 49.84014 | 12.04742 | 129° | 80km/h | 4261m | -4.6m/s | -0.7°C | 34.6% | 612.5hPa | 2.7V | 07:45:10 | 02:34:26 | 00:00:00 | |
| DL1NUX | 2026-09-04 02:09:01 | 49.84074 | 12.04625 | 125° | 73km/h | 4282m | -4.2m/s | -0.7°C | 35.8% | 610.8hPa | 2.6V | 07:45:15 | 02:34:21 | 00:00:00 | |
| DO3MHA-11 | 2026-09-04 02:08:59 | 49.84040 | 12.04695 | 130° | 75km/h | 4270m | -4.4m/s | -0.6°C | 32.4% | 611.7hPa | 2.6V | 00:00:00 | 02:34:24 | 00:00:00 | |
| DL1NUX | 2026-09-04 02:08:56 | 49.84125 | 12.04499 | 122° | 80km/h | 4303m | -4.2m/s | -0.8°C | 37.3% | 609.2hPa | 2.6V | 07:45:20 | 02:34:16 | 00:00:00 | |
| DB0NH | 2026-09-04 02:08:55 | 49.84085 | 12.04601 | 124° | 75km/h | 4286m | -4.1m/s | -0.7°C | 36.1% | 610.5hPa | 2.7V | 07:45:00 | 02:34:20 | 00:00:00 | |
| DO3MHA-11 | 2026-09-04 02:08:54 | 49.84095 | 12.04577 | 122° | 77km/h | 4290m | -4.3m/s | -0.7°C | 36.4% | 610.2hPa | 2.7V | 00:00:00 | 02:34:19 | 00:00:00 | |
| SO1NDE-10 | 2026-09-04 02:08:53 | 49.84104 | 12.04552 | 121° | 75km/h | 4295m | -4.1m/s | -0.7°C | 36.7% | 609.8hPa | 2.7V | 00:00:00 | 02:34:18 | 00:00:00 | |
| DL1NUX | 2026-09-04 02:08:51 | 49.84182 | 12.04376 | 125° | 71km/h | 4324m | -4m/s | -0.9°C | 34.4% | 607.6hPa | 2.7V | 07:45:25 | 02:34:11 | 00:00:00 | |
| DO3MHA-11 | 2026-09-04 02:08:49 | 49.84148 | 12.04447 | 127° | 75km/h | 4312m | -4.3m/s | -0.8°C | 37.3% | 608.5hPa | 2.7V | 00:00:00 | 02:34:14 | 00:00:00 | |
| DL1NUX | 2026-09-04 02:08:46 | 49.84232 | 12.04258 | 124° | 77km/h | 4346m | -4m/s | -0.8°C | 36.5% | 606.1hPa | 2.7V | 07:45:30 | 02:34:06 | 00:00:00 | |
| DF2AP-13 | 2026-09-04 02:08:46 | 49.84182 | 12.04376 | 126° | 73km/h | 4324m | -4.0m/s | -0.8°C | 34.4% | 607.6hPa | 2.7V | 00:00:00 | 02:34:11 | 00:00:00 | |
| DL0LBS | 2026-09-04 02:08:45 | 49.84182 | 12.04376 | 127° | 71km/h | 4324m | -4.1m/s | -0.9°C | 33.3% | 607.6hPa | 2.7V | 07:45:00 | 00:00:00 | 00:00:00 | |
| DO3MHA-11 | 2026-09-04 02:08:44 | 49.84202 | 12.04330 | 123° | 75km/h | 4333m | -4.3m/s | -0.8°C | 33.3% | 606.9hPa | 2.7V | 00:00:00 | 02:34:09 | 00:00:00 | |
| DH8WE-5 | 2026-09-04 02:08:42 | 49.84212 | 12.04307 | 123° | 71km/h | 4337m | -4.2m/s | -0.9°C | 33.1% | 606.6hPa | 2.7V | 07:45:00 | 00:00:00 | 00:00:00 | |
| DL1NUX | 2026-09-04 02:08:41 | 49.84290 | 12.04142 | 127° | 69km/h | 4367m | -4.3m/s | -0.9°C | 36.9% | 604.4hPa | 2.7V | 07:45:35 | 02:34:01 | 00:00:00 | |
| NBG1-10 | 2026-09-04 02:08:41 | 49.84232 | 12.04258 | 125° | 73km/h | 4346m | -4.0m/s | -0.8°C | 36.5% | 606.0hPa | 2.7V | 00:00:00 | 02:34:06 | 00:00:00 | |
| DO3MHA-11 | 2026-09-04 02:08:37 | 49.84279 | 12.04163 | 129° | 69km/h | 4363m | -4.4m/s | -0.9°C | 37.7% | 604.7hPa | 2.6V | 00:00:00 | 02:34:02 | 00:00:00 | |
| DL1NUX | 2026-09-04 02:08:36 | 49.84339 | 12.04027 | 121° | 75km/h | 4389m | -4.2m/s | -1°C | 34% | 602.7hPa | 2.6V | 07:45:40 | 02:33:56 | 00:00:00 | |
| DO9HM | 2026-09-04 02:08:33 | 49.84310 | 12.04098 | 125° | 69km/h | 4376m | -4.3m/s | -1.0°C | 33.9% | 603.7hPa | 2.6V | 07:45:00 | 00:00:00 | 00:00:00 | |
| DO3MHA-11 | 2026-09-04 02:08:32 | 49.84329 | 12.04051 | 122° | 75km/h | 4385m | -4.1m/s | -1.0°C | 34.1% | 603.0hPa | 2.6V | 00:00:00 | 02:33:57 | 00:00:00 | |
| DL1NUX | 2026-09-04 02:08:26 | 49.84392 | 12.03904 | 125° | 71km/h | 4410m | -4.2m/s | -1.2°C | 34.8% | 601.1hPa | 2.7V | 07:45:45 | 02:33:51 | 00:00:00 | |
| DL1NUX | 2026-09-04 02:08:26 | 49.84443 | 12.03787 | 124° | 75km/h | 4431m | -4.3m/s | -1.4°C | 39.3% | 599.5hPa | 2.7V | 07:45:50 | 02:33:46 | 00:00:00 | |
| DB0NH | 2026-09-04 02:08:25 | 49.84402 | 12.03881 | 125° | 73km/h | 4414m | -4.1m/s | -1.2°C | 35.7% | 600.7hPa | 2.7V | 00:00:00 | 02:33:50 | 00:00:00 | |
| DL0LBS | 2026-09-04 02:08:24 | 49.84402 | 12.03881 | 126° | 71km/h | 4414m | -4.1m/s | -1.2°C | 34.5% | 600.8hPa | 2.7V | 07:46:00 | 00:00:00 | 00:00:00 | |
| SO1NDE-10 | 2026-09-04 02:08:23 | 49.84422 | 12.03835 | 123° | 73km/h | 4423m | -4.3m/s | -1.3°C | 38.2% | 600.1hPa | 2.7V | 00:00:00 | 02:33:48 | 00:00:00 | |
| DH8WE-5 | 2026-09-04 02:08:22 | 49.84422 | 12.03835 | 124° | 71km/h | 4423m | -4.4m/s | -1.3°C | 36.9% | 600.1hPa | 2.7V | 07:46:00 | 00:00:00 | 00:00:00 | |
| DO3MHA-11 | 2026-09-04 02:08:21 | 49.84443 | 12.03787 | 125° | 71km/h | 4431m | -4.2m/s | -1.3°C | 39.3% | 599.5hPa | 2.7V | 07:45:00 | 02:33:46 | 00:00:00 | |
| DL1NUX | 2026-09-04 02:08:16 | 49.84497 | 12.03676 | 125° | 66km/h | 4453m | -4.2m/s | -1.6°C | 42.1% | 597.9hPa | 2.7V | 07:45:55 | 02:33:41 | 00:00:00 | |
| DL1NUX | 2026-09-04 02:08:16 | 49.84542 | 12.03560 | 121° | 77km/h | 4474m | -4m/s | -1.8°C | 44.2% | 596.3hPa | 2.7V | 07:46:00 | 02:33:36 | 00:00:00 | |
| DF2AP-13 | 2026-09-04 02:08:16 | 49.84497 | 12.03676 | 126° | 73km/h | 4453m | -4.2m/s | -1.5°C | 42.1% | 597.8hPa | 2.6V | 00:00:00 | 02:33:41 | 00:00:00 | |
| DO9HM | 2026-09-04 02:08:13 | 49.84523 | 12.03609 | 120° | 69km/h | 4466m | -4.4m/s | -1.7°C | 40.9% | 597.0hPa | 2.6V | 00:00:00 | 00:00:00 | 00:00:00 | |
| DL1NUX | 2026-09-04 02:08:11 | 49.84599 | 12.03433 | 127° | 78km/h | 4496m | -4.7m/s | -2°C | 45.2% | 594.6hPa | 2.6V | 07:46:05 | 02:33:31 | 00:00:00 | |
| DO3MHA-11 | 2026-09-04 02:08:11 | 49.84542 | 12.03560 | 122° | 78km/h | 4474m | -4.0m/s | -1.7°C | 44.2% | 596.3hPa | 2.6V | 00:00:00 | 02:33:36 | 00:00:00 | |
| NBG1-10 | 2026-09-04 02:08:08 | 49.84575 | 12.03483 | 127° | 73km/h | 4487m | -4.3m/s | -1.8°C | 44.7% | 595.3hPa | 2.6V | 00:00:00 | 02:33:33 | 00:00:00 | |
| DL1NUX | 2026-09-04 02:08:06 | 49.84658 | 12.03317 | 127° | 69km/h | 4518m | -4.1m/s | -2.1°C | 45.6% | 593.1hPa | 2.6V | 07:46:10 | 02:33:26 | 00:00:00 | |
| DO3MHA-11 | 2026-09-04 02:08:06 | 49.84599 | 12.03433 | 128° | 77km/h | 4496m | -4.7m/s | -1.9°C | 45.2% | 594.6hPa | 2.7V | 00:00:00 | 02:33:31 | 00:00:00 | |
| DL0LBS | 2026-09-04 02:08:03 | 49.84624 | 12.03385 | 129° | 77km/h | 4505m | -4.5m/s | -2.0°C | 44.0% | 594.0hPa | 2.7V | 07:46:00 | 00:00:00 | 00:00:00 | |
| DL1NUX | 2026-09-04 02:08:01 | 49.84706 | 12.03204 | 121° | 73km/h | 4541m | -4.5m/s | -2.4°C | 46.1% | 591.4hPa | 2.7V | 07:46:15 | 02:33:21 | 00:00:00 | |
| DO3MHA-11 | 2026-09-04 02:08:01 | 49.84658 | 12.03317 | 128° | 69km/h | 4518m | -4.1m/s | -2.1°C | 45.6% | 593.0hPa | 2.6V | 00:00:00 | 02:33:26 | 00:00:00 | |
| DL1NUX | 2026-09-04 02:07:56 | 49.84762 | 12.03080 | 128° | 75km/h | 4563m | -4.5m/s | -2.6°C | 46.7% | 589.6hPa | 2.7V | 07:46:20 | 02:33:16 | 00:00:00 | |
| DO3MHA-11 | 2026-09-04 02:07:56 | 49.84706 | 12.03204 | 122° | 77km/h | 4541m | -4.4m/s | -2.3°C | 46.1% | 591.4hPa | 2.6V | 00:00:00 | 02:33:21 | 00:00:00 | |
| DB0NH | 2026-09-04 02:07:55 | 49.84717 | 12.03179 | 123° | 75km/h | 4545m | -4.4m/s | -2.3°C | 46.1% | 591.0hPa | 2.6V | 00:00:00 | 02:33:20 | 00:00:00 | |
| SO1NDE-10 | 2026-09-04 02:07:53 | 49.84739 | 12.03128 | 126° | 75km/h | 4554m | -4.7m/s | -2.4°C | 46.4% | 590.4hPa | 2.7V | 00:00:00 | 02:33:18 | 00:00:00 | |
| DO3MHA-11 | 2026-09-04 02:07:51 | 49.84762 | 12.03080 | 129° | 71km/h | 4563m | -4.5m/s | -2.5°C | 46.7% | 589.6hPa | 2.7V | 00:00:00 | 02:33:16 | 00:00:00 | |
| DL1NUX | 2026-09-04 02:07:46 | 49.84816 | 12.02971 | 124° | 68km/h | 4586m | -4.7m/s | -2.8°C | 48.3% | 587.9hPa | 2.7V | 07:46:25 | 02:33:11 | 00:00:00 | |
| DL1NUX | 2026-09-04 02:07:46 | 49.84866 | 12.02852 | 122° | 75km/h | 4608m | -4.4m/s | -2.9°C | 54.3% | 586.4hPa | 2.7V | 07:46:30 | 02:33:06 | 00:00:00 | |
| DO3MHA-11 | 2026-09-04 02:07:46 | 49.84816 | 12.02971 | 125° | 71km/h | 4586m | -4.6m/s | -2.7°C | 48.3% | 587.9hPa | 2.7V | 00:00:00 | 02:33:11 | 00:00:00 | |
| DL0LBS | 2026-09-04 02:07:42 | 49.84845 | 12.02901 | 123° | 73km/h | 4600m | -4.4m/s | -2.8°C | 51.3% | 586.9hPa | 2.6V | 07:46:00 | 00:00:00 | 00:00:00 | |
| DO3MHA-11 | 2026-09-04 02:07:41 | 49.84865 | 12.02852 | 123° | 75km/h | 4609m | -4.3m/s | -2.8°C | 54.3% | 586.3hPa | 2.6V | 07:46:00 | 02:33:06 | 00:00:00 | |
| DL1NUX | 2026-09-04 02:07:36 | 49.84918 | 12.02728 | 122° | 77km/h | 4631m | -4.2m/s | -3.1°C | 55.2% | 584.7hPa | 2.6V | 07:46:35 | 02:33:01 | 00:00:00 | |
| DL1NUX | 2026-09-04 02:07:36 | 49.84973 | 12.02602 | 126° | 73km/h | 4652m | -4.3m/s | -3.3°C | 55.9% | 583.1hPa | 2.6V | 07:46:40 | 02:32:56 | 00:00:00 | |
| DO3MHA-11 | 2026-09-04 02:07:36 | 49.84918 | 12.02728 | 123° | 78km/h | 4631m | -4.2m/s | -3.0°C | 55.2% | 584.7hPa | 2.7V | 00:00:00 | 02:33:01 | 00:00:00 | |
| NBG1-10 | 2026-09-04 02:07:35 | 49.84928 | 12.02702 | 123° | 77km/h | 4635m | -4.3m/s | -3.1°C | 55.2% | 584.4hPa | 2.7V | 00:00:00 | 02:33:00 | 00:00:00 | |
| DL1NUX | 2026-09-04 02:07:31 | 49.85023 | 12.02482 | 121° | 77km/h | 4674m | -4.4m/s | -3.5°C | 56.9% | 581.5hPa | 2.7V | 07:46:45 | 02:32:51 | 00:00:00 | |
| DO3MHA-11 | 2026-09-04 02:07:31 | 49.84973 | 12.02602 | 127° | 73km/h | 4652m | -4.2m/s | -3.2°C | 55.9% | 583.0hPa | 2.6V | 00:00:00 | 02:32:56 | 00:00:00 | |
| DH8WE-5 | 2026-09-04 02:07:30 | 49.84973 | 12.02602 | 127° | 73km/h | 4652m | -4.3m/s | -3.3°C | 53.9% | 583.1hPa | 2.7V | 07:47:00 | 00:00:00 | 00:00:00 | |
| SONCRA | 2026-09-04 02:07:29 | 49.84994 | 12.02556 | 124° | 69km/h | 4661m | -4.4m/s | -3.4°C | 54.4% | 582.4hPa | 2.7V | 00:00:00 | 00:00:00 | 00:00:00 | |
| DL1NUX | 2026-09-04 02:07:26 | 49.85079 | 12.02356 | 126° | 75km/h | 4696m | -4.4m/s | -3.7°C | 58.7% | 579.8hPa | 2.7V | 07:46:50 | 02:32:46 | 00:00:00 | |
| DO3MHA-11 | 2026-09-04 02:07:26 | 49.85023 | 12.02482 | 122° | 78km/h | 4674m | -4.4m/s | -3.4°C | 56.9% | 581.5hPa | 2.7V | 00:00:00 | 02:32:51 | 00:00:00 | |
| DB0NH | 2026-09-04 02:07:25 | 49.85033 | 12.02456 | 123° | 77km/h | 4679m | -4.3m/s | -3.5°C | 57.3% | 581.1hPa | 2.7V | 00:00:00 | 02:32:50 | 00:00:00 | |
| DL1NUX | 2026-09-04 02:07:21 | 49.85128 | 12.02233 | 118° | 77km/h | 4718m | -4.4m/s | -3.9°C | 66.7% | 578.2hPa | 2.7V | 07:46:55 | 02:32:41 | 00:00:00 | |
| DO3MHA-11 | 2026-09-04 02:07:21 | 49.85079 | 12.02356 | 127° | 73km/h | 4696m | -4.3m/s | -3.6°C | 58.7% | 579.8hPa | 2.7V | 00:00:00 | 02:32:46 | 00:00:00 | |
| DL1NUX | 2026-09-04 02:07:16 | 49.85182 | 12.02100 | 126° | 78km/h | 4741m | -4.6m/s | -4.2°C | 70.2% | 576.5hPa | 2.7V | 07:47:00 | 02:32:36 | 00:00:00 | |
| DO3MHA-11 | 2026-09-04 02:07:16 | 49.85128 | 12.02233 | 119° | 80km/h | 4718m | -4.4m/s | -3.9°C | 66.7% | 578.2hPa | 2.7V | 00:00:00 | 02:32:41 | 00:00:00 | |
| DB0ND-19 | 2026-09-04 02:07:12 | 49.85182 | 12.02100 | 126° | 78km/h | 4741m | -4.6m/s | -4.2°C | -1.0% | -1.0hPa | 2.6V | 00:00:00 | 00:00:00 | 00:00:00 | |
| DL1NUX | 2026-09-04 02:07:11 | 49.85237 | 12.01979 | 121° | 77km/h | 4764m | -4.4m/s | -4.4°C | 84.7% | 575hPa | 2.6V | 07:47:05 | 02:32:31 | 00:00:00 | |
| DO9HM | 2026-09-04 02:07:11 | 49.85182 | 12.02100 | 127° | 78km/h | 4741m | -4.6m/s | -4.2°C | 67.6% | 576.5hPa | 2.6V | 07:47:00 | 00:00:00 | 00:00:00 | |
| DH8WE-5 | 2026-09-04 02:07:09 | 49.85193 | 12.02076 | 128° | 77km/h | 4746m | -4.5m/s | -4.2°C | 69.0% | 576.3hPa | 2.6V | 07:47:00 | 00:00:00 | 00:00:00 | |
| DO3MHA-11 | 2026-09-04 02:07:06 | 49.85237 | 12.01979 | 122° | 80km/h | 4764m | -4.4m/s | -4.4°C | 84.7% | 574.9hPa | 2.6V | 00:00:00 | 02:32:31 | 00:00:00 | |
| DL1NUX | 2026-09-04 02:07:01 | 49.85294 | 12.01849 | 127° | 78km/h | 4786m | -4.3m/s | -4.6°C | 92.3% | 573.3hPa | 2.6V | 07:47:10 | 02:32:26 | 00:00:00 | |
| DL1NUX | 2026-09-04 02:07:01 | 49.85349 | 12.01729 | 120° | 77km/h | 4808m | -4.4m/s | -4.6°C | 80% | 571.8hPa | 2.7V | 07:47:15 | 02:32:21 | 00:00:00 | |
| SONCRA | 2026-09-04 02:06:58 | 49.85328 | 12.01778 | 125° | 73km/h | 4799m | -4.5m/s | -4.6°C | 85.5% | 572.4hPa | 2.6V | 00:00:00 | 00:00:00 | 00:00:00 | |
| DO3MHA-11 | 2026-09-04 02:06:56 | 49.85349 | 12.01729 | 121° | 82km/h | 4809m | -4.4m/s | -4.5°C | 80.0% | 571.7hPa | 2.6V | 00:00:00 | 02:32:21 | 00:00:00 | |
| DB0NH | 2026-09-04 02:06:55 | 49.85359 | 12.01702 | 121° | 80km/h | 4813m | -4.7m/s | -4.6°C | 81.0% | 571.4hPa | 2.6V | 00:00:00 | 02:32:20 | 00:00:00 | |
| DB0UT-7 | 2026-09-04 02:06:54 | 49.85369 | 12.01675 | 122° | 80km/h | 4818m | -4.1m/s | -4.6°C | 78.1% | 571.0hPa | 2.6V | 00:00:00 | 02:32:19 | 00:00:00 | |
| SO1NDE-10 | 2026-09-04 02:06:53 | 49.85380 | 12.01646 | 122° | 80km/h | 4822m | -4.5m/s | -4.6°C | 76.2% | 570.7hPa | 2.7V | 00:00:00 | 02:32:18 | 00:00:00 | |
| DL1NUX | 2026-09-04 02:06:51 | 49.85404 | 12.01589 | 122° | 86km/h | 4832m | -5.1m/s | -4.6°C | 71.3% | 570hPa | 2.7V | 07:47:20 | 02:32:16 | 00:00:00 | |
| DL1NUX | 2026-09-04 02:06:51 | 49.85465 | 12.01450 | 127° | 80km/h | 4855m | -4.4m/s | -4.8°C | 72.7% | 568.3hPa | 2.7V | 07:47:25 | 02:32:11 | 00:00:00 | |
| DO3MHA-11 | 2026-09-04 02:06:51 | 49.85404 | 12.01589 | 123° | 86km/h | 4832m | -5.0m/s | -4.6°C | 71.3% | 570.0hPa | 2.7V | 00:00:00 | 02:32:16 | 00:00:00 | |
| DO9HM | 2026-09-04 02:06:50 | 49.85404 | 12.01589 | 123° | 86km/h | 4832m | -5.1m/s | -4.6°C | 68.5% | 570.0hPa | 2.7V | 07:47:00 | 00:00:00 | 00:00:00 | |
| DH8WE-5 | 2026-09-04 02:06:48 | 49.85427 | 12.01531 | 124° | 88km/h | 4841m | -4.7m/s | -4.7°C | 70.4% | 569.3hPa | 2.7V | 07:47:00 | 00:00:00 | 00:00:00 | |
| DL1NUX | 2026-09-04 02:06:46 | 49.85522 | 12.01333 | 123° | 71km/h | 4878m | -4.9m/s | -4.9°C | 65% | 566.6hPa | 2.7V | 07:47:30 | 02:32:06 | 00:00:00 | |
| DO3MHA-11 | 2026-09-04 02:06:46 | 49.85465 | 12.01450 | 128° | 77km/h | 4855m | -4.3m/s | -4.7°C | 72.7% | 568.3hPa | 2.7V | 00:00:00 | 02:32:11 | 00:00:00 | |
| DL1NUX | 2026-09-04 02:06:41 | 49.85572 | 12.01203 | 121° | 84km/h | 4902m | -4.5m/s | -5°C | 56% | 564.9hPa | 2.7V | 07:47:35 | 02:32:01 | 00:00:00 | |
| DB0ND-19 | 2026-09-04 02:06:41 | 49.85532 | 12.01309 | 120° | 73km/h | 4884m | -4.9m/s | 0°C | -1.0% | -1.0hPa | 2.7V | 00:00:00 | 00:00:00 | 00:00:00 | |
| DF2AP-13 | 2026-09-04 02:06:40 | 49.85532 | 12.01309 | 121° | 80km/h | 4884m | -4.9m/s | -4.9°C | 64.0% | 566.2hPa | 2.7V | 00:00:00 | 02:32:05 | 00:00:00 | |
| DL1NUX | 2026-09-04 02:06:36 | 49.85635 | 12.01069 | 128° | 82km/h | 4926m | -4.8m/s | -5.1°C | 47.9% | 563.2hPa | 2.7V | 07:47:40 | 02:31:56 | 00:00:00 | |
| DO3MHA-11 | 2026-09-04 02:06:36 | 49.85572 | 12.01203 | 122° | 84km/h | 4903m | -4.5m/s | -4.9°C | 56.0% | 564.9hPa | 2.6V | 00:00:00 | 02:32:01 | 00:00:00 | |
| DL0LBS | 2026-09-04 02:06:35 | 49.85572 | 12.01203 | 123° | 84km/h | 4903m | -4.5m/s | -5.0°C | 53.8% | 564.9hPa | 2.6V | 07:48:00 | 00:00:00 | 00:00:00 | |
| DL1NUX | 2026-09-04 02:06:31 | 49.85695 | 12.00951 | 124° | 73km/h | 4951m | -4.8m/s | -5.3°C | 52% | 561.5hPa | 2.6V | 07:47:45 | 02:31:51 | 00:00:00 | |
| DO3MHA-11 | 2026-09-04 02:06:31 | 49.85635 | 12.01069 | 129° | 77km/h | 4927m | -4.8m/s | -5.1°C | 47.9% | 563.2hPa | 2.7V | 00:00:00 | 02:31:56 | 00:00:00 | |
| NBG1-10 | 2026-09-04 02:06:29 | 49.85660 | 12.01021 | 130° | 80km/h | 4936m | -5.0m/s | -5.2°C | 50.9% | 562.4hPa | 2.7V | 00:00:00 | 02:31:54 | 00:00:00 | |
| DH8WE-5 | 2026-09-04 02:06:28 | 49.85660 | 12.01021 | 130° | 78km/h | 4936m | -5.0m/s | -5.2°C | 48.9% | 562.4hPa | 2.7V | 00:00:00 | 00:00:00 | 00:00:00 | |
| DO3MHA-11 | 2026-09-04 02:06:26 | 49.85694 | 12.00951 | 125° | 77km/h | 4951m | -4.7m/s | -5.3°C | 52.0% | 561.4hPa | 2.7V | 00:00:00 | 02:31:51 | 00:00:00 | |
| DB0NH | 2026-09-04 02:06:25 | 49.85704 | 12.00927 | 122° | 80km/h | 4956m | -4.9m/s | -5.3°C | 52.1% | 561.0hPa | 2.7V | 00:00:00 | 02:31:50 | 00:00:00 | |
| DB0UT-7 | 2026-09-04 02:06:24 | 49.85714 | 12.00901 | 120° | 82km/h | 4961m | -4.5m/s | -5.4°C | 53.3% | 560.8hPa | 2.6V | 00:00:00 | 00:00:00 | 00:00:00 | |
| SO1NDE-10 | 2026-09-04 02:06:23 | 49.85724 | 12.00875 | 120° | 80km/h | 4965m | -4.7m/s | -5.4°C | 55.9% | 560.4hPa | 2.6V | 00:00:00 | 02:31:48 | 00:00:00 | |
| DL1NUX | 2026-09-04 02:06:21 | 49.85744 | 12.00820 | 121° | 84km/h | 4975m | -4.9m/s | -5.6°C | 61.3% | 559.7hPa | 2.6V | 07:47:50 | 02:31:46 | 00:00:00 | |
| DL1NUX | 2026-09-04 02:06:21 | 49.85807 | 12.00687 | 129° | 82km/h | 4999m | -4.8m/s | -5.8°C | 62.9% | 557.9hPa | 2.6V | 07:47:55 | 02:31:41 | 00:00:00 | |
| DO3MHA-11 | 2026-09-04 02:06:21 | 49.85744 | 12.00820 | 122° | 84km/h | 4975m | -4.8m/s | -5.5°C | 61.3% | 559.7hPa | 2.6V | 07:47:00 | 02:31:46 | 00:00:00 | |
| DO3MHA-11 | 2026-09-04 02:06:16 | 49.85806 | 12.00687 | 130° | 77km/h | 5000m | -4.8m/s | -5.8°C | 62.9% | 557.9hPa | 2.6V | 00:00:00 | 02:31:41 | 00:00:00 | |
| DL0LBS | 2026-09-04 02:06:15 | 49.85806 | 12.00687 | 130° | 82km/h | 5000m | -4.8m/s | -5.8°C | 60.4% | 557.9hPa | 2.6V | 07:48:00 | 00:00:00 | 00:00:00 | |
| DL1NUX | 2026-09-04 02:06:14 | 49.85883 | 12.00517 | 118° | 78km/h | 5033m | -4.8m/s | -5.9°C | 51.8% | 555.7hPa | 2.6V | 07:48:02 | 02:31:34 | 00:00:00 | |
| DO3MHA-11 | 2026-09-04 02:06:11 | 49.85864 | 12.00568 | 122° | 80km/h | 5023m | -4.6m/s | -5.9°C | 55.0% | 556.3hPa | 2.6V | 00:00:00 | 02:31:36 | 00:00:00 | |
| DF2AP-13 | 2026-09-04 02:06:10 | 49.85873 | 12.00543 | 121° | 82km/h | 5028m | -4.7m/s | -5.9°C | 56.3% | 555.9hPa | 2.6V | 07:48:00 | 02:31:35 | 00:00:00 | |
| DO9HM | 2026-09-04 02:06:08 | 49.85883 | 12.00517 | 120° | 78km/h | 5033m | -4.8m/s | -5.9°C | 49.7% | 555.7hPa | 2.6V | 07:48:00 | 00:00:00 | 00:00:00 | |
| DH8WE-5 | 2026-09-04 02:06:07 | 49.85892 | 12.00490 | 120° | 80km/h | 5038m | -4.5m/s | -6.0°C | 48.2% | 555.3hPa | 2.6V | 00:00:00 | 00:00:00 | 00:00:00 | |
| DL1NUX | 2026-09-04 02:06:04 | 49.85993 | 12.00235 | 127° | 86km/h | 5080m | -5m/s | -6.1°C | 45.9% | 552.2hPa | 2.6V | 07:48:12 | 02:31:24 | 00:00:00 | |
| DO3MHA-11 | 2026-09-04 02:06:01 | 49.85967 | 12.00290 | 124° | 80km/h | 5071m | -4.6m/s | -6.0°C | 48.0% | 552.8hPa | 2.6V | 00:00:00 | 02:31:26 | 00:00:00 | |
| NBG1-10 | 2026-09-04 02:05:56 | 49.86032 | 12.00160 | 130° | 80km/h | 5096m | -4.7m/s | -6.2°C | 47.1% | 551.1hPa | 2.6V | 00:00:00 | 02:31:21 | 00:00:00 | |
| DB0NH | 2026-09-04 02:05:55 | 49.86044 | 12.00136 | 128° | 80km/h | 5101m | -4.9m/s | -6.2°C | 47.8% | 550.7hPa | 2.6V | 00:00:00 | 02:31:20 | 00:00:00 | |
| DL1NUX | 2026-09-04 02:05:54 | 49.86107 | 11.99982 | 120° | 84km/h | 5129m | -5m/s | -6.4°C | 47.8% | 548.9hPa | 2.6V | 07:48:22 | 02:31:14 | 00:00:00 | |
| SO1NDE-10 | 2026-09-04 02:05:53 | 49.86066 | 12.00089 | 123° | 82km/h | 5110m | -4.5m/s | -6.2°C | 49.7% | 550.0hPa | 2.7V | 00:00:00 | 02:31:18 | 00:00:00 | |
| DO3MHA-11 | 2026-09-04 02:05:51 | 49.86086 | 12.00038 | 121° | 86km/h | 5120m | -4.6m/s | -6.3°C | 47.9% | 549.5hPa | 2.7V | 00:00:00 | 02:31:16 | 00:00:00 | |
| DO9HM | 2026-09-04 02:05:49 | 49.86107 | 11.99982 | 121° | 84km/h | 5129m | -5.0m/s | -6.4°C | 45.7% | 548.9hPa | 2.6V | 00:00:00 | 00:00:00 | 00:00:00 | |
| DH8WE-5 | 2026-09-04 02:05:46 | 49.86130 | 11.99925 | 125° | 88km/h | 5139m | -5.0m/s | -6.5°C | 45.8% | 548.1hPa | 2.6V | 07:49:00 | 00:00:00 | 00:00:00 | |
| DL1NUX | 2026-09-04 02:05:44 | 49.86238 | 11.99717 | 130° | 78km/h | 5180m | -4.7m/s | -6.7°C | 46.6% | 545.3hPa | 2.6V | 07:48:32 | 02:31:04 | 00:00:00 | |
| DO3MHA-11 | 2026-09-04 02:05:41 | 49.86212 | 11.99765 | 132° | 77km/h | 5170m | -5.1m/s | -6.6°C | 47.6% | 545.9hPa | 2.6V | 00:00:00 | 02:31:06 | 00:00:00 | |
| DF2AP-13 | 2026-09-04 02:05:40 | 49.86225 | 11.99741 | 131° | 80km/h | 5175m | -4.8m/s | -6.7°C | 47.3% | 545.6hPa | 2.6V | 00:00:00 | 02:31:05 | 00:00:00 | |
| DL1NUX | 2026-09-04 02:05:34 | 49.86348 | 11.99473 | 122° | 80km/h | 5231m | -5.1m/s | -7.1°C | 44.8% | 541.7hPa | 2.6V | 07:48:42 | 02:30:54 | 00:00:00 | |
| DO3MHA-11 | 2026-09-04 02:05:31 | 49.86327 | 11.99524 | 124° | 84km/h | 5221m | -5.1m/s | -7.0°C | 45.0% | 542.3hPa | 2.6V | 00:00:00 | 02:30:56 | 00:00:00 | |
| DH8WE-5 | 2026-09-04 02:05:26 | 49.86371 | 11.99418 | 125° | 86km/h | 5241m | -5.2m/s | -7.2°C | 42.6% | 541.0hPa | 2.6V | 07:49:00 | 00:00:00 | 00:00:00 | |
| DB0NH | 2026-09-04 02:05:25 | 49.86397 | 11.99362 | 127° | 84km/h | 5251m | -5.1m/s | -7.2°C | 44.5% | 540.3hPa | 2.6V | 00:00:00 | 02:30:50 | 00:00:00 | |
| DL1NUX | 2026-09-04 02:05:24 | 49.86484 | 11.99207 | 131° | 82km/h | 5282m | -4.8m/s | -7.5°C | 43.9% | 538.1hPa | 2.6V | 07:48:52 | 02:30:44 | 00:00:00 | |
| DO9HM | 2026-09-04 02:05:23 | 49.86425 | 11.99308 | 131° | 89km/h | 5262m | -4.8m/s | -7.3°C | 42.1% | 539.6hPa | 2.6V | 00:00:00 | 00:00:00 | 00:00:00 | |
| DO3MHA-11 | 2026-09-04 02:05:21 | 49.86455 | 11.99256 | 133° | 82km/h | 5272m | -5.3m/s | -7.3°C | 43.9% | 538.8hPa | 2.6V | 00:00:00 | 02:30:46 | 00:00:00 | |
| DL1NUX | 2026-09-04 02:05:14 | 49.86604 | 11.98944 | 125° | 91km/h | 5333m | -5.2m/s | -7.8°C | 45.2% | 534.6hPa | 2.6V | 07:49:02 | 02:30:34 | 00:00:00 | |
| DB0UT-7 | 2026-09-04 02:05:11 | 49.86578 | 11.99002 | 124° | 86km/h | 5323m | -4.9m/s | -7.7°C | 45.2% | 535.3hPa | 2.6V | 00:00:00 | 02:30:36 | 00:00:00 | |
| DF2AP-13 | 2026-09-04 02:05:10 | 49.86590 | 11.98973 | 125° | 86km/h | 5328m | -5.0m/s | -7.8°C | 45.2% | 534.9hPa | 2.6V | 00:00:00 | 02:30:35 | 00:00:00 | |
| DH8WE-5 | 2026-09-04 02:05:05 | 49.86647 | 11.98859 | 132° | 91km/h | 5349m | -5.0m/s | -7.9°C | 43.7% | 533.6hPa | 2.6V | 07:49:00 | 00:00:00 | 00:00:00 | |
| DL1NUX | 2026-09-04 02:05:04 | 49.86748 | 11.98686 | 130° | 78km/h | 5385m | -5.4m/s | -8.1°C | 47.5% | 531hPa | 2.6V | 07:49:12 | 02:30:24 | 00:00:00 | |
| DO9HM | 2026-09-04 02:05:02 | 49.86692 | 11.98781 | 134° | 86km/h | 5364m | -5.0m/s | -7.9°C | 44.4% | 532.4hPa | 2.6V | 00:00:00 | 00:00:00 | 00:00:00 | |
| DO3MHA-11 | 2026-09-04 02:05:01 | 49.86721 | 11.98733 | 132° | 82km/h | 5375m | -5.0m/s | -7.9°C | 47.1% | 531.8hPa | 2.6V | 00:00:00 | 02:30:26 | 00:00:00 | |
| DB0NH | 2026-09-04 02:04:55 | 49.86796 | 11.98587 | 125° | 86km/h | 5406m | -5.2m/s | -8.1°C | 47.4% | 529.6hPa | 2.6V | 07:49:00 | 02:30:20 | 00:00:00 | |
| DL1NUX | 2026-09-04 02:04:54 | 49.86875 | 11.98417 | 129° | 93km/h | 5438m | -5.5m/s | -8.4°C | 49.7% | 527.5hPa | 2.6V | 07:49:22 | 02:30:14 | 00:00:00 | |
| SO1NDE-10 | 2026-09-04 02:04:53 | 49.86820 | 11.98532 | 124° | 88km/h | 5417m | -5.4m/s | -8.2°C | 47.5% | 528.8hPa | 2.6V | 00:00:00 | 02:30:18 | 00:00:00 | |
| DO3MHA-11 | 2026-09-04 02:04:51 | 49.86846 | 11.98475 | 127° | 88km/h | 5427m | -5.4m/s | -8.3°C | 49.1% | 528.1hPa | 2.6V | 00:00:00 | 02:30:16 | 00:00:00 | |
| NBG1-10 | 2026-09-04 02:04:50 | 49.86860 | 11.98446 | 128° | 88km/h | 5433m | -4.8m/s | -8.4°C | 49.4% | 527.8hPa | 2.6V | 00:00:00 | 02:30:15 | 00:00:00 | |
| DL1NUX | 2026-09-04 02:04:44 | 49.87019 | 11.98170 | 127° | 80km/h | 5491m | -5.3m/s | -8.9°C | 51.7% | 523.8hPa | 2.6V | 07:49:32 | 02:30:04 | 00:00:00 | |
| DO3MHA-11 | 2026-09-04 02:04:41 | 49.86994 | 11.98218 | 132° | 82km/h | 5481m | -5.7m/s | -8.8°C | 51.5% | 524.4hPa | 2.6V | 00:00:00 | 02:30:06 | 00:00:00 | |
| DF2AP-13 | 2026-09-04 02:04:40 | 49.87007 | 11.98194 | 130° | 88km/h | 5486m | -5.2m/s | -8.8°C | 51.7% | 524.1hPa | 2.6V | 00:00:00 | 02:30:05 | 00:00:00 | |
| DO9HM | 2026-09-04 02:04:36 | 49.87043 | 11.98119 | 126° | 82km/h | 5502m | -5.4m/s | -9.0°C | 49.0% | 523.2hPa | 2.6V | 00:00:00 | 00:00:00 | 00:00:00 | |
| DL1NUX | 2026-09-04 02:04:34 | 49.87141 | 11.97898 | 124° | 91km/h | 5545m | -5.3m/s | -9.3°C | 49.6% | 520.2hPa | 2.6V | 07:49:42 | 02:29:54 | 00:00:00 | |
| DO3MHA-11 | 2026-09-04 02:04:31 | 49.87116 | 11.97956 | 125° | 91km/h | 5534m | -5.4m/s | -9.2°C | 49.0% | 520.8hPa | 2.6V | 00:00:00 | 02:29:56 | 00:00:00 | |
| DB0NH | 2026-09-04 02:04:25 | 49.87197 | 11.97782 | 129° | 89km/h | 5567m | -5.5m/s | -9.4°C | 49.2% | 518.6hPa | 2.6V | 00:00:00 | 02:29:50 | 00:00:00 | |
| DL1NUX | 2026-09-04 02:04:24 | 49.87291 | 11.97626 | 135° | 84km/h | 5599m | -5.3m/s | -9.7°C | 49.5% | 516.6hPa | 2.6V | 07:49:52 | 02:29:44 | 00:00:00 | |
| SO1NDE-10 | 2026-09-04 02:04:23 | 49.87228 | 11.97727 | 132° | 89km/h | 5578m | -5.0m/s | -9.5°C | 48.7% | 518.0hPa | 2.6V | 00:00:00 | 02:29:48 | 00:00:00 | |
| DL6DJ-15 | 2026-09-04 02:04:22 | 49.87244 | 11.97700 | 133° | 91km/h | 5583m | -5.2m/s | -9.6°C | 46.5% | 517.6hPa | 2.6V | 00:00:00 | 00:00:00 | 00:00:00 | |
| DO3MHA-11 | 2026-09-04 02:04:21 | 49.87260 | 11.97674 | 135° | 84km/h | 5588m | -5.3m/s | -9.6°C | 49.5% | 517.3hPa | 2.6V | 00:00:00 | 02:29:46 | 00:00:00 | |
| DL0LBS | 2026-09-04 02:04:18 | 49.87291 | 11.97626 | 136° | 84km/h | 5599m | -5.3m/s | -9.7°C | 47.1% | 516.6hPa | 2.5V | 07:50:00 | 00:00:00 | 00:00:00 | |
| NBG1-10 | 2026-09-04 02:04:17 | 49.87320 | 11.97580 | 133° | 88km/h | 5610m | -5.3m/s | -9.8°C | 51.2% | 515.8hPa | 2.5V | 00:00:00 | 02:29:42 | 00:00:00 | |
| DO9HM | 2026-09-04 02:04:16 | 49.87320 | 11.97580 | 134° | 80km/h | 5610m | -5.3m/s | -9.8°C | 48.7% | 515.9hPa | 2.5V | 00:00:00 | 00:00:00 | 00:00:00 | |
| DL1NUX | 2026-09-04 02:04:14 | 49.87424 | 11.97370 | 126° | 91km/h | 5651m | -5.3m/s | -10.1°C | 57.7% | 513hPa | 2.5V | 07:50:02 | 02:29:34 | 00:00:00 | |
| DO3MHA-11 | 2026-09-04 02:04:11 | 49.87397 | 11.97427 | 126° | 93km/h | 5641m | -5.4m/s | -10.0°C | 57.7% | 513.7hPa | 2.6V | 00:00:00 | 02:29:36 | 00:00:00 | |
| DF2AP-13 | 2026-09-04 02:04:10 | 49.87410 | 11.97398 | 126° | 89km/h | 5646m | -5.1m/s | -10.1°C | 57.7% | 513.4hPa | 2.6V | 00:00:00 | 02:29:35 | 00:00:00 | |
| DF7PN | 2026-09-04 02:04:09 | 49.87481 | 11.97253 | 128° | 93km/h | 5673m | -5.6m/s | -10.3°C | 56.5% | 511.7hPa | 2.5V | 00:00:00 | 00:00:00 | 00:00:00 | |
| DL1NUX | 2026-09-04 02:04:04 | 49.87576 | 11.97085 | 134° | 93km/h | 5705m | -5.4m/s | -10.6°C | 59.1% | 509.5hPa | 2.5V | 07:50:12 | 02:29:24 | 00:00:00 | |
| DH8WE-5 | 2026-09-04 02:04:02 | 49.87511 | 11.97195 | 131° | 97km/h | 5684m | -5.4m/s | -10.4°C | 56.9% | 510.9hPa | 2.5V | 07:50:00 | 00:00:00 | 00:00:00 | |
| DO3MHA-11 | 2026-09-04 02:04:01 | 49.87543 | 11.97138 | 133° | 88km/h | 5695m | -5.5m/s | -10.4°C | 59.2% | 510.2hPa | 2.5V | 00:00:00 | 02:29:26 | 00:00:00 | |
| DL0LBS | 2026-09-04 02:03:57 | 49.87593 | 11.97059 | 136° | 91km/h | 5711m | -5.4m/s | -10.6°C | 56.2% | 509.2hPa | 2.5V | 07:50:00 | 00:00:00 | 00:00:00 | |
| DB0NH | 2026-09-04 02:03:55 | 49.87640 | 11.96986 | 135° | 86km/h | 5727m | -5.3m/s | -10.7°C | 59.5% | 508.0hPa | 2.5V | 00:00:00 | 02:29:20 | 00:00:00 | |
| DL1NUX | 2026-09-04 02:03:54 | 49.87720 | 11.96840 | 127° | 82km/h | 5759m | -5.6m/s | -11°C | 60.4% | 505.9hPa | 2.5V | 07:50:22 | 02:29:14 | 00:00:00 | |
| SONCRA | 2026-09-04 02:03:52 | 49.87682 | 11.96914 | 130° | 80km/h | 5742m | -5.8m/s | -10.9°C | 57.0% | 507.0hPa | 2.6V | 00:00:00 | 00:00:00 | 00:00:00 | |
| DO3MHA-11 | 2026-09-04 02:03:51 | 49.87695 | 11.96890 | 130° | 89km/h | 5748m | -5.6m/s | -10.9°C | 60.3% | 506.6hPa | 2.6V | 07:50:00 | 02:29:16 | 00:00:00 | |
| DL1NUX | 2026-09-04 02:03:44 | 49.87857 | 11.96553 | 130° | 97km/h | 5813m | -5.2m/s | -11.3°C | 56.3% | 502.4hPa | 2.6V | 07:50:32 | 02:29:04 | 00:00:00 | |
| NBG1-10 | 2026-09-04 02:03:44 | 49.87784 | 11.96702 | 126° | 89km/h | 5786m | -5.2m/s | -11.2°C | 58.7% | 504.1hPa | 2.5V | 00:00:00 | 02:29:09 | 00:00:00 | |
| DH8WE-5 | 2026-09-04 02:03:41 | 49.87812 | 11.96642 | 127° | 97km/h | 5797m | -5.4m/s | -11.3°C | 52.8% | 503.5hPa | 2.5V | 07:50:00 | 00:00:00 | 00:00:00 | |
| DO3MHA-11 | 2026-09-04 02:03:40 | 49.87841 | 11.96582 | 129° | 88km/h | 5808m | -5.4m/s | -11.3°C | 56.1% | 502.7hPa | 2.5V | 00:00:00 | 02:29:05 | 00:00:00 | |
| DL0LBS | 2026-09-04 02:03:37 | 49.87872 | 11.96525 | 133° | 95km/h | 5818m | -5.6m/s | -11.4°C | 53.5% | 502.0hPa | 2.5V | 07:50:00 | 00:00:00 | 00:00:00 | |
| DO9HM | 2026-09-04 02:03:36 | 49.87904 | 11.96472 | 134° | 89km/h | 5829m | -5.4m/s | -11.5°C | 53.7% | 501.3hPa | 2.5V | 00:00:00 | 00:00:00 | 00:00:00 | |
| DL1NUX | 2026-09-04 02:03:34 | 49.88001 | 11.96301 | 128° | 80km/h | 5867m | -5.7m/s | -11.7°C | 57.6% | 498.9hPa | 2.5V | 07:50:42 | 02:28:54 | 00:00:00 | |
| DO3MHA-11 | 2026-09-04 02:03:30 | 49.87988 | 11.96325 | 130° | 84km/h | 5861m | -5.5m/s | -11.7°C | 57.3% | 499.2hPa | 2.6V | 00:00:00 | 02:28:55 | 00:00:00 | |
| DB0UT-7 | 2026-09-04 02:03:29 | 49.88001 | 11.96301 | 129° | 86km/h | 5867m | -5.6m/s | -11.7°C | 57.6% | 498.8hPa | 2.6V | 07:50:00 | 02:28:54 | 00:00:00 | |
| DB0NH | 2026-09-04 02:03:25 | 49.88049 | 11.96195 | 123° | 86km/h | 5889m | -5.7m/s | -11.8°C | 57.6% | 497.5hPa | 2.6V | 00:00:00 | 02:28:50 | 00:00:00 | |
| DL1NUX | 2026-09-04 02:03:24 | 49.88120 | 11.96020 | 122° | 93km/h | 5922m | -5.2m/s | -12.1°C | 58.3% | 495.3hPa | 2.5V | 07:50:52 | 02:28:44 | 00:00:00 | |
| SO1NDE-10 | 2026-09-04 02:03:23 | 49.88072 | 11.96140 | 122° | 86km/h | 5900m | -5.5m/s | -11.9°C | 57.5% | 496.7hPa | 2.6V | 00:00:00 | 02:28:48 | 00:00:00 | |
| SONCRA | 2026-09-04 02:03:21 | 49.88096 | 11.96081 | 121° | 89km/h | 5911m | -5.6m/s | -12.1°C | 55.0% | 496.0hPa | 2.6V | 00:00:00 | 00:00:00 | 00:00:00 | |
| DO3MHA-11 | 2026-09-04 02:03:20 | 49.88108 | 11.96051 | 122° | 91km/h | 5917m | -5.7m/s | -12.0°C | 58.1% | 495.6hPa | 2.6V | 00:00:00 | 02:28:45 | 00:00:00 | |
| DL1NUX | 2026-09-04 02:03:14 | 49.88260 | 11.95740 | 128° | 84km/h | 5976m | -5.8m/s | -12.5°C | 58.2% | 491.9hPa | 2.6V | 07:51:02 | 02:28:34 | 00:00:00 | |
| NBG1-10 | 2026-09-04 02:03:11 | 49.88233 | 11.95791 | 130° | 86km/h | 5965m | -5.5m/s | -12.4°C | 57.6% | 492.5hPa | 2.6V | 00:00:00 | 02:28:36 | 00:00:00 | |
| DO3MHA-11 | 2026-09-04 02:03:10 | 49.88247 | 11.95766 | 130° | 82km/h | 5971m | -5.5m/s | -12.4°C | 58.1% | 492.1hPa | 2.6V | 00:00:00 | 02:28:35 | 00:00:00 | |
| DL1NUX | 2026-09-04 02:03:04 | 49.88380 | 11.95479 | 120° | 84km/h | 6030m | -5.3m/s | -12.7°C | 56.4% | 488.4hPa | 2.6V | 07:51:12 | 02:28:24 | 00:00:00 | |
| DO3MHA-11 | 2026-09-04 02:03:00 | 49.88369 | 11.95507 | 122° | 88km/h | 6025m | -5.2m/s | -12.7°C | 56.9% | 488.7hPa | 2.5V | 00:00:00 | 02:28:25 | 00:00:00 | |
| DB0UT-7 | 2026-09-04 02:02:59 | 49.88380 | 11.95479 | 121° | 84km/h | 6030m | -5.3m/s | -12.7°C | 56.4% | 488.3hPa | 2.5V | 00:00:00 | 00:00:00 | 00:00:00 | |
| DB0NH | 2026-09-04 02:02:55 | 49.88421 | 11.95361 | 118° | 86km/h | 6052m | -5.5m/s | -12.7°C | 47.3% | 486.8hPa | 2.5V | 00:00:00 | 02:28:20 | 00:00:00 | |
| DL1NUX | 2026-09-04 02:02:54 | 49.88490 | 11.95173 | 123° | 95km/h | 6085m | -5.2m/s | -12.8°C | 39.8% | 484.8hPa | 2.5V | 07:51:22 | 02:28:14 | 00:00:00 | |
| SONCRA | 2026-09-04 02:02:50 | 49.88477 | 11.95204 | 121° | 95km/h | 6080m | -5.5m/s | -12.8°C | 37.0% | 485.2hPa | 2.6V | 00:00:00 | 00:00:00 | 00:00:00 | |
| DL6DJ-15 | 2026-09-04 02:02:49 | 49.88557 | 11.95030 | 124° | 82km/h | 6112m | -5.5m/s | -12.9°C | 32.0% | 483.1hPa | 2.6V | 00:00:00 | 00:00:00 | 00:00:00 | |
| DL1NUX | 2026-09-04 02:02:44 | 49.88610 | 11.94889 | 117° | 84km/h | 6139m | -5.2m/s | -13°C | 53.3% | 481.5hPa | 2.6V | 07:51:32 | 02:28:04 | 00:00:00 | |
| DO9HM | 2026-09-04 02:02:44 | 49.88557 | 11.95030 | 126° | 84km/h | 6112m | -5.5m/s | -12.9°C | 32.0% | 483.1hPa | 2.5V | 07:51:00 | 00:00:00 | 00:00:00 | |
| AM1SDL-15 | 2026-09-04 02:02:41 | 49.88590 | 11.94947 | 120° | 84km/h | 6128m | -5.5m/s | -12.8°C | 26.9% | 482.1hPa | 2.5V | 00:00:00 | 02:28:06 | 00:00:00 | |
| DO3MHA-11 | 2026-09-04 02:02:40 | 49.88600 | 11.94918 | 119° | 84km/h | 6134m | -5.4m/s | -12.9°C | 43.3% | 481.7hPa | 2.5V | 00:00:00 | 02:28:05 | 00:00:00 | |
| DH8WE-5 | 2026-09-04 02:02:39 | 49.88600 | 11.94918 | 119° | 84km/h | 6134m | -5.5m/s | -12.9°C | 40.8% | 481.7hPa | 2.5V | 07:51:00 | 00:00:00 | 00:00:00 | |
| NBG1-10 | 2026-09-04 02:02:38 | 49.88620 | 11.94860 | 119° | 86km/h | 6144m | -5.3m/s | -13.0°C | 60.7% | 481.0hPa | 2.5V | 07:51:00 | 02:28:03 | 00:00:00 | |
| DL1NUX | 2026-09-04 02:02:34 | 49.88716 | 11.94609 | 120° | 82km/h | 6193m | -5.6m/s | -13°C | 40.2% | 478.1hPa | 2.5V | 07:51:42 | 02:27:54 | 00:00:00 | |
| DO3MHA-11 | 2026-09-04 02:02:30 | 49.88705 | 11.94636 | 121° | 82km/h | 6187m | -5.4m/s | -12.9°C | 37.8% | 478.3hPa | 2.6V | 07:51:00 | 02:27:55 | 00:00:00 | |
| AM1SDL-15 | 2026-09-04 02:02:29 | 49.88716 | 11.94608 | 121° | 82km/h | 6193m | -5.6m/s | -12.9°C | 40.2% | 478.0hPa | 2.6V | 00:00:00 | 02:27:54 | 00:00:00 | |
| DB0NH | 2026-09-04 02:02:25 | 49.88758 | 11.94498 | 121° | 88km/h | 6214m | -5.2m/s | -13.0°C | 41.8% | 476.7hPa | 2.6V | 00:00:00 | 02:27:50 | 00:00:00 | |
| DL1NUX | 2026-09-04 02:02:24 | 49.88816 | 11.94328 | 115° | 84km/h | 6246m | -5.6m/s | -13.2°C | 39.4% | 474.7hPa | 2.6V | 07:51:52 | 02:27:44 | 00:00:00 | |
| SO1NDE-10 | 2026-09-04 02:02:23 | 49.88778 | 11.94443 | 119° | 88km/h | 6225m | -5.5m/s | -13.1°C | 43.3% | 476.0hPa | 2.5V | 00:00:00 | 02:27:48 | 00:00:00 | |
| DO3MHA-11 | 2026-09-04 02:02:20 | 49.88807 | 11.94357 | 117° | 86km/h | 6241m | -5.3m/s | -13.2°C | 40.4% | 474.9hPa | 2.6V | 00:00:00 | 02:27:45 | 00:00:00 | |
| SONCRA | 2026-09-04 02:02:19 | 49.88816 | 11.94328 | 115° | 82km/h | 6246m | -5.6m/s | -13.2°C | 37.1% | 474.7hPa | 2.5V | 00:00:00 | 00:00:00 | 00:00:00 | |
| AM1SDL-15 | 2026-09-04 02:02:16 | 49.88843 | 11.94239 | 115° | 91km/h | 6263m | -5.4m/s | -13.2°C | 31.5% | 473.7hPa | 2.5V | 00:00:00 | 02:27:41 | 00:00:00 | |
| DL1NUX | 2026-09-04 02:02:14 | 49.88910 | 11.94015 | 117° | 97km/h | 6300m | -5.2m/s | -13.4°C | 19.1% | 471.4hPa | 2.5V | 07:52:02 | 02:27:34 | 00:00:00 | |
| DO3MHA-11 | 2026-09-04 02:02:10 | 49.88899 | 11.94048 | 117° | 91km/h | 6294m | -5.3m/s | -13.3°C | 21.6% | 471.6hPa | 2.6V | 00:00:00 | 02:27:35 | 00:00:00 | |
| DL0LBS | 2026-09-04 02:02:08 | 49.88910 | 11.94014 | 118° | 97km/h | 6300m | -5.2m/s | -13.4°C | 17.8% | 471.4hPa | 2.6V | 07:52:00 | 00:00:00 | 00:00:00 | |
| NBG1-10 | 2026-09-04 02:02:05 | 49.88959 | 11.93885 | 123° | 88km/h | 6321m | -5.1m/s | -13.3°C | 10.1% | 470.0hPa | 2.6V | 00:00:00 | 02:27:30 | 00:00:00 | |
| DL1NUX | 2026-09-04 02:02:04 | 49.89029 | 11.93714 | 121° | 84km/h | 6352m | -5.4m/s | -13.5°C | 15.5% | 468.1hPa | 2.6V | 07:52:12 | 02:27:24 | 00:00:00 | |
| DO3MHA-11 | 2026-09-04 02:02:00 | 49.89018 | 11.93742 | 122° | 82km/h | 6347m | -5.3m/s | -13.4°C | 15.0% | 468.4hPa | 2.6V | 00:00:00 | 02:27:25 | 00:00:00 | |
| DH8WE-5 | 2026-09-04 02:01:59 | 49.89029 | 11.93714 | 123° | 84km/h | 6352m | -5.4m/s | -13.5°C | 14.4% | 468.1hPa | 2.6V | 07:52:00 | 00:00:00 | 00:00:00 | |
| DL1NUX | 2026-09-04 02:01:54 | 49.89137 | 11.93437 | 115° | 82km/h | 6404m | -5.3m/s | -13.8°C | 21.1% | 464.9hPa | 2.6V | 07:52:22 | 02:27:14 | 00:00:00 | |
| SONCRA | 2026-09-04 02:01:48 | 49.89163 | 11.93348 | 113° | 84km/h | 6420m | -5.3m/s | -13.9°C | 20.4% | 463.9hPa | 2.5V | 00:00:00 | 00:00:00 | 00:00:00 | |
| DL0LBS | 2026-09-04 02:01:47 | 49.89145 | 11.93408 | 116° | 84km/h | 6410m | -5.1m/s | -13.8°C | 20.0% | 464.6hPa | 2.5V | 07:52:00 | 00:00:00 | 00:00:00 | |
| DB0UT-7 | 2026-09-04 02:01:46 | 49.89163 | 11.93347 | 114° | 95km/h | 6420m | -5.3m/s | -13.9°C | 21.9% | 463.9hPa | 2.5V | 00:00:00 | 02:27:11 | 00:00:00 | |
| DL1NUX | 2026-09-04 02:01:44 | 49.89230 | 11.93125 | 117° | 95km/h | 6457m | -4.7m/s | -14.2°C | 22.6% | 461.6hPa | 2.5V | 07:52:32 | 02:27:04 | 00:00:00 | |
| DF2AP-13 | 2026-09-04 02:01:40 | 49.89219 | 11.93158 | 117° | 95km/h | 6452m | -5.0m/s | -14.1°C | 22.5% | 462.0hPa | 2.6V | 00:00:00 | 02:27:05 | 00:00:00 | |
| DH8WE-5 | 2026-09-04 02:01:37 | 49.89240 | 11.93091 | 118° | 97km/h | 6461m | -5.4m/s | -14.2°C | 21.5% | 461.4hPa | 2.6V | 07:52:00 | 00:00:00 | 00:00:00 | |
| DL1NUX | 2026-09-04 02:01:34 | 49.89337 | 11.92788 | 114° | 95km/h | 6507m | -5.5m/s | -14.4°C | 31.3% | 458.6hPa | 2.6V | 07:52:42 | 02:26:54 | 00:00:00 | |
| DF7PN | 2026-09-04 02:01:34 | 49.89296 | 11.92923 | 116° | 95km/h | 6487m | -5.1m/s | -14.4°C | 29.3% | 459.8hPa | 2.5V | 00:00:00 | 00:00:00 | 00:00:00 | |
| NBG1-10 | 2026-09-04 02:01:32 | 49.89307 | 11.92890 | 117° | 93km/h | 6492m | -5.4m/s | -14.3°C | 29.7% | 459.5hPa | 2.5V | 00:00:00 | 02:26:57 | 00:00:00 | |
| DO9HM | 2026-09-04 02:01:31 | 49.89306 | 11.92890 | 117° | 97km/h | 6492m | -5.4m/s | -14.4°C | 27.8% | 459.6hPa | 2.5V | 07:53:00 | 00:00:00 | 00:00:00 | |
| DO3MHA-11 | 2026-09-04 02:01:30 | 49.89327 | 11.92822 | 115° | 99km/h | 6502m | -5.1m/s | -14.3°C | 30.4% | 458.8hPa | 2.5V | 00:00:00 | 02:26:55 | 00:00:00 | |
| DL0LBS | 2026-09-04 02:01:27 | 49.89347 | 11.92754 | 116° | 97km/h | 6513m | -5.2m/s | -14.4°C | 31.7% | 458.3hPa | 2.5V | 07:53:00 | 00:00:00 | 00:00:00 | |
| DB0NH | 2026-09-04 02:01:25 | 49.89380 | 11.92650 | 118° | 93km/h | 6529m | -5.1m/s | -14.4°C | 50.5% | 457.2hPa | 2.5V | 00:00:00 | 02:26:50 | 00:00:00 | |
| DL1NUX | 2026-09-04 02:01:24 | 49.89456 | 11.92450 | 122° | 95km/h | 6559m | -5m/s | -14.6°C | 57.9% | 455.4hPa | 2.5V | 07:52:52 | 02:26:44 | 00:00:00 | |
| SO1NDE-10 | 2026-09-04 02:01:23 | 49.89404 | 11.92582 | 120° | 93km/h | 6539m | -4.9m/s | -14.4°C | 55.3% | 456.6hPa | 2.6V | 07:52:00 | 02:26:48 | 00:00:00 | |
| DM0DOS-11 | 2026-09-04 02:01:21 | 49.89495 | 11.92358 | 123° | 91km/h | 6575m | -5.1m/s | -14.6°C | 44.6% | 454.4hPa | 2.6V | 07:52:55 | 02:26:41 | 00:00:00 | |
| DO3MHA-11 | 2026-09-04 02:01:20 | 49.89443 | 11.92482 | 122° | 89km/h | 6554m | -5.1m/s | -14.5°C | 47.5% | 455.7hPa | 2.5V | 00:00:00 | 02:26:45 | 00:00:00 | |
| SONCRA | 2026-09-04 02:01:17 | 49.89495 | 11.92358 | 123° | 89km/h | 6575m | -5.1m/s | -14.6°C | 41.9% | 454.5hPa | 2.6V | 00:00:00 | 00:00:00 | 00:00:00 | |
| DB0UT-7 | 2026-09-04 02:01:16 | 49.89495 | 11.92358 | 124° | 84km/h | 6575m | -5.0m/s | -14.5°C | 44.6% | 454.4hPa | 2.6V | 00:00:00 | 00:00:00 | 00:00:00 | |
| DL1NUX | 2026-09-04 02:01:14 | 49.89571 | 11.92154 | 115° | 86km/h | 6611m | -5.5m/s | -14.7°C | 31.8% | 452.3hPa | 2.6V | 07:53:02 | 02:26:34 | 00:00:00 | |
| AM1SDL-15 | 2026-09-04 02:01:11 | 49.89552 | 11.92213 | 119° | 91km/h | 6601m | -5.2m/s | -14.6°C | 28.5% | 452.9hPa | 2.6V | 00:00:00 | 02:26:36 | 00:00:00 | |
| DO3MHA-11 | 2026-09-04 02:01:10 | 49.89562 | 11.92184 | 118° | 91km/h | 6606m | -5.2m/s | -14.6°C | 29.8% | 452.6hPa | 2.6V | 07:53:00 | 02:26:35 | 00:00:00 | |
| DL0LBS | 2026-09-04 02:01:05 | 49.89599 | 11.92059 | 115° | 91km/h | 6627m | -5.1m/s | -14.8°C | 31.0% | 451.4hPa | 2.6V | 07:53:00 | 00:00:00 | 00:00:00 | |
| DL1NUX | 2026-09-04 02:01:04 | 49.89671 | 11.91822 | 116° | 99km/h | 6662m | -5m/s | -15.2°C | 56.2% | 449.3hPa | 2.6V | 07:53:12 | 02:26:24 | 00:00:00 | |
| DF7PN | 2026-09-04 02:01:03 | 49.89639 | 11.91925 | 115° | 95km/h | 6647m | -5.2m/s | -15.0°C | -1.0% | 450.2hPa | 2.6V | 00:00:00 | 00:00:00 | 00:00:00 | |
| DO3MHA-11 | 2026-09-04 02:01:00 | 49.89660 | 11.91856 | 117° | 99km/h | 6657m | -5.3m/s | -15.1°C | 54.2% | 449.5hPa | 2.6V | 00:00:00 | 02:26:25 | 00:00:00 | |
| NBG1-10 | 2026-09-04 02:00:59 | 49.89671 | 11.91821 | 117° | 91km/h | 6662m | -4.9m/s | -15.1°C | 56.2% | 449.3hPa | 2.6V | 00:00:00 | 02:26:24 | 00:00:00 | |
| DM0DOS-11 | 2026-09-04 02:00:58 | 49.89740 | 11.91615 | 120° | 99km/h | 6693m | -4.9m/s | -15.3°C | 67% | 447.5hPa | 2.6V | 07:53:18 | 02:26:18 | 00:00:00 | |
| DB0NH | 2026-09-04 02:00:55 | 49.89716 | 11.91683 | 119° | 91km/h | 6683m | -5.0m/s | -15.3°C | 76.7% | 448.1hPa | 2.5V | 07:53:00 | 02:26:20 | 00:00:00 | |
| DL1NUX | 2026-09-04 02:00:54 | 49.89790 | 11.91490 | 122° | 91km/h | 6714m | -5.5m/s | -15.4°C | 57.7% | 446.2hPa | 2.5V | 07:53:22 | 02:26:14 | 00:00:00 | |
| SO1NDE-10 | 2026-09-04 02:00:53 | 49.89740 | 11.91615 | 121° | 89km/h | 6693m | -4.8m/s | -15.3°C | 67.0% | 447.4hPa | 2.6V | 00:00:00 | 02:26:18 | 00:00:00 | |
| DO3MHA-11 | 2026-09-04 02:00:50 | 49.89778 | 11.91520 | 123° | 86km/h | 6708m | -5.3m/s | -15.3°C | 59.3% | 446.5hPa | 2.5V | 00:00:00 | 02:26:15 | 00:00:00 | |
| DM0DOS-11 | 2026-09-04 02:00:48 | 49.89856 | 11.91318 | 117° | 82km/h | 6744m | -5.2m/s | -15.7°C | 72.2% | 444.4hPa | 2.6V | 07:53:28 | 02:26:08 | 00:00:00 | |
| SONCRA | 2026-09-04 02:00:46 | 49.89846 | 11.91346 | 118° | 80km/h | 6739m | -5.4m/s | -15.6°C | 69.1% | 444.8hPa | 2.5V | 00:00:00 | 00:00:00 | 00:00:00 | |
| AM1SDL-15 | 2026-09-04 02:00:45 | 49.89836 | 11.91374 | 120° | 88km/h | 6734m | -5.4m/s | -15.5°C | 73.7% | 445.0hPa | 2.5V | 07:53:00 | 02:26:10 | 00:00:00 | |
| DL1NUX | 2026-09-04 02:00:44 | 49.89892 | 11.91200 | 112° | 86km/h | 6765m | -5.2m/s | -15.8°C | 76.3% | 443.2hPa | 2.5V | 07:53:32 | 02:26:04 | 00:00:00 | |
| DO3MHA-11 | 2026-09-04 02:00:40 | 49.89883 | 11.91231 | 114° | 91km/h | 6760m | -5.3m/s | -15.7°C | 73.8% | 443.4hPa | 2.6V | 00:00:00 | 02:26:05 | 00:00:00 | |
| DL1NUX | 2026-09-04 02:00:34 | 49.89996 | 11.90872 | 120° | 95km/h | 6817m | -5.2m/s | -16.2°C | 73.9% | 440.2hPa | 2.6V | 07:53:42 | 02:25:54 | 00:00:00 | |
| BIOWL1-15 | 2026-09-04 02:00:30 | 49.90008 | 11.90840 | 121° | 93km/h | 6822m | -5m/s | -16.2°C | 76.9% | 440hPa | 2.5V | 07:55:06 | 02:25:53 | 00:00:00 | |
| DO3MHA-11 | 2026-09-04 02:00:30 | 49.89983 | 11.90903 | 120° | 89km/h | 6812m | -4.8m/s | -16.1°C | 71.0% | 440.5hPa | 2.6V | 00:00:00 | 02:25:55 | 00:00:00 | |
| NBG1-10 | 2026-09-04 02:00:26 | 49.90032 | 11.90779 | 124° | 88km/h | 6832m | -4.9m/s | -16.2°C | 80.0% | 439.3hPa | 2.6V | 00:00:00 | 02:25:51 | 00:00:00 | |
| DH8WE-5 | 2026-09-04 02:00:25 | 49.90044 | 11.90749 | 124° | 88km/h | 6837m | -5.2m/s | -16.3°C | 76.2% | 439.0hPa | 2.5V | 07:54:00 | 00:00:00 | 00:00:00 | |
| DL1NUX | 2026-09-04 02:00:24 | 49.90112 | 11.90581 | 120° | 80km/h | 6868m | -4.8m/s | -16.6°C | 94% | 437.3hPa | 2.5V | 07:53:52 | 02:25:44 | 00:00:00 | |
| SO1NDE-10 | 2026-09-04 02:00:23 | 49.90068 | 11.90692 | 123° | 88km/h | 6848m | -5.0m/s | -16.4°C | 84.3% | 438.4hPa | 2.5V | 00:00:00 | 02:25:48 | 00:00:00 | |
| DM0DOS-11 | 2026-09-04 02:00:22 | 49.90132 | 11.90527 | 119° | 78km/h | 6878m | -5.4m/s | -16.7°C | 95.5% | 436.7hPa | 2.5V | 07:53:54 | 02:25:42 | 00:00:00 | |
| BIOWL1-15 | 2026-09-04 02:00:20 | 49.90132 | 11.90527 | 119° | 78km/h | 6878m | -5.4m/s | -16.7°C | 89.1% | 436.7hPa | 2.5V | 07:55:06 | 02:25:42 | 00:00:00 | |
| DL0LBS | 2026-09-04 02:00:19 | 49.90101 | 11.90609 | 122° | 82km/h | 6863m | -5.2m/s | -16.5°C | 88.3% | 437.6hPa | 2.5V | 07:54:00 | 00:00:00 | 00:00:00 | |
| AM1SDL-15 | 2026-09-04 02:00:18 | 49.90122 | 11.90554 | 120° | 82km/h | 6873m | -4.6m/s | -16.6°C | 94.8% | 437.0hPa | 2.5V | 00:00:00 | 02:25:43 | 00:00:00 | |
| SONCRA | 2026-09-04 02:00:15 | 49.90161 | 11.90445 | 116° | 78km/h | 6893m | -5.4m/s | -16.8°C | 91.0% | 435.8hPa | 2.6V | 00:00:00 | 00:00:00 | 00:00:00 | |
| DL1NUX | 2026-09-04 02:00:14 | 49.90202 | 11.90295 | 111° | 88km/h | 6918m | -4.7m/s | -17°C | 98.1% | 434.4hPa | 2.6V | 07:54:02 | 02:25:34 | 00:00:00 | |
| DL6DJ-15 | 2026-09-04 02:00:13 | 49.90169 | 11.90416 | 114° | 80km/h | 6898m | -4.8m/s | -16.9°C | 91.2% | 435.5hPa | 2.5V | 00:00:00 | 00:00:00 | 00:00:00 | |
| DM0DOS-11 | 2026-09-04 02:00:12 | 49.90219 | 11.90230 | 111° | 91km/h | 6928m | -5.3m/s | -17.1°C | 98.9% | 433.7hPa | 2.5V | 07:54:04 | 02:25:32 | 00:00:00 | |
| BIOWL1-15 | 2026-09-04 02:00:06 | 49.90228 | 11.90196 | 112° | 93km/h | 6933m | -5.4m/s | -17.2°C | 92% | 433.5hPa | 2.5V | 07:55:06 | 02:25:31 | 00:00:00 | |
| DB0UT-7 | 2026-09-04 02:00:06 | 49.90227 | 11.90196 | 112° | 89km/h | 6933m | -5.3m/s | -17.1°C | 99.2% | 433.4hPa | 2.6V | 00:00:00 | 02:25:31 | 00:00:00 | |
| DL1NUX | 2026-09-04 02:00:04 | 49.90300 | 11.89961 | 119° | 95km/h | 6968m | -5.3m/s | -17.3°C | 97% | 431.4hPa | 2.6V | 07:54:12 | 02:25:24 | 00:00:00 | |
| DM0DOS-11 | 2026-09-04 02:00:02 | 49.90324 | 11.89897 | 120° | 93km/h | 6978m | -4.5m/s | -17.1°C | 91.6% | 430.8hPa | 2.6V | 07:54:14 | 02:25:22 | 00:00:00 | |
| BIOWL9-15 | 2026-09-04 01:59:55 | 49.90447 | 11.89568 | 116° | 82km/h | 7034m | -5.3m/s | -17.2°C | 74.8% | 427.6hPa | 2.5V | 00:00:00 | 00:00:00 | 00:00:00 | |
| DL1NUX | 2026-09-04 01:59:54 | 49.90417 | 11.89655 | 120° | 86km/h | 7018m | -5.1m/s | -17.2°C | 81.3% | 428.5hPa | 2.5V | 07:54:22 | 02:25:14 | 00:00:00 | |
| SO1NDE-10 | 2026-09-04 01:59:53 | 49.90372 | 11.89773 | 122° | 89km/h | 6998m | -5.3m/s | -17.1°C | 86.4% | 429.6hPa | 2.5V | 00:00:00 | 02:25:18 | 00:00:00 | |
| DM0DOS-11 | 2026-09-04 01:59:52 | 49.90438 | 11.89597 | 117° | 84km/h | 7029m | -5.6m/s | -17.2°C | 79.9% | 427.9hPa | 2.5V | 07:54:24 | 02:25:12 | 00:00:00 | |
| BIOWL1-15 | 2026-09-04 01:59:45 | 49.90457 | 11.89539 | 116° | 82km/h | 7040m | -4.9m/s | -17.3°C | 77.4% | 427.4hPa | 2.6V | 07:55:06 | 02:25:10 | 00:00:00 | |
| DL1NUX | 2026-09-04 01:59:44 | 49.90506 | 11.89353 | 110° | 89km/h | 7070m | -4.9m/s | -17.4°C | 82.7% | 425.6hPa | 2.5V | 07:54:32 | 02:25:04 | 00:00:00 | |
| DH8WE-5 | 2026-09-04 01:59:43 | 49.90466 | 11.89509 | 115° | 82km/h | 7045m | -5.2m/s | -17.3°C | 78.3% | 427.1hPa | 2.6V | 00:00:00 | 00:00:00 | 00:00:00 | |
| DM0DOS-11 | 2026-09-04 01:59:42 | 49.90522 | 11.89286 | 110° | 93km/h | 7081m | -4.9m/s | -17.5°C | 83.4% | 425hPa | 2.6V | 07:54:34 | 02:25:02 | 00:00:00 | |
| BIOWL1-15 | 2026-09-04 01:59:36 | 49.90550 | 11.89182 | 114° | 99km/h | 7096m | -4.9m/s | -17.6°C | 79.7% | 424.3hPa | 2.5V | 07:55:06 | 02:24:59 | 00:00:00 | |
| DB0UT-7 | 2026-09-04 01:59:36 | 49.90531 | 11.89252 | 112° | 100km/h | 7086m | -5.0m/s | -17.5°C | 84.0% | 424.7hPa | 2.6V | 00:00:00 | 00:00:00 | 00:00:00 | |
| DM0DOS-11 | 2026-09-04 01:59:32 | 49.90629 | 11.88948 | 120° | 93km/h | 7131m | -4.8m/s | -17.8°C | 81.1% | 422.2hPa | 2.5V | 07:54:44 | 02:24:52 | 00:00:00 | |
| DO3MHA-11 | 2026-09-04 01:59:30 | 49.90593 | 11.89045 | 119° | 91km/h | 7116m | -4.5m/s | -17.7°C | 82.1% | 423.0hPa | 2.6V | 00:00:00 | 02:24:55 | 00:00:00 | |
| DB0NH | 2026-09-04 01:59:25 | 49.90653 | 11.88887 | 122° | 91km/h | 7141m | -4.9m/s | -17.8°C | 81.3% | 421.6hPa | 2.6V | 00:00:00 | 02:24:50 | 00:00:00 | |
| DL1NUX | 2026-09-04 01:59:24 | 49.90726 | 11.88709 | 122° | 89km/h | 7172m | -5.3m/s | -18.1°C | 79.6% | 419.9hPa | 2.6V | 07:54:52 | 02:24:44 | 00:00:00 | |
| BIOWL1-15 | 2026-09-04 01:59:24 | 49.90665 | 11.88857 | 122° | 91km/h | 7146m | -5m/s | -17.9°C | 76.8% | 421.4hPa | 2.6V | 07:55:06 | 02:24:49 | 00:00:00 | |
| BIOWL9-15 | 2026-09-04 01:59:24 | 49.90678 | 11.88828 | 122° | 89km/h | 7151m | -5.2m/s | -17.9°C | 75.4% | 421.1hPa | 2.6V | 00:00:00 | 00:00:00 | 00:00:00 | |
| SO1NDE-10 | 2026-09-04 01:59:23 | 49.90677 | 11.88827 | 123° | 89km/h | 7151m | -5.1m/s | -17.9°C | 80.5% | 421.0hPa | 2.6V | 00:00:00 | 02:24:48 | 00:00:00 | |
| DM0DOS-11 | 2026-09-04 01:59:22 | 49.90752 | 11.88649 | 122° | 91km/h | 7181m | -4.6m/s | -18.1°C | 78.5% | 419.4hPa | 2.5V | 07:54:54 | 02:24:42 | 00:00:00 | |
| DH8WE-5 | 2026-09-04 01:59:21 | 49.90690 | 11.88798 | 123° | 89km/h | 7156m | -4.9m/s | -18.0°C | 75.2% | 420.7hPa | 2.6V | 00:00:00 | 00:00:00 | 00:00:00 | |
| DO3MHA-11 | 2026-09-04 01:59:20 | 49.90714 | 11.88738 | 123° | 91km/h | 7166m | -5.4m/s | -18.0°C | 79.7% | 420.2hPa | 2.6V | 00:00:00 | 02:24:45 | 00:00:00 | |
| AM1SDL-15 | 2026-09-04 01:59:18 | 49.90739 | 11.88679 | 124° | 91km/h | 7177m | -4.8m/s | -18.0°C | 79.2% | 419.7hPa | 2.6V | 00:00:00 | 02:24:43 | 00:00:00 | |
| DL0LBS | 2026-09-04 01:59:15 | 49.90764 | 11.88619 | 124° | 93km/h | 7187m | -5.2m/s | -18.1°C | 72.5% | 419.0hPa | 2.6V | 07:55:00 | 00:00:00 | 00:00:00 | |
| DL1NUX | 2026-09-04 01:59:14 | 49.90855 | 11.88408 | 125° | 91km/h | 7221m | -5.6m/s | -18.3°C | 76.4% | 417.1hPa | 2.6V | 07:55:02 | 02:24:34 | 00:00:00 | |
| BIOWL1-15 | 2026-09-04 01:59:13 | 49.90802 | 11.88528 | 123° | 95km/h | 7201m | -4.7m/s | -18.2°C | 72.5% | 418.2hPa | 2.5V | 07:55:06 | 02:24:38 | 00:00:00 | |
| SONCRA | 2026-09-04 01:59:13 | 49.90816 | 11.88498 | 124° | 91km/h | 7206m | -5.2m/s | -18.2°C | 70.8% | 417.9hPa | 2.5V | 00:00:00 | 00:00:00 | 00:00:00 | |
| OE5DXL-15 | 2026-09-04 01:59:11 | 49.90829 | 11.88467 | 124° | 89km/h | 7211m | -5.1m/s | -18.2°C | 76.0% | 417.6hPa | 2.5V | 00:00:00 | 00:00:00 | 00:00:00 | |
| DO3MHA-11 | 2026-09-04 01:59:10 | 49.90841 | 11.88438 | 125° | 89km/h | 7216m | -5.0m/s | -18.2°C | 76.3% | 417.3hPa | 2.5V | 00:00:00 | 02:24:35 | 00:00:00 | |
| DO9HM | 2026-09-04 01:59:09 | 49.90842 | 11.88438 | 125° | 91km/h | 7216m | -5.1m/s | -18.3°C | 71.3% | 417.3hPa | 2.5V | 00:00:00 | 00:00:00 | 00:00:00 | |
| AM1SDL-15 | 2026-09-04 01:59:06 | 49.90894 | 11.88323 | 126° | 89km/h | 7236m | -5.1m/s | -18.4°C | 76.7% | 416.2hPa | 2.5V | 07:55:00 | 02:24:31 | 00:00:00 | |
| DL1NUX | 2026-09-04 01:59:04 | 49.90989 | 11.88125 | 127° | 91km/h | 7272m | -5.3m/s | -18.8°C | 77.8% | 414.2hPa | 2.5V | 07:55:12 | 02:24:24 | 00:00:00 | |
| BIOWL1-15 | 2026-09-04 01:59:04 | 49.90947 | 11.88210 | 126° | 91km/h | 7256m | -5m/s | -18.7°C | 73.7% | 415.1hPa | 2.6V | 07:55:57 | 02:24:27 | 00:00:00 | |
| DO3MHA-11 | 2026-09-04 01:59:00 | 49.90975 | 11.88153 | 128° | 89km/h | 7267m | -5.3m/s | -18.7°C | 77.7% | 414.4hPa | 2.5V | 00:00:00 | 02:24:25 | 00:00:00 | |
| BIOWL7-15 | 2026-09-04 01:58:57 | 49.91003 | 11.88097 | 129° | 91km/h | 7278m | -5.3m/s | -18.8°C | 0% | 0hPa | 2.5V | 00:00:00 | 00:00:00 | 00:00:00 | |
| DB0NH | 2026-09-04 01:58:55 | 49.91044 | 11.88014 | 129° | 95km/h | 7293m | -5.2m/s | -18.9°C | 78.1% | 413.1hPa | 2.5V | 00:00:00 | 02:24:20 | 00:00:00 | |
| DL1NUX | 2026-09-04 01:58:54 | 49.91130 | 11.87849 | 129° | 91km/h | 7323m | -5.1m/s | -19°C | 74.5% | 411.4hPa | 2.5V | 07:55:22 | 02:24:14 | 00:00:00 | |
| BIOWL1-15 | 2026-09-04 01:58:53 | 49.91101 | 11.87904 | 129° | 91km/h | 7312m | -5.1m/s | -19°C | 72.6% | 412hPa | 2.6V | 07:55:57 | 02:24:16 | 00:00:00 | |
| BIOWL9-15 | 2026-09-04 01:58:53 | 49.91086 | 11.87932 | 128° | 89km/h | 7307m | -5.1m/s | -19.0°C | 72.4% | 412.3hPa | 2.5V | 00:00:00 | 00:00:00 | 00:00:00 | |
| DM0DOS-11 | 2026-09-04 01:58:52 | 49.91159 | 11.87795 | 129° | 88km/h | 7333m | -5.3m/s | -19°C | 73.4% | 410.9hPa | 2.5V | 07:55:24 | 02:24:12 | 00:00:00 | |
| SONDE2-11 | 2026-09-04 01:58:51 | 49.91101 | 11.87904 | 128° | 89km/h | 7312m | -5.1m/s | -19.0°C | 71.7% | 412.0hPa | 2.5V | 00:00:00 | 00:00:00 | 00:00:00 | |
| EDDB2-11 | 2026-09-04 01:58:47 | 49.91173 | 11.87768 | 129° | 86km/h | 7339m | -5.1m/s | -19.0°C | 68.1% | 410.6hPa | 2.5V | 00:00:00 | 00:00:00 | 00:00:00 | |
| DL1NUX | 2026-09-04 01:58:44 | 49.91273 | 11.87582 | 130° | 93km/h | 7374m | -4.8m/s | -19.2°C | 72.6% | 408.6hPa | 2.5V | 07:55:32 | 02:24:04 | 00:00:00 | |
| DO9HM | 2026-09-04 01:58:43 | 49.91215 | 11.87689 | 131° | 86km/h | 7354m | -4.9m/s | -19.1°C | 67.3% | 409.8hPa | 2.6V | 07:55:00 | 00:00:00 | 00:00:00 | |
| DM0DOS-11 | 2026-09-04 01:58:42 | 49.91304 | 11.87525 | 129° | 97km/h | 7384m | -4.9m/s | -19.2°C | 72.4% | 408.1hPa | 2.6V | 07:55:34 | 02:24:02 | 00:00:00 | |
| BIOWL1-15 | 2026-09-04 01:58:41 | 49.91243 | 11.87636 | 130° | 89km/h | 7364m | -5.2m/s | -19.1°C | 69.1% | 409.2hPa | 2.6V | 07:55:57 | 02:24:06 | 00:00:00 | |
| OE5DXL-15 | 2026-09-04 01:58:41 | 49.91243 | 11.87636 | 130° | 100km/h | 7365m | -5.1m/s | -19.1°C | 72.3% | 409.2hPa | 2.6V | 00:00:00 | 00:00:00 | 00:00:00 | |
| DO3MHA-11 | 2026-09-04 01:58:40 | 49.91258 | 11.87610 | 130° | 99km/h | 7369m | -4.7m/s | -19.1°C | 72.5% | 408.9hPa | 2.6V | 00:00:00 | 02:24:05 | 00:00:00 | |
| EDDB2-12 | 2026-09-04 01:58:35 | 49.91335 | 11.87464 | 128° | 100km/h | 7394m | -5.0m/s | -19.3°C | 66.5% | 407.5hPa | 2.6V | 00:00:00 | 00:00:00 | 00:00:00 | |
| DL1NUX | 2026-09-04 01:58:34 | 49.91433 | 11.87279 | 130° | 102km/h | 7426m | -5.4m/s | -19.5°C | 73.3% | 405.8hPa | 2.6V | 07:55:42 | 02:23:54 | 00:00:00 | |
| BIOWL1-15 | 2026-09-04 01:58:32 | 49.91417 | 11.87310 | 131° | 102km/h | 7421m | -5.1m/s | -19.5°C | 70.1% | 406.1hPa | 2.5V | 07:55:57 | 02:23:55 | 00:00:00 | |
| DO3MHA-11 | 2026-09-04 01:58:30 | 49.91417 | 11.87310 | 131° | 102km/h | 7421m | -5.0m/s | -19.4°C | 72.7% | 406.1hPa | 2.5V | 07:55:00 | 02:23:55 | 00:00:00 | |
| DL1NUX | 2026-09-04 01:58:24 | 49.91589 | 11.86958 | 124° | 102km/h | 7477m | -4.8m/s | -19.9°C | 74.3% | 403.1hPa | 2.5V | 07:55:52 | 02:23:44 | 00:00:00 | |
| BIOWL1-15 | 2026-09-04 01:58:19 | 49.91605 | 11.86925 | 126° | 104km/h | 7482m | -4.6m/s | -19.9°C | 70.7% | 402.9hPa | 2.5V | 07:55:57 | 02:23:43 | 00:00:00 | |
| EDDB2-11 | 2026-09-04 01:58:15 | 49.91651 | 11.86824 | 125° | 106km/h | 7496m | -5.0m/s | -20.0°C | 67.9% | 402.0hPa | 2.6V | 00:00:00 | 00:00:00 | 00:00:00 | |
| DL1NUX | 2026-09-04 01:58:14 | 49.91744 | 11.86619 | 125° | 104km/h | 7526m | -5m/s | -20.1°C | 71.5% | 400.3hPa | 2.6V | 07:56:02 | 02:23:34 | 00:00:00 | |
| BIOWL1-15 | 2026-09-04 01:58:07 | 49.91775 | 11.86554 | 128° | 99km/h | 7536m | -4.9m/s | -20.2°C | 68.3% | 399.9hPa | 2.5V | 07:58:30 | 02:23:32 | 00:00:00 | |
| DL0LBS | 2026-09-04 01:58:06 | 49.91775 | 11.86554 | 128° | 99km/h | 7536m | -4.9m/s | -20.2°C | 66.5% | 399.9hPa | 2.5V | 07:56:00 | 00:00:00 | 00:00:00 | |
| EDDB2-12 | 2026-09-04 01:58:04 | 49.91821 | 11.86467 | 131° | 95km/h | 7551m | -4.6m/s | -20.3°C | 66.1% | 399.0hPa | 2.5V | 00:00:00 | 00:00:00 | 00:00:00 | |
| DL1NUX | 2026-09-04 01:58:04 | 49.91901 | 11.86328 | 131° | 93km/h | 7575m | -4.7m/s | -20.5°C | 70.8% | 397.7hPa | 2.5V | 07:56:12 | 02:23:24 | 00:00:00 | |
| OE5DRO-10 | 2026-09-04 01:58:01 | 49.91869 | 11.86383 | 132° | 102km/h | 7566m | -4.8m/s | -20.4°C | 70.8% | 398.1hPa | 2.5V | 00:00:00 | 00:00:00 | 00:00:00 | |
| DO3MHA-11 | 2026-09-04 01:57:58 | 49.91917 | 11.86300 | 133° | 102km/h | 7580m | -5.3m/s | -20.5°C | 70.8% | 397.4hPa | 2.5V | 00:00:00 | 02:23:23 | 00:00:00 | |
| DM0DOS-11 | 2026-09-04 01:57:56 | 49.92039 | 11.86100 | 133° | 106km/h | 7615m | -4.9m/s | -20.9°C | 71.2% | 395.5hPa | 2.5V | 07:56:20 | 02:23:16 | 00:00:00 | |
| BIOWL1-15 | 2026-09-04 01:57:56 | 49.91950 | 11.86246 | 133° | 97km/h | 7591m | -5.4m/s | -20.6°C | 68.3% | 396.9hPa | 2.6V | 07:58:30 | 02:23:21 | 00:00:00 | |
| DB0NH | 2026-09-04 01:57:55 | 49.91967 | 11.86218 | 134° | 106km/h | 7596m | -4.9m/s | -20.6°C | 70.7% | 396.5hPa | 2.6V | 00:00:00 | 02:23:20 | 00:00:00 | |
| DL1NUX | 2026-09-04 01:57:54 | 49.92077 | 11.86038 | 132° | 110km/h | 7625m | -5.3m/s | -20.9°C | 71.5% | 395hPa | 2.6V | 07:56:22 | 02:23:14 | 00:00:00 | |
| DB0ND-19 | 2026-09-04 01:57:53 | 49.92003 | 11.86160 | 134° | 104km/h | 7606m | -4.9m/s | -20.8°C | 65.7% | 396.1hPa | 2.6V | 00:00:00 | 00:00:00 | 00:00:00 | |
| BIOWL9-15 | 2026-09-04 01:57:51 | 49.92058 | 11.86069 | 132° | 108km/h | 7620m | -5.2m/s | -20.9°C | 66.3% | 395.3hPa | 2.6V | 00:00:00 | 00:00:00 | 00:00:00 | |
| DO3MHA-11 | 2026-09-04 01:57:48 | 49.92095 | 11.86005 | 132° | 106km/h | 7631m | -4.8m/s | -20.9°C | 71.7% | 394.6hPa | 2.6V | 00:00:00 | 02:23:13 | 00:00:00 | |
| DM0DOS-11 | 2026-09-04 01:57:46 | 49.92217 | 11.85772 | 128° | 100km/h | 7666m | -4.6m/s | -21.3°C | 72.4% | 392.9hPa | 2.5V | 07:56:30 | 02:23:06 | 00:00:00 | |
| BIOWL1-15 | 2026-09-04 01:57:45 | 49.92150 | 11.85904 | 129° | 111km/h | 7646m | -5.4m/s | -21.1°C | 69.4% | 393.9hPa | 2.5V | 07:58:30 | 02:23:10 | 00:00:00 | |
| DL1NUX | 2026-09-04 01:57:44 | 49.92249 | 11.85712 | 131° | 97km/h | 7675m | -4.7m/s | -21.4°C | 72.2% | 392.3hPa | 2.5V | 07:56:32 | 02:23:04 | 00:00:00 | |
| NBG1-10 | 2026-09-04 01:57:41 | 49.92217 | 11.85771 | 129° | 108km/h | 7666m | -4.6m/s | -21.3°C | 72.4% | 392.8hPa | 2.6V | 00:00:00 | 02:23:06 | 00:00:00 | |
| DF2AP-13 | 2026-09-04 01:57:40 | 49.92233 | 11.85741 | 130° | 108km/h | 7671m | -5.0m/s | -21.3°C | 72.4% | 392.5hPa | 2.6V | 00:00:00 | 02:23:05 | 00:00:00 | |
| SONCRA | 2026-09-04 01:57:39 | 49.92249 | 11.85712 | 131° | 97km/h | 7675m | -4.7m/s | -21.4°C | 67.0% | 392.3hPa | 2.6V | 00:00:00 | 00:00:00 | 00:00:00 | |
| DO3MHA-11 | 2026-09-04 01:57:38 | 49.92265 | 11.85684 | 133° | 104km/h | 7680m | -4.7m/s | -21.3°C | 71.2% | 392.0hPa | 2.6V | 00:00:00 | 02:23:03 | 00:00:00 | |
| DM0DOS-11 | 2026-09-04 01:57:36 | 49.92390 | 11.85478 | 134° | 108km/h | 7714m | -4.9m/s | -21.6°C | 70% | 390.3hPa | 2.6V | 07:56:40 | 02:22:56 | 00:00:00 | |
| DL1NUX | 2026-09-04 01:57:34 | 49.92429 | 11.85417 | 133° | 111km/h | 7724m | -5m/s | -21.7°C | 70.6% | 389.7hPa | 2.5V | 07:56:42 | 02:22:54 | 00:00:00 | |
| DJTTGO | 2026-09-04 01:57:32 | 49.92353 | 11.85538 | 135° | 104km/h | 7704m | -5.1m/s | -21.5°C | 65.2% | 390.8hPa | 2.6V | 07:56:00 | 00:00:00 | 00:00:00 | |
| DH8WE-5 | 2026-09-04 01:57:31 | 49.92371 | 11.85508 | 135° | 106km/h | 7709m | -5.2m/s | -21.6°C | 65.3% | 390.5hPa | 2.6V | 07:56:00 | 00:00:00 | 00:00:00 | |
| DO3MHA-11 | 2026-09-04 01:57:28 | 49.92448 | 11.85385 | 133° | 113km/h | 7729m | -5.4m/s | -21.7°C | 70.9% | 389.3hPa | 2.6V | 00:00:00 | 02:22:53 | 00:00:00 | |
| DM0DOS-11 | 2026-09-04 01:57:26 | 49.92577 | 11.85144 | 126° | 113km/h | 7765m | -5m/s | -22.1°C | 72.5% | 387.5hPa | 2.6V | 07:56:50 | 02:22:46 | 00:00:00 | |
| DB0NH | 2026-09-04 01:57:25 | 49.92505 | 11.85285 | 131° | 111km/h | 7745m | -5.0m/s | -21.8°C | 71.6% | 388.5hPa | 2.6V | 00:00:00 | 02:22:50 | 00:00:00 | |
| DL1NUX | 2026-09-04 01:57:24 | 49.92610 | 11.85072 | 125° | 110km/h | 7775m | -5.6m/s | -22.2°C | 73% | 387hPa | 2.5V | 07:56:52 | 02:22:44 | 00:00:00 | |
| BIOWL1-15 | 2026-09-04 01:57:21 | 49.92577 | 11.85144 | 127° | 113km/h | 7765m | -5m/s | -22.1°C | 70% | 387.5hPa | 2.6V | 07:58:30 | 02:22:46 | 00:00:00 | |
| DO9HM | 2026-09-04 01:57:20 | 49.92577 | 11.85143 | 128° | 113km/h | 7765m | -5.0m/s | -22.1°C | 67.2% | 387.5hPa | 2.5V | 07:57:00 | 00:00:00 | 00:00:00 | |
| BIOWL9-15 | 2026-09-04 01:57:19 | 49.92610 | 11.85072 | 125° | 110km/h | 7775m | -5.6m/s | -22.2°C | 67.6% | 387.0hPa | 2.5V | 00:00:00 | 00:00:00 | 00:00:00 | |
| DO3MHA-11 | 2026-09-04 01:57:18 | 49.92625 | 11.85038 | 126° | 106km/h | 7781m | -5.1m/s | -22.2°C | 73.2% | 386.7hPa | 2.5V | 00:00:00 | 02:22:43 | 00:00:00 | |
| DM0DOS-11 | 2026-09-04 01:57:16 | 49.92747 | 11.84813 | 131° | 106km/h | 7816m | -5.5m/s | -22.5°C | 75.1% | 384.9hPa | 2.6V | 07:57:00 | 02:22:36 | 00:00:00 | |
| DL1NUX | 2026-09-04 01:57:14 | 49.92783 | 11.84752 | 131° | 104km/h | 7826m | -4.8m/s | -22.6°C | 75.4% | 384.4hPa | 2.6V | 07:57:02 | 02:22:34 | 00:00:00 | |
| BIOWL1-15 | 2026-09-04 01:57:09 | 49.92783 | 11.84752 | 132° | 104km/h | 7826m | -4.8m/s | -22.6°C | 72.3% | 384.4hPa | 2.6V | 07:58:30 | 02:22:34 | 00:00:00 | |
| DO3MHA-11 | 2026-09-04 01:57:08 | 49.92801 | 11.84721 | 133° | 113km/h | 7831m | -5.2m/s | -22.6°C | 75.5% | 384.1hPa | 2.5V | 07:57:00 | 02:22:33 | 00:00:00 | |
| DL6DJ-15 | 2026-09-04 01:57:07 | 49.92819 | 11.84690 | 132° | 108km/h | 7836m | -4.9m/s | -22.7°C | 69.6% | 383.8hPa | 2.5V | 00:00:00 | 00:00:00 | 00:00:00 | |
| DL1NUX | 2026-09-04 01:57:04 | 49.92970 | 11.84422 | 129° | 117km/h | 7877m | -4.8m/s | -23°C | 75.6% | 381.7hPa | 2.5V | 07:57:12 | 02:22:24 | 00:00:00 | |
| EDDB2-12 | 2026-09-04 01:57:02 | 49.92913 | 11.84526 | 130° | 115km/h | 7862m | -4.9m/s | -22.9°C | 69.4% | 382.4hPa | 2.5V | 00:00:00 | 00:00:00 | 00:00:00 | |
| DL0LBS | 2026-09-04 01:57:01 | 49.92913 | 11.84526 | 132° | 115km/h | 7862m | -4.9m/s | -22.9°C | 69.4% | 382.5hPa | 2.5V | 07:57:00 | 00:00:00 | 00:00:00 | |
| AM1SDL-15 | 2026-09-04 01:56:59 | 49.92970 | 11.84422 | 130° | 119km/h | 7877m | -4.7m/s | -23.0°C | 75.6% | 381.7hPa | 2.5V | 00:00:00 | 02:22:24 | 00:00:00 | |
| DO3MHA-11 | 2026-09-04 01:56:58 | 49.92989 | 11.84387 | 129° | 119km/h | 7882m | -4.7m/s | -23.0°C | 76.0% | 381.5hPa | 2.5V | 00:00:00 | 02:22:23 | 00:00:00 | |
| DB0NH | 2026-09-04 01:56:55 | 49.93042 | 11.84276 | 126° | 115km/h | 7896m | -4.8m/s | -23.1°C | 76.2% | 380.7hPa | 2.5V | 07:57:00 | 02:22:20 | 00:00:00 | |
| DL1NUX | 2026-09-04 01:56:54 | 49.93148 | 11.84049 | 125° | 117km/h | 7927m | -5m/s | -23.4°C | 76.6% | 379.1hPa | 2.5V | 07:57:22 | 02:22:14 | 00:00:00 | |
| SONDE2-11 | 2026-09-04 01:56:47 | 49.93181 | 11.83975 | 124° | 111km/h | 7936m | -5.1m/s | -23.5°C | 70.8% | 378.7hPa | 2.5V | 00:00:00 | 00:00:00 | 00:00:00 | |
| DL1NUX | 2026-09-04 01:56:44 | 49.93302 | 11.83686 | 123° | 106km/h | 7978m | -5.4m/s | -23.9°C | 78.6% | 376.4hPa | 2.5V | 07:57:32 | 02:22:04 | 00:00:00 | |
| BIOWL1-15 | 2026-09-04 01:56:39 | 49.93332 | 11.83617 | 126° | 106km/h | 7989m | -5.5m/s | -24°C | 76% | 375.9hPa | 2.6V | 07:58:30 | 02:22:02 | 00:00:00 | |
| DO9HM | 2026-09-04 01:56:39 | 49.93302 | 11.83686 | 125° | 106km/h | 7978m | -5.4m/s | -23.9°C | 72.5% | 376.4hPa | 2.5V | 07:57:00 | 00:00:00 | 00:00:00 | |
| DO3MHA-11 | 2026-09-04 01:56:38 | 49.93317 | 11.83651 | 125° | 113km/h | 7984m | -5.5m/s | -23.9°C | 78.6% | 376.1hPa | 2.5V | 00:00:00 | 02:22:03 | 00:00:00 | |
| SONCRA | 2026-09-04 01:56:37 | 49.93332 | 11.83617 | 126° | 104km/h | 7989m | -5.5m/s | -24.0°C | 72.6% | 375.9hPa | 2.5V | 00:00:00 | 00:00:00 | 00:00:00 | |
| DL6DJ-15 | 2026-09-04 01:56:36 | 49.93348 | 11.83584 | 128° | 106km/h | 7995m | -5.4m/s | -24.1°C | 72.9% | 375.7hPa | 2.5V | 00:00:00 | 00:00:00 | 00:00:00 | |
| NBG1-10 | 2026-09-04 01:56:35 | 49.93366 | 11.83551 | 130° | 117km/h | 8000m | -5.1m/s | -24.1°C | 79.3% | 375.3hPa | 2.5V | 00:00:00 | 02:22:00 | 00:00:00 | |
| DL1NUX | 2026-09-04 01:56:34 | 49.93479 | 11.83339 | 127° | 120km/h | 8031m | -5.1m/s | -24.4°C | 81.4% | 373.8hPa | 2.5V | 07:57:42 | 02:21:54 | 00:00:00 | |
| EDDB2-12 | 2026-09-04 01:56:31 | 49.93441 | 11.83413 | 129° | 119km/h | 8021m | -5.2m/s | -24.3°C | 74.4% | 374.4hPa | 2.5V | 00:00:00 | 00:00:00 | 00:00:00 | |
| OE5DXL-15 | 2026-09-04 01:56:30 | 49.93460 | 11.83377 | 129° | 117km/h | 8026m | -5.2m/s | -24.3°C | 81.0% | 374.0hPa | 2.5V | 00:00:00 | 00:00:00 | 00:00:00 | |
| DH8WE-5 | 2026-09-04 01:56:29 | 49.93460 | 11.83377 | 130° | 122km/h | 8026m | -5.2m/s | -24.4°C | 74.7% | 374.1hPa | 2.5V | 07:58:00 | 00:00:00 | 00:00:00 | |
| DO3MHA-11 | 2026-09-04 01:56:28 | 49.93498 | 11.83301 | 127° | 119km/h | 8036m | -5.1m/s | -24.4°C | 81.6% | 373.5hPa | 2.5V | 00:00:00 | 02:21:53 | 00:00:00 | |
| DB0NH | 2026-09-04 01:56:25 | 49.93550 | 11.83186 | 124° | 117km/h | 8051m | -4.9m/s | -24.5°C | 82.3% | 372.8hPa | 2.5V | 00:00:00 | 02:21:50 | 00:00:00 | |
| DL1NUX | 2026-09-04 01:56:24 | 49.93649 | 11.82951 | 123° | 113km/h | 8081m | -5.1m/s | -24.9°C | 84.1% | 371.2hPa | 2.5V | 07:57:52 | 02:21:44 | 00:00:00 | |
| SO1NDE-10 | 2026-09-04 01:56:23 | 49.93584 | 11.83107 | 123° | 117km/h | 8061m | -4.8m/s | -24.6°C | 82.8% | 372.2hPa | 2.5V | 00:00:00 | 02:21:48 | 00:00:00 | |
| DL0LBS | 2026-09-04 01:56:20 | 49.93616 | 11.83029 | 124° | 119km/h | 8071m | -5.2m/s | -24.8°C | 76.8% | 371.7hPa | 2.5V | 07:58:00 | 00:00:00 | 00:00:00 | |
| DO3MHA-11 | 2026-09-04 01:56:18 | 49.93664 | 11.82914 | 124° | 111km/h | 8086m | -4.2m/s | -24.9°C | 84.6% | 371.0hPa | 2.5V | 00:00:00 | 02:21:43 | 00:00:00 | |
| SONDE2-11 | 2026-09-04 01:56:16 | 49.93697 | 11.82845 | 127° | 106km/h | 8095m | -5.0m/s | -25.0°C | 78.0% | 370.5hPa | 2.6V | 00:00:00 | 00:00:00 | 00:00:00 | |
| DL1NUX | 2026-09-04 01:56:14 | 49.93824 | 11.82610 | 129° | 120km/h | 8129m | -4.7m/s | -25.3°C | 86.4% | 368.9hPa | 2.6V | 07:58:02 | 02:21:34 | 00:00:00 | |
| EDDB2-11 | 2026-09-04 01:56:11 | 49.93786 | 11.82680 | 130° | 113km/h | 8120m | -5.1m/s | -25.2°C | 79.0% | 369.3hPa | 2.5V | 00:00:00 | 00:00:00 | 00:00:00 | |
| DF2AP-13 | 2026-09-04 01:56:10 | 49.93805 | 11.82645 | 131° | 115km/h | 8125m | -4.8m/s | -25.2°C | 86.2% | 369.0hPa | 2.5V | 00:00:00 | 02:21:35 | 00:00:00 | |
| DM0DOS-11 | 2026-09-04 01:56:08 | 49.93863 | 11.82535 | 127° | 122km/h | 8139m | -5.2m/s | -25.4°C | 87.2% | 368.3hPa | 2.5V | 07:58:04 | 02:21:32 | 00:00:00 | |
| BIOWL1-15 | 2026-09-04 01:56:04 | 49.93985 | 11.82264 | 123° | 119km/h | 8173m | -4.8m/s | -25.7°C | 84.7% | 366.6hPa | 2.6V | 07:58:30 | 02:21:25 | 00:00:00 | |
| DL1NUX | 2026-09-04 01:56:04 | 49.94001 | 11.82226 | 123° | 117km/h | 8178m | -5.5m/s | -25.8°C | 89.6% | 366.3hPa | 2.6V | 07:58:12 | 02:21:24 | 00:00:00 | |
| NBG1-10 | 2026-09-04 01:56:02 | 49.93951 | 11.82342 | 124° | 117km/h | 8163m | -5.1m/s | -25.6°C | 89.0% | 367.0hPa | 2.5V | 00:00:00 | 02:21:27 | 00:00:00 | |
| EDDB2-12 | 2026-09-04 01:56:00 | 49.93985 | 11.82264 | 123° | 117km/h | 8173m | -4.8m/s | -25.7°C | 82.2% | 366.6hPa | 2.5V | 00:00:00 | 00:00:00 | 00:00:00 | |
| DM0DOS-11 | 2026-09-04 01:55:58 | 49.94033 | 11.82149 | 123° | 117km/h | 8188m | -5m/s | -25.9°C | 90.2% | 365.8hPa | 2.5V | 07:58:14 | 02:21:22 | 00:00:00 | |
| DO3MHA-11 | 2026-09-04 01:55:58 | 49.94017 | 11.82187 | 124° | 117km/h | 8184m | -5.3m/s | -25.8°C | 89.8% | 366.0hPa | 2.5V | 00:00:00 | 02:21:23 | 00:00:00 | |
| DO9HM | 2026-09-04 01:55:57 | 49.94017 | 11.82187 | 124° | 117km/h | 8184m | -5.4m/s | -25.8°C | 82.7% | 366.1hPa | 2.5V | 07:58:00 | 00:00:00 | 00:00:00 | |
| DB0NH | 2026-09-04 01:55:55 | 49.94066 | 11.82072 | 123° | 117km/h | 8199m | -5.0m/s | -25.9°C | 90.8% | 365.3hPa | 2.5V | 00:00:00 | 02:21:20 | 00:00:00 | |
| DL1NUX | 2026-09-04 01:55:54 | 49.94162 | 11.81841 | 122° | 113km/h | 8230m | -5.2m/s | -26.3°C | 92.7% | 363.8hPa | 2.6V | 07:58:22 | 02:21:14 | 00:00:00 | |
| DF7PN | 2026-09-04 01:55:52 | 49.94114 | 11.81956 | 122° | 117km/h | 8214m | -5.4m/s | -26.1°C | 84.4% | 364.5hPa | 2.6V | 00:00:00 | 00:00:00 | 00:00:00 | |
| DM0DOS-11 | 2026-09-04 01:55:48 | 49.94193 | 11.81768 | 123° | 110km/h | 8240m | -4.8m/s | -26.4°C | 93.2% | 363.2hPa | 2.6V | 07:58:24 | 02:21:12 | 00:00:00 | |
| BIOWL9-15 | 2026-09-04 01:55:46 | 49.94223 | 11.81697 | 124° | 108km/h | 8250m | -5.4m/s | -26.5°C | 85.9% | 362.7hPa | 2.5V | 00:00:00 | 00:00:00 | 00:00:00 | |
| SONDE2-11 | 2026-09-04 01:55:45 | 49.94223 | 11.81697 | 124° | 108km/h | 8250m | -5.4m/s | -26.5°C | 85.9% | 362.7hPa | 2.5V | 00:00:00 | 00:00:00 | 00:00:00 | |
| DL1NUX | 2026-09-04 01:55:44 | 49.94320 | 11.81489 | 126° | 115km/h | 8282m | -5.1m/s | -26.8°C | 96% | 361hPa | 2.5V | 07:58:32 | 02:21:04 | 00:00:00 | |
| DF2AP-13 | 2026-09-04 01:55:40 | 49.94303 | 11.81524 | 128° | 119km/h | 8277m | -5.0m/s | -26.7°C | 95.8% | 361.3hPa | 2.5V | 00:00:00 | 02:21:05 | 00:00:00 | |
| DL0LBS | 2026-09-04 01:55:39 | 49.94303 | 11.81524 | 128° | 111km/h | 8277m | -5.0m/s | -26.7°C | 88.1% | 361.3hPa | 2.5V | 00:00:00 | 00:00:00 | 00:00:00 | |
| DM0DOS-11 | 2026-09-04 01:55:38 | 49.94355 | 11.81414 | 125° | 119km/h | 8292m | -5.3m/s | -26.8°C | 96.4% | 360.5hPa | 2.5V | 07:58:34 | 02:21:02 | 00:00:00 | |
| BIOWL1-15 | 2026-09-04 01:55:36 | 49.94372 | 11.81375 | 124° | 122km/h | 8298m | -4.9m/s | -26.9°C | 89.3% | 360.3hPa | 2.6V | 07:59:21 | 02:21:01 | 00:00:00 | |
| SONCRA | 2026-09-04 01:55:35 | 49.94389 | 11.81336 | 123° | 120km/h | 8303m | -6.0m/s | -27.0°C | 88.7% | 360.1hPa | 2.6V | 00:00:00 | 00:00:00 | 00:00:00 | |
| DL1NUX | 2026-09-04 01:55:34 | 49.94501 | 11.81104 | 129° | 124km/h | 8335m | -5.6m/s | -27.2°C | 97.2% | 358.4hPa | 2.6V | 07:58:42 | 02:20:54 | 00:00:00 | |
| DL6DJ-15 | 2026-09-04 01:55:34 | 49.94424 | 11.81256 | 124° | 120km/h | 8314m | -5.7m/s | -27.1°C | 89.6% | 359.4hPa | 2.5V | 00:00:00 | 00:00:00 | 00:00:00 | |
| DM0DOS-11 | 2026-09-04 01:55:32 | 49.94540 | 11.81028 | 127° | 124km/h | 8346m | -5.2m/s | -27.3°C | 96% | 357.9hPa | 2.5V | 07:58:44 | 02:20:52 | 00:00:00 | |
| BIOWL1-15 | 2026-09-04 01:55:26 | 49.94559 | 11.80988 | 126° | 126km/h | 8351m | -5.3m/s | -27.3°C | 86.6% | 357.6hPa | 2.5V | 07:59:21 | 02:20:51 | 00:00:00 | |
| DB0NH | 2026-09-04 01:55:25 | 49.94576 | 11.80948 | 124° | 115km/h | 8356m | -4.8m/s | -27.2°C | 93.6% | 357.4hPa | 2.5V | 00:00:00 | 02:20:50 | 00:00:00 | |
| DL1NUX | 2026-09-04 01:55:24 | 49.94667 | 11.80717 | 122° | 108km/h | 8387m | -5.1m/s | -27.1°C | 83.2% | 355.8hPa | 2.5V | 07:58:52 | 02:20:44 | 00:00:00 | |
| BIOWL1-15 | 2026-09-04 01:55:15 | 49.94732 | 11.80581 | 129° | 113km/h | 8408m | -4.9m/s | -26.9°C | 71.2% | 354.8hPa | 2.5V | 07:59:21 | 02:20:40 | 00:00:00 | |
| DL1NUX | 2026-09-04 01:55:14 | 49.94840 | 11.80352 | 124° | 122km/h | 8439m | -5.8m/s | -27.1°C | 70.8% | 353.3hPa | 2.5V | 07:59:02 | 02:20:34 | 00:00:00 | |
| BIOWL1-15 | 2026-09-04 01:55:04 | 49.94972 | 11.80031 | 120° | 113km/h | 8482m | -5.7m/s | -27.2°C | 63.5% | 351.2hPa | 2.5V | 07:59:21 | 02:20:26 | 00:00:00 | |
| DL1NUX | 2026-09-04 01:55:04 | 49.95001 | 11.79956 | 121° | 108km/h | 8492m | -5.3m/s | -27.3°C | 64.6% | 350.6hPa | 2.6V | 07:59:12 | 02:20:24 | 00:00:00 | |
| DL6DJ-15 | 2026-09-04 01:55:03 | 49.94958 | 11.80070 | 120° | 115km/h | 8477m | -5.1m/s | -27.1°C | 58.5% | 351.4hPa | 2.5V | 00:00:00 | 00:00:00 | 00:00:00 | |
| OE5DRO-10 | 2026-09-04 01:54:59 | 49.95001 | 11.79956 | 122° | 113km/h | 8492m | -5.3m/s | -27.2°C | 64.6% | 350.6hPa | 2.5V | 07:59:00 | 00:00:00 | 00:00:00 | |
| DM0DOS-11 | 2026-09-04 01:54:58 | 49.95046 | 11.79852 | 125° | 110km/h | 8509m | -5.7m/s | -27.4°C | 64.5% | 349.9hPa | 2.5V | 07:59:15 | 02:20:21 | 00:00:00 | |
| OE5DXL-15 | 2026-09-04 01:54:58 | 49.95015 | 11.79921 | 124° | 110km/h | 8498m | -5.8m/s | -27.3°C | 64.5% | 350.3hPa | 2.5V | 00:00:00 | 00:00:00 | 00:00:00 | |
| DO9HM | 2026-09-04 01:54:56 | 49.95063 | 11.79816 | 127° | 113km/h | 8515m | -5.8m/s | -27.5°C | 58.7% | 349.5hPa | 2.5V | 00:00:00 | 00:00:00 | 00:00:00 | |
| DL1NUX | 2026-09-04 01:54:55 | 49.95159 | 11.79581 | 119° | 115km/h | 8548m | -5.7m/s | -27.8°C | 64.8% | 348hPa | 2.5V | 07:59:22 | 02:20:14 | 00:00:00 | |
| BIOWL1-15 | 2026-09-04 01:54:53 | 49.95129 | 11.79661 | 121° | 120km/h | 8537m | -5.5m/s | -27.7°C | 63.7% | 348.5hPa | 2.6V | 07:59:21 | 02:20:16 | 00:00:00 | |
| DF7PN | 2026-09-04 01:54:50 | 49.95144 | 11.79621 | 119° | 117km/h | 8542m | -5.8m/s | -27.7°C | 58.7% | 348.2hPa | 2.6V | 00:00:00 | 00:00:00 | 00:00:00 | |
| BIOWL9-15 | 2026-09-04 01:54:44 | 49.95229 | 11.79391 | 120° | 110km/h | 8576m | -5.5m/s | -28.0°C | 58.0% | 346.5hPa | 2.6V | 00:00:00 | 00:00:00 | 00:00:00 | |
| BIOWL1-15 | 2026-09-04 01:54:40 | 49.95316 | 11.79167 | 122° | 111km/h | 8610m | -5.6m/s | -28.3°C | 62.9% | 345hPa | 2.6V | 08:00:12 | 02:20:03 | 00:00:00 | |
| DL1NUX | 2026-09-04 01:54:40 | 49.95301 | 11.79204 | 120° | 111km/h | 8605m | -5.8m/s | -28.2°C | 63.3% | 345.2hPa | 2.5V | 07:59:32 | 02:20:04 | 00:00:00 | |
| DF2AP-13 | 2026-09-04 01:54:40 | 49.95287 | 11.79242 | 121° | 113km/h | 8599m | -5.9m/s | -28.1°C | 62.9% | 345.5hPa | 2.6V | 00:00:00 | 02:20:05 | 00:00:00 | |
| DO3MHA-11 | 2026-09-04 01:54:38 | 49.95316 | 11.79167 | 122° | 115km/h | 8610m | -5.5m/s | -28.2°C | 63.8% | 344.9hPa | 2.6V | 00:00:00 | 02:20:03 | 00:00:00 | |
| DM7RM-13 | 2026-09-04 01:54:36 | 49.95331 | 11.79130 | 124° | 111km/h | 8616m | -5.6m/s | -28.3°C | 58.2% | 344.7hPa | 2.6V | 08:00:00 | 00:00:00 | 00:00:00 | |
| DL1NUX | 2026-09-04 01:54:34 | 49.95457 | 11.78826 | 120° | 119km/h | 8661m | -5.9m/s | -28.8°C | 66.6% | 342.5hPa | 2.6V | 07:59:42 | 02:19:54 | 00:00:00 | |
| BIOWL1-15 | 2026-09-04 01:54:30 | 49.95473 | 11.78786 | 119° | 120km/h | 8666m | -5.6m/s | -28.8°C | 66.1% | 342.2hPa | 2.5V | 08:00:12 | 02:19:53 | 00:00:00 | |
| DO3MHA-11 | 2026-09-04 01:54:28 | 49.95473 | 11.78786 | 119° | 110km/h | 8666m | -5.5m/s | -28.8°C | 67.2% | 342.1hPa | 2.5V | 07:59:00 | 02:19:53 | 00:00:00 | |
| EDDB2-12 | 2026-09-04 01:54:27 | 49.95487 | 11.78745 | 117° | 117km/h | 8672m | -6.0m/s | -28.9°C | 61.4% | 341.9hPa | 2.5V | 00:00:00 | 00:00:00 | 00:00:00 | |
| DB0UT-7 | 2026-09-04 01:54:26 | 49.95500 | 11.78705 | 118° | 111km/h | 8678m | -5.3m/s | -28.9°C | 68.2% | 341.6hPa | 2.5V | 00:00:00 | 00:00:00 | 00:00:00 | |
| DB0NH | 2026-09-04 01:54:25 | 49.95513 | 11.78666 | 117° | 111km/h | 8683m | -5.2m/s | -28.9°C | 68.2% | 341.4hPa | 2.6V | 00:00:00 | 02:19:50 | 00:00:00 | |
| NBG1-10 | 2026-09-04 01:54:23 | 49.95538 | 11.78593 | 121° | 111km/h | 8694m | -5.0m/s | -29.0°C | 68.6% | 340.8hPa | 2.6V | 00:00:00 | 02:19:48 | 00:00:00 | |
| DL1NUX | 2026-09-04 01:54:22 | 49.95596 | 11.78453 | 124° | 111km/h | 8715m | -5m/s | -29.3°C | 69.5% | 339.8hPa | 2.6V | 07:59:52 | 02:19:44 | 00:00:00 | |
| BIOWL1-15 | 2026-09-04 01:54:17 | 49.95645 | 11.78339 | 121° | 120km/h | 8733m | -5.4m/s | -29.4°C | 68.5% | 339hPa | 2.5V | 08:00:12 | 02:19:41 | 00:00:00 | |
| DB0ND-19 | 2026-09-04 01:54:16 | 49.95661 | 11.78298 | 119° | 120km/h | 8738m | -5.7m/s | -29.5°C | -1.0% | 338.8hPa | 2.5V | 00:00:00 | 00:00:00 | 00:00:00 | |
| DM7RM-13 | 2026-09-04 01:54:14 | 49.95660 | 11.78298 | 120° | 120km/h | 8738m | -5.7m/s | -29.5°C | 63.8% | 338.8hPa | 2.5V | 08:00:00 | 00:00:00 | 00:00:00 | |
| BIOWL9-15 | 2026-09-04 01:54:13 | 49.95689 | 11.78215 | 117° | 117km/h | 8749m | -6.1m/s | -29.6°C | 64.0% | 338.3hPa | 2.5V | 00:00:00 | 00:00:00 | 00:00:00 | |
| SONDE2-11 | 2026-09-04 01:54:12 | 49.95716 | 11.78134 | 116° | 111km/h | 8760m | -5.5m/s | -29.6°C | 64.4% | 337.8hPa | 2.5V | 00:00:00 | 00:00:00 | 00:00:00 | |
| DL1NUX | 2026-09-04 01:54:10 | 49.95740 | 11.78057 | 116° | 108km/h | 8771m | -6m/s | -29.7°C | 71.1% | 337.3hPa | 2.5V | 08:00:02 | 02:19:34 | 00:00:00 | |
| BIOWL1-15 | 2026-09-04 01:54:05 | 49.95789 | 11.77909 | 120° | 106km/h | 8794m | -6m/s | -29.9°C | 70.2% | 336.2hPa | 2.6V | 08:00:12 | 02:19:30 | 00:00:00 | |
| DL1NUX | 2026-09-04 01:54:03 | 49.95881 | 11.77698 | 124° | 113km/h | 8827m | -5.3m/s | -30.2°C | 72.7% | 334.6hPa | 2.5V | 08:00:12 | 02:19:24 | 00:00:00 | |
| SONCRA | 2026-09-04 01:54:02 | 49.95832 | 11.77805 | 125° | 106km/h | 8811m | -5.8m/s | -30.1°C | 65.2% | 335.4hPa | 2.6V | 00:00:00 | 00:00:00 | 00:00:00 | |
| DL6DJ-15 | 2026-09-04 01:54:00 | 49.95864 | 11.77734 | 125° | 110km/h | 8822m | -6.0m/s | -30.2°C | 65.6% | 334.9hPa | 2.6V | 00:00:00 | 00:00:00 | 00:00:00 | |
| DO3MHA-11 | 2026-09-04 01:53:58 | 49.95897 | 11.77662 | 124° | 115km/h | 8833m | -5.4m/s | -30.2°C | 72.7% | 334.3hPa | 2.6V | 00:00:00 | 02:19:23 | 00:00:00 | |
| DM0DOS-11 | 2026-09-04 01:53:56 | 49.96002 | 11.77389 | 121° | 115km/h | 8871m | -5.7m/s | -30.6°C | 73.7% | 332.5hPa | 2.6V | 08:00:20 | 02:19:16 | 00:00:00 | |
| BIOWL1-15 | 2026-09-04 01:53:55 | 49.95944 | 11.77545 | 120° | 117km/h | 8849m | -5.6m/s | -30.4°C | 70.9% | 333.7hPa | 2.6V | 08:01:03 | 02:19:20 | 00:00:00 | |
| DB0NH | 2026-09-04 01:53:55 | 49.95944 | 11.77545 | 121° | 113km/h | 8849m | -5.6m/s | -30.4°C | 73.0% | 333.6hPa | 2.5V | 00:00:00 | 02:19:20 | 00:00:00 | |
| SO1NDE-10 | 2026-09-04 01:53:53 | 49.95973 | 11.77466 | 120° | 113km/h | 8860m | -5.6m/s | -30.5°C | 73.2% | 333.1hPa | 2.5V | 00:00:00 | 02:19:18 | 00:00:00 | |
| DL1NUX | 2026-09-04 01:53:52 | 49.96032 | 11.77311 | 120° | 117km/h | 8883m | -6.3m/s | -30.7°C | 73.6% | 332hPa | 2.5V | 08:00:22 | 02:19:14 | 00:00:00 | |
| BIOWL1-15 | 2026-09-04 01:53:45 | 49.96091 | 11.77159 | 123° | 111km/h | 8906m | -5.7m/s | -30.9°C | 71.6% | 331hPa | 2.6V | 08:01:03 | 02:19:10 | 00:00:00 | |
| AM1SDL-15 | 2026-09-04 01:53:42 | 49.96138 | 11.77046 | 122° | 111km/h | 8923m | -5.7m/s | -31.0°C | 74.5% | 330.2hPa | 2.5V | 00:00:00 | 02:19:07 | 00:00:00 | |
| DL1NUX | 2026-09-04 01:53:40 | 49.96181 | 11.76933 | 121° | 110km/h | 8939m | -5.8m/s | -31.2°C | 75.3% | 329.4hPa | 2.5V | 08:00:32 | 02:19:04 | 00:00:00 | |
| BIOWL1-15 | 2026-09-04 01:53:34 | 49.96257 | 11.76752 | 124° | 110km/h | 8968m | -5.7m/s | -31.5°C | 73.3% | 328.1hPa | 2.5V | 08:01:03 | 02:18:59 | 00:00:00 | |
| BIOWL1-15 | 2026-09-04 01:53:23 | 49.96444 | 11.76317 | 128° | 104km/h | 9035m | -6.1m/s | -32°C | 69.1% | 325hPa | 2.5V | 08:01:03 | 02:18:47 | 00:00:00 | |
| SO1NDE-10 | 2026-09-04 01:53:23 | 49.96428 | 11.76349 | 127° | 110km/h | 9030m | -5.6m/s | -31.9°C | 71.1% | 325.2hPa | 2.5V | 00:00:00 | 02:18:48 | 00:00:00 | |
| DL1NUX | 2026-09-04 01:53:22 | 49.96492 | 11.76220 | 127° | 108km/h | 9053m | -5.4m/s | -32.1°C | 69.9% | 324.2hPa | 2.5V | 08:00:52 | 02:18:44 | 00:00:00 | |
| BIOWL1-15 | 2026-09-04 01:53:13 | 49.96591 | 11.76002 | 122° | 113km/h | 9087m | -5.3m/s | -32.4°C | 66.6% | 322.7hPa | 2.5V | 08:01:03 | 02:18:38 | 00:00:00 | |
| DB0UT-7 | 2026-09-04 01:53:13 | 49.96590 | 11.76002 | 123° | 110km/h | 9087m | -5.2m/s | -32.4°C | 68.3% | 322.6hPa | 2.5V | 00:00:00 | 02:18:38 | 00:00:00 | |
| DM7RM-13 | 2026-09-04 01:53:12 | 49.96591 | 11.76002 | 123° | 113km/h | 9087m | -5.3m/s | -32.4°C | 61.3% | 322.7hPa | 2.5V | 08:01:00 | 00:00:00 | 00:00:00 | |
| BIOWL9-15 | 2026-09-04 01:53:11 | 49.96621 | 11.75929 | 124° | 110km/h | 9098m | -5.5m/s | -32.5°C | 61.6% | 322.1hPa | 2.5V | 00:00:00 | 00:00:00 | 00:00:00 | |
| DL1NUX | 2026-09-04 01:53:10 | 49.96653 | 11.75857 | 125° | 113km/h | 9110m | -6.1m/s | -32.6°C | 69.1% | 321.6hPa | 2.5V | 08:01:02 | 02:18:34 | 00:00:00 | |
| SONDE2-11 | 2026-09-04 01:53:10 | 49.96653 | 11.75857 | 125° | 113km/h | 9110m | -6.1m/s | -32.6°C | 62.0% | 321.6hPa | 2.5V | 00:00:00 | 00:00:00 | 00:00:00 | |
| DO3MHA-11 | 2026-09-04 01:53:08 | 49.96670 | 11.75821 | 125° | 110km/h | 9116m | -6.2m/s | -32.6°C | 69.4% | 321.3hPa | 2.5V | 00:00:00 | 02:18:33 | 00:00:00 | |
| DJTTGO | 2026-09-04 01:53:07 | 49.96670 | 11.75821 | 125° | 113km/h | 9116m | -6.3m/s | -32.7°C | 62.3% | 321.3hPa | 2.5V | 08:01:00 | 00:00:00 | 00:00:00 | |
| EDDB2-11 | 2026-09-04 01:53:05 | 49.96718 | 11.75712 | 125° | 110km/h | 9134m | -6.3m/s | -32.9°C | 63.1% | 320.5hPa | 2.5V | 00:00:00 | 00:00:00 | 00:00:00 | |
| DL1NUX | 2026-09-04 01:53:04 | 49.96813 | 11.75502 | 124° | 108km/h | 9170m | -6m/s | -33.2°C | 72.3% | 318.8hPa | 2.5V | 08:01:12 | 02:18:24 | 00:00:00 | |
| BIOWL1-15 | 2026-09-04 01:53:04 | 49.96765 | 11.75607 | 125° | 108km/h | 9152m | -5.7m/s | -33°C | 69.4% | 319.7hPa | 2.5V | 08:01:54 | 02:18:27 | 00:00:00 | |
| SONCRA | 2026-09-04 01:53:00 | 49.96797 | 11.75537 | 124° | 108km/h | 9164m | -5.5m/s | -33.2°C | 64.6% | 319.1hPa | 2.6V | 00:00:00 | 00:00:00 | 00:00:00 | |
| DL6DJ-15 | 2026-09-04 01:52:58 | 49.96828 | 11.75467 | 124° | 108km/h | 9176m | -5.9m/s | -33.3°C | 65.1% | 318.6hPa | 2.6V | 00:00:00 | 00:00:00 | 00:00:00 | |
| EDDB2-12 | 2026-09-04 01:52:54 | 49.96907 | 11.75286 | 122° | 108km/h | 9205m | -5.9m/s | -33.6°C | 66.1% | 317.2hPa | 2.6V | 00:00:00 | 00:00:00 | 00:00:00 | |
| SO1NDE-10 | 2026-09-04 01:52:53 | 49.96907 | 11.75286 | 123° | 110km/h | 9205m | -5.9m/s | -33.5°C | 73.8% | 317.1hPa | 2.6V | 00:00:00 | 02:18:18 | 00:00:00 | |
| DL1NUX | 2026-09-04 01:52:52 | 49.96968 | 11.75148 | 125° | 108km/h | 9228m | -6.2m/s | -33.8°C | 74.2% | 316.2hPa | 2.6V | 08:01:22 | 02:18:14 | 00:00:00 | |
| BIOWL1-15 | 2026-09-04 01:52:52 | 49.96937 | 11.75216 | 125° | 106km/h | 9217m | -6.1m/s | -33.7°C | 71.3% | 316.6hPa | 2.5V | 08:01:54 | 02:18:16 | 00:00:00 | |
| DF7PN | 2026-09-04 01:52:46 | 49.97016 | 11.75046 | 126° | 108km/h | 9247m | -6.2m/s | -34.0°C | 66.7% | 315.3hPa | 2.5V | 00:00:00 | 00:00:00 | 00:00:00 | |
| BIOWL1-15 | 2026-09-04 01:52:41 | 49.97095 | 11.74867 | 123° | 108km/h | 9277m | -6.7m/s | -34.3°C | 73.1% | 313.9hPa | 2.5V | 08:01:54 | 02:18:06 | 00:00:00 | |
| DL1NUX | 2026-09-04 01:52:40 | 49.97124 | 11.74797 | 123° | 106km/h | 9290m | -6.5m/s | -34.4°C | 76.1% | 313.4hPa | 2.5V | 08:01:32 | 02:18:04 | 00:00:00 | |
| DF2AP-13 | 2026-09-04 01:52:40 | 49.97109 | 11.74832 | 124° | 110km/h | 9284m | -6.2m/s | -34.3°C | 75.7% | 313.6hPa | 2.5V | 00:00:00 | 02:18:05 | 00:00:00 | |
| SONDE2-11 | 2026-09-04 01:52:39 | 49.97139 | 11.74762 | 122° | 104km/h | 9296m | -6.2m/s | -34.4°C | 68.2% | 313.1hPa | 2.5V | 00:00:00 | 00:00:00 | 00:00:00 | |
| DO3MHA-11 | 2026-09-04 01:52:38 | 49.97139 | 11.74762 | 123° | 111km/h | 9296m | -6.2m/s | -34.4°C | 76.3% | 313.0hPa | 2.5V | 00:00:00 | 02:18:03 | 00:00:00 | |
| DO9HM | 2026-09-04 01:52:35 | 49.97168 | 11.74695 | 127° | 102km/h | 9309m | -6.0m/s | -34.6°C | 68.6% | 312.5hPa | 2.5V | 08:01:00 | 00:00:00 | 00:00:00 | |
| OE5DXL-15 | 2026-09-04 01:52:34 | 49.97202 | 11.74629 | 130° | 110km/h | 9321m | -6.6m/s | -34.6°C | 76.7% | 312.0hPa | 2.5V | 00:00:00 | 00:00:00 | 00:00:00 | |
| DL1NUX | 2026-09-04 01:52:30 | 49.97292 | 11.74447 | 124° | 119km/h | 9352m | -6.2m/s | -35°C | 77.5% | 310.6hPa | 2.5V | 08:01:42 | 02:17:54 | 00:00:00 | |
| DF8AY | 2026-09-04 01:52:22 | 49.97396 | 11.74188 | 123° | 100km/h | 9394m | -6.2m/s | -35.3°C | 75.1% | 308.7hPa | 2.5V | 08:02:45 | 02:17:47 | 00:00:00 | |
| DL1NUX | 2026-09-04 01:52:22 | 49.97440 | 11.74091 | 127° | 100km/h | 9412m | -5.7m/s | -35.5°C | 78.5% | 307.9hPa | 2.6V | 08:01:52 | 02:17:44 | 00:00:00 | |
| BIOWL1-15 | 2026-09-04 01:52:17 | 49.97472 | 11.74027 | 129° | 106km/h | 9424m | -6.4m/s | -35.6°C | 74.1% | 307.5hPa | 2.5V | 08:01:54 | 02:17:42 | 00:00:00 | |
| AM1SDL-15 | 2026-09-04 01:52:16 | 49.97489 | 11.73995 | 129° | 110km/h | 9430m | -5.5m/s | -35.6°C | 78.2% | 307.1hPa | 2.6V | 00:00:00 | 02:17:41 | 00:00:00 | |
| DF7PN | 2026-09-04 01:52:15 | 49.97523 | 11.73926 | 126° | 111km/h | 9441m | -6.1m/s | -35.7°C | 68.6% | 306.7hPa | 2.6V | 00:00:00 | 00:00:00 | 00:00:00 | |
| DL0LBS | 2026-09-04 01:52:13 | 49.97523 | 11.73926 | 127° | 111km/h | 9441m | -6.1m/s | -35.7°C | 68.6% | 306.7hPa | 2.6V | 08:02:00 | 00:00:00 | 00:00:00 | |
| DB0ND-19 | 2026-09-04 01:52:12 | 49.97571 | 11.73819 | 124° | 108km/h | 9460m | -6.7m/s | 0°C | -1.0% | 305.9hPa | 2.6V | 00:00:00 | 00:00:00 | 00:00:00 | |
| NBG1-10 | 2026-09-04 01:52:11 | 49.97571 | 11.73819 | 125° | 111km/h | 9460m | -6.6m/s | -35.7°C | 75.8% | 305.8hPa | 2.6V | 00:00:00 | 02:17:36 | 00:00:00 | |
| DL1NUX | 2026-09-04 01:52:09 | 49.97603 | 11.73750 | 126° | 110km/h | 9472m | -5.7m/s | -35.9°C | 75.2% | 305.3hPa | 2.5V | 08:02:02 | 02:17:34 | 00:00:00 | |
| BIOWL1-15 | 2026-09-04 01:52:08 | 49.97654 | 11.73645 | 126° | 111km/h | 9490m | -6.2m/s | -36°C | 70% | 304.5hPa | 2.5V | 08:03:36 | 02:17:31 | 00:00:00 | |
| DO3MHA-11 | 2026-09-04 01:52:08 | 49.97620 | 11.73716 | 128° | 111km/h | 9478m | -6.1m/s | -35.9°C | 74.9% | 305.1hPa | 2.5V | 00:00:00 | 02:17:33 | 00:00:00 | |
| SONDE2-11 | 2026-09-04 01:52:07 | 49.97637 | 11.73681 | 126° | 111km/h | 9484m | -5.9m/s | -36.0°C | 66.0% | 304.8hPa | 2.5V | 00:00:00 | 00:00:00 | 00:00:00 | |
| DL1NUX | 2026-09-04 01:52:04 | 49.97772 | 11.73403 | 127° | 110km/h | 9534m | -6.2m/s | -36.3°C | 67.6% | 302.7hPa | 2.5V | 08:02:12 | 02:17:24 | 00:00:00 | |
| EDDB2-11 | 2026-09-04 01:52:03 | 49.97704 | 11.73542 | 127° | 110km/h | 9509m | -6.4m/s | -36.2°C | 63.5% | 303.7hPa | 2.6V | 00:00:00 | 00:00:00 | 00:00:00 | |
| OE5DXL-15 | 2026-09-04 01:52:02 | 49.97721 | 11.73507 | 128° | 111km/h | 9515m | -6.0m/s | -36.1°C | 70.5% | 303.3hPa | 2.6V | 00:00:00 | 00:00:00 | 00:00:00 | |
| DM0DOS-11 | 2026-09-04 01:52:00 | 49.97857 | 11.73231 | 127° | 110km/h | 9565m | -6m/s | -36.4°C | 60.7% | 301.3hPa | 2.6V | 08:02:17 | 02:17:19 | 00:00:00 | |
| DF8AY | 2026-09-04 01:51:59 | 49.97772 | 11.73403 | 128° | 110km/h | 9534m | -6.2m/s | -36.3°C | 64.8% | 302.7hPa | 2.5V | 08:02:45 | 02:17:24 | 00:00:00 | |
| BIOWL1-15 | 2026-09-04 01:51:56 | 49.97823 | 11.73300 | 127° | 110km/h | 9552m | -6.1m/s | -36.4°C | 61% | 301.8hPa | 2.5V | 08:03:36 | 02:17:21 | 00:00:00 | |
| DL1NUX | 2026-09-04 01:51:55 | 49.97943 | 11.73059 | 128° | 111km/h | 9597m | -6.2m/s | -36.5°C | 53.5% | 299.9hPa | 2.5V | 08:02:22 | 02:17:14 | 00:00:00 | |
| EDDB2-12 | 2026-09-04 01:51:52 | 49.97909 | 11.73128 | 127° | 111km/h | 9584m | -6.2m/s | -36.4°C | 48.4% | 300.5hPa | 2.5V | 00:00:00 | 00:00:00 | 00:00:00 | |
| DM0DOS-11 | 2026-09-04 01:51:49 | 49.98013 | 11.72920 | 127° | 111km/h | 9622m | -6.3m/s | -36.7°C | 53.6% | 298.8hPa | 2.5V | 08:02:26 | 02:17:10 | 00:00:00 | |
| BIOWL1-15 | 2026-09-04 01:51:45 | 49.98083 | 11.72783 | 129° | 111km/h | 9646m | -6.3m/s | -36.9°C | 52.5% | 297.8hPa | 2.5V | 08:03:36 | 02:17:06 | 00:00:00 | |
| DF8AY | 2026-09-04 01:51:44 | 49.98030 | 11.72885 | 128° | 110km/h | 9628m | -5.9m/s | -36.7°C | 52.8% | 298.6hPa | 2.5V | 08:02:45 | 02:17:09 | 00:00:00 | |
| DF7PN | 2026-09-04 01:51:44 | 49.98065 | 11.72817 | 129° | 111km/h | 9640m | -5.7m/s | -36.8°C | 46.8% | 298.0hPa | 2.5V | 00:00:00 | 00:00:00 | 00:00:00 | |
| DJ8HS-15 | 2026-09-04 01:51:40 | 49.98100 | 11.72749 | 129° | 111km/h | 9652m | -6.2m/s | -36.9°C | 52.8% | 297.4hPa | 2.5V | 00:00:00 | 02:17:05 | 00:00:00 | |
| DM0DOS-11 | 2026-09-04 01:51:39 | 49.98191 | 11.72585 | 131° | 113km/h | 9683m | -5.9m/s | -37.1°C | 52.1% | 296.1hPa | 2.5V | 08:02:36 | 02:17:00 | 00:00:00 | |
| DL1NUX | 2026-09-04 01:51:39 | 49.98118 | 11.72716 | 129° | 108km/h | 9658m | -6.6m/s | -37°C | 52.7% | 297.2hPa | 2.5V | 08:02:32 | 02:17:04 | 00:00:00 | |
| DF8AY | 2026-09-04 01:51:34 | 49.98210 | 11.72552 | 130° | 113km/h | 9689m | -6.1m/s | -37.2°C | 52% | 295.9hPa | 2.5V | 08:02:45 | 02:16:59 | 00:00:00 | |
| DL1NUX | 2026-09-04 01:51:34 | 49.98301 | 11.72382 | 129° | 111km/h | 9720m | -6.3m/s | -37.5°C | 53.7% | 294.6hPa | 2.5V | 08:02:42 | 02:16:54 | 00:00:00 | |
| DB0UT-7 | 2026-09-04 01:51:31 | 49.98264 | 11.72449 | 130° | 113km/h | 9708m | -6.0m/s | -37.3°C | 53.1% | 295.0hPa | 2.5V | 00:00:00 | 02:16:56 | 00:00:00 | |
| OE5DRO-10 | 2026-09-04 01:51:30 | 49.98282 | 11.72416 | 131° | 111km/h | 9714m | -6.5m/s | -37.4°C | 53.4% | 294.8hPa | 2.6V | 00:00:00 | 00:00:00 | 00:00:00 | |
| DM0DOS-11 | 2026-09-04 01:51:29 | 49.98371 | 11.72252 | 131° | 108km/h | 9744m | -6.2m/s | -37.7°C | 55.8% | 293.5hPa | 2.6V | 08:02:46 | 02:16:50 | 00:00:00 | |
| DO3MHA-11 | 2026-09-04 01:51:28 | 49.98318 | 11.72349 | 130° | 111km/h | 9726m | -6.1m/s | -37.5°C | 54.1% | 294.3hPa | 2.6V | 00:00:00 | 02:16:53 | 00:00:00 | |
| SONCRA | 2026-09-04 01:51:27 | 49.98353 | 11.72283 | 130° | 106km/h | 9738m | -6.4m/s | -37.6°C | 48.2% | 293.8hPa | 2.6V | 00:00:00 | 00:00:00 | 00:00:00 | |
| DB0NH | 2026-09-04 01:51:25 | 49.98371 | 11.72252 | 132° | 113km/h | 9744m | -6.1m/s | -37.6°C | 55.8% | 293.5hPa | 2.6V | 00:00:00 | 02:16:50 | 00:00:00 | |
| DL1NUX | 2026-09-04 01:51:24 | 49.98484 | 11.72052 | 130° | 113km/h | 9780m | -6.6m/s | -38°C | 57.2% | 292hPa | 2.5V | 08:02:52 | 02:16:44 | 00:00:00 | |
| DF8AY | 2026-09-04 01:51:24 | 49.98390 | 11.72220 | 133° | 111km/h | 9750m | -5.8m/s | -37.7°C | 54.9% | 293.2hPa | 2.6V | 08:03:36 | 02:16:49 | 00:00:00 | |
| DO9HM | 2026-09-04 01:51:24 | 49.98408 | 11.72187 | 133° | 113km/h | 9757m | -6.3m/s | -37.8°C | 50.0% | 293.0hPa | 2.5V | 00:00:00 | 00:00:00 | 00:00:00 | |
| SO1NDE-10 | 2026-09-04 01:51:23 | 49.98409 | 11.72187 | 132° | 113km/h | 9757m | -6.2m/s | -37.8°C | 57.1% | 293.0hPa | 2.5V | 00:00:00 | 02:16:48 | 00:00:00 | |
| EDDB2-12 | 2026-09-04 01:51:21 | 49.98465 | 11.72086 | 130° | 113km/h | 9774m | -5.8m/s | -38.0°C | 50.3% | 292.2hPa | 2.5V | 00:00:00 | 00:00:00 | 00:00:00 | |
| DM0DOS-11 | 2026-09-04 01:51:19 | 49.98559 | 11.71915 | 129° | 113km/h | 9806m | -5.9m/s | -38.2°C | 59.1% | 290.9hPa | 2.5V | 08:02:56 | 02:16:40 | 00:00:00 | |
| BIOWL1-15 | 2026-09-04 01:51:16 | 49.98541 | 11.71949 | 130° | 115km/h | 9799m | -6.4m/s | -38.2°C | 57.1% | 291.2hPa | 2.5V | 08:03:36 | 02:16:41 | 00:00:00 | |
| DL1NUX | 2026-09-04 01:51:14 | 49.98669 | 11.71719 | 131° | 110km/h | 9841m | -5.8m/s | -38.6°C | 62% | 289.4hPa | 2.5V | 08:03:02 | 02:16:34 | 00:00:00 | |
| DL0LBS | 2026-09-04 01:51:12 | 49.98595 | 11.71848 | 132° | 110km/h | 9817m | -6.1m/s | -38.4°C | 52.7% | 290.4hPa | 2.5V | 08:03:00 | 00:00:00 | 00:00:00 | |
| OE5DRO-10 | 2026-09-04 01:51:11 | 49.98632 | 11.71784 | 132° | 113km/h | 9829m | -5.6m/s | -38.4°C | 61.6% | 289.9hPa | 2.5V | 00:00:00 | 00:00:00 | 00:00:00 | |
| DF2AP-13 | 2026-09-04 01:51:10 | 49.98651 | 11.71752 | 132° | 115km/h | 9835m | -6.1m/s | -38.5°C | 62.1% | 289.6hPa | 2.5V | 00:00:00 | 02:16:35 | 00:00:00 | |
| DM0DOS-11 | 2026-09-04 01:51:09 | 49.98747 | 11.71588 | 131° | 115km/h | 9865m | -5.5m/s | -38.8°C | 62.3% | 288.4hPa | 2.5V | 08:03:06 | 02:16:30 | 00:00:00 | |
| BIOWL1-15 | 2026-09-04 01:51:06 | 49.98727 | 11.71622 | 132° | 115km/h | 9859m | -6m/s | -38.7°C | 60.1% | 288.6hPa | 2.5V | 08:03:36 | 02:16:31 | 00:00:00 | |
| DL1NUX | 2026-09-04 01:51:04 | 49.98862 | 11.71384 | 130° | 115km/h | 9901m | -5.9m/s | -39.1°C | 62.5% | 286.9hPa | 2.5V | 08:03:12 | 02:16:24 | 00:00:00 | |
| DF8AY | 2026-09-04 01:51:02 | 49.98804 | 11.71486 | 132° | 115km/h | 9882m | -6.1m/s | -39°C | 61.5% | 287.6hPa | 2.5V | 08:03:36 | 02:16:27 | 00:00:00 | |
| BIOWL1-15 | 2026-09-04 01:50:59 | 49.98938 | 11.71251 | 132° | 115km/h | 9924m | -5.9m/s | -39.3°C | 60.1% | 285.9hPa | 2.5V | 08:03:36 | 02:16:20 | 00:00:00 | |
| DM0DOS-11 | 2026-09-04 01:50:58 | 49.98976 | 11.71183 | 130° | 113km/h | 9936m | -6.4m/s | -39.5°C | 63.5% | 285.3hPa | 2.5V | 08:03:18 | 02:16:18 | 00:00:00 | |
| DF8AY | 2026-09-04 01:50:52 | 49.98995 | 11.71149 | 131° | 113km/h | 9943m | -6.6m/s | -39.5°C | 61.7% | 285.1hPa | 2.5V | 08:03:36 | 02:16:17 | 00:00:00 | |
| BIOWL1-15 | 2026-09-04 01:50:45 | 49.99128 | 11.70914 | 132° | 117km/h | 9986m | -6.3m/s | -39.9°C | 64.4% | 283.2hPa | 2.5V | 08:03:36 | 02:16:10 | 00:00:00 | |
| DM0DOS-11 | 2026-09-04 01:50:44 | 49.99225 | 11.70744 | 131° | 117km/h | 10018m | -6.1m/s | -40.2°C | 68.8% | 282hPa | 2.5V | 08:03:31 | 02:16:05 | 00:00:00 | |
| DL1NUX | 2026-09-04 01:50:44 | 49.99244 | 11.70710 | 130° | 115km/h | 10024m | -7.2m/s | -40.3°C | 69.4% | 281.7hPa | 2.5V | 08:03:32 | 02:16:04 | 00:00:00 | |
| DF8AY | 2026-09-04 01:50:41 | 49.99205 | 11.70779 | 132° | 115km/h | 10011m | -7m/s | -40.2°C | 65.8% | 282.3hPa | 2.5V | 08:03:36 | 02:16:06 | 00:00:00 | |
| DF2AP-13 | 2026-09-04 01:50:40 | 49.99225 | 11.70744 | 132° | 117km/h | 10018m | -6.0m/s | -40.2°C | 68.8% | 281.9hPa | 2.5V | 00:00:00 | 02:16:05 | 00:00:00 | |
| DO3MHA-11 | 2026-09-04 01:50:38 | 49.99263 | 11.70676 | 131° | 117km/h | 10031m | -6.5m/s | -40.3°C | 69.3% | 281.4hPa | 2.5V | 00:00:00 | 02:16:03 | 00:00:00 | |
| BIOWL9-15 | 2026-09-04 01:50:36 | 49.99302 | 11.70607 | 130° | 117km/h | 10044m | -6.5m/s | -40.5°C | -1.0% | 280.9hPa | 2.5V | 00:00:00 | 00:00:00 | 00:00:00 | |
| DM0DOS-11 | 2026-09-04 01:50:34 | 49.99420 | 11.70401 | 131° | 117km/h | 10086m | -6.5m/s | -40.8°C | 68% | 279.2hPa | 2.5V | 08:03:41 | 02:15:55 | 00:00:00 | |
| DL1NUX | 2026-09-04 01:50:34 | 49.99439 | 11.70367 | 131° | 115km/h | 10092m | -6.6m/s | -40.9°C | 68.1% | 278.9hPa | 2.5V | 08:03:42 | 02:15:54 | 00:00:00 | |
| BIOWL1-15 | 2026-09-04 01:50:33 | 49.99361 | 11.70504 | 132° | 117km/h | 10064m | -7m/s | -40.7°C | 64.9% | 280.1hPa | 2.6V | 08:04:27 | 02:15:58 | 00:00:00 | |
| DF8AY | 2026-09-04 01:50:31 | 49.99400 | 11.70435 | 131° | 117km/h | 10079m | -7.1m/s | -40.8°C | 65.1% | 279.5hPa | 2.5V | 08:04:27 | 02:15:56 | 00:00:00 | |
| BIOWL1-15 | 2026-09-04 01:50:22 | 49.99596 | 11.70095 | 131° | 117km/h | 10149m | -7.4m/s | -41.4°C | 66.4% | 276.6hPa | 2.6V | 08:04:27 | 02:15:46 | 00:00:00 | |
| DF8AY | 2026-09-04 01:50:20 | 49.99615 | 11.70060 | 130° | 115km/h | 10156m | -7.2m/s | -41.5°C | 66.4% | 276.4hPa | 2.5V | 08:04:27 | 02:15:45 | 00:00:00 | |
| DM0DOS-11 | 2026-09-04 01:50:19 | 49.99672 | 11.69958 | 131° | 117km/h | 10178m | -7.7m/s | -41.7°C | 68.1% | 275.4hPa | 2.5V | 08:03:54 | 02:15:42 | 00:00:00 | |
| DL1NUX | 2026-09-04 01:50:19 | 49.99634 | 11.70026 | 130° | 115km/h | 10163m | -7.2m/s | -41.6°C | 68.1% | 276hPa | 2.5V | 08:03:52 | 02:15:44 | 00:00:00 | |
| BIOWL1-15 | 2026-09-04 01:50:14 | 49.99791 | 11.69753 | 131° | 119km/h | 10219m | -6.5m/s | -42.1°C | 65.7% | 273.7hPa | 2.5V | 08:04:27 | 02:15:36 | 00:00:00 | |
| DL1NUX | 2026-09-04 01:50:14 | 49.99830 | 11.69684 | 131° | 115km/h | 10233m | -6.9m/s | -42.2°C | 69.7% | 273.2hPa | 2.5V | 08:04:02 | 02:15:34 | 00:00:00 | |
| DF8AY | 2026-09-04 01:50:09 | 49.99830 | 11.69684 | 131° | 115km/h | 10233m | -6.9m/s | -42.2°C | 66.5% | 273.2hPa | 2.5V | 08:04:27 | 02:15:34 | 00:00:00 | |
| DM0DOS-11 | 2026-09-04 01:50:08 | 49.99868 | 11.69617 | 131° | 115km/h | 10247m | -7.3m/s | -42.4°C | 69.9% | 272.6hPa | 2.5V | 08:04:04 | 02:15:32 | 00:00:00 | |
| DF8AY-15 | 2026-09-04 01:50:08 | 49.99849 | 11.69651 | 132° | 115km/h | 10240m | -7.1m/s | -42.2°C | 69.8% | 272.9hPa | 2.5V | 00:00:00 | 02:15:33 | 00:00:00 | |
| OE5DRO-10 | 2026-09-04 01:50:07 | 49.99869 | 11.69617 | 132° | 115km/h | 10247m | -7.2m/s | -42.3°C | 69.9% | 272.6hPa | 2.5V | 00:00:00 | 00:00:00 | 00:00:00 | |
| BIOWL9-15 | 2026-09-04 01:50:05 | 49.99925 | 11.69515 | 131° | 113km/h | 10268m | -7.0m/s | -42.5°C | -1.0% | -1.0hPa | 2.5V | 00:00:00 | 00:00:00 | 00:00:00 | |
| DL1NUX | 2026-09-04 01:50:04 | 50.00023 | 11.69345 | 131° | 119km/h | 10302m | -6.8m/s | -42.9°C | 70% | 270.4hPa | 2.5V | 08:04:12 | 02:15:24 | 00:00:00 | |
| SONDE2-11 | 2026-09-04 01:50:03 | 49.99945 | 11.69482 | 131° | 115km/h | 10275m | -7.3m/s | -42.6°C | 60.1% | 271.5hPa | 2.5V | 00:00:00 | 00:00:00 | 00:00:00 | |
| DM0DOS-11 | 2026-09-04 01:50:02 | 50.00061 | 11.69275 | 130° | 115km/h | 10315m | -6.5m/s | -43°C | 70.2% | 269.8hPa | 2.5V | 08:04:14 | 02:15:22 | 00:00:00 | |
| DF8AY | 2026-09-04 01:50:00 | 50.00022 | 11.69345 | 132° | 119km/h | 10302m | -6.8m/s | -42.9°C | 67% | 270.4hPa | 2.5V | 08:04:27 | 02:15:24 | 00:00:00 | |
| BIOWL1-15 | 2026-09-04 01:50:00 | 50.00003 | 11.69379 | 132° | 115km/h | 10296m | -6.6m/s | -42.8°C | 66.8% | 270.7hPa | 2.5V | 08:04:27 | 02:15:25 | 00:00:00 | |
| NBG1-10 | 2026-09-04 01:49:59 | 50.00022 | 11.69345 | 132° | 117km/h | 10303m | -6.7m/s | -42.8°C | 70.0% | 270.4hPa | 2.5V | 00:00:00 | 02:15:24 | 00:00:00 | |
| DO3MHA-11 | 2026-09-04 01:49:58 | 50.00042 | 11.69310 | 132° | 117km/h | 10309m | -6.5m/s | -42.9°C | 70.2% | 270.1hPa | 2.5V | 00:00:00 | 02:15:23 | 00:00:00 | |
| DL2RXE-15 | 2026-09-04 01:49:57 | 50.00042 | 11.69310 | 132° | 117km/h | 10309m | -6.6m/s | 0°C | 0% | 0hPa | 2.5V | 00:00:00 | 00:00:00 | 00:00:00 | |
| AM1SDL-15 | 2026-09-04 01:49:56 | 50.00080 | 11.69241 | 132° | 117km/h | 10322m | -6.8m/s | -43.0°C | 70.2% | 269.6hPa | 2.5V | 00:00:00 | 02:15:21 | 00:00:00 | |
| DB0NH | 2026-09-04 01:49:55 | 50.00100 | 11.69208 | 132° | 117km/h | 10329m | -6.8m/s | -43.1°C | 70.2% | 269.3hPa | 2.5V | 08:04:00 | 02:15:20 | 00:00:00 | |
| DL1NUX | 2026-09-04 01:49:54 | 50.00237 | 11.68968 | 131° | 117km/h | 10377m | -7.2m/s | -43.6°C | 69.9% | 267.4hPa | 2.5V | 08:04:23 | 02:15:13 | 00:00:00 | |
| SONCRA | 2026-09-04 01:49:54 | 50.00139 | 11.69140 | 131° | 115km/h | 10343m | -6.9m/s | -43.3°C | 60.7% | 268.7hPa | 2.5V | 00:00:00 | 00:00:00 | 00:00:00 | |
| DL6DJ-15 | 2026-09-04 01:49:52 | 50.00158 | 11.69106 | 131° | 113km/h | 10350m | -6.8m/s | -43.3°C | 60.6% | 268.5hPa | 2.5V | 00:00:00 | 00:00:00 | 00:00:00 | |
| BIOWL1-15 | 2026-09-04 01:49:52 | 50.00197 | 11.69038 | 132° | 119km/h | 10364m | -6.7m/s | -43.5°C | 67.7% | 268hPa | 2.5V | 08:04:27 | 02:15:15 | 00:00:00 | |
| DL0LBS | 2026-09-04 01:49:50 | 50.00177 | 11.69072 | 133° | 117km/h | 10357m | -7.0m/s | -43.4°C | 60.5% | 268.3hPa | 2.5V | 08:04:00 | 00:00:00 | 00:00:00 | |
| DM0DOS-11 | 2026-09-04 01:49:49 | 50.00256 | 11.68934 | 131° | 117km/h | 10384m | -6.6m/s | -43.7°C | 69.9% | 267.2hPa | 2.5V | 08:04:24 | 02:15:12 | 00:00:00 | |
| DF8AY | 2026-09-04 01:49:48 | 50.00236 | 11.68968 | 131° | 117km/h | 10377m | -7.2m/s | -43.6°C | 67.3% | 267.4hPa | 2.5V | 08:04:27 | 02:15:13 | 00:00:00 | |
| EDDB2-12 | 2026-09-04 01:49:48 | 50.00256 | 11.68934 | 131° | 117km/h | 10384m | -6.6m/s | -43.7°C | 60.2% | 267.2hPa | 2.6V | 00:00:00 | 00:00:00 | 00:00:00 | |
| BIOWL1-15 | 2026-09-04 01:49:42 | 50.00394 | 11.68697 | 132° | 115km/h | 10432m | -6.5m/s | -44.2°C | 66.6% | 265.2hPa | 2.6V | 08:05:18 | 02:15:05 | 00:00:00 | |
| DF2AP-13 | 2026-09-04 01:49:40 | 50.00394 | 11.68697 | 132° | 120km/h | 10432m | -6.5m/s | -44.1°C | 69.7% | 265.1hPa | 2.5V | 00:00:00 | 02:15:05 | 00:00:00 | |
| DF7PN | 2026-09-04 01:49:39 | 50.00413 | 11.68663 | 132° | 113km/h | 10439m | -6.9m/s | -44.2°C | 60.1% | 264.9hPa | 2.5V | 00:00:00 | 00:00:00 | 00:00:00 | |
| DM0DOS-11 | 2026-09-04 01:49:38 | 50.00453 | 11.68597 | 133° | 119km/h | 10453m | -7.1m/s | -44.3°C | 70.5% | 264.4hPa | 2.5V | 08:04:34 | 02:15:02 | 00:00:00 | |
| DF8AY | 2026-09-04 01:49:38 | 50.00433 | 11.68630 | 133° | 115km/h | 10446m | -6.6m/s | -44.3°C | 67.1% | 264.6hPa | 2.5V | 08:05:18 | 02:15:03 | 00:00:00 | |
| DL1NUX | 2026-09-04 01:49:38 | 50.00433 | 11.68630 | 133° | 115km/h | 10446m | -6.6m/s | -44.3°C | 70.1% | 264.6hPa | 2.5V | 08:04:33 | 02:15:03 | 00:00:00 | |
| BIOWL1-15 | 2026-09-04 01:49:29 | 50.00614 | 11.68318 | 132° | 120km/h | 10506m | -7.4m/s | -44.9°C | 68.7% | 262.3hPa | 2.5V | 08:05:18 | 02:14:54 | 00:00:00 | |
| DM0DOS-11 | 2026-09-04 01:49:28 | 50.00654 | 11.68248 | 131° | 119km/h | 10520m | -7.1m/s | -45°C | 71.9% | 261.7hPa | 2.5V | 08:04:44 | 02:14:52 | 00:00:00 | |
| DF8AY | 2026-09-04 01:49:28 | 50.00654 | 11.68248 | 131° | 119km/h | 10520m | -7.1m/s | -45°C | 69% | 261.8hPa | 2.5V | 08:05:18 | 02:14:52 | 00:00:00 | |
| DL1NUX | 2026-09-04 01:49:28 | 50.00634 | 11.68283 | 131° | 119km/h | 10513m | -6.8m/s | -44.9°C | 71.7% | 262hPa | 2.6V | 08:04:43 | 02:14:53 | 00:00:00 | |
| DF8AY-15 | 2026-09-04 01:49:28 | 50.00634 | 11.68283 | 132° | 122km/h | 10514m | -6.7m/s | -44.9°C | 71.7% | 262.0hPa | 2.6V | 00:00:00 | 02:14:53 | 00:00:00 | |
| NBG1-10 | 2026-09-04 01:49:26 | 50.00674 | 11.68213 | 132° | 122km/h | 10527m | -6.8m/s | -45.0°C | 72.0% | 261.5hPa | 2.5V | 00:00:00 | 02:14:51 | 00:00:00 | |
| DB0NH | 2026-09-04 01:49:25 | 50.00694 | 11.68178 | 132° | 122km/h | 10534m | -7.0m/s | -45.1°C | 72.4% | 261.1hPa | 2.5V | 00:00:00 | 02:14:50 | 00:00:00 | |
| DL1NUX | 2026-09-04 01:49:23 | 50.00835 | 11.67929 | 131° | 120km/h | 10582m | -6.7m/s | -45.5°C | 73.9% | 259.3hPa | 2.5V | 08:04:53 | 02:14:43 | 00:00:00 | |
| SO1NDE-10 | 2026-09-04 01:49:23 | 50.00734 | 11.68107 | 132° | 122km/h | 10548m | -7.1m/s | -45.2°C | 72.6% | 260.6hPa | 2.5V | 00:00:00 | 02:14:48 | 00:00:00 | |
| SONCRA | 2026-09-04 01:49:22 | 50.00754 | 11.68072 | 131° | 119km/h | 10555m | -7.0m/s | -45.3°C | 62.4% | 260.4hPa | 2.5V | 00:00:00 | 00:00:00 | 00:00:00 | |
| DL6DJ-15 | 2026-09-04 01:49:21 | 50.00795 | 11.68001 | 131° | 120km/h | 10569m | -7.1m/s | -45.4°C | 62.8% | 259.8hPa | 2.5V | 00:00:00 | 00:00:00 | 00:00:00 | |
| AM1SDL-15 | 2026-09-04 01:49:20 | 50.00795 | 11.68001 | 132° | 122km/h | 10569m | -7.1m/s | -45.3°C | 73.3% | 259.8hPa | 2.5V | 00:00:00 | 02:14:45 | 00:00:00 | |
| DM0DOS-11 | 2026-09-04 01:49:18 | 50.00856 | 11.67894 | 131° | 122km/h | 10589m | -6.8m/s | -45.6°C | 73.9% | 259.1hPa | 2.5V | 08:04:54 | 02:14:42 | 00:00:00 | |
| DF8AY | 2026-09-04 01:49:16 | 50.00876 | 11.67858 | 131° | 122km/h | 10596m | -7.1m/s | -45.6°C | 70.7% | 258.8hPa | 2.5V | 08:05:18 | 02:14:41 | 00:00:00 | |
| ANDY1245 | 2026-09-04 01:49:15 | 50.00876 | 11.67858 | 132° | 122km/h | 10596m | -7.1m/s | -45.6°C | 63.3% | 258.8hPa | 2.6V | 00:00:00 | 00:00:00 | 00:00:00 | |
| DH8WE-5 | 2026-09-04 01:49:13 | 50.00917 | 11.67785 | 132° | 122km/h | 10610m | -6.6m/s | -45.8°C | 63.8% | 258.2hPa | 2.6V | 08:05:00 | 00:00:00 | 00:00:00 | |
| DF2AP-13 | 2026-09-04 01:49:10 | 50.00997 | 11.67641 | 132° | 122km/h | 10637m | -7.0m/s | -46.0°C | 74.6% | 257.2hPa | 2.6V | 08:05:00 | 02:14:35 | 00:00:00 | |
| DL0LBS | 2026-09-04 01:49:09 | 50.00997 | 11.67641 | 133° | 120km/h | 10637m | -7.0m/s | -46.0°C | 63.9% | 257.2hPa | 2.5V | 08:05:00 | 00:00:00 | 00:00:00 | |
| DM0DOS-11 | 2026-09-04 01:49:08 | 50.01059 | 11.67534 | 132° | 120km/h | 10657m | -6.8m/s | -46.2°C | 74.5% | 256.4hPa | 2.5V | 08:05:04 | 02:14:32 | 00:00:00 | |
| DL1NUX | 2026-09-04 01:49:08 | 50.01038 | 11.67570 | 131° | 122km/h | 10650m | -6.9m/s | -46.1°C | 74.7% | 256.7hPa | 2.5V | 08:05:03 | 02:14:33 | 00:00:00 | |
| DF8AY | 2026-09-04 01:49:05 | 50.01101 | 11.67463 | 132° | 124km/h | 10671m | -6.9m/s | -46.4°C | 71.2% | 256hPa | 2.5V | 08:05:18 | 02:14:30 | 00:00:00 | |
| BIOWL9-15 | 2026-09-04 01:49:03 | 50.01142 | 11.67391 | 131° | 122km/h | 10685m | -7.0m/s | -46.5°C | -1.0% | -1.0hPa | 2.5V | 00:00:00 | 00:00:00 | 00:00:00 | |
| DM7RM-13 | 2026-09-04 01:49:02 | 50.01142 | 11.67391 | 133° | 124km/h | 10685m | -7.0m/s | -46.5°C | 63.4% | 255.4hPa | 2.5V | 08:05:00 | 00:00:00 | 00:00:00 | |
| OE5DXL-15 | 2026-09-04 01:49:01 | 50.01184 | 11.67318 | 132° | 122km/h | 10698m | -6.9m/s | -46.6°C | 74.0% | 254.8hPa | 2.5V | 00:00:00 | 00:00:00 | 00:00:00 | |
| DM0DOS-11 | 2026-09-04 01:48:58 | 50.01263 | 11.67173 | 130° | 117km/h | 10724m | -6.5m/s | -46.9°C | 74.3% | 253.8hPa | 2.5V | 08:05:14 | 02:14:22 | 00:00:00 | |
| DL1NUX | 2026-09-04 01:48:58 | 50.01243 | 11.67208 | 129° | 119km/h | 10718m | -6.2m/s | -46.8°C | 74.6% | 254.1hPa | 2.6V | 08:05:13 | 02:14:23 | 00:00:00 | |
| BIOWL1-15 | 2026-09-04 01:48:57 | 50.01282 | 11.67138 | 132° | 119km/h | 10730m | -6.8m/s | -46.9°C | 69.4% | 253.6hPa | 2.5V | 08:05:18 | 02:14:21 | 00:00:00 | |
| DF8AY | 2026-09-04 01:48:55 | 50.01303 | 11.67103 | 132° | 120km/h | 10737m | -5.8m/s | -47°C | 69.1% | 253.4hPa | 2.5V | 08:05:18 | 02:14:20 | 00:00:00 | |
| DB0NH | 2026-09-04 01:48:55 | 50.01303 | 11.67103 | 133° | 122km/h | 10737m | -5.8m/s | -46.9°C | 73.7% | 253.3hPa | 2.5V | 00:00:00 | 02:14:20 | 00:00:00 | |
| DL1NUX | 2026-09-04 01:48:53 | 50.01447 | 11.66849 | 131° | 124km/h | 10784m | -7.1m/s | -47.4°C | 69.3% | 251.6hPa | 2.5V | 08:05:23 | 02:14:13 | 00:00:00 | |
| SONCRA | 2026-09-04 01:48:51 | 50.01385 | 11.66958 | 130° | 120km/h | 10763m | -7.0m/s | -47.2°C | 60.7% | 252.3hPa | 2.5V | 00:00:00 | 00:00:00 | 00:00:00 | |
| DL6DJ-15 | 2026-09-04 01:48:50 | 50.01426 | 11.66885 | 131° | 122km/h | 10777m | -6.8m/s | -47.4°C | 59.2% | 251.8hPa | 2.5V | 00:00:00 | 00:00:00 | 00:00:00 | |
| DL0LBS | 2026-09-04 01:48:49 | 50.01405 | 11.66921 | 132° | 122km/h | 10770m | -7.0m/s | -47.3°C | 60.2% | 252.1hPa | 2.5V | 08:06:00 | 00:00:00 | 00:00:00 | |
| DM0DOS-11 | 2026-09-04 01:48:48 | 50.01467 | 11.66812 | 130° | 122km/h | 10791m | -6.6m/s | -47.5°C | 68.4% | 251.3hPa | 2.5V | 08:05:24 | 02:14:12 | 00:00:00 | |
| BIOWL1-15 | 2026-09-04 01:48:46 | 50.01487 | 11.66776 | 131° | 122km/h | 10798m | -7.3m/s | -47.6°C | 63.1% | 251hPa | 2.5V | 08:06:09 | 02:14:11 | 00:00:00 | |
| DF8AY | 2026-09-04 01:48:44 | 50.01528 | 11.66703 | 131° | 124km/h | 10812m | -7.3m/s | -47.7°C | 60.4% | 250.5hPa | 2.5V | 08:06:09 | 02:14:09 | 00:00:00 | |
| DL1NUX | 2026-09-04 01:48:43 | 50.01649 | 11.66479 | 129° | 122km/h | 10855m | -6.8m/s | -47.5°C | 52.5% | 248.9hPa | 2.4V | 08:05:33 | 02:14:03 | 00:00:00 | |
| HSKMA3-T | 2026-09-04 01:48:40 | 50.01629 | 11.66517 | 129° | 124km/h | 10848m | -7.3m/s | -47.5°C | 51.9% | 249.2hPa | 2.5V | 08:06:09 | 02:14:04 | 00:00:00 | |
| DF2AP-13 | 2026-09-04 01:48:40 | 50.01609 | 11.66554 | 130° | 122km/h | 10841m | -7.2m/s | -47.4°C | 53.7% | 249.4hPa | 2.5V | 00:00:00 | 02:14:05 | 00:00:00 | |
| DM0DOS-11 | 2026-09-04 01:48:38 | 50.01669 | 11.66442 | 129° | 124km/h | 10862m | -7m/s | -47.6°C | 51.8% | 248.6hPa | 2.5V | 08:05:34 | 02:14:02 | 00:00:00 | |
| BIOWL1-15 | 2026-09-04 01:48:35 | 50.01708 | 11.66367 | 129° | 122km/h | 10876m | -6.9m/s | -47.7°C | 50.2% | 248.1hPa | 2.5V | 08:06:09 | 02:14:00 | 00:00:00 | |
| DF8AY | 2026-09-04 01:48:34 | 50.01728 | 11.66329 | 129° | 122km/h | 10883m | -7.1m/s | -47.8°C | 49.5% | 247.8hPa | 2.5V | 08:06:09 | 02:13:59 | 00:00:00 | |
| DL1NUX | 2026-09-04 01:48:33 | 50.01846 | 11.66109 | 130° | 120km/h | 10924m | -7.1m/s | -48°C | 43.3% | 246.3hPa | 2.5V | 08:05:43 | 02:13:53 | 00:00:00 | |
| AM1SDL-15 | 2026-09-04 01:48:32 | 50.01767 | 11.66255 | 130° | 122km/h | 10897m | -7.0m/s | -47.8°C | 47.8% | 247.3hPa | 2.5V | 00:00:00 | 02:13:57 | 00:00:00 | |
| OE5DXL-15 | 2026-09-04 01:48:31 | 50.01787 | 11.66218 | 130° | 122km/h | 10904m | -6.5m/s | -47.9°C | 46.4% | 247.0hPa | 2.5V | 00:00:00 | 00:00:00 | 00:00:00 | |
| SONDE2-11 | 2026-09-04 01:48:30 | 50.01806 | 11.66181 | 129° | 120km/h | 10911m | -7.6m/s | -48.0°C | 37.1% | 246.8hPa | 2.5V | 00:00:00 | 00:00:00 | 00:00:00 | |
| DM0DOS-11 | 2026-09-04 01:48:28 | 50.01865 | 11.66072 | 130° | 120km/h | 10932m | -6.9m/s | -48°C | 43.1% | 246.1hPa | 2.5V | 08:05:44 | 02:13:52 | 00:00:00 | |
| BIOWL1-15 | 2026-09-04 01:48:25 | 50.01905 | 11.65999 | 130° | 122km/h | 10945m | -7.4m/s | -48.2°C | 43% | 245.5hPa | 2.5V | 08:06:09 | 02:13:50 | 00:00:00 | |
| DF8AY | 2026-09-04 01:48:23 | 50.01945 | 11.65926 | 130° | 124km/h | 10960m | -7.3m/s | -48.3°C | 42.7% | 245hPa | 2.5V | 08:06:09 | 02:13:48 | 00:00:00 | |
| DJ8HS-15 | 2026-09-04 01:48:23 | 50.01945 | 11.65925 | 131° | 122km/h | 10960m | -7.3m/s | -48.2°C | 42.5% | 245.0hPa | 2.5V | 00:00:00 | 02:13:48 | 00:00:00 | |
| NBG1-10 | 2026-09-04 01:48:20 | 50.02004 | 11.65813 | 130° | 122km/h | 10981m | -7.2m/s | -48.4°C | 42.0% | 244.2hPa | 2.5V | 00:00:00 | 02:13:45 | 00:00:00 | |
| DM0DOS-11 | 2026-09-04 01:48:18 | 50.02064 | 11.65698 | 128° | 124km/h | 11002m | -7.1m/s | -48.7°C | 41.5% | 243.4hPa | 2.5V | 08:05:54 | 02:13:42 | 00:00:00 | |
| HSKMA3-T | 2026-09-04 01:48:16 | 50.02084 | 11.65659 | 129° | 126km/h | 11009m | -7.1m/s | -48.7°C | 41.4% | 243.1hPa | 2.5V | 08:06:09 | 02:13:41 | 00:00:00 | |
| DF8AY | 2026-09-04 01:48:13 | 50.02143 | 11.65545 | 129° | 122km/h | 11030m | -7.1m/s | -48.9°C | 40.7% | 242.4hPa | 2.5V | 08:06:09 | 02:13:38 | 00:00:00 | |
| DO9HM | 2026-09-04 01:48:12 | 50.02163 | 11.65508 | 131° | 124km/h | 11037m | -7.1m/s | -49.0°C | 32.9% | 242.1hPa | 2.6V | 00:00:00 | 00:00:00 | 00:00:00 | |
| DH8WE-5 | 2026-09-04 01:48:11 | 50.02163 | 11.65508 | 131° | 124km/h | 11037m | -7.1m/s | -49.0°C | 32.8% | 242.1hPa | 2.6V | 08:06:00 | 00:00:00 | 00:00:00 | |
| DF2AP-13 | 2026-09-04 01:48:10 | 50.02202 | 11.65433 | 130° | 120km/h | 11052m | -6.6m/s | -49.0°C | 40.0% | 241.6hPa | 2.6V | 00:00:00 | 02:13:35 | 00:00:00 | |
| OE5DRO-10 | 2026-09-04 01:48:09 | 50.02222 | 11.65396 | 130° | 120km/h | 11058m | -7.1m/s | -49.1°C | 39.7% | 241.3hPa | 2.6V | 08:06:00 | 00:00:00 | 00:00:00 | |
| DM0DOS-11 | 2026-09-04 01:48:08 | 50.02261 | 11.65324 | 130° | 120km/h | 11072m | -7.1m/s | -49.2°C | 39.5% | 240.8hPa | 2.5V | 08:06:04 | 02:13:32 | 00:00:00 | |
| HSKMA3-T | 2026-09-04 01:48:05 | 50.02301 | 11.65251 | 130° | 120km/h | 11086m | -7.1m/s | -49.4°C | 39.5% | 240.3hPa | 2.5V | 08:06:09 | 02:13:30 | 00:00:00 | |
| DB0UT-7 | 2026-09-04 01:48:05 | 50.02301 | 11.65251 | 130° | 119km/h | 11086m | -7.0m/s | -49.3°C | 39.2% | 240.3hPa | 2.5V | 00:00:00 | 02:13:30 | 00:00:00 | |
| DL1NUX | 2026-09-04 01:48:03 | 50.02441 | 11.64999 | 130° | 119km/h | 11135m | -7.4m/s | -49.7°C | 38.1% | 238.6hPa | 2.5V | 08:06:13 | 02:13:23 | 00:00:00 | |
| DF8AY | 2026-09-04 01:48:02 | 50.02361 | 11.65144 | 131° | 122km/h | 11107m | -6.9m/s | -49.5°C | 39% | 239.6hPa | 2.6V | 08:06:09 | 02:13:27 | 00:00:00 | |
| BIOWL1-15 | 2026-09-04 01:48:00 | 50.02401 | 11.65071 | 130° | 122km/h | 11121m | -7.2m/s | -49.6°C | 38.7% | 239hPa | 2.5V | 08:07:00 | 02:13:25 | 00:00:00 | |
| HSKMA3-T | 2026-09-04 01:47:55 | 50.02500 | 11.64891 | 131° | 120km/h | 11157m | -7.4m/s | -49.8°C | 38.7% | 237.8hPa | 2.5V | 08:07:51 | 02:13:20 | 00:00:00 | |
| EDDB2-11 | 2026-09-04 01:47:55 | 50.02520 | 11.64856 | 130° | 117km/h | 11164m | -7.0m/s | -49.9°C | 30.9% | 237.6hPa | 2.5V | 00:00:00 | 00:00:00 | 00:00:00 | |
| DL1NUX | 2026-09-04 01:47:53 | 50.02640 | 11.64649 | 132° | 117km/h | 11205m | -7.2m/s | -50.3°C | 39.9% | 236hPa | 2.5V | 08:06:23 | 02:13:13 | 00:00:00 | |
| DF8AY | 2026-09-04 01:47:52 | 50.02560 | 11.64787 | 132° | 119km/h | 11178m | -6.6m/s | -50°C | 39.3% | 237hPa | 2.5V | 08:07:00 | 02:13:17 | 00:00:00 | |
| BIOWL1-15 | 2026-09-04 01:47:50 | 50.02600 | 11.64717 | 132° | 119km/h | 11192m | -6.8m/s | -50.1°C | 39.8% | 236.5hPa | 2.6V | 08:07:00 | 02:13:15 | 00:00:00 | |
| SONCRA | 2026-09-04 01:47:49 | 50.02620 | 11.64683 | 132° | 117km/h | 11198m | -6.8m/s | -50.2°C | 31.9% | 236.2hPa | 2.5V | 00:00:00 | 00:00:00 | 00:00:00 | |
| DL6DJ-15 | 2026-09-04 01:47:48 | 50.02681 | 11.64580 | 131° | 119km/h | 11219m | -7.1m/s | -50.4°C | 32.5% | 235.5hPa | 2.5V | 00:00:00 | 00:00:00 | 00:00:00 | |
| DO3MHA-11 | 2026-09-04 01:47:47 | 50.02660 | 11.64615 | 133° | 119km/h | 11213m | -6.6m/s | -50.3°C | 40.2% | 235.7hPa | 2.5V | 00:00:00 | 02:13:12 | 00:00:00 | |
| DL1NUX | 2026-09-04 01:47:43 | 50.02839 | 11.64302 | 131° | 119km/h | 11277m | -7.5m/s | -50.9°C | 42.5% | 233.4hPa | 2.6V | 08:06:33 | 02:13:03 | 00:00:00 | |
| DM0DOS-11 | 2026-09-04 01:47:43 | 50.02859 | 11.64267 | 130° | 117km/h | 11285m | -7.6m/s | -51°C | 43% | 233.2hPa | 2.6V | 08:06:34 | 02:13:02 | 00:00:00 | |
| DF8AY | 2026-09-04 01:47:41 | 50.02780 | 11.64406 | 132° | 119km/h | 11255m | -7.2m/s | -50.7°C | 42% | 234.2hPa | 2.5V | 08:07:00 | 02:13:06 | 00:00:00 | |
| BIOWL1-15 | 2026-09-04 01:47:39 | 50.02820 | 11.64337 | 131° | 119km/h | 11270m | -7.4m/s | -50.8°C | 42.6% | 233.7hPa | 2.5V | 08:07:00 | 02:13:04 | 00:00:00 | |
| DO3MHA-11 | 2026-09-04 01:47:37 | 50.02859 | 11.64267 | 131° | 115km/h | 11285m | -7.5m/s | -50.9°C | 43.0% | 233.1hPa | 2.5V | 00:00:00 | 02:13:02 | 00:00:00 | |
| DF8AY-15 | 2026-09-04 01:47:36 | 50.02878 | 11.64232 | 131° | 117km/h | 11292m | -7.0m/s | -51.0°C | 43.4% | 232.9hPa | 2.5V | 00:00:00 | 02:13:01 | 00:00:00 | |
| DB0UT-7 | 2026-09-04 01:47:35 | 50.02897 | 11.64198 | 132° | 117km/h | 11299m | -7.1m/s | -51.0°C | 43.6% | 232.6hPa | 2.5V | 00:00:00 | 00:00:00 | 00:00:00 | |
| ANDY1245 | 2026-09-04 01:47:34 | 50.02897 | 11.64198 | 133° | 115km/h | 11299m | -7.1m/s | -51.1°C | 35.2% | 232.6hPa | 2.5V | 00:00:00 | 00:00:00 | 00:00:00 | |
| DM0DOS-11 | 2026-09-04 01:47:32 | 50.03054 | 11.63931 | 132° | 119km/h | 11357m | -7.1m/s | -51.7°C | 46.8% | 230.5hPa | 2.5V | 08:06:44 | 02:12:52 | 00:00:00 | |
| DF8AY | 2026-09-04 01:47:31 | 50.02974 | 11.64064 | 133° | 115km/h | 11328m | -7.5m/s | -51.4°C | 45.2% | 231.6hPa | 2.5V | 08:07:00 | 02:12:56 | 00:00:00 | |
| BIOWL1-15 | 2026-09-04 01:47:30 | 50.03034 | 11.63965 | 134° | 117km/h | 11350m | -7.3m/s | -51.6°C | 46.2% | 230.8hPa | 2.5V | 08:07:00 | 02:12:53 | 00:00:00 | |
| ANDY1245 | 2026-09-04 01:47:29 | 50.02994 | 11.64031 | 133° | 115km/h | 11336m | -7.5m/s | -51.5°C | 36.7% | 231.3hPa | 2.6V | 00:00:00 | 00:00:00 | 00:00:00 | |
| SONDE2-11 | 2026-09-04 01:47:28 | 50.03034 | 11.63965 | 133° | 115km/h | 11350m | -7.3m/s | -51.6°C | 37.4% | 230.8hPa | 2.6V | 00:00:00 | 00:00:00 | 00:00:00 | |
| DL1NUX | 2026-09-04 01:47:28 | 50.03034 | 11.63965 | 133° | 117km/h | 11350m | -7.3m/s | -51.6°C | 46.4% | 230.8hPa | 2.5V | 08:06:43 | 02:12:53 | 00:00:00 | |
| DO3MHA-11 | 2026-09-04 01:47:27 | 50.03054 | 11.63931 | 133° | 117km/h | 11358m | -7.0m/s | -51.6°C | 46.8% | 230.5hPa | 2.6V | 00:00:00 | 02:12:52 | 00:00:00 | |
| DB0NH | 2026-09-04 01:47:25 | 50.03095 | 11.63862 | 132° | 117km/h | 11372m | -6.9m/s | -51.8°C | 47.7% | 230.0hPa | 2.6V | 00:00:00 | 02:12:50 | 00:00:00 | |
| EDDB2-11 | 2026-09-04 01:47:24 | 50.03134 | 11.63793 | 132° | 117km/h | 11386m | -7.2m/s | -52.0°C | 39.2% | 229.5hPa | 2.6V | 00:00:00 | 00:00:00 | 00:00:00 | |
| DL1NUX | 2026-09-04 01:47:23 | 50.03233 | 11.63622 | 132° | 115km/h | 11421m | -7.2m/s | -52.3°C | 50.4% | 228.3hPa | 2.6V | 08:06:53 | 02:12:43 | 00:00:00 | |
| SO1NDE-10 | 2026-09-04 01:47:23 | 50.03134 | 11.63793 | 133° | 117km/h | 11386m | -7.2m/s | -51.9°C | 48.5% | 229.5hPa | 2.5V | 00:00:00 | 02:12:48 | 00:00:00 | |
| DM0DOS-11 | 2026-09-04 01:47:22 | 50.03253 | 11.63588 | 132° | 117km/h | 11428m | -7.5m/s | -52.4°C | 51% | 228hPa | 2.5V | 08:06:54 | 02:12:42 | 00:00:00 | |
| DF8AY | 2026-09-04 01:47:20 | 50.03194 | 11.63689 | 131° | 115km/h | 11407m | -6.9m/s | -52.2°C | 49.2% | 228.8hPa | 2.5V | 08:07:00 | 02:12:45 | 00:00:00 | |
| BIOWL1-15 | 2026-09-04 01:47:19 | 50.03253 | 11.63588 | 132° | 117km/h | 11428m | -7.5m/s | -52.4°C | 50.4% | 228hPa | 2.5V | 08:07:00 | 02:12:42 | 00:00:00 | |
| SONCRA | 2026-09-04 01:47:18 | 50.03233 | 11.63622 | 132° | 115km/h | 11421m | -7.2m/s | -52.3°C | 40.7% | 228.3hPa | 2.5V | 00:00:00 | 00:00:00 | 00:00:00 | |
| DL6DJ-15 | 2026-09-04 01:47:17 | 50.03272 | 11.63554 | 131° | 115km/h | 11435m | -6.9m/s | -52.4°C | 41.6% | 227.7hPa | 2.5V | 00:00:00 | 00:00:00 | 00:00:00 | |
| DF8AY-15 | 2026-09-04 01:47:16 | 50.03272 | 11.63554 | 132° | 115km/h | 11436m | -6.9m/s | -52.4°C | 51.5% | 227.7hPa | 2.5V | 00:00:00 | 02:12:41 | 00:00:00 | |
| DM7RM-13 | 2026-09-04 01:47:15 | 50.03272 | 11.63554 | 133° | 117km/h | 11436m | -6.9m/s | -52.4°C | 41.7% | 227.7hPa | 2.5V | 08:07:00 | 00:00:00 | 00:00:00 | |
| NBG1-10 | 2026-09-04 01:47:14 | 50.03312 | 11.63487 | 133° | 117km/h | 11450m | -7.2m/s | -52.5°C | 52.3% | 227.2hPa | 2.5V | 00:00:00 | 02:12:39 | 00:00:00 | |
| DL1NUX | 2026-09-04 01:47:13 | 50.03429 | 11.63284 | 131° | 115km/h | 11494m | -7.9m/s | -53°C | 54.9% | 225.7hPa | 2.5V | 08:07:03 | 02:12:33 | 00:00:00 | |
| DM0DOS-11 | 2026-09-04 01:47:12 | 50.03468 | 11.63216 | 131° | 115km/h | 11509m | -7.7m/s | -53.2°C | 56% | 225.2hPa | 2.6V | 08:07:05 | 02:12:31 | 00:00:00 | |
| DF8AY | 2026-09-04 01:47:10 | 50.03390 | 11.63351 | 132° | 115km/h | 11479m | -7.5m/s | -52.9°C | 53.2% | 226.2hPa | 2.5V | 08:07:51 | 02:12:35 | 00:00:00 | |
| BIOWL1-15 | 2026-09-04 01:47:06 | 50.03468 | 11.63216 | 132° | 115km/h | 11509m | -7.7m/s | -53.2°C | 54.9% | 225.2hPa | 2.6V | 08:07:51 | 02:12:31 | 00:00:00 | |
| DF8AY | 2026-09-04 01:47:00 | 50.03584 | 11.63013 | 132° | 115km/h | 11554m | -7.4m/s | -53.6°C | 57.2% | 223.6hPa | 2.6V | 08:07:51 | 02:12:25 | 00:00:00 | |
| BIOWL9-15 | 2026-09-04 01:46:59 | 50.03724 | 11.62776 | 131° | 117km/h | 11608m | -7.8m/s | -54.1°C | 50.1% | 221.7hPa | 2.5V | 00:00:00 | 00:00:00 | 00:00:00 | |
| DL1NUX | 2026-09-04 01:46:58 | 50.03624 | 11.62945 | 132° | 117km/h | 11570m | -7.7m/s | -53.8°C | 59.4% | 223.1hPa | 2.5V | 08:07:13 | 02:12:23 | 00:00:00 | |
| BIOWL1-15 | 2026-09-04 01:46:56 | 50.03664 | 11.62878 | 132° | 117km/h | 11585m | -7.8m/s | -53.9°C | 58.7% | 222.5hPa | 2.5V | 08:07:51 | 02:12:21 | 00:00:00 | |
| EDDB2-11 | 2026-09-04 01:46:53 | 50.03743 | 11.62741 | 131° | 115km/h | 11615m | -7.1m/s | -54.2°C | 50.4% | 221.5hPa | 2.5V | 00:00:00 | 00:00:00 | 00:00:00 | |
| DM0DOS-11 | 2026-09-04 01:46:51 | 50.03860 | 11.62538 | 132° | 117km/h | 11660m | -7.2m/s | -54.6°C | 65.3% | 219.9hPa | 2.5V | 08:07:25 | 02:12:11 | 00:00:00 | |
| DF8AY | 2026-09-04 01:46:51 | 50.03782 | 11.62674 | 132° | 115km/h | 11630m | -7.2m/s | -54.3°C | 61.1% | 220.9hPa | 2.5V | 08:07:51 | 02:12:15 | 00:00:00 | |
| DL1NUX | 2026-09-04 01:46:48 | 50.03821 | 11.62605 | 131° | 115km/h | 11645m | -7.3m/s | -54.5°C | 64.3% | 220.4hPa | 2.6V | 08:07:23 | 02:12:13 | 00:00:00 | |
| SONCRA | 2026-09-04 01:46:47 | 50.03840 | 11.62571 | 131° | 113km/h | 11652m | -7.9m/s | -54.6°C | 52.5% | 220.2hPa | 2.5V | 00:00:00 | 00:00:00 | 00:00:00 | |
| BIOWL1-15 | 2026-09-04 01:46:43 | 50.03919 | 11.62435 | 132° | 117km/h | 11682m | -8.1m/s | -54.8°C | 64.1% | 219.2hPa | 2.5V | 08:07:51 | 02:12:08 | 00:00:00 | |
| DJ8HS-15 | 2026-09-04 01:46:43 | 50.03919 | 11.62435 | 132° | 117km/h | 11682m | -8.1m/s | -54.8°C | 66.5% | 219.1hPa | 2.5V | 00:00:00 | 02:12:08 | 00:00:00 | |
| DM0DOS-11 | 2026-09-04 01:46:41 | 50.04058 | 11.62198 | 131° | 117km/h | 11735m | -7.7m/s | -55.4°C | 69.7% | 217.3hPa | 2.5V | 08:07:35 | 02:12:01 | 00:00:00 | |
| DF8AY | 2026-09-04 01:46:40 | 50.03979 | 11.62334 | 132° | 117km/h | 11705m | -7.6m/s | -55.1°C | 65.3% | 218.4hPa | 2.6V | 08:07:51 | 02:12:05 | 00:00:00 | |
| DF2AP-13 | 2026-09-04 01:46:40 | 50.03979 | 11.62334 | 133° | 117km/h | 11705m | -7.6m/s | -55.0°C | 67.9% | 218.3hPa | 2.6V | 00:00:00 | 02:12:05 | 00:00:00 | |
| DO3MHA-11 | 2026-09-04 01:46:37 | 50.04038 | 11.62232 | 132° | 117km/h | 11728m | -7.6m/s | -55.2°C | 69.4% | 217.6hPa | 2.6V | 00:00:00 | 02:12:02 | 00:00:00 | |
| DF8AY-15 | 2026-09-04 01:46:36 | 50.04058 | 11.62198 | 132° | 117km/h | 11736m | -7.7m/s | -55.3°C | 69.7% | 217.3hPa | 2.6V | 00:00:00 | 02:12:01 | 00:00:00 | |
| DM7RM-13 | 2026-09-04 01:46:34 | 50.04078 | 11.62164 | 133° | 117km/h | 11743m | -7.6m/s | -55.5°C | 57.2% | 217.1hPa | 2.6V | 08:07:00 | 00:00:00 | 00:00:00 | |
| DL1NUX | 2026-09-04 01:46:33 | 50.04216 | 11.61927 | 132° | 113km/h | 11797m | -7.1m/s | -56°C | 73.4% | 215.3hPa | 2.6V | 08:07:43 | 02:11:53 | 00:00:00 | |
| BIOWL1-15 | 2026-09-04 01:46:33 | 50.04118 | 11.62096 | 132° | 117km/h | 11759m | -7.8m/s | -55.6°C | 68% | 216.5hPa | 2.5V | 08:07:51 | 02:11:58 | 00:00:00 | |
| DF8AY | 2026-09-04 01:46:29 | 50.04197 | 11.61960 | 132° | 115km/h | 11789m | -7.8m/s | -55.9°C | 69.5% | 215.5hPa | 2.6V | 08:07:51 | 02:11:54 | 00:00:00 | |
| DM0DOS-11 | 2026-09-04 01:46:27 | 50.04256 | 11.61861 | 133° | 115km/h | 11812m | -7.5m/s | -56.1°C | 74.1% | 214.8hPa | 2.5V | 08:07:45 | 02:11:51 | 00:00:00 | |
| BIOWL1-15 | 2026-09-04 01:46:24 | 50.04338 | 11.61729 | 134° | 119km/h | 11844m | -7.9m/s | -56.4°C | 71.8% | 213.7hPa | 2.6V | 08:07:51 | 02:11:47 | 00:00:00 | |
| DB0UT-7 | 2026-09-04 01:46:24 | 50.04297 | 11.61795 | 135° | 117km/h | 11828m | -7.7m/s | -56.2°C | 74.8% | 214.2hPa | 2.5V | 00:00:00 | 02:11:49 | 00:00:00 | |
| DL1NUX | 2026-09-04 01:46:23 | 50.04419 | 11.61595 | 132° | 117km/h | 11874m | -8m/s | -56.7°C | 77.1% | 212.7hPa | 2.5V | 08:07:53 | 02:11:43 | 00:00:00 | |
| HSKMA3-T | 2026-09-04 01:46:18 | 50.04419 | 11.61595 | 133° | 117km/h | 11874m | -8m/s | -56.7°C | 72.9% | 212.7hPa | 2.5V | 08:08:42 | 02:11:43 | 00:00:00 | |
| DO9HM | 2026-09-04 01:46:17 | 50.04439 | 11.61561 | 134° | 115km/h | 11882m | -7.6m/s | -56.8°C | 63.0% | 212.4hPa | 2.5V | 00:00:00 | 00:00:00 | 00:00:00 | |
| DF8AY-15 | 2026-09-04 01:46:16 | 50.04459 | 11.61528 | 134° | 117km/h | 11890m | -8.1m/s | -56.8°C | 78.1% | 212.1hPa | 2.5V | 00:00:00 | 02:11:41 | 00:00:00 | |
| DL6DJ-15 | 2026-09-04 01:46:14 | 50.04499 | 11.61461 | 132° | 115km/h | 11905m | -7.7m/s | -57.0°C | 63.5% | 211.6hPa | 2.5V | 00:00:00 | 00:00:00 | 00:00:00 | |
| DL1NUX | 2026-09-04 01:46:13 | 50.04621 | 11.61261 | 133° | 119km/h | 11952m | -8m/s | -57.5°C | 79.7% | 210.1hPa | 2.5V | 08:08:03 | 02:11:33 | 00:00:00 | |
| BIOWL1-15 | 2026-09-04 01:46:11 | 50.04560 | 11.61361 | 133° | 117km/h | 11929m | -7.8m/s | -57.2°C | 74.4% | 210.8hPa | 2.5V | 08:08:42 | 02:11:36 | 00:00:00 | |
| DF8AY | 2026-09-04 01:46:07 | 50.04642 | 11.61227 | 133° | 117km/h | 11960m | -7.8m/s | -57.5°C | 75.1% | 209.8hPa | 2.5V | 08:08:42 | 02:11:32 | 00:00:00 | |
| HSKMA3-T | 2026-09-04 01:46:06 | 50.04662 | 11.61194 | 134° | 119km/h | 11968m | -8.1m/s | -57.6°C | 75.2% | 209.5hPa | 2.5V | 08:08:42 | 02:11:31 | 00:00:00 | |
| DL0LBS | 2026-09-04 01:46:04 | 50.04682 | 11.61160 | 134° | 119km/h | 11976m | -7.6m/s | -57.7°C | 65.0% | 209.3hPa | 2.5V | 08:08:00 | 00:00:00 | 00:00:00 | |
| DL1NUX | 2026-09-04 01:46:03 | 50.04827 | 11.60926 | 134° | 119km/h | 12029m | -8.1m/s | -58.2°C | 80.6% | 207.5hPa | 2.5V | 08:08:13 | 02:11:23 | 00:00:00 | |
| BIOWL1-15 | 2026-09-04 01:46:00 | 50.04785 | 11.60993 | 134° | 119km/h | 12013m | -7.9m/s | -58°C | 75.4% | 208.1hPa | 2.5V | 08:08:42 | 02:11:25 | 00:00:00 | |
| DF8AY | 2026-09-04 01:45:57 | 50.04848 | 11.60892 | 134° | 119km/h | 12037m | -8m/s | -58.3°C | 75.1% | 207.3hPa | 2.6V | 08:08:42 | 02:11:22 | 00:00:00 | |
| HSKMA3-T | 2026-09-04 01:45:56 | 50.04869 | 11.60859 | 134° | 119km/h | 12045m | -7.8m/s | -58.4°C | 74.9% | 207hPa | 2.6V | 08:08:42 | 02:11:21 | 00:00:00 | |
| BIOWL1-15 | 2026-09-04 01:45:54 | 50.04991 | 11.60660 | 134° | 117km/h | 12092m | -7.8m/s | -58.8°C | 73.6% | 205.5hPa | 2.6V | 08:08:42 | 02:11:15 | 00:00:00 | |
| DB0UT-7 | 2026-09-04 01:45:54 | 50.04910 | 11.60792 | 135° | 122km/h | 12060m | -7.9m/s | -58.4°C | 80.2% | 206.5hPa | 2.5V | 00:00:00 | 00:00:00 | 00:00:00 | |
| DL1NUX | 2026-09-04 01:45:53 | 50.05032 | 11.60594 | 134° | 115km/h | 12107m | -7.7m/s | -58.9°C | 79.5% | 205hPa | 2.5V | 08:08:23 | 02:11:13 | 00:00:00 | |
| HSKMA3-T | 2026-09-04 01:45:46 | 50.05074 | 11.60531 | 136° | 117km/h | 12122m | -7.6m/s | -59.1°C | 72.6% | 204.5hPa | 2.5V | 08:08:42 | 02:11:11 | 00:00:00 | |
| SONCRA | 2026-09-04 01:45:45 | 50.05095 | 11.60498 | 135° | 117km/h | 12130m | -7.3m/s | -59.1°C | 62.8% | 204.2hPa | 2.6V | 00:00:00 | 00:00:00 | 00:00:00 | |
| AM1SDL-15 | 2026-09-04 01:45:44 | 50.05116 | 11.60466 | 136° | 119km/h | 12137m | -8.2m/s | -59.1°C | 78.3% | 203.9hPa | 2.6V | 00:00:00 | 02:11:09 | 00:00:00 | |
| DL1NUX | 2026-09-04 01:45:43 | 50.05245 | 11.60274 | 135° | 119km/h | 12183m | -8.1m/s | -59.6°C | 76% | 202.5hPa | 2.6V | 08:08:33 | 02:11:03 | 00:00:00 | |
| BIOWL1-15 | 2026-09-04 01:45:40 | 50.05202 | 11.60339 | 136° | 119km/h | 12167m | -7.3m/s | -59.5°C | 70.7% | 203hPa | 2.5V | 08:08:42 | 02:11:05 | 00:00:00 | |
| DF2AP-13 | 2026-09-04 01:45:40 | 50.05202 | 11.60339 | 136° | 120km/h | 12167m | -7.3m/s | -59.4°C | 77.0% | 202.9hPa | 2.5V | 00:00:00 | 02:11:05 | 00:00:00 | |
| EDDB2-12 | 2026-09-04 01:45:39 | 50.05224 | 11.60307 | 135° | 117km/h | 12175m | -7.9m/s | -59.5°C | 60.9% | 202.7hPa | 2.5V | 00:00:00 | 00:00:00 | 00:00:00 | |
| DM0DOS-11 | 2026-09-04 01:45:37 | 50.05288 | 11.60207 | 134° | 119km/h | 12198m | -8.2m/s | -59.7°C | 75.4% | 201.9hPa | 2.5V | 08:08:35 | 02:11:01 | 00:00:00 | |
| DF8AY | 2026-09-04 01:45:36 | 50.05287 | 11.60207 | 134° | 119km/h | 12198m | -8.2m/s | -59.7°C | 69.1% | 202hPa | 2.5V | 08:08:42 | 02:11:01 | 00:00:00 | |
| HSKMA3-T | 2026-09-04 01:45:35 | 50.05308 | 11.60174 | 134° | 119km/h | 12206m | -7.8m/s | -59.8°C | 68.5% | 201.8hPa | 2.5V | 08:08:42 | 02:11:00 | 00:00:00 | |
| NBG1-10 | 2026-09-04 01:45:35 | 50.05308 | 11.60174 | 135° | 120km/h | 12206m | -7.8m/s | -59.7°C | 74.7% | 201.7hPa | 2.5V | 00:00:00 | 02:11:00 | 00:00:00 | |
| DL1NUX | 2026-09-04 01:45:33 | 50.05456 | 11.59941 | 134° | 120km/h | 12261m | -7.8m/s | -60.1°C | 71.3% | 199.9hPa | 2.5V | 08:08:43 | 02:10:53 | 00:00:00 | |
| DM0DOS-11 | 2026-09-04 01:45:32 | 50.05500 | 11.59873 | 134° | 122km/h | 12276m | -8m/s | -60.2°C | 70.2% | 199.5hPa | 2.6V | 08:08:45 | 02:10:51 | 00:00:00 | |
| BIOWL1-15 | 2026-09-04 01:45:30 | 50.05413 | 11.60008 | 135° | 120km/h | 12245m | -7.6m/s | -60°C | 66.2% | 200.4hPa | 2.5V | 08:08:42 | 02:10:55 | 00:00:00 | |
| DF8AY | 2026-09-04 01:45:25 | 50.05521 | 11.59840 | 135° | 120km/h | 12285m | -7.8m/s | -60.2°C | 64.2% | 199.2hPa | 2.6V | 08:09:33 | 02:10:50 | 00:00:00 | |
| DB0NH | 2026-09-04 01:45:25 | 50.05521 | 11.59840 | 136° | 120km/h | 12285m | -7.7m/s | -60.2°C | 69.6% | 199.2hPa | 2.6V | 08:08:00 | 02:10:50 | 00:00:00 | |
| SONDE2-11 | 2026-09-04 01:45:24 | 50.05543 | 11.59806 | 135° | 120km/h | 12293m | -8.1m/s | -60.3°C | 54.3% | 198.9hPa | 2.5V | 00:00:00 | 00:00:00 | 00:00:00 | |
| HSKMA3-T | 2026-09-04 01:45:24 | 50.05543 | 11.59806 | 136° | 122km/h | 12293m | -8.1m/s | -60.3°C | 63.9% | 198.9hPa | 2.5V | 08:09:33 | 02:10:49 | 00:00:00 | |
| DL1NUX | 2026-09-04 01:45:23 | 50.05672 | 11.59604 | 133° | 119km/h | 12339m | -7.3m/s | -60.7°C | 69.6% | 197.4hPa | 2.5V | 08:08:53 | 02:10:43 | 00:00:00 | |
| BIOWL1-15 | 2026-09-04 01:45:19 | 50.05777 | 11.59437 | 134° | 119km/h | 12378m | -7.7m/s | -61.1°C | 63.1% | 196.2hPa | 2.6V | 08:09:33 | 02:10:38 | 00:00:00 | |
| DM0DOS-11 | 2026-09-04 01:45:18 | 50.05713 | 11.59538 | 134° | 119km/h | 12355m | -7.5m/s | -60.9°C | 69.5% | 197hPa | 2.5V | 08:08:55 | 02:10:41 | 00:00:00 | |
| HSKMA3-T | 2026-09-04 01:45:14 | 50.05756 | 11.59471 | 134° | 120km/h | 12370m | -7.4m/s | -61°C | 63.2% | 196.5hPa | 2.6V | 08:09:33 | 02:10:39 | 00:00:00 | |
| SONCRA | 2026-09-04 01:45:14 | 50.05756 | 11.59471 | 134° | 119km/h | 12370m | -7.4m/s | -61.0°C | 54.0% | 196.5hPa | 2.5V | 00:00:00 | 00:00:00 | 00:00:00 | |
| DL6DJ-15 | 2026-09-04 01:45:12 | 50.05798 | 11.59404 | 134° | 119km/h | 12385m | -7.9m/s | -61.2°C | 53.9% | 196.0hPa | 2.5V | 00:00:00 | 00:00:00 | 00:00:00 | |
| DM0DOS-11 | 2026-09-04 01:45:11 | 50.05926 | 11.59201 | 134° | 122km/h | 12433m | -8.1m/s | -61.6°C | 69.1% | 194.5hPa | 2.5V | 08:09:05 | 02:10:31 | 00:00:00 | |
| BIOWL1-15 | 2026-09-04 01:45:03 | 50.05991 | 11.59101 | 136° | 122km/h | 12456m | -7.6m/s | -61.8°C | 62.1% | 193.8hPa | 2.5V | 08:09:33 | 02:10:28 | 00:00:00 | |
| DM0DOS-11 | 2026-09-04 01:45:01 | 50.06141 | 11.58864 | 134° | 120km/h | 12510m | -7.7m/s | -62.2°C | 68.7% | 192.2hPa | 2.5V | 08:09:15 | 02:10:21 | 00:00:00 | |
| DF8AY | 2026-09-04 01:44:58 | 50.06206 | 11.58761 | 135° | 124km/h | 12534m | -7.5m/s | -62.4°C | 61.6% | 191.4hPa | 2.5V | 08:09:33 | 02:10:18 | 00:00:00 | |
| BIOWL1-15 | 2026-09-04 01:44:52 | 50.06314 | 11.58583 | 134° | 122km/h | 12571m | -6.9m/s | -62.7°C | 60.8% | 190.2hPa | 2.6V | 08:09:33 | 02:10:13 | 00:00:00 | |
| HSKMA3-T | 2026-09-04 01:44:52 | 50.06228 | 11.58726 | 134° | 126km/h | 12541m | -7.3m/s | -62.5°C | 61.5% | 191.2hPa | 2.5V | 08:09:33 | 02:10:17 | 00:00:00 | |
| DM0DOS-11 | 2026-09-04 01:44:51 | 50.06357 | 11.58513 | 133° | 124km/h | 12587m | -7.5m/s | -62.8°C | 68.2% | 189.8hPa | 2.5V | 08:09:25 | 02:10:11 | 00:00:00 | |
| EDDB2-11 | 2026-09-04 01:44:49 | 50.06314 | 11.58583 | 133° | 122km/h | 12571m | -6.9m/s | -62.7°C | 52.7% | 190.2hPa | 2.5V | 00:00:00 | 00:00:00 | 00:00:00 | |
| DO3MHA-11 | 2026-09-04 01:44:47 | 50.06336 | 11.58548 | 135° | 124km/h | 12579m | -8.4m/s | -62.7°C | 68.2% | 190.0hPa | 2.5V | 00:00:00 | 02:10:12 | 00:00:00 | |
| DH8WE-5 | 2026-09-04 01:44:45 | 50.06357 | 11.58513 | 134° | 124km/h | 12587m | -7.5m/s | -62.8°C | 52.4% | 189.8hPa | 2.5V | 08:09:00 | 00:00:00 | 00:00:00 | |
| DL1NUX | 2026-09-04 01:44:43 | 50.06527 | 11.58223 | 131° | 124km/h | 12648m | -8.1m/s | -63.3°C | 66.4% | 187.8hPa | 2.5V | 08:09:33 | 02:10:03 | 00:00:00 | |
| HSKMA3-T | 2026-09-04 01:44:42 | 50.06442 | 11.58370 | 133° | 126km/h | 12618m | -7.9m/s | -63°C | 59.3% | 188.8hPa | 2.6V | 08:09:33 | 02:10:07 | 00:00:00 | |
| DL6DJ-15 | 2026-09-04 01:44:41 | 50.06464 | 11.58333 | 131° | 126km/h | 12625m | -7.5m/s | -63.1°C | 50.9% | 188.6hPa | 2.6V | 00:00:00 | 00:00:00 | 00:00:00 | |
| DB0UT-7 | 2026-09-04 01:44:40 | 50.06485 | 11.58296 | 132° | 130km/h | 12633m | -7.9m/s | -63.1°C | 66.3% | 188.3hPa | 2.6V | 00:00:00 | 02:10:05 | 00:00:00 | |
| DM0DOS-11 | 2026-09-04 01:44:38 | 50.06569 | 11.58150 | 132° | 128km/h | 12663m | -8.6m/s | -63.4°C | 65.8% | 187.4hPa | 2.6V | 08:09:35 | 02:10:01 | 00:00:00 | |
| DO3MHA-11 | 2026-09-04 01:44:37 | 50.06547 | 11.58186 | 133° | 128km/h | 12656m | -6.8m/s | -63.3°C | 66.2% | 187.6hPa | 2.5V | 00:00:00 | 02:10:02 | 00:00:00 | |
| DF3TZ-5 | 2026-09-04 01:44:36 | 50.06591 | 11.58113 | 131° | 126km/h | 12671m | -7.6m/s | -63.5°C | 50.3% | 187.2hPa | 2.5V | 00:00:00 | 00:00:00 | 00:00:00 | |
| DL1NUX | 2026-09-04 01:44:33 | 50.06740 | 11.57846 | 129° | 128km/h | 12725m | -7m/s | -63.8°C | 64% | 185.5hPa | 2.5V | 08:09:43 | 02:09:53 | 00:00:00 | |
| HSKMA3-T | 2026-09-04 01:44:32 | 50.06655 | 11.58001 | 132° | 130km/h | 12695m | -7.8m/s | -63.6°C | 57.4% | 186.5hPa | 2.5V | 08:10:24 | 02:09:57 | 00:00:00 | |
| BIOWL1-15 | 2026-09-04 01:44:31 | 50.06677 | 11.57963 | 131° | 130km/h | 12703m | -8m/s | -63.7°C | 57.1% | 186.2hPa | 2.6V | 08:10:24 | 02:09:56 | 00:00:00 | |
| OE5DXL-15 | 2026-09-04 01:44:31 | 50.06677 | 11.57962 | 132° | 133km/h | 12703m | -7.9m/s | -63.6°C | 64.7% | 186.1hPa | 2.6V | 00:00:00 | 00:00:00 | 00:00:00 | |
| DJ8HS-15 | 2026-09-04 01:44:30 | 50.06699 | 11.57923 | 130° | 131km/h | 12710m | -6.9m/s | -63.6°C | 64.6% | 185.9hPa | 2.6V | 00:00:00 | 02:09:55 | 00:00:00 | |
| NBG1-10 | 2026-09-04 01:44:29 | 50.06719 | 11.57884 | 130° | 135km/h | 12718m | -7.9m/s | -63.7°C | 64.2% | 185.7hPa | 2.6V | 00:00:00 | 02:09:54 | 00:00:00 | |
| DO3MHA-11 | 2026-09-04 01:44:27 | 50.06761 | 11.57807 | 131° | 131km/h | 12733m | -8.4m/s | -63.8°C | 63.7% | 185.3hPa | 2.6V | 00:00:00 | 02:09:52 | 00:00:00 | |
| DH8WE-5 | 2026-09-04 01:44:26 | 50.06782 | 11.57768 | 131° | 131km/h | 12741m | -7.5m/s | -63.9°C | 48.2% | 185.1hPa | 2.6V | 08:10:00 | 00:00:00 | 00:00:00 | |
| DB0NH | 2026-09-04 01:44:25 | 50.06803 | 11.57729 | 130° | 135km/h | 12749m | -8.0m/s | -63.9°C | 63.3% | 184.8hPa | 2.6V | 00:00:00 | 02:09:50 | 00:00:00 | |
| DL1NUX | 2026-09-04 01:44:23 | 50.06952 | 11.57449 | 128° | 133km/h | 12804m | -8.5m/s | -64.3°C | 61.2% | 183.1hPa | 2.6V | 08:09:53 | 02:09:43 | 00:00:00 | |
| BIOWL1-15 | 2026-09-04 01:44:21 | 50.06888 | 11.57570 | 129° | 131km/h | 12780m | -7.8m/s | -64.1°C | 54.8% | 183.9hPa | 2.5V | 08:10:24 | 02:09:46 | 00:00:00 | |
| AM1SDL-15 | 2026-09-04 01:44:19 | 50.06930 | 11.57490 | 130° | 135km/h | 12796m | -8.1m/s | -64.2°C | 61.6% | 183.3hPa | 2.5V | 00:00:00 | 02:09:44 | 00:00:00 | |
| EDDB2-11 | 2026-09-04 01:44:18 | 50.06973 | 11.57409 | 128° | 131km/h | 12813m | -8.1m/s | -64.4°C | 46.1% | 182.9hPa | 2.5V | 00:00:00 | 00:00:00 | 00:00:00 | |
| DO3MHA-11 | 2026-09-04 01:44:17 | 50.06973 | 11.57408 | 129° | 135km/h | 12813m | -8.1m/s | -64.3°C | 61.4% | 182.8hPa | 2.5V | 00:00:00 | 02:09:42 | 00:00:00 | |
| DO9HM | 2026-09-04 01:44:15 | 50.06994 | 11.57368 | 130° | 133km/h | 12821m | -8.1m/s | -64.4°C | 46.1% | 182.6hPa | 2.5V | 00:00:00 | 00:00:00 | 00:00:00 | |
| DL1NUX | 2026-09-04 01:44:13 | 50.07170 | 11.57042 | 130° | 139km/h | 12886m | -8.6m/s | -64.9°C | 62.2% | 180.7hPa | 2.5V | 08:10:03 | 02:09:33 | 00:00:00 | |
| SONCRA | 2026-09-04 01:44:12 | 50.07080 | 11.57206 | 130° | 135km/h | 12853m | -7.8m/s | -64.7°C | 46.1% | 181.7hPa | 2.6V | 00:00:00 | 00:00:00 | 00:00:00 | |
| DM0DOS-11 | 2026-09-04 01:44:11 | 50.07215 | 11.56960 | 131° | 137km/h | 12903m | -8.4m/s | -65.1°C | 62.3% | 180.2hPa | 2.6V | 08:10:05 | 02:09:31 | 00:00:00 | |
| BIOWL1-15 | 2026-09-04 01:44:11 | 50.07102 | 11.57165 | 130° | 137km/h | 12861m | -8.4m/s | -64.8°C | 53.6% | 181.4hPa | 2.5V | 08:10:24 | 02:09:36 | 00:00:00 | |
| HSKMA3-T | 2026-09-04 01:44:10 | 50.07125 | 11.57123 | 130° | 137km/h | 12870m | -8.3m/s | -64.8°C | 53.6% | 181.2hPa | 2.5V | 08:10:24 | 02:09:35 | 00:00:00 | |
| DB0UT-7 | 2026-09-04 01:44:10 | 50.07125 | 11.57123 | 131° | 133km/h | 12870m | -8.3m/s | -64.7°C | 61.7% | 181.1hPa | 2.5V | 00:00:00 | 00:00:00 | 00:00:00 | |
| DO3MHA-11 | 2026-09-04 01:44:07 | 50.07192 | 11.57001 | 132° | 139km/h | 12895m | -8.0m/s | -65.0°C | 62.1% | 180.4hPa | 2.5V | 00:00:00 | 02:09:32 | 00:00:00 | |
| EDDB2-12 | 2026-09-04 01:44:06 | 50.07216 | 11.56960 | 131° | 137km/h | 12903m | -8.4m/s | -65.1°C | 46.5% | 180.2hPa | 2.5V | 00:00:00 | 00:00:00 | 00:00:00 | |
| DF3TZ-5 | 2026-09-04 01:44:05 | 50.07262 | 11.56879 | 131° | 137km/h | 12920m | -8.2m/s | -65.2°C | 46.9% | 179.7hPa | 2.5V | 00:00:00 | 00:00:00 | 00:00:00 | |
| DL1NUX | 2026-09-04 01:44:03 | 50.07403 | 11.56635 | 131° | 141km/h | 12970m | -8.5m/s | -65.4°C | 63.4% | 178.2hPa | 2.5V | 08:10:13 | 02:09:23 | 00:00:00 | |
| DM0DOS-11 | 2026-09-04 01:44:01 | 50.07450 | 11.56553 | 132° | 142km/h | 12987m | -8.4m/s | -65.5°C | 64.4% | 177.7hPa | 2.5V | 08:10:15 | 02:09:21 | 00:00:00 | |
| DF8AY | 2026-09-04 01:44:00 | 50.07355 | 11.56716 | 132° | 139km/h | 12953m | -8.3m/s | -65.3°C | 53.4% | 178.8hPa | 2.6V | 08:10:24 | 02:09:25 | 00:00:00 | |
| BIOWL1-15 | 2026-09-04 01:43:59 | 50.07379 | 11.56676 | 132° | 141km/h | 12961m | -8.4m/s | -65.4°C | 53.4% | 178.5hPa | 2.5V | 08:10:24 | 02:09:24 | 00:00:00 | |
| DF7PN | 2026-09-04 01:43:58 | 50.07598 | 11.56307 | 134° | 142km/h | 13037m | -8.0m/s | -65.6°C | 47.8% | 176.3hPa | 2.5V | 00:00:00 | 00:00:00 | 00:00:00 | |
| DO3MHA-11 | 2026-09-04 01:43:57 | 50.07427 | 11.56593 | 133° | 142km/h | 12978m | -8.4m/s | -65.4°C | 63.8% | 178.0hPa | 2.5V | 00:00:00 | 02:09:22 | 00:00:00 | |
| NBG1-10 | 2026-09-04 01:43:56 | 50.07451 | 11.56553 | 133° | 144km/h | 12987m | -8.4m/s | -65.5°C | 64.4% | 177.7hPa | 2.5V | 08:10:00 | 02:09:21 | 00:00:00 | |
| DB0NH | 2026-09-04 01:43:55 | 50.07475 | 11.56512 | 133° | 144km/h | 12995m | -8.5m/s | -65.5°C | 65.2% | 177.5hPa | 2.6V | 00:00:00 | 02:09:20 | 00:00:00 | |
| DL1NUX | 2026-09-04 01:43:53 | 50.07648 | 11.56225 | 134° | 144km/h | 13053m | -8.7m/s | -65.7°C | 63.7% | 175.8hPa | 2.6V | 08:10:23 | 02:09:13 | 00:00:00 | |
| SO1NDE-10 | 2026-09-04 01:43:53 | 50.07523 | 11.56430 | 134° | 144km/h | 13012m | -8.2m/s | -65.5°C | 65.7% | 177.0hPa | 2.5V | 00:00:00 | 02:09:18 | 00:00:00 | |
| DM0DOS-11 | 2026-09-04 01:43:51 | 50.07701 | 11.56145 | 135° | 146km/h | 13070m | -8.3m/s | -65.8°C | 63.7% | 175.3hPa | 2.5V | 08:10:25 | 02:09:11 | 00:00:00 | |
| BIOWL1-15 | 2026-09-04 01:43:49 | 50.07623 | 11.56266 | 134° | 144km/h | 13045m | -8.1m/s | -65.7°C | 52.9% | 176hPa | 2.6V | 08:10:24 | 02:09:14 | 00:00:00 | |
| HSKMA3-T | 2026-09-04 01:43:48 | 50.07649 | 11.56225 | 134° | 144km/h | 13053m | -8.7m/s | -65.7°C | 52.6% | 175.8hPa | 2.6V | 08:10:24 | 02:09:13 | 00:00:00 | |
| EDDB2-11 | 2026-09-04 01:43:47 | 50.07701 | 11.56145 | 135° | 146km/h | 13070m | -8.4m/s | -65.8°C | 47.2% | 175.3hPa | 2.5V | 00:00:00 | 00:00:00 | 00:00:00 | |
| DM7RM-13 | 2026-09-04 01:43:46 | 50.07674 | 11.56185 | 136° | 144km/h | 13062m | -8.3m/s | -65.8°C | 47.2% | 175.6hPa | 2.5V | 08:10:00 | 00:00:00 | 00:00:00 | |
| DO9HM | 2026-09-04 01:43:44 | 50.07727 | 11.56105 | 137° | 146km/h | 13079m | -8.4m/s | -65.8°C | 46.8% | 175.0hPa | 2.5V | 00:00:00 | 00:00:00 | 00:00:00 | |
| DL1NUX | 2026-09-04 01:43:43 | 50.07919 | 11.55830 | 137° | 146km/h | 13137m | -8m/s | -65.6°C | 59.7% | 173.4hPa | 2.5V | 08:10:33 | 02:09:03 | 00:00:00 | |
| DH8WE-5 | 2026-09-04 01:43:43 | 50.07781 | 11.56025 | 138° | 148km/h | 13096m | -8.3m/s | -65.8°C | 46.1% | 174.6hPa | 2.6V | 08:11:00 | 00:00:00 | 00:00:00 | |
| AM1SDL-15 | 2026-09-04 01:43:42 | 50.07808 | 11.55986 | 138° | 144km/h | 13104m | -8.4m/s | -65.7°C | 62.1% | 174.3hPa | 2.6V | 00:00:00 | 02:09:07 | 00:00:00 | |
| SONCRA | 2026-09-04 01:43:41 | 50.07864 | 11.55908 | 138° | 146km/h | 13121m | -8.0m/s | -65.7°C | 45.2% | 173.9hPa | 2.6V | 00:00:00 | 00:00:00 | 00:00:00 | |
| DF2AP-13 | 2026-09-04 01:43:40 | 50.07864 | 11.55908 | 139° | 142km/h | 13121m | -8.0m/s | -65.7°C | 61.3% | 173.8hPa | 2.6V | 00:00:00 | 02:09:05 | 00:00:00 | |
| DM0DOS-11 | 2026-09-04 01:43:39 | 50.07973 | 11.55754 | 138° | 142km/h | 13153m | -8m/s | -65.6°C | 59% | 172.9hPa | 2.6V | 08:10:35 | 02:09:01 | 00:00:00 | |
| DF8AY | 2026-09-04 01:43:39 | 50.07892 | 11.55869 | 138° | 148km/h | 13129m | -8.2m/s | -65.7°C | 50.2% | 173.6hPa | 2.5V | 08:12:06 | 02:09:04 | 00:00:00 | |
| BIOWL1-15 | 2026-09-04 01:43:38 | 50.07919 | 11.55830 | 138° | 146km/h | 13137m | -8m/s | -65.6°C | 49.9% | 173.4hPa | 2.5V | 08:12:06 | 02:09:03 | 00:00:00 | |
| DK7TD | 2026-09-04 01:43:37 | 50.07946 | 11.55791 | 138° | 144km/h | 13145m | -7.8m/s | -65.6°C | 49.5% | 173.2hPa | 2.6V | 08:11:15 | 02:09:02 | 00:00:00 | |
| DO3MHA-11 | 2026-09-04 01:43:37 | 50.07946 | 11.55791 | 138° | 144km/h | 13145m | -7.7m/s | -65.6°C | 59.0% | 173.1hPa | 2.5V | 00:00:00 | 02:09:02 | 00:00:00 | |
| ANDY1245 | 2026-09-04 01:43:36 | 50.07946 | 11.55791 | 139° | 144km/h | 13145m | -7.8m/s | -65.6°C | 43.5% | 173.2hPa | 2.5V | 08:11:00 | 00:00:00 | 00:00:00 | |
| EDDB2-12 | 2026-09-04 01:43:35 | 50.08001 | 11.55717 | 139° | 142km/h | 13160m | -7.5m/s | -65.7°C | 43.3% | 172.7hPa | 2.5V | 00:00:00 | 00:00:00 | 00:00:00 | |
| DL1NUX | 2026-09-04 01:43:33 | 50.08199 | 11.55465 | 141° | 144km/h | 13217m | -8.5m/s | -65.2°C | 55.2% | 171.1hPa | 2.5V | 08:10:43 | 02:08:53 | 00:00:00 | |
| OE5DRO-10 | 2026-09-04 01:43:32 | 50.08086 | 11.55607 | 141° | 100km/h | 13184m | -8.7m/s | -65.5°C | 58.5% | 172.0hPa | 2.5V | 00:00:00 | 00:00:00 | 00:00:00 | |
| DJTTGO | 2026-09-04 01:43:31 | 50.08086 | 11.55607 | 141° | 144km/h | 13184m | -8.7m/s | -65.6°C | 43.0% | 172.1hPa | 2.5V | 08:11:00 | 00:00:00 | 00:00:00 | |
| DM0DOS-11 | 2026-09-04 01:43:29 | 50.08257 | 11.55397 | 143° | 142km/h | 13234m | -8.3m/s | -65.2°C | 53.4% | 170.7hPa | 2.5V | 08:10:45 | 02:08:51 | 00:00:00 | |
| DF8AY | 2026-09-04 01:43:28 | 50.08199 | 11.55465 | 142° | 144km/h | 13217m | -8.5m/s | -65.3°C | 47% | 171.1hPa | 2.5V | 08:12:06 | 02:08:53 | 00:00:00 | |
| HSKMA3-T | 2026-09-04 01:43:28 | 50.08228 | 11.55431 | 142° | 142km/h | 13226m | -7.9m/s | -65.3°C | 46.5% | 170.9hPa | 2.5V | 08:11:15 | 02:08:52 | 00:00:00 | |
| BIOWL1-15 | 2026-09-04 01:43:27 | 50.08344 | 11.55296 | 143° | 142km/h | 13258m | -8.3m/s | -65.4°C | 44.4% | 170hPa | 2.5V | 08:12:06 | 02:08:48 | 00:00:00 | |
| DO3MHA-11 | 2026-09-04 01:43:27 | 50.08228 | 11.55431 | 143° | 142km/h | 13226m | -7.8m/s | -65.2°C | 54.6% | 170.8hPa | 2.5V | 00:00:00 | 02:08:52 | 00:00:00 | |
| AM1SDL-15 | 2026-09-04 01:43:26 | 50.08256 | 11.55397 | 144° | 141km/h | 13234m | -8.3m/s | -65.2°C | 53.4% | 170.7hPa | 2.5V | 08:10:00 | 02:08:51 | 00:00:00 | |
| DB0NH | 2026-09-04 01:43:25 | 50.08286 | 11.55363 | 144° | 135km/h | 13242m | -7.6m/s | -65.2°C | 53.0% | 170.4hPa | 2.6V | 00:00:00 | 02:08:50 | 00:00:00 | |
| DB0ND-19 | 2026-09-04 01:43:24 | 50.08315 | 11.55329 | 143° | 142km/h | 13250m | -8.3m/s | -65.3°C | 38.2% | 170.2hPa | 2.6V | 00:00:00 | 00:00:00 | 00:00:00 | |
| DL1NUX | 2026-09-04 01:43:23 | 50.08485 | 11.55130 | 143° | 139km/h | 13298m | -7.6m/s | -65.5°C | 49.7% | 168.9hPa | 2.6V | 08:10:53 | 02:08:43 | 00:00:00 | |
| SO1NDE-10 | 2026-09-04 01:43:23 | 50.08344 | 11.55296 | 144° | 131km/h | 13258m | -8.2m/s | -65.3°C | 52.0% | 170.0hPa | 2.5V | 00:00:00 | 02:08:48 | 00:00:00 | |
| DH8WE-5 | 2026-09-04 01:43:22 | 50.08343 | 11.55296 | 144° | 142km/h | 13258m | -8.3m/s | -65.4°C | 37.8% | 170.0hPa | 2.5V | 08:11:00 | 00:00:00 | 00:00:00 | |
| BIOWL9-15 | 2026-09-04 01:43:21 | 50.08401 | 11.55230 | 143° | 139km/h | 13274m | -8.7m/s | -65.4°C | 37.0% | 169.6hPa | 2.5V | 00:00:00 | 00:00:00 | 00:00:00 | |
| DL0LBS | 2026-09-04 01:43:19 | 50.08429 | 11.55197 | 144° | 141km/h | 13283m | -7.8m/s | -65.5°C | 36.6% | 169.3hPa | 2.5V | 08:11:00 | 00:00:00 | 00:00:00 | |
| DM0DOS-11 | 2026-09-04 01:43:18 | 50.08542 | 11.55066 | 144° | 141km/h | 13314m | -7.5m/s | -65.7°C | 48.7% | 168.4hPa | 2.5V | 08:10:55 | 02:08:41 | 00:00:00 | |
| BIOWL1-15 | 2026-09-04 01:43:16 | 50.08542 | 11.55066 | 144° | 141km/h | 13314m | -7.5m/s | -65.7°C | 40.5% | 168.4hPa | 2.5V | 08:12:06 | 02:08:41 | 00:00:00 | |
| DF8AY | 2026-09-04 01:43:15 | 50.08571 | 11.55033 | 144° | 142km/h | 13323m | -8.6m/s | -65.7°C | 40% | 168.2hPa | 2.5V | 08:12:06 | 02:08:40 | 00:00:00 | |
| AM1SDL-15 | 2026-09-04 01:43:14 | 50.08599 | 11.55000 | 144° | 135km/h | 13331m | -7.8m/s | -65.7°C | 47.9% | 167.9hPa | 2.5V | 00:00:00 | 02:08:39 | 00:00:00 | |
| DF2AP-13 | 2026-09-04 01:43:10 | 50.08713 | 11.54871 | 144° | 117km/h | 13364m | -7.8m/s | -65.9°C | 46.5% | 167.0hPa | 2.5V | 00:00:00 | 02:08:35 | 00:00:00 | |
| DM0DOS-11 | 2026-09-04 01:43:08 | 50.08847 | 11.54712 | 140° | 131km/h | 13403m | -7.3m/s | -65.9°C | 43% | 165.9hPa | 2.5V | 08:11:06 | 02:08:30 | 00:00:00 | |
| BIOWL1-15 | 2026-09-04 01:43:06 | 50.08821 | 11.54744 | 142° | 133km/h | 13395m | -8.7m/s | -65.9°C | 34.2% | 166.2hPa | 2.6V | 08:12:06 | 02:08:31 | 00:00:00 | |
| DK7TD | 2026-09-04 01:43:05 | 50.08847 | 11.54712 | 141° | 133km/h | 13403m | -7.3m/s | -65.9°C | 33.4% | 165.9hPa | 2.5V | 08:11:15 | 02:08:30 | 00:00:00 | |
| DF8AY | 2026-09-04 01:43:03 | 50.08899 | 11.54648 | 142° | 128km/h | 13419m | -7.6m/s | -65.8°C | 31.6% | 165.5hPa | 2.5V | 08:12:06 | 02:08:28 | 00:00:00 | |
| DL1NUX | 2026-09-04 01:43:03 | 50.09023 | 11.54498 | 143° | 120km/h | 13460m | -8.2m/s | -65.7°C | 36% | 164.4hPa | 2.5V | 08:11:13 | 02:08:23 | 00:00:00 | |
| OE5DXL-15 | 2026-09-04 01:43:01 | 50.08949 | 11.54586 | 143° | 106km/h | 13436m | -8.2m/s | -65.7°C | 38.5% | 165.1hPa | 2.6V | 00:00:00 | 00:00:00 | 00:00:00 | |
| DM0DOS-11 | 2026-09-04 01:42:58 | 50.09095 | 11.54414 | 142° | 115km/h | 13484m | -8.1m/s | -65.3°C | 32.5% | 163.8hPa | 2.6V | 08:11:16 | 02:08:20 | 00:00:00 | |
| HSKMA3-T | 2026-09-04 01:42:56 | 50.09071 | 11.54441 | 143° | 117km/h | 13476m | -7.9m/s | -65.6°C | 26.1% | 164hPa | 2.6V | 08:11:15 | 02:08:21 | 00:00:00 | |
| DK7TD | 2026-09-04 01:42:54 | 50.09118 | 11.54386 | 143° | 113km/h | 13492m | -7.8m/s | -65.2°C | 24.5% | 163.6hPa | 2.5V | 08:12:06 | 02:08:19 | 00:00:00 | |
| DL1NUX | 2026-09-04 01:42:53 | 50.09250 | 11.54228 | 142° | 104km/h | 13539m | -7.6m/s | -64.7°C | 26.3% | 162.3hPa | 2.5V | 08:11:23 | 02:08:13 | 00:00:00 | |
| DF8AY | 2026-09-04 01:42:52 | 50.09163 | 11.54333 | 143° | 113km/h | 13508m | -7.6m/s | -65.2°C | 23.3% | 163.1hPa | 2.5V | 08:12:06 | 02:08:17 | 00:00:00 | |
| BIOWL9-15 | 2026-09-04 01:42:50 | 50.09208 | 11.54279 | 141° | 108km/h | 13524m | -7.7m/s | -65.0°C | 18.3% | 162.7hPa | 2.5V | 00:00:00 | 00:00:00 | 00:00:00 | |
| SONDE2-11 | 2026-09-04 01:42:49 | 50.09250 | 11.54228 | 142° | 104km/h | 13540m | -7.6m/s | -64.7°C | 16.9% | 162.3hPa | 2.5V | 00:00:00 | 00:00:00 | 00:00:00 | |
| DJTTGO | 2026-09-04 01:42:48 | 50.09229 | 11.54253 | 143° | 106km/h | 13532m | -8.2m/s | -64.8°C | 17.6% | 162.5hPa | 2.5V | 08:12:00 | 00:00:00 | 00:00:00 | |
| DO3MHA-11 | 2026-09-04 01:42:47 | 50.09271 | 11.54203 | 143° | 100km/h | 13548m | -8.8m/s | -64.6°C | 25.3% | 162.1hPa | 2.5V | 00:00:00 | 02:08:12 | 00:00:00 | |
| DM0DOS-11 | 2026-09-04 01:42:46 | 50.09312 | 11.54154 | 142° | 100km/h | 13564m | -8.9m/s | -64.4°C | 24% | 161.6hPa | 2.5V | 08:11:26 | 02:08:10 | 00:00:00 | |
| BIOWL1-15 | 2026-09-04 01:42:46 | 50.09332 | 11.54130 | 143° | 100km/h | 13573m | -7.9m/s | -64.4°C | 18.4% | 161.4hPa | 2.6V | 08:12:06 | 02:08:09 | 00:00:00 | |
| HSKMA3-T | 2026-09-04 01:42:45 | 50.09312 | 11.54154 | 142° | 102km/h | 13564m | -8.9m/s | -64.4°C | 18.9% | 161.6hPa | 2.5V | 08:12:06 | 02:08:10 | 00:00:00 | |
| EDDB2-11 | 2026-09-04 01:42:44 | 50.09332 | 11.54130 | 142° | 99km/h | 13573m | -7.9m/s | -64.4°C | 15.0% | 161.4hPa | 2.6V | 00:00:00 | 00:00:00 | 00:00:00 | |
| DK7TD | 2026-09-04 01:42:43 | 50.09352 | 11.54106 | 142° | 100km/h | 13581m | -8.5m/s | -64.3°C | 18% | 161.2hPa | 2.6V | 08:12:06 | 02:08:08 | 00:00:00 | |
| DL1NUX | 2026-09-04 01:42:43 | 50.09446 | 11.53980 | 138° | 95km/h | 13621m | -8.1m/s | -63.7°C | 20.3% | 160.2hPa | 2.6V | 08:11:33 | 02:08:03 | 00:00:00 | |
| DF2AP-13 | 2026-09-04 01:42:40 | 50.09410 | 11.54030 | 139° | 89km/h | 13605m | -7.8m/s | -63.9°C | 21.3% | 160.5hPa | 2.5V | 00:00:00 | 02:08:05 | 00:00:00 | |
| SONCRA | 2026-09-04 01:42:39 | 50.09447 | 11.53980 | 138° | 93km/h | 13621m | -8.1m/s | -63.7°C | 12.5% | 160.2hPa | 2.5V | 00:00:00 | 00:00:00 | 00:00:00 | |
| DM0DOS-11 | 2026-09-04 01:42:38 | 50.09498 | 11.53904 | 135° | 91km/h | 13646m | -8.2m/s | -63.6°C | 19% | 159.5hPa | 2.5V | 08:11:36 | 02:08:00 | 00:00:00 | |
| DF8AY | 2026-09-04 01:42:37 | 50.09464 | 11.53955 | 137° | 95km/h | 13629m | -8.5m/s | -63.7°C | 15.4% | 159.9hPa | 2.6V | 08:12:06 | 02:08:02 | 00:00:00 | |
| BIOWL1-15 | 2026-09-04 01:42:36 | 50.09514 | 11.53879 | 135° | 88km/h | 13654m | -7.9m/s | -63.5°C | 14.4% | 159.3hPa | 2.5V | 08:12:06 | 02:07:59 | 00:00:00 | |
| HSKMA3-T | 2026-09-04 01:42:35 | 50.09498 | 11.53904 | 135° | 91km/h | 13646m | -8.2m/s | -63.6°C | 14.8% | 159.5hPa | 2.5V | 08:12:06 | 02:08:00 | 00:00:00 | |
| DL1NUX | 2026-09-04 01:42:33 | 50.09609 | 11.53732 | 135° | 89km/h | 13702m | -8.3m/s | -63.4°C | 17.6% | 158hPa | 2.5V | 08:11:43 | 02:07:53 | 00:00:00 | |
| DF8AY | 2026-09-04 01:42:26 | 50.09642 | 11.53681 | 134° | 91km/h | 13719m | -9.2m/s | -63.3°C | 12.4% | 157.6hPa | 2.6V | 08:12:06 | 02:07:51 | 00:00:00 | |
| HSKMA3-T | 2026-09-04 01:42:24 | 50.09673 | 11.53631 | 134° | 88km/h | 13735m | -8.5m/s | -63.3°C | 11.8% | 157.2hPa | 2.5V | 08:12:06 | 02:07:49 | 00:00:00 | |
| BIOWL1-15 | 2026-09-04 01:42:23 | 50.09688 | 11.53606 | 134° | 88km/h | 13743m | -8m/s | -63.4°C | 11.5% | 157hPa | 2.5V | 08:12:06 | 02:07:48 | 00:00:00 | |
| DK7TD | 2026-09-04 01:42:20 | 50.09733 | 11.53531 | 133° | 86km/h | 13768m | -8m/s | -63.6°C | 10.8% | 156.3hPa | 2.6V | 08:12:06 | 02:07:45 | 00:00:00 | |
| BIOWL9-15 | 2026-09-04 01:42:19 | 50.09748 | 11.53506 | 132° | 88km/h | 13776m | -8.4m/s | -63.6°C | 8.9% | 156.1hPa | 2.6V | 00:00:00 | 00:00:00 | 00:00:00 | |
| DM0DOS-11 | 2026-09-04 01:42:18 | 50.09807 | 11.53400 | 130° | 91km/h | 13809m | -8.4m/s | -62.5°C | 13.7% | 155.3hPa | 2.6V | 08:11:56 | 02:07:40 | 00:00:00 | |
| DL1NUX | 2026-09-04 01:42:18 | 50.09763 | 11.53479 | 131° | 89km/h | 13784m | -8.2m/s | -63.5°C | 15.7% | 155.9hPa | 2.5V | 08:11:53 | 02:07:43 | 00:00:00 | |
| DF8AY | 2026-09-04 01:42:16 | 50.09792 | 11.53427 | 131° | 89km/h | 13801m | -8.5m/s | -62.9°C | 9.6% | 155.5hPa | 2.5V | 08:12:06 | 02:07:41 | 00:00:00 | |
| BIOWL1-15 | 2026-09-04 01:42:13 | 50.09836 | 11.53345 | 129° | 89km/h | 13826m | -8.5m/s | -62.3°C | 8.8% | 154.8hPa | 2.5V | 08:12:06 | 02:07:38 | 00:00:00 | |
| DK7TD | 2026-09-04 01:42:09 | 50.09892 | 11.53235 | 127° | 84km/h | 13859m | -8.2m/s | -62°C | 8.1% | 154hPa | 2.6V | 08:12:06 | 02:07:34 | 00:00:00 | |
| DM0DOS-11 | 2026-09-04 01:42:08 | 50.09944 | 11.53133 | 128° | 82km/h | 13892m | -8.1m/s | -61.5°C | 11.3% | 153.2hPa | 2.5V | 08:12:06 | 02:07:30 | 00:00:00 | |
| DF8AY | 2026-09-04 01:42:05 | 50.09944 | 11.53133 | 128° | 82km/h | 13892m | -8.1m/s | -61.5°C | 7.4% | 153.2hPa | 2.5V | 08:12:06 | 02:07:30 | 00:00:00 | |
| HSKMA3-T | 2026-09-04 01:42:03 | 50.09971 | 11.53083 | 130° | 84km/h | 13909m | -8m/s | -61.1°C | 7.1% | 152.8hPa | 2.6V | 08:12:57 | 02:07:28 | 00:00:00 | |
| DL1NUX | 2026-09-04 01:42:03 | 50.10039 | 11.52952 | 127° | 88km/h | 13951m | -8.6m/s | -60.8°C | 10% | 151.8hPa | 2.5V | 08:12:13 | 02:07:23 | 00:00:00 | |
| BIOWL1-15 | 2026-09-04 01:42:02 | 50.10103 | 11.52815 | 126° | 84km/h | 13993m | -8.8m/s | -61°C | 6.2% | 150.7hPa | 2.5V | 08:12:57 | 02:07:18 | 00:00:00 | |
| DF8AY | 2026-09-04 01:41:59 | 50.10090 | 11.52842 | 125° | 86km/h | 13985m | -8.4m/s | -61°C | 6.3% | 150.9hPa | 2.5V | 08:12:57 | 02:07:19 | 00:00:00 | |
| DM0DOS-11 | 2026-09-04 01:41:58 | 50.10090 | 11.52842 | 125° | 86km/h | 13985m | -8.3m/s | -61°C | 9.9% | 150.9hPa | 2.5V | 08:12:17 | 02:07:19 | 00:00:00 | |
| DK7TD | 2026-09-04 01:41:58 | 50.10039 | 11.52952 | 128° | 88km/h | 13951m | -8.6m/s | -60.8°C | 6.5% | 151.8hPa | 2.5V | 08:13:48 | 02:07:23 | 00:00:00 | |
| DF7PN | 2026-09-04 01:41:54 | 50.10103 | 11.52815 | 125° | 84km/h | 13993m | -8.8m/s | -61.0°C | 4.9% | 150.7hPa | 2.5V | 00:00:00 | 00:00:00 | 00:00:00 | |
| DL1NUX | 2026-09-04 01:41:53 | 50.10172 | 11.52681 | 127° | 93km/h | 14032m | -8.1m/s | -61.2°C | 9.7% | 149.8hPa | 2.5V | 08:12:23 | 02:07:13 | 00:00:00 | |
| HSKMA3-T | 2026-09-04 01:41:52 | 50.10115 | 11.52789 | 128° | 84km/h | 14001m | -7.7m/s | -61°C | 6.1% | 150.6hPa | 2.5V | 08:12:57 | 02:07:17 | 00:00:00 | |
| DM0DOS-11 | 2026-09-04 01:41:48 | 50.10228 | 11.52562 | 126° | 95km/h | 14065m | -8.4m/s | -61.2°C | 9.5% | 149hPa | 2.5V | 08:12:27 | 02:07:09 | 00:00:00 | |
| BIOWL1-15 | 2026-09-04 01:41:48 | 50.10200 | 11.52622 | 126° | 93km/h | 14049m | -8.6m/s | -61.3°C | 5.7% | 149.4hPa | 2.6V | 08:12:57 | 02:07:11 | 00:00:00 | |
| DK7TD | 2026-09-04 01:41:48 | 50.10172 | 11.52681 | 127° | 93km/h | 14032m | -8.1m/s | -61.2°C | 5.8% | 149.8hPa | 2.5V | 08:13:48 | 02:07:13 | 00:00:00 | |
| SONDE2-11 | 2026-09-04 01:41:46 | 50.10200 | 11.52622 | 125° | 91km/h | 14049m | -8.6m/s | -61.3°C | 4.7% | 149.4hPa | 2.5V | 00:00:00 | 00:00:00 | 00:00:00 | |
| DF8AY | 2026-09-04 01:41:43 | 50.10242 | 11.52532 | 126° | 95km/h | 14074m | -8.4m/s | -61.3°C | 5.4% | 148.8hPa | 2.5V | 08:12:57 | 02:07:08 | 00:00:00 | |
| DL1NUX | 2026-09-04 01:41:43 | 50.10316 | 11.52382 | 127° | 97km/h | 14115m | -8.2m/s | -61.1°C | 9.2% | 147.8hPa | 2.5V | 08:12:33 | 02:07:03 | 00:00:00 | |
| HSKMA3-T | 2026-09-04 01:41:41 | 50.10271 | 11.52473 | 128° | 95km/h | 14090m | -8.8m/s | -61.2°C | 5.3% | 148.4hPa | 2.5V | 08:12:57 | 02:07:06 | 00:00:00 | |
| DM7RM-13 | 2026-09-04 01:41:39 | 50.10286 | 11.52443 | 129° | 97km/h | 14099m | -7.9m/s | -61.2°C | 4.4% | 148.2hPa | 2.6V | 08:12:00 | 00:00:00 | 00:00:00 | |
| DM0DOS-11 | 2026-09-04 01:41:38 | 50.10375 | 11.52265 | 128° | 91km/h | 14149m | -8m/s | -61.2°C | 9.1% | 147hPa | 2.6V | 08:12:37 | 02:06:59 | 00:00:00 | |
| DK7TD | 2026-09-04 01:41:37 | 50.10331 | 11.52352 | 128° | 97km/h | 14124m | -9.1m/s | -61.2°C | 5% | 147.6hPa | 2.5V | 08:13:48 | 02:07:02 | 00:00:00 | |
| BIOWL1-15 | 2026-09-04 01:41:36 | 50.10346 | 11.52323 | 129° | 97km/h | 14133m | -8.2m/s | -61.2°C | 5% | 147.4hPa | 2.5V | 08:12:57 | 02:07:01 | 00:00:00 | |
| HSKMA3-T | 2026-09-04 01:41:31 | 50.10418 | 11.52185 | 130° | 86km/h | 14175m | -9.1m/s | -61.3°C | 4.7% | 146.4hPa | 2.5V | 08:12:57 | 02:06:56 | 00:00:00 | |
| DL1XH-west | 2026-09-04 01:41:29 | 50.10446 | 11.52134 | 131° | 82km/h | 14192m | -8.8m/s | -61.3°C | 4.6% | 146hPa | 2.5V | 08:12:57 | 02:06:54 | 00:00:00 | |
| DM0DOS-11 | 2026-09-04 01:41:28 | 50.10514 | 11.52014 | 131° | 78km/h | 14235m | -8.3m/s | -61.1°C | 8.8% | 145hPa | 2.5V | 08:12:47 | 02:06:49 | 00:00:00 | |
| DL1NUX | 2026-09-04 01:41:28 | 50.10459 | 11.52110 | 131° | 82km/h | 14201m | -8.3m/s | -61.3°C | 9% | 145.7hPa | 2.6V | 08:12:43 | 02:06:53 | 00:00:00 | |
| DK7TD | 2026-09-04 01:41:26 | 50.10487 | 11.52062 | 131° | 82km/h | 14218m | -7.7m/s | -61.2°C | 4.5% | 145.4hPa | 2.5V | 08:13:48 | 02:06:51 | 00:00:00 | |
| DF2AP-13 | 2026-09-04 01:41:24 | 50.10514 | 11.52014 | 132° | 73km/h | 14235m | -8.3m/s | -61.1°C | 8.8% | 144.9hPa | 2.5V | 00:00:00 | 02:06:49 | 00:00:00 | |
| DL1NUX | 2026-09-04 01:41:23 | 50.10589 | 11.51872 | 127° | 77km/h | 14286m | -8.7m/s | -60°C | 7.9% | 143.8hPa | 2.5V | 08:12:53 | 02:06:43 | 00:00:00 | |
| HSKMA3-T | 2026-09-04 01:41:20 | 50.10566 | 11.51919 | 128° | 77km/h | 14269m | -8.7m/s | -60.5°C | 4.1% | 144.2hPa | 2.5V | 08:12:57 | 02:06:45 | 00:00:00 | |
| DK7TD | 2026-09-04 01:41:15 | 50.10624 | 11.51798 | 126° | 77km/h | 14312m | -8.2m/s | -59.7°C | 3.9% | 143.2hPa | 2.5V | 08:13:48 | 02:06:40 | 00:00:00 | |
| DL1XH-west | 2026-09-04 01:41:14 | 50.10636 | 11.51774 | 127° | 77km/h | 14320m | -9.1m/s | -59.7°C | 3.9% | 143hPa | 2.5V | 08:12:57 | 02:06:39 | 00:00:00 | |
| DF8AY | 2026-09-04 01:41:09 | 50.10695 | 11.51652 | 129° | 80km/h | 14363m | -8.5m/s | -59.9°C | 3.8% | 142hPa | 2.5V | 08:13:48 | 02:06:34 | 00:00:00 | |
| DL1NUX | 2026-09-04 01:41:08 | 50.10708 | 11.51627 | 128° | 80km/h | 14371m | -8.5m/s | -59.9°C | 7.7% | 141.8hPa | 2.5V | 08:13:03 | 02:06:33 | 00:00:00 | |
| DM0DOS-11 | 2026-09-04 01:41:07 | 50.10760 | 11.51527 | 127° | 82km/h | 14406m | -8.1m/s | -59.9°C | 7.7% | 141hPa | 2.5V | 08:13:07 | 02:06:29 | 00:00:00 | |
| BIOWL1-15 | 2026-09-04 01:41:07 | 50.10747 | 11.51552 | 129° | 82km/h | 14398m | -9.3m/s | -60°C | 3.7% | 141.2hPa | 2.6V | 08:13:48 | 02:06:30 | 00:00:00 | |
| DK7TD | 2026-09-04 01:41:03 | 50.10772 | 11.51502 | 127° | 80km/h | 14415m | -9m/s | -59.7°C | 3.6% | 140.8hPa | 2.5V | 08:13:48 | 02:06:28 | 00:00:00 | |
| HSKMA3-T | 2026-09-04 01:40:58 | 50.10834 | 11.51374 | 127° | 82km/h | 14459m | -8.6m/s | -59.5°C | 3.6% | 139.8hPa | 2.5V | 08:13:48 | 02:06:23 | 00:00:00 | |
| DM0DOS-11 | 2026-09-04 01:40:57 | 50.10886 | 11.51270 | 129° | 82km/h | 14494m | -8.8m/s | -59.6°C | 7.4% | 139.1hPa | 2.6V | 08:13:17 | 02:06:19 | 00:00:00 | |
| BIOWL1-15 | 2026-09-04 01:40:54 | 50.10886 | 11.51270 | 130° | 82km/h | 14494m | -8.8m/s | -59.6°C | 3.5% | 139.1hPa | 2.6V | 08:13:48 | 02:06:19 | 00:00:00 | |
| DK7TD | 2026-09-04 01:40:53 | 50.10899 | 11.51245 | 131° | 84km/h | 14503m | -8.1m/s | -59.7°C | 3.4% | 138.9hPa | 2.6V | 08:13:48 | 02:06:18 | 00:00:00 | |
| DJ2DS-15 | 2026-09-04 01:40:52 | 50.10913 | 11.51220 | 131° | 82km/h | 14512m | -9.2m/s | -59.7°C | 3.1% | 138.7hPa | 2.5V | 00:00:00 | 00:00:00 | 00:00:00 | |
| DO3MHA-11 | 2026-09-04 01:40:51 | 50.10927 | 11.51195 | 131° | 80km/h | 14520m | -8.5m/s | -59.7°C | 7.4% | 138.4hPa | 2.5V | 00:00:00 | 02:06:16 | 00:00:00 | |
| DF8AY-15 | 2026-09-04 01:40:49 | 50.10953 | 11.51147 | 131° | 77km/h | 14538m | -8.6m/s | -59.8°C | 7.4% | 138.0hPa | 2.5V | 08:13:00 | 02:06:14 | 00:00:00 | |
| DM0DOS-11 | 2026-09-04 01:40:47 | 50.11018 | 11.51024 | 129° | 80km/h | 14583m | -9.3m/s | -59.8°C | 7.3% | 137.1hPa | 2.5V | 08:13:27 | 02:06:09 | 00:00:00 | |
| HSKMA3-T | 2026-09-04 01:40:47 | 50.10980 | 11.51098 | 129° | 80km/h | 14556m | -8.6m/s | -59.9°C | 3.3% | 137.7hPa | 2.6V | 08:13:48 | 02:06:12 | 00:00:00 | |
| BIOWL9-15 | 2026-09-04 01:40:46 | 50.10992 | 11.51073 | 128° | 78km/h | 14565m | -9.2m/s | -59.9°C | 3.1% | 137.5hPa | 2.6V | 00:00:00 | 00:00:00 | 00:00:00 | |
| SONDE2-11 | 2026-09-04 01:40:44 | 50.11018 | 11.51024 | 129° | 80km/h | 14583m | -9.3m/s | -59.8°C | 3.0% | 137.1hPa | 2.6V | 00:00:00 | 00:00:00 | 00:00:00 | |
| BIOWL1-15 | 2026-09-04 01:40:43 | 50.11044 | 11.50974 | 127° | 80km/h | 14601m | -9.2m/s | -59.6°C | 3% | 136.7hPa | 2.6V | 08:13:48 | 02:06:07 | 00:00:00 | |
| DK7TD | 2026-09-04 01:40:43 | 50.11031 | 11.51000 | 128° | 82km/h | 14592m | -8.8m/s | -59.7°C | 3.1% | 136.9hPa | 2.6V | 08:13:48 | 02:06:08 | 00:00:00 | |
| OE5DRO-10 | 2026-09-04 01:40:43 | 50.11031 | 11.50999 | 129° | 75km/h | 14592m | -8.8m/s | -59.7°C | 7.3% | 136.9hPa | 2.6V | 00:00:00 | 00:00:00 | 00:00:00 | |
| DO3MHA-11 | 2026-09-04 01:40:41 | 50.11056 | 11.50949 | 128° | 73km/h | 14610m | -8.7m/s | -59.4°C | 7.1% | 136.5hPa | 2.5V | 00:00:00 | 02:06:06 | 00:00:00 | |
| EDDB2-11 | 2026-09-04 01:40:40 | 50.11068 | 11.50925 | 126° | 78km/h | 14619m | -8.9m/s | -59.4°C | 2.8% | 136.3hPa | 2.5V | 00:00:00 | 00:00:00 | 00:00:00 | |
| NBG1-10 | 2026-09-04 01:40:38 | 50.11090 | 11.50875 | 124° | 75km/h | 14636m | -8.6m/s | -59.3°C | 6.9% | 135.9hPa | 2.5V | 00:00:00 | 02:06:03 | 00:00:00 | |
| DM0DOS-11 | 2026-09-04 01:40:37 | 50.11132 | 11.50782 | 124° | 68km/h | 14673m | -8.9m/s | -59.1°C | 6.6% | 135.1hPa | 2.5V | 08:13:37 | 02:05:59 | 00:00:00 | |
| DF8AY | 2026-09-04 01:40:37 | 50.11101 | 11.50851 | 124° | 73km/h | 14645m | -9.2m/s | -59.2°C | 2.7% | 135.7hPa | 2.6V | 08:13:48 | 02:06:02 | 00:00:00 | |
| DK7TD | 2026-09-04 01:40:32 | 50.11152 | 11.50738 | 126° | 69km/h | 14691m | -8.8m/s | -59.2°C | 2.6% | 134.8hPa | 2.5V | 08:13:48 | 02:05:57 | 00:00:00 | |
| DO3MHA-11 | 2026-09-04 01:40:31 | 50.11162 | 11.50716 | 126° | 77km/h | 14700m | -8.8m/s | -59.1°C | 6.8% | 134.5hPa | 2.6V | 08:13:00 | 02:05:56 | 00:00:00 | |
| OE5DXL-15 | 2026-09-04 01:40:30 | 50.11172 | 11.50692 | 124° | 75km/h | 14709m | -8.9m/s | -59.1°C | 6.8% | 134.3hPa | 2.6V | 00:00:00 | 00:00:00 | 00:00:00 | |
| DL1NUX | 2026-09-04 01:40:28 | 50.11193 | 11.50643 | 124° | 77km/h | 14727m | -9.5m/s | -59.1°C | 6.8% | 134hPa | 2.5V | 08:13:43 | 02:05:53 | 00:00:00 | |
| DM0DOS-11 | 2026-09-04 01:40:27 | 50.11238 | 11.50539 | 125° | 78km/h | 14764m | -9.3m/s | -59°C | 6.7% | 133.2hPa | 2.5V | 08:13:47 | 02:05:49 | 00:00:00 | |
| HSKMA3-T | 2026-09-04 01:40:27 | 50.11205 | 11.50617 | 124° | 80km/h | 14736m | -8.8m/s | -59.2°C | 2.5% | 133.8hPa | 2.5V | 08:13:48 | 02:05:52 | 00:00:00 | |
| BIOWL1-15 | 2026-09-04 01:40:22 | 50.11262 | 11.50489 | 127° | 78km/h | 14782m | -9.8m/s | -58.7°C | 2.2% | 132.9hPa | 2.5V | 08:14:39 | 02:05:47 | 00:00:00 | |
| DO3MHA-11 | 2026-09-04 01:40:21 | 50.11274 | 11.50464 | 127° | 75km/h | 14791m | -8.3m/s | -58.7°C | 6.5% | 132.6hPa | 2.5V | 00:00:00 | 02:05:46 | 00:00:00 | |
| DF7PN | 2026-09-04 01:40:20 | 50.11285 | 11.50441 | 127° | 73km/h | 14800m | -9.2m/s | -58.8°C | 2.4% | 132.4hPa | 2.5V | 00:00:00 | 00:00:00 | 00:00:00 | |
| DO9HM | 2026-09-04 01:40:19 | 50.11285 | 11.50441 | 128° | 73km/h | 14800m | -9.2m/s | -58.8°C | 2.5% | 132.4hPa | 2.5V | 00:00:00 | 00:00:00 | 00:00:00 | |
| DL1NUX | 2026-09-04 01:40:18 | 50.11308 | 11.50396 | 128° | 73km/h | 14818m | -9.3m/s | -58.8°C | 6.6% | 132.1hPa | 2.5V | 08:13:53 | 02:05:43 | 00:00:00 | |
| DB0ND-19 | 2026-09-04 01:40:18 | 50.11319 | 11.50374 | 127° | 71km/h | 14827m | -9.0m/s | -58.8°C | 2.5% | 131.8hPa | 2.6V | 00:00:00 | 00:00:00 | 00:00:00 | |
| DM0DOS-11 | 2026-09-04 01:40:17 | 50.11353 | 11.50305 | 127° | 75km/h | 14854m | -8.9m/s | -58.5°C | 6.4% | 131.3hPa | 2.6V | 08:13:57 | 02:05:39 | 00:00:00 | |
| HSKMA3-T | 2026-09-04 01:40:17 | 50.11319 | 11.50374 | 127° | 73km/h | 14827m | -9m/s | -58.8°C | 2.3% | 131.8hPa | 2.5V | 08:14:39 | 02:05:42 | 00:00:00 | |
| DK7TD | 2026-09-04 01:40:11 | 50.11387 | 11.50232 | 127° | 77km/h | 14881m | -9.7m/s | -58°C | 2.1% | 130.8hPa | 2.5V | 08:14:39 | 02:05:36 | 00:00:00 | |
| DO3MHA-11 | 2026-09-04 01:40:11 | 50.11387 | 11.50232 | 128° | 73km/h | 14882m | -9.7m/s | -57.9°C | 6.1% | 130.7hPa | 2.5V | 00:00:00 | 02:05:36 | 00:00:00 | |
| DF8AY-15 | 2026-09-04 01:40:09 | 50.11412 | 11.50185 | 129° | 69km/h | 14900m | -10.2m/s | -57.6°C | 5.9% | 130.3hPa | 2.5V | 00:00:00 | 02:05:34 | 00:00:00 | |
| DM0DOS-11 | 2026-09-04 01:40:07 | 50.11470 | 11.50073 | 129° | 71km/h | 14948m | -9.6m/s | -57.3°C | 5.7% | 129.4hPa | 2.5V | 08:14:07 | 02:05:29 | 00:00:00 | |
| HSKMA3-T | 2026-09-04 01:40:06 | 50.11447 | 11.50117 | 130° | 73km/h | 14929m | -10m/s | -57.3°C | 2% | 129.8hPa | 2.5V | 08:14:39 | 02:05:31 | 00:00:00 | |
| BIOWL1-15 | 2026-09-04 01:40:00 | 50.11514 | 11.49985 | 128° | 69km/h | 14987m | -9.7m/s | -57.2°C | 1.9% | 128.6hPa | 2.5V | 08:14:39 | 02:05:25 | 00:00:00 | |
| EDDB2-12 | 2026-09-04 01:39:58 | 50.11544 | 11.49919 | 124° | 68km/h | 15016m | -9.9m/s | -57.2°C | 2.1% | 128.0hPa | 2.5V | 00:00:00 | 00:00:00 | 00:00:00 | |
| DM0DOS-11 | 2026-09-04 01:39:57 | 50.11573 | 11.49852 | 122° | 68km/h | 15045m | -9.6m/s | -57.3°C | 5.7% | 127.4hPa | 2.5V | 08:14:17 | 02:05:19 | 00:00:00 | |
| HSKMA3-T | 2026-09-04 01:39:56 | 50.11554 | 11.49896 | 124° | 68km/h | 15025m | -9.8m/s | -57.2°C | 1.9% | 127.8hPa | 2.6V | 08:14:39 | 02:05:21 | 00:00:00 | |
| DF8AY | 2026-09-04 01:39:55 | 50.11564 | 11.49874 | 123° | 69km/h | 15035m | -9.9m/s | -57.3°C | 1.9% | 127.6hPa | 2.5V | 08:14:39 | 02:05:20 | 00:00:00 | |
| DL1XH-west | 2026-09-04 01:39:52 | 50.11591 | 11.49807 | 123° | 69km/h | 15064m | -9.1m/s | -57.4°C | 1.9% | 127hPa | 2.6V | 08:14:39 | 02:05:17 | 00:00:00 | |
| DK7TD | 2026-09-04 01:39:50 | 50.11609 | 11.49761 | 119° | 68km/h | 15083m | -9.8m/s | -57.5°C | 1.9% | 126.6hPa | 2.5V | 08:14:39 | 02:05:15 | 00:00:00 | |
| BIOWL1-15 | 2026-09-04 01:39:49 | 50.11617 | 11.49738 | 119° | 66km/h | 15093m | -9.8m/s | -57.6°C | 2% | 126.5hPa | 2.5V | 08:14:39 | 02:05:14 | 00:00:00 | |
| DM0DOS-11 | 2026-09-04 01:39:47 | 50.11656 | 11.49620 | 115° | 66km/h | 15140m | -9.3m/s | -57.8°C | 5.9% | 125.5hPa | 2.5V | 08:14:27 | 02:05:09 | 00:00:00 | |
| HSKMA3-T | 2026-09-04 01:39:45 | 50.11649 | 11.49644 | 115° | 68km/h | 15131m | -9.6m/s | -57.8°C | 2% | 125.7hPa | 2.6V | 08:14:39 | 02:05:10 | 00:00:00 | |
| DF8AY | 2026-09-04 01:39:44 | 50.11656 | 11.49620 | 116° | 66km/h | 15140m | -9.3m/s | -57.8°C | 2% | 125.5hPa | 2.5V | 08:14:39 | 02:05:09 | 00:00:00 | |
| BIOWL1-15 | 2026-09-04 01:39:43 | 50.11693 | 11.49502 | 119° | 68km/h | 15188m | -9.8m/s | -57.8°C | 2% | 124.5hPa | 2.6V | 08:14:39 | 02:05:04 | 00:00:00 | |
| DL1XH-west | 2026-09-04 01:39:42 | 50.11671 | 11.49573 | 115° | 68km/h | 15159m | -9.6m/s | -57.7°C | 1.9% | 125.1hPa | 2.5V | 08:14:39 | 02:05:07 | 00:00:00 | |
| DK7TD | 2026-09-04 01:39:40 | 50.11685 | 11.49525 | 116° | 66km/h | 15179m | -9.3m/s | -57.7°C | 1.9% | 124.7hPa | 2.6V | 08:14:39 | 02:05:05 | 00:00:00 | |
| DJ2DS-15 | 2026-09-04 01:39:40 | 50.11685 | 11.49525 | 116° | 64km/h | 15179m | -9.3m/s | -57.7°C | 2.1% | 124.7hPa | 2.5V | 00:00:00 | 00:00:00 | 00:00:00 | |
| DL1NUX | 2026-09-04 01:39:38 | 50.11701 | 11.49479 | 118° | 69km/h | 15198m | -9.3m/s | -57.8°C | 5.8% | 124.3hPa | 2.5V | 08:14:33 | 02:05:03 | 00:00:00 | |
| HSKMA3-T | 2026-09-04 01:39:35 | 50.11727 | 11.49406 | 120° | 69km/h | 15226m | -9.7m/s | -57.9°C | 2% | 123.8hPa | 2.6V | 08:14:39 | 02:05:00 | 00:00:00 | |
| DF8AY | 2026-09-04 01:39:34 | 50.11735 | 11.49382 | 121° | 69km/h | 15236m | -9.4m/s | -57.9°C | 2% | 123.6hPa | 2.6V | 08:14:39 | 02:04:59 | 00:00:00 | |
| DL1XH-west | 2026-09-04 01:39:32 | 50.11753 | 11.49335 | 118° | 69km/h | 15256m | -9.6m/s | -57.9°C | 2% | 123.2hPa | 2.5V | 08:14:39 | 02:04:57 | 00:00:00 | |
| DK7TD | 2026-09-04 01:39:30 | 50.11768 | 11.49288 | 118° | 64km/h | 15274m | -9.6m/s | -58°C | 2% | 122.8hPa | 2.5V | 08:15:30 | 02:04:55 | 00:00:00 | |
| BIOWL1-15 | 2026-09-04 01:39:29 | 50.11776 | 11.49266 | 120° | 66km/h | 15284m | -9.5m/s | -58.1°C | 2% | 122.7hPa | 2.6V | 08:15:30 | 02:04:54 | 00:00:00 | |
| HSKMA3-T | 2026-09-04 01:39:24 | 50.11816 | 11.49147 | 118° | 68km/h | 15333m | -10.2m/s | -58.1°C | 2% | 121.7hPa | 2.5V | 08:15:30 | 02:04:49 | 00:00:00 | |
| DF8AY | 2026-09-04 01:39:23 | 50.11824 | 11.49124 | 118° | 68km/h | 15343m | -9.6m/s | -58.1°C | 2% | 121.5hPa | 2.6V | 08:15:30 | 02:04:48 | 00:00:00 | |
| DL1XH-west | 2026-09-04 01:39:21 | 50.11840 | 11.49077 | 119° | 66km/h | 15363m | -9.7m/s | -58.1°C | 2% | 121.1hPa | 2.5V | 08:15:30 | 02:04:46 | 00:00:00 | |
| DK7TD | 2026-09-04 01:39:20 | 50.11848 | 11.49055 | 121° | 66km/h | 15373m | -9.9m/s | -58.1°C | 2% | 121hPa | 2.5V | 08:15:30 | 02:04:45 | 00:00:00 | |
| BIOWL1-15 | 2026-09-04 01:39:18 | 50.11866 | 11.49010 | 121° | 68km/h | 15392m | -9.8m/s | -58.2°C | 2.1% | 120.6hPa | 2.6V | 08:15:30 | 02:04:43 | 00:00:00 | |
| DM0DOS-11 | 2026-09-04 01:39:17 | 50.11900 | 11.48915 | 116° | 73km/h | 15431m | -9.7m/s | -58.2°C | 5.9% | 119.8hPa | 2.5V | 08:14:57 | 02:04:39 | 00:00:00 | |
| HSKMA3-T | 2026-09-04 01:39:13 | 50.11909 | 11.48889 | 115° | 75km/h | 15441m | -9.9m/s | -58.2°C | 2% | 119.6hPa | 2.5V | 08:15:30 | 02:04:38 | 00:00:00 | |
| DF8AY | 2026-09-04 01:39:12 | 50.11917 | 11.48862 | 115° | 75km/h | 15451m | -10m/s | -58.2°C | 1.9% | 119.4hPa | 2.6V | 08:15:30 | 02:04:37 | 00:00:00 | |
| DL1XH-west | 2026-09-04 01:39:11 | 50.11925 | 11.48835 | 115° | 77km/h | 15461m | -10.3m/s | -58.1°C | 1.9% | 119.2hPa | 2.6V | 08:15:30 | 02:04:36 | 00:00:00 | |
| DK7TD | 2026-09-04 01:39:09 | 50.11940 | 11.48781 | 113° | 71km/h | 15481m | -9.8m/s | -58.2°C | 1.9% | 118.9hPa | 2.5V | 08:15:30 | 02:04:34 | 00:00:00 | |
| BIOWL1-15 | 2026-09-04 01:39:08 | 50.11947 | 11.48756 | 114° | 66km/h | 15491m | -9.3m/s | -58.2°C | 2% | 118.7hPa | 2.5V | 08:15:30 | 02:04:33 | 00:00:00 | |
| HSKMA3-T | 2026-09-04 01:39:02 | 50.11997 | 11.48637 | 132° | 60km/h | 15550m | -10.4m/s | -58.1°C | 1.9% | 117.5hPa | 2.5V | 08:15:30 | 02:04:27 | 00:00:00 | |
| DL1XH-west | 2026-09-04 01:39:01 | 50.12007 | 11.48619 | 131° | 62km/h | 15560m | -10.4m/s | -58.1°C | 1.9% | 117.4hPa | 2.6V | 08:15:30 | 02:04:26 | 00:00:00 | |
| DK7TD | 2026-09-04 01:38:59 | 50.12027 | 11.48580 | 125° | 66km/h | 15580m | -8.8m/s | -58.2°C | 1.9% | 117hPa | 2.5V | 08:15:30 | 02:04:24 | 00:00:00 | |
| NBG1-10 | 2026-09-04 01:38:59 | 50.12027 | 11.48580 | 126° | 66km/h | 15580m | -8.8m/s | -58.2°C | 5.8% | 117.0hPa | 2.5V | 08:15:00 | 02:04:24 | 00:00:00 | |
| AM1SDL-15 | 2026-09-04 01:38:58 | 50.12036 | 11.48558 | 123° | 66km/h | 15588m | -8.6m/s | -58.2°C | 5.8% | 116.8hPa | 2.6V | 00:00:00 | 02:04:23 | 00:00:00 | |
| DM0DOS-11 | 2026-09-04 01:38:57 | 50.12065 | 11.48466 | 114° | 62km/h | 15625m | -9.7m/s | -58.3°C | 5.9% | 116.2hPa | 2.6V | 08:15:17 | 02:04:19 | 00:00:00 | |
| BIOWL1-15 | 2026-09-04 01:38:57 | 50.12045 | 11.48535 | 117° | 69km/h | 15597m | -9.1m/s | -58.3°C | 1.8% | 116.7hPa | 2.5V | 08:15:30 | 02:04:22 | 00:00:00 | |
| HSKMA3-T | 2026-09-04 01:38:52 | 50.12079 | 11.48422 | 118° | 64km/h | 15644m | -9.8m/s | -58.3°C | 1.9% | 115.8hPa | 2.5V | 08:15:30 | 02:04:17 | 00:00:00 | |
| DL1XH-west | 2026-09-04 01:38:50 | 50.12095 | 11.48376 | 118° | 68km/h | 15665m | -10.2m/s | -58.3°C | 1.9% | 115.5hPa | 2.6V | 08:15:30 | 02:04:15 | 00:00:00 | |
| DK7TD | 2026-09-04 01:38:48 | 50.12111 | 11.48331 | 122° | 66km/h | 15685m | -9.4m/s | -58.3°C | 1.9% | 115.1hPa | 2.5V | 08:15:30 | 02:04:13 | 00:00:00 | |
| BIOWL1-15 | 2026-09-04 01:38:48 | 50.12130 | 11.48286 | 123° | 71km/h | 15705m | -9.7m/s | -58.4°C | 1.9% | 114.7hPa | 2.5V | 08:15:30 | 02:04:11 | 00:00:00 | |
| DF7PN | 2026-09-04 01:38:47 | 50.12121 | 11.48309 | 123° | 68km/h | 15695m | -10.4m/s | -58.3°C | 2.1% | 114.9hPa | 2.5V | 00:00:00 | 00:00:00 | 00:00:00 | |
| DB0ND-19 | 2026-09-04 01:38:45 | 50.12140 | 11.48262 | 120° | 71km/h | 15715m | -10.8m/s | -58.4°C | 2.0% | 114.5hPa | 2.5V | 00:00:00 | 00:00:00 | 00:00:00 | |
| DF8AY | 2026-09-04 01:38:42 | 50.12164 | 11.48189 | 113° | 69km/h | 15746m | -9.8m/s | -58.7°C | 1.8% | 114hPa | 2.5V | 08:15:30 | 02:04:07 | 00:00:00 | |
| HSKMA3-T | 2026-09-04 01:38:41 | 50.12170 | 11.48164 | 107° | 68km/h | 15757m | -10.5m/s | -58.8°C | 1.9% | 113.8hPa | 2.5V | 08:15:30 | 02:04:06 | 00:00:00 | |
| DL1XH-west | 2026-09-04 01:38:39 | 50.12178 | 11.48114 | 101° | 58km/h | 15776m | -10.4m/s | -58.8°C | 1.8% | 113.4hPa | 2.6V | 08:16:21 | 02:04:04 | 00:00:00 | |
| DL1NUX | 2026-09-04 01:38:38 | 50.12180 | 11.48092 | 101° | 55km/h | 15787m | -10.7m/s | -58.8°C | 5.9% | 113.2hPa | 2.6V | 08:15:33 | 02:04:03 | 00:00:00 | |
| DK7TD | 2026-09-04 01:38:37 | 50.12183 | 11.48072 | 103° | 53km/h | 15798m | -10.9m/s | -58.8°C | 1.8% | 113hPa | 2.5V | 08:16:21 | 02:04:02 | 00:00:00 | |
| BIOWL1-15 | 2026-09-04 01:38:36 | 50.12196 | 11.48016 | 121° | 51km/h | 15827m | -8.9m/s | -58.8°C | 1.8% | 112.5hPa | 2.5V | 08:16:21 | 02:03:59 | 00:00:00 | |
| DF8AY | 2026-09-04 01:38:32 | 50.12214 | 11.47979 | 130° | 66km/h | 15845m | -8.9m/s | -58.9°C | 1.8% | 112.2hPa | 2.6V | 08:16:21 | 02:03:57 | 00:00:00 | |
| HSKMA3-T | 2026-09-04 01:38:31 | 50.12225 | 11.47958 | 129° | 73km/h | 15854m | -9.3m/s | -58.9°C | 1.7% | 112hPa | 2.5V | 08:16:21 | 02:03:56 | 00:00:00 | |
| DL1XH-west | 2026-09-04 01:38:28 | 50.12259 | 11.47883 | 121° | 80km/h | 15885m | -11m/s | -58.9°C | 1.8% | 111.5hPa | 2.6V | 08:16:21 | 02:03:53 | 00:00:00 | |
| DK7TD | 2026-09-04 01:38:26 | 50.12278 | 11.47828 | 114° | 80km/h | 15905m | -9.7m/s | -58.9°C | 1.9% | 111.1hPa | 2.5V | 08:16:21 | 02:03:51 | 00:00:00 | |
| BIOWL1-15 | 2026-09-04 01:38:23 | 50.12294 | 11.47741 | 100° | 71km/h | 15933m | -9.5m/s | -58.9°C | 1.8% | 110.6hPa | 2.5V | 08:16:21 | 02:03:48 | 00:00:00 | |
| DF8AY | 2026-09-04 01:38:21 | 50.12299 | 11.47690 | 98° | 60km/h | 15952m | -10.5m/s | -58.9°C | 1.7% | 110.3hPa | 2.6V | 08:16:21 | 02:03:46 | 00:00:00 | |
| HSKMA3-T | 2026-09-04 01:38:20 | 50.12302 | 11.47668 | 100° | 55km/h | 15963m | -10.7m/s | -58.9°C | 1.7% | 110.1hPa | 2.5V | 08:16:21 | 02:03:45 | 00:00:00 | |
| DJ8HS-15 | 2026-09-04 01:38:20 | 50.12301 | 11.47668 | 100° | 68km/h | 15963m | -10.6m/s | -58.9°C | 6.0% | 110.0hPa | 2.5V | 08:15:00 | 02:03:45 | 00:00:00 | |
| DL1NUX | 2026-09-04 01:38:18 | 50.12308 | 11.47628 | 107° | 49km/h | 15984m | -10.3m/s | -58.8°C | 5.9% | 109.7hPa | 2.5V | 08:15:53 | 02:03:43 | 00:00:00 | |
| DL1XH-west | 2026-09-04 01:38:18 | 50.12308 | 11.47628 | 108° | 49km/h | 15984m | -10.3m/s | -58.8°C | 1.6% | 109.7hPa | 2.5V | 08:16:21 | 02:03:43 | 00:00:00 | |
| DK7TD | 2026-09-04 01:38:16 | 50.12318 | 11.47594 | 123° | 49km/h | 16004m | -10.3m/s | -58.8°C | 1.7% | 109.3hPa | 2.6V | 08:16:21 | 02:03:41 | 00:00:00 | |
| BIOWL1-15 | 2026-09-04 01:38:12 | 50.12357 | 11.47523 | 130° | 75km/h | 16043m | -8.9m/s | -58.3°C | 1.6% | 108.7hPa | 2.5V | 08:16:21 | 02:03:37 | 00:00:00 | |
| DF8AY | 2026-09-04 01:38:10 | 50.12381 | 11.47472 | 121° | 84km/h | 16060m | -9.5m/s | -58.2°C | 1.5% | 108.3hPa | 2.6V | 08:16:21 | 02:03:35 | 00:00:00 | |
| HSKMA3-T | 2026-09-04 01:38:09 | 50.12391 | 11.47443 | 117° | 86km/h | 16071m | -11m/s | -58.2°C | 1.6% | 108.2hPa | 2.5V | 08:16:21 | 02:03:34 | 00:00:00 | |
| DL1NUX | 2026-09-04 01:38:08 | 50.12400 | 11.47413 | 112° | 84km/h | 16082m | -10.9m/s | -58.2°C | 5.6% | 108hPa | 2.5V | 08:16:03 | 02:03:33 | 00:00:00 | |
| DL1XH-west | 2026-09-04 01:38:08 | 50.12400 | 11.47413 | 113° | 84km/h | 16082m | -10.9m/s | -58.2°C | 1.6% | 108hPa | 2.5V | 08:16:21 | 02:03:33 | 00:00:00 | |
| DK7TD | 2026-09-04 01:38:05 | 50.12418 | 11.47327 | 104° | 69km/h | 16112m | -10.1m/s | -58.2°C | 1.6% | 107.5hPa | 2.6V | 08:16:21 | 02:03:30 | 00:00:00 | |
| EDDB2-11 | 2026-09-04 01:38:05 | 50.12418 | 11.47327 | 103° | 68km/h | 16112m | -10.1m/s | -58.2°C | 1.9% | 107.5hPa | 2.5V | 00:00:00 | 00:00:00 | 00:00:00 | |
| DL1NUX | 2026-09-04 01:38:03 | 50.12456 | 11.47196 | 130° | 58km/h | 16179m | -9.2m/s | -58°C | 5.6% | 106.3hPa | 2.5V | 08:16:13 | 02:03:23 | 00:00:00 | |
| BIOWL1-15 | 2026-09-04 01:38:01 | 50.12456 | 11.47196 | 130° | 58km/h | 16179m | -9.2m/s | -58°C | 1.5% | 106.3hPa | 2.5V | 08:16:21 | 02:03:23 | 00:00:00 | |
| HSKMA3-T | 2026-09-04 01:37:59 | 50.12447 | 11.47213 | 128° | 51km/h | 16170m | -9.6m/s | -57.9°C | 1.6% | 106.5hPa | 2.6V | 08:16:21 | 02:03:24 | 00:00:00 | |
| DJ8HS-15 | 2026-09-04 01:37:59 | 50.12447 | 11.47212 | 129° | 60km/h | 16170m | -9.6m/s | -57.9°C | 5.6% | 106.4hPa | 2.5V | 00:00:00 | 02:03:24 | 00:00:00 | |
| OE5DXL-15 | 2026-09-04 01:37:58 | 50.12456 | 11.47196 | 131° | 64km/h | 16179m | -9.2m/s | -57.9°C | 5.6% | 106.3hPa | 2.5V | 00:00:00 | 00:00:00 | 00:00:00 | |
| DM0DOS-11 | 2026-09-04 01:37:57 | 50.12511 | 11.47044 | 107° | 77km/h | 16236m | -10.8m/s | -58.1°C | 5.5% | 105.4hPa | 2.5V | 08:16:19 | 02:03:17 | 00:00:00 | |
| DL1XH-west | 2026-09-04 01:37:57 | 50.12466 | 11.47177 | 129° | 66km/h | 16189m | -9.1m/s | -58°C | 1.6% | 106.2hPa | 2.5V | 08:16:21 | 02:03:22 | 00:00:00 | |
| DK7TD | 2026-09-04 01:37:54 | 50.12497 | 11.47102 | 115° | 82km/h | 16216m | -10.1m/s | -58°C | 1.5% | 105.8hPa | 2.6V | 08:16:21 | 02:03:19 | 00:00:00 | |
| DL1NUX | 2026-09-04 01:37:53 | 50.12528 | 11.46945 | 104° | 51km/h | 16277m | -9.6m/s | -58.2°C | 5.5% | 104.7hPa | 2.6V | 08:16:23 | 02:03:13 | 00:00:00 | |
| DF8AY | 2026-09-04 01:37:49 | 50.12525 | 11.46966 | 102° | 58km/h | 16267m | -9.3m/s | -58.2°C | 1.5% | 104.8hPa | 2.6V | 08:17:12 | 02:03:14 | 00:00:00 | |
| HSKMA3-T | 2026-09-04 01:37:48 | 50.12528 | 11.46945 | 105° | 51km/h | 16277m | -9.6m/s | -58.2°C | 1.5% | 104.7hPa | 2.6V | 08:17:12 | 02:03:13 | 00:00:00 | |
| DL1XH-west | 2026-09-04 01:37:47 | 50.12532 | 11.46927 | 110° | 44km/h | 16286m | -9.6m/s | -58.3°C | 1.5% | 104.6hPa | 2.5V | 08:17:12 | 02:03:12 | 00:00:00 | |
| DK7TD | 2026-09-04 01:37:43 | 50.12557 | 11.46874 | 139° | 47km/h | 16326m | -11.1m/s | -58.4°C | 1.5% | 103.9hPa | 2.6V | 08:17:12 | 02:03:08 | 00:00:00 | |
| BIOWL1-15 | 2026-09-04 01:37:39 | 50.12601 | 11.46811 | 132° | 73km/h | 16366m | -9.3m/s | -58.3°C | 1.5% | 103.2hPa | 2.5V | 08:17:12 | 02:03:04 | 00:00:00 | |
| HSKMA3-T | 2026-09-04 01:37:38 | 50.12613 | 11.46788 | 127° | 77km/h | 16376m | -9.3m/s | -58.3°C | 1.5% | 103.1hPa | 2.6V | 08:17:12 | 02:03:03 | 00:00:00 | |
| DL1XH-west | 2026-09-04 01:37:37 | 50.12624 | 11.46763 | 121° | 78km/h | 16386m | -10.3m/s | -58.3°C | 1.5% | 102.9hPa | 2.6V | 08:17:12 | 02:03:02 | 00:00:00 | |
| DK7TD | 2026-09-04 01:37:33 | 50.12654 | 11.46654 | 105° | 68km/h | 16426m | -9.7m/s | -58.2°C | 1.5% | 102.2hPa | 2.6V | 08:17:12 | 02:02:58 | 00:00:00 | |
| BIOWL1-15 | 2026-09-04 01:37:28 | 50.12679 | 11.46551 | 129° | 57km/h | 16475m | -9.7m/s | -58.5°C | 1.5% | 101.5hPa | 2.5V | 08:17:12 | 02:02:53 | 00:00:00 | |
| OE5DXL-15 | 2026-09-04 01:37:28 | 50.12679 | 11.46551 | 130° | 75km/h | 16475m | -9.7m/s | -58.4°C | 5.6% | 101.4hPa | 2.5V | 08:16:00 | 00:00:00 | 00:00:00 | |
| DL6DJ-15 | 2026-09-04 01:37:26 | 50.12701 | 11.46513 | 133° | 71km/h | 16495m | -10.1m/s | -58.6°C | 1.8% | 101.2hPa | 2.5V | 00:00:00 | 00:00:00 | 00:00:00 | |
| DL1XH-west | 2026-09-04 01:37:26 | 50.12701 | 11.46513 | 134° | 71km/h | 16494m | -10.1m/s | -58.6°C | 1.5% | 101.2hPa | 2.6V | 08:17:12 | 02:02:51 | 00:00:00 | |
| SP3BTT-10 | 2026-09-04 01:37:25 | 50.12714 | 11.46492 | 133° | 73km/h | 16505m | -10.6m/s | -58.6°C | 5.7% | 100.9hPa | 2.5V | 00:00:00 | 00:00:00 | 00:00:00 | |
| DL1XH1-15 | 2026-09-04 01:37:24 | 50.12788 | 11.46298 | 103° | 80km/h | 16577m | -10.1m/s | -58.5°C | 5.6% | 99.8hPa | 2.5V | 08:16:53 | 02:02:43 | 00:00:00 | |
| DK7TD | 2026-09-04 01:37:22 | 50.12753 | 11.46418 | 125° | 84km/h | 16538m | -11.1m/s | -58.6°C | 1.5% | 100.5hPa | 2.6V | 08:17:12 | 02:02:47 | 00:00:00 | |
| HSKMA3-T | 2026-09-04 01:37:18 | 50.12788 | 11.46298 | 104° | 80km/h | 16577m | -10.1m/s | -58.5°C | 1.4% | 99.8hPa | 2.5V | 08:17:12 | 02:02:43 | 00:00:00 | |
| DL1XH-west | 2026-09-04 01:37:16 | 50.12794 | 11.46240 | 98° | 69km/h | 16598m | -10m/s | -58.5°C | 1.4% | 99.4hPa | 2.5V | 08:17:12 | 02:02:41 | 00:00:00 | |
| DF7PN | 2026-09-04 01:37:14 | 50.12800 | 11.46190 | 101° | 58km/h | 16618m | -10.2m/s | -58.6°C | 1.8% | 99.1hPa | 2.6V | 00:00:00 | 00:00:00 | 00:00:00 | |
| DL1XH1-15 | 2026-09-04 01:37:13 | 50.12843 | 11.46077 | 133° | 69km/h | 16679m | -10.3m/s | -58.8°C | 5.8% | 98.2hPa | 2.6V | 08:17:03 | 02:02:33 | 00:00:00 | |
| DK7TD | 2026-09-04 01:37:12 | 50.12808 | 11.46149 | 114° | 51km/h | 16638m | -10.1m/s | -58.7°C | 1.4% | 98.8hPa | 2.5V | 08:17:12 | 02:02:37 | 00:00:00 | |
| HSKMA3-T | 2026-09-04 01:37:07 | 50.12855 | 11.46056 | 133° | 73km/h | 16690m | -10.8m/s | -58.7°C | 1.4% | 98hPa | 2.6V | 08:17:12 | 02:02:32 | 00:00:00 | |
| DL1XH-west | 2026-09-04 01:37:06 | 50.12868 | 11.46034 | 132° | 80km/h | 16700m | -10.2m/s | -58.6°C | 1.4% | 97.9hPa | 2.5V | 08:17:12 | 02:02:31 | 00:00:00 | |
| AM1SDL-15 | 2026-09-04 01:37:04 | 50.12896 | 11.45982 | 128° | 69km/h | 16721m | -10.9m/s | -58.4°C | 5.5% | 97.5hPa | 2.5V | 00:00:00 | 02:02:29 | 00:00:00 | |
| DL1XH1-15 | 2026-09-04 01:37:03 | 50.12950 | 11.45808 | 102° | 68km/h | 16784m | -10.6m/s | -58.4°C | 5.5% | 96.6hPa | 2.5V | 08:17:13 | 02:02:23 | 00:00:00 | |
| AA1-15 | 2026-09-04 01:37:03 | 50.12909 | 11.45954 | 124° | 89km/h | 16732m | -11.6m/s | 0°C | 0% | 0hPa | 2.6V | 18:12:15 | 02:02:28 | 00:00:00 | |
| DL1NUX | 2026-09-04 01:37:02 | 50.12954 | 11.45783 | 102° | 62km/h | 16795m | -11.2m/s | -58.5°C | 5.5% | 96.4hPa | 2.5V | 08:17:14 | 02:02:22 | 00:00:00 | |
| DK7TD | 2026-09-04 01:37:01 | 50.12932 | 11.45894 | 115° | 86km/h | 16754m | -10.4m/s | -58.5°C | 1.3% | 97.1hPa | 2.5V | 08:17:12 | 02:02:26 | 00:00:00 | |
| HSKMA3-T | 2026-09-04 01:36:56 | 50.12957 | 11.45761 | 103° | 57km/h | 16806m | -11.3m/s | -58.5°C | 1.3% | 96.2hPa | 2.6V | 08:18:03 | 02:02:21 | 00:00:00 | |
| DL1XH-west | 2026-09-04 01:36:55 | 50.12960 | 11.45740 | 106° | 51km/h | 16817m | -11m/s | -58.5°C | 1.3% | 96.1hPa | 2.6V | 08:18:03 | 02:02:20 | 00:00:00 | |
| SP3BTT-10 | 2026-09-04 01:36:55 | 50.12960 | 11.45740 | 107° | 66km/h | 16818m | -10.9m/s | -58.4°C | 5.6% | 96.0hPa | 2.6V | 08:17:00 | 00:00:00 | 00:00:00 | |
| OE5DRO-10 | 2026-09-04 01:36:54 | 50.12964 | 11.45721 | 114° | 55km/h | 16828m | -10.9m/s | -58.3°C | 5.6% | 95.8hPa | 2.6V | 00:00:00 | 00:00:00 | 00:00:00 | |
| DL1XH1-15 | 2026-09-04 01:36:53 | 50.13022 | 11.45622 | 136° | 73km/h | 16890m | -10.9m/s | -57.8°C | 5.2% | 95hPa | 2.6V | 08:17:23 | 02:02:13 | 00:00:00 | |
| DL1NUX | 2026-09-04 01:36:52 | 50.13036 | 11.45602 | 134° | 78km/h | 16901m | -10.5m/s | -57.8°C | 5.2% | 94.8hPa | 2.6V | 08:17:24 | 02:02:12 | 00:00:00 | |
| DK7TD | 2026-09-04 01:36:51 | 50.12986 | 11.45674 | 135° | 55km/h | 16859m | -9.9m/s | -58.2°C | 1.2% | 95.4hPa | 2.5V | 08:18:03 | 02:02:16 | 00:00:00 | |
| AA1-15 | 2026-09-04 01:36:48 | 50.13022 | 11.45622 | 137° | 73km/h | 16890m | -10.9m/s | 0°C | 0% | 0hPa | 2.6V | 18:12:15 | 02:02:13 | 00:00:00 | |
| HSKMA3-T | 2026-09-04 01:36:46 | 50.13049 | 11.45578 | 131° | 84km/h | 16912m | -10.6m/s | -57.9°C | 1.1% | 94.6hPa | 2.6V | 08:18:03 | 02:02:11 | 00:00:00 | |
| BIOWL1-15 | 2026-09-04 01:36:45 | 50.13063 | 11.45552 | 127° | 86km/h | 16922m | -11.3m/s | -58°C | 1.1% | 94.5hPa | 2.5V | 08:18:03 | 02:02:10 | 00:00:00 | |
| DL1NUX | 2026-09-04 01:36:42 | 50.13113 | 11.45336 | 96° | 53km/h | 17008m | -11.7m/s | -57.8°C | 5.1% | 93.2hPa | 2.5V | 08:17:34 | 02:02:02 | 00:00:00 | |
| DK7TD | 2026-09-04 01:36:40 | 50.13107 | 11.45408 | 102° | 71km/h | 16976m | -9.8m/s | -57.9°C | 1% | 93.7hPa | 2.6V | 08:18:03 | 02:02:05 | 00:00:00 | |
| HSKMA3-T | 2026-09-04 01:36:35 | 50.13117 | 11.45298 | 104° | 46km/h | 17030m | -11.1m/s | -57.9°C | 1% | 92.8hPa | 2.5V | 08:18:03 | 02:02:00 | 00:00:00 | |
| BIOWL1-15 | 2026-09-04 01:36:34 | 50.13125 | 11.45265 | 118° | 47km/h | 17050m | -9.8m/s | -58°C | 1.1% | 92.5hPa | 2.5V | 08:18:03 | 02:01:58 | 00:00:00 | |
| DL1XH-west | 2026-09-04 01:36:34 | 50.13120 | 11.45281 | 111° | 44km/h | 17040m | -10.1m/s | -58°C | 1.1% | 92.7hPa | 2.5V | 08:18:03 | 02:01:59 | 00:00:00 | |
| DL1XH1-15 | 2026-09-04 01:36:33 | 50.13160 | 11.45153 | 103° | 73km/h | 17102m | -11.3m/s | -57.9°C | 5.4% | 91.8hPa | 2.5V | 08:17:43 | 02:01:53 | 00:00:00 | |
| DL1NUX | 2026-09-04 01:36:32 | 50.13163 | 11.45126 | 97° | 69km/h | 17113m | -10.7m/s | -57.9°C | 5.4% | 91.6hPa | 2.5V | 08:17:44 | 02:01:52 | 00:00:00 | |
| DK7TD | 2026-09-04 01:36:29 | 50.13154 | 11.45180 | 111° | 71km/h | 17091m | -11.1m/s | -57.9°C | 1.1% | 92hPa | 2.5V | 08:18:03 | 02:01:54 | 00:00:00 | |
| DF8AY | 2026-09-04 01:36:25 | 50.13164 | 11.45076 | 89° | 57km/h | 17134m | -10.2m/s | -58°C | 1.1% | 91.3hPa | 2.5V | 08:18:03 | 02:01:50 | 00:00:00 | |
| DL1XH-west | 2026-09-04 01:36:24 | 50.13164 | 11.45055 | 89° | 49km/h | 17144m | -10.4m/s | -58°C | 1.1% | 91.2hPa | 2.6V | 08:18:03 | 02:01:49 | 00:00:00 | |
| BIOWL1-15 | 2026-09-04 01:36:23 | 50.13165 | 11.45021 | 100° | 40km/h | 17165m | -11.4m/s | -58.1°C | 1.1% | 90.9hPa | 2.6V | 08:18:03 | 02:01:47 | 00:00:00 | |
| DL1XH1-15 | 2026-09-04 01:36:23 | 50.13181 | 11.44959 | 123° | 49km/h | 17211m | -10.5m/s | -57.4°C | 5.2% | 90.2hPa | 2.5V | 08:17:53 | 02:01:43 | 00:00:00 | |
| SO1NDE-10 | 2026-09-04 01:36:23 | 50.13164 | 11.45037 | 93° | 60km/h | 17155m | -10.4m/s | -58.0°C | 5.5% | 91.0hPa | 2.5V | 00:00:00 | 02:01:48 | 00:00:00 | |
| DL1NUX | 2026-09-04 01:36:22 | 50.13189 | 11.44941 | 127° | 57km/h | 17222m | -10.2m/s | -57.3°C | 5.2% | 90.1hPa | 2.5V | 08:17:54 | 02:01:42 | 00:00:00 | |
| DK7TD | 2026-09-04 01:36:19 | 50.13175 | 11.44975 | 117° | 46km/h | 17200m | -12m/s | -57.7°C | 1.1% | 90.4hPa | 2.5V | 08:18:03 | 02:01:44 | 00:00:00 | |
| DF8AY | 2026-09-04 01:36:14 | 50.13218 | 11.44876 | 120° | 75km/h | 17257m | -11.6m/s | -56.6°C | 0.8% | 89.6hPa | 2.6V | 08:18:03 | 02:01:39 | 00:00:00 | |
| DL1XH1-15 | 2026-09-04 01:36:13 | 50.13247 | 11.44699 | 89° | 71km/h | 17322m | -11.1m/s | -56.2°C | 4.7% | 88.7hPa | 2.6V | 08:18:03 | 02:01:33 | 00:00:00 | |
| BIOWL1-15 | 2026-09-04 01:36:13 | 50.13227 | 11.44849 | 115° | 78km/h | 17268m | -11m/s | -56.5°C | 0.9% | 89.4hPa | 2.5V | 08:18:03 | 02:01:38 | 00:00:00 | |
| DK7TD | 2026-09-04 01:36:09 | 50.13246 | 11.44728 | 94° | 77km/h | 17311m | -10.6m/s | -56.2°C | 0.7% | 88.8hPa | 2.5V | 08:18:03 | 02:01:34 | 00:00:00 | |
| DF8AY | 2026-09-04 01:36:04 | 50.13247 | 11.44607 | 94° | 46km/h | 17367m | -10.6m/s | -56.5°C | 0.8% | 88.1hPa | 2.5V | 08:18:54 | 02:01:29 | 00:00:00 | |
| DL1XH-west | 2026-09-04 01:36:03 | 50.13248 | 11.44591 | 102° | 42km/h | 17378m | -11.5m/s | -56.5°C | 0.8% | 87.9hPa | 2.5V | 08:18:54 | 02:01:28 | 00:00:00 | |
| DL1NUX | 2026-09-04 01:36:02 | 50.13288 | 11.44494 | 130° | 69km/h | 17447m | -10.6m/s | -56.2°C | 4.9% | 86.9hPa | 2.5V | 08:18:14 | 02:01:22 | 00:00:00 | |
| DK7TD | 2026-09-04 01:35:58 | 50.13277 | 11.44513 | 131° | 60km/h | 17437m | -10.3m/s | -56.2°C | 0.8% | 87.1hPa | 2.6V | 08:18:54 | 02:01:23 | 00:00:00 | |
| OE5DXL-15 | 2026-09-04 01:35:57 | 50.13288 | 11.44494 | 131° | 60km/h | 17448m | -10.5m/s | -56.2°C | 4.9% | 86.8hPa | 2.5V | 00:00:00 | 00:00:00 | 00:00:00 | |
| DB0NH | 2026-09-04 01:35:55 | 50.13311 | 11.44447 | 126° | 58km/h | 17470m | -11.0m/s | -56.2°C | 4.9% | 86.6hPa | 2.5V | 00:00:00 | 02:01:20 | 00:00:00 | |
| DL1XH1-15 | 2026-09-04 01:35:53 | 50.13367 | 11.44253 | 101° | 60km/h | 17551m | -12.2m/s | -56.1°C | 4.9% | 85.5hPa | 2.5V | 08:18:23 | 02:01:13 | 00:00:00 | |
| DL1XH-west | 2026-09-04 01:35:53 | 50.13334 | 11.44393 | 120° | 84km/h | 17492m | -11.9m/s | -56.2°C | 0.8% | 86.3hPa | 2.5V | 08:18:54 | 02:01:18 | 00:00:00 | |
| BIOWL1-15 | 2026-09-04 01:35:52 | 50.13352 | 11.44335 | 112° | 80km/h | 17516m | -11.2m/s | -56.2°C | 0.8% | 86hPa | 2.6V | 08:18:54 | 02:01:16 | 00:00:00 | |
| DK7TD | 2026-09-04 01:35:47 | 50.13369 | 11.44231 | 99° | 53km/h | 17563m | -11.3m/s | -56°C | 0.8% | 85.3hPa | 2.5V | 08:18:54 | 02:01:12 | 00:00:00 | |
| OE5DRO-10 | 2026-09-04 01:35:47 | 50.13369 | 11.44231 | 99° | 40km/h | 17563m | -11.2m/s | -56.0°C | 4.9% | 85.3hPa | 2.5V | 00:00:00 | 00:00:00 | 00:00:00 | |
| DL0LBS | 2026-09-04 01:35:44 | 50.13373 | 11.44197 | 103° | 37km/h | 17584m | -10.4m/s | -55.8°C | 1.3% | 85.0hPa | 2.5V | 08:18:00 | 00:00:00 | 00:00:00 | |
| DL1XH1-15 | 2026-09-04 01:35:43 | 50.13415 | 11.44121 | 133° | 57km/h | 17662m | -10.5m/s | -55.2°C | 4.6% | 84hPa | 2.5V | 08:18:33 | 02:01:03 | 00:00:00 | |
| BIOWL1-15 | 2026-09-04 01:35:42 | 50.13384 | 11.44166 | 135° | 31km/h | 17616m | -12m/s | -55.4°C | 0.7% | 84.6hPa | 2.6V | 08:18:54 | 02:01:07 | 00:00:00 | |
| DK7TD | 2026-09-04 01:35:36 | 50.13434 | 11.44082 | 121° | 66km/h | 17684m | -12m/s | -55°C | 0.6% | 83.8hPa | 2.6V | 08:18:54 | 02:01:01 | 00:00:00 | |
| BIOWL9-15 | 2026-09-04 01:35:36 | 50.13449 | 11.44034 | 110° | 68km/h | 17708m | -11.6m/s | -54.9°C | 1.2% | 83.4hPa | 2.5V | 00:00:00 | 00:00:00 | 00:00:00 | |
| SONDE2-11 | 2026-09-04 01:35:34 | 50.13454 | 11.44008 | 105° | 69km/h | 17719m | -10.9m/s | -54.8°C | 1.2% | 83.3hPa | 2.5V | 00:00:00 | 00:00:00 | 00:00:00 | |
| DL1XH1-15 | 2026-09-04 01:35:33 | 50.13467 | 11.43886 | 96° | 49km/h | 17780m | -10.9m/s | -54.5°C | 4.3% | 82.5hPa | 2.5V | 08:18:43 | 02:00:53 | 00:00:00 | |
| DL1NUX | 2026-09-04 01:35:32 | 50.13469 | 11.43869 | 99° | 40km/h | 17791m | -10.6m/s | -54.3°C | 4.2% | 82.3hPa | 2.5V | 08:18:44 | 02:00:52 | 00:00:00 | |
| DL1XH-west | 2026-09-04 01:35:31 | 50.13461 | 11.43955 | 99° | 66km/h | 17743m | -13.1m/s | -54.7°C | 0.5% | 83hPa | 2.6V | 08:18:54 | 02:00:56 | 00:00:00 | |
| DK7TD | 2026-09-04 01:35:26 | 50.13471 | 11.43855 | 108° | 35km/h | 17802m | -10.8m/s | -54.3°C | 0.4% | 82.2hPa | 2.6V | 08:18:54 | 02:00:51 | 00:00:00 | |
| DB0NH | 2026-09-04 01:35:25 | 50.13474 | 11.43843 | 119° | 35km/h | 17813m | -11.3m/s | -54.3°C | 4.2% | 82.1hPa | 2.5V | 00:00:00 | 02:00:50 | 00:00:00 | |
| DM0DOS-11 | 2026-09-04 01:35:24 | 50.13515 | 11.43783 | 139° | 47km/h | 17883m | -11.3m/s | -54.3°C | 4.2% | 81.2hPa | 2.5V | 08:18:52 | 02:00:44 | 00:00:00 | |
| SONCRA | 2026-09-04 01:35:24 | 50.13478 | 11.43833 | 128° | 31km/h | 17824m | -11.9m/s | -54.4°C | 1.1% | 81.9hPa | 2.5V | 00:00:00 | 00:00:00 | 00:00:00 | |
| DL1XH1-15 | 2026-09-04 01:35:23 | 50.13523 | 11.43770 | 136° | 49km/h | 17894m | -11.5m/s | -54.2°C | 4.2% | 81hPa | 2.5V | 08:18:53 | 02:00:43 | 00:00:00 | |
| SO1NDE-10 | 2026-09-04 01:35:23 | 50.13484 | 11.43823 | 136° | 33km/h | 17837m | -12.3m/s | -54.3°C | 4.2% | 81.7hPa | 2.5V | 00:00:00 | 02:00:48 | 00:00:00 | |
| DL1NUX | 2026-09-04 01:35:22 | 50.13532 | 11.43756 | 132° | 47km/h | 17905m | -12.1m/s | -54°C | 4.1% | 80.9hPa | 2.5V | 08:18:54 | 02:00:42 | 00:00:00 | |
| DL1XH-west | 2026-09-04 01:35:21 | 50.13497 | 11.43804 | 141° | 38km/h | 17860m | -11.3m/s | -54.4°C | 0.5% | 81.5hPa | 2.6V | 08:18:54 | 02:00:46 | 00:00:00 | |
| DF8AY | 2026-09-04 01:35:20 | 50.13506 | 11.43794 | 142° | 44km/h | 17872m | -11m/s | -54.4°C | 0.5% | 81.3hPa | 2.6V | 08:18:54 | 02:00:45 | 00:00:00 | |
| DK7TD | 2026-09-04 01:35:15 | 50.13546 | 11.43730 | 128° | 40km/h | 17930m | -12.1m/s | 0°C | 0% | 80.6hPa | 2.6V | 18:12:15 | 02:00:40 | 00:00:00 | |
| 13BRC | 2026-09-04 01:35:12 | 50.13558 | 11.43708 | 136° | 35km/h | 17954m | -12.4m/s | -54.0°C | 1.1% | 80.3hPa | 2.5V | 08:19:00 | 00:00:00 | 00:00:00 | |
| DL1NUX | 2026-09-04 01:35:12 | 50.13595 | 11.43652 | 138° | 35km/h | 18027m | -11.9m/s | -54.4°C | 4.2% | 79.4hPa | 2.5V | 08:19:04 | 02:00:32 | 00:00:00 | |
| DM0DOS-11 | 2026-09-04 01:35:11 | 50.13589 | 11.43661 | 139° | 33km/h | 18015m | -12.1m/s | -54.3°C | 4.2% | 79.5hPa | 2.5V | 08:19:03 | 02:00:33 | 00:00:00 | |
| DL1XH-west | 2026-09-04 01:35:10 | 50.13577 | 11.43679 | 134° | 33km/h | 17991m | -12.4m/s | -54.2°C | 0.4% | 79.9hPa | 2.6V | 08:19:45 | 02:00:35 | 00:00:00 | |
| BIOWL1-15 | 2026-09-04 01:35:09 | 50.13583 | 11.43669 | 136° | 31km/h | 18003m | -12.3m/s | -54.3°C | 0.4% | 79.7hPa | 2.6V | 08:19:45 | 02:00:34 | 00:00:00 | |
| DK7TD | 2026-09-04 01:35:05 | 50.13607 | 11.43634 | 136° | 33km/h | 18052m | -12.7m/s | 0°C | 0% | 0hPa | 2.5V | 18:12:15 | 02:00:30 | 00:00:00 | |
| BIOWL9-15 | 2026-09-04 01:35:05 | 50.13614 | 11.43625 | 139° | 31km/h | 18064m | -12.3m/s | -54.6°C | -1.0% | -1.0hPa | 2.5V | 00:00:00 | 00:00:00 | 00:00:00 | |
| DL1XH1-15 | 2026-09-04 01:35:03 | 50.13644 | 11.43578 | 132° | 24km/h | 18139m | -12.4m/s | -54.9°C | 4.4% | 78hPa | 2.5V | 08:19:13 | 02:00:23 | 00:00:00 | |
| SONDE2-11 | 2026-09-04 01:35:03 | 50.13626 | 11.43608 | 135° | 31km/h | 18090m | -12.2m/s | -54.7°C | 1.1% | 78.7hPa | 2.5V | 00:00:00 | 00:00:00 | 00:00:00 | |
| DL1NUX | 2026-09-04 01:35:02 | 50.13648 | 11.43571 | 128° | 22km/h | 18151m | -12.7m/s | -55°C | 4.4% | 77.9hPa | 2.5V | 08:19:14 | 02:00:22 | 00:00:00 | |
| BIOWL1-15 | 2026-09-04 01:34:59 | 50.13640 | 11.43585 | 137° | 24km/h | 18127m | -12.3m/s | -54.8°C | 0.5% | 78.2hPa | 2.5V | 08:19:45 | 02:00:24 | 00:00:00 | |
| DK7TD | 2026-09-04 01:34:54 | 50.13658 | 11.43553 | 134° | 20km/h | 18189m | -12m/s | 0°C | 0% | 0hPa | 2.6V | 18:12:15 | 02:00:19 | 00:00:00 | |
| DL1XH1-15 | 2026-09-04 01:34:53 | 50.13683 | 11.43510 | 123° | 26km/h | 18263m | -12.5m/s | -54.9°C | 4.4% | 76.5hPa | 2.6V | 08:19:23 | 02:00:13 | 00:00:00 | |
| SO1NDE-10 | 2026-09-04 01:34:53 | 50.13662 | 11.43547 | 133° | 24km/h | 18201m | -12.5m/s | -55.2°C | 4.5% | 77.2hPa | 2.6V | 00:00:00 | 02:00:18 | 00:00:00 | |
| DL1NUX | 2026-09-04 01:34:52 | 50.13686 | 11.43502 | 120° | 24km/h | 18276m | -12.1m/s | -54.6°C | 4.3% | 76.4hPa | 2.6V | 08:19:24 | 02:00:12 | 00:00:00 | |
| DF8AY | 2026-09-04 01:34:49 | 50.13679 | 11.43519 | 130° | 27km/h | 18251m | -12.1m/s | -55.1°C | 0.6% | 76.7hPa | 2.5V | 08:19:45 | 02:00:14 | 00:00:00 | |
| BIOWL1-15 | 2026-09-04 01:34:48 | 50.13683 | 11.43510 | 123° | 26km/h | 18263m | -12.5m/s | -54.9°C | 0.6% | 76.5hPa | 2.6V | 08:19:45 | 02:00:13 | 00:00:00 | |
| DK7TD | 2026-09-04 01:34:44 | 50.13696 | 11.43480 | 132° | 22km/h | 18314m | -12.7m/s | 0°C | 0% | 0hPa | 2.5V | 18:12:15 | 02:00:09 | 00:00:00 | |
| DL1XH1-15 | 2026-09-04 01:34:43 | 50.13722 | 11.43447 | 146° | 24km/h | 18389m | -12.5m/s | -54.7°C | 4.3% | 75hPa | 2.5V | 08:19:33 | 02:00:03 | 00:00:00 | |
| DL1NUX | 2026-09-04 01:34:42 | 50.13727 | 11.43442 | 151° | 24km/h | 18402m | -12.5m/s | -54.7°C | 4.3% | 74.9hPa | 2.5V | 08:19:34 | 02:00:02 | 00:00:00 | |
| DF8AY | 2026-09-04 01:34:40 | 50.13717 | 11.43452 | 145° | 24km/h | 18376m | -12.7m/s | -54.7°C | 0.5% | 75.2hPa | 2.5V | 08:19:45 | 02:00:04 | 00:00:00 | |
| BIOWL1-15 | 2026-09-04 01:34:40 | 50.13722 | 11.43447 | 147° | 24km/h | 18389m | -12.5m/s | -54.7°C | 0.5% | 75hPa | 2.5V | 08:19:45 | 02:00:03 | 00:00:00 | |
| DL1XH-west | 2026-09-04 01:34:37 | 50.13727 | 11.43442 | 152° | 24km/h | 18402m | -12.5m/s | -54.7°C | 0.5% | 74.9hPa | 2.5V | 08:19:45 | 02:00:02 | 00:00:00 | |
| DB0ND-19 | 2026-09-04 01:34:36 | 50.13733 | 11.43437 | 152° | 26km/h | 18414m | -12.3m/s | -54.8°C | 1.1% | 74.7hPa | 2.5V | 00:00:00 | 00:00:00 | 00:00:00 | |
| ANDY1245 | 2026-09-04 01:34:35 | 50.13732 | 11.43437 | 153° | 26km/h | 18414m | -12.3m/s | -54.8°C | 1.2% | 74.7hPa | 2.5V | 00:00:00 | 00:00:00 | 00:00:00 | |
| DL1XH1-15 | 2026-09-04 01:34:34 | 50.13762 | 11.43388 | 149° | 15km/h | 18515m | -12.8m/s | -54.9°C | 4.4% | 73.5hPa | 2.5V | 08:19:43 | 01:59:53 | 00:00:00 | |
| DL1NUX | 2026-09-04 01:34:32 | 50.13765 | 11.43386 | 170° | 18km/h | 18528m | -12.6m/s | -54.9°C | 4.4% | 73.4hPa | 2.6V | 08:19:44 | 01:59:52 | 00:00:00 | |
| DF8AY | 2026-09-04 01:34:28 | 50.13761 | 11.43388 | 150° | 15km/h | 18515m | -12.8m/s | -54.9°C | 0.5% | 73.5hPa | 2.5V | 08:19:45 | 01:59:53 | 00:00:00 | |
| DL1XH-west | 2026-09-04 01:34:27 | 50.13765 | 11.43385 | 171° | 18km/h | 18528m | -12.6m/s | -54.9°C | 0.6% | 73.4hPa | 2.6V | 08:19:45 | 01:59:52 | 00:00:00 | |
| HSKMA3-T | 2026-09-04 01:34:26 | 50.13771 | 11.43384 | 175° | 27km/h | 18540m | -12.4m/s | -54.9°C | 0.6% | 73.3hPa | 2.6V | 08:19:45 | 01:59:51 | 00:00:00 | |
| DB0NH | 2026-09-04 01:34:25 | 50.13779 | 11.43383 | 174° | 38km/h | 18553m | -11.7m/s | -54.7°C | 4.3% | 73.0hPa | 2.5V | 00:00:00 | 01:59:50 | 00:00:00 | |
| DL1XH1-15 | 2026-09-04 01:34:23 | 50.13839 | 11.43328 | 120° | 44km/h | 18641m | -11.9m/s | -55°C | 4.4% | 72.1hPa | 2.5V | 08:19:53 | 01:59:43 | 00:00:00 | |
| SO1NDE-10 | 2026-09-04 01:34:23 | 50.13797 | 11.43377 | 163° | 40km/h | 18578m | -13.2m/s | -54.6°C | 4.2% | 72.8hPa | 2.5V | 00:00:00 | 01:59:48 | 00:00:00 | |
| DL1NUX | 2026-09-04 01:34:22 | 50.13844 | 11.43313 | 112° | 42km/h | 18653m | -12.3m/s | -55.1°C | 4.4% | 72hPa | 2.5V | 08:19:54 | 01:59:42 | 00:00:00 | |
| BIOWL1-15 | 2026-09-04 01:34:17 | 50.13844 | 11.43313 | 112° | 42km/h | 18653m | -12.3m/s | -55.1°C | 0.6% | 72hPa | 2.5V | 08:22:18 | 01:59:42 | 00:00:00 | |
| DL1XH-west | 2026-09-04 01:34:16 | 50.13847 | 11.43298 | 105° | 40km/h | 18665m | -12.4m/s | -55.1°C | 0.7% | 71.8hPa | 2.5V | 08:20:36 | 01:59:41 | 00:00:00 | |
| HSKMA3-T | 2026-09-04 01:34:15 | 50.13849 | 11.43283 | 102° | 38km/h | 18678m | -13.1m/s | -55.2°C | 0.6% | 71.7hPa | 2.5V | 08:20:36 | 01:59:40 | 00:00:00 | |
| DF3TZ-5 | 2026-09-04 01:34:15 | 50.13851 | 11.43269 | 97° | 35km/h | 18691m | -12.7m/s | -55.2°C | 1.2% | 71.6hPa | 2.5V | 00:00:00 | 00:00:00 | 00:00:00 | |
| D01LWL | 2026-09-04 01:34:14 | 50.13851 | 11.43269 | 97° | 35km/h | 18691m | -12.7m/s | -55.2°C | 1.2% | 71.6hPa | 2.5V | 00:00:00 | 00:00:00 | 00:00:00 | |
| DL1XH1-15 | 2026-09-04 01:34:13 | 50.13863 | 11.43230 | 182° | 20km/h | 18763m | -12.4m/s | -54.7°C | 4.3% | 70.7hPa | 2.5V | 08:20:03 | 01:59:33 | 00:00:00 | |
| DL1NUX | 2026-09-04 01:34:12 | 50.13868 | 11.43231 | 185° | 24km/h | 18776m | -12.8m/s | -54.7°C | 4.3% | 70.6hPa | 2.5V | 08:20:04 | 01:59:32 | 00:00:00 | |
| DF8AY | 2026-09-04 01:34:07 | 50.13868 | 11.43231 | 186° | 24km/h | 18776m | -12.9m/s | -54.7°C | 0.5% | 70.6hPa | 2.5V | 08:20:36 | 01:59:32 | 00:00:00 | |
| DL1XH-west | 2026-09-04 01:34:05 | 50.13882 | 11.43233 | 184° | 31km/h | 18801m | -12.4m/s | -54.7°C | 0.6% | 70.3hPa | 2.6V | 08:20:36 | 01:59:30 | 00:00:00 | |
| ANDY1245 | 2026-09-04 01:34:04 | 50.13882 | 11.43232 | 185° | 31km/h | 18801m | -12.4m/s | -54.7°C | 1.2% | 70.3hPa | 2.6V | 00:00:00 | 00:00:00 | 00:00:00 | |
| DL1XH1-15 | 2026-09-04 01:34:03 | 50.13962 | 11.43217 | 160° | 58km/h | 18891m | -12.9m/s | -55°C | 4.5% | 69.3hPa | 2.6V | 08:20:13 | 01:59:23 | 00:00:00 | |
| DF8AY | 2026-09-04 01:33:56 | 50.13989 | 11.43196 | 148° | 62km/h | 18917m | -12.6m/s | -54.8°C | 0.6% | 69hPa | 2.5V | 08:20:36 | 01:59:21 | 00:00:00 | |
| BIOWL1-15 | 2026-09-04 01:33:55 | 50.14002 | 11.43182 | 140° | 62km/h | 18929m | -12.3m/s | -54.9°C | 0.6% | 68.9hPa | 2.5V | 08:22:18 | 01:59:20 | 00:00:00 | |
| DL1XH-west | 2026-09-04 01:33:54 | 50.14013 | 11.43165 | 132° | 60km/h | 18941m | -12.2m/s | -54.9°C | 0.6% | 68.8hPa | 2.5V | 08:20:36 | 01:59:19 | 00:00:00 | |
| DL1XH1-15 | 2026-09-04 01:33:53 | 50.14039 | 11.43074 | 96° | 18km/h | 19015m | -12.4m/s | -54.8°C | 4.3% | 68hPa | 2.5V | 08:20:23 | 01:59:13 | 00:00:00 | |
| SO1NDE-10 | 2026-09-04 01:33:53 | 50.14022 | 11.43147 | 125° | 29km/h | 18954m | -12.2m/s | -54.9°C | 4.5% | 68.6hPa | 2.6V | 00:00:00 | 01:59:18 | 00:00:00 | |
| DL1NUX | 2026-09-04 01:33:52 | 50.14040 | 11.43069 | 100° | 11km/h | 19027m | -12.4m/s | -54.8°C | 4.3% | 67.8hPa | 2.5V | 08:20:24 | 01:59:12 | 00:00:00 | |
| DF8AY | 2026-09-04 01:33:46 | 50.14040 | 11.43065 | 127° | 5km/h | 19040m | -12.9m/s | -54.8°C | 0.5% | 67.7hPa | 2.5V | 08:20:36 | 01:59:11 | 00:00:00 | |
| DM0DOS-11 | 2026-09-04 01:33:45 | 50.14063 | 11.43073 | 172° | 29km/h | 19117m | -11.1m/s | -54.7°C | 4.2% | 66.9hPa | 2.5V | 08:20:31 | 01:59:05 | 00:00:00 | |
| DL1XH-west | 2026-09-04 01:33:44 | 50.14043 | 11.43066 | 211° | 11km/h | 19066m | -13.3m/s | -54.7°C | 0.5% | 67.4hPa | 2.6V | 08:20:36 | 01:59:09 | 00:00:00 | |
| HSKMA3-T | 2026-09-04 01:33:43 | 50.14046 | 11.43069 | 207° | 16km/h | 19079m | -13.7m/s | -54.7°C | 0.5% | 67.3hPa | 2.6V | 08:20:36 | 01:59:08 | 00:00:00 | |
| DL1NUX | 2026-09-04 01:33:42 | 50.14086 | 11.43051 | 129° | 44km/h | 19151m | -12.3m/s | -54.7°C | 4.1% | 66.6hPa | 2.6V | 08:20:34 | 01:59:02 | 00:00:00 | |
| BIOWL1-15 | 2026-09-04 01:33:41 | 50.14056 | 11.43073 | 187° | 24km/h | 19105m | -12.3m/s | -54.7°C | 0.5% | 67hPa | 2.5V | 08:22:18 | 01:59:06 | 00:00:00 | |
| DF8AY | 2026-09-04 01:33:37 | 50.14093 | 11.43036 | 120° | 46km/h | 19163m | -12m/s | -54.7°C | 0.5% | 66.4hPa | 2.5V | 08:20:36 | 01:59:01 | 00:00:00 | |
| DL1XH-west | 2026-09-04 01:33:34 | 50.14101 | 11.43003 | 102° | 44km/h | 19190m | -13.6m/s | -55°C | 0.5% | 66.2hPa | 2.5V | 08:21:27 | 01:58:59 | 00:00:00 | |
| DL1XH1-15 | 2026-09-04 01:33:33 | 50.14085 | 11.42932 | 14° | 24km/h | 19265m | -12.7m/s | -55.4°C | 4.5% | 65.3hPa | 2.5V | 08:20:43 | 01:58:53 | 00:00:00 | |
| HSKMA3-T | 2026-09-04 01:33:33 | 50.14102 | 11.42986 | 93° | 42km/h | 19203m | -13.6m/s | -55.1°C | 0.5% | 66hPa | 2.5V | 08:21:27 | 01:58:58 | 00:00:00 | |
| BIOWL1-15 | 2026-09-04 01:33:29 | 50.14073 | 11.42937 | 297° | 13km/h | 19305m | -12.9m/s | -55.5°C | 0.6% | 65hPa | 2.6V | 08:22:18 | 01:58:50 | 00:00:00 | |
| DF8AY | 2026-09-04 01:33:26 | 50.14075 | 11.42933 | 331° | 15km/h | 19292m | -13.5m/s | -55.4°C | 0.6% | 65.1hPa | 2.5V | 08:21:27 | 01:58:51 | 00:00:00 | |
| DL1XH-west | 2026-09-04 01:33:23 | 50.14075 | 11.42945 | 214° | 15km/h | 19331m | -13.4m/s | -55.8°C | 0.7% | 64.7hPa | 2.5V | 08:21:27 | 01:58:48 | 00:00:00 | |
| HSKMA3-T | 2026-09-04 01:33:22 | 50.14079 | 11.42947 | 186° | 20km/h | 19344m | -12.6m/s | -55.9°C | 0.7% | 64.5hPa | 2.5V | 08:21:27 | 01:58:47 | 00:00:00 | |
| DL1NUX | 2026-09-04 01:33:22 | 50.14101 | 11.42901 | 95° | 46km/h | 19406m | -12.1m/s | -56.3°C | 4.9% | 63.9hPa | 2.6V | 08:20:54 | 01:58:42 | 00:00:00 | |
| PG1ADW-2 | 2026-09-04 01:33:22 | 50.14079 | 11.42947 | 186° | 37km/h | 19345m | -12.5m/s | -55.9°C | 4.7% | 64.5hPa | 2.5V | 00:00:00 | 01:58:47 | 00:00:00 | |
| DL0LBS | 2026-09-04 01:33:21 | 50.14084 | 11.42946 | 161° | 24km/h | 19357m | -12.6m/s | -56.0°C | 1.3% | 64.4hPa | 2.6V | 08:21:00 | 00:00:00 | 00:00:00 | |
| DM0DOS-11 | 2026-09-04 01:33:20 | 50.14095 | 11.42931 | 121° | 35km/h | 19382m | -12.4m/s | -56.2°C | 4.8% | 64.2hPa | 2.6V | 08:20:52 | 01:58:44 | 00:00:00 | |
| DF8AY | 2026-09-04 01:33:15 | 50.14099 | 11.42862 | 77° | 51km/h | 19431m | -12.5m/s | -56.5°C | 0.9% | 63.7hPa | 2.5V | 08:21:27 | 01:58:40 | 00:00:00 | |
| DM0DOS-11 | 2026-09-04 01:33:14 | 50.14069 | 11.42778 | 59° | 16km/h | 19505m | -11.5m/s | -55.6°C | 4.6% | 62.9hPa | 2.5V | 08:21:02 | 01:58:34 | 00:00:00 | |
| BIOWL1-15 | 2026-09-04 01:33:14 | 50.14095 | 11.42843 | 69° | 53km/h | 19444m | -12.9m/s | -56.5°C | 0.9% | 63.5hPa | 2.5V | 08:22:18 | 01:58:39 | 00:00:00 | |
| DL1XH-west | 2026-09-04 01:33:13 | 50.14090 | 11.42824 | 62° | 49km/h | 19456m | -12.3m/s | -56.5°C | 0.9% | 63.4hPa | 2.5V | 08:21:27 | 01:58:38 | 00:00:00 | |
| HSKMA3-T | 2026-09-04 01:33:11 | 50.14077 | 11.42795 | 53° | 38km/h | 19482m | -12.7m/s | -56.4°C | 0.9% | 63.2hPa | 2.6V | 08:21:27 | 01:58:36 | 00:00:00 | |
| BIOWL1-15 | 2026-09-04 01:33:04 | 50.14090 | 11.42748 | 140° | 42km/h | 19567m | -13.3m/s | -55.1°C | 0.6% | 62.3hPa | 2.6V | 08:22:18 | 01:58:29 | 00:00:00 | |
| DB0ND-19 | 2026-09-04 01:33:04 | 50.14098 | 11.42736 | 135° | 47km/h | 19581m | -13.2m/s | -55.1°C | 1.1% | 62.2hPa | 2.5V | 00:00:00 | 00:00:00 | 00:00:00 | |
| DJ2DS-15 | 2026-09-04 01:33:03 | 50.14098 | 11.42736 | 135° | 47km/h | 19581m | -13.2m/s | -55.1°C | 1.1% | 62.2hPa | 2.5V | 00:00:00 | 00:00:00 | 00:00:00 | |
| DL1NUX | 2026-09-04 01:33:02 | 50.14134 | 11.42611 | 94° | 60km/h | 19656m | -12.8m/s | -55.4°C | 4.6% | 61.4hPa | 2.5V | 08:21:14 | 01:58:22 | 00:00:00 | |
| DL1XH-west | 2026-09-04 01:33:02 | 50.14107 | 11.42721 | 128° | 55km/h | 19593m | -12.8m/s | -55.1°C | 0.7% | 62.1hPa | 2.5V | 08:21:27 | 01:58:27 | 00:00:00 | |
| HSKMA3-T | 2026-09-04 01:33:00 | 50.14122 | 11.42682 | 115° | 62km/h | 19618m | -12m/s | -55.2°C | 0.6% | 61.8hPa | 2.5V | 08:21:27 | 01:58:25 | 00:00:00 | |
| DL4BBY-15 | 2026-09-04 01:32:59 | 50.14128 | 11.42658 | 107° | 33km/h | 19631m | -12.8m/s | -56.7°C | 0% | 0hPa | 2.5V | 00:00:00 | 00:00:00 | 00:00:00 | |
| ANDY1245 | 2026-09-04 01:32:58 | 50.14128 | 11.42658 | 108° | 64km/h | 19631m | -12.8m/s | -55.2°C | 1.2% | 61.7hPa | 2.5V | 08:21:00 | 00:00:00 | 00:00:00 | |
| OE5DXL-15 | 2026-09-04 01:32:56 | 50.14134 | 11.42588 | 88° | 33km/h | 19669m | -12.7m/s | -55.4°C | 4.6% | 61.3hPa | 2.5V | 08:21:00 | 00:00:00 | 00:00:00 | |
| NBG1-10 | 2026-09-04 01:32:55 | 50.14133 | 11.42567 | 81° | 33km/h | 19682m | -12.8m/s | -55.5°C | 4.6% | 61.1hPa | 2.6V | 00:00:00 | 01:58:20 | 00:00:00 | |
| DH8WE-5 | 2026-09-04 01:32:54 | 50.14133 | 11.42567 | 81° | 51km/h | 19682m | -12.8m/s | -55.5°C | 1.2% | 61.2hPa | 2.6V | 00:00:00 | 00:00:00 | 00:00:00 | |
| DL1XH1-15 | 2026-09-04 01:32:53 | 50.14132 | 11.42501 | 155° | 27km/h | 19772m | -11.8m/s | -55.5°C | 4.7% | 60.3hPa | 2.6V | 08:21:23 | 01:58:13 | 00:00:00 | |
| DF8AY | 2026-09-04 01:32:52 | 50.14125 | 11.42523 | 70° | 26km/h | 19721m | -13.3m/s | -55.6°C | 0.8% | 60.8hPa | 2.5V | 08:21:27 | 01:58:17 | 00:00:00 | |
| DL1XH-west | 2026-09-04 01:32:51 | 50.14123 | 11.42515 | 82° | 16km/h | 19735m | -13m/s | -55.6°C | 0.8% | 60.7hPa | 2.5V | 08:21:27 | 01:58:16 | 00:00:00 | |
| HSKMA3-T | 2026-09-04 01:32:50 | 50.14124 | 11.42509 | 115° | 15km/h | 19747m | -12.9m/s | -55.6°C | 0.8% | 60.5hPa | 2.5V | 08:21:27 | 01:58:15 | 00:00:00 | |
| BIOWL1-15 | 2026-09-04 01:32:46 | 50.14149 | 11.42488 | 151° | 46km/h | 19796m | -11.7m/s | -55.3°C | 0.8% | 60.1hPa | 2.6V | 08:22:18 | 01:58:11 | 00:00:00 | |
| DM7RM-13 | 2026-09-04 01:32:44 | 50.14159 | 11.42477 | 144° | 53km/h | 19808m | -12.3m/s | -55.3°C | 1.2% | 60.0hPa | 2.5V | 08:21:00 | 00:00:00 | 00:00:00 | |
| DL1XH1-15 | 2026-09-04 01:32:43 | 50.14195 | 11.42377 | 88° | 20km/h | 19901m | -13.8m/s | -55.2°C | 4.5% | 59.2hPa | 2.5V | 08:21:33 | 01:58:03 | 00:00:00 | |
| DF8AY | 2026-09-04 01:32:43 | 50.14185 | 11.42430 | 119° | 49km/h | 19847m | -13.2m/s | -55.1°C | 0.7% | 59.6hPa | 2.5V | 08:22:18 | 01:58:07 | 00:00:00 | |
| DL1XH-west | 2026-09-04 01:32:40 | 50.14193 | 11.42399 | 105° | 37km/h | 19874m | -13.7m/s | -55.3°C | 0.6% | 59.4hPa | 2.6V | 08:22:18 | 01:58:05 | 00:00:00 | |
| HSKMA3-T | 2026-09-04 01:32:39 | 50.14195 | 11.42386 | 97° | 27km/h | 19887m | -13.1m/s | -55.4°C | 0.7% | 59.3hPa | 2.5V | 08:22:18 | 01:58:04 | 00:00:00 | |
| BIOWL1-15 | 2026-09-04 01:32:34 | 50.14192 | 11.42370 | 277° | 9km/h | 19957m | -14.3m/s | -55°C | 0.6% | 58.6hPa | 2.5V | 08:22:18 | 01:57:59 | 00:00:00 | |
| DF8AY | 2026-09-04 01:32:31 | 50.14196 | 11.42390 | 236° | 27km/h | 20000m | -13m/s | -54.9°C | 0.6% | 58.2hPa | 2.5V | 08:22:18 | 01:57:56 | 00:00:00 | |
| DM0DOS-11 | 2026-09-04 01:32:30 | 50.14249 | 11.42402 | 148° | 40km/h | 20077m | -14.5m/s | -55.1°C | 4.5% | 57.5hPa | 2.5V | 08:21:46 | 01:57:50 | 00:00:00 | |
| DL1XH-west | 2026-09-04 01:32:29 | 50.14209 | 11.42406 | 207° | 38km/h | 20024m | -12.1m/s | -55.1°C | 0.7% | 58hPa | 2.6V | 08:22:18 | 01:57:54 | 00:00:00 | |
| HSKMA3-T | 2026-09-04 01:32:28 | 50.14218 | 11.42411 | 192° | 42km/h | 20036m | -12m/s | -55.1°C | 0.7% | 57.9hPa | 2.6V | 08:22:18 | 01:57:53 | 00:00:00 | |
| BIOWL1-15 | 2026-09-04 01:32:25 | 50.14262 | 11.42382 | 122° | 35km/h | 20104m | -12.6m/s | -55.2°C | 0.7% | 57.3hPa | 2.6V | 08:22:18 | 01:57:48 | 00:00:00 | |
| DL4BBY-15 | 2026-09-04 01:32:25 | 50.14249 | 11.42402 | 149° | 29km/h | 20077m | -14.5m/s | -56.6°C | 0% | 0hPa | 2.6V | 00:00:00 | 00:00:00 | 00:00:00 | |
| EDDB2-11 | 2026-09-04 01:32:24 | 50.14257 | 11.42393 | 135° | 37km/h | 20091m | -14.0m/s | -55.2°C | 1.2% | 57.4hPa | 2.6V | 00:00:00 | 00:00:00 | 00:00:00 | |
| DL1XH1-15 | 2026-09-04 01:32:23 | 50.14255 | 11.42335 | 28° | 22km/h | 20169m | -13.8m/s | -55.1°C | 4.6% | 56.7hPa | 2.6V | 08:21:53 | 01:57:43 | 00:00:00 | |
| DF8AY | 2026-09-04 01:32:21 | 50.14266 | 11.42358 | 81° | 29km/h | 20129m | -12.5m/s | -55.2°C | 0.7% | 57hPa | 2.5V | 08:22:18 | 01:57:46 | 00:00:00 | |
| DL1XH-west | 2026-09-04 01:32:18 | 50.14255 | 11.42335 | 28° | 22km/h | 20169m | -13.8m/s | -55.1°C | 0.8% | 56.7hPa | 2.6V | 08:22:18 | 01:57:43 | 00:00:00 | |
| DO3MHA-11 | 2026-09-04 01:32:18 | 50.14255 | 11.42335 | 29° | 22km/h | 20169m | -13.8m/s | -55.1°C | 4.6% | 56.6hPa | 2.5V | 00:00:00 | 01:57:43 | 00:00:00 | |
| OE5DRO-10 | 2026-09-04 01:32:17 | 50.14250 | 11.42332 | 8° | 27km/h | 20183m | -14.4m/s | -55.0°C | 4.6% | 56.5hPa | 2.5V | 00:00:00 | 00:00:00 | 00:00:00 | |
| DM0DOS-11 | 2026-09-04 01:32:16 | 50.14243 | 11.42335 | 313° | 11km/h | 20212m | -13.9m/s | -55°C | 4.6% | 56.3hPa | 2.5V | 08:21:56 | 01:57:40 | 00:00:00 | |
| BIOWL1-15 | 2026-09-04 01:32:14 | 50.14248 | 11.42345 | 189° | 22km/h | 20250m | -12.1m/s | -54.9°C | 0.6% | 56hPa | 2.6V | 08:22:18 | 01:57:37 | 00:00:00 | |
| DL1XH1-15 | 2026-09-04 01:32:13 | 50.14278 | 11.42322 | 134° | 42km/h | 20305m | -15.1m/s | -54.7°C | 4.4% | 55.5hPa | 2.5V | 08:22:03 | 01:57:33 | 00:00:00 | |
| DF8AY | 2026-09-04 01:32:11 | 50.14254 | 11.42344 | 171° | 29km/h | 20262m | -12.4m/s | -54.8°C | 0.6% | 55.9hPa | 2.6V | 08:22:18 | 01:57:36 | 00:00:00 | |
| DL1XH-west | 2026-09-04 01:32:08 | 50.14278 | 11.42322 | 135° | 42km/h | 20305m | -15.1m/s | -54.7°C | 0.6% | 55.5hPa | 2.5V | 08:22:18 | 01:57:33 | 00:00:00 | |
| HSKMA3-T | 2026-09-04 01:32:07 | 50.14285 | 11.42310 | 125° | 44km/h | 20320m | -15.1m/s | -54.7°C | 0.6% | 55.3hPa | 2.5V | 08:22:18 | 01:57:32 | 00:00:00 | |
| 13BRC | 2026-09-04 01:32:07 | 50.14285 | 11.42310 | 126° | 44km/h | 20320m | -15.1m/s | -54.7°C | 1.1% | 55.3hPa | 2.6V | 00:00:00 | 00:00:00 | 00:00:00 | |
| DM0DOS-11 | 2026-09-04 01:32:06 | 50.14294 | 11.42277 | 101° | 47km/h | 20350m | -14.3m/s | -54.7°C | 4.5% | 55.1hPa | 2.6V | 08:22:06 | 01:57:30 | 00:00:00 | |
| DL1XH1-15 | 2026-09-04 01:32:03 | 50.14265 | 11.42190 | 0° | 16km/h | 20444m | -14.6m/s | -54.5°C | 4.4% | 54.3hPa | 2.5V | 08:22:13 | 01:57:23 | 00:00:00 | |
| DL1NUX | 2026-09-04 01:32:02 | 50.14263 | 11.42191 | 320° | 7km/h | 20459m | -15.2m/s | -54.5°C | 4.4% | 54.1hPa | 2.5V | 08:22:14 | 01:57:22 | 00:00:00 | |
| BIOWL1-15 | 2026-09-04 01:32:01 | 50.14284 | 11.42208 | 51° | 42km/h | 20404m | -12.9m/s | -54.7°C | 0.6% | 54.6hPa | 2.5V | 08:22:18 | 01:57:26 | 00:00:00 | |
| DL1XH-west | 2026-09-04 01:31:58 | 50.14266 | 11.42190 | 1° | 16km/h | 20445m | -14.6m/s | -54.6°C | 0.6% | 54.3hPa | 2.5V | 08:22:18 | 01:57:23 | 00:00:00 | |
| DO3MHA-11 | 2026-09-04 01:31:58 | 50.14266 | 11.42190 | 1° | 26km/h | 20445m | -14.5m/s | -54.5°C | 4.4% | 54.2hPa | 2.5V | 00:00:00 | 01:57:23 | 00:00:00 | |
| DM0DOS-11 | 2026-09-04 01:31:56 | 50.14275 | 11.42198 | 174° | 29km/h | 20517m | -14.1m/s | -54.2°C | 4.4% | 53.6hPa | 2.5V | 08:22:18 | 01:57:18 | 00:00:00 | |
| HSKMA3-T | 2026-09-04 01:31:56 | 50.14262 | 11.42193 | 247° | 7km/h | 20474m | -14.7m/s | -54.5°C | 0.6% | 54hPa | 2.5V | 08:22:18 | 01:57:21 | 00:00:00 | |
| OE5DXL-15 | 2026-09-04 01:31:56 | 50.14262 | 11.42193 | 247° | 33km/h | 20475m | -14.7m/s | -54.5°C | 4.5% | 54.0hPa | 2.6V | 00:00:00 | 00:00:00 | 00:00:00 | |
| DB0NH | 2026-09-04 01:31:55 | 50.14264 | 11.42196 | 210° | 35km/h | 20489m | -14.0m/s | -54.4°C | 4.4% | 53.8hPa | 2.6V | 08:22:00 | 01:57:20 | 00:00:00 | |
| DL4BBY-15 | 2026-09-04 01:31:54 | 50.14269 | 11.42198 | 190° | 35km/h | 20503m | -13.9m/s | -55.8°C | 0% | 0hPa | 2.6V | 00:00:00 | 00:00:00 | 00:00:00 | |
| DL1XH1-15 | 2026-09-04 01:31:53 | 50.14313 | 11.42149 | 113° | 49km/h | 20587m | -13.7m/s | -54.5°C | 4.6% | 53hPa | 2.6V | 08:22:23 | 01:57:13 | 00:00:00 | |
| SO1NDE-10 | 2026-09-04 01:31:53 | 50.14275 | 11.42198 | 175° | 35km/h | 20517m | -14.0m/s | -54.2°C | 4.4% | 53.6hPa | 2.6V | 00:00:00 | 01:57:18 | 00:00:00 | |
| DL1NUX | 2026-09-04 01:31:52 | 50.14317 | 11.42131 | 100° | 47km/h | 20601m | -14.5m/s | -54.5°C | 4.6% | 53hPa | 2.6V | 08:22:24 | 01:57:12 | 00:00:00 | |
| BIOWL1-15 | 2026-09-04 01:31:51 | 50.14291 | 11.42189 | 149° | 40km/h | 20545m | -14.2m/s | -54.4°C | 0.7% | 53.4hPa | 2.5V | 08:23:09 | 01:57:16 | 00:00:00 | |
| DF8AY | 2026-09-04 01:31:50 | 50.14299 | 11.42179 | 137° | 44km/h | 20559m | -14m/s | -54.4°C | 0.6% | 53.3hPa | 2.5V | 08:23:09 | 01:57:15 | 00:00:00 | |
| DL1XH-west | 2026-09-04 01:31:47 | 50.14316 | 11.42131 | 101° | 49km/h | 20601m | -14.5m/s | -54.5°C | 0.7% | 53hPa | 2.6V | 08:23:09 | 01:57:12 | 00:00:00 | |
| HSKMA3-T | 2026-09-04 01:31:46 | 50.14318 | 11.42112 | 90° | 46km/h | 20615m | -14.3m/s | -54.3°C | 0.6% | 52.8hPa | 2.5V | 08:23:09 | 01:57:11 | 00:00:00 | |
| DL6DJ-15 | 2026-09-04 01:31:45 | 50.14314 | 11.42081 | 67° | 33km/h | 20643m | -13.6m/s | -53.9°C | 1.1% | 52.6hPa | 2.5V | 00:00:00 | 00:00:00 | 00:00:00 | |
| ANDY1245 | 2026-09-04 01:31:44 | 50.14317 | 11.42095 | 80° | 42km/h | 20629m | -13.6m/s | -54.0°C | 1.1% | 52.7hPa | 2.5V | 08:23:00 | 00:00:00 | 00:00:00 | |
| DL1XH1-15 | 2026-09-04 01:31:43 | 50.14314 | 11.42076 | 204° | 27km/h | 20724m | -14.8m/s | -53.6°C | 4.1% | 52hPa | 2.5V | 08:22:33 | 01:57:03 | 00:00:00 | |
| DL1NUX | 2026-09-04 01:31:42 | 50.14322 | 11.42080 | 195° | 33km/h | 20739m | -14.7m/s | -53.7°C | 4.1% | 51.8hPa | 2.6V | 08:22:34 | 01:57:02 | 00:00:00 | |
| DF8AY | 2026-09-04 01:31:39 | 50.14309 | 11.42071 | 215° | 20km/h | 20710m | -14.2m/s | -53.7°C | 0.4% | 52.1hPa | 2.5V | 08:23:09 | 01:57:04 | 00:00:00 | |
| DL1XH-west | 2026-09-04 01:31:36 | 50.14330 | 11.42083 | 188° | 38km/h | 20754m | -14.5m/s | -53.7°C | 0.5% | 51.7hPa | 2.6V | 08:23:09 | 01:57:01 | 00:00:00 | |
| HSKMA3-T | 2026-09-04 01:31:35 | 50.14341 | 11.42084 | 179° | 42km/h | 20768m | -14.6m/s | -53.7°C | 0.5% | 51.6hPa | 2.5V | 08:23:09 | 01:57:00 | 00:00:00 | |
| BIOWL1-15 | 2026-09-04 01:31:33 | 50.14363 | 11.42078 | 162° | 47km/h | 20798m | -15.3m/s | -53.8°C | 0.5% | 51.3hPa | 2.5V | 08:23:09 | 01:56:58 | 00:00:00 | |
| DL1XH1-15 | 2026-09-04 01:31:33 | 50.14397 | 11.42023 | 91° | 35km/h | 20870m | -13.2m/s | -53.8°C | 4.2% | 50.8hPa | 2.5V | 08:22:43 | 01:56:53 | 00:00:00 | |
| DL1NUX | 2026-09-04 01:31:32 | 50.14396 | 11.42010 | 71° | 33km/h | 20883m | -12.8m/s | -53.8°C | 4.3% | 50.6hPa | 2.6V | 08:22:44 | 01:56:52 | 00:00:00 | |
| DF8AY | 2026-09-04 01:31:28 | 50.14397 | 11.42023 | 91° | 35km/h | 20870m | -13.2m/s | -53.8°C | 0.5% | 50.8hPa | 2.5V | 08:23:09 | 01:56:53 | 00:00:00 | |
| DL1XH-west | 2026-09-04 01:31:26 | 50.14392 | 11.41999 | 51° | 33km/h | 20896m | -13.7m/s | -53.8°C | 0.5% | 50.6hPa | 2.6V | 08:23:09 | 01:56:51 | 00:00:00 | |
| HSKMA3-T | 2026-09-04 01:31:25 | 50.14386 | 11.41990 | 34° | 33km/h | 20910m | -14.4m/s | -53.8°C | 0.5% | 50.5hPa | 2.5V | 08:23:09 | 01:56:50 | 00:00:00 | |
| DB0NH | 2026-09-04 01:31:25 | 50.14386 | 11.41990 | 34° | 33km/h | 20910m | -14.4m/s | -53.8°C | 4.2% | 50.4hPa | 2.5V | 00:00:00 | 01:56:50 | 00:00:00 | |
| DL4BBY-15 | 2026-09-04 01:31:24 | 50.14379 | 11.41984 | 22° | 33km/h | 20925m | -15.2m/s | -55.4°C | 0% | 0hPa | 2.5V | 00:00:00 | 00:00:00 | 00:00:00 | |
| DL1XH1-15 | 2026-09-04 01:31:23 | 50.14355 | 11.41987 | 187° | 11km/h | 21016m | -13.7m/s | -53.7°C | 4.2% | 49.6hPa | 2.5V | 08:22:53 | 01:56:43 | 00:00:00 | |
| SO1NDE-10 | 2026-09-04 01:31:23 | 50.14371 | 11.41981 | 11° | 33km/h | 20940m | -15.0m/s | -53.8°C | 4.3% | 50.2hPa | 2.5V | 00:00:00 | 01:56:48 | 00:00:00 | |
| DL1NUX | 2026-09-04 01:31:22 | 50.14359 | 11.41986 | 163° | 22km/h | 21030m | -13.5m/s | -53.7°C | 4.2% | 49.5hPa | 2.5V | 08:22:54 | 01:56:42 | 00:00:00 | |
| BIOWL1-15 | 2026-09-04 01:31:19 | 50.14353 | 11.41986 | 280° | 5km/h | 21002m | -14.4m/s | -53.8°C | 0.5% | 49.8hPa | 2.6V | 08:23:09 | 01:56:44 | 00:00:00 | |
| DF8AY | 2026-09-04 01:31:18 | 50.14355 | 11.41987 | 188° | 11km/h | 21016m | -13.7m/s | -53.7°C | 0.5% | 49.6hPa | 2.5V | 08:23:09 | 01:56:43 | 00:00:00 | |
| DL1XH-west | 2026-09-04 01:31:16 | 50.14365 | 11.41982 | 148° | 33km/h | 21043m | -13.3m/s | -53.8°C | 0.5% | 49.4hPa | 2.5V | 08:23:09 | 01:56:41 | 00:00:00 | |
| HSKMA3-T | 2026-09-04 01:31:15 | 50.14372 | 11.41972 | 135° | 44km/h | 21057m | -14.1m/s | -53.8°C | 0.5% | 49.3hPa | 2.5V | 08:23:09 | 01:56:40 | 00:00:00 | |
| DL6DJ-15 | 2026-09-04 01:31:13 | 50.14386 | 11.41940 | 115° | 53km/h | 21086m | -15.0m/s | -53.9°C | 1.0% | 49.1hPa | 2.5V | 00:00:00 | 00:00:00 | 00:00:00 | |
| DL1NUX | 2026-09-04 01:31:12 | 50.14384 | 11.41832 | 50° | 31km/h | 21176m | -15.3m/s | -53.8°C | 4.2% | 48.4hPa | 2.5V | 08:23:04 | 01:56:32 | 00:00:00 | |
| DF8AY | 2026-09-04 01:31:08 | 50.14384 | 11.41832 | 51° | 31km/h | 21176m | -15.3m/s | -53.8°C | 0.5% | 48.4hPa | 2.5V | 08:23:09 | 01:56:32 | 00:00:00 | |
| BIOWL1-15 | 2026-09-04 01:31:08 | 50.14389 | 11.41844 | 64° | 38km/h | 21161m | -15m/s | -53.9°C | 0.5% | 48.5hPa | 2.6V | 08:23:09 | 01:56:33 | 00:00:00 | |
| DL1XH-west | 2026-09-04 01:31:05 | 50.14375 | 11.41822 | 9° | 16km/h | 21207m | -15m/s | -53.7°C | 0.5% | 48.1hPa | 2.5V | 08:23:09 | 01:56:30 | 00:00:00 | |
| HSKMA3-T | 2026-09-04 01:31:04 | 50.14372 | 11.41823 | 326° | 11km/h | 21222m | -15.1m/s | -53.7°C | 0.6% | 48hPa | 2.6V | 08:23:09 | 01:56:29 | 00:00:00 | |
| DL1XH1-15 | 2026-09-04 01:31:03 | 50.14402 | 11.41831 | 153° | 46km/h | 21307m | -14.4m/s | -53.4°C | 4.1% | 47.4hPa | 2.6V | 08:23:13 | 01:56:23 | 00:00:00 | |
| DL1NUX | 2026-09-04 01:31:02 | 50.14411 | 11.41821 | 141° | 49km/h | 21322m | -15.9m/s | -53.5°C | 4.1% | 47.3hPa | 2.5V | 08:23:14 | 01:56:22 | 00:00:00 | |
| DF8AY | 2026-09-04 01:30:56 | 50.14420 | 11.41808 | 134° | 49km/h | 21338m | -16.1m/s | -53.6°C | 0.5% | 47.2hPa | 2.5V | 08:24:00 | 01:56:21 | 00:00:00 | |
| DL1XH-west | 2026-09-04 01:30:55 | 50.14428 | 11.41793 | 125° | 49km/h | 21355m | -17.1m/s | -53.7°C | 0.5% | 47hPa | 2.5V | 08:24:00 | 01:56:20 | 00:00:00 | |
| BIOWL1-15 | 2026-09-04 01:30:54 | 50.14440 | 11.41746 | 93° | 35km/h | 21405m | -15.7m/s | -53.7°C | 0.5% | 46.7hPa | 2.5V | 08:24:51 | 01:56:17 | 00:00:00 | |
| HSKMA3-T | 2026-09-04 01:30:54 | 50.14434 | 11.41777 | 116° | 46km/h | 21372m | -17.2m/s | -53.7°C | 0.6% | 46.9hPa | 2.6V | 08:24:00 | 01:56:19 | 00:00:00 | |
| DL4BBY-15 | 2026-09-04 01:30:54 | 50.14434 | 11.41777 | 116° | 31km/h | 21372m | -17.1m/s | -55.2°C | 0% | 0hPa | 2.6V | 00:00:00 | 00:00:00 | 00:00:00 | |
| DL1XH1-15 | 2026-09-04 01:30:53 | 50.14428 | 11.41725 | 317° | 20km/h | 21461m | -14.7m/s | -53.6°C | 4.1% | 46.3hPa | 2.6V | 08:23:23 | 01:56:13 | 00:00:00 | |
| SO1NDE-10 | 2026-09-04 01:30:53 | 50.14438 | 11.41761 | 106° | 29km/h | 21389m | -16.4m/s | -53.6°C | 4.2% | 46.7hPa | 2.6V | 00:00:00 | 01:56:18 | 00:00:00 | |
| DL1NUX | 2026-09-04 01:30:52 | 50.14425 | 11.41732 | 288° | 26km/h | 21476m | -15.6m/s | -53.6°C | 4.2% | 46.2hPa | 2.5V | 08:23:24 | 01:56:12 | 00:00:00 | |
| DL1XH-west | 2026-09-04 01:30:45 | 50.14425 | 11.41754 | 254° | 33km/h | 21508m | -15.8m/s | -53.7°C | 0.5% | 45.9hPa | 2.5V | 08:24:00 | 01:56:10 | 00:00:00 | |
| HSKMA3-T | 2026-09-04 01:30:44 | 50.14429 | 11.41767 | 239° | 37km/h | 21524m | -16.3m/s | -53.6°C | 0.4% | 45.8hPa | 2.5V | 08:24:00 | 01:56:09 | 00:00:00 | |
| NBG1-10 | 2026-09-04 01:30:43 | 50.14434 | 11.41778 | 227° | 29km/h | 21540m | -15.3m/s | -53.5°C | 4.1% | 45.6hPa | 2.6V | 00:00:00 | 01:56:08 | 00:00:00 | |
| DL1NUX | 2026-09-04 01:30:42 | 50.14484 | 11.41776 | 120° | 35km/h | 21632m | -15.4m/s | -53.8°C | 4.2% | 45hPa | 2.5V | 08:23:34 | 01:56:02 | 00:00:00 | |
| BIOWL1-15 | 2026-09-04 01:30:39 | 50.14470 | 11.41793 | 160° | 38km/h | 21601m | -15.3m/s | -53.6°C | 0.4% | 45.3hPa | 2.5V | 08:24:51 | 01:56:04 | 00:00:00 | |
| DF8AY | 2026-09-04 01:30:34 | 50.14484 | 11.41736 | 62° | 35km/h | 21678m | -15.6m/s | -53.7°C | 0.5% | 44.7hPa | 2.5V | 08:24:00 | 01:55:59 | 00:00:00 | |
| HSKMA3-T | 2026-09-04 01:30:33 | 50.14479 | 11.41726 | 44° | 35km/h | 21693m | -15.4m/s | -53.8°C | 0.5% | 44.6hPa | 2.5V | 08:24:00 | 01:55:58 | 00:00:00 | |
| BIOWL1-15 | 2026-09-04 01:30:28 | 50.14478 | 11.41637 | 81° | 37km/h | 21923m | -16.3m/s | -53.8°C | 0.6% | 43.1hPa | 2.5V | 08:24:51 | 01:55:43 | 00:00:00 | |
| DO3MHA-11 | 2026-09-04 01:30:28 | 50.14449 | 11.41723 | 296° | 31km/h | 21770m | -16.2m/s | -54.0°C | 4.4% | 44.0hPa | 2.5V | 00:00:00 | 01:55:53 | 00:00:00 | |
| DM0DOS-11 | 2026-09-04 01:30:26 | 50.14467 | 11.41718 | 128° | 38km/h | 21844m | -14.6m/s | -54.3°C | 4.6% | 43.6hPa | 2.5V | 08:23:48 | 01:55:48 | 00:00:00 | |
| DB0NH | 2026-09-04 01:30:25 | 50.14455 | 11.41732 | 169° | 29km/h | 21816m | -14.1m/s | -54.2°C | 4.5% | 43.7hPa | 2.6V | 00:00:00 | 01:55:50 | 00:00:00 | |
| DL4BBY-15 | 2026-09-04 01:30:24 | 50.14461 | 11.41728 | 146° | 31km/h | 21830m | -14.5m/s | -55.8°C | 0% | 0hPa | 2.5V | 00:00:00 | 00:00:00 | 00:00:00 | |
| DL1XH1-15 | 2026-09-04 01:30:23 | 50.14478 | 11.41637 | 81° | 37km/h | 21923m | -16.3m/s | -53.8°C | 4.4% | 43hPa | 2.5V | 08:23:53 | 01:55:43 | 00:00:00 | |
| DL1XH-west | 2026-09-04 01:30:23 | 50.14467 | 11.41718 | 128° | 38km/h | 21844m | -14.6m/s | -54.3°C | 0.7% | 43.6hPa | 2.5V | 08:24:00 | 01:55:48 | 00:00:00 | |
| HSKMA3-T | 2026-09-04 01:30:22 | 50.14473 | 11.41704 | 115° | 44km/h | 21859m | -14.8m/s | -54.3°C | 0.7% | 43.5hPa | 2.5V | 08:24:00 | 01:55:47 | 00:00:00 | |
| PG1ADW-2 | 2026-09-04 01:30:22 | 50.14473 | 11.41704 | 115° | 35km/h | 21859m | -14.7m/s | -54.2°C | 4.5% | 43.4hPa | 2.5V | 00:00:00 | 00:00:00 | 00:00:00 | |
| DM7RM-13 | 2026-09-04 01:30:21 | 50.14473 | 11.41704 | 116° | 44km/h | 21859m | -14.8m/s | -54.3°C | 1.1% | 43.5hPa | 2.5V | 08:24:00 | 00:00:00 | 00:00:00 | |
| EDDB2-11 | 2026-09-04 01:30:20 | 50.14479 | 11.41653 | 87° | 40km/h | 21907m | -16.7m/s | -53.9°C | 1.1% | 43.2hPa | 2.5V | 00:00:00 | 00:00:00 | 00:00:00 | |
| DJ8HS-15 | 2026-09-04 01:30:19 | 50.14479 | 11.41653 | 88° | 31km/h | 21907m | -16.6m/s | -53.8°C | 4.4% | 43.1hPa | 2.5V | 00:00:00 | 01:55:44 | 00:00:00 | |
| DO3MHA-11 | 2026-09-04 01:30:18 | 50.14478 | 11.41637 | 82° | 24km/h | 21923m | -16.3m/s | -53.8°C | 4.4% | 43.0hPa | 2.5V | 00:00:00 | 01:55:43 | 00:00:00 | |
| DM0DOS-11 | 2026-09-04 01:30:16 | 50.14469 | 11.41612 | 265° | 11km/h | 22001m | -15.8m/s | -53.5°C | 4.2% | 42.5hPa | 2.5V | 08:23:58 | 01:55:38 | 00:00:00 | |
| BIOWL1-15 | 2026-09-04 01:30:14 | 50.14470 | 11.41609 | 339° | 5km/h | 21986m | -15.4m/s | -53.6°C | 0.5% | 42.7hPa | 2.5V | 08:24:51 | 01:55:39 | 00:00:00 | |
| DL1XH-west | 2026-09-04 01:30:12 | 50.14470 | 11.41617 | 243° | 20km/h | 22017m | -16.2m/s | -53.5°C | 0.5% | 42.5hPa | 2.5V | 08:24:00 | 01:55:37 | 00:00:00 | |
| HSKMA3-T | 2026-09-04 01:30:11 | 50.14473 | 11.41625 | 231° | 26km/h | 22033m | -16.1m/s | -53.5°C | 0.5% | 42.3hPa | 2.6V | 08:24:00 | 01:55:36 | 00:00:00 | |
| BIOWL1-15 | 2026-09-04 01:30:03 | 50.14555 | 11.41658 | 163° | 35km/h | 22164m | -16.5m/s | -52.6°C | 0.3% | 41.4hPa | 2.5V | 08:24:51 | 01:55:28 | 00:00:00 | |
| DL1NUX | 2026-09-04 01:30:02 | 50.14558 | 11.41643 | 336° | 18km/h | 22257m | -16.5m/s | -52.8°C | 4% | 40.9hPa | 2.5V | 08:24:14 | 01:55:22 | 00:00:00 | |
| HSKMA3-T | 2026-09-04 01:30:01 | 50.14566 | 11.41648 | 124° | 16km/h | 22196m | -15.2m/s | -52.6°C | 0.3% | 41.2hPa | 2.6V | 08:24:51 | 01:55:26 | 00:00:00 | |
| DF8AY | 2026-09-04 01:30:00 | 50.14567 | 11.41644 | 85° | 9km/h | 22211m | -14.7m/s | -52.6°C | 0.3% | 41.1hPa | 2.6V | 08:24:51 | 01:55:25 | 00:00:00 | |
| BIOWL1-15 | 2026-09-04 01:29:54 | 50.14547 | 11.41664 | 254° | 13km/h | 22339m | -16.5m/s | -53.3°C | 0.5% | 40.4hPa | 2.5V | 08:24:51 | 01:55:17 | 00:00:00 | |
| DL4BBY-15 | 2026-09-04 01:29:54 | 50.14547 | 11.41655 | 306° | 13km/h | 22307m | -16.1m/s | -54.6°C | 0% | 0hPa | 2.5V | 00:00:00 | 00:00:00 | 00:00:00 | |
| PETON7-10 | 2026-09-04 01:29:53 | 50.14546 | 11.41659 | 278° | 11km/h | 22323m | -16.6m/s | -53.2°C | 4.1% | 40.4hPa | 2.5V | 00:00:00 | 01:55:18 | 00:00:00 | |
| DL1NUX | 2026-09-04 01:29:52 | 50.14559 | 11.41669 | 155° | 9km/h | 22424m | -17.6m/s | -53.3°C | 4.1% | 39.8hPa | 2.5V | 08:24:24 | 01:55:12 | 00:00:00 | |
| HSKMA3-T | 2026-09-04 01:29:51 | 50.14548 | 11.41669 | 236° | 11km/h | 22356m | -16.1m/s | -53.4°C | 0.5% | 40.2hPa | 2.6V | 08:24:51 | 01:55:16 | 00:00:00 | |
| DF8AY | 2026-09-04 01:29:50 | 50.14553 | 11.41671 | 176° | 13km/h | 22389m | -16.1m/s | -53.4°C | 0.5% | 40hPa | 2.5V | 08:24:51 | 01:55:14 | 00:00:00 | |
| EDDB2-11 | 2026-09-04 01:29:49 | 50.14556 | 11.41670 | 163° | 13km/h | 22406m | -18.2m/s | -53.3°C | 1.0% | 40.0hPa | 2.5V | 00:00:00 | 00:00:00 | 00:00:00 | |
| DO3MHA-11 | 2026-09-04 01:29:48 | 50.14556 | 11.41670 | 164° | 11km/h | 22406m | -18.2m/s | -53.2°C | 4.1% | 39.9hPa | 2.5V | 00:00:00 | 01:55:13 | 00:00:00 | |
| KANTATE | 2026-09-04 01:29:44 | 50.14561 | 11.41665 | 91° | 5km/h | 22459m | -17.5m/s | 0°C | 0% | 39.6hPa | 2.5V | 00:00:00 | 00:00:00 | 00:00:00 | |
| DL1XH1-15 | 2026-09-04 01:29:43 | 50.14547 | 11.41685 | 281° | 15km/h | 22581m | -16.2m/s | -53.1°C | 4% | 38.8hPa | 2.5V | 08:24:33 | 01:55:03 | 00:00:00 | |
| DM0DOS-11 | 2026-09-04 01:29:42 | 50.14548 | 11.41679 | 290° | 18km/h | 22566m | -15.8m/s | -53.1°C | 4% | 39hPa | 2.5V | 08:24:32 | 01:55:04 | 00:00:00 | |
| BIOWL1-15 | 2026-09-04 01:29:42 | 50.14556 | 11.41665 | 336° | 13km/h | 22512m | -18.5m/s | -53.2°C | 0.5% | 39.3hPa | 2.5V | 08:24:51 | 01:55:07 | 00:00:00 | |
| DL1XH-west | 2026-09-04 01:29:40 | 50.14551 | 11.41673 | 299° | 18km/h | 22549m | -17.7m/s | -53.2°C | 0.4% | 39.1hPa | 2.6V | 08:24:51 | 01:55:05 | 00:00:00 | |
| DF8AY | 2026-09-04 01:29:38 | 50.14548 | 11.41685 | 281° | 15km/h | 22581m | -16.2m/s | -53.1°C | 0.4% | 38.8hPa | 2.5V | 08:24:51 | 01:55:03 | 00:00:00 | |
| PETON7-10 | 2026-09-04 01:29:38 | 50.14547 | 11.41685 | 282° | 15km/h | 22582m | -16.2m/s | -53.1°C | 4.0% | 38.8hPa | 2.5V | 00:00:00 | 00:00:00 | 00:00:00 | |
| EDDB2-12 | 2026-09-04 01:29:37 | 50.14546 | 11.41694 | 312° | 7km/h | 22616m | -18.0m/s | -53.1°C | 0.9% | 38.6hPa | 2.5V | 00:00:00 | 00:00:00 | 00:00:00 | |
| DO9HM | 2026-09-04 01:29:34 | 50.14544 | 11.41696 | 350° | 11km/h | 22634m | -16.7m/s | 0°C | 0% | 0hPa | 2.5V | 00:00:00 | 00:00:00 | 00:00:00 | |
| DL1XH1-15 | 2026-09-04 01:29:33 | 50.14520 | 11.41695 | 17° | 9km/h | 22759m | -18.4m/s | -53.4°C | 4.1% | 37.8hPa | 2.5V | 08:24:43 | 01:54:53 | 00:00:00 | |
| DL1NUX | 2026-09-04 01:29:32 | 50.14518 | 11.41693 | 35° | 13km/h | 22778m | -18.2m/s | -53.4°C | 4% | 37.7hPa | 2.5V | 08:24:44 | 01:54:52 | 00:00:00 | |
| BIOWL1-15 | 2026-09-04 01:29:32 | 50.14533 | 11.41696 | 354° | 16km/h | 22686m | -18.1m/s | -53.1°C | 0.4% | 38.2hPa | 2.5V | 08:24:51 | 01:54:57 | 00:00:00 | |
| DF2AP-13 | 2026-09-04 01:29:32 | 50.14533 | 11.41696 | 354° | 16km/h | 22686m | -18.0m/s | -53.1°C | 4.0% | 38.2hPa | 2.5V | 00:00:00 | 01:54:57 | 00:00:00 | |
| OE5MMP-10 | 2026-09-04 01:29:31 | 50.14529 | 11.41697 | 357° | 9km/h | 22704m | -18.7m/s | -53.2°C | 4.0% | 38.1hPa | 2.6V | 00:00:00 | 01:54:56 | 00:00:00 | |
| DM0DOS-11 | 2026-09-04 01:29:30 | 50.14512 | 11.41685 | 51° | 20km/h | 22814m | -18.6m/s | -53.5°C | 4% | 37.5hPa | 2.6V | 08:24:46 | 01:54:50 | 00:00:00 | |
| DL1XH-west | 2026-09-04 01:29:29 | 50.14523 | 11.41696 | 8° | 11km/h | 22741m | -19m/s | -53.3°C | 0.4% | 37.9hPa | 2.5V | 08:24:51 | 01:54:54 | 00:00:00 | |
| DF8AY | 2026-09-04 01:29:28 | 50.14520 | 11.41695 | 17° | 9km/h | 22759m | -18.4m/s | -53.4°C | 0.4% | 37.8hPa | 2.5V | 08:24:51 | 01:54:53 | 00:00:00 | |
| DO3MHA-11 | 2026-09-04 01:29:28 | 50.14520 | 11.41695 | 18° | 22km/h | 22760m | -18.3m/s | -53.3°C | 4.1% | 37.7hPa | 2.5V | 00:00:00 | 01:54:53 | 00:00:00 | |
| DJ2DS-15 | 2026-09-04 01:29:27 | 50.14518 | 11.41693 | 35° | 11km/h | 22778m | -18.2m/s | -53.4°C | 1.0% | 37.7hPa | 2.5V | 00:00:00 | 00:00:00 | 00:00:00 | |
| DB0ND-19 | 2026-09-04 01:29:26 | 50.14515 | 11.41690 | 45° | 15km/h | 22796m | -18.4m/s | -53.5°C | 0.9% | 37.6hPa | 2.5V | 00:00:00 | 00:00:00 | 00:00:00 | |
| OE5DXL-15 | 2026-09-04 01:29:25 | 50.14512 | 11.41684 | 52° | 18km/h | 22815m | -18.6m/s | -53.4°C | 4.0% | 37.4hPa | 2.5V | 00:00:00 | 00:00:00 | 00:00:00 | |
| BIOWL9-15 | 2026-09-04 01:29:24 | 50.14505 | 11.41669 | 51° | 27km/h | 22850m | -18.2m/s | -53.5°C | 1.0% | 37.3hPa | 2.5V | 00:00:00 | 00:00:00 | 00:00:00 | |
| SO1NDE-10 | 2026-09-04 01:29:23 | 50.14505 | 11.41669 | 52° | 18km/h | 22850m | -18.1m/s | -53.4°C | 4.1% | 37.2hPa | 2.5V | 00:00:00 | 01:54:48 | 00:00:00 | |
| DL1XH1-15 | 2026-09-04 01:29:23 | 50.14481 | 11.41627 | 46° | 22km/h | 22942m | -18.4m/s | -53.6°C | 4.1% | 36.7hPa | 2.5V | 08:24:53 | 01:54:43 | 00:00:00 | |
| DL1NUX | 2026-09-04 01:29:22 | 50.14478 | 11.41621 | 51° | 18km/h | 22961m | -18.6m/s | -53.6°C | 4.1% | 36.6hPa | 2.5V | 08:24:54 | 01:54:42 | 00:00:00 | |
| BIOWL1-15 | 2026-09-04 01:29:21 | 50.14495 | 11.41651 | 52° | 31km/h | 22887m | -18.7m/s | -53.6°C | 0.4% | 37hPa | 2.6V | 08:24:51 | 01:54:46 | 00:00:00 | |
| DL1XH-west | 2026-09-04 01:29:19 | 50.14485 | 11.41634 | 45° | 26km/h | 22924m | -18.5m/s | -53.6°C | 0.5% | 36.8hPa | 2.5V | 08:25:42 | 01:54:44 | 00:00:00 | |
| HSKMA3-T | 2026-09-04 01:29:18 | 50.14481 | 11.41627 | 46° | 22km/h | 22942m | -18.4m/s | -53.6°C | 0.5% | 36.7hPa | 2.5V | 08:25:42 | 01:54:43 | 00:00:00 | |
| DF8AY | 2026-09-04 01:29:17 | 50.14478 | 11.41621 | 52° | 18km/h | 22961m | -18.7m/s | -53.6°C | 0.4% | 36.6hPa | 2.5V | 08:25:42 | 01:54:42 | 00:00:00 | |
| DM0DOS-11 | 2026-09-04 01:29:16 | 50.14474 | 11.41611 | 80° | 11km/h | 22997m | -18.2m/s | -53.6°C | 4.1% | 36.4hPa | 2.6V | 08:24:56 | 01:54:40 | 00:00:00 | |
| DL1XH1-15 | 2026-09-04 01:29:13 | 50.14468 | 11.41574 | 44° | 13km/h | 23121m | -19m/s | -53.7°C | 4% | 35.7hPa | 2.5V | 08:25:03 | 01:54:33 | 00:00:00 | |
| DL1NUX | 2026-09-04 01:29:12 | 50.14465 | 11.41572 | 35° | 9km/h | 23140m | -19m/s | -53.8°C | 4.1% | 35.6hPa | 2.5V | 08:25:04 | 01:54:32 | 00:00:00 | |
| BIOWL1-15 | 2026-09-04 01:29:10 | 50.14473 | 11.41584 | 57° | 16km/h | 23085m | -17.1m/s | -53.6°C | 0.4% | 35.9hPa | 2.6V | 08:25:42 | 01:54:35 | 00:00:00 | |
| DM0DOS-11 | 2026-09-04 01:29:10 | 50.14463 | 11.41568 | 79° | 4km/h | 23178m | -18.6m/s | -54°C | 4.2% | 35.4hPa | 2.6V | 08:25:06 | 01:54:30 | 00:00:00 | |
| DL1XH-west | 2026-09-04 01:29:08 | 50.14467 | 11.41574 | 45° | 13km/h | 23121m | -19m/s | -53.7°C | 0.4% | 35.7hPa | 2.5V | 08:25:42 | 01:54:33 | 00:00:00 | |
| HSKMA3-T | 2026-09-04 01:29:07 | 50.14465 | 11.41572 | 35° | 9km/h | 23140m | -19m/s | -53.8°C | 0.5% | 35.6hPa | 2.5V | 08:25:42 | 01:54:32 | 00:00:00 | |
| PETON7-10 | 2026-09-04 01:29:07 | 50.14465 | 11.41571 | 36° | 16km/h | 23140m | -19.0m/s | -53.7°C | 4.1% | 35.6hPa | 2.5V | 00:00:00 | 01:54:32 | 00:00:00 | |
| AU51GT2 | 2026-09-04 01:29:06 | 50.14463 | 11.41568 | 79° | 2km/h | 23178m | -18.6m/s | -54.0°C | 1.0% | 35.4hPa | 2.5V | 00:00:00 | 00:00:00 | 00:00:00 | |
| NBG1-10 | 2026-09-04 01:29:04 | 50.14463 | 11.41566 | 122° | 20km/h | 23197m | -19.2m/s | -54.0°C | 4.2% | 35.2hPa | 2.5V | 08:25:00 | 01:54:29 | 00:00:00 | |
| DL1XH1-15 | 2026-09-04 01:29:03 | 50.14482 | 11.41529 | 118° | 27km/h | 23308m | -19.5m/s | -54.3°C | 4.3% | 34.7hPa | 2.5V | 08:25:13 | 01:54:23 | 00:00:00 | |
| OE5MMP-10 | 2026-09-04 01:29:03 | 50.14464 | 11.41563 | 130° | 18km/h | 23215m | -17.2m/s | -54.0°C | 4.2% | 35.2hPa | 2.5V | 00:00:00 | 01:54:28 | 00:00:00 | |
| DL1NUX | 2026-09-04 01:29:02 | 50.14484 | 11.41521 | 111° | 22km/h | 23327m | -19.3m/s | -54.4°C | 4.3% | 34.6hPa | 2.5V | 08:25:14 | 01:54:22 | 00:00:00 | |
| BIOWL1-15 | 2026-09-04 01:29:00 | 50.14482 | 11.41529 | 119° | 27km/h | 23308m | -19.5m/s | -54.3°C | 0.5% | 34.7hPa | 2.5V | 08:25:42 | 01:54:23 | 00:00:00 | |
| DF7PN | 2026-09-04 01:28:57 | 50.14484 | 11.41521 | 111° | 22km/h | 23327m | -19.3m/s | -54.4°C | 1.0% | 34.6hPa | 2.6V | 00:00:00 | 00:00:00 | 00:00:00 | |
| DF8AY | 2026-09-04 01:28:57 | 50.14484 | 11.41521 | 111° | 22km/h | 23327m | -19.3m/s | -54.4°C | 0.5% | 34.6hPa | 2.5V | 08:25:42 | 01:54:22 | 00:00:00 | |
| 13BRC | 2026-09-04 01:28:56 | 50.14484 | 11.41521 | 112° | 22km/h | 23327m | -19.3m/s | -54.4°C | 1.0% | 34.6hPa | 2.6V | 08:25:00 | 00:00:00 | 00:00:00 | |
| DB0NH | 2026-09-04 01:28:55 | 50.14485 | 11.41507 | 71° | 20km/h | 23365m | -18.3m/s | -54.4°C | 4.4% | 34.3hPa | 2.6V | 00:00:00 | 01:54:20 | 00:00:00 | |
| DL4BBY-15 | 2026-09-04 01:28:54 | 50.14483 | 11.41504 | 23° | 20km/h | 23382m | -16.6m/s | -56.1°C | 0% | 0hPa | 2.5V | 00:00:00 | 00:00:00 | 00:00:00 | |
| DL1XH1-15 | 2026-09-04 01:28:53 | 50.14468 | 11.41529 | 310° | 7km/h | 23488m | -17.9m/s | -55°C | 4.7% | 33.7hPa | 2.5V | 08:25:23 | 01:54:13 | 00:00:00 | |
| BIOWL9-15 | 2026-09-04 01:28:53 | 50.14476 | 11.41508 | 313° | 20km/h | 23416m | -17.8m/s | -54.7°C | 1.0% | 34.1hPa | 2.5V | 00:00:00 | 00:00:00 | 00:00:00 | |
| DL1NUX | 2026-09-04 01:28:52 | 50.14467 | 11.41530 | 52° | 4km/h | 23506m | -17.1m/s | -54.9°C | 4.7% | 33.6hPa | 2.5V | 08:25:24 | 01:54:12 | 00:00:00 | |
| BIOWL1-15 | 2026-09-04 01:28:49 | 50.14468 | 11.41529 | 311° | 7km/h | 23488m | -17.9m/s | -55°C | 0.7% | 33.7hPa | 2.5V | 08:25:42 | 01:54:13 | 00:00:00 | |
| DM0DOS-11 | 2026-09-04 01:28:49 | 50.14465 | 11.41518 | 81° | 26km/h | 23539m | -15.9m/s | -54.9°C | 4.8% | 33.4hPa | 2.6V | 08:25:26 | 01:54:10 | 00:00:00 | |
| DL1XH-west | 2026-09-04 01:28:47 | 50.14467 | 11.41530 | 53° | 4km/h | 23506m | -17.1m/s | -54.9°C | 0.8% | 33.6hPa | 2.5V | 08:25:42 | 01:54:12 | 00:00:00 | |
| DF8AY | 2026-09-04 01:28:46 | 50.14466 | 11.41526 | 81° | 15km/h | 23522m | -17.2m/s | -54.9°C | 0.8% | 33.5hPa | 2.6V | 08:25:42 | 01:54:11 | 00:00:00 | |
| DL1XH1-15 | 2026-09-04 01:28:43 | 50.14471 | 11.41429 | 129° | 27km/h | 23664m | -18.4m/s | -54.1°C | 4.4% | 32.8hPa | 2.5V | 08:25:33 | 01:54:03 | 00:00:00 | |
| DL1NUX | 2026-09-04 01:28:42 | 50.14475 | 11.41422 | 135° | 24km/h | 23683m | -18.7m/s | -54°C | 4.3% | 32.7hPa | 2.5V | 08:25:34 | 01:54:02 | 00:00:00 | |
| BIOWL1-15 | 2026-09-04 01:28:39 | 50.14467 | 11.41439 | 120° | 31km/h | 23646m | -18.5m/s | -54.3°C | 0.7% | 32.9hPa | 2.5V | 08:25:42 | 01:54:04 | 00:00:00 | |
| DL1XH-west | 2026-09-04 01:28:37 | 50.14475 | 11.41422 | 135° | 24km/h | 23683m | -18.7m/s | -54°C | 0.6% | 32.7hPa | 2.5V | 08:25:42 | 01:54:02 | 00:00:00 | |
| DF8AY-15 | 2026-09-04 01:28:37 | 50.14475 | 11.41422 | 136° | 18km/h | 23683m | -18.6m/s | -53.9°C | 4.3% | 32.6hPa | 2.5V | 00:00:00 | 01:54:02 | 00:00:00 | |
| DM0DOS-11 | 2026-09-04 01:28:36 | 50.14482 | 11.41411 | 132° | 18km/h | 23721m | -19.5m/s | -53.7°C | 4.2% | 32.5hPa | 2.6V | 08:25:36 | 01:54:00 | 00:00:00 | |
| HSKMA3-T | 2026-09-04 01:28:36 | 50.14479 | 11.41416 | 139° | 20km/h | 23702m | -19.7m/s | -53.8°C | 0.5% | 32.6hPa | 2.6V | 08:25:42 | 01:54:01 | 00:00:00 | |
| DF8AY | 2026-09-04 01:28:35 | 50.14483 | 11.41411 | 133° | 18km/h | 23721m | -19.5m/s | -53.7°C | 0.5% | 32.5hPa | 2.6V | 08:25:42 | 01:54:00 | 00:00:00 | |
| AU51GT2 | 2026-09-04 01:28:35 | 50.14485 | 11.41406 | 125° | 15km/h | 23740m | -18.1m/s | -53.7°C | 1.0% | 32.4hPa | 2.5V | 00:00:00 | 00:00:00 | 00:00:00 | |
| DF3TZ-5 | 2026-09-04 01:28:34 | 50.14487 | 11.41401 | 122° | 11km/h | 23758m | -18.7m/s | 0°C | -1.0% | -1.0hPa | 2.5V | 00:00:00 | 00:00:00 | 00:00:00 | |
| DL1XH1-15 | 2026-09-04 01:28:33 | 50.14502 | 11.41377 | 144° | 18km/h | 23851m | -19.5m/s | -53.4°C | 4.2% | 31.8hPa | 2.5V | 08:25:43 | 01:53:53 | 00:00:00 | |
| DL1NUX | 2026-09-04 01:28:32 | 50.14505 | 11.41373 | 150° | 16km/h | 23871m | -19.6m/s | -53.4°C | 4.2% | 31.7hPa | 2.5V | 08:25:44 | 01:53:52 | 00:00:00 | |
| BIOWL1-15 | 2026-09-04 01:28:32 | 50.14502 | 11.41377 | 144° | 18km/h | 23851m | -19.5m/s | -53.4°C | 0.6% | 31.8hPa | 2.5V | 08:26:33 | 01:53:53 | 00:00:00 | |
| PETON7-10 | 2026-09-04 01:28:32 | 50.14489 | 11.41397 | 123° | 18km/h | 23777m | -19.6m/s | -53.6°C | 4.3% | 32.1hPa | 2.5V | 00:00:00 | 00:00:00 | 00:00:00 | |
| OE5MMP-10 | 2026-09-04 01:28:31 | 50.14491 | 11.41392 | 130° | 16km/h | 23796m | -18.3m/s | -53.6°C | 4.3% | 32.0hPa | 2.6V | 00:00:00 | 01:53:56 | 00:00:00 | |
| DM0DOS-11 | 2026-09-04 01:28:30 | 50.14514 | 11.41367 | 156° | 18km/h | 23909m | -19.7m/s | -53.2°C | 4.2% | 31.5hPa | 2.6V | 08:25:46 | 01:53:50 | 00:00:00 | |
| DL1XH-west | 2026-09-04 01:28:26 | 50.14510 | 11.41370 | 155° | 18km/h | 23890m | -19.2m/s | -53.3°C | 0.4% | 31.6hPa | 2.6V | 08:26:33 | 01:53:51 | 00:00:00 | |
| DF8AY | 2026-09-04 01:28:24 | 50.14518 | 11.41364 | 159° | 18km/h | 23929m | -19.7m/s | -53.2°C | 0.5% | 31.4hPa | 2.5V | 08:26:33 | 01:53:49 | 00:00:00 | |
| DL1XH1-15 | 2026-09-04 01:28:24 | 50.14544 | 11.41351 | 145° | 18km/h | 24043m | -20.3m/s | -53.5°C | 4.3% | 30.9hPa | 2.5V | 08:25:53 | 01:53:43 | 00:00:00 | |
| SO1NDE-10 | 2026-09-04 01:28:23 | 50.14523 | 11.41362 | 165° | 22km/h | 23949m | -19.4m/s | -53.2°C | 4.2% | 31.3hPa | 2.5V | 00:00:00 | 01:53:48 | 00:00:00 | |
| DL1NUX | 2026-09-04 01:28:22 | 50.14548 | 11.41346 | 133° | 18km/h | 24063m | -19.2m/s | -53.5°C | 4.4% | 30.8hPa | 2.5V | 08:25:54 | 01:53:42 | 00:00:00 | |
| PG1ADW-2 | 2026-09-04 01:28:22 | 50.14527 | 11.41360 | 166° | 26km/h | 23968m | -18.7m/s | -53.2°C | 4.3% | 31.2hPa | 2.5V | 08:25:00 | 00:00:00 | 00:00:00 | |
| DD8BA-10 | 2026-09-04 01:28:21 | 50.14532 | 11.41358 | 162° | 20km/h | 23986m | -16.7m/s | -53.3°C | 4.2% | 31.1hPa | 2.5V | 00:00:00 | 00:00:00 | 00:00:00 | |
| DJ8HS-15 | 2026-09-04 01:28:19 | 50.14540 | 11.41354 | 162° | 26km/h | 24023m | -20.2m/s | -53.3°C | 4.3% | 31.0hPa | 2.5V | 00:00:00 | 01:53:44 | 00:00:00 | |
| DO3MHA-11 | 2026-09-04 01:28:18 | 50.14544 | 11.41351 | 146° | 24km/h | 24044m | -20.3m/s | -53.4°C | 4.3% | 30.9hPa | 2.6V | 00:00:00 | 01:53:43 | 00:00:00 | |
| BIOWL1-15 | 2026-09-04 01:28:18 | 50.14544 | 11.41351 | 146° | 18km/h | 24043m | -20.3m/s | -53.5°C | 0.6% | 30.9hPa | 2.5V | 08:26:33 | 01:53:43 | 00:00:00 | |
| DF8AY-15 | 2026-09-04 01:28:17 | 50.14547 | 11.41346 | 134° | 24km/h | 24063m | -19.1m/s | -53.5°C | 4.4% | 30.7hPa | 2.6V | 00:00:00 | 01:53:42 | 00:00:00 | |
| DM0DOS-11 | 2026-09-04 01:28:16 | 50.14554 | 11.41336 | 135° | 20km/h | 24101m | -19.6m/s | -53.6°C | 4.5% | 30.6hPa | 2.6V | 08:25:56 | 01:53:40 | 00:00:00 | |
| DL1XH-west | 2026-09-04 01:28:15 | 50.14554 | 11.41336 | 136° | 20km/h | 24101m | -19.6m/s | -53.6°C | 0.7% | 30.6hPa | 2.6V | 08:26:33 | 01:53:40 | 00:00:00 | |
| DF8AY | 2026-09-04 01:28:15 | 50.14561 | 11.41322 | 128° | 24km/h | 24141m | -19.9m/s | -53.5°C | 0.7% | 30.4hPa | 2.5V | 08:26:33 | 01:53:38 | 00:00:00 | |
| DJTTGO | 2026-09-04 01:28:14 | 50.14554 | 11.41336 | 137° | 20km/h | 24101m | -19.6m/s | -53.6°C | 1.0% | 30.6hPa | 2.5V | 00:00:00 | 00:00:00 | 00:00:00 | |
| DL1XH1-15 | 2026-09-04 01:28:13 | 50.14588 | 11.41284 | 145° | 33km/h | 24240m | -20.1m/s | -52.8°C | 4.3% | 30hPa | 2.5V | 08:26:03 | 01:53:33 | 00:00:00 | |
| DL1NUX | 2026-09-04 01:28:12 | 50.14595 | 11.41277 | 147° | 33km/h | 24260m | -19.4m/s | -52.7°C | 4.2% | 29.9hPa | 2.5V | 08:26:04 | 01:53:32 | 00:00:00 | |
| DD8BA-10 | 2026-09-04 01:28:11 | 50.14570 | 11.41307 | 135° | 31km/h | 24181m | -19.8m/s | -52.9°C | 4.3% | 30.2hPa | 2.6V | 00:00:00 | 00:00:00 | 00:00:00 | |
| DM0DOS-11 | 2026-09-04 01:28:10 | 50.14610 | 11.41264 | 150° | 35km/h | 24299m | -21m/s | -52.3°C | 4% | 29.6hPa | 2.6V | 08:26:06 | 01:53:30 | 00:00:00 | |
| BIOWL1-15 | 2026-09-04 01:28:09 | 50.14595 | 11.41277 | 147° | 33km/h | 24260m | -19.4m/s | -52.7°C | 0.5% | 29.9hPa | 2.5V | 08:26:33 | 01:53:32 | 00:00:00 | |
| HSKMA3-T | 2026-09-04 01:28:05 | 50.14610 | 11.41264 | 150° | 35km/h | 24299m | -21m/s | -52.3°C | 0.4% | 29.7hPa | 2.6V | 08:26:33 | 01:53:30 | 00:00:00 | |
| DL1XH-west | 2026-09-04 01:28:04 | 50.14617 | 11.41258 | 156° | 31km/h | 24320m | -20.2m/s | -52.1°C | 0.4% | 29.6hPa | 2.5V | 08:26:33 | 01:53:29 | 00:00:00 | |
| DF8AY | 2026-09-04 01:28:03 | 50.14624 | 11.41254 | 157° | 27km/h | 24340m | -20.2m/s | -51.8°C | 0.3% | 29.5hPa | 2.5V | 08:26:33 | 01:53:28 | 00:00:00 | |
| DL1NUX | 2026-09-04 01:28:02 | 50.14640 | 11.41262 | 278° | 18km/h | 24460m | -20.4m/s | -51.8°C | 3.9% | 29hPa | 2.5V | 08:26:14 | 01:53:22 | 00:00:00 | |
| BIOWL1-15 | 2026-09-04 01:27:59 | 50.14640 | 11.41262 | 279° | 18km/h | 24461m | -20.4m/s | -51.8°C | 0.3% | 29hPa | 2.5V | 08:26:33 | 01:53:22 | 00:00:00 | |
| DJ8HS-15 | 2026-09-04 01:27:59 | 50.14639 | 11.41252 | 239° | 15km/h | 24420m | -20.2m/s | -51.7°C | 3.8% | 29.1hPa | 2.5V | 00:00:00 | 01:53:24 | 00:00:00 | |
| DD8BA-10 | 2026-09-04 01:27:58 | 50.14640 | 11.41256 | 271° | 13km/h | 24440m | -20.9m/s | -51.8°C | 3.9% | 29.0hPa | 2.5V | 08:26:00 | 00:00:00 | 00:00:00 | |
| DF8AY-15 | 2026-09-04 01:27:57 | 50.14640 | 11.41262 | 279° | 15km/h | 24461m | -20.3m/s | -51.8°C | 3.9% | 28.9hPa | 2.6V | 00:00:00 | 01:53:22 | 00:00:00 | |
| DM0DOS-11 | 2026-09-04 01:27:56 | 50.14638 | 11.41276 | 280° | 18km/h | 24502m | -21m/s | -51.8°C | 3.9% | 28.8hPa | 2.6V | 08:26:16 | 01:53:20 | 00:00:00 | |
| HSKMA3-T | 2026-09-04 01:27:55 | 50.14638 | 11.41276 | 280° | 18km/h | 24502m | -21m/s | -51.8°C | 0.3% | 28.8hPa | 2.6V | 08:26:33 | 01:53:20 | 00:00:00 | |
| DF8AY | 2026-09-04 01:27:53 | 50.14638 | 11.41287 | 263° | 11km/h | 24541m | -19.5m/s | -51.8°C | 0.4% | 28.6hPa | 2.5V | 08:26:33 | 01:53:18 | 00:00:00 | |
| SO1NDE-10 | 2026-09-04 01:27:53 | 50.14638 | 11.41287 | 264° | 22km/h | 24542m | -19.5m/s | -51.8°C | 3.9% | 28.5hPa | 2.5V | 08:26:00 | 01:53:18 | 00:00:00 | |
| DL1NUX | 2026-09-04 01:27:52 | 50.14650 | 11.41298 | 185° | 13km/h | 24662m | -21.2m/s | -51.2°C | 3.7% | 28hPa | 2.5V | 08:26:24 | 01:53:12 | 00:00:00 | |
| DM0DOS-11 | 2026-09-04 01:27:50 | 50.14656 | 11.41299 | 187° | 13km/h | 24703m | -20.5m/s | -51.3°C | 3.8% | 27.9hPa | 2.6V | 08:26:26 | 01:53:10 | 00:00:00 | |
| BIOWL1-15 | 2026-09-04 01:27:47 | 50.14650 | 11.41298 | 185° | 13km/h | 24662m | -21.2m/s | -51.2°C | 0.2% | 28hPa | 2.5V | 08:26:33 | 01:53:12 | 00:00:00 | |
| HSKMA3-T | 2026-09-04 01:27:44 | 50.14659 | 11.41298 | 167° | 15km/h | 24724m | -20.8m/s | -51.3°C | 0.3% | 27.8hPa | 2.5V | 08:26:33 | 01:53:09 | 00:00:00 | |
| DF8AY | 2026-09-04 01:27:43 | 50.14663 | 11.41296 | 151° | 15km/h | 24744m | -20.8m/s | -51.4°C | 0.3% | 27.7hPa | 2.5V | 08:26:33 | 01:53:08 | 00:00:00 | |
| DL1XH-west | 2026-09-04 01:27:42 | 50.14666 | 11.41292 | 138° | 20km/h | 24764m | -19.9m/s | -51.4°C | 0.3% | 27.6hPa | 2.5V | 08:26:33 | 01:53:07 | 00:00:00 | |
| DL1NUX | 2026-09-04 01:27:42 | 50.14666 | 11.41267 | 18° | 9km/h | 24871m | -22.4m/s | -51°C | 3.7% | 27.1hPa | 2.5V | 08:26:34 | 01:53:02 | 00:00:00 | |
| PG1ADW-2 | 2026-09-04 01:27:42 | 50.14666 | 11.41292 | 139° | 27km/h | 24765m | -19.9m/s | -51.4°C | 3.8% | 27.6hPa | 2.6V | 00:00:00 | 00:00:00 | 00:00:00 | |
| DJ8HS-15 | 2026-09-04 01:27:39 | 50.14669 | 11.41273 | 76° | 27km/h | 24827m | -21.6m/s | -51.0°C | 3.7% | 27.3hPa | 2.6V | 00:00:00 | 01:53:04 | 00:00:00 | |
| SONCRA | 2026-09-04 01:27:38 | 50.14668 | 11.41268 | 46° | 9km/h | 24849m | -23.5m/s | -51.0°C | 0.8% | 27.2hPa | 2.6V | 00:00:00 | 00:00:00 | 00:00:00 | |
| DD8BA-10 | 2026-09-04 01:27:37 | 50.14666 | 11.41267 | 19° | 16km/h | 24872m | -22.3m/s | -50.9°C | 3.7% | 27.1hPa | 2.6V | 00:00:00 | 00:00:00 | 00:00:00 | |
| DM0DOS-11 | 2026-09-04 01:27:36 | 50.14664 | 11.41272 | 268° | 15km/h | 24916m | -22.5m/s | -50.9°C | 3.7% | 26.9hPa | 2.6V | 08:26:36 | 01:53:00 | 00:00:00 | |
| BIOWL1-15 | 2026-09-04 01:27:36 | 50.14665 | 11.41268 | 299° | 9km/h | 24894m | -22.4m/s | -51°C | 0.1% | 27hPa | 2.6V | 08:27:24 | 01:53:01 | 00:00:00 | |
| HSKMA3-T | 2026-09-04 01:27:34 | 50.14666 | 11.41279 | 249° | 24km/h | 24938m | -21.8m/s | -50.9°C | 0.2% | 26.9hPa | 2.5V | 08:27:24 | 01:52:59 | 00:00:00 | |
| DF8AY | 2026-09-04 01:27:32 | 50.14677 | 11.41296 | 203° | 38km/h | 24981m | -22.3m/s | -51°C | 0.2% | 26.7hPa | 2.5V | 08:27:24 | 01:52:57 | 00:00:00 | |
| BIOWL1-15 | 2026-09-04 01:27:27 | 50.14740 | 11.41241 | 114° | 35km/h | 25129m | -23.9m/s | -51.2°C | 0.3% | 26hPa | 2.6V | 08:27:24 | 01:52:50 | 00:00:00 | |
| DO3MHA-11 | 2026-09-04 01:27:27 | 50.14729 | 11.41269 | 131° | 31km/h | 25082m | -21.9m/s | -51.1°C | 3.7% | 26.2hPa | 2.5V | 00:00:00 | 01:52:52 | 00:00:00 | |
| DM0DOS-11 | 2026-09-04 01:27:26 | 50.14740 | 11.41241 | 113° | 35km/h | 25129m | -23.9m/s | -51.2°C | 3.8% | 26hPa | 2.6V | 08:26:46 | 01:52:50 | 00:00:00 | |
| OE5DXL-15 | 2026-09-04 01:27:25 | 50.14740 | 11.41241 | 114° | 40km/h | 25129m | -23.8m/s | -51.2°C | 3.8% | 26.0hPa | 2.6V | 00:00:00 | 00:00:00 | 00:00:00 | |
| DF7PN | 2026-09-04 01:27:24 | 50.14745 | 11.41222 | 97° | 15km/h | 25172m | -19.9m/s | -51.3°C | 0.8% | 25.9hPa | 2.6V | 00:00:00 | 00:00:00 | 00:00:00 | |
| DL1XH1-15 | 2026-09-04 01:27:23 | 50.14740 | 11.41264 | 266° | 51km/h | 25269m | -22.1m/s | -51.3°C | 3.9% | 25.5hPa | 2.6V | 08:26:53 | 01:52:43 | 00:00:00 | |
| HSKMA3-T | 2026-09-04 01:27:23 | 50.14745 | 11.41222 | 97° | 15km/h | 25172m | -19.9m/s | -51.3°C | 0.3% | 25.9hPa | 2.6V | 08:27:24 | 01:52:48 | 00:00:00 | |
| DL1XH-west | 2026-09-04 01:27:22 | 50.14744 | 11.41219 | 30° | 4km/h | 25191m | -17.7m/s | -51.3°C | 0.3% | 25.8hPa | 2.5V | 08:27:24 | 01:52:47 | 00:00:00 | |
| PG1ADW-2 | 2026-09-04 01:27:22 | 50.14744 | 11.41219 | 30° | 38km/h | 25191m | -17.7m/s | -51.3°C | 3.8% | 25.7hPa | 2.5V | 00:00:00 | 00:00:00 | 00:00:00 | |
| DM0DOS-11 | 2026-09-04 01:27:20 | 50.14751 | 11.41325 | 244° | 58km/h | 25334m | -20.1m/s | -51.3°C | 3.9% | 25.2hPa | 2.5V | 08:26:56 | 01:52:40 | 00:00:00 | |
| AA1-15 | 2026-09-04 01:27:16 | 50.14746 | 11.41304 | 251° | 55km/h | 25313m | -22.2m/s | -51.3°C | 0.3% | 25.3hPa | 2.5V | 08:28:15 | 01:52:41 | 00:00:00 | |
| BIOWL1-15 | 2026-09-04 01:27:16 | 50.14759 | 11.41344 | 231° | 58km/h | 25353m | -19.5m/s | -51.3°C | 0.4% | 25.1hPa | 2.6V | 08:27:24 | 01:52:39 | 00:00:00 | |
| HSKMA3-T | 2026-09-04 01:27:13 | 50.14769 | 11.41359 | 215° | 51km/h | 25373m | -20.2m/s | -51.2°C | 0.4% | 25.1hPa | 2.6V | 08:27:24 | 01:52:38 | 00:00:00 | |
| 13BRC | 2026-09-04 01:27:13 | 50.14769 | 11.41359 | 216° | 51km/h | 25373m | -20.2m/s | -51.2°C | 0.9% | 25.1hPa | 2.5V | 08:27:00 | 00:00:00 | 00:00:00 | |
| DL1NUX | 2026-09-04 01:27:12 | 50.14803 | 11.41349 | 58° | 26km/h | 25505m | -21.9m/s | -50.9°C | 3.9% | 24.6hPa | 2.5V | 08:27:04 | 01:52:32 | 00:00:00 | |
| DL1XH-west | 2026-09-04 01:27:12 | 50.14779 | 11.41367 | 198° | 42km/h | 25394m | -21.9m/s | -51.1°C | 0.3% | 25hPa | 2.5V | 08:27:24 | 01:52:37 | 00:00:00 | |
| DF8AY | 2026-09-04 01:27:11 | 50.14788 | 11.41370 | 183° | 33km/h | 25416m | -23.1m/s | -51°C | 0.3% | 24.9hPa | 2.5V | 08:27:24 | 01:52:36 | 00:00:00 | |
| OE5MMP-10 | 2026-09-04 01:27:10 | 50.14796 | 11.41369 | 165° | 37km/h | 25439m | -22.9m/s | -50.8°C | 3.8% | 24.8hPa | 2.5V | 00:00:00 | 01:52:35 | 00:00:00 | |
| KANTATE | 2026-09-04 01:27:09 | 50.14796 | 11.41369 | 165° | 31km/h | 25439m | -22.9m/s | 0°C | 0% | 24.8hPa | 2.5V | 00:00:00 | 00:00:00 | 00:00:00 | |
| DO9HM | 2026-09-04 01:27:07 | 50.14803 | 11.41349 | 59° | 26km/h | 25505m | -21.9m/s | 0°C | 0% | 0hPa | 2.5V | 00:00:00 | 00:00:00 | 00:00:00 | |
| DM0DOS-11 | 2026-09-04 01:27:06 | 50.14791 | 11.41334 | 18° | 40km/h | 25548m | -22.2m/s | -50.9°C | 3.9% | 24.4hPa | 2.5V | 08:27:06 | 01:52:30 | 00:00:00 | |
| HSKMA3-T | 2026-09-04 01:27:03 | 50.14770 | 11.41330 | 354° | 49km/h | 25592m | -21.4m/s | -50.8°C | 0.4% | 24.2hPa | 2.6V | 08:27:24 | 01:52:28 | 00:00:00 | |
| DL1NUX | 2026-09-04 01:27:02 | 50.14726 | 11.41416 | 263° | 46km/h | 25720m | -21.8m/s | -50.6°C | 3.8% | 23.7hPa | 2.5V | 08:27:14 | 01:52:22 | 00:00:00 | |
| DL1XH-west | 2026-09-04 01:27:01 | 50.14746 | 11.41346 | 322° | 55km/h | 25632m | -20.7m/s | -50.7°C | 0.3% | 24.1hPa | 2.5V | 08:27:24 | 01:52:26 | 00:00:00 | |
| DF8AY | 2026-09-04 01:27:00 | 50.14737 | 11.41361 | 307° | 53km/h | 25653m | -21.8m/s | -50.6°C | 0.3% | 24hPa | 2.5V | 08:27:24 | 01:52:25 | 00:00:00 | |
| AA1-15 | 2026-09-04 01:26:57 | 50.14726 | 11.41416 | 263° | 47km/h | 25720m | -21.8m/s | -50.6°C | 0.3% | 23.7hPa | 2.5V | 08:28:15 | 01:52:22 | 00:00:00 | |
| DO3MHA-11 | 2026-09-04 01:26:57 | 50.14726 | 11.41416 | 264° | 37km/h | 25721m | -21.7m/s | -50.5°C | 3.8% | 23.7hPa | 2.5V | 08:27:00 | 01:52:22 | 00:00:00 | |
| DD8BA-10 | 2026-09-04 01:26:56 | 50.14729 | 11.41432 | 246° | 38km/h | 25742m | -22.4m/s | -50.4°C | 3.8% | 23.6hPa | 2.5V | 00:00:00 | 00:00:00 | 00:00:00 | |
| DB0NH | 2026-09-04 01:26:55 | 50.14734 | 11.41445 | 230° | 33km/h | 25764m | -23.0m/s | -50.3°C | 3.8% | 23.5hPa | 2.5V | 00:00:00 | 01:52:20 | 00:00:00 | |
| DL1XH1-15 | 2026-09-04 01:26:53 | 50.14775 | 11.41423 | 78° | 35km/h | 25923m | -21.9m/s | -49.2°C | 3.4% | 23hPa | 2.5V | 08:27:23 | 01:52:13 | 00:00:00 | |
| BIOWL1-15 | 2026-09-04 01:26:52 | 50.14759 | 11.41460 | 172° | 37km/h | 25833m | -23.7m/s | -49.8°C | 0.1% | 23.4hPa | 2.6V | 08:27:24 | 01:52:17 | 00:00:00 | |
| DL1XH-west | 2026-09-04 01:26:50 | 50.14772 | 11.41448 | 129° | 31km/h | 25878m | -23.6m/s | -49.6°C | 0.2% | 23.2hPa | 2.5V | 08:27:24 | 01:52:15 | 00:00:00 | |
| BIOWL9-15 | 2026-09-04 01:26:48 | 50.14775 | 11.41423 | 78° | 35km/h | 25923m | -21.9m/s | -49.2°C | 0.7% | 23.0hPa | 2.5V | 00:00:00 | 00:00:00 | 00:00:00 | |
| SONDE2-11 | 2026-09-04 01:26:46 | 50.14755 | 11.41385 | 27° | 51km/h | 25989m | -23.9m/s | -48.9°C | 0.7% | 22.8hPa | 2.5V | 00:00:00 | 00:00:00 | 00:00:00 | |
| DL1XH-15 | 2026-09-04 01:26:44 | 50.14708 | 11.41383 | 313° | 26km/h | 26102m | -20.7m/s | -49.2°C | 3.5% | 22.4hPa | 2.5V | 08:27:31 | 01:52:05 | 00:00:00 | |
| DL1XH1-15 | 2026-09-04 01:26:43 | 50.14706 | 11.41400 | 244° | 22km/h | 26144m | -22.8m/s | -49.1°C | 3.4% | 22.3hPa | 2.5V | 08:27:33 | 01:52:03 | 00:00:00 | |
| HSKMA3-T | 2026-09-04 01:26:42 | 50.14723 | 11.41373 | 357° | 38km/h | 26060m | -22.1m/s | -49.2°C | 0.1% | 22.5hPa | 2.6V | 08:28:15 | 01:52:07 | 00:00:00 | |
| DL1NUX | 2026-09-04 01:26:42 | 50.14709 | 11.41405 | 209° | 20km/h | 26166m | -23.2m/s | -49.1°C | 3.4% | 22.2hPa | 2.6V | 08:27:34 | 01:52:02 | 00:00:00 | |
| BIOWL1-15 | 2026-09-04 01:26:41 | 50.14710 | 11.41405 | 210° | 20km/h | 26166m | -23.2m/s | -49.1°C | 0.1% | 22.2hPa | 2.6V | 08:28:15 | 01:52:02 | 00:00:00 | |
| AA1-15 | 2026-09-04 01:26:40 | 50.14708 | 11.41383 | 313° | 26km/h | 26102m | -20.7m/s | -49.2°C | 0.2% | 22.4hPa | 2.5V | 08:28:15 | 01:52:05 | 00:00:00 | |
| DL1XH-west | 2026-09-04 01:26:39 | 50.14705 | 11.41391 | 279° | 24km/h | 26123m | -20.6m/s | -49.2°C | 0.1% | 22.3hPa | 2.5V | 08:28:15 | 01:52:04 | 00:00:00 | |
| DJ8HS-15 | 2026-09-04 01:26:39 | 50.14705 | 11.41391 | 280° | 27km/h | 26123m | -20.5m/s | -49.1°C | 3.5% | 22.3hPa | 2.6V | 00:00:00 | 01:52:04 | 00:00:00 | |
| DF8AY-15 | 2026-09-04 01:26:37 | 50.14710 | 11.41405 | 210° | 29km/h | 26167m | -23.1m/s | -49.0°C | 3.4% | 22.2hPa | 2.6V | 08:27:00 | 01:52:02 | 00:00:00 | |
| DL4BBY-15 | 2026-09-04 01:26:36 | 50.14715 | 11.41409 | 198° | 27km/h | 26189m | -22.2m/s | -50.6°C | 0% | 0hPa | 2.5V | 00:00:00 | 00:00:00 | 00:00:00 | |
| DM7RM-13 | 2026-09-04 01:26:35 | 50.14715 | 11.41409 | 199° | 24km/h | 26189m | -22.3m/s | -49.1°C | 0.8% | 22.1hPa | 2.5V | 08:28:00 | 00:00:00 | 00:00:00 | |
| DL1XH-15 | 2026-09-04 01:26:34 | 50.14753 | 11.41371 | 124° | 29km/h | 26339m | -22.7m/s | -49.2°C | 3.5% | 21.6hPa | 2.5V | 08:27:42 | 01:51:54 | 00:00:00 | |
| DL1XH1-15 | 2026-09-04 01:26:33 | 50.14757 | 11.41361 | 109° | 29km/h | 26362m | -22.2m/s | -49.2°C | 3.5% | 21.5hPa | 2.5V | 08:27:43 | 01:51:53 | 00:00:00 | |
| DD8BA-10 | 2026-09-04 01:26:33 | 50.14733 | 11.41404 | 156° | 29km/h | 26254m | -21.4m/s | -49.1°C | 3.4% | 21.8hPa | 2.6V | 00:00:00 | 00:00:00 | 00:00:00 | |
| DL1NUX | 2026-09-04 01:26:32 | 50.14760 | 11.41350 | 112° | 31km/h | 26383m | -22.6m/s | -49.2°C | 3.5% | 21.5hPa | 2.6V | 08:27:44 | 01:51:52 | 00:00:00 | |
| HSKMA3-T | 2026-09-04 01:26:31 | 50.14744 | 11.41390 | 137° | 29km/h | 26296m | -21.5m/s | -49.2°C | 0.1% | 21.8hPa | 2.6V | 08:28:15 | 01:51:56 | 00:00:00 | |
| DL1XH-west | 2026-09-04 01:26:29 | 50.14753 | 11.41371 | 124° | 29km/h | 26339m | -22.7m/s | -49.2°C | 0.2% | 21.6hPa | 2.5V | 08:28:15 | 01:51:54 | 00:00:00 | |
| DF8AY | 2026-09-04 01:26:28 | 50.14757 | 11.41361 | 110° | 29km/h | 26362m | -22.2m/s | -49.3°C | 0.2% | 21.5hPa | 2.5V | 08:28:15 | 01:51:53 | 00:00:00 | |
| DO3MHA-11 | 2026-09-04 01:26:27 | 50.14760 | 11.41350 | 113° | 31km/h | 26384m | -22.5m/s | -49.2°C | 3.5% | 21.4hPa | 2.6V | 00:00:00 | 01:51:52 | 00:00:00 | |
| DM0DOS-11 | 2026-09-04 01:26:26 | 50.14763 | 11.41328 | 95° | 33km/h | 26428m | -22.3m/s | -49.1°C | 3.5% | 21.3hPa | 2.5V | 08:27:46 | 01:51:50 | 00:00:00 | |
| DB0NH | 2026-09-04 01:26:25 | 50.14763 | 11.41327 | 96° | 35km/h | 26429m | -22.3m/s | -49.0°C | 3.5% | 21.3hPa | 2.6V | 00:00:00 | 01:51:50 | 00:00:00 | |
| DL1XH-15 | 2026-09-04 01:26:24 | 50.14754 | 11.41260 | 55° | 33km/h | 26565m | -21.8m/s | -48.7°C | 3.4% | 20.9hPa | 2.6V | 08:27:52 | 01:51:44 | 00:00:00 | |
| DL1XH1-15 | 2026-09-04 01:26:23 | 50.14749 | 11.41248 | 56° | 37km/h | 26588m | -23.2m/s | -48.6°C | 3.4% | 20.8hPa | 2.5V | 08:27:53 | 01:51:43 | 00:00:00 | |
| DD8BA-10 | 2026-09-04 01:26:23 | 50.14762 | 11.41304 | 84° | 33km/h | 26473m | -23.2m/s | -48.8°C | 3.5% | 21.1hPa | 2.5V | 00:00:00 | 00:00:00 | 00:00:00 | |
| DL1NUX | 2026-09-04 01:26:22 | 50.14744 | 11.41237 | 47° | 35km/h | 26611m | -23m/s | -48.5°C | 3.4% | 20.8hPa | 2.5V | 08:27:54 | 01:51:42 | 00:00:00 | |
| HSKMA3-T | 2026-09-04 01:26:20 | 50.14758 | 11.41270 | 70° | 29km/h | 26543m | -23.2m/s | -48.7°C | 0.1% | 20.9hPa | 2.6V | 08:28:15 | 01:51:45 | 00:00:00 | |
| AA1-15 | 2026-09-04 01:26:19 | 50.14754 | 11.41260 | 56° | 33km/h | 26565m | -21.8m/s | -48.7°C | 0.1% | 20.9hPa | 2.6V | 08:28:15 | 01:51:44 | 00:00:00 | |
| DL1XH-west | 2026-09-04 01:26:18 | 50.14749 | 11.41248 | 56° | 37km/h | 26588m | -23.2m/s | -48.6°C | 0.2% | 20.8hPa | 2.5V | 08:28:15 | 01:51:43 | 00:00:00 | |
| PG1ADW-2 | 2026-09-04 01:26:18 | 50.14749 | 11.41248 | 57° | 24km/h | 26588m | -23.2m/s | -48.6°C | 3.4% | 20.8hPa | 2.5V | 00:00:00 | 00:00:00 | 00:00:00 | |
| BIOWL9-15 | 2026-09-04 01:26:17 | 50.14738 | 11.41226 | 53° | 37km/h | 26634m | -23.1m/s | -48.5°C | 0.7% | 20.7hPa | 2.6V | 00:00:00 | 00:00:00 | 00:00:00 | |
| DO3MHA-11 | 2026-09-04 01:26:16 | 50.14738 | 11.41226 | 54° | 35km/h | 26634m | -23.0m/s | -48.4°C | 3.4% | 20.6hPa | 2.6V | 00:00:00 | 01:51:41 | 00:00:00 | |
| SONDE2-11 | 2026-09-04 01:26:15 | 50.14726 | 11.41205 | 48° | 37km/h | 26680m | -22.2m/s | -48.5°C | 0.7% | 20.5hPa | 2.6V | 00:00:00 | 00:00:00 | 00:00:00 | |
| DL1XH-15 | 2026-09-04 01:26:14 | 50.14694 | 11.41163 | 36° | 31km/h | 26791m | -22.9m/s | -48.7°C | 3.5% | 20.1hPa | 2.6V | 08:28:02 | 01:51:34 | 00:00:00 | |
| DF8AY-15 | 2026-09-04 01:26:14 | 50.14726 | 11.41205 | 49° | 46km/h | 26680m | -22.1m/s | -48.4°C | 3.4% | 20.4hPa | 2.5V | 00:00:00 | 01:51:39 | 00:00:00 | |
| DL1XH1-15 | 2026-09-04 01:26:13 | 50.14687 | 11.41157 | 23° | 29km/h | 26813m | -22.1m/s | -48.7°C | 3.5% | 20.1hPa | 2.5V | 08:28:03 | 01:51:33 | 00:00:00 | |
| DD8BA-10 | 2026-09-04 01:26:13 | 50.14720 | 11.41195 | 45° | 31km/h | 26702m | -21.9m/s | -48.4°C | 3.4% | 20.4hPa | 2.5V | 00:00:00 | 00:00:00 | 00:00:00 | |
| DL1NUX | 2026-09-04 01:26:12 | 50.14680 | 11.41152 | 29° | 31km/h | 26836m | -22.8m/s | -48.7°C | 3.5% | 20hPa | 2.5V | 08:28:04 | 01:51:32 | 00:00:00 | |
| HSKMA3-T | 2026-09-04 01:26:10 | 50.14700 | 11.41170 | 32° | 31km/h | 26768m | -22.7m/s | -48.6°C | 0.1% | 20.2hPa | 2.6V | 08:28:15 | 01:51:35 | 00:00:00 | |
| AA1-15 | 2026-09-04 01:26:08 | 50.14687 | 11.41157 | 24° | 29km/h | 26814m | -22.1m/s | -48.7°C | 0.2% | 20.1hPa | 2.5V | 08:28:15 | 01:51:33 | 00:00:00 | |
| DL1XH-west | 2026-09-04 01:26:07 | 50.14680 | 11.41152 | 30° | 31km/h | 26836m | -22.8m/s | -48.7°C | 0.2% | 20.1hPa | 2.5V | 08:28:15 | 01:51:32 | 00:00:00 | |
| PETON7-10 | 2026-09-04 01:26:07 | 50.14680 | 11.41152 | 30° | 40km/h | 26836m | -22.7m/s | -48.7°C | 3.5% | 20.0hPa | 2.5V | 00:00:00 | 00:00:00 | 00:00:00 | |
| DM0DOS-11 | 2026-09-04 01:26:06 | 50.14666 | 11.41142 | 26° | 35km/h | 26879m | -22.1m/s | -48.6°C | 3.5% | 19.9hPa | 2.6V | 08:28:06 | 01:51:30 | 00:00:00 | |
| DO3MHA-11 | 2026-09-04 01:26:06 | 50.14673 | 11.41147 | 20° | 38km/h | 26858m | -21.7m/s | -48.7°C | 3.5% | 19.9hPa | 2.5V | 00:00:00 | 01:51:31 | 00:00:00 | |
| SONCRA | 2026-09-04 01:26:05 | 50.14666 | 11.41142 | 26° | 33km/h | 26879m | -22.2m/s | -48.6°C | 0.7% | 19.9hPa | 2.5V | 00:00:00 | 00:00:00 | 00:00:00 | |
| S52SK | 2026-09-04 01:26:04 | 50.14666 | 11.41142 | 27° | 35km/h | 26879m | -22.2m/s | -48.6°C | 0.7% | 19.9hPa | 2.5V | 00:00:00 | 00:00:00 | 00:00:00 | |
| DL1XH1-15 | 2026-09-04 01:26:03 | 50.14608 | 11.41089 | 43° | 42km/h | 27035m | -23.5m/s | -47.7°C | 3.3% | 19.4hPa | 2.5V | 08:28:13 | 01:51:23 | 00:00:00 | |
| DD8BA-10 | 2026-09-04 01:26:03 | 50.14650 | 11.41131 | 26° | 42km/h | 26924m | -22.3m/s | -48.4°C | 3.5% | 19.7hPa | 2.5V | 00:00:00 | 00:00:00 | 00:00:00 | |
| DL1NUX | 2026-09-04 01:26:02 | 50.14601 | 11.41076 | 53° | 46km/h | 27058m | -23.8m/s | -47.7°C | 3.3% | 19.3hPa | 2.5V | 08:28:14 | 01:51:22 | 00:00:00 | |
| DF2AP-13 | 2026-09-04 01:26:02 | 50.14642 | 11.41125 | 28° | 47km/h | 26946m | -22.9m/s | -48.2°C | 3.4% | 19.6hPa | 2.6V | 00:00:00 | 01:51:27 | 00:00:00 | |
| EDDB2-12 | 2026-09-04 01:26:00 | 50.14616 | 11.41100 | 41° | 42km/h | 27012m | -23.8m/s | -47.8°C | 0.7% | 19.5hPa | 2.6V | 00:00:00 | 00:00:00 | 00:00:00 | |
| DM0DOS-11 | 2026-09-04 01:25:59 | 50.14590 | 11.41045 | 67° | 46km/h | 27105m | -23.8m/s | -47.9°C | 3.3% | 19.2hPa | 2.6V | 08:28:16 | 01:51:20 | 00:00:00 | |
| HSKMA3-T | 2026-09-04 01:25:59 | 50.14616 | 11.41100 | 41° | 42km/h | 27012m | -23.8m/s | -47.8°C | 0% | 19.5hPa | 2.6V | 08:28:15 | 01:51:24 | 00:00:00 | |
| DF8AY | 2026-09-04 01:25:57 | 50.14601 | 11.41076 | 54° | 46km/h | 27058m | -23.8m/s | -47.7°C | 0% | 19.3hPa | 2.5V | 08:28:15 | 01:51:22 | 00:00:00 | |
| AA1-15 | 2026-09-04 01:25:56 | 50.14595 | 11.41061 | 62° | 44km/h | 27081m | -23.7m/s | -47.8°C | 0% | 19.3hPa | 2.5V | 08:28:15 | 01:51:21 | 00:00:00 | |
| DO3MHA-11 | 2026-09-04 01:25:56 | 50.14595 | 11.41061 | 62° | 49km/h | 27082m | -23.7m/s | -47.8°C | 3.3% | 19.2hPa | 2.5V | 00:00:00 | 01:51:21 | 00:00:00 | |
| OE5DXL-15 | 2026-09-04 01:25:55 | 50.14590 | 11.41045 | 68° | 47km/h | 27105m | -23.8m/s | -47.8°C | 3.3% | 19.1hPa | 2.6V | 00:00:00 | 00:00:00 | 00:00:00 | |
| DL1XH-15 | 2026-09-04 01:25:54 | 50.14596 | 11.40935 | 120° | 51km/h | 27242m | -21.9m/s | -47.6°C | 3.3% | 18.8hPa | 2.6V | 08:28:22 | 01:51:14 | 00:00:00 | |
| DD8BA-10 | 2026-09-04 01:25:53 | 50.14585 | 11.41008 | 87° | 49km/h | 27152m | -23.5m/s | -47.8°C | 3.4% | 19.0hPa | 2.5V | 08:28:00 | 00:00:00 | 00:00:00 | |
| DL1NUX | 2026-09-04 01:25:52 | 50.14613 | 11.40906 | 143° | 49km/h | 27286m | -24.1m/s | -47.3°C | 3.2% | 18.6hPa | 2.5V | 08:28:24 | 01:51:12 | 00:00:00 | |
| HSKMA3-T | 2026-09-04 01:25:48 | 50.14603 | 11.40919 | 133° | 49km/h | 27264m | -22m/s | -47.5°C | 0% | 18.7hPa | 2.5V | 08:29:06 | 01:51:13 | 00:00:00 | |
| BIOWL1-15 | 2026-09-04 01:25:47 | 50.14613 | 11.40906 | 144° | 49km/h | 27286m | -24.1m/s | -47.3°C | 0% | 18.7hPa | 2.5V | 08:29:06 | 01:51:12 | 00:00:00 | |
| DF8AY | 2026-09-04 01:25:46 | 50.14624 | 11.40895 | 151° | 51km/h | 27309m | -23.4m/s | -47.2°C | 0% | 18.6hPa | 2.5V | 08:29:06 | 01:51:11 | 00:00:00 | |
| DM0DOS-11 | 2026-09-04 01:25:46 | 50.14636 | 11.40887 | 162° | 53km/h | 27332m | -23.6m/s | -47.1°C | 3.2% | 18.5hPa | 2.5V | 08:28:26 | 01:51:10 | 00:00:00 | |
| BIOWL9-15 | 2026-09-04 01:25:46 | 50.14636 | 11.40887 | 162° | 53km/h | 27333m | -23.7m/s | -47.1°C | 0.7% | 18.5hPa | 2.5V | 00:00:00 | 00:00:00 | 00:00:00 | |
| DL1XH-15 | 2026-09-04 01:25:44 | 50.14707 | 11.40912 | 227° | 47km/h | 27476m | -24.4m/s | -46.7°C | 3.1% | 18.1hPa | 2.5V | 08:28:32 | 01:51:04 | 00:00:00 | |
| AA1-15 | 2026-09-04 01:25:43 | 50.14661 | 11.40881 | 179° | 51km/h | 27380m | -23.6m/s | -46.9°C | 0% | 18.4hPa | 2.6V | 08:29:06 | 01:51:08 | 00:00:00 | |
| DF8AY-15 | 2026-09-04 01:25:43 | 50.14661 | 11.40881 | 179° | 51km/h | 27380m | -23.5m/s | -46.8°C | 3.1% | 18.3hPa | 2.5V | 00:00:00 | 01:51:08 | 00:00:00 | |
| OE5MMP-10 | 2026-09-04 01:25:40 | 50.14697 | 11.40899 | 216° | 47km/h | 27452m | -24.7m/s | -46.7°C | 3.1% | 18.1hPa | 2.5V | 00:00:00 | 01:51:05 | 00:00:00 | |
| DM0DOS-11 | 2026-09-04 01:25:39 | 50.14718 | 11.40981 | 285° | 49km/h | 27573m | -23.7m/s | -46.7°C | 3.1% | 17.8hPa | 2.5V | 08:28:36 | 01:51:00 | 00:00:00 | |
| HSKMA3-T | 2026-09-04 01:25:37 | 50.14719 | 11.40945 | 259° | 49km/h | 27525m | -24m/s | -46.8°C | 0% | 18hPa | 2.6V | 08:29:06 | 01:51:02 | 00:00:00 | |
| BIOWL1-15 | 2026-09-04 01:25:36 | 50.14720 | 11.40963 | 272° | 46km/h | 27549m | -23.7m/s | -46.7°C | 0% | 17.9hPa | 2.5V | 08:29:06 | 01:51:01 | 00:00:00 | |
| DF8AY | 2026-09-04 01:25:35 | 50.14713 | 11.40998 | 302° | 49km/h | 27596m | -22.9m/s | -46.7°C | 0% | 17.8hPa | 2.5V | 08:29:06 | 01:50:59 | 00:00:00 | |
| DL1XH-west | 2026-09-04 01:25:35 | 50.14718 | 11.40981 | 286° | 49km/h | 27573m | -23.7m/s | -46.7°C | 0% | 17.8hPa | 2.5V | 08:29:06 | 01:51:00 | 00:00:00 | |
| SONCRA | 2026-09-04 01:25:34 | 50.14713 | 11.40998 | 302° | 47km/h | 27596m | -22.9m/s | -46.7°C | 0.7% | 17.8hPa | 2.6V | 00:00:00 | 00:00:00 | 00:00:00 | |
| DL1XH1-15 | 2026-09-04 01:25:33 | 50.14658 | 11.41024 | 37° | 42km/h | 27741m | -23.7m/s | -46.7°C | 3.1% | 17.4hPa | 2.6V | 08:28:43 | 01:50:53 | 00:00:00 | |
| AA1-15 | 2026-09-04 01:25:32 | 50.14698 | 11.41024 | 329° | 46km/h | 27644m | -24.9m/s | -46.6°C | 0% | 17.7hPa | 2.6V | 08:29:06 | 01:50:57 | 00:00:00 | |
| DF2AP-13 | 2026-09-04 01:25:32 | 50.14697 | 11.41024 | 329° | 44km/h | 27645m | -24.9m/s | -46.5°C | 3.1% | 17.6hPa | 2.5V | 00:00:00 | 01:50:57 | 00:00:00 | |
| DM0DOS-11 | 2026-09-04 01:25:30 | 50.14644 | 11.40981 | 88° | 47km/h | 27815m | -23.7m/s | -46.6°C | 3.2% | 17.2hPa | 2.5V | 08:28:46 | 01:50:50 | 00:00:00 | |
| HSKMA3-T | 2026-09-04 01:25:27 | 50.14651 | 11.41013 | 55° | 40km/h | 27766m | -24.8m/s | -46.7°C | 0% | 17.3hPa | 2.6V | 08:29:06 | 01:50:52 | 00:00:00 | |
| BIOWL1-15 | 2026-09-04 01:25:25 | 50.14666 | 11.40910 | 140° | 57km/h | 27909m | -23.8m/s | -46.4°C | 0% | 16.9hPa | 2.5V | 08:29:06 | 01:50:46 | 00:00:00 | |
| DF8AY | 2026-09-04 01:25:24 | 50.14645 | 11.40962 | 102° | 49km/h | 27838m | -22.8m/s | -46.6°C | 0% | 17.1hPa | 2.5V | 08:29:06 | 01:50:49 | 00:00:00 | |
| DD8BA-10 | 2026-09-04 01:25:23 | 50.14649 | 11.40943 | 116° | 53km/h | 27861m | -24.2m/s | -46.5°C | 3.1% | 17.0hPa | 2.6V | 00:00:00 | 00:00:00 | 00:00:00 | |
| DL1NUX | 2026-09-04 01:25:22 | 50.14717 | 11.40887 | 189° | 53km/h | 28005m | -24.6m/s | -46.5°C | 3.1% | 16.7hPa | 2.6V | 08:28:54 | 01:50:42 | 00:00:00 | |
| AA1-15 | 2026-09-04 01:25:22 | 50.14656 | 11.40926 | 129° | 57km/h | 27884m | -24.9m/s | -46.5°C | 0% | 17hPa | 2.6V | 08:29:06 | 01:50:47 | 00:00:00 | |
| DB0UT-7 | 2026-09-04 01:25:22 | 50.14656 | 11.40925 | 129° | 20km/h | 27885m | -24.8m/s | -46.4°C | 3.1% | 17.0hPa | 2.5V | 00:00:00 | 00:00:00 | 00:00:00 | |
| DM0DOS-11 | 2026-09-04 01:25:20 | 50.14739 | 11.40899 | 209° | 42km/h | 28056m | -26.2m/s | -46.3°C | 3.1% | 16.6hPa | 2.5V | 08:28:56 | 01:50:40 | 00:00:00 | |
| HSKMA3-T | 2026-09-04 01:25:17 | 50.14717 | 11.40887 | 189° | 53km/h | 28005m | -24.6m/s | -46.5°C | 0% | 16.7hPa | 2.6V | 08:29:06 | 01:50:42 | 00:00:00 | |
| DF8AY | 2026-09-04 01:25:14 | 50.14748 | 11.40909 | 225° | 42km/h | 28082m | -26.7m/s | -46.3°C | 0% | 16.5hPa | 2.5V | 08:29:06 | 01:50:39 | 00:00:00 | |
| DL1XH-west | 2026-09-04 01:25:13 | 50.14753 | 11.40921 | 243° | 35km/h | 28108m | -25.6m/s | -46.2°C | 0% | 16.4hPa | 2.6V | 08:29:06 | 01:50:38 | 00:00:00 | |
| SONDE2-11 | 2026-09-04 01:25:13 | 50.14757 | 11.40933 | 251° | 31km/h | 28134m | -25.6m/s | -46.1°C | 0.7% | 16.4hPa | 2.6V | 00:00:00 | 00:00:00 | 00:00:00 | |
| DL1NUX | 2026-09-04 01:25:12 | 50.14735 | 11.40976 | 355° | 38km/h | 28251m | -23.8m/s | -45.9°C | 3% | 16.1hPa | 2.6V | 08:29:04 | 01:50:32 | 00:00:00 | |
| BIOWL1-15 | 2026-09-04 01:25:11 | 50.14758 | 11.40946 | 279° | 31km/h | 28158m | -24.3m/s | -46.1°C | 0% | 16.3hPa | 2.5V | 08:29:06 | 01:50:36 | 00:00:00 | |
| DM0DOS-11 | 2026-09-04 01:25:10 | 50.14714 | 11.40975 | 13° | 46km/h | 28296m | -23m/s | -46°C | 3% | 16hPa | 2.5V | 08:29:06 | 01:50:30 | 00:00:00 | |
| HSKMA3-T | 2026-09-04 01:25:06 | 50.14724 | 11.40977 | 1° | 42km/h | 28274m | -22.9m/s | -45.9°C | 0% | 16hPa | 2.5V | 08:29:06 | 01:50:31 | 00:00:00 | |
| DL4BBY-15 | 2026-09-04 01:25:06 | 50.14725 | 11.40977 | 1° | 31km/h | 28274m | -22.9m/s | -47.5°C | 0% | 0hPa | 2.6V | 00:00:00 | 00:00:00 | 00:00:00 | |
| DL0LBS | 2026-09-04 01:25:05 | 50.14724 | 11.40977 | 2° | 42km/h | 28274m | -22.9m/s | -45.9°C | 0.7% | 16.0hPa | 2.6V | 08:29:00 | 00:00:00 | 00:00:00 | |
| DD8BA-10 | 2026-09-04 01:25:03 | 50.14692 | 11.40959 | 36° | 42km/h | 28343m | -24.0m/s | -46.0°C | 3.0% | 15.8hPa | 2.6V | 00:00:00 | 00:00:00 | 00:00:00 | |
| DL1NUX | 2026-09-04 01:25:02 | 50.14664 | 11.40868 | 96° | 37km/h | 28495m | -25.7m/s | -45.6°C | 3% | 15.5hPa | 2.6V | 08:29:14 | 01:50:22 | 00:00:00 | |
| DL1XH-west | 2026-09-04 01:25:02 | 50.14683 | 11.40947 | 45° | 49km/h | 28367m | -24.6m/s | -46°C | 0% | 15.8hPa | 2.6V | 08:29:57 | 01:50:27 | 00:00:00 | |
| BIOWL1-15 | 2026-09-04 01:25:00 | 50.14670 | 11.40915 | 64° | 46km/h | 28418m | -26.1m/s | -45.9°C | 0% | 15.7hPa | 2.5V | 08:29:57 | 01:50:25 | 00:00:00 | |
| HSKMA3-T | 2026-09-04 01:24:56 | 50.14666 | 11.40855 | 114° | 35km/h | 28520m | -24.2m/s | -45.6°C | 0% | 15.4hPa | 2.5V | 08:29:57 | 01:50:21 | 00:00:00 | |
| DB0NH | 2026-09-04 01:24:55 | 50.14670 | 11.40844 | 129° | 26km/h | 28544m | -24.3m/s | -45.4°C | 2.9% | 15.4hPa | 2.5V | 00:00:00 | 01:50:20 | 00:00:00 | |
| DL1XH-15 | 2026-09-04 01:24:54 | 50.14708 | 11.40856 | 229° | 38km/h | 28685m | -24.2m/s | -45.7°C | 3% | 15.1hPa | 2.5V | 08:29:22 | 01:50:14 | 00:00:00 | |
| DF8AY | 2026-09-04 01:24:53 | 50.14682 | 11.40833 | 171° | 24km/h | 28591m | -23.9m/s | -45.4°C | 0% | 15.3hPa | 2.6V | 08:29:57 | 01:50:18 | 00:00:00 | |
| DL1XH-west | 2026-09-04 01:24:52 | 50.14689 | 11.40833 | 190° | 27km/h | 28614m | -23.7m/s | -45.4°C | 0% | 15.2hPa | 2.6V | 08:29:57 | 01:50:17 | 00:00:00 | |
| PETON7-10 | 2026-09-04 01:24:52 | 50.14689 | 11.40833 | 191° | 27km/h | 28614m | -23.7m/s | -45.3°C | 2.9% | 15.1hPa | 2.5V | 00:00:00 | 01:50:17 | 00:00:00 | |
| DM0DOS-11 | 2026-09-04 01:24:50 | 50.14722 | 11.40911 | 263° | 35km/h | 28790m | -26.9m/s | -45.7°C | 3.1% | 14.8hPa | 2.5V | 08:29:26 | 01:50:10 | 00:00:00 | |
| AA1-15 | 2026-09-04 01:24:50 | 50.14702 | 11.40846 | 226° | 35km/h | 28661m | -23.9m/s | -45.6°C | 0% | 15.1hPa | 2.5V | 08:29:57 | 01:50:15 | 00:00:00 | |
| DF7PN | 2026-09-04 01:24:49 | 50.14714 | 11.40869 | 241° | 42km/h | 28710m | -25.7m/s | -45.8°C | 0.7% | 15.0hPa | 2.5V | 00:00:00 | 00:00:00 | 00:00:00 | |
| DB0ND-19 | 2026-09-04 01:24:47 | 50.14718 | 11.40884 | 252° | 37km/h | 28736m | -26.7m/s | -45.8°C | 0.7% | 14.9hPa | 2.5V | 00:00:00 | 00:00:00 | 00:00:00 | |
| DO3MHA-11 | 2026-09-04 01:24:46 | 50.14721 | 11.40897 | 253° | 22km/h | 28763m | -27.5m/s | -45.7°C | 3.0% | 14.8hPa | 2.5V | 00:00:00 | 01:50:11 | 00:00:00 | |
| HSKMA3-T | 2026-09-04 01:24:46 | 50.14721 | 11.40897 | 253° | 37km/h | 28762m | -27.6m/s | -45.8°C | 0% | 14.9hPa | 2.5V | 08:29:57 | 01:50:11 | 00:00:00 | |
| DL0LBS | 2026-09-04 01:24:45 | 50.14721 | 11.40897 | 254° | 37km/h | 28763m | -27.6m/s | -45.8°C | 0.7% | 14.9hPa | 2.5V | 08:29:00 | 00:00:00 | 00:00:00 | |
| DL1XH-15 | 2026-09-04 01:24:44 | 50.14718 | 11.40932 | 96° | 22km/h | 28942m | -27.2m/s | -45.5°C | 3% | 14.5hPa | 2.5V | 08:29:32 | 01:50:04 | 00:00:00 | |
| DF8AY | 2026-09-04 01:24:43 | 50.14723 | 11.40932 | 276° | 22km/h | 28842m | -25.2m/s | -45.6°C | 0% | 14.7hPa | 2.6V | 08:29:57 | 01:50:08 | 00:00:00 | |
| DL1NUX | 2026-09-04 01:24:42 | 50.14721 | 11.40917 | 119° | 22km/h | 28997m | -29.4m/s | -45.1°C | 2.9% | 14.4hPa | 2.6V | 08:29:34 | 01:50:02 | 00:00:00 | |
| DL1XH-west | 2026-09-04 01:24:42 | 50.14721 | 11.40939 | 307° | 13km/h | 28867m | -23.8m/s | -45.6°C | 0% | 14.6hPa | 2.6V | 08:29:57 | 01:50:07 | 00:00:00 | |
| SONDE2-11 | 2026-09-04 01:24:42 | 50.14720 | 11.40940 | 10° | 4km/h | 28891m | -23.9m/s | -45.6°C | 0.7% | 14.6hPa | 2.5V | 00:00:00 | 00:00:00 | 00:00:00 | |
| OE5DRO-10 | 2026-09-04 01:24:41 | 50.14720 | 11.40940 | 11° | 20km/h | 28891m | -23.8m/s | -45.6°C | 3.1% | 14.5hPa | 2.5V | 00:00:00 | 00:00:00 | 00:00:00 | |
| DM0DOS-11 | 2026-09-04 01:24:40 | 50.14727 | 11.40902 | 128° | 22km/h | 29055m | -29.6m/s | -45.1°C | 2.9% | 14.2hPa | 2.5V | 08:29:36 | 01:50:00 | 00:00:00 | |
| BIOWL1-15 | 2026-09-04 01:24:40 | 50.14719 | 11.40925 | 103° | 20km/h | 28969m | -27.3m/s | -45.3°C | 0% | 14.4hPa | 2.6V | 08:29:57 | 01:50:03 | 00:00:00 | |
| AA1-15 | 2026-09-04 01:24:39 | 50.14718 | 11.40932 | 97° | 22km/h | 28942m | -27.2m/s | -45.5°C | 0% | 14.5hPa | 2.5V | 08:29:57 | 01:50:04 | 00:00:00 | |
| HSKMA3-T | 2026-09-04 01:24:35 | 50.14727 | 11.40902 | 129° | 22km/h | 29056m | -29.6m/s | -45.1°C | 0% | 14.3hPa | 2.5V | 08:29:57 | 01:50:00 | 00:00:00 | |
| DL1XH-15 | 2026-09-04 01:24:34 | 50.14759 | 11.40887 | 174° | 26km/h | 29214m | -26.8m/s | -44.7°C | 2.9% | 13.9hPa | 2.5V | 08:29:42 | 01:49:54 | 00:00:00 | |
| DL1XH1-15 | 2026-09-04 01:24:33 | 50.14765 | 11.40886 | 167° | 24km/h | 29242m | -29.2m/s | -44.5°C | 2.9% | 13.8hPa | 2.6V | 08:29:43 | 01:49:53 | 00:00:00 | |
| DF8AY | 2026-09-04 01:24:32 | 50.14740 | 11.40889 | 165° | 22km/h | 29137m | -25.7m/s | -45.1°C | 0% | 14hPa | 2.6V | 08:29:57 | 01:49:57 | 00:00:00 | |
| DL1XH-west | 2026-09-04 01:24:31 | 50.14746 | 11.40888 | 178° | 24km/h | 29162m | -26.3m/s | -45°C | 0% | 14hPa | 2.5V | 08:29:57 | 01:49:56 | 00:00:00 | |
| DL6DJ-15 | 2026-09-04 01:24:30 | 50.14759 | 11.40887 | 174° | 24km/h | 29214m | -26.8m/s | -44.7°C | 0.6% | 13.9hPa | 2.5V | 00:00:00 | 00:00:00 | 00:00:00 | |
| DM0DOS-11 | 2026-09-04 01:24:28 | 50.14779 | 11.40878 | 161° | 15km/h | 29326m | -26.4m/s | -44.4°C | 2.9% | 13.7hPa | 2.5V | 08:29:46 | 01:49:50 | 00:00:00 | |
| AA1-15 | 2026-09-04 01:24:28 | 50.14765 | 11.40886 | 167° | 24km/h | 29242m | -29.2m/s | -44.5°C | 0% | 13.8hPa | 2.6V | 08:29:57 | 01:49:53 | 00:00:00 | |
| HSKMA3-T | 2026-09-04 01:24:24 | 50.14782 | 11.40876 | 157° | 15km/h | 29353m | -28m/s | -44.4°C | 0% | 13.6hPa | 2.5V | 08:29:57 | 01:49:49 | 00:00:00 | |
| DF8AY | 2026-09-04 01:24:23 | 50.14787 | 11.40869 | 123° | 11km/h | 29411m | -29.1m/s | -44.3°C | 0% | 13.5hPa | 2.6V | 08:29:57 | 01:49:47 | 00:00:00 | |
| DL1XH1-15 | 2026-09-04 01:24:23 | 50.14794 | 11.40855 | 139° | 9km/h | 29519m | -27.1m/s | -44.4°C | 2.9% | 13.2hPa | 2.6V | 08:29:53 | 01:49:43 | 00:00:00 | |
| SO1NDE-10 | 2026-09-04 01:24:23 | 50.14785 | 11.40873 | 138° | 13km/h | 29382m | -29.3m/s | -44.3°C | 2.8% | 13.5hPa | 2.6V | 00:00:00 | 01:49:48 | 00:00:00 | |
| DL1NUX | 2026-09-04 01:24:22 | 50.14796 | 11.40852 | 142° | 13km/h | 29546m | -29.6m/s | -44.4°C | 2.9% | 13.2hPa | 2.6V | 08:29:54 | 01:49:42 | 00:00:00 | |
| OE5DRO-10 | 2026-09-04 01:24:22 | 50.14787 | 11.40869 | 124° | 11km/h | 29412m | -29.0m/s | -44.3°C | 2.8% | 13.4hPa | 2.5V | 00:00:00 | 00:00:00 | 00:00:00 | |
| DD8BA-10 | 2026-09-04 01:24:21 | 50.14789 | 11.40866 | 129° | 11km/h | 29439m | -26.9m/s | -44.3°C | 2.9% | 13.4hPa | 2.5V | 08:29:00 | 00:00:00 | 00:00:00 | |
| DM0DOS-11 | 2026-09-04 01:24:20 | 50.14801 | 11.40846 | 129° | 11km/h | 29606m | -31.4m/s | -44.2°C | 2.8% | 13.1hPa | 2.5V | 08:29:56 | 01:49:40 | 00:00:00 | |
| DL1XH-west | 2026-09-04 01:24:20 | 50.14791 | 11.40863 | 133° | 11km/h | 29466m | -26.6m/s | -44.4°C | 0% | 13.4hPa | 2.5V | 08:29:57 | 01:49:45 | 00:00:00 | |
| AA1-15 | 2026-09-04 01:24:17 | 50.14796 | 11.40852 | 142° | 13km/h | 29546m | -29.6m/s | -44.4°C | 0% | 13.2hPa | 2.6V | 08:29:57 | 01:49:42 | 00:00:00 | |
| HSKMA3-T | 2026-09-04 01:24:14 | 50.14803 | 11.40842 | 127° | 9km/h | 29638m | -31.2m/s | -44°C | 0% | 13hPa | 2.5V | 08:29:57 | 01:49:39 | 00:00:00 | |
| DO3MHA-11 | 2026-09-04 01:24:14 | 50.14803 | 11.40842 | 128° | 11km/h | 29638m | -31.1m/s | -44.0°C | 2.8% | 13.0hPa | 2.6V | 00:00:00 | 01:49:39 | 00:00:00 | |
| DL1XH-15 | 2026-09-04 01:24:13 | 50.14809 | 11.40820 | 117° | 13km/h | 29820m | -28m/s | -43.5°C | 2.6% | 12.7hPa | 2.6V | 08:30:00 | 01:49:33 | 00:00:00 | |
| BIOWL9-15 | 2026-09-04 01:24:13 | 50.14805 | 11.40837 | 114° | 7km/h | 29701m | -32.4m/s | -43.7°C | 0.6% | 12.9hPa | 2.6V | 00:00:00 | 00:00:00 | 00:00:00 | |
| DL1NUX | 2026-09-04 01:24:12 | 50.14811 | 11.40816 | 116° | 13km/h | 29849m | -30m/s | -43.4°C | 2.6% | 12.6hPa | 2.6V | 08:30:00 | 01:49:32 | 00:00:00 | |
| DF8AY | 2026-09-04 01:24:11 | 50.14806 | 11.40834 | 104° | 11km/h | 29732m | -30m/s | -43.6°C | 0% | 12.8hPa | 2.5V | 18:12:15 | 01:49:36 | 00:00:00 | |
| DL1XH-west | 2026-09-04 01:24:10 | 50.14807 | 11.40829 | 108° | 13km/h | 29762m | -29.6m/s | -43.6°C | 0% | 12.8hPa | 2.5V | 18:12:15 | 01:49:35 | 00:00:00 | |
| AA1-15 | 2026-09-04 01:24:07 | 50.14811 | 11.40816 | 116° | 13km/h | 29849m | -30m/s | -43.4°C | 0% | 12.6hPa | 2.6V | 18:12:15 | 01:49:32 | 00:00:00 | |
| BIOWL1-15 | 2026-09-04 01:24:06 | 50.14814 | 11.40806 | 125° | 16km/h | 29912m | -31.7m/s | -43.3°C | 0% | 12.5hPa | 2.5V | 18:12:15 | 01:49:30 | 00:00:00 | |
| HSKMA3-T | 2026-09-04 01:24:03 | 50.14818 | 11.40796 | 124° | 15km/h | 29973m | -29.2m/s | -43.4°C | 0% | 12.4hPa | 2.6V | 18:12:15 | 01:49:28 | 00:00:00 | |
| OE5DRO-10 | 2026-09-04 01:24:03 | 50.14818 | 11.40796 | 125° | 15km/h | 29973m | -29.1m/s | -43.3°C | 2.6% | 12.3hPa | 2.6V | 00:00:00 | 00:00:00 | 00:00:00 | |
| DL1NUX | 2026-09-04 01:24:02 | 50.14824 | 11.40760 | 85° | 13km/h | 30144m | -29.8m/s | -43.6°C | 2.7% | 12.1hPa | 2.6V | 08:30:00 | 01:49:22 | 00:00:00 | |
| DF2AP-13 | 2026-09-04 01:24:02 | 50.14820 | 11.40790 | 118° | 16km/h | 30001m | -27.8m/s | -43.3°C | 2.6% | 12.3hPa | 2.5V | 00:00:00 | 01:49:27 | 00:00:00 | |
| SONCRA | 2026-09-04 01:24:01 | 50.14822 | 11.40784 | 109° | 16km/h | 30030m | -30.1m/s | -43.4°C | 0.6% | 12.3hPa | 2.5V | 00:00:00 | 00:00:00 | 00:00:00 | |
| DM0DOS-11 | 2026-09-04 01:24:00 | 50.14823 | 11.40751 | 74° | 11km/h | 30201m | -27m/s | -43.7°C | 2.7% | 11.9hPa | 2.5V | 08:30:00 | 01:49:20 | 00:00:00 | |
| DL1XH-west | 2026-09-04 01:24:00 | 50.14823 | 11.40778 | 105° | 16km/h | 30059m | -27.9m/s | -43.5°C | 0% | 12.2hPa | 2.5V | 18:12:15 | 01:49:25 | 00:00:00 | |
| AA1-15 | 2026-09-04 01:23:57 | 50.14824 | 11.40760 | 85° | 13km/h | 30144m | -29.8m/s | -43.6°C | 0% | 12.1hPa | 2.6V | 18:12:15 | 01:49:22 | 00:00:00 | |
| BIOWL1-15 | 2026-09-04 01:23:54 | 50.14822 | 11.40747 | 75° | 11km/h | 30229m | -27.1m/s | -43.7°C | 0% | 11.9hPa | 2.5V | 18:12:15 | 01:49:19 | 00:00:00 | |
| DF8AY-15 | 2026-09-04 01:23:54 | 50.14822 | 11.40747 | 76° | 16km/h | 30229m | -27.0m/s | -43.7°C | 2.7% | 11.9hPa | 2.6V | 00:00:00 | 01:49:19 | 00:00:00 | |
| DL1XH-15 | 2026-09-04 01:23:53 | 50.14828 | 11.40717 | 121° | 20km/h | 30379m | -19.2m/s | -43.7°C | 2.6% | 11.6hPa | 2.6V | 08:30:00 | 01:49:13 | 00:00:00 | |
| HSKMA3-T | 2026-09-04 01:23:53 | 50.14822 | 11.40743 | 83° | 11km/h | 30256m | -27.5m/s | -43.7°C | 0% | 11.8hPa | 2.6V | 18:12:15 | 01:49:18 | 00:00:00 | |
| OE5WHR-10 | 2026-09-04 01:23:53 | 50.14822 | 11.40742 | 83° | 16km/h | 30256m | -27.5m/s | 0°C | 0% | 0hPa | 2.5V | 00:00:00 | 01:49:18 | 00:00:00 | |
| PG1ADW-2 | 2026-09-04 01:23:52 | 50.14822 | 11.40738 | 97° | 16km/h | 30284m | -28.2m/s | -43.7°C | 2.7% | 11.7hPa | 2.5V | 00:00:00 | 00:00:00 | 00:00:00 | |
| DM0DOS-11 | 2026-09-04 01:23:50 | 50.14837 | 11.40697 | 124° | 20km/h | 30439m | -21m/s | -43.7°C | 2.6% | 11.5hPa | 2.5V | 08:30:00 | 01:49:10 | 00:00:00 | |
| DL1XH-west | 2026-09-04 01:23:49 | 50.14826 | 11.40723 | 121° | 18km/h | 30358m | -21.9m/s | -43.7°C | 0% | 11.6hPa | 2.5V | 18:12:15 | 01:49:14 | 00:00:00 | |
| AA1-15 | 2026-09-04 01:23:46 | 50.14834 | 11.40703 | 125° | 22km/h | 30417m | -20.9m/s | -43.7°C | 0% | 11.5hPa | 2.5V | 18:12:15 | 01:49:11 | 00:00:00 | |
| BIOWL1-15 | 2026-09-04 01:23:44 | 50.14839 | 11.40690 | 118° | 18km/h | 30460m | -21.4m/s | -43.8°C | 0% | 11.5hPa | 2.5V | 18:12:15 | 01:49:09 | 00:00:00 | |
| DO3MHA-11 | 2026-09-04 01:23:44 | 50.14839 | 11.40690 | 118° | 16km/h | 30460m | -21.4m/s | -43.7°C | 2.6% | 11.4hPa | 2.6V | 00:00:00 | 01:49:09 | 00:00:00 | |
| DL1XH1-15 | 2026-09-04 01:23:43 | 50.14848 | 11.40655 | 84° | 15km/h | 30497m | 6.2m/s | -44°C | 2.8% | 11.4hPa | 2.6V | 08:30:00 | 01:49:03 | 00:00:00 | |
| HSKMA3-T | 2026-09-04 01:23:42 | 50.14843 | 11.40678 | 114° | 16km/h | 30501m | -13.9m/s | -44°C | 0% | 11.4hPa | 2.6V | 18:12:15 | 01:49:07 | 00:00:00 | |
| BIOWL9-15 | 2026-09-04 01:23:42 | 50.14845 | 11.40672 | 114° | 16km/h | 30510m | -4.5m/s | -44.0°C | 0.6% | 11.3hPa | 2.5V | 00:00:00 | 00:00:00 | 00:00:00 | |
| SONDE2-11 | 2026-09-04 01:23:40 | 50.14848 | 11.40660 | 101° | 13km/h | 30504m | 6.9m/s | -44.0°C | 0.6% | 11.3hPa | 2.5V | 00:00:00 | 00:00:00 | 00:00:00 | |
| DB0UT-7 | 2026-09-04 01:23:39 | 50.14848 | 11.40660 | 102° | 16km/h | 30504m | 6.8m/s | -43.9°C | 2.8% | 11.3hPa | 2.5V | 00:00:00 | 00:00:00 | 00:00:00 | |
| DM0DOS-11 | 2026-09-04 01:23:38 | 50.14847 | 11.40636 | 89° | 20km/h | 30479m | 6m/s | -43.9°C | 2.7% | 11.4hPa | 2.5V | 08:30:00 | 01:49:00 | 00:00:00 | |
| DL1XH-west | 2026-09-04 01:23:38 | 50.14848 | 11.40655 | 85° | 15km/h | 30498m | 6.2m/s | -44°C | 0% | 11.4hPa | 2.6V | 18:12:15 | 01:49:03 | 00:00:00 | |
| AA1-15 | 2026-09-04 01:23:35 | 50.14847 | 11.40636 | 89° | 20km/h | 30479m | 6m/s | -43.9°C | 0% | 11.4hPa | 2.5V | 18:12:15 | 01:49:00 | 00:00:00 | |
| BIOWL1-15 | 2026-09-04 01:23:35 | 50.14847 | 11.40621 | 90° | 18km/h | 30468m | 5.7m/s | -43.9°C | 0% | 11.4hPa | 2.6V | 18:12:15 | 01:48:58 | 00:00:00 | |
| DO3MHA-11 | 2026-09-04 01:23:34 | 50.14847 | 11.40628 | 91° | 16km/h | 30474m | 5.1m/s | -43.8°C | 2.7% | 11.4hPa | 2.6V | 00:00:00 | 01:48:59 | 00:00:00 | |
| NBG1-10 | 2026-09-04 01:23:33 | 50.14847 | 11.40621 | 90° | 15km/h | 30468m | 5.7m/s | -43.8°C | 2.7% | 11.4hPa | 2.6V | 00:00:00 | 01:48:58 | 00:00:00 | |
| DL1NUX | 2026-09-04 01:23:32 | 50.14854 | 11.40592 | 141° | 20km/h | 30431m | 6.4m/s | -43.8°C | 2.7% | 11.5hPa | 2.6V | 08:30:00 | 01:48:52 | 00:00:00 | |
| HSKMA3-T | 2026-09-04 01:23:31 | 50.14847 | 11.40609 | 88° | 11km/h | 30455m | 5.9m/s | -43.9°C | 0% | 11.4hPa | 2.5V | 18:12:15 | 01:48:56 | 00:00:00 | |
| PG1ADW-2 | 2026-09-04 01:23:31 | 50.14847 | 11.40608 | 89° | 15km/h | 30455m | 5.9m/s | -43.8°C | 2.7% | 11.4hPa | 2.5V | 00:00:00 | 00:00:00 | 00:00:00 | |
| DM0DOS-11 | 2026-09-04 01:23:30 | 50.14862 | 11.40582 | 133° | 18km/h | 30419m | 5.9m/s | -43.8°C | 2.7% | 11.5hPa | 2.5V | 08:30:00 | 01:48:50 | 00:00:00 | |
| DL1XH-west | 2026-09-04 01:23:28 | 50.14851 | 11.40596 | 136° | 16km/h | 30437m | 7.3m/s | -43.8°C | 0% | 11.5hPa | 2.6V | 18:12:15 | 01:48:53 | 00:00:00 | |
| BIOWL1-15 | 2026-09-04 01:23:27 | 50.14865 | 11.40572 | 93° | 11km/h | 30406m | 6m/s | -43.8°C | 0% | 11.5hPa | 2.6V | 18:12:15 | 01:48:48 | 00:00:00 | |
| AA1-15 | 2026-09-04 01:23:25 | 50.14862 | 11.40582 | 134° | 18km/h | 30419m | 5.9m/s | -43.8°C | 0% | 11.5hPa | 2.5V | 18:12:15 | 01:48:50 | 00:00:00 | |
| AU51GT2 | 2026-09-04 01:23:25 | 50.14864 | 11.40577 | 119° | 13km/h | 30413m | 7.1m/s | -43.8°C | 0.6% | 11.5hPa | 2.5V | 00:00:00 | 00:00:00 | 00:00:00 | |
| DO3MHA-11 | 2026-09-04 01:23:24 | 50.14864 | 11.40577 | 120° | 16km/h | 30413m | 7.0m/s | -43.8°C | 2.7% | 11.5hPa | 2.5V | 00:00:00 | 01:48:49 | 00:00:00 | |
| DL1XH1-15 | 2026-09-04 01:23:23 | 50.14862 | 11.40540 | 96° | 20km/h | 30376m | 5.4m/s | -43.8°C | 2.7% | 11.6hPa | 2.6V | 08:30:00 | 01:48:43 | 00:00:00 | |
| HSKMA3-T | 2026-09-04 01:23:21 | 50.14864 | 11.40561 | 73° | 16km/h | 30395m | 5.5m/s | -43.8°C | 0% | 11.5hPa | 2.5V | 18:12:15 | 01:48:46 | 00:00:00 | |
| DF8AY | 2026-09-04 01:23:18 | 50.14863 | 11.40540 | 97° | 20km/h | 30376m | 5.4m/s | -43.8°C | 0% | 11.6hPa | 2.6V | 18:12:15 | 01:48:43 | 00:00:00 | |
| DL1XH-west | 2026-09-04 01:23:17 | 50.14863 | 11.40533 | 102° | 18km/h | 30371m | 4.7m/s | -43.8°C | 0% | 11.6hPa | 2.6V | 18:12:15 | 01:48:42 | 00:00:00 | |
| AA1-15 | 2026-09-04 01:23:15 | 50.14865 | 11.40522 | 104° | 9km/h | 30359m | 7m/s | -43.8°C | 0% | 11.6hPa | 2.5V | 18:12:15 | 01:48:40 | 00:00:00 | |
| BIOWL1-15 | 2026-09-04 01:23:14 | 50.14868 | 11.40515 | 136° | 9km/h | 30341m | 6m/s | -43.9°C | 0% | 11.6hPa | 2.6V | 18:12:15 | 01:48:37 | 00:00:00 | |
| DO3MHA-11 | 2026-09-04 01:23:14 | 50.14866 | 11.40519 | 113° | 13km/h | 30353m | 6.1m/s | -43.8°C | 2.7% | 11.6hPa | 2.6V | 00:00:00 | 01:48:39 | 00:00:00 | |
| DL1XH-15 | 2026-09-04 01:23:13 | 50.14876 | 11.40496 | 105° | 16km/h | 30317m | 6.3m/s | -43.9°C | 2.7% | 11.7hPa | 2.6V | 08:30:00 | 01:48:33 | 00:00:00 | |
| DF8AY-15 | 2026-09-04 01:23:13 | 50.14866 | 11.40517 | 132° | 13km/h | 30347m | 5.1m/s | -43.8°C | 2.7% | 11.6hPa | 2.6V | 00:00:00 | 01:48:38 | 00:00:00 | |
| DL1NUX | 2026-09-04 01:23:12 | 50.14876 | 11.40490 | 90° | 15km/h | 30311m | 6.6m/s | -44°C | 2.7% | 11.7hPa | 2.6V | 08:30:00 | 01:48:32 | 00:00:00 | |
| HSKMA3-T | 2026-09-04 01:23:10 | 50.14872 | 11.40508 | 127° | 16km/h | 30329m | 5.8m/s | -43.9°C | 0% | 11.7hPa | 2.5V | 18:12:15 | 01:48:35 | 00:00:00 | |
| DL1XH-west | 2026-09-04 01:23:07 | 50.14876 | 11.40490 | 90° | 15km/h | 30311m | 6.6m/s | -44°C | 0% | 11.7hPa | 2.6V | 18:12:15 | 01:48:32 | 00:00:00 | |
| DD8BA-10 | 2026-09-04 01:23:07 | 50.14876 | 11.40490 | 91° | 13km/h | 30311m | 6.6m/s | -43.9°C | 2.7% | 11.6hPa | 2.5V | 00:00:00 | 00:00:00 | 00:00:00 | |
| 13BRC | 2026-09-04 01:23:06 | 50.14876 | 11.40485 | 75° | 13km/h | 30304m | 6.1m/s | -44.0°C | 0.6% | 11.7hPa | 2.5V | 00:00:00 | 00:00:00 | 00:00:00 | |
| DL1ZP-14 | 2026-09-04 01:23:05 | 50.14874 | 11.40476 | 76° | 13km/h | 30293m | 5.5m/s | -43.9°C | 0.6% | 11.7hPa | 2.5V | 00:00:00 | 00:00:00 | 00:00:00 | |
| DO3MHA-11 | 2026-09-04 01:23:04 | 50.14874 | 11.40475 | 77° | 11km/h | 30294m | 5.5m/s | -43.9°C | 2.7% | 11.7hPa | 2.6V | 00:00:00 | 01:48:29 | 00:00:00 | |
| DL1XH1-15 | 2026-09-04 01:23:03 | 50.14877 | 11.40448 | 98° | 5km/h | 30257m | 5.8m/s | -43.9°C | 2.8% | 11.8hPa | 2.6V | 08:30:00 | 01:48:23 | 00:00:00 | |
| BIOWL1-15 | 2026-09-04 01:23:03 | 50.14875 | 11.40459 | 109° | 15km/h | 30275m | 5m/s | -43.9°C | 0% | 11.8hPa | 2.5V | 18:12:15 | 01:48:26 | 00:00:00 | |
| DL1NUX | 2026-09-04 01:23:02 | 50.14877 | 11.40445 | 94° | 5km/h | 30251m | 5.1m/s | -43.9°C | 2.8% | 11.8hPa | 2.6V | 08:30:00 | 01:48:22 | 00:00:00 | |
| HSKMA3-T | 2026-09-04 01:22:59 | 50.14877 | 11.40450 | 107° | 9km/h | 30263m | 6.6m/s | -43.9°C | 0% | 11.8hPa | 2.5V | 18:12:15 | 01:48:24 | 00:00:00 | |
| DJ8HS-15 | 2026-09-04 01:22:59 | 50.14877 | 11.40450 | 108° | 13km/h | 30263m | 6.5m/s | -43.9°C | 2.8% | 11.7hPa | 2.5V | 00:00:00 | 01:48:24 | 00:00:00 | |
| DM0DOS-11 | 2026-09-04 01:22:58 | 50.14878 | 11.40438 | 101° | 13km/h | 30240m | 7m/s | -43.9°C | 2.8% | 11.8hPa | 2.5V | 08:30:00 | 01:48:20 | 00:00:00 | |
| AA1-15 | 2026-09-04 01:22:58 | 50.14877 | 11.40448 | 99° | 5km/h | 30257m | 5.8m/s | -43.9°C | 0% | 11.8hPa | 2.6V | 18:12:15 | 01:48:23 | 00:00:00 | |
| DF8AY | 2026-09-04 01:22:57 | 50.14877 | 11.40445 | 94° | 5km/h | 30251m | 5.1m/s | -43.9°C | 0% | 11.8hPa | 2.6V | 18:12:15 | 01:48:22 | 00:00:00 | |
| DL1XH-west | 2026-09-04 01:22:56 | 50.14878 | 11.40442 | 98° | 9km/h | 30246m | 5.6m/s | -43.9°C | 0% | 11.8hPa | 2.5V | 18:12:15 | 01:48:21 | 00:00:00 | |
| DL2RXE-15 | 2026-09-04 01:22:55 | 50.14878 | 11.40442 | 99° | 9km/h | 30246m | 5.6m/s | 0°C | 0% | 0hPa | 2.5V | 00:00:00 | 00:00:00 | 00:00:00 | |
| DO3MHA-11 | 2026-09-04 01:22:54 | 50.14879 | 11.40432 | 103° | 15km/h | 30233m | 5.9m/s | -43.8°C | 2.8% | 11.8hPa | 2.5V | 00:00:00 | 01:48:19 | 00:00:00 | |
| DL1XH1-15 | 2026-09-04 01:22:53 | 50.14878 | 11.40404 | 87° | 13km/h | 30199m | 5.6m/s | -43.8°C | 2.7% | 11.9hPa | 2.6V | 08:30:00 | 01:48:13 | 00:00:00 | |
| SO1NDE-10 | 2026-09-04 01:22:53 | 50.14880 | 11.40427 | 100° | 15km/h | 30228m | 5.5m/s | -43.8°C | 2.8% | 11.8hPa | 2.6V | 00:00:00 | 01:48:18 | 00:00:00 | |
| DL1NUX | 2026-09-04 01:22:52 | 50.14879 | 11.40398 | 96° | 16km/h | 30193m | 6.9m/s | -43.8°C | 2.8% | 11.9hPa | 2.6V | 08:30:00 | 01:48:12 | 00:00:00 | |
| D01LWL | 2026-09-04 01:22:51 | 50.14880 | 11.40412 | 73° | 9km/h | 30209m | 5.1m/s | -43.8°C | 0.6% | 11.9hPa | 2.5V | 00:00:00 | 00:00:00 | 00:00:00 | |
| DM0DOS-11 | 2026-09-04 01:22:50 | 50.14881 | 11.40383 | 103° | 22km/h | 30180m | 5.2m/s | -43.9°C | 2.7% | 11.9hPa | 2.5V | 08:30:00 | 01:48:10 | 00:00:00 | |
| BIOWL1-15 | 2026-09-04 01:22:50 | 50.14880 | 11.40412 | 74° | 9km/h | 30209m | 5.1m/s | -43.8°C | 0% | 11.9hPa | 2.5V | 18:12:15 | 01:48:15 | 00:00:00 | |
| HSKMA3-T | 2026-09-04 01:22:49 | 50.14879 | 11.40408 | 77° | 9km/h | 30204m | 4.4m/s | -43.8°C | 0% | 11.9hPa | 2.5V | 18:12:15 | 01:48:14 | 00:00:00 | |
| AA1-15 | 2026-09-04 01:22:47 | 50.14879 | 11.40398 | 97° | 16km/h | 30193m | 6.9m/s | -43.9°C | 0% | 11.9hPa | 2.6V | 18:12:15 | 01:48:12 | 00:00:00 | |
| DL1XH-west | 2026-09-04 01:22:45 | 50.14881 | 11.40383 | 104° | 22km/h | 30180m | 5.3m/s | -43.9°C | 0% | 11.9hPa | 2.5V | 18:12:15 | 01:48:10 | 00:00:00 | |
| DF7PN | 2026-09-04 01:22:44 | 50.14882 | 11.40375 | 102° | 18km/h | 30176m | 5.3m/s | -43.9°C | 0.6% | 11.9hPa | 2.6V | 00:00:00 | 00:00:00 | 00:00:00 | |
| DL1XH1-15 | 2026-09-04 01:22:43 | 50.14882 | 11.40348 | 102° | 15km/h | 30140m | 6.7m/s | -43.8°C | 2.7% | 12hPa | 2.6V | 08:30:00 | 01:48:03 | 00:00:00 | |
| DO3MHA-11 | 2026-09-04 01:22:43 | 50.14883 | 11.40368 | 99° | 15km/h | 30170m | 6.5m/s | -43.8°C | 2.7% | 11.9hPa | 2.6V | 00:00:00 | 01:48:08 | 00:00:00 | |
| DL1NUX | 2026-09-04 01:22:42 | 50.14883 | 11.40341 | 112° | 20km/h | 30134m | 5.9m/s | -43.8°C | 2.7% | 12hPa | 2.6V | 08:30:00 | 01:48:02 | 00:00:00 | |
| BIOWL1-15 | 2026-09-04 01:22:40 | 50.14882 | 11.40356 | 70° | 7km/h | 30152m | 4.8m/s | -43.9°C | 0% | 12hPa | 2.5V | 18:12:15 | 01:48:05 | 00:00:00 | |
| HSKMA3-T | 2026-09-04 01:22:38 | 50.14882 | 11.40348 | 102° | 15km/h | 30141m | 6.7m/s | -43.8°C | 0% | 12hPa | 2.6V | 18:12:15 | 01:48:03 | 00:00:00 | |
| DF8AY | 2026-09-04 01:22:37 | 50.14883 | 11.40341 | 112° | 20km/h | 30134m | 5.9m/s | -43.8°C | 0% | 12hPa | 2.6V | 18:12:15 | 01:48:02 | 00:00:00 | |
| DL1XH-west | 2026-09-04 01:22:35 | 50.14888 | 11.40326 | 125° | 22km/h | 30123m | 5.9m/s | -43.8°C | 0% | 12hPa | 2.5V | 18:12:15 | 01:48:00 | 00:00:00 | |
| DL1ZP-14 | 2026-09-04 01:22:34 | 50.14902 | 11.40307 | 144° | 15km/h | 30100m | 5.2m/s | -43.7°C | 0.6% | 12.1hPa | 2.5V | 00:00:00 | 00:00:00 | 00:00:00 | |
| DL1XH1-15 | 2026-09-04 01:22:33 | 50.14909 | 11.40293 | 110° | 15km/h | 30082m | 5.1m/s | -43.7°C | 2.7% | 12.1hPa | 2.6V | 08:30:00 | 01:47:53 | 00:00:00 | |
| AA1-15 | 2026-09-04 01:22:33 | 50.14895 | 11.40314 | 141° | 18km/h | 30110m | 5.8m/s | -43.8°C | 0% | 12.1hPa | 2.6V | 18:12:15 | 01:47:58 | 00:00:00 | |
| DO3MHA-11 | 2026-09-04 01:22:33 | 50.14895 | 11.40314 | 142° | 13km/h | 30111m | 5.7m/s | -43.8°C | 2.8% | 12.0hPa | 2.6V | 00:00:00 | 01:47:58 | 00:00:00 | |
| DL1NUX | 2026-09-04 01:22:32 | 50.14910 | 11.40288 | 93° | 11km/h | 30076m | 6m/s | -43.7°C | 2.7% | 12.1hPa | 2.6V | 08:30:00 | 01:47:52 | 00:00:00 | |
| BIOWL1-15 | 2026-09-04 01:22:30 | 50.14905 | 11.40303 | 137° | 16km/h | 30094m | 6.7m/s | -43.7°C | 0% | 12.1hPa | 2.5V | 18:12:15 | 01:47:55 | 00:00:00 | |
| HSKMA3-T | 2026-09-04 01:22:28 | 50.14909 | 11.40293 | 110° | 15km/h | 30082m | 5.1m/s | -43.7°C | 0% | 12.1hPa | 2.6V | 18:12:15 | 01:47:53 | 00:00:00 | |
| DF8AY | 2026-09-04 01:22:26 | 50.14909 | 11.40284 | 75° | 9km/h | 30070m | 7m/s | -43.7°C | 0% | 12.1hPa | 2.5V | 18:12:15 | 01:47:51 | 00:00:00 | |
| DL1XH-west | 2026-09-04 01:22:24 | 50.14908 | 11.40278 | 70° | 9km/h | 30058m | 4.8m/s | -43.7°C | 0% | 12.1hPa | 2.5V | 18:12:15 | 01:47:49 | 00:00:00 | |
| DL1XH1-15 | 2026-09-04 01:22:23 | 50.14919 | 11.40241 | 126° | 18km/h | 30024m | 6.1m/s | -43.6°C | 2.7% | 12.2hPa | 2.6V | 08:30:00 | 01:47:43 | 00:00:00 | |
| AA1-15 | 2026-09-04 01:22:23 | 50.14907 | 11.40274 | 89° | 11km/h | 30053m | 5.7m/s | -43.6°C | 0% | 12.2hPa | 2.6V | 18:12:15 | 01:47:48 | 00:00:00 | |
| DO3MHA-11 | 2026-09-04 01:22:23 | 50.14907 | 11.40274 | 90° | 18km/h | 30053m | 5.7m/s | -43.6°C | 2.7% | 12.1hPa | 2.6V | 00:00:00 | 01:47:48 | 08:30:00 | |
| DL1NUX | 2026-09-04 01:22:22 | 50.14921 | 11.40236 | 117° | 13km/h | 30018m | 5.5m/s | -43.6°C | 2.7% | 12.2hPa | 2.6V | 08:30:00 | 01:47:42 | 00:00:00 | |
| BIOWL1-15 | 2026-09-04 01:22:21 | 50.14916 | 11.40248 | 129° | 22km/h | 30030m | 5.9m/s | -43.6°C | 0% | 12.2hPa | 2.5V | 18:12:15 | 01:47:44 | 00:00:00 | |
| DF8AY | 2026-09-04 01:22:21 | 50.14922 | 11.40232 | 104° | 11km/h | 30013m | 5.1m/s | -43.7°C | 0% | 12.2hPa | 2.5V | 18:12:15 | 01:47:41 | 00:00:00 | |
| OE5MMP-10 | 2026-09-04 01:22:20 | 50.14912 | 11.40254 | 126° | 16km/h | 30036m | 5.0m/s | -43.6°C | 2.7% | 12.1hPa | 2.5V | 00:00:00 | 01:47:45 | 00:00:00 | |
| DJ8HS-15 | 2026-09-04 01:22:19 | 50.14916 | 11.40247 | 129° | 16km/h | 30030m | 5.9m/s | -43.6°C | 2.7% | 12.2hPa | 2.5V | 00:00:00 | 01:47:44 | 00:00:00 | |
| DM0DOS-11 | 2026-09-04 01:22:18 | 50.14923 | 11.40227 | 95° | 13km/h | 30008m | 5.3m/s | -43.7°C | 2.7% | 12.2hPa | 2.5V | 08:30:00 | 01:47:40 | 00:00:00 | |
| HSKMA3-T | 2026-09-04 01:22:17 | 50.14921 | 11.40236 | 117° | 13km/h | 30018m | 5.5m/s | -43.6°C | 0% | 12.2hPa | 2.6V | 18:12:15 | 01:47:42 | 00:00:00 | |
| DD8BA-10 | 2026-09-04 01:22:17 | 50.14921 | 11.40236 | 118° | 15km/h | 30018m | 5.4m/s | -43.6°C | 2.7% | 12.2hPa | 2.6V | 00:00:00 | 00:00:00 | 00:00:00 | |
| DJ2DS-15 | 2026-09-04 01:22:15 | 50.14923 | 11.40222 | 96° | 15km/h | 30002m | 6.1m/s | -43.7°C | 0.6% | 12.3hPa | 2.6V | 00:00:00 | 00:00:00 | 00:00:00 | |
| OE5WHR-10 | 2026-09-04 01:22:14 | 50.14923 | 11.40221 | 97° | 15km/h | 30002m | 6.1m/s | 0°C | 0% | 0hPa | 2.6V | 00:00:00 | 00:00:00 | 00:00:00 | |
| DL1XH-west | 2026-09-04 01:22:14 | 50.14923 | 11.40222 | 96° | 15km/h | 30002m | 6.1m/s | -43.7°C | 0% | 12.3hPa | 2.5V | 18:12:15 | 01:47:39 | 00:00:00 | |
| DL1XH1-15 | 2026-09-04 01:22:13 | 50.14933 | 11.40187 | 137° | 11km/h | 29967m | 5.3m/s | -43.6°C | 2.7% | 12.3hPa | 2.6V | 08:30:00 | 01:47:33 | 00:00:00 | |
| DL1NUX | 2026-09-04 01:22:12 | 50.14935 | 11.40184 | 132° | 11km/h | 29962m | 4.9m/s | -43.6°C | 2.7% | 12.3hPa | 2.6V | 08:30:00 | 01:47:32 | 00:00:00 | |
| DF8AY-15 | 2026-09-04 01:22:12 | 50.14925 | 11.40208 | 109° | 13km/h | 29990m | 5.3m/s | -43.6°C | 2.7% | 12.3hPa | 2.6V | 00:00:00 | 01:47:37 | 08:30:00 | |
| DO3MHA-11 | 2026-09-04 01:22:11 | 50.14927 | 11.40201 | 116° | 16km/h | 29985m | 4.8m/s | -43.6°C | 2.7% | 12.2hPa | 2.5V | 00:00:00 | 01:47:36 | 00:00:00 | |
| DM0DOS-11 | 2026-09-04 01:22:10 | 50.14939 | 11.40174 | 115° | 18km/h | 29951m | 6.5m/s | -43.6°C | 2.7% | 12.4hPa | 2.5V | 08:30:00 | 01:47:30 | 00:00:00 | |
| BIOWL1-15 | 2026-09-04 01:22:09 | 50.14931 | 11.40190 | 129° | 13km/h | 29973m | 6.6m/s | -43.6°C | 0% | 12.3hPa | 2.5V | 18:12:15 | 01:47:34 | 00:00:00 | |
| HSKMA3-T | 2026-09-04 01:22:06 | 50.14937 | 11.40180 | 124° | 15km/h | 29957m | 5.6m/s | -43.6°C | 0% | 12.3hPa | 2.5V | 18:12:15 | 01:47:31 | 00:00:00 | |
| DL1XH-west | 2026-09-04 01:22:04 | 50.14941 | 11.40167 | 107° | 22km/h | 29944m | 5.4m/s | -43.6°C | 0% | 12.4hPa | 2.5V | 18:12:15 | 01:47:29 | 00:00:00 | |
| EDDB2-11 | 2026-09-04 01:22:03 | 50.14942 | 11.40158 | 99° | 22km/h | 29940m | 4.4m/s | -43.6°C | 0.6% | 12.4hPa | 2.6V | 00:00:00 | 00:00:00 | 00:00:00 | |
| DL1NUX | 2026-09-04 01:22:02 | 50.14938 | 11.40129 | 94° | 7km/h | 29907m | 6m/s | -43.7°C | 2.7% | 12.5hPa | 2.6V | 08:30:00 | 01:47:22 | 00:00:00 | |
| BIOWL1-15 | 2026-09-04 01:21:58 | 50.14939 | 11.40131 | 60° | 7km/h | 29912m | 4.8m/s | -43.7°C | 0% | 12.4hPa | 2.6V | 18:12:15 | 01:47:23 | 00:00:00 | |
| HSKMA3-T | 2026-09-04 01:21:56 | 50.14939 | 11.40125 | 121° | 11km/h | 29901m | 6.3m/s | -43.7°C | 0% | 12.5hPa | 2.5V | 18:12:15 | 01:47:21 | 00:00:00 | |
| DM0DOS-11 | 2026-09-04 01:21:55 | 50.14941 | 11.40121 | 131° | 15km/h | 29895m | 5.6m/s | -43.7°C | 2.7% | 12.4hPa | 2.5V | 08:30:00 | 01:47:20 | 00:00:00 | |
| DF8AY | 2026-09-04 01:21:55 | 50.14941 | 11.40121 | 131° | 15km/h | 29895m | 5.6m/s | -43.7°C | 0% | 12.5hPa | 2.5V | 18:12:15 | 01:47:20 | 00:00:00 | |
| DL1XH-west | 2026-09-04 01:21:53 | 50.14947 | 11.40113 | 143° | 15km/h | 29883m | 6.4m/s | -43.8°C | 0% | 12.5hPa | 2.6V | 18:12:15 | 01:47:18 | 00:00:00 | |
| SO1NDE-10 | 2026-09-04 01:21:53 | 50.14947 | 11.40113 | 143° | 11km/h | 29884m | 6.4m/s | -43.7°C | 2.7% | 12.4hPa | 2.6V | 00:00:00 | 01:47:18 | 00:00:00 | |
| DL1NUX | 2026-09-04 01:21:52 | 50.14959 | 11.40099 | 121° | 11km/h | 29849m | 5.5m/s | -43.8°C | 2.7% | 12.6hPa | 2.6V | 08:30:00 | 01:47:12 | 00:00:00 | |
| NBG1-10 | 2026-09-04 01:21:52 | 50.14949 | 11.40110 | 151° | 11km/h | 29877m | 6.1m/s | -43.7°C | 2.7% | 12.5hPa | 2.5V | 00:00:00 | 01:47:17 | 00:00:00 | |
| DO3MHA-11 | 2026-09-04 01:21:51 | 50.14952 | 11.40108 | 155° | 7km/h | 29872m | 4.9m/s | -43.7°C | 2.7% | 12.5hPa | 2.5V | 00:00:00 | 01:47:16 | 00:00:00 | |
| DM0DOS-11 | 2026-09-04 01:21:50 | 50.14960 | 11.40092 | 83° | 7km/h | 29838m | 5.9m/s | -43.8°C | 2.7% | 12.6hPa | 2.5V | 08:30:00 | 01:47:10 | 00:00:00 | |
| BIOWL1-15 | 2026-09-04 01:21:49 | 50.14959 | 11.40099 | 121° | 11km/h | 29849m | 5.5m/s | -43.8°C | 0% | 12.6hPa | 2.6V | 18:12:15 | 01:47:12 | 00:00:00 | |
| HSKMA3-T | 2026-09-04 01:21:45 | 50.14960 | 11.40092 | 83° | 7km/h | 29838m | 5.9m/s | -43.8°C | 0% | 12.6hPa | 2.5V | 18:12:15 | 01:47:10 | 00:00:00 | |
| DF8AY | 2026-09-04 01:21:44 | 50.14960 | 11.40090 | 50° | 5km/h | 29832m | 6.6m/s | -43.9°C | 0% | 12.6hPa | 2.5V | 18:12:15 | 01:47:09 | 00:00:00 | |
| DL1XH-west | 2026-09-04 01:21:42 | 50.14958 | 11.40087 | 56° | 4km/h | 29821m | 4.3m/s | -43.9°C | 0% | 12.6hPa | 2.6V | 18:12:15 | 01:47:07 | 00:00:00 | |
| DO3MHA-11 | 2026-09-04 01:21:41 | 50.14958 | 11.40085 | 113° | 16km/h | 29817m | 5.5m/s | -43.8°C | 2.7% | 12.6hPa | 2.5V | 00:00:00 | 01:47:06 | 00:00:00 | |
| OE5MMP-10 | 2026-09-04 01:21:40 | 50.14959 | 11.40082 | 130° | 16km/h | 29811m | 6.5m/s | -43.8°C | 2.7% | 12.6hPa | 2.5V | 00:00:00 | 01:47:05 | 08:30:00 | |
| DJ8HS-15 | 2026-09-04 01:21:39 | 50.14962 | 11.40077 | 133° | 13km/h | 29805m | 5.9m/s | -43.9°C | 2.7% | 12.6hPa | 2.5V | 00:00:00 | 01:47:04 | 00:00:00 | |
| DM0DOS-11 | 2026-09-04 01:21:38 | 50.14973 | 11.40052 | 114° | 16km/h | 29781m | 5.5m/s | -43.9°C | 2.7% | 12.7hPa | 2.5V | 08:30:00 | 01:47:00 | 00:00:00 | |
| BIOWL1-15 | 2026-09-04 01:21:37 | 50.14969 | 11.40065 | 128° | 22km/h | 29793m | 6.2m/s | -43.9°C | 0% | 12.7hPa | 2.6V | 18:12:15 | 01:47:02 | 00:00:00 | |
| HSKMA3-T | 2026-09-04 01:21:35 | 50.14974 | 11.40052 | 115° | 16km/h | 29781m | 5.5m/s | -43.9°C | 0% | 12.7hPa | 2.5V | 18:12:15 | 01:47:00 | 00:00:00 | |
| DF8AY | 2026-09-04 01:21:33 | 50.14976 | 11.40041 | 111° | 15km/h | 29770m | 6.7m/s | -43.9°C | 0% | 12.7hPa | 2.6V | 18:12:15 | 01:46:58 | 00:00:00 | |
| DL1XH1-15 | 2026-09-04 01:21:33 | 50.14979 | 11.40029 | 287° | 2km/h | 29740m | 5.5m/s | -44°C | 2.7% | 12.8hPa | 2.6V | 08:30:00 | 01:46:53 | 00:00:00 | |
| DL1XH-west | 2026-09-04 01:21:32 | 50.14978 | 11.40037 | 114° | 13km/h | 29763m | 5.7m/s | -44°C | 0% | 12.7hPa | 2.6V | 18:12:15 | 01:46:57 | 00:00:00 | |
| DF2AP-13 | 2026-09-04 01:21:32 | 50.14977 | 11.40036 | 114° | 13km/h | 29764m | 5.6m/s | -43.9°C | 2.7% | 12.6hPa | 2.5V | 00:00:00 | 01:46:57 | 00:00:00 | |
| DL1ZP-14 | 2026-09-04 01:21:31 | 50.14979 | 11.40033 | 112° | 9km/h | 29758m | 4.7m/s | -44.0°C | 0.6% | 12.7hPa | 2.5V | 00:00:00 | 00:00:00 | 00:00:00 | |
| DM0DOS-11 | 2026-09-04 01:21:30 | 50.14984 | 11.40026 | 147° | 15km/h | 29723m | 6m/s | -44.1°C | 2.7% | 12.8hPa | 2.5V | 08:30:00 | 01:46:50 | 00:00:00 | |
| BIOWL1-15 | 2026-09-04 01:21:26 | 50.14996 | 11.40004 | 105° | 16km/h | 29701m | 6.3m/s | -44.4°C | 0% | 12.8hPa | 2.5V | 18:12:15 | 01:46:46 | 00:00:00 | |
| HSKMA3-T | 2026-09-04 01:21:25 | 50.14984 | 11.40026 | 147° | 15km/h | 29723m | 6.1m/s | -44.1°C | 0% | 12.8hPa | 2.5V | 18:12:15 | 01:46:50 | 00:00:00 | |
| OE5DXL-15 | 2026-09-04 01:21:25 | 50.14984 | 11.40026 | 148° | 13km/h | 29724m | 6.0m/s | -44.1°C | 2.7% | 12.7hPa | 2.6V | 00:00:00 | 00:00:00 | 00:00:00 | |
| DL1XH1-15 | 2026-09-04 01:21:23 | 50.14994 | 11.39987 | 72° | 15km/h | 29683m | 6m/s | -44.5°C | 2.8% | 12.9hPa | 2.6V | 08:30:00 | 01:46:43 | 00:00:00 | |
| DL1XH-west | 2026-09-04 01:21:22 | 50.14994 | 11.40010 | 122° | 18km/h | 29707m | 6.6m/s | -44.3°C | 0% | 12.8hPa | 2.6V | 18:12:15 | 01:46:47 | 00:00:00 | |
| PETON7-10 | 2026-09-04 01:21:22 | 50.14994 | 11.40010 | 123° | 15km/h | 29708m | 6.5m/s | -44.3°C | 2.7% | 12.8hPa | 2.5V | 00:00:00 | 00:00:00 | 00:00:00 | |
| DO3MHA-11 | 2026-09-04 01:21:21 | 50.14995 | 11.40004 | 106° | 13km/h | 29701m | 6.2m/s | -44.3°C | 2.7% | 12.8hPa | 2.5V | 00:00:00 | 01:46:46 | 00:00:00 | |
| DM0DOS-11 | 2026-09-04 01:21:20 | 50.14992 | 11.39970 | 83° | 15km/h | 29666m | 5.3m/s | -44.5°C | 2.8% | 12.9hPa | 2.5V | 08:30:00 | 01:46:40 | 00:00:00 | |
| HSKMA3-T | 2026-09-04 01:21:14 | 50.14992 | 11.39964 | 80° | 13km/h | 29660m | 6.6m/s | -44.6°C | 0% | 12.9hPa | 2.5V | 18:12:15 | 01:46:39 | 00:00:00 | |
| DL1NUX | 2026-09-04 01:21:12 | 50.15001 | 11.39931 | 116° | 18km/h | 29621m | 4.8m/s | -44.8°C | 2.9% | 13hPa | 2.6V | 08:30:00 | 01:46:32 | 00:00:00 | |
| DL1XH-west | 2026-09-04 01:21:11 | 50.14991 | 11.39953 | 108° | 11km/h | 29644m | 5.1m/s | -44.6°C | 0% | 12.9hPa | 2.5V | 18:12:15 | 01:46:36 | 00:00:00 | |
| DO3MHA-11 | 2026-09-04 01:21:11 | 50.14991 | 11.39953 | 108° | 15km/h | 29645m | 5.1m/s | -44.6°C | 2.8% | 12.9hPa | 2.5V | 00:00:00 | 01:46:36 | 00:00:00 | |
| DM0DOS-11 | 2026-09-04 01:21:10 | 50.15002 | 11.39918 | 81° | 15km/h | 29609m | 6.2m/s | -44.8°C | 2.8% | 13hPa | 2.5V | 08:30:00 | 01:46:30 | 00:00:00 | |
| BIOWL1-15 | 2026-09-04 01:21:05 | 50.15000 | 11.39909 | 67° | 11km/h | 29598m | 6.3m/s | -44.8°C | 0% | 13hPa | 2.6V | 18:12:15 | 01:46:28 | 00:00:00 | |
| HSKMA3-T | 2026-09-04 01:21:04 | 50.15001 | 11.39913 | 69° | 13km/h | 29603m | 5.4m/s | -44.8°C | 0% | 13hPa | 2.5V | 18:12:15 | 01:46:29 | 00:00:00 | |
| DL1XH1-15 | 2026-09-04 01:21:03 | 50.15000 | 11.39894 | 94° | 9km/h | 29570m | 6m/s | -44.8°C | 2.8% | 13.1hPa | 2.6V | 08:30:00 | 01:46:23 | 00:00:00 | |
| DL1XH-west | 2026-09-04 01:21:01 | 50.14999 | 11.39902 | 94° | 7km/h | 29586m | 4.8m/s | -44.8°C | 0% | 13.1hPa | 2.5V | 18:12:15 | 01:46:26 | 00:00:00 | |
| DO3MHA-11 | 2026-09-04 01:21:01 | 50.14999 | 11.39902 | 95° | 15km/h | 29586m | 4.7m/s | -44.8°C | 2.9% | 13.0hPa | 2.5V | 00:00:00 | 01:46:26 | 00:00:00 | |
| OE5MMP-10 | 2026-09-04 01:21:00 | 50.14999 | 11.39900 | 102° | 15km/h | 29582m | 4.5m/s | -44.7°C | 2.9% | 13.0hPa | 2.5V | 00:00:00 | 01:46:25 | 00:00:00 | |
| DJ8HS-15 | 2026-09-04 01:20:59 | 50.15000 | 11.39897 | 99° | 13km/h | 29576m | 6.1m/s | -44.7°C | 2.8% | 13.0hPa | 2.5V | 00:00:00 | 01:46:24 | 00:00:00 | |
| DM0DOS-11 | 2026-09-04 01:20:57 | 50.15004 | 11.39881 | 131° | 16km/h | 29554m | 5.5m/s | -44.8°C | 2.8% | 13.1hPa | 2.5V | 08:30:00 | 01:46:20 | 00:00:00 | |
| HSKMA3-T | 2026-09-04 01:20:53 | 50.15012 | 11.39871 | 150° | 24km/h | 29541m | 6.1m/s | -44.9°C | 0% | 13.2hPa | 2.6V | 18:12:15 | 01:46:18 | 00:00:00 | |
| SO1NDE-10 | 2026-09-04 01:20:53 | 50.15012 | 11.39871 | 151° | 16km/h | 29542m | 6.0m/s | -44.8°C | 2.9% | 13.1hPa | 2.6V | 00:00:00 | 01:46:18 | 00:00:00 | |
| DL1NUX | 2026-09-04 01:20:52 | 50.15027 | 11.39852 | 94° | 2km/h | 29508m | 6.4m/s | -44.9°C | 2.9% | 13.2hPa | 2.6V | 08:30:00 | 01:46:12 | 00:00:00 | |
| BIOWL1-15 | 2026-09-04 01:20:52 | 50.15017 | 11.39866 | 151° | 24km/h | 29536m | 4.7m/s | -44.9°C | 0% | 13.2hPa | 2.6V | 18:12:15 | 01:46:17 | 00:00:00 | |
| DL1XH-west | 2026-09-04 01:20:50 | 50.15025 | 11.39858 | 139° | 13km/h | 29524m | 6.4m/s | -45°C | 0% | 13.2hPa | 2.5V | 18:12:15 | 01:46:15 | 00:00:00 | |
| EDDB2-12 | 2026-09-04 01:20:49 | 50.15026 | 11.39855 | 119° | 5km/h | 29519m | 5.5m/s | -44.9°C | 0.6% | 13.2hPa | 2.5V | 00:00:00 | 00:00:00 | 00:00:00 | |
| D01LWL | 2026-09-04 01:20:47 | 50.15027 | 11.39852 | 164° | 2km/h | 29502m | 6.2m/s | -44.8°C | 0.6% | 13.2hPa | 2.5V | 00:00:00 | 00:00:00 | 00:00:00 | |
| BIOWL1-15 | 2026-09-04 01:20:45 | 50.15037 | 11.39845 | 138° | 16km/h | 29472m | 5m/s | -44.8°C | 0% | 13.3hPa | 2.5V | 18:12:15 | 01:46:06 | 00:00:00 | |
| HSKMA3-T | 2026-09-04 01:20:43 | 50.15032 | 11.39850 | 157° | 9km/h | 29484m | 6.1m/s | -44.8°C | 0% | 13.3hPa | 2.6V | 18:12:15 | 01:46:08 | 00:00:00 | |
| DL1NUX | 2026-09-04 01:20:42 | 50.15060 | 11.39822 | 156° | 35km/h | 29449m | 5.2m/s | -44.8°C | 2.8% | 13.4hPa | 2.6V | 08:30:00 | 01:46:02 | 00:00:00 | |
| DB0UT-7 | 2026-09-04 01:20:42 | 50.15034 | 11.39848 | 145° | 20km/h | 29478m | 6.3m/s | -44.7°C | 2.9% | 13.2hPa | 2.6V | 00:00:00 | 01:46:07 | 00:00:00 | |
| DO3MHA-11 | 2026-09-04 01:20:41 | 50.15037 | 11.39845 | 139° | 22km/h | 29472m | 5.0m/s | -44.7°C | 2.8% | 13.3hPa | 2.5V | 00:00:00 | 01:46:06 | 00:00:00 | |
| DM0DOS-11 | 2026-09-04 01:20:40 | 50.15074 | 11.39814 | 166° | 26km/h | 29438m | 6m/s | -44.8°C | 2.8% | 13.4hPa | 2.5V | 08:30:00 | 01:46:00 | 00:00:00 | |
| DL1XH-west | 2026-09-04 01:20:40 | 50.15041 | 11.39840 | 140° | 22km/h | 29467m | 5m/s | -44.8°C | 0% | 13.3hPa | 2.5V | 18:12:15 | 01:46:05 | 00:00:00 | |
| AA1-15 | 2026-09-04 01:20:36 | 50.15067 | 11.39817 | 161° | 31km/h | 29444m | 4.5m/s | -44.8°C | 0% | 13.4hPa | 2.5V | 18:12:15 | 01:46:01 | 00:00:00 | |
| BIOWL9-15 | 2026-09-04 01:20:36 | 50.15074 | 11.39814 | 166° | 24km/h | 29438m | 6.0m/s | -44.8°C | 0.6% | 13.4hPa | 2.6V | 00:00:00 | 00:00:00 | 00:00:00 | |
| OE5DRO-10 | 2026-09-04 01:20:34 | 50.15079 | 11.39812 | 172° | 18km/h | 29432m | 7.0m/s | -44.7°C | 2.8% | 13.3hPa | 2.6V | 00:00:00 | 00:00:00 | 00:00:00 | |
| DL1XH1-15 | 2026-09-04 01:20:33 | 50.15097 | 11.39813 | 169° | 24km/h | 29396m | 5.3m/s | -44.8°C | 2.8% | 13.5hPa | 2.6V | 08:30:00 | 01:45:53 | 00:00:00 | |
| HSKMA3-T | 2026-09-04 01:20:33 | 50.15085 | 11.39813 | 200° | 7km/h | 29420m | 5.2m/s | -44.8°C | 0% | 13.4hPa | 2.6V | 18:12:15 | 01:45:57 | 00:00:00 | |
| DJTTGO | 2026-09-04 01:20:33 | 50.15082 | 11.39812 | 185° | 9km/h | 29426m | 6.0m/s | -44.8°C | 0.6% | 13.4hPa | 2.6V | 00:00:00 | 00:00:00 | 00:00:00 | |
| DF2AP-13 | 2026-09-04 01:20:32 | 50.15084 | 11.39812 | 201° | 18km/h | 29420m | 5.2m/s | -44.7°C | 2.8% | 13.4hPa | 2.6V | 00:00:00 | 01:45:57 | 00:00:00 | |
| DO3MHA-11 | 2026-09-04 01:20:31 | 50.15086 | 11.39813 | 201° | 22km/h | 29414m | 5.6m/s | -44.8°C | 2.8% | 13.4hPa | 2.5V | 00:00:00 | 01:45:56 | 00:00:00 | |
| DM0DOS-11 | 2026-09-04 01:20:30 | 50.15117 | 11.39803 | 157° | 27km/h | 29380m | 6.4m/s | -44.8°C | 2.8% | 13.5hPa | 2.5V | 08:30:00 | 01:45:50 | 00:00:00 | |
| BIOWL1-15 | 2026-09-04 01:20:30 | 50.15088 | 11.39814 | 186° | 11km/h | 29408m | 6m/s | -44.8°C | 0% | 13.4hPa | 2.5V | 18:12:15 | 01:45:55 | 00:00:00 | |
| DL1XH-west | 2026-09-04 01:20:29 | 50.15092 | 11.39814 | 175° | 16km/h | 29402m | 5.9m/s | -44.8°C | 0% | 13.4hPa | 2.5V | 18:12:15 | 01:45:54 | 00:00:00 | |
| DD8BA-10 | 2026-09-04 01:20:26 | 50.15110 | 11.39807 | 161° | 24km/h | 29386m | 5.9m/s | -44.8°C | 2.8% | 13.4hPa | 2.6V | 00:00:00 | 00:00:00 | 00:00:00 | |
| DB0NH | 2026-09-04 01:20:25 | 50.15117 | 11.39803 | 158° | 18km/h | 29380m | 6.4m/s | -44.8°C | 2.8% | 13.4hPa | 2.6V | 00:00:00 | 01:45:50 | 00:00:00 | |
| SONCRA | 2026-09-04 01:20:24 | 50.15123 | 11.39799 | 151° | 26km/h | 29374m | 6.1m/s | -44.9°C | 0.6% | 13.5hPa | 2.6V | 00:00:00 | 00:00:00 | 00:00:00 | |
| DL1XH1-15 | 2026-09-04 01:20:23 | 50.15154 | 11.39766 | 149° | 18km/h | 29340m | 4.6m/s | -44.8°C | 2.8% | 13.6hPa | 2.6V | 08:30:00 | 01:45:43 | 00:00:00 | |
| HSKMA3-T | 2026-09-04 01:20:22 | 50.15134 | 11.39788 | 145° | 26km/h | 29362m | 5.6m/s | -44.9°C | 0% | 13.5hPa | 2.6V | 18:12:15 | 01:45:47 | 00:00:00 | |
| AA1-15 | 2026-09-04 01:20:20 | 50.15144 | 11.39776 | 143° | 26km/h | 29349m | 5.9m/s | -44.9°C | 0% | 13.6hPa | 2.5V | 18:12:15 | 01:45:45 | 00:00:00 | |
| DF8AY | 2026-09-04 01:20:18 | 50.15153 | 11.39766 | 149° | 18km/h | 29340m | 4.6m/s | -44.8°C | 0% | 13.6hPa | 2.6V | 18:12:15 | 01:45:43 | 00:00:00 | |
| DM0DOS-11 | 2026-09-04 01:20:17 | 50.15160 | 11.39763 | 217° | 5km/h | 29321m | 5.3m/s | -44.8°C | 2.9% | 13.6hPa | 2.5V | 08:30:00 | 01:45:40 | 00:00:00 | |
| DD8BA-10 | 2026-09-04 01:20:16 | 50.15159 | 11.39762 | 184° | 20km/h | 29327m | 6.8m/s | -44.8°C | 2.8% | 13.5hPa | 2.5V | 00:00:00 | 00:00:00 | 00:00:00 | |
| OE5DRO-10 | 2026-09-04 01:20:15 | 50.15160 | 11.39763 | 218° | 16km/h | 29321m | 5.3m/s | -44.8°C | 2.9% | 13.6hPa | 2.5V | 00:00:00 | 00:00:00 | 00:00:00 | |
| DL1XH1-15 | 2026-09-04 01:20:13 | 50.15187 | 11.39746 | 130° | 24km/h | 29280m | 6.5m/s | -44.9°C | 2.8% | 13.7hPa | 2.6V | 08:30:00 | 01:45:33 | 00:00:00 | |
| HSKMA3-T | 2026-09-04 01:20:11 | 50.15172 | 11.39763 | 157° | 22km/h | 29298m | 5.9m/s | -44.9°C | 0% | 13.7hPa | 2.5V | 18:12:15 | 01:45:36 | 00:00:00 | |
| AA1-15 | 2026-09-04 01:20:10 | 50.15177 | 11.39759 | 146° | 26km/h | 29292m | 5.2m/s | -44.9°C | 0% | 13.7hPa | 2.5V | 18:12:15 | 01:45:35 | 00:00:00 | |
| DF8AY | 2026-09-04 01:20:08 | 50.15187 | 11.39746 | 130° | 24km/h | 29280m | 6.5m/s | -44.9°C | 0% | 13.7hPa | 2.6V | 18:12:15 | 01:45:33 | 00:00:00 | |
| DL1XH-west | 2026-09-04 01:20:07 | 50.15191 | 11.39739 | 127° | 22km/h | 29274m | 5.6m/s | -45°C | 0% | 13.7hPa | 2.6V | 18:12:15 | 01:45:32 | 00:00:00 | |
| BIOWL1-15 | 2026-09-04 01:20:06 | 50.15209 | 11.39727 | 246° | 13km/h | 29232m | 5m/s | -45.3°C | 0% | 13.8hPa | 2.5V | 18:12:15 | 01:45:25 | 00:00:00 | |
| DD8BA-10 | 2026-09-04 01:20:05 | 50.15197 | 11.39726 | 137° | 15km/h | 29262m | 6.0m/s | -45.0°C | 2.8% | 13.7hPa | 2.6V | 00:00:00 | 00:00:00 | 00:00:00 | |
| BIOWL9-15 | 2026-09-04 01:20:04 | 50.15201 | 11.39722 | 150° | 15km/h | 29257m | 5.1m/s | -45.1°C | 0.6% | 13.8hPa | 2.6V | 00:00:00 | 00:00:00 | 00:00:00 | |
| DL1XH1-15 | 2026-09-04 01:20:03 | 50.15213 | 11.39734 | 209° | 15km/h | 29221m | 6.6m/s | -45.3°C | 2.9% | 13.8hPa | 2.6V | 08:30:00 | 01:45:23 | 00:00:00 | |
| DJTTGO | 2026-09-04 01:20:02 | 50.15206 | 11.39720 | 206° | 9km/h | 29245m | 7.6m/s | -45.2°C | 0.6% | 13.8hPa | 2.5V | 00:00:00 | 00:00:00 | 00:00:00 | |
| DL1XH-15 | 2026-09-04 01:20:01 | 50.15221 | 11.39735 | 164° | 16km/h | 29209m | 5.5m/s | -45.4°C | 2.9% | 13.8hPa | 2.5V | 08:30:00 | 01:45:21 | 00:00:00 | |
| HSKMA3-T | 2026-09-04 01:20:01 | 50.15208 | 11.39723 | 243° | 9km/h | 29237m | 6.8m/s | -45.3°C | 0% | 13.8hPa | 2.5V | 18:12:15 | 01:45:26 | 00:00:00 | |
| BIOWL1-15 | 2026-09-04 01:19:57 | 50.15225 | 11.39732 | 151° | 16km/h | 29203m | 6m/s | -45.4°C | 0% | 13.8hPa | 2.5V | 18:12:15 | 01:45:20 | 00:00:00 | |
| DL1XH-west | 2026-09-04 01:19:57 | 50.15217 | 11.39736 | 183° | 16km/h | 29214m | 5.7m/s | -45.4°C | 0% | 13.8hPa | 2.6V | 18:12:15 | 01:45:22 | 00:00:00 | |
| OE5DRO-10 | 2026-09-04 01:19:56 | 50.15221 | 11.39735 | 165° | 13km/h | 29209m | 5.4m/s | -45.3°C | 2.9% | 13.8hPa | 2.5V | 00:00:00 | 00:00:00 | 00:00:00 | |
| DM0DOS-11 | 2026-09-04 01:19:55 | 50.15236 | 11.39715 | 158° | 11km/h | 29173m | 6.8m/s | -45.5°C | 3% | 13.9hPa | 2.5V | 08:30:00 | 01:45:15 | 00:00:00 | |
| OE5DXL-15 | 2026-09-04 01:19:55 | 50.15225 | 11.39732 | 152° | 13km/h | 29203m | 5.9m/s | -45.4°C | 2.9% | 13.8hPa | 2.6V | 00:00:00 | 00:00:00 | 00:00:00 | |
| DL1XH1-15 | 2026-09-04 01:19:53 | 50.15241 | 11.39716 | 203° | 15km/h | 29161m | 5.4m/s | -45.5°C | 3% | 13.9hPa | 2.6V | 08:30:00 | 01:45:13 | 00:00:00 | |
| SO1NDE-10 | 2026-09-04 01:19:53 | 50.15230 | 11.39724 | 121° | 15km/h | 29190m | 5.9m/s | -45.4°C | 2.9% | 13.8hPa | 2.6V | 00:00:00 | 01:45:18 | 00:00:00 | |
| DL1NUX | 2026-09-04 01:19:52 | 50.15244 | 11.39719 | 219° | 13km/h | 29155m | 6.3m/s | -45.5°C | 3% | 13.9hPa | 2.6V | 08:30:00 | 01:45:12 | 00:00:00 | |
| PETON7-10 | 2026-09-04 01:19:52 | 50.15232 | 11.39720 | 118° | 13km/h | 29185m | 4.8m/s | -45.4°C | 3.0% | 13.8hPa | 2.5V | 00:00:00 | 00:00:00 | 00:00:00 | |
| DL1XH-15 | 2026-09-04 01:19:51 | 50.15246 | 11.39722 | 235° | 13km/h | 29149m | 6.7m/s | -45.5°C | 3% | 14hPa | 2.5V | 08:30:00 | 01:45:11 | 00:00:00 | |
| AA1-15 | 2026-09-04 01:19:51 | 50.15233 | 11.39717 | 135° | 9km/h | 29179m | 5.4m/s | -45.4°C | 0% | 13.9hPa | 2.5V | 18:12:15 | 01:45:16 | 00:00:00 | |
| HSKMA3-T | 2026-09-04 01:19:50 | 50.15235 | 11.39715 | 159° | 11km/h | 29173m | 6.9m/s | -45.5°C | 0% | 13.9hPa | 2.5V | 18:12:15 | 01:45:15 | 00:00:00 | |
| DF8AY | 2026-09-04 01:19:48 | 50.15244 | 11.39719 | 220° | 13km/h | 29155m | 6.3m/s | -45.5°C | 0% | 14hPa | 2.6V | 18:12:15 | 01:45:12 | 00:00:00 | |
| DL1XH-west | 2026-09-04 01:19:46 | 50.15246 | 11.39722 | 235° | 13km/h | 29149m | 6.7m/s | -45.5°C | 0% | 14hPa | 2.5V | 18:12:15 | 01:45:11 | 00:00:00 | |
| DM0DOS-11 | 2026-09-04 01:19:45 | 50.15260 | 11.39724 | 139° | 20km/h | 29114m | 5.7m/s | -45.4°C | 2.9% | 14hPa | 2.6V | 08:30:00 | 01:45:05 | 00:00:00 | |
| BIOWL1-15 | 2026-09-04 01:19:44 | 50.15249 | 11.39729 | 235° | 7km/h | 29138m | 4.5m/s | -45.5°C | 0% | 14hPa | 2.5V | 18:12:15 | 01:45:09 | 00:00:00 | |
| DL1XH1-15 | 2026-09-04 01:19:43 | 50.15266 | 11.39713 | 128° | 18km/h | 29101m | 5.9m/s | -45.4°C | 3% | 14.1hPa | 2.5V | 08:30:00 | 01:45:03 | 00:00:00 | |
| DL1NUX | 2026-09-04 01:19:42 | 50.15269 | 11.39708 | 133° | 15km/h | 29096m | 4.7m/s | -45.4°C | 3% | 14.1hPa | 2.5V | 08:30:00 | 01:45:02 | 00:00:00 | |
| DD8BA-10 | 2026-09-04 01:19:42 | 50.15252 | 11.39731 | 164° | 16km/h | 29127m | 6.9m/s | -45.4°C | 3.0% | 14.0hPa | 2.6V | 00:00:00 | 00:00:00 | 08:30:00 | |
| DL1XH-15 | 2026-09-04 01:19:41 | 50.15272 | 11.39704 | 149° | 13km/h | 29091m | 5m/s | -45.4°C | 2.9% | 14.1hPa | 2.5V | 08:30:00 | 01:45:01 | 00:00:00 | |
| AA1-15 | 2026-09-04 01:19:41 | 50.15256 | 11.39728 | 149° | 16km/h | 29120m | 6.5m/s | -45.5°C | 0% | 14.1hPa | 2.6V | 18:12:15 | 01:45:06 | 00:00:00 | |
| HSKMA3-T | 2026-09-04 01:19:39 | 50.15263 | 11.39718 | 134° | 20km/h | 29107m | 6.7m/s | -45.4°C | 0% | 14.1hPa | 2.5V | 18:12:15 | 01:45:04 | 00:00:00 | |
| DF8AY | 2026-09-04 01:19:36 | 50.15272 | 11.39704 | 149° | 13km/h | 29091m | 5m/s | -45.4°C | 0% | 14.1hPa | 2.5V | 18:12:15 | 01:45:01 | 00:00:00 | |
| DL1XH-west | 2026-09-04 01:19:35 | 50.15275 | 11.39702 | 169° | 15km/h | 29085m | 6.9m/s | -45.4°C | 0% | 14.1hPa | 2.6V | 18:12:15 | 01:45:00 | 00:00:00 | |
| BIOWL1-15 | 2026-09-04 01:19:33 | 50.15288 | 11.39721 | 339° | 7km/h | 29051m | 5.5m/s | -45.4°C | 0% | 14.2hPa | 2.6V | 18:12:15 | 01:44:54 | 00:00:00 | |
| DL1XH1-15 | 2026-09-04 01:19:33 | 50.15286 | 11.39720 | 44° | 9km/h | 29046m | 4.9m/s | -45.4°C | 2.9% | 14.2hPa | 2.5V | 08:30:00 | 01:44:53 | 00:00:00 | |
| DL1NUX | 2026-09-04 01:19:32 | 50.15285 | 11.39716 | 80° | 13km/h | 29040m | 5.9m/s | -45.4°C | 2.9% | 14.2hPa | 2.5V | 08:30:00 | 01:44:52 | 00:00:00 | |
| DD8BA-10 | 2026-09-04 01:19:32 | 50.15286 | 11.39709 | 229° | 15km/h | 29068m | 4.2m/s | -45.4°C | 2.9% | 14.1hPa | 2.5V | 00:00:00 | 00:00:00 | 00:00:00 | |
| DL1XH-15 | 2026-09-04 01:19:31 | 50.15285 | 11.39710 | 104° | 18km/h | 29034m | 6.6m/s | -45.5°C | 2.9% | 14.2hPa | 2.5V | 08:30:00 | 01:44:51 | 00:00:00 | |
| HSKMA3-T | 2026-09-04 01:19:28 | 50.15286 | 11.39720 | 45° | 9km/h | 29046m | 4.9m/s | -45.4°C | 0% | 14.2hPa | 2.5V | 18:12:15 | 01:44:53 | 00:00:00 | |
| AA1-15 | 2026-09-04 01:19:26 | 50.15286 | 11.39710 | 105° | 18km/h | 29034m | 6.6m/s | -45.5°C | 0% | 14.2hPa | 2.5V | 18:12:15 | 01:44:51 | 00:00:00 | |
| DM0DOS-11 | 2026-09-04 01:19:25 | 50.15306 | 11.39692 | 233° | 9km/h | 28999m | 5.9m/s | -45.7°C | 2.9% | 14.3hPa | 2.6V | 08:30:00 | 01:44:45 | 00:00:00 | |
| DL1XH-west | 2026-09-04 01:19:25 | 50.15288 | 11.39703 | 124° | 22km/h | 29028m | 5.7m/s | -45.5°C | 0% | 14.2hPa | 2.6V | 18:12:15 | 01:44:50 | 00:00:00 | |
| OE5DXL-15 | 2026-09-04 01:19:25 | 50.15288 | 11.39703 | 125° | 11km/h | 29028m | 5.7m/s | -45.4°C | 2.9% | 14.2hPa | 2.6V | 00:00:00 | 00:00:00 | 08:30:00 | |
| DL1XH1-15 | 2026-09-04 01:19:23 | 50.15307 | 11.39698 | 271° | 7km/h | 28989m | 5m/s | -45.7°C | 3% | 14.3hPa | 2.5V | 08:30:00 | 01:44:43 | 00:00:00 | |
| SO1NDE-10 | 2026-09-04 01:19:23 | 50.15296 | 11.39692 | 154° | 11km/h | 29018m | 5.3m/s | -45.5°C | 2.9% | 14.2hPa | 2.5V | 00:00:00 | 01:44:48 | 00:00:00 | |
| DL1NUX | 2026-09-04 01:19:22 | 50.15308 | 11.39700 | 246° | 4km/h | 28983m | 5.9m/s | -45.8°C | 3% | 14.3hPa | 2.5V | 08:30:00 | 01:44:42 | 00:00:00 | |
| PETON7-10 | 2026-09-04 01:19:22 | 50.15301 | 11.39689 | 170° | 9km/h | 29012m | 6.3m/s | -45.6°C | 2.9% | 14.2hPa | 2.5V | 00:00:00 | 00:00:00 | 00:00:00 | |
| DL1XH-15 | 2026-09-04 01:19:21 | 50.15308 | 11.39700 | 147° | 5km/h | 28977m | 6.1m/s | -45.8°C | 3% | 14.3hPa | 2.5V | 08:30:00 | 01:44:41 | 00:00:00 | |
| BIOWL1-15 | 2026-09-04 01:19:21 | 50.15307 | 11.39695 | 261° | 9km/h | 28993m | 4.9m/s | -45.7°C | 0% | 14.3hPa | 2.6V | 18:12:15 | 01:44:44 | 00:00:00 | |
| HSKMA3-T | 2026-09-04 01:19:18 | 50.15308 | 11.39700 | 247° | 4km/h | 28983m | 5.9m/s | -45.8°C | 0% | 14.3hPa | 2.5V | 18:12:15 | 01:44:42 | 00:00:00 | |
| AA1-15 | 2026-09-04 01:19:16 | 50.15308 | 11.39700 | 148° | 5km/h | 28977m | 6.1m/s | -45.8°C | 0% | 14.3hPa | 2.5V | 18:12:15 | 01:44:41 | 00:00:00 | |
| DF8AY | 2026-09-04 01:19:15 | 50.15310 | 11.39698 | 136° | 11km/h | 28971m | 5.9m/s | -45.9°C | 0% | 14.4hPa | 2.6V | 18:12:15 | 01:44:40 | 00:00:00 | |
| DL1XH-west | 2026-09-04 01:19:14 | 50.15312 | 11.39694 | 136° | 15km/h | 28965m | 5.4m/s | -45.9°C | 0% | 14.4hPa | 2.6V | 18:12:15 | 01:44:39 | 00:00:00 | |
| D01LWL | 2026-09-04 01:19:13 | 50.15315 | 11.39690 | 133° | 13km/h | 28960m | 5.2m/s | -45.9°C | 0.7% | 14.4hPa | 2.5V | 00:00:00 | 00:00:00 | 00:00:00 | |
| DL1NUX | 2026-09-04 01:19:12 | 50.15321 | 11.39677 | 124° | 7km/h | 28923m | 6.4m/s | -45.9°C | 3% | 14.5hPa | 2.5V | 08:30:00 | 01:44:32 | 00:00:00 | |
| DL1XH-15 | 2026-09-04 01:19:11 | 50.15322 | 11.39675 | 131° | 7km/h | 28917m | 5.7m/s | -45.9°C | 3% | 14.5hPa | 2.5V | 08:30:00 | 01:44:31 | 00:00:00 | |
| BIOWL1-15 | 2026-09-04 01:19:09 | 50.15320 | 11.39681 | 115° | 4km/h | 28936m | 5.3m/s | -45.9°C | 0% | 14.4hPa | 2.6V | 18:12:15 | 01:44:34 | 00:00:00 | |
| HSKMA3-T | 2026-09-04 01:19:07 | 50.15321 | 11.39677 | 125° | 7km/h | 28923m | 6.4m/s | -45.9°C | 0% | 14.5hPa | 2.5V | 18:12:15 | 01:44:32 | 00:00:00 | |
| AA1-15 | 2026-09-04 01:19:05 | 50.15324 | 11.39673 | 143° | 7km/h | 28911m | 6m/s | -45.9°C | 0% | 14.5hPa | 2.6V | 18:12:15 | 01:44:30 | 00:00:00 | |
| DL1XH-west | 2026-09-04 01:19:03 | 50.15327 | 11.39671 | 169° | 7km/h | 28899m | 5.7m/s | -45.8°C | 0% | 14.5hPa | 2.5V | 18:12:15 | 01:44:28 | 00:00:00 | |
| DL1NUX | 2026-09-04 01:19:02 | 50.15340 | 11.39643 | 109° | 16km/h | 28863m | 6.6m/s | -45.9°C | 3% | 14.6hPa | 2.5V | 08:30:00 | 01:44:22 | 00:00:00 | |
| DL1XH-15 | 2026-09-04 01:19:01 | 50.15341 | 11.39638 | 97° | 13km/h | 28856m | 6.5m/s | -45.9°C | 3% | 14.6hPa | 2.5V | 08:30:00 | 01:44:21 | 00:00:00 | |
| BIOWL1-15 | 2026-09-04 01:19:00 | 50.15338 | 11.39650 | 114° | 20km/h | 28869m | 5.4m/s | -45.8°C | 0% | 14.6hPa | 2.5V | 18:12:15 | 01:44:23 | 00:00:00 | |
| OE5MMP-10 | 2026-09-04 01:19:00 | 50.15333 | 11.39663 | 128° | 13km/h | 28882m | 7.0m/s | -45.8°C | 3.0% | 14.5hPa | 2.6V | 00:00:00 | 01:44:25 | 00:00:00 | |
| DD8BA-10 | 2026-09-04 01:18:59 | 50.15336 | 11.39657 | 120° | 9km/h | 28875m | 5.9m/s | -45.8°C | 3.0% | 14.5hPa | 2.6V | 00:00:00 | 00:00:00 | 00:00:00 | |
| DM0DOS-11 | 2026-09-04 01:18:57 | 50.15341 | 11.39633 | 78° | 9km/h | 28850m | 5.9m/s | -45.9°C | 3% | 14.6hPa | 2.6V | 08:30:00 | 01:44:20 | 00:00:00 | |
| HSKMA3-T | 2026-09-04 01:18:57 | 50.15340 | 11.39643 | 110° | 16km/h | 28863m | 6.6m/s | -45.9°C | 0% | 14.6hPa | 2.5V | 18:12:15 | 01:44:22 | 00:00:00 | |
| DF8AY | 2026-09-04 01:18:54 | 50.15340 | 11.39630 | 65° | 9km/h | 28844m | 5.9m/s | -45.9°C | 0% | 14.7hPa | 2.6V | 18:12:15 | 01:44:19 | 00:00:00 | |
| SO1NDE-10 | 2026-09-04 01:18:53 | 50.15339 | 11.39627 | 64° | 11km/h | 28838m | 6.8m/s | -45.9°C | 3.0% | 14.6hPa | 2.5V | 00:00:00 | 01:44:18 | 08:30:00 | |
| DL1NUX | 2026-09-04 01:18:52 | 50.15344 | 11.39620 | 167° | 13km/h | 28802m | 5.2m/s | -46.1°C | 3% | 14.7hPa | 2.5V | 08:30:00 | 01:44:12 | 00:00:00 | |
| DL1XH-west | 2026-09-04 01:18:52 | 50.15338 | 11.39624 | 72° | 9km/h | 28831m | 5.5m/s | -46°C | 0% | 14.7hPa | 2.5V | 18:12:15 | 01:44:17 | 00:00:00 | |
| PETON7-10 | 2026-09-04 01:18:52 | 50.15338 | 11.39623 | 72° | 11km/h | 28832m | 5.4m/s | -45.9°C | 3.0% | 14.6hPa | 2.5V | 00:00:00 | 01:44:17 | 00:00:00 | |
| DL1XH-15 | 2026-09-04 01:18:51 | 50.15347 | 11.39617 | 150° | 16km/h | 28796m | 7.1m/s | -46.1°C | 3% | 14.8hPa | 2.5V | 08:30:00 | 01:44:11 | 00:00:00 | |
| BIOWL1-15 | 2026-09-04 01:18:48 | 50.15341 | 11.39620 | 187° | 9km/h | 28807m | 5.1m/s | -46.1°C | 0% | 14.7hPa | 2.5V | 18:12:15 | 01:44:13 | 00:00:00 | |
| HSKMA3-T | 2026-09-04 01:18:46 | 50.15347 | 11.39617 | 151° | 16km/h | 28796m | 7.1m/s | -46.1°C | 0% | 14.8hPa | 2.5V | 18:12:15 | 01:44:11 | 00:00:00 | |
| DF8AY | 2026-09-04 01:18:44 | 50.15354 | 11.39607 | 128° | 20km/h | 28784m | 5.3m/s | -46.2°C | 0% | 14.8hPa | 2.6V | 18:12:15 | 01:44:09 | 00:00:00 | |
| DL1NUX | 2026-09-04 01:18:42 | 50.15355 | 11.39580 | 58° | 11km/h | 28742m | 5.4m/s | -46.1°C | 3.1% | 14.9hPa | 2.6V | 08:30:00 | 01:44:02 | 00:00:00 | |
| DL1XH-west | 2026-09-04 01:18:42 | 50.15359 | 11.39595 | 113° | 13km/h | 28772m | 6.6m/s | -46.2°C | 0% | 14.8hPa | 2.6V | 18:12:15 | 01:44:07 | 00:00:00 | |
| DL1XH-15 | 2026-09-04 01:18:41 | 50.15353 | 11.39577 | 61° | 9km/h | 28737m | 5m/s | -46.1°C | 3.1% | 14.9hPa | 2.6V | 08:30:00 | 01:44:01 | 00:00:00 | |
| BIOWL1-15 | 2026-09-04 01:18:38 | 50.15356 | 11.39584 | 51° | 11km/h | 28748m | 6.6m/s | -46.1°C | 0% | 14.9hPa | 2.5V | 18:12:15 | 01:44:03 | 00:00:00 | |
| HSKMA3-T | 2026-09-04 01:18:36 | 50.15353 | 11.39577 | 62° | 9km/h | 28737m | 5m/s | -46.1°C | 0% | 14.9hPa | 2.6V | 18:12:15 | 01:44:01 | 00:00:00 | |
| DF8AY | 2026-09-04 01:18:34 | 50.15352 | 11.39572 | 74° | 4km/h | 28724m | 6.4m/s | -46°C | 0% | 14.9hPa | 2.5V | 18:12:15 | 01:43:59 | 00:00:00 | |
| DL1XH1-15 | 2026-09-04 01:18:33 | 50.15351 | 11.39552 | 59° | 9km/h | 28689m | 6.6m/s | -45.7°C | 3% | 15hPa | 2.5V | 08:30:00 | 01:43:53 | 00:00:00 | |
| DL1XH-west | 2026-09-04 01:18:32 | 50.15352 | 11.39568 | 102° | 7km/h | 28713m | 5.6m/s | -45.9°C | 0% | 14.9hPa | 2.6V | 18:12:15 | 01:43:57 | 00:00:00 | |
| DF2AP-13 | 2026-09-04 01:18:32 | 50.15352 | 11.39568 | 103° | 9km/h | 28713m | 5.6m/s | -45.8°C | 3.0% | 14.9hPa | 2.6V | 00:00:00 | 01:43:57 | 00:00:00 | |
| DL1XH-15 | 2026-09-04 01:18:31 | 50.15347 | 11.39549 | 358° | 11km/h | 28677m | 4.9m/s | -45.7°C | 3% | 15hPa | 2.6V | 08:30:00 | 01:43:51 | 00:00:00 | |
| DB0UT-7 | 2026-09-04 01:18:31 | 50.15352 | 11.39565 | 99° | 7km/h | 28707m | 7.0m/s | -45.8°C | 3.0% | 14.9hPa | 2.6V | 00:00:00 | 00:00:00 | 08:30:00 | |
| DM0DOS-11 | 2026-09-04 01:18:30 | 50.15344 | 11.39549 | 355° | 13km/h | 28672m | 4.8m/s | -45.7°C | 3% | 15.1hPa | 2.5V | 08:30:00 | 01:43:50 | 00:00:00 | |
| AA1-15 | 2026-09-04 01:18:29 | 50.15352 | 11.39556 | 79° | 11km/h | 28695m | 4.9m/s | -45.8°C | 0% | 15hPa | 2.5V | 18:12:15 | 01:43:54 | 00:00:00 | |
| HSKMA3-T | 2026-09-04 01:18:26 | 50.15347 | 11.39549 | 358° | 11km/h | 28677m | 4.9m/s | -45.7°C | 0% | 15hPa | 2.6V | 18:12:15 | 01:43:51 | 00:00:00 | |
| DF8AY | 2026-09-04 01:18:24 | 50.15341 | 11.39549 | 4° | 15km/h | 28667m | 6.4m/s | -45.6°C | 0% | 15.1hPa | 2.5V | 18:12:15 | 01:43:49 | 00:00:00 | |
| DL1XH1-15 | 2026-09-04 01:18:23 | 50.15331 | 11.39541 | 257° | 5km/h | 28631m | 6.4m/s | -45.8°C | 3% | 15.1hPa | 2.5V | 08:30:00 | 01:43:43 | 00:00:00 | |
| SO1NDE-10 | 2026-09-04 01:18:23 | 50.15338 | 11.39548 | 19° | 7km/h | 28661m | 6.3m/s | -45.6°C | 2.9% | 15.0hPa | 2.6V | 00:00:00 | 01:43:48 | 00:00:00 | |
| DL1NUX | 2026-09-04 01:18:22 | 50.15331 | 11.39543 | 250° | 7km/h | 28625m | 5.3m/s | -45.8°C | 3% | 15.1hPa | 2.6V | 08:30:00 | 01:43:42 | 00:00:00 | |
| DL1XH-west | 2026-09-04 01:18:22 | 50.15335 | 11.39546 | 34° | 11km/h | 28655m | 5.4m/s | -45.6°C | 0% | 15.1hPa | 2.6V | 18:12:15 | 01:43:47 | 00:00:00 | |
| AA1-15 | 2026-09-04 01:18:19 | 50.15331 | 11.39540 | 18° | 2km/h | 28638m | 6.9m/s | -45.7°C | 0% | 15.1hPa | 2.5V | 18:12:15 | 01:43:44 | 00:00:00 | |
| DJ8HS-15 | 2026-09-04 01:18:19 | 50.15331 | 11.39540 | 18° | 9km/h | 28638m | 6.9m/s | -45.7°C | 2.9% | 15.1hPa | 2.5V | 00:00:00 | 01:43:44 | 00:00:00 | |
| DM0DOS-11 | 2026-09-04 01:18:17 | 50.15332 | 11.39546 | 201° | 2km/h | 28614m | 6.5m/s | -45.8°C | 3% | 15.2hPa | 2.5V | 08:30:00 | 01:43:40 | 00:00:00 | |
| BIOWL1-15 | 2026-09-04 01:18:17 | 50.15331 | 11.39543 | 251° | 7km/h | 28625m | 5.3m/s | -45.8°C | 0% | 15.1hPa | 2.6V | 18:12:15 | 01:43:42 | 00:00:00 | |
| HSKMA3-T | 2026-09-04 01:18:15 | 50.15333 | 11.39546 | 201° | 2km/h | 28614m | 6.5m/s | -45.8°C | 0% | 15.2hPa | 2.5V | 18:12:15 | 01:43:40 | 00:00:00 | |
| EDDB2-12 | 2026-09-04 01:18:14 | 50.15332 | 11.39545 | 39° | 5km/h | 28603m | 5.4m/s | -45.9°C | 0.7% | 15.2hPa | 2.6V | 00:00:00 | 00:00:00 | 00:00:00 | |
| DL1NUX | 2026-09-04 01:18:12 | 50.15314 | 11.39547 | 359° | 13km/h | 28567m | 6.4m/s | -45.8°C | 2.9% | 15.3hPa | 2.6V | 08:30:00 | 01:43:32 | 00:00:00 | |
| DL1XH-west | 2026-09-04 01:18:11 | 50.15328 | 11.39543 | 358° | 13km/h | 28590m | 6.7m/s | -45.8°C | 0% | 15.2hPa | 2.6V | 18:12:15 | 01:43:36 | 00:00:00 | |
| AA1-15 | 2026-09-04 01:18:07 | 50.15314 | 11.39547 | 360° | 13km/h | 28567m | 6.4m/s | -45.8°C | 0% | 15.3hPa | 2.6V | 18:12:15 | 01:43:32 | 00:00:00 | |
| DM0DOS-11 | 2026-09-04 01:18:07 | 50.15308 | 11.39546 | 358° | 9km/h | 28556m | 5.3m/s | -45.8°C | 2.9% | 15.3hPa | 2.5V | 08:30:00 | 01:43:30 | 00:00:00 | |
| HSKMA3-T | 2026-09-04 01:18:04 | 50.15306 | 11.39547 | 337° | 9km/h | 28550m | 6.5m/s | -45.8°C | 0% | 15.3hPa | 2.5V | 18:12:15 | 01:43:29 | 00:00:00 | |
| DF8AY | 2026-09-04 01:18:03 | 50.15304 | 11.39549 | 310° | 11km/h | 28544m | 6.2m/s | -45.9°C | 0% | 15.3hPa | 2.5V | 18:12:15 | 01:43:28 | 00:00:00 | |
| DL1NUX | 2026-09-04 01:18:02 | 50.15303 | 11.39563 | 347° | 2km/h | 28510m | 5.9m/s | -46.1°C | 3% | 15.4hPa | 2.5V | 08:30:00 | 01:43:22 | 00:00:00 | |
| DL1XH-west | 2026-09-04 01:18:00 | 50.15302 | 11.39560 | 265° | 7km/h | 28528m | 6.6m/s | -46°C | 0% | 15.4hPa | 2.5V | 18:12:15 | 01:43:25 | 00:00:00 | |
| AA1-15 | 2026-09-04 01:17:57 | 50.15303 | 11.39563 | 348° | 2km/h | 28510m | 5.9m/s | -46.1°C | 0% | 15.4hPa | 2.5V | 18:12:15 | 01:43:22 | 00:00:00 | |
| DM0DOS-11 | 2026-09-04 01:17:57 | 50.15300 | 11.39563 | 356° | 9km/h | 28498m | 5.2m/s | -46.2°C | 3% | 15.4hPa | 2.6V | 08:30:00 | 01:43:20 | 00:00:00 | |
| HSKMA3-T | 2026-09-04 01:17:53 | 50.15294 | 11.39562 | 23° | 11km/h | 28488m | 6.1m/s | -46.3°C | 0% | 15.5hPa | 2.5V | 18:12:15 | 01:43:18 | 00:00:00 | |
| DF8AY | 2026-09-04 01:17:52 | 50.15292 | 11.39560 | 46° | 9km/h | 28481m | 6.3m/s | -46.3°C | 0% | 15.5hPa | 2.5V | 18:12:15 | 01:43:17 | 00:00:00 | |
| DL1NUX | 2026-09-04 01:17:52 | 50.15290 | 11.39556 | 294° | 7km/h | 28454m | 6m/s | -46.4°C | 3.1% | 15.6hPa | 2.5V | 08:30:00 | 01:43:12 | 00:00:00 | |
| PETON7-10 | 2026-09-04 01:17:52 | 50.15292 | 11.39560 | 46° | 5km/h | 28482m | 6.3m/s | -46.2°C | 3.0% | 15.4hPa | 2.5V | 00:00:00 | 00:00:00 | 00:00:00 | |
| DL1XH-15 | 2026-09-04 01:17:51 | 50.15289 | 11.39559 | 298° | 9km/h | 28449m | 5.3m/s | -46.5°C | 3.1% | 15.6hPa | 2.5V | 08:30:00 | 01:43:11 | 00:00:00 | |
| DL1XH-west | 2026-09-04 01:17:50 | 50.15291 | 11.39554 | 91° | 5km/h | 28471m | 4m/s | -46.3°C | 0% | 15.5hPa | 2.5V | 18:12:15 | 01:43:15 | 00:00:00 | |
| SONCRA | 2026-09-04 01:17:49 | 50.15291 | 11.39554 | 291° | 2km/h | 28461m | 6.6m/s | -46.4°C | 0.7% | 15.6hPa | 2.6V | 00:00:00 | 00:00:00 | 00:00:00 | |
| DL6DJ-15 | 2026-09-04 01:17:46 | 50.15288 | 11.39562 | 301° | 7km/h | 28443m | 6.1m/s | -46.5°C | 0.7% | 15.6hPa | 2.6V | 00:00:00 | 00:00:00 | 00:00:00 | |
| HSKMA3-T | 2026-09-04 01:17:43 | 50.15287 | 11.39565 | 347° | 4km/h | 28431m | 5.4m/s | -46.6°C | 0% | 15.6hPa | 2.6V | 18:12:15 | 01:43:08 | 00:00:00 | |
| BIOWL1-15 | 2026-09-04 01:17:43 | 50.15281 | 11.39570 | 315° | 5km/h | 28404m | 4.9m/s | -46.6°C | 0% | 15.7hPa | 2.6V | 18:12:15 | 01:43:03 | 00:00:00 | |
| DF8AY | 2026-09-04 01:17:42 | 50.15286 | 11.39565 | 0° | 4km/h | 28426m | 4.5m/s | -46.6°C | 0% | 15.6hPa | 2.5V | 18:12:15 | 01:43:07 | 00:00:00 | |
| DL1NUX | 2026-09-04 01:17:42 | 50.15280 | 11.39571 | 313° | 4km/h | 28398m | 6.6m/s | -46.6°C | 3.1% | 15.7hPa | 2.5V | 08:30:00 | 01:43:02 | 00:00:00 | |
| DL1XH-15 | 2026-09-04 01:17:41 | 50.15280 | 11.39572 | 287° | 0km/h | 28392m | 5.7m/s | -46.6°C | 3.1% | 15.7hPa | 2.5V | 08:30:00 | 01:43:01 | 00:00:00 | |
| DL1XH-west | 2026-09-04 01:17:40 | 50.15284 | 11.39566 | 328° | 7km/h | 28414m | 6.3m/s | -46.6°C | 0% | 15.7hPa | 2.5V | 18:12:15 | 01:43:05 | 00:00:00 | |
| OE5MMP-10 | 2026-09-04 01:17:40 | 50.15284 | 11.39566 | 328° | 5km/h | 28415m | 6.2m/s | -46.5°C | 3.1% | 15.6hPa | 2.5V | 00:00:00 | 01:43:05 | 00:00:00 | |
| DJ8HS-15 | 2026-09-04 01:17:39 | 50.15282 | 11.39568 | 315° | 5km/h | 28409m | 5.1m/s | -46.5°C | 3.1% | 15.6hPa | 2.5V | 00:00:00 | 01:43:04 | 00:00:00 | |
| DM0DOS-11 | 2026-09-04 01:17:37 | 50.15280 | 11.39572 | 241° | 2km/h | 28386m | 4.8m/s | -46.6°C | 3.1% | 15.7hPa | 2.5V | 08:30:00 | 01:43:00 | 00:00:00 | |
| HSKMA3-T | 2026-09-04 01:17:33 | 50.15281 | 11.39576 | 269° | 9km/h | 28375m | 6.6m/s | -46.6°C | 0% | 15.8hPa | 2.6V | 18:12:15 | 01:42:58 | 00:00:00 | |
| DF8AY | 2026-09-04 01:17:32 | 50.15280 | 11.39580 | 277° | 11km/h | 28369m | 5.8m/s | -46.6°C | 0% | 15.8hPa | 2.5V | 18:12:15 | 01:42:57 | 00:00:00 | |
| DF2AP-13 | 2026-09-04 01:17:32 | 50.15280 | 11.39580 | 278° | 9km/h | 28369m | 5.7m/s | -46.6°C | 3.2% | 15.7hPa | 2.5V | 00:00:00 | 01:42:57 | 08:30:00 | |
| DL1XH-15 | 2026-09-04 01:17:31 | 50.15276 | 11.39591 | 280° | 2km/h | 28335m | 6.1m/s | -46.5°C | 3.1% | 15.8hPa | 2.5V | 08:30:00 | 01:42:51 | 00:00:00 | |
| DO3MHA-11 | 2026-09-04 01:17:31 | 50.15280 | 11.39584 | 285° | 5km/h | 28364m | 4.7m/s | -46.6°C | 3.1% | 15.7hPa | 2.5V | 00:00:00 | 01:42:56 | 00:00:00 | |
| DM0DOS-11 | 2026-09-04 01:17:30 | 50.15277 | 11.39592 | 230° | 4km/h | 28329m | 5.4m/s | -46.5°C | 3.1% | 15.9hPa | 2.5V | 08:30:00 | 01:42:50 | 00:00:00 | |
| BIOWL1-15 | 2026-09-04 01:17:29 | 50.15278 | 11.39589 | 324° | 4km/h | 28352m | 5.7m/s | -46.6°C | 0% | 15.8hPa | 2.6V | 18:12:15 | 01:42:54 | 00:00:00 | |
| HSKMA3-T | 2026-09-04 01:17:23 | 50.15279 | 11.39593 | 173° | 7km/h | 28317m | 6.8m/s | -46.5°C | 0% | 15.9hPa | 2.6V | 18:12:15 | 01:42:48 | 00:00:00 | |
| DF8AY | 2026-09-04 01:17:22 | 50.15282 | 11.39592 | 163° | 9km/h | 28311m | 5.7m/s | -46.5°C | 0% | 15.9hPa | 2.5V | 18:12:15 | 01:42:47 | 00:00:00 | |
| PETON7-10 | 2026-09-04 01:17:22 | 50.15282 | 11.39592 | 164° | 7km/h | 28311m | 5.6m/s | -46.5°C | 3.1% | 15.8hPa | 2.6V | 00:00:00 | 01:42:47 | 00:00:00 | |
| DL1XH-15 | 2026-09-04 01:17:21 | 50.15289 | 11.39604 | 303° | 7km/h | 28278m | 6.6m/s | -46.6°C | 3.1% | 16hPa | 2.6V | 08:30:00 | 01:42:41 | 00:00:00 | |
| DO3MHA-11 | 2026-09-04 01:17:21 | 50.15284 | 11.39592 | 174° | 7km/h | 28306m | 4.0m/s | -46.5°C | 3.1% | 15.8hPa | 2.5V | 00:00:00 | 01:42:46 | 00:00:00 | |
| DM0DOS-11 | 2026-09-04 01:17:20 | 50.15287 | 11.39606 | 344° | 7km/h | 28271m | 5.8m/s | -46.7°C | 3.1% | 16hPa | 2.5V | 08:30:00 | 01:42:40 | 00:00:00 | |
| DL1XH-west | 2026-09-04 01:17:18 | 50.15289 | 11.39598 | 256° | 11km/h | 28289m | 5.4m/s | -46.6°C | 0% | 15.9hPa | 2.6V | 18:12:15 | 01:42:43 | 00:00:00 | |
| AA1-15 | 2026-09-04 01:17:13 | 50.15284 | 11.39606 | 13° | 7km/h | 28260m | 5.9m/s | -46.7°C | 0% | 16hPa | 2.5V | 18:12:15 | 01:42:38 | 00:00:00 | |
| DL1XH1-15 | 2026-09-04 01:17:13 | 50.15284 | 11.39597 | 120° | 13km/h | 28233m | 6.6m/s | -46.8°C | 3.1% | 16.1hPa | 2.5V | 08:30:00 | 01:42:33 | 00:00:00 | |
| HSKMA3-T | 2026-09-04 01:17:12 | 50.15283 | 11.39605 | 16° | 5km/h | 28255m | 5.7m/s | -46.8°C | 0% | 16hPa | 2.5V | 18:12:15 | 01:42:37 | 00:00:00 | |
| DF8AY | 2026-09-04 01:17:11 | 50.15282 | 11.39605 | 48° | 2km/h | 28249m | 4.8m/s | -46.8°C | 0% | 16hPa | 2.6V | 18:12:15 | 01:42:36 | 00:00:00 | |
| DM0DOS-11 | 2026-09-04 01:17:10 | 50.15293 | 11.39584 | 157° | 16km/h | 28216m | 6.5m/s | -46.8°C | 3.1% | 16.1hPa | 2.6V | 08:30:00 | 01:42:30 | 00:00:00 | |
| BIOWL1-15 | 2026-09-04 01:17:07 | 50.15286 | 11.39592 | 131° | 16km/h | 28227m | 5.2m/s | -46.8°C | 0% | 16.1hPa | 2.5V | 18:12:15 | 01:42:32 | 00:00:00 | |
| PETON7-10 | 2026-09-04 01:17:07 | 50.15286 | 11.39592 | 131° | 13km/h | 28228m | 5.1m/s | -46.8°C | 3.1% | 16.1hPa | 2.5V | 00:00:00 | 00:00:00 | 00:00:00 | |
| DD8BA-10 | 2026-09-04 01:17:05 | 50.15293 | 11.39584 | 158° | 13km/h | 28217m | 6.5m/s | -46.8°C | 3.1% | 16.1hPa | 2.6V | 00:00:00 | 00:00:00 | 00:00:00 | |
| DF7PN | 2026-09-04 01:17:03 | 50.15303 | 11.39585 | 204° | 7km/h | 28201m | 4.2m/s | -46.9°C | 0.7% | 16.2hPa | 2.5V | 00:00:00 | 00:00:00 | 00:00:00 | |
| DL1XH1-15 | 2026-09-04 01:17:02 | 50.15301 | 11.39576 | 59° | 16km/h | 28178m | 4.4m/s | -47°C | 3.1% | 16.2hPa | 2.5V | 08:30:00 | 01:42:23 | 00:00:00 | |
| DL1NUX | 2026-09-04 01:17:02 | 50.15299 | 11.39571 | 60° | 16km/h | 28173m | 5.9m/s | -47.1°C | 3.1% | 16.2hPa | 2.5V | 08:30:00 | 01:42:22 | 00:00:00 | |
| AA1-15 | 2026-09-04 01:17:02 | 50.15303 | 11.39585 | 204° | 9km/h | 28201m | 4.2m/s | -46.9°C | 0% | 16.2hPa | 2.5V | 18:12:15 | 01:42:27 | 00:00:00 | |
| HSKMA3-T | 2026-09-04 01:17:01 | 50.15304 | 11.39586 | 188° | 4km/h | 28196m | 5.7m/s | -47°C | 0% | 16.2hPa | 2.6V | 18:12:15 | 01:42:26 | 00:00:00 | |
| BIOWL9-15 | 2026-09-04 01:16:58 | 50.15301 | 11.39576 | 59° | 16km/h | 28178m | 4.4m/s | -47.1°C | 0.7% | 16.2hPa | 2.6V | 00:00:00 | 00:00:00 | 00:00:00 | |
| DJTTGO | 2026-09-04 01:16:57 | 50.15299 | 11.39571 | 62° | 16km/h | 28174m | 5.9m/s | -47.1°C | 0.7% | 16.2hPa | 2.6V | 00:00:00 | 00:00:00 | 00:00:00 | |
| DM0DOS-11 | 2026-09-04 01:16:56 | 50.15297 | 11.39561 | 80° | 9km/h | 28161m | 5.1m/s | -47.1°C | 3.2% | 16.3hPa | 2.6V | 08:30:00 | 01:42:20 | 00:00:00 | |
| BIOWL1-15 | 2026-09-04 01:16:56 | 50.15298 | 11.39566 | 67° | 13km/h | 28167m | 6.1m/s | -47.1°C | 0% | 16.2hPa | 2.6V | 18:12:15 | 01:42:21 | 00:00:00 | |
| SONDE2-11 | 2026-09-04 01:16:56 | 50.15297 | 11.39561 | 80° | 9km/h | 28162m | 5.1m/s | -47.1°C | 0.7% | 16.3hPa | 2.6V | 00:00:00 | 00:00:00 | 00:00:00 | |
| DB0NH | 2026-09-04 01:16:55 | 50.15297 | 11.39561 | 81° | 9km/h | 28162m | 5.1m/s | -47.1°C | 3.2% | 16.2hPa | 2.6V | 00:00:00 | 01:42:20 | 00:00:00 | |
| NBG1-10 | 2026-09-04 01:16:54 | 50.15297 | 11.39558 | 101° | 9km/h | 28157m | 5.3m/s | -47.1°C | 3.2% | 16.2hPa | 2.5V | 00:00:00 | 01:42:19 | 00:00:00 | |
| 13BRC | 2026-09-04 01:16:53 | 50.15297 | 11.39554 | 114° | 9km/h | 28151m | 5.7m/s | -47.2°C | 0.7% | 16.3hPa | 2.5V | 00:00:00 | 00:00:00 | 00:00:00 | |
| DL1NUX | 2026-09-04 01:16:52 | 50.15305 | 11.39535 | 157° | 7km/h | 28117m | 6m/s | -47.2°C | 3.2% | 16.4hPa | 2.5V | 08:30:00 | 01:42:12 | 00:00:00 | |
| HSKMA3-T | 2026-09-04 01:16:51 | 50.15300 | 11.39546 | 112° | 13km/h | 28139m | 5.6m/s | -47.2°C | 0% | 16.3hPa | 2.6V | 18:12:15 | 01:42:16 | 00:00:00 | |
| DO3MHA-11 | 2026-09-04 01:16:51 | 50.15299 | 11.39546 | 112° | 11km/h | 28139m | 5.5m/s | -47.2°C | 3.2% | 16.3hPa | 2.6V | 00:00:00 | 01:42:16 | 00:00:00 | |
| DM0DOS-11 | 2026-09-04 01:16:50 | 50.15307 | 11.39532 | 96° | 7km/h | 28107m | 4.7m/s | -47.2°C | 3.2% | 16.4hPa | 2.6V | 08:30:00 | 01:42:10 | 00:00:00 | |
| AA1-15 | 2026-09-04 01:16:50 | 50.15301 | 11.39542 | 113° | 11km/h | 28133m | 4.4m/s | -47.2°C | 0% | 16.3hPa | 2.6V | 18:12:15 | 01:42:15 | 00:00:00 | |
| DL1XH-west | 2026-09-04 01:16:46 | 50.15306 | 11.39534 | 144° | 5km/h | 28111m | 5m/s | -47.2°C | 0% | 16.4hPa | 2.6V | 18:12:15 | 01:42:11 | 00:00:00 | |
| BIOWL1-15 | 2026-09-04 01:16:45 | 50.15307 | 11.39532 | 97° | 7km/h | 28107m | 4.7m/s | -47.2°C | 0% | 16.4hPa | 2.6V | 18:12:15 | 01:42:10 | 00:00:00 | |
| DD8BA-10 | 2026-09-04 01:16:45 | 50.15307 | 11.39532 | 97° | 7km/h | 28107m | 4.7m/s | -47.2°C | 3.2% | 16.4hPa | 2.6V | 00:00:00 | 00:00:00 | 00:00:00 | |
| DL6DJ-15 | 2026-09-04 01:16:44 | 50.15305 | 11.39523 | 61° | 16km/h | 28095m | 5.6m/s | -47.3°C | 0.7% | 16.4hPa | 2.6V | 00:00:00 | 00:00:00 | 00:00:00 | |
| DL1XH1-15 | 2026-09-04 01:16:42 | 50.15293 | 11.39498 | 45° | 5km/h | 28068m | 5.5m/s | -47.4°C | 3.3% | 16.5hPa | 2.6V | 08:30:00 | 01:42:03 | 00:00:00 | |
| DL1NUX | 2026-09-04 01:16:42 | 50.15292 | 11.39497 | 80° | 2km/h | 28062m | 5.6m/s | -47.3°C | 3.3% | 16.5hPa | 2.6V | 08:30:00 | 01:42:02 | 00:00:00 | |
| DL1XH-15 | 2026-09-04 01:16:41 | 50.15292 | 11.39495 | 124° | 4km/h | 28056m | 6m/s | -47.3°C | 3.2% | 16.6hPa | 2.5V | 08:30:00 | 01:42:01 | 00:00:00 | |
| DF8AY | 2026-09-04 01:16:40 | 50.15296 | 11.39504 | 50° | 16km/h | 28079m | 6.2m/s | -47.3°C | 0% | 16.5hPa | 2.5V | 18:12:15 | 01:42:05 | 00:00:00 | |
| BIOWL1-15 | 2026-09-04 01:16:37 | 50.15293 | 11.39493 | 123° | 7km/h | 28050m | 6.4m/s | -47.3°C | 0% | 16.6hPa | 2.5V | 18:12:15 | 01:42:00 | 00:00:00 | |
| DL1XH-west | 2026-09-04 01:16:36 | 50.15293 | 11.39495 | 124° | 4km/h | 28056m | 6m/s | -47.3°C | 0% | 16.6hPa | 2.5V | 18:12:15 | 01:42:01 | 00:00:00 | |
| DD8BA-10 | 2026-09-04 01:16:34 | 50.15295 | 11.39490 | 120° | 9km/h | 28044m | 5.1m/s | -47.2°C | 3.2% | 16.5hPa | 2.5V | 00:00:00 | 00:00:00 | 08:30:00 | |
| DL1XH1-15 | 2026-09-04 01:16:32 | 50.15303 | 11.39476 | 123° | 7km/h | 28010m | 6.5m/s | -47.2°C | 3.2% | 16.6hPa | 2.6V | 08:30:00 | 01:41:53 | 00:00:00 | |
| DL1NUX | 2026-09-04 01:16:32 | 50.15303 | 11.39473 | 104° | 9km/h | 28004m | 5.7m/s | -47.2°C | 3.2% | 16.7hPa | 2.6V | 08:30:00 | 01:41:52 | 00:00:00 | |
| AA1-15 | 2026-09-04 01:16:32 | 50.15297 | 11.39483 | 126° | 9km/h | 28034m | 5.8m/s | -47.2°C | 0% | 16.6hPa | 2.6V | 18:12:15 | 01:41:57 | 00:00:00 | |
| DF7PN | 2026-09-04 01:16:32 | 50.15299 | 11.39480 | 136° | 7km/h | 28028m | 6.9m/s | -47.2°C | 0.7% | 16.6hPa | 2.5V | 00:00:00 | 00:00:00 | 00:00:00 | |
| DL1XH-15 | 2026-09-04 01:16:31 | 50.15304 | 11.39469 | 94° | 11km/h | 27999m | 4.5m/s | -47.2°C | 3.2% | 16.7hPa | 2.5V | 08:30:00 | 01:41:51 | 00:00:00 | |
| HSKMA3-T | 2026-09-04 01:16:30 | 50.15300 | 11.39479 | 152° | 5km/h | 28021m | 5.7m/s | -47.2°C | 0% | 16.6hPa | 2.5V | 18:12:15 | 01:41:55 | 00:00:00 | |
| DL1XH-west | 2026-09-04 01:16:26 | 50.15304 | 11.39469 | 94° | 11km/h | 27999m | 4.5m/s | -47.2°C | 0% | 16.7hPa | 2.5V | 18:12:15 | 01:41:51 | 00:00:00 | |
| BIOWL1-15 | 2026-09-04 01:16:25 | 50.15304 | 11.39465 | 86° | 7km/h | 27994m | 4.6m/s | -47.2°C | 0% | 16.7hPa | 2.5V | 18:12:15 | 01:41:50 | 00:00:00 | |
| SONDE2-11 | 2026-09-04 01:16:25 | 50.15303 | 11.39463 | 73° | 4km/h | 27989m | 6.5m/s | -47.2°C | 0.7% | 16.7hPa | 2.6V | 00:00:00 | 00:00:00 | 00:00:00 | |
| DJTTGO | 2026-09-04 01:16:24 | 50.15303 | 11.39463 | 75° | 4km/h | 27989m | 6.5m/s | -47.2°C | 0.7% | 16.7hPa | 2.6V | 00:00:00 | 00:00:00 | 00:00:00 | |
| SO1NDE-10 | 2026-09-04 01:16:23 | 50.15303 | 11.39462 | 332° | 9km/h | 27983m | 6.4m/s | -47.2°C | 3.2% | 16.7hPa | 2.6V | 00:00:00 | 01:41:48 | 00:00:00 | |
| DL1XH1-15 | 2026-09-04 01:16:22 | 50.15305 | 11.39464 | 135° | 9km/h | 27954m | 5.2m/s | -47.4°C | 3.2% | 16.8hPa | 2.6V | 08:30:00 | 01:41:43 | 00:00:00 | |
| DL1NUX | 2026-09-04 01:16:22 | 50.15307 | 11.39462 | 140° | 11km/h | 27948m | 5.2m/s | -47.4°C | 3.2% | 16.8hPa | 2.6V | 08:30:00 | 01:41:42 | 00:00:00 | |
| EDDB2-11 | 2026-09-04 01:16:22 | 50.15303 | 11.39465 | 267° | 4km/h | 27971m | 5.3m/s | -47.3°C | 0.7% | 16.8hPa | 2.5V | 00:00:00 | 00:00:00 | 00:00:00 | |
| DL1XH-15 | 2026-09-04 01:16:21 | 50.15310 | 11.39459 | 150° | 11km/h | 27942m | 6.7m/s | -47.4°C | 3.2% | 16.8hPa | 2.5V | 08:30:00 | 01:41:41 | 00:00:00 | |
| DF8AY | 2026-09-04 01:16:19 | 50.15304 | 11.39466 | 143° | 5km/h | 27959m | 6.4m/s | -47.4°C | 0% | 16.8hPa | 2.5V | 18:12:15 | 01:41:44 | 00:00:00 | |
| DL1XH-west | 2026-09-04 01:16:15 | 50.15312 | 11.39458 | 170° | 9km/h | 27936m | 5.9m/s | -47.5°C | 0.1% | 16.8hPa | 2.5V | 18:12:15 | 01:41:40 | 00:00:00 | |
| BIOWL1-15 | 2026-09-04 01:16:15 | 50.15314 | 11.39458 | 188° | 7km/h | 27931m | 4.9m/s | -47.5°C | 0.1% | 16.9hPa | 2.5V | 18:12:15 | 01:41:39 | 00:00:00 | |
| ANDY1245 | 2026-09-04 01:16:14 | 50.15316 | 11.39458 | 203° | 5km/h | 27926m | 5.0m/s | -47.5°C | 0.8% | 16.9hPa | 2.5V | 00:00:00 | 00:00:00 | 00:00:00 | |
| DL1NUX | 2026-09-04 01:16:12 | 50.15314 | 11.39470 | 296° | 15km/h | 27890m | 5.8m/s | -47.5°C | 3.3% | 16.9hPa | 2.5V | 08:30:00 | 01:41:32 | 00:00:00 | |
| 13BRC | 2026-09-04 01:16:12 | 50.15317 | 11.39459 | 207° | 4km/h | 27920m | 6.4m/s | -47.5°C | 0.7% | 16.9hPa | 2.5V | 00:00:00 | 00:00:00 | 00:00:00 | |
| DL1XH-15 | 2026-09-04 01:16:11 | 50.15312 | 11.39476 | 297° | 15km/h | 27885m | 4.6m/s | -47.5°C | 3.2% | 17hPa | 2.5V | 08:30:00 | 01:41:31 | 00:00:00 | |
| HSKMA3-T | 2026-09-04 01:16:09 | 50.15317 | 11.39462 | 305° | 7km/h | 27903m | 5.5m/s | -47.5°C | 0.1% | 16.9hPa | 2.5V | 18:12:15 | 01:41:34 | 00:00:00 | |
| DF8AY | 2026-09-04 01:16:08 | 50.15316 | 11.39466 | 300° | 13km/h | 27897m | 7.1m/s | -47.5°C | 0.1% | 16.9hPa | 2.5V | 18:12:15 | 01:41:33 | 00:00:00 | |
| DL1XH-west | 2026-09-04 01:16:05 | 50.15311 | 11.39480 | 301° | 11km/h | 27879m | 6.6m/s | -47.5°C | 0.1% | 17hPa | 2.6V | 18:12:15 | 01:41:30 | 00:00:00 | |
| DD8BA-10 | 2026-09-04 01:16:04 | 50.15309 | 11.39483 | 310° | 7km/h | 27873m | 6.0m/s | -47.4°C | 3.3% | 17.0hPa | 2.6V | 00:00:00 | 00:00:00 | 00:00:00 | |
| DL1XH1-15 | 2026-09-04 01:16:03 | 50.15305 | 11.39496 | 299° | 9km/h | 27838m | 6.3m/s | -47.5°C | 3.3% | 17.1hPa | 2.5V | 08:30:00 | 01:41:23 | 00:00:00 | |
| DL1NUX | 2026-09-04 01:16:03 | 50.15304 | 11.39499 | 318° | 9km/h | 27832m | 6.2m/s | -47.4°C | 3.3% | 17.1hPa | 2.5V | 08:30:00 | 01:41:22 | 00:00:00 | |
| DF2AP-13 | 2026-09-04 01:16:02 | 50.15307 | 11.39486 | 308° | 15km/h | 27862m | 5.4m/s | -47.4°C | 3.3% | 17.0hPa | 2.5V | 00:00:00 | 01:41:27 | 00:00:00 | |
| DL1XH-15 | 2026-09-04 01:16:01 | 50.15302 | 11.39501 | 321° | 13km/h | 27826m | 4.3m/s | -47.4°C | 3.3% | 17.1hPa | 2.5V | 08:30:00 | 01:41:21 | 00:00:00 | |
| HSKMA3-T | 2026-09-04 01:15:59 | 50.15306 | 11.39493 | 286° | 9km/h | 27844m | 5.5m/s | -47.5°C | 0.1% | 17.1hPa | 2.6V | 18:12:15 | 01:41:24 | 00:00:00 | |
| DF8AY | 2026-09-04 01:15:58 | 50.15294 | 11.39517 | 298° | 22km/h | 27809m | 6.3m/s | -47.4°C | 0.1% | 17.2hPa | 2.5V | 18:12:15 | 01:41:18 | 00:00:00 | |
| DL1XH-west | 2026-09-04 01:15:55 | 50.15299 | 11.39505 | 313° | 16km/h | 27822m | 5.1m/s | -47.4°C | 0% | 17.1hPa | 2.6V | 18:12:15 | 01:41:20 | 00:00:00 | |
| BIOWL1-15 | 2026-09-04 01:15:53 | 50.15291 | 11.39525 | 296° | 22km/h | 27803m | 5.6m/s | -47.4°C | 0.1% | 17.2hPa | 2.5V | 18:12:15 | 01:41:17 | 00:00:00 | |
| SO1NDE-10 | 2026-09-04 01:15:53 | 50.15294 | 11.39517 | 298° | 15km/h | 27810m | 6.2m/s | -47.3°C | 3.3% | 17.1hPa | 2.5V | 00:00:00 | 01:41:18 | 00:00:00 | |
| DL1XH1-15 | 2026-09-04 01:15:52 | 50.15282 | 11.39546 | 320° | 11km/h | 27781m | 4.4m/s | -47.4°C | 3.3% | 17.2hPa | 2.5V | 08:30:00 | 01:41:13 | 00:00:00 | |
| DL1NUX | 2026-09-04 01:15:52 | 50.15280 | 11.39549 | 311° | 11km/h | 27776m | 6m/s | -47.4°C | 3.3% | 17.3hPa | 2.5V | 08:30:00 | 01:41:12 | 00:00:00 | |
| 13BRC | 2026-09-04 01:15:52 | 50.15291 | 11.39525 | 297° | 22km/h | 27804m | 5.6m/s | -47.4°C | 0.7% | 17.2hPa | 2.5V | 00:00:00 | 00:00:00 | 00:00:00 | |
| DL1XH-15 | 2026-09-04 01:15:51 | 50.15278 | 11.39552 | 297° | 11km/h | 27769m | 6.6m/s | -47.4°C | 3.2% | 17.3hPa | 2.5V | 08:30:00 | 01:41:11 | 00:00:00 | |
| EDDB2-11 | 2026-09-04 01:15:51 | 50.15287 | 11.39539 | 306° | 16km/h | 27792m | 6.3m/s | -47.4°C | 0.7% | 17.2hPa | 2.5V | 00:00:00 | 00:00:00 | 00:00:00 | |
| DM0DOS-11 | 2026-09-04 01:15:50 | 50.15277 | 11.39557 | 284° | 13km/h | 27763m | 5.5m/s | -47.3°C | 3.2% | 17.3hPa | 2.5V | 08:30:00 | 01:41:10 | 00:00:00 | |
| HSKMA3-T | 2026-09-04 01:15:49 | 50.15284 | 11.39543 | 317° | 13km/h | 27786m | 5.5m/s | -47.4°C | 0.1% | 17.2hPa | 2.6V | 18:12:15 | 01:41:14 | 00:00:00 | |
| DF8AY | 2026-09-04 01:15:46 | 50.15278 | 11.39552 | 297° | 11km/h | 27769m | 6.6m/s | -47.4°C | 0% | 17.3hPa | 2.5V | 18:12:15 | 01:41:11 | 00:00:00 | |
| DL1XH-west | 2026-09-04 01:15:44 | 50.15277 | 11.39562 | 280° | 13km/h | 27758m | 5.4m/s | -47.3°C | 0.1% | 17.3hPa | 2.6V | 18:12:15 | 01:41:09 | 00:00:00 | |
| BIOWL1-15 | 2026-09-04 01:15:43 | 50.15276 | 11.39566 | 282° | 11km/h | 27752m | 6.4m/s | -47.3°C | 0% | 17.3hPa | 2.6V | 18:12:15 | 01:41:08 | 00:00:00 | |
| DL1NUX | 2026-09-04 01:15:42 | 50.15270 | 11.39597 | 282° | 24km/h | 27717m | 5.4m/s | -47.2°C | 3.2% | 17.4hPa | 2.6V | 08:30:00 | 01:41:02 | 00:00:00 | |
| DL6DJ-15 | 2026-09-04 01:15:42 | 50.15275 | 11.39573 | 297° | 7km/h | 27740m | 5.1m/s | -47.3°C | 0.8% | 17.4hPa | 2.6V | 00:00:00 | 00:00:00 | 00:00:00 | |
| DL1XH-15 | 2026-09-04 01:15:41 | 50.15268 | 11.39606 | 284° | 22km/h | 27712m | 5.5m/s | -47.3°C | 3.2% | 17.5hPa | 2.6V | 08:30:00 | 01:41:01 | 00:00:00 | |
| DO3MHA-11 | 2026-09-04 01:15:41 | 50.15275 | 11.39573 | 298° | 16km/h | 27740m | 5.0m/s | -47.2°C | 3.2% | 17.3hPa | 2.5V | 00:00:00 | 01:41:06 | 00:00:00 | |
| DM0DOS-11 | 2026-09-04 01:15:40 | 50.15267 | 11.39614 | 287° | 20km/h | 27705m | 6.7m/s | -47.3°C | 3.2% | 17.5hPa | 2.5V | 08:30:00 | 01:41:00 | 00:00:00 | |
| HSKMA3-T | 2026-09-04 01:15:39 | 50.15272 | 11.39581 | 288° | 16km/h | 27729m | 6.7m/s | -47.2°C | 0.1% | 17.4hPa | 2.5V | 18:12:15 | 01:41:04 | 00:00:00 | |
| DF8AY | 2026-09-04 01:15:36 | 50.15268 | 11.39606 | 284° | 22km/h | 27712m | 5.5m/s | -47.3°C | 0% | 17.5hPa | 2.6V | 18:12:15 | 01:41:01 | 00:00:00 | |
| BIOWL1-15 | 2026-09-04 01:15:35 | 50.15264 | 11.39625 | 299° | 13km/h | 27694m | 4.8m/s | -47.3°C | 0.1% | 17.5hPa | 2.5V | 18:12:15 | 01:40:58 | 00:00:00 | |
| DL1XH-west | 2026-09-04 01:15:34 | 50.15265 | 11.39620 | 294° | 16km/h | 27699m | 5.6m/s | -47.3°C | 0.1% | 17.5hPa | 2.5V | 18:12:15 | 01:40:59 | 00:00:00 | |
| DL1XH1-15 | 2026-09-04 01:15:32 | 50.15261 | 11.39653 | 256° | 15km/h | 27666m | 5.2m/s | -47.3°C | 3.2% | 17.6hPa | 2.5V | 08:30:00 | 01:40:53 | 00:00:00 | |
| DL1NUX | 2026-09-04 01:15:32 | 50.15262 | 11.39659 | 246° | 13km/h | 27660m | 7.1m/s | -47.3°C | 3.2% | 17.6hPa | 2.6V | 08:30:00 | 01:40:52 | 00:00:00 | |
| DL1XH-15 | 2026-09-04 01:15:32 | 50.15263 | 11.39662 | 233° | 9km/h | 27653m | 6m/s | -47.3°C | 3.2% | 17.6hPa | 2.6V | 08:30:00 | 01:40:51 | 00:00:00 | |
| HSKMA3-T | 2026-09-04 01:15:28 | 50.15261 | 11.39654 | 256° | 15km/h | 27666m | 5.2m/s | -47.3°C | 0% | 17.6hPa | 2.5V | 18:12:15 | 01:40:53 | 00:00:00 | |
| DF8AY | 2026-09-04 01:15:26 | 50.15265 | 11.39665 | 232° | 9km/h | 27648m | 5.6m/s | -47.3°C | 0% | 17.6hPa | 2.5V | 18:12:15 | 01:40:50 | 00:00:00 | |
| BIOWL1-15 | 2026-09-04 01:15:24 | 50.15267 | 11.39676 | 261° | 11km/h | 27630m | 5.3m/s | -47.2°C | 0% | 17.7hPa | 2.6V | 18:12:15 | 01:40:47 | 00:00:00 | |
| DL1XH-west | 2026-09-04 01:15:23 | 50.15267 | 11.39672 | 254° | 11km/h | 27635m | 5.8m/s | -47.2°C | 0% | 17.6hPa | 2.5V | 18:12:15 | 01:40:48 | 00:00:00 | |
| SONDE2-11 | 2026-09-04 01:15:23 | 50.15267 | 11.39676 | 261° | 11km/h | 27630m | 5.3m/s | -47.2°C | 0.7% | 17.7hPa | 2.6V | 00:00:00 | 00:00:00 | 00:00:00 | |
| PETON7-10 | 2026-09-04 01:15:22 | 50.15267 | 11.39676 | 262° | 11km/h | 27630m | 5.2m/s | -47.2°C | 3.2% | 17.6hPa | 2.6V | 00:00:00 | 00:00:00 | 00:00:00 | |
| DL1NUX | 2026-09-04 01:15:22 | 50.15266 | 11.39690 | 299° | 9km/h | 27602m | 5.4m/s | -47.3°C | 3.2% | 17.7hPa | 2.5V | 08:30:00 | 01:40:42 | 00:00:00 | |
| DL1XH-15 | 2026-09-04 01:15:21 | 50.15265 | 11.39694 | 291° | 13km/h | 27596m | 6.8m/s | -47.3°C | 3.2% | 17.8hPa | 2.6V | 08:30:00 | 01:40:41 | 00:00:00 | |
| DO3MHA-11 | 2026-09-04 01:15:21 | 50.15268 | 11.39680 | 268° | 11km/h | 27625m | 5.4m/s | -47.2°C | 3.2% | 17.6hPa | 2.6V | 00:00:00 | 01:40:46 | 00:00:00 | |
| DM0DOS-11 | 2026-09-04 01:15:20 | 50.15263 | 11.39700 | 285° | 16km/h | 27589m | 5.8m/s | -47.3°C | 3.2% | 17.8hPa | 2.6V | 08:30:00 | 01:40:40 | 00:00:00 | |
| HSKMA3-T | 2026-09-04 01:15:17 | 50.15266 | 11.39690 | 300° | 9km/h | 27602m | 5.4m/s | -47.3°C | 0% | 17.7hPa | 2.5V | 18:12:15 | 01:40:42 | 00:00:00 | |
| DF8AY | 2026-09-04 01:15:14 | 50.15262 | 11.39706 | 280° | 16km/h | 27584m | 5.2m/s | -47.3°C | 0% | 17.8hPa | 2.6V | 18:12:15 | 01:40:39 | 00:00:00 | |
| DL1XH-west | 2026-09-04 01:15:13 | 50.15262 | 11.39712 | 275° | 15km/h | 27578m | 6.2m/s | -47.4°C | 0% | 17.8hPa | 2.5V | 18:12:15 | 01:40:38 | 00:00:00 | |
| DL1XH1-15 | 2026-09-04 01:15:13 | 50.15270 | 11.39728 | 212° | 15km/h | 27549m | 5.7m/s | -47.4°C | 3.2% | 17.9hPa | 2.6V | 08:30:00 | 01:40:33 | 00:00:00 | |
| DL1XH-15 | 2026-09-04 01:15:11 | 50.15275 | 11.39733 | 202° | 9km/h | 27538m | 6.1m/s | -47.4°C | 3.2% | 17.9hPa | 2.5V | 08:30:00 | 01:40:31 | 00:00:00 | |
| DL6DJ-15 | 2026-09-04 01:15:11 | 50.15264 | 11.39723 | 214° | 9km/h | 27562m | 5.4m/s | -47.4°C | 0.7% | 17.9hPa | 2.5V | 00:00:00 | 00:00:00 | 00:00:00 | |
| DM0DOS-11 | 2026-09-04 01:15:10 | 50.15277 | 11.39734 | 184° | 5km/h | 27531m | 6.5m/s | -47.5°C | 3.2% | 17.9hPa | 2.5V | 08:30:00 | 01:40:30 | 00:00:00 | |
| AA1-15 | 2026-09-04 01:15:09 | 50.15267 | 11.39725 | 212° | 13km/h | 27555m | 6.7m/s | -47.4°C | 0% | 17.9hPa | 2.6V | 18:12:15 | 01:40:34 | 00:00:00 | |
| HSKMA3-T | 2026-09-04 01:15:06 | 50.15275 | 11.39733 | 203° | 9km/h | 27538m | 6.1m/s | -47.4°C | 0% | 17.9hPa | 2.5V | 18:12:15 | 01:40:31 | 00:00:00 | |
| DF8AY | 2026-09-04 01:15:04 | 50.15278 | 11.39734 | 305° | 2km/h | 27521m | 4.9m/s | -47.5°C | 0% | 18hPa | 2.6V | 18:12:15 | 01:40:28 | 00:00:00 | |
| DL1XH-west | 2026-09-04 01:15:02 | 50.15278 | 11.39735 | 283° | 5km/h | 27515m | 6.8m/s | -47.5°C | 0% | 18hPa | 2.5V | 18:12:15 | 01:40:27 | 00:00:00 | |
| DF2AP-13 | 2026-09-04 01:15:02 | 50.15277 | 11.39735 | 283° | 15km/h | 27515m | 6.7m/s | -47.5°C | 3.2% | 17.9hPa | 2.5V | 00:00:00 | 01:40:27 | 00:00:00 | |
| DL1XH-15 | 2026-09-04 01:15:01 | 50.15288 | 11.39745 | 165° | 20km/h | 27480m | 5.2m/s | -47.6°C | 3.2% | 18.1hPa | 2.5V | 08:30:00 | 01:40:21 | 00:00:00 | |
| DO3MHA-11 | 2026-09-04 01:15:01 | 50.15277 | 11.39738 | 271° | 16km/h | 27509m | 5.6m/s | -47.5°C | 3.2% | 17.9hPa | 2.5V | 00:00:00 | 01:40:26 | 00:00:00 | |
| DM0DOS-11 | 2026-09-04 01:15:00 | 50.15293 | 11.39743 | 169° | 22km/h | 27474m | 6.2m/s | -47.6°C | 3.2% | 18.1hPa | 2.5V | 08:30:00 | 01:40:20 | 00:00:00 | |
| AA1-15 | 2026-09-04 01:14:58 | 50.15281 | 11.39747 | 193° | 9km/h | 27491m | 6.6m/s | -47.6°C | 0.1% | 18.1hPa | 2.6V | 18:12:15 | 01:40:23 | 00:00:00 | |
| HSKMA3-T | 2026-09-04 01:14:56 | 50.15288 | 11.39745 | 166° | 20km/h | 27480m | 5.2m/s | -47.6°C | 0% | 18.1hPa | 2.5V | 18:12:15 | 01:40:21 | 00:00:00 | |
| DF8AY | 2026-09-04 01:14:53 | 50.15305 | 11.39741 | 176° | 24km/h | 27462m | 5.6m/s | -47.6°C | 0% | 18.1hPa | 2.6V | 18:12:15 | 01:40:18 | 00:00:00 | |
| DL1XH-west | 2026-09-04 01:14:51 | 50.15315 | 11.39738 | 161° | 18km/h | 27450m | 6.4m/s | -47.6°C | 0.1% | 18.1hPa | 2.5V | 18:12:15 | 01:40:16 | 00:00:00 | |
| DM0DOS-11 | 2026-09-04 01:14:50 | 50.15320 | 11.39733 | 286° | 4km/h | 27416m | 4.9m/s | -47.8°C | 3.2% | 18.2hPa | 2.5V | 08:30:00 | 01:40:10 | 00:00:00 | |
| BIOWL1-15 | 2026-09-04 01:14:47 | 50.15321 | 11.39730 | 337° | 2km/h | 27427m | 6.7m/s | -47.7°C | 0% | 18.2hPa | 2.6V | 18:12:15 | 01:40:12 | 00:00:00 | |
| HSKMA3-T | 2026-09-04 01:14:45 | 50.15320 | 11.39733 | 287° | 4km/h | 27416m | 4.9m/s | -47.8°C | 0% | 18.2hPa | 2.5V | 18:12:15 | 01:40:10 | 00:00:00 | |
| DF8AY | 2026-09-04 01:14:42 | 50.15323 | 11.39730 | 143° | 15km/h | 27399m | 5.4m/s | -48°C | 0% | 18.3hPa | 2.5V | 18:12:15 | 01:40:07 | 00:00:00 | |
| DL1XH1-15 | 2026-09-04 01:14:42 | 50.15342 | 11.39718 | 166° | 24km/h | 27377m | 4.7m/s | -48.1°C | 3.2% | 18.4hPa | 2.5V | 08:30:00 | 01:40:03 | 00:00:00 | |
| DL1XH-west | 2026-09-04 01:14:41 | 50.15326 | 11.39727 | 148° | 18km/h | 27394m | 5m/s | -48°C | 0.1% | 18.3hPa | 2.6V | 18:12:15 | 01:40:06 | 00:00:00 | |
| DO3MHA-11 | 2026-09-04 01:14:41 | 50.15326 | 11.39727 | 149° | 20km/h | 27394m | 4.9m/s | -47.9°C | 3.3% | 18.3hPa | 2.6V | 00:00:00 | 01:40:06 | 00:00:00 | |
| DM0DOS-11 | 2026-09-04 01:14:40 | 50.15359 | 11.39708 | 148° | 24km/h | 27360m | 5.5m/s | -48.2°C | 3.3% | 18.4hPa | 2.6V | 08:30:00 | 01:40:00 | 00:00:00 | |
| AA1-15 | 2026-09-04 01:14:37 | 50.15348 | 11.39716 | 164° | 26km/h | 27372m | 5.1m/s | -48.1°C | 0% | 18.4hPa | 2.5V | 18:12:15 | 01:40:02 | 00:00:00 | |
| BIOWL1-15 | 2026-09-04 01:14:36 | 50.15354 | 11.39712 | 158° | 26km/h | 27366m | 6.6m/s | -48.2°C | 0.1% | 18.4hPa | 2.6V | 18:12:15 | 01:40:01 | 00:00:00 | |
| HSKMA3-T | 2026-09-04 01:14:34 | 50.15363 | 11.39703 | 140° | 18km/h | 27355m | 4.7m/s | -48.2°C | 0.1% | 18.4hPa | 2.5V | 18:12:15 | 01:39:59 | 00:00:00 | |
| DD8BA-10 | 2026-09-04 01:14:34 | 50.15363 | 11.39703 | 141° | 16km/h | 27355m | 4.7m/s | -48.2°C | 3.3% | 18.4hPa | 2.5V | 00:00:00 | 00:00:00 | 00:00:00 | |
| DM7RM-13 | 2026-09-04 01:14:33 | 50.15363 | 11.39703 | 141° | 18km/h | 27355m | 4.7m/s | -48.2°C | 0.8% | 18.4hPa | 2.5V | 00:00:00 | 00:00:00 | 00:00:00 | |
| DL1XH1-15 | 2026-09-04 01:14:32 | 50.15369 | 11.39680 | 106° | 18km/h | 27321m | 5.8m/s | -48.3°C | 3.3% | 18.5hPa | 2.5V | 08:30:00 | 01:39:53 | 00:00:00 | |
| DF8AY | 2026-09-04 01:14:32 | 50.15368 | 11.39696 | 119° | 9km/h | 27343m | 6.5m/s | -48.3°C | 0.1% | 18.4hPa | 2.5V | 18:12:15 | 01:39:57 | 00:00:00 | |
| DL1NUX | 2026-09-04 01:14:32 | 50.15371 | 11.39673 | 113° | 22km/h | 27316m | 5.2m/s | -48.3°C | 3.3% | 18.5hPa | 2.5V | 08:30:00 | 01:39:52 | 00:00:00 | |
| DF2AP-13 | 2026-09-04 01:14:32 | 50.15368 | 11.39695 | 119° | 16km/h | 27343m | 6.4m/s | -48.3°C | 3.3% | 18.4hPa | 2.5V | 00:00:00 | 01:39:57 | 00:00:00 | |
| DO3MHA-11 | 2026-09-04 01:14:31 | 50.15369 | 11.39693 | 88° | 18km/h | 27338m | 4.9m/s | -48.3°C | 3.4% | 18.4hPa | 2.6V | 00:00:00 | 01:39:56 | 00:00:00 | |
| DL1XH-west | 2026-09-04 01:14:31 | 50.15369 | 11.39693 | 88° | 7km/h | 27338m | 5m/s | -48.3°C | 0.1% | 18.5hPa | 2.6V | 18:12:15 | 01:39:56 | 00:00:00 | |
| DM0DOS-11 | 2026-09-04 01:14:30 | 50.15377 | 11.39658 | 127° | 22km/h | 27305m | 6.6m/s | -48.4°C | 3.3% | 18.6hPa | 2.6V | 08:30:00 | 01:39:50 | 00:00:00 | |
| DK7TD | 2026-09-04 01:14:30 | 50.15368 | 11.39690 | 85° | 9km/h | 27333m | 4.4m/s | -48.3°C | 0.1% | 18.5hPa | 2.6V | 18:12:15 | 01:39:55 | 00:00:00 | |
| BIOWL1-15 | 2026-09-04 01:14:25 | 50.15377 | 11.39658 | 127° | 22km/h | 27305m | 6.6m/s | -48.4°C | 0.1% | 18.6hPa | 2.6V | 18:12:15 | 01:39:50 | 00:00:00 | |
| DB0NH | 2026-09-04 01:14:25 | 50.15377 | 11.39658 | 128° | 15km/h | 27305m | 6.5m/s | -48.3°C | 3.3% | 18.5hPa | 2.6V | 00:00:00 | 01:39:50 | 00:00:00 | |
| DD8BA-10 | 2026-09-04 01:14:24 | 50.15380 | 11.39651 | 136° | 16km/h | 27299m | 5.7m/s | -48.4°C | 3.3% | 18.5hPa | 2.6V | 00:00:00 | 00:00:00 | 00:00:00 | |
| HSKMA3-T | 2026-09-04 01:14:24 | 50.15380 | 11.39651 | 136° | 20km/h | 27298m | 5.8m/s | -48.4°C | 0.1% | 18.6hPa | 2.6V | 18:12:15 | 01:39:49 | 00:00:00 | |
| SO1NDE-10 | 2026-09-04 01:14:23 | 50.15384 | 11.39646 | 144° | 15km/h | 27294m | 4.8m/s | -48.4°C | 3.3% | 18.5hPa | 2.6V | 00:00:00 | 01:39:48 | 08:30:00 | |
| DL1XH1-15 | 2026-09-04 01:14:22 | 50.15402 | 11.39621 | 114° | 11km/h | 27266m | 6.2m/s | -48.6°C | 3.4% | 18.7hPa | 2.6V | 08:30:00 | 01:39:43 | 00:00:00 | |
| DL1NUX | 2026-09-04 01:14:22 | 50.15403 | 11.39617 | 83° | 7km/h | 27260m | 5.9m/s | -48.6°C | 3.4% | 18.7hPa | 2.6V | 08:30:00 | 01:39:42 | 00:00:00 | |
| DF8AY | 2026-09-04 01:14:21 | 50.15393 | 11.39636 | 143° | 22km/h | 27282m | 6.3m/s | -48.5°C | 0.1% | 18.6hPa | 2.5V | 18:12:15 | 01:39:46 | 00:00:00 | |
| DL1XH-west | 2026-09-04 01:14:20 | 50.15397 | 11.39631 | 138° | 20km/h | 27276m | 4.9m/s | -48.6°C | 0.1% | 18.7hPa | 2.5V | 18:12:15 | 01:39:45 | 00:00:00 | |
| OE5MMP-10 | 2026-09-04 01:14:20 | 50.15397 | 11.39631 | 138° | 15km/h | 27277m | 4.8m/s | -48.5°C | 3.4% | 18.6hPa | 2.5V | 00:00:00 | 01:39:45 | 00:00:00 | |
| DL1XH-15 | 2026-09-04 01:14:19 | 50.15400 | 11.39607 | 80° | 13km/h | 27245m | 5.8m/s | -48.6°C | 3.4% | 18.7hPa | 2.5V | 08:30:00 | 01:39:39 | 00:00:00 | |
| BIOWL1-15 | 2026-09-04 01:14:15 | 50.15401 | 11.39611 | 64° | 9km/h | 27250m | 4.2m/s | -48.7°C | 0.1% | 18.8hPa | 2.5V | 18:12:15 | 01:39:40 | 00:00:00 | |
| HSKMA3-T | 2026-09-04 01:14:13 | 50.15400 | 11.39601 | 95° | 16km/h | 27239m | 6m/s | -48.6°C | 0.2% | 18.8hPa | 2.6V | 18:12:15 | 01:39:38 | 00:00:00 | |
| DF8AY-15 | 2026-09-04 01:14:13 | 50.15400 | 11.39601 | 95° | 13km/h | 27239m | 6.0m/s | -48.6°C | 3.4% | 18.7hPa | 2.6V | 00:00:00 | 01:39:38 | 00:00:00 | |
| DL1XH1-15 | 2026-09-04 01:14:12 | 50.15406 | 11.39562 | 110° | 16km/h | 27212m | 4.7m/s | -48.7°C | 3.4% | 18.8hPa | 2.6V | 08:30:00 | 01:39:33 | 00:00:00 | |
| DL1NUX | 2026-09-04 01:14:12 | 50.15408 | 11.39556 | 120° | 15km/h | 27207m | 5.5m/s | -48.6°C | 3.4% | 18.9hPa | 2.6V | 08:30:00 | 01:39:32 | 00:00:00 | |
| DL1XH-west | 2026-09-04 01:14:10 | 50.15404 | 11.39577 | 104° | 22km/h | 27223m | 6.2m/s | -48.6°C | 0.2% | 18.8hPa | 2.5V | 18:12:15 | 01:39:35 | 00:00:00 | |
| BIOWL1-15 | 2026-09-04 01:14:04 | 50.15414 | 11.39543 | 109° | 11km/h | 27192m | 4.1m/s | -48.7°C | 0.1% | 18.9hPa | 2.5V | 18:12:15 | 01:39:29 | 00:00:00 | |
| HSKMA3-T | 2026-09-04 01:14:03 | 50.15414 | 11.39539 | 83° | 11km/h | 27187m | 5.8m/s | -48.7°C | 0.1% | 18.9hPa | 2.6V | 18:12:15 | 01:39:28 | 00:00:00 | |
| DL1NUX | 2026-09-04 01:14:02 | 50.15406 | 11.39522 | 106° | 13km/h | 27155m | 5.7m/s | -48.6°C | 3.3% | 19hPa | 2.5V | 08:30:00 | 01:39:22 | 00:00:00 | |
| DL1XH-west | 2026-09-04 01:13:59 | 50.15406 | 11.39528 | 38° | 9km/h | 27167m | 5.2m/s | -48.6°C | 0.1% | 19hPa | 2.5V | 18:12:15 | 01:39:24 | 00:00:00 | |
| HSKMA3-T | 2026-09-04 01:13:53 | 50.15410 | 11.39499 | 84° | 13km/h | 27134m | 6m/s | -48.6°C | 0.1% | 19.1hPa | 2.5V | 18:12:15 | 01:39:18 | 00:00:00 | |
| SO1NDE-10 | 2026-09-04 01:13:53 | 50.15410 | 11.39499 | 84° | 5km/h | 27135m | 6.0m/s | -48.5°C | 3.3% | 19.0hPa | 2.5V | 00:00:00 | 01:39:18 | 00:00:00 | |
| DL1NUX | 2026-09-04 01:13:52 | 50.15404 | 11.39486 | 338° | 4km/h | 27100m | 5.9m/s | -48.8°C | 3.3% | 19.2hPa | 2.5V | 08:30:00 | 01:39:12 | 00:00:00 | |
| PETON7-10 | 2026-09-04 01:13:52 | 50.15409 | 11.39494 | 63° | 7km/h | 27129m | 5.2m/s | -48.5°C | 3.3% | 19.0hPa | 2.6V | 00:00:00 | 00:00:00 | 00:00:00 | |
| DM0DOS-11 | 2026-09-04 01:13:50 | 50.15401 | 11.39488 | 332° | 7km/h | 27089m | 4.9m/s | -48.9°C | 3.3% | 19.2hPa | 2.6V | 08:30:00 | 01:39:10 | 00:00:00 | |
| DL1XH-west | 2026-09-04 01:13:49 | 50.15405 | 11.39487 | 52° | 4km/h | 27112m | 6.1m/s | -48.7°C | 0.2% | 19.1hPa | 2.6V | 18:12:15 | 01:39:14 | 00:00:00 | |
| DK7TD | 2026-09-04 01:13:48 | 50.15404 | 11.39486 | 24° | 2km/h | 27106m | 5.2m/s | -48.8°C | 0.1% | 19.1hPa | 2.5V | 18:12:15 | 01:39:13 | 00:00:00 | |
| EDDB2-11 | 2026-09-04 01:13:47 | 50.15403 | 11.39487 | 331° | 5km/h | 27095m | 6.3m/s | -48.9°C | 0.8% | 19.2hPa | 2.6V | 00:00:00 | 00:00:00 | 00:00:00 | |
| DL0LBS | 2026-09-04 01:13:45 | 50.15403 | 11.39487 | 333° | 5km/h | 27095m | 6.3m/s | 0°C | 0% | 0hPa | 2.6V | 00:00:00 | 00:00:00 | 00:00:00 | |
| DD8BA-10 | 2026-09-04 01:13:44 | 50.15400 | 11.39489 | 339° | 7km/h | 27085m | 4.4m/s | -48.9°C | 3.3% | 19.2hPa | 2.6V | 00:00:00 | 00:00:00 | 00:00:00 | |
| DL1NUX | 2026-09-04 01:13:42 | 50.15396 | 11.39475 | 46° | 11km/h | 27046m | 4.2m/s | -49.2°C | 3.4% | 19.3hPa | 2.6V | 08:30:00 | 01:39:02 | 00:00:00 | |
| BIOWL1-15 | 2026-09-04 01:13:42 | 50.15399 | 11.39488 | 122° | 4km/h | 27072m | 5.9m/s | -49°C | 0.1% | 19.2hPa | 2.5V | 18:12:15 | 01:39:07 | 00:00:00 | |
| DM0DOS-11 | 2026-09-04 01:13:40 | 50.15393 | 11.39469 | 68° | 7km/h | 27035m | 5.8m/s | -49.4°C | 3.5% | 19.4hPa | 2.5V | 08:30:00 | 01:39:00 | 00:00:00 | |
| OE5MMP-10 | 2026-09-04 01:13:40 | 50.15400 | 11.39484 | 89° | 7km/h | 27062m | 5.6m/s | -49.0°C | 3.3% | 19.2hPa | 2.6V | 00:00:00 | 01:39:05 | 00:00:00 | |
| DL1XH-15 | 2026-09-04 01:13:39 | 50.15393 | 11.39467 | 94° | 4km/h | 27029m | 5m/s | -49.5°C | 3.5% | 19.4hPa | 2.5V | 08:30:00 | 01:38:59 | 00:00:00 | |
| AA1-15 | 2026-09-04 01:13:39 | 50.15400 | 11.39482 | 62° | 9km/h | 27055m | 6.1m/s | -49.1°C | 0.1% | 19.3hPa | 2.6V | 18:12:15 | 01:39:04 | 00:00:00 | |
| DL1XH-west | 2026-09-04 01:13:38 | 50.15398 | 11.39478 | 47° | 11km/h | 27050m | 4.4m/s | -49.2°C | 0.1% | 19.3hPa | 2.6V | 18:12:15 | 01:39:03 | 00:00:00 | |
| DO3MHA-11 | 2026-09-04 01:13:37 | 50.15396 | 11.39475 | 47° | 5km/h | 27046m | 4.2m/s | -49.2°C | 3.4% | 19.3hPa | 2.5V | 00:00:00 | 01:39:02 | 00:00:00 | |
| NBG1-10 | 2026-09-04 01:13:36 | 50.15395 | 11.39472 | 54° | 7km/h | 27041m | 5.9m/s | -49.3°C | 3.4% | 19.3hPa | 2.5V | 00:00:00 | 01:39:01 | 00:00:00 | |
| EDDB2-12 | 2026-09-04 01:13:35 | 50.15393 | 11.39467 | 94° | 4km/h | 27030m | 5.0m/s | -49.5°C | 0.8% | 19.4hPa | 2.5V | 00:00:00 | 00:00:00 | 00:00:00 | |
| DD8BA-10 | 2026-09-04 01:13:34 | 50.15393 | 11.39467 | 95° | 4km/h | 27030m | 4.9m/s | -49.5°C | 3.5% | 19.3hPa | 2.5V | 00:00:00 | 00:00:00 | 08:30:00 | |
| DF3TZ-5 | 2026-09-04 01:13:33 | 50.15393 | 11.39466 | 119° | 0km/h | 27025m | 5.0m/s | -49.6°C | 0.8% | 19.4hPa | 2.6V | 00:00:00 | 00:00:00 | 00:00:00 | |
| DL1NUX | 2026-09-04 01:13:32 | 50.15392 | 11.39473 | 190° | 4km/h | 26992m | 4.8m/s | -49.7°C | 3.6% | 19.5hPa | 2.6V | 08:30:00 | 01:38:52 | 00:00:00 | |
| HSKMA3-T | 2026-09-04 01:13:32 | 50.15393 | 11.39466 | 317° | 2km/h | 27019m | 6.3m/s | -49.6°C | 0.2% | 19.4hPa | 2.6V | 18:12:15 | 01:38:57 | 00:00:00 | |
| DF8AY-15 | 2026-09-04 01:13:32 | 50.15393 | 11.39466 | 317° | 5km/h | 27019m | 6.2m/s | -49.6°C | 3.5% | 19.4hPa | 2.5V | 00:00:00 | 01:38:57 | 00:00:00 | |
| S52SK | 2026-09-04 01:13:31 | 50.15393 | 11.39466 | 318° | 2km/h | 27019m | 6.3m/s | 0°C | 0% | 19.4hPa | 2.5V | 00:00:00 | 00:00:00 | 00:00:00 | |
| DM0DOS-11 | 2026-09-04 01:13:30 | 50.15393 | 11.39472 | 90° | 4km/h | 26982m | 5.4m/s | -49.8°C | 3.6% | 19.5hPa | 2.5V | 08:30:00 | 01:38:50 | 00:00:00 | |
| DL1XH-west | 2026-09-04 01:13:28 | 50.15391 | 11.39472 | 245° | 4km/h | 26997m | 6.2m/s | -49.7°C | 0.2% | 19.5hPa | 2.5V | 18:12:15 | 01:38:53 | 00:00:00 | |
| AA1-15 | 2026-09-04 01:13:27 | 50.15392 | 11.39473 | 150° | 4km/h | 26987m | 4.1m/s | -49.7°C | 0.3% | 19.5hPa | 2.6V | 18:12:15 | 01:38:51 | 00:00:00 | |
| DK7TD | 2026-09-04 01:13:27 | 50.15392 | 11.39473 | 191° | 4km/h | 26992m | 4.8m/s | -49.7°C | 0.2% | 19.5hPa | 2.6V | 18:12:15 | 01:38:52 | 00:00:00 | |
| BIOWL1-15 | 2026-09-04 01:13:22 | 50.15388 | 11.39464 | 36° | 13km/h | 26966m | 4.7m/s | -49.8°C | 0.2% | 19.6hPa | 2.6V | 18:12:15 | 01:38:47 | 00:00:00 | |
| PETON7-10 | 2026-09-04 01:13:22 | 50.15388 | 11.39464 | 36° | 9km/h | 26966m | 4.7m/s | -49.8°C | 3.6% | 19.5hPa | 2.6V | 00:00:00 | 00:00:00 | 00:00:00 | |
| DL1XH1-15 | 2026-09-04 01:13:21 | 50.15381 | 11.39459 | 340° | 5km/h | 26944m | 5.7m/s | -49.8°C | 3.6% | 19.6hPa | 2.5V | 08:30:00 | 01:38:43 | 00:00:00 | |
| BIOWL9-15 | 2026-09-04 01:13:21 | 50.15384 | 11.39460 | 36° | 5km/h | 26955m | 5.7m/s | -49.8°C | 0.9% | 19.6hPa | 2.6V | 00:00:00 | 00:00:00 | 00:00:00 | |
| DM0DOS-11 | 2026-09-04 01:13:20 | 50.15377 | 11.39465 | 302° | 7km/h | 26927m | 5.3m/s | -49.8°C | 3.6% | 19.7hPa | 2.6V | 08:30:00 | 01:38:40 | 00:00:00 | |
| OE5MMP-10 | 2026-09-04 01:13:20 | 50.15384 | 11.39460 | 37° | 5km/h | 26955m | 5.6m/s | -49.8°C | 3.7% | 19.6hPa | 2.6V | 00:00:00 | 01:38:45 | 00:00:00 | |
| DL1XH-15 | 2026-09-04 01:13:19 | 50.15376 | 11.39467 | 278° | 4km/h | 26921m | 6.4m/s | -49.8°C | 3.6% | 19.7hPa | 2.6V | 08:30:00 | 01:38:39 | 00:00:00 | |
| DL1XH-west | 2026-09-04 01:13:17 | 50.15380 | 11.39460 | 326° | 7km/h | 26938m | 6.3m/s | -49.8°C | 0.3% | 19.7hPa | 2.5V | 18:12:15 | 01:38:42 | 00:00:00 | |
| DK7TD | 2026-09-04 01:13:16 | 50.15378 | 11.39462 | 316° | 9km/h | 26932m | 4.7m/s | -49.8°C | 0.3% | 19.7hPa | 2.6V | 18:12:15 | 01:38:41 | 00:00:00 | |
| HSKMA3-T | 2026-09-04 01:13:12 | 50.15376 | 11.39468 | 68° | 2km/h | 26911m | 4.5m/s | -49.8°C | 0.3% | 19.7hPa | 2.5V | 18:12:15 | 01:38:37 | 00:00:00 | |
| DL1XH1-15 | 2026-09-04 01:13:11 | 50.15366 | 11.39460 | 15° | 20km/h | 26889m | 4.3m/s | -49.7°C | 3.6% | 19.8hPa | 2.6V | 08:30:00 | 01:38:33 | 00:00:00 | |
| BIOWL1-15 | 2026-09-04 01:13:10 | 50.15366 | 11.39460 | 15° | 20km/h | 26889m | 4.3m/s | -49.7°C | 0.2% | 19.8hPa | 2.6V | 18:12:15 | 01:38:33 | 00:00:00 | |
| DM0DOS-11 | 2026-09-04 01:13:10 | 50.15355 | 11.39456 | 13° | 7km/h | 26875m | 6m/s | -49.7°C | 3.6% | 19.9hPa | 2.5V | 08:30:00 | 01:38:30 | 00:00:00 | |
| OE5MMP-10 | 2026-09-04 01:13:10 | 50.15373 | 11.39464 | 27° | 11km/h | 26901m | 6.4m/s | -49.7°C | 3.6% | 19.7hPa | 2.5V | 00:00:00 | 01:38:35 | 00:00:00 | |
| DL1XH-15 | 2026-09-04 01:13:09 | 50.15354 | 11.39456 | 317° | 2km/h | 26868m | 5.7m/s | -49.6°C | 3.6% | 19.9hPa | 2.6V | 08:30:00 | 01:38:29 | 00:00:00 | |
| DL1XH-west | 2026-09-04 01:13:07 | 50.15361 | 11.39458 | 15° | 18km/h | 26885m | 3.7m/s | -49.7°C | 0.3% | 19.8hPa | 2.5V | 18:12:15 | 01:38:32 | 00:00:00 | |
| AA1-15 | 2026-09-04 01:13:06 | 50.15358 | 11.39457 | 16° | 15km/h | 26881m | 6.2m/s | -49.7°C | 0.3% | 19.8hPa | 2.5V | 18:12:15 | 01:38:31 | 00:00:00 | |
| 13BRC | 2026-09-04 01:13:06 | 50.15358 | 11.39457 | 17° | 13km/h | 26881m | 6.2m/s | -49.7°C | 0.9% | 19.8hPa | 2.5V | 00:00:00 | 00:00:00 | 00:00:00 | |
| AU51GT2 | 2026-09-04 01:13:04 | 50.15354 | 11.39457 | 260° | 4km/h | 26863m | 5.9m/s | -49.7°C | 0.8% | 19.9hPa | 2.5V | 00:00:00 | 00:00:00 | 00:00:00 | |
| NBG1-10 | 2026-09-04 01:13:03 | 50.15354 | 11.39457 | 261° | 11km/h | 26863m | 5.9m/s | -49.6°C | 3.6% | 19.9hPa | 2.5V | 00:00:00 | 01:38:28 | 00:00:00 | |
| DF2AP-13 | 2026-09-04 01:13:02 | 50.15354 | 11.39460 | 263° | 11km/h | 26857m | 6.4m/s | -49.6°C | 3.6% | 19.9hPa | 2.5V | 00:00:00 | 01:38:27 | 08:30:00 | |
| DL1XH1-15 | 2026-09-04 01:13:01 | 50.15356 | 11.39479 | 261° | 11km/h | 26835m | 5.1m/s | -49.7°C | 3.6% | 20hPa | 2.6V | 08:30:00 | 01:38:23 | 00:00:00 | |
| HSKMA3-T | 2026-09-04 01:13:01 | 50.15355 | 11.39464 | 266° | 13km/h | 26851m | 5.2m/s | -49.7°C | 0.2% | 19.9hPa | 2.5V | 18:12:15 | 01:38:26 | 00:00:00 | |
| D01LWL | 2026-09-04 01:13:01 | 50.15355 | 11.39469 | 264° | 13km/h | 26846m | 4.6m/s | -49.7°C | 0.8% | 19.9hPa | 2.5V | 00:00:00 | 00:00:00 | 00:00:00 | |
| DM0DOS-11 | 2026-09-04 01:13:00 | 50.15351 | 11.39486 | 352° | 15km/h | 26819m | 6.7m/s | -49.6°C | 3.6% | 20hPa | 2.5V | 08:30:00 | 01:38:20 | 00:00:00 | |
| OE5MMP-10 | 2026-09-04 01:13:00 | 50.15355 | 11.39469 | 265° | 15km/h | 26846m | 4.5m/s | -49.6°C | 3.6% | 19.9hPa | 2.6V | 00:00:00 | 01:38:25 | 00:00:00 | |
| DL1XH-15 | 2026-09-04 01:12:59 | 50.15347 | 11.39486 | 4° | 20km/h | 26813m | 5.4m/s | -49.6°C | 3.5% | 20hPa | 2.6V | 08:30:00 | 01:38:19 | 00:00:00 | |
| DL1XH-west | 2026-09-04 01:12:56 | 50.15354 | 11.39485 | 329° | 9km/h | 26825m | 5.1m/s | -49.6°C | 0.2% | 20hPa | 2.5V | 18:12:15 | 01:38:21 | 00:00:00 | |
| DK7TD | 2026-09-04 01:12:54 | 50.15347 | 11.39486 | 4° | 20km/h | 26813m | 5.4m/s | -49.7°C | 0.2% | 20hPa | 2.6V | 18:12:15 | 01:38:19 | 00:00:00 | |
| DD8BA-10 | 2026-09-04 01:12:54 | 50.15347 | 11.39486 | 5° | 9km/h | 26813m | 5.3m/s | -49.6°C | 3.5% | 20.0hPa | 2.6V | 00:00:00 | 00:00:00 | 00:00:00 | |
| SO1NDE-10 | 2026-09-04 01:12:53 | 50.15342 | 11.39485 | 13° | 11km/h | 26808m | 4.4m/s | -49.6°C | 3.6% | 20.0hPa | 2.6V | 00:00:00 | 01:38:18 | 00:00:00 | |
| DL1NUX | 2026-09-04 01:12:52 | 50.15334 | 11.39481 | 259° | 9km/h | 26774m | 6.1m/s | -49.7°C | 3.6% | 20.1hPa | 2.6V | 08:30:00 | 01:38:12 | 00:00:00 | |
| HSKMA3-T | 2026-09-04 01:12:51 | 50.15334 | 11.39481 | 33° | 11km/h | 26797m | 5.9m/s | -49.7°C | 0.3% | 20.1hPa | 2.6V | 18:12:15 | 01:38:16 | 00:00:00 | |
| DM7RM-13 | 2026-09-04 01:12:51 | 50.15334 | 11.39481 | 34° | 11km/h | 26797m | 5.9m/s | -49.6°C | 0.9% | 20.1hPa | 2.6V | 00:00:00 | 00:00:00 | 00:00:00 | |
| DM0DOS-11 | 2026-09-04 01:12:50 | 50.15334 | 11.39489 | 264° | 13km/h | 26764m | 5.1m/s | -49.7°C | 3.5% | 20.2hPa | 2.6V | 08:30:00 | 01:38:10 | 00:00:00 | |
| OE5MMP-10 | 2026-09-04 01:12:50 | 50.15333 | 11.39479 | 57° | 7km/h | 26792m | 4.9m/s | -49.6°C | 3.6% | 20.1hPa | 2.5V | 00:00:00 | 01:38:15 | 00:00:00 | |
| DL1XH-15 | 2026-09-04 01:12:49 | 50.15334 | 11.39494 | 263° | 11km/h | 26758m | 6m/s | -49.7°C | 3.5% | 20.2hPa | 2.5V | 08:30:00 | 01:38:09 | 00:00:00 | |
| BIOWL1-15 | 2026-09-04 01:12:47 | 50.15334 | 11.39481 | 260° | 9km/h | 26774m | 6.1m/s | -49.7°C | 0.3% | 20.1hPa | 2.6V | 18:12:15 | 01:38:12 | 00:00:00 | |
| DL1XH-west | 2026-09-04 01:12:46 | 50.15334 | 11.39485 | 266° | 11km/h | 26769m | 5.1m/s | -49.7°C | 0.2% | 20.2hPa | 2.6V | 18:12:15 | 01:38:11 | 00:00:00 | |
| EDDB2-11 | 2026-09-04 01:12:44 | 50.15334 | 11.39494 | 263° | 11km/h | 26758m | 6.0m/s | -49.7°C | 0.8% | 20.2hPa | 2.5V | 00:00:00 | 00:00:00 | 00:00:00 | |
| DK7TD | 2026-09-04 01:12:43 | 50.15335 | 11.39497 | 273° | 7km/h | 26753m | 4.6m/s | -49.7°C | 0.2% | 20.2hPa | 2.5V | 18:12:15 | 01:38:08 | 00:00:00 | |
| DD8BA-10 | 2026-09-04 01:12:43 | 50.15334 | 11.39497 | 273° | 11km/h | 26753m | 4.5m/s | -49.7°C | 3.5% | 20.2hPa | 2.5V | 00:00:00 | 00:00:00 | 00:00:00 | |
| DL1NUX | 2026-09-04 01:12:42 | 50.15316 | 11.39494 | 40° | 16km/h | 26720m | 6.1m/s | -49.9°C | 3.6% | 20.3hPa | 2.5V | 08:30:00 | 01:38:02 | 00:00:00 | |
| HSKMA3-T | 2026-09-04 01:12:41 | 50.15332 | 11.39501 | 349° | 11km/h | 26743m | 6.3m/s | -49.7°C | 0.2% | 20.3hPa | 2.6V | 18:12:15 | 01:38:06 | 00:00:00 | |
| DM0DOS-11 | 2026-09-04 01:12:40 | 50.15313 | 11.39485 | 66° | 11km/h | 26710m | 4.3m/s | -49.9°C | 3.6% | 20.4hPa | 2.6V | 08:30:00 | 01:38:00 | 00:00:00 | |
| OE5MMP-10 | 2026-09-04 01:12:40 | 50.15329 | 11.39501 | 3° | 11km/h | 26737m | 6.0m/s | -49.7°C | 3.5% | 20.2hPa | 2.6V | 00:00:00 | 01:38:05 | 08:30:00 | |
| DL1XH-15 | 2026-09-04 01:12:39 | 50.15311 | 11.39482 | 65° | 7km/h | 26705m | 5m/s | -49.9°C | 3.6% | 20.4hPa | 2.5V | 08:30:00 | 01:37:59 | 00:00:00 | |
| BIOWL1-15 | 2026-09-04 01:12:36 | 50.15314 | 11.39489 | 57° | 15km/h | 26715m | 4.8m/s | -49.9°C | 0.3% | 20.4hPa | 2.6V | 18:12:15 | 01:38:01 | 00:00:00 | |
| DL1XH-west | 2026-09-04 01:12:35 | 50.15312 | 11.39485 | 67° | 11km/h | 26710m | 4.4m/s | -49.9°C | 0.3% | 20.4hPa | 2.6V | 18:12:15 | 01:38:00 | 00:00:00 | |
| DK7TD | 2026-09-04 01:12:32 | 50.15310 | 11.39481 | 321° | 5km/h | 26694m | 5.8m/s | -49.9°C | 0.2% | 20.4hPa | 2.5V | 18:12:15 | 01:37:57 | 00:00:00 | |
| DD8BA-10 | 2026-09-04 01:12:32 | 50.15310 | 11.39480 | 321° | 13km/h | 26694m | 5.8m/s | -49.9°C | 3.6% | 20.4hPa | 2.5V | 00:00:00 | 00:00:00 | 00:00:00 | |
| DL1XH1-15 | 2026-09-04 01:12:31 | 50.15310 | 11.39491 | 237° | 5km/h | 26672m | 4.6m/s | -49.9°C | 3.6% | 20.5hPa | 2.6V | 08:30:00 | 01:37:53 | 00:00:00 | |
| HSKMA3-T | 2026-09-04 01:12:30 | 50.15309 | 11.39486 | 271° | 9km/h | 26683m | 5.5m/s | -49.9°C | 0.3% | 20.5hPa | 2.6V | 18:12:15 | 01:37:55 | 00:00:00 | |
| D01LWL | 2026-09-04 01:12:30 | 50.15309 | 11.39489 | 253° | 7km/h | 26678m | 6.3m/s | -49.9°C | 0.8% | 20.5hPa | 2.5V | 00:00:00 | 00:00:00 | 00:00:00 | |
| DL1XH-15 | 2026-09-04 01:12:29 | 50.15304 | 11.39485 | 38° | 18km/h | 26650m | 5.2m/s | -50°C | 3.6% | 20.6hPa | 2.5V | 08:30:00 | 01:37:49 | 00:00:00 | |
| BIOWL1-15 | 2026-09-04 01:12:25 | 50.15308 | 11.39489 | 38° | 13km/h | 26656m | 6.5m/s | -49.9°C | 0.2% | 20.6hPa | 2.5V | 18:12:15 | 01:37:50 | 00:00:00 | |
| DL1XH-west | 2026-09-04 01:12:24 | 50.15304 | 11.39485 | 39° | 18km/h | 26650m | 5.2m/s | -50°C | 0.2% | 20.6hPa | 2.5V | 18:12:15 | 01:37:49 | 00:00:00 | |
| 13BRC | 2026-09-04 01:12:24 | 50.15304 | 11.39485 | 40° | 18km/h | 26650m | 5.2m/s | -50.0°C | 0.8% | 20.6hPa | 2.6V | 00:00:00 | 00:00:00 | 00:00:00 | |
| SO1NDE-10 | 2026-09-04 01:12:23 | 50.15301 | 11.39480 | 45° | 11km/h | 26646m | 3.9m/s | -49.9°C | 3.5% | 20.5hPa | 2.6V | 00:00:00 | 01:37:48 | 00:00:00 | |
| DL1NUX | 2026-09-04 01:12:22 | 50.15300 | 11.39466 | 239° | 11km/h | 26615m | 6m/s | -50.1°C | 3.6% | 20.7hPa | 2.6V | 08:30:00 | 01:37:42 | 00:00:00 | |
| DK7TD | 2026-09-04 01:12:22 | 50.15297 | 11.39474 | 54° | 20km/h | 26641m | 5m/s | -50°C | 0.3% | 20.6hPa | 2.6V | 18:12:15 | 01:37:47 | 00:00:00 | |
| PETON7-10 | 2026-09-04 01:12:22 | 50.15297 | 11.39474 | 55° | 11km/h | 26642m | 5.0m/s | -49.9°C | 3.6% | 20.5hPa | 2.6V | 00:00:00 | 00:00:00 | 00:00:00 | |
| DL1XH1-15 | 2026-09-04 01:12:21 | 50.15298 | 11.39463 | 211° | 9km/h | 26621m | 5.6m/s | -50.1°C | 3.6% | 20.7hPa | 2.6V | 08:30:00 | 01:37:43 | 00:00:00 | |
| HSKMA3-T | 2026-09-04 01:12:20 | 50.15295 | 11.39464 | 108° | 9km/h | 26631m | 4.9m/s | -50°C | 0.3% | 20.6hPa | 2.5V | 18:12:15 | 01:37:45 | 00:00:00 | |
| OE5MMP-10 | 2026-09-04 01:12:20 | 50.15295 | 11.39464 | 109° | 9km/h | 26631m | 4.9m/s | -50.0°C | 3.6% | 20.6hPa | 2.5V | 00:00:00 | 01:37:45 | 00:00:00 | |
| DL1XH-15 | 2026-09-04 01:12:19 | 50.15300 | 11.39477 | 291° | 5km/h | 26599m | 4.8m/s | -50.2°C | 3.6% | 20.7hPa | 2.5V | 08:30:00 | 01:37:39 | 00:00:00 | |
| BIOWL1-15 | 2026-09-04 01:12:15 | 50.15301 | 11.39474 | 277° | 9km/h | 26604m | 4.6m/s | -50.1°C | 0.3% | 20.7hPa | 2.5V | 18:12:15 | 01:37:40 | 00:00:00 | |
| DL1XH-west | 2026-09-04 01:12:13 | 50.15300 | 11.39478 | 17° | 2km/h | 26593m | 6.4m/s | -50.2°C | 0.3% | 20.7hPa | 2.6V | 18:12:15 | 01:37:38 | 00:00:00 | |
| DL1NUX | 2026-09-04 01:12:12 | 50.15294 | 11.39454 | 76° | 7km/h | 26559m | 5.1m/s | -50.3°C | 3.6% | 20.8hPa | 2.5V | 08:30:00 | 01:37:32 | 00:00:00 | |
| DL1XH1-15 | 2026-09-04 01:12:11 | 50.15295 | 11.39458 | 60° | 11km/h | 26565m | 4.8m/s | -50.3°C | 3.6% | 20.8hPa | 2.5V | 08:30:00 | 01:37:33 | 00:00:00 | |
| DK7TD | 2026-09-04 01:12:11 | 50.15299 | 11.39473 | 75° | 13km/h | 26582m | 5.6m/s | -50.3°C | 0.3% | 20.8hPa | 2.6V | 18:12:15 | 01:37:36 | 00:00:00 | |
| HSKMA3-T | 2026-09-04 01:12:10 | 50.15296 | 11.39462 | 60° | 15km/h | 26570m | 5.6m/s | -50.3°C | 0.3% | 20.8hPa | 2.5V | 18:12:15 | 01:37:34 | 00:00:00 | |
| DL1XH-15 | 2026-09-04 01:12:09 | 50.15298 | 11.39452 | 204° | 13km/h | 26543m | 4.9m/s | -50.4°C | 3.7% | 20.9hPa | 2.6V | 08:30:00 | 01:37:29 | 00:00:00 | |
| DF8AY | 2026-09-04 01:12:05 | 50.15295 | 11.39451 | 177° | 9km/h | 26548m | 5.4m/s | -50.4°C | 0.3% | 20.9hPa | 2.6V | 18:12:15 | 01:37:30 | 00:00:00 | |
| DL1XH-west | 2026-09-04 01:12:03 | 50.15301 | 11.39455 | 222° | 16km/h | 26537m | 6.2m/s | -50.4°C | 0.3% | 20.9hPa | 2.5V | 18:12:15 | 01:37:28 | 00:00:00 | |
| DL1NUX | 2026-09-04 01:12:02 | 50.15308 | 11.39469 | 102° | 11km/h | 26505m | 5.6m/s | -50.5°C | 3.8% | 21hPa | 2.5V | 08:30:00 | 01:37:22 | 00:00:00 | |
| DF2AP-13 | 2026-09-04 01:12:02 | 50.15303 | 11.39460 | 237° | 11km/h | 26531m | 6.0m/s | -50.4°C | 3.7% | 20.9hPa | 2.6V | 00:00:00 | 01:37:27 | 00:00:00 | |
| EDDB2-12 | 2026-09-04 01:12:01 | 50.15305 | 11.39465 | 248° | 13km/h | 26526m | 4.3m/s | -50.4°C | 0.9% | 20.9hPa | 2.6V | 00:00:00 | 00:00:00 | 00:00:00 | |
| DM0DOS-11 | 2026-09-04 01:12:00 | 50.15308 | 11.39458 | 72° | 16km/h | 26494m | 6m/s | -50.5°C | 3.7% | 21.1hPa | 2.6V | 08:30:00 | 01:37:20 | 00:00:00 | |
| HSKMA3-T | 2026-09-04 01:11:59 | 50.15307 | 11.39472 | 232° | 4km/h | 26517m | 5.6m/s | -50.5°C | 0.3% | 21hPa | 2.6V | 18:12:15 | 01:37:24 | 00:00:00 | |
| DK7TD | 2026-09-04 01:11:57 | 50.15308 | 11.39469 | 102° | 11km/h | 26505m | 5.6m/s | -50.5°C | 0.4% | 21hPa | 2.5V | 18:12:15 | 01:37:22 | 00:00:00 | |
| DF8AY | 2026-09-04 01:11:54 | 50.15306 | 11.39452 | 55° | 16km/h | 26487m | 6.2m/s | -50.5°C | 0.4% | 21.1hPa | 2.6V | 18:12:15 | 01:37:19 | 00:00:00 | |
| DL1XH-west | 2026-09-04 01:11:53 | 50.15303 | 11.39448 | 38° | 15km/h | 26482m | 4.8m/s | -50.5°C | 0.3% | 21.1hPa | 2.5V | 18:12:15 | 01:37:18 | 00:00:00 | |
| SO1NDE-10 | 2026-09-04 01:11:53 | 50.15303 | 11.39448 | 39° | 9km/h | 26482m | 4.7m/s | -50.4°C | 3.7% | 21.0hPa | 2.5V | 00:00:00 | 01:37:18 | 00:00:00 | |
| PETON7-10 | 2026-09-04 01:11:52 | 50.15301 | 11.39445 | 26° | 11km/h | 26477m | 5.0m/s | -50.4°C | 3.7% | 21.1hPa | 2.5V | 00:00:00 | 00:00:00 | 08:30:00 | |
| DL1XH1-15 | 2026-09-04 01:11:51 | 50.15301 | 11.39450 | 237° | 11km/h | 26454m | 5.5m/s | -50.4°C | 3.7% | 21.2hPa | 2.6V | 08:30:00 | 01:37:13 | 00:00:00 | |
| DM0DOS-11 | 2026-09-04 01:11:50 | 50.15303 | 11.39460 | 283° | 4km/h | 26437m | 4.5m/s | -50.4°C | 3.7% | 21.2hPa | 2.5V | 08:30:00 | 01:37:10 | 00:00:00 | |
| HSKMA3-T | 2026-09-04 01:11:49 | 50.15300 | 11.39447 | 234° | 9km/h | 26459m | 5.1m/s | -50.4°C | 0.3% | 21.2hPa | 2.6V | 18:12:15 | 01:37:14 | 00:00:00 | |
| DK7TD | 2026-09-04 01:11:47 | 50.15302 | 11.39454 | 245° | 11km/h | 26448m | 6.5m/s | -50.4°C | 0.4% | 21.2hPa | 2.6V | 18:12:15 | 01:37:12 | 00:00:00 | |
| AA1-15 | 2026-09-04 01:11:45 | 50.15303 | 11.39460 | 283° | 4km/h | 26437m | 4.5m/s | -50.4°C | 0.3% | 21.2hPa | 2.5V | 18:12:15 | 01:37:10 | 00:00:00 | |
| BIOWL1-15 | 2026-09-04 01:11:44 | 50.15303 | 11.39461 | 52° | 2km/h | 26432m | 4.7m/s | -50.4°C | 0.3% | 21.2hPa | 2.5V | 18:12:15 | 01:37:09 | 00:00:00 | |
| DL1XH-west | 2026-09-04 01:11:42 | 50.15303 | 11.39455 | 94° | 13km/h | 26420m | 6.2m/s | -50.3°C | 0.3% | 21.3hPa | 2.6V | 18:12:15 | 01:37:07 | 00:00:00 | |
| DL1XH1-15 | 2026-09-04 01:11:41 | 50.15298 | 11.39430 | 52° | 15km/h | 26397m | 5m/s | -50.3°C | 3.7% | 21.4hPa | 2.6V | 08:30:00 | 01:37:03 | 00:00:00 | |
| DB0UT-7 | 2026-09-04 01:11:41 | 50.15303 | 11.39449 | 88° | 11km/h | 26415m | 4.9m/s | -50.3°C | 3.7% | 21.3hPa | 2.5V | 00:00:00 | 00:00:00 | 00:00:00 | |
| DM0DOS-11 | 2026-09-04 01:11:40 | 50.15294 | 11.39422 | 56° | 2km/h | 26380m | 5.7m/s | -50.2°C | 3.7% | 21.5hPa | 2.5V | 08:30:00 | 01:37:00 | 00:00:00 | |
| HSKMA3-T | 2026-09-04 01:11:38 | 50.15298 | 11.39430 | 53° | 15km/h | 26397m | 5m/s | -50.3°C | 0.3% | 21.4hPa | 2.6V | 18:12:15 | 01:37:03 | 00:00:00 | |
| DK7TD | 2026-09-04 01:11:36 | 50.15295 | 11.39424 | 49° | 7km/h | 26386m | 6.5m/s | -50.3°C | 0.3% | 21.4hPa | 2.6V | 18:12:15 | 01:37:01 | 00:00:00 | |
| DF8AY | 2026-09-04 01:11:33 | 50.15294 | 11.39425 | 267° | 7km/h | 26369m | 6.4m/s | -50.3°C | 0.3% | 21.5hPa | 2.5V | 18:12:15 | 01:36:58 | 00:00:00 | |
| DL1XH-west | 2026-09-04 01:11:31 | 50.15294 | 11.39431 | 286° | 7km/h | 26357m | 4.8m/s | -50.3°C | 0.3% | 21.5hPa | 2.6V | 18:12:15 | 01:36:56 | 00:00:00 | |
| DM0DOS-11 | 2026-09-04 01:11:30 | 50.15291 | 11.39418 | 56° | 16km/h | 26323m | 6.3m/s | -50.2°C | 3.7% | 21.6hPa | 2.5V | 08:30:00 | 01:36:50 | 00:00:00 | |
| HSKMA3-T | 2026-09-04 01:11:28 | 50.15294 | 11.39432 | 99° | 7km/h | 26341m | 4.9m/s | -50.3°C | 0.3% | 21.6hPa | 2.5V | 18:12:15 | 01:36:53 | 00:00:00 | |
| DK7TD | 2026-09-04 01:11:26 | 50.15293 | 11.39423 | 69° | 15km/h | 26330m | 6.7m/s | -50.2°C | 0.3% | 21.6hPa | 2.5V | 18:12:15 | 01:36:51 | 00:00:00 | |
| DF8AY | 2026-09-04 01:11:23 | 50.15286 | 11.39408 | 49° | 15km/h | 26313m | 5.1m/s | -50.3°C | 0.3% | 21.7hPa | 2.6V | 18:12:15 | 01:36:48 | 00:00:00 | |
| DL1XH-west | 2026-09-04 01:11:21 | 50.15283 | 11.39402 | 67° | 5km/h | 26302m | 5.7m/s | -50.3°C | 0.4% | 21.7hPa | 2.5V | 18:12:15 | 01:36:46 | 00:00:00 | |
| DM0DOS-11 | 2026-09-04 01:11:20 | 50.15276 | 11.39401 | 342° | 7km/h | 26267m | 6.8m/s | -50.2°C | 3.7% | 21.8hPa | 2.5V | 08:30:00 | 01:36:40 | 00:00:00 | |
| DL1XH1-15 | 2026-09-04 01:11:20 | 50.15281 | 11.39399 | 357° | 5km/h | 26284m | 6.5m/s | -50.2°C | 3.7% | 21.8hPa | 2.6V | 08:30:00 | 01:36:43 | 00:00:00 | |
| HSKMA3-T | 2026-09-04 01:11:18 | 50.15281 | 11.39399 | 357° | 5km/h | 26284m | 6.5m/s | -50.2°C | 0.3% | 21.8hPa | 2.6V | 18:12:15 | 01:36:43 | 00:00:00 | |
| DK7TD | 2026-09-04 01:11:16 | 50.15277 | 11.39400 | 348° | 7km/h | 26273m | 5.2m/s | -50.2°C | 0.4% | 21.8hPa | 2.5V | 18:12:15 | 01:36:41 | 00:00:00 | |
| BIOWL1-15 | 2026-09-04 01:11:12 | 50.15264 | 11.39396 | 29° | 15km/h | 26238m | 5.1m/s | -50.2°C | 0.3% | 21.9hPa | 2.5V | 18:12:15 | 01:36:35 | 00:00:00 | |
| DF8AY | 2026-09-04 01:11:12 | 50.15270 | 11.39400 | 19° | 11km/h | 26250m | 6.6m/s | -50.2°C | 0.3% | 21.9hPa | 2.5V | 18:12:15 | 01:36:37 | 00:00:00 | |
| DL1NUX | 2026-09-04 01:11:12 | 50.15256 | 11.39388 | 32° | 7km/h | 26220m | 5.3m/s | -50.2°C | 3.7% | 22hPa | 2.6V | 08:30:00 | 01:36:32 | 00:00:00 | |
| DL1XH-west | 2026-09-04 01:11:11 | 50.15267 | 11.39399 | 26° | 15km/h | 26244m | 6.3m/s | -50.2°C | 0.4% | 21.9hPa | 2.5V | 18:12:15 | 01:36:36 | 00:00:00 | |
| DM0DOS-11 | 2026-09-04 01:11:10 | 50.15252 | 11.39386 | 13° | 9km/h | 26209m | 6.7m/s | -50.1°C | 3.7% | 22hPa | 2.5V | 08:30:00 | 01:36:30 | 00:00:00 | |
| DL1XH1-15 | 2026-09-04 01:11:10 | 50.15258 | 11.39390 | 35° | 11km/h | 26226m | 6.3m/s | -50.2°C | 3.7% | 22hPa | 2.6V | 08:30:00 | 01:36:33 | 00:00:00 | |
| HSKMA3-T | 2026-09-04 01:11:07 | 50.15256 | 11.39389 | 32° | 7km/h | 26220m | 5.3m/s | -50.2°C | 0.3% | 22hPa | 2.6V | 18:12:15 | 01:36:32 | 00:00:00 | |
| DK7TD | 2026-09-04 01:11:05 | 50.15252 | 11.39386 | 13° | 9km/h | 26209m | 6.7m/s | -50.1°C | 0.3% | 22hPa | 2.5V | 18:12:15 | 01:36:30 | 00:00:00 | |
| DL1XH-15 | 2026-09-04 01:11:04 | 50.15247 | 11.39386 | 357° | 11km/h | 26197m | 5.4m/s | -50.1°C | 3.7% | 22.1hPa | 2.5V | 08:30:00 | 01:36:28 | 00:00:00 | |
| DF8AY-15 | 2026-09-04 01:11:04 | 50.15250 | 11.39386 | 5° | 11km/h | 26203m | 5.9m/s | -50.0°C | 3.7% | 22.0hPa | 2.5V | 00:00:00 | 01:36:29 | 00:00:00 | |
| DL1NUX | 2026-09-04 01:11:02 | 50.15230 | 11.39390 | 3° | 18km/h | 26162m | 6.1m/s | -49.9°C | 3.6% | 22.2hPa | 2.5V | 08:30:00 | 01:36:22 | 00:00:00 | |
| DF8AY | 2026-09-04 01:11:01 | 50.15242 | 11.39387 | 340° | 9km/h | 26185m | 6.6m/s | -50°C | 0.3% | 22.1hPa | 2.6V | 18:12:15 | 01:36:26 | 00:00:00 | |
| DL1XH1-15 | 2026-09-04 01:11:00 | 50.15234 | 11.39390 | 356° | 15km/h | 26168m | 6.7m/s | -50°C | 3.6% | 22.2hPa | 2.5V | 08:30:00 | 01:36:23 | 00:00:00 | |
| DL1XH-west | 2026-09-04 01:11:00 | 50.15240 | 11.39388 | 337° | 9km/h | 26179m | 5.2m/s | -50°C | 0.3% | 22.1hPa | 2.6V | 18:12:15 | 01:36:25 | 00:00:00 | |
| HSKMA3-T | 2026-09-04 01:10:57 | 50.15230 | 11.39390 | 4° | 18km/h | 26162m | 6.1m/s | -49.9°C | 0.2% | 22.2hPa | 2.5V | 18:12:15 | 01:36:22 | 00:00:00 | |
| D01LWL | 2026-09-04 01:10:57 | 50.15225 | 11.39389 | 6° | 20km/h | 26156m | 5.2m/s | -49.9°C | 0.8% | 22.2hPa | 2.5V | 00:00:00 | 00:00:00 | 00:00:00 | |
| DM0DOS-11 | 2026-09-04 01:10:55 | 50.15215 | 11.39387 | 4° | 16km/h | 26145m | 6.4m/s | -49.9°C | 3.6% | 22.2hPa | 2.5V | 08:30:00 | 01:36:19 | 00:00:00 | |
| DL1XH-15 | 2026-09-04 01:10:54 | 50.15212 | 11.39387 | 355° | 11km/h | 26139m | 5.7m/s | -49.9°C | 3.6% | 22.3hPa | 2.5V | 08:30:00 | 01:36:18 | 00:00:00 | |
| DK7TD | 2026-09-04 01:10:54 | 50.15215 | 11.39387 | 4° | 16km/h | 26145m | 6.4m/s | -49.9°C | 0.3% | 22.2hPa | 2.5V | 18:12:15 | 01:36:19 | 00:00:00 | |
| DD8BA-10 | 2026-09-04 01:10:54 | 50.15215 | 11.39387 | 5° | 11km/h | 26145m | 6.4m/s | -49.8°C | 3.6% | 22.2hPa | 2.5V | 00:00:00 | 00:00:00 | 00:00:00 | |
| SO1NDE-10 | 2026-09-04 01:10:53 | 50.15212 | 11.39387 | 356° | 11km/h | 26139m | 5.6m/s | -49.8°C | 3.6% | 22.2hPa | 2.5V | 00:00:00 | 01:36:18 | 00:00:00 | |
| DL1NUX | 2026-09-04 01:10:52 | 50.15196 | 11.39385 | 29° | 11km/h | 26106m | 5.7m/s | -49.9°C | 3.6% | 22.4hPa | 2.5V | 08:30:00 | 01:36:12 | 00:00:00 | |
| NBG1-10 | 2026-09-04 01:10:51 | 50.15207 | 11.39388 | 351° | 11km/h | 26129m | 5.0m/s | -49.9°C | 3.6% | 22.3hPa | 2.6V | 00:00:00 | 01:36:16 | 00:00:00 | |
| DL1XH1-15 | 2026-09-04 01:10:50 | 50.15199 | 11.39387 | 22° | 13km/h | 26111m | 5.6m/s | -49.9°C | 3.6% | 22.4hPa | 2.6V | 08:30:00 | 01:36:13 | 00:00:00 | |
| DL1XH-west | 2026-09-04 01:10:50 | 50.15205 | 11.39389 | 0° | 9km/h | 26123m | 6.1m/s | -49.9°C | 0.3% | 22.3hPa | 2.6V | 18:12:15 | 01:36:15 | 00:00:00 | |
| HSKMA3-T | 2026-09-04 01:10:46 | 50.15194 | 11.39383 | 36° | 9km/h | 26099m | 6.6m/s | -49.9°C | 0.3% | 22.4hPa | 2.5V | 18:12:15 | 01:36:11 | 00:00:00 | |
| DL1XH-15 | 2026-09-04 01:10:44 | 50.15189 | 11.39380 | 351° | 11km/h | 26084m | 6.2m/s | -49.9°C | 3.6% | 22.5hPa | 2.6V | 08:30:00 | 01:36:08 | 00:00:00 | |
| DK7TD | 2026-09-04 01:10:44 | 50.15191 | 11.39380 | 7° | 7km/h | 26089m | 4.1m/s | -49.9°C | 0.2% | 22.4hPa | 2.5V | 18:12:15 | 01:36:09 | 00:00:00 | |
| OE5MMP-10 | 2026-09-04 01:10:44 | 50.15191 | 11.39380 | 8° | 7km/h | 26089m | 4.1m/s | -49.8°C | 3.6% | 22.4hPa | 2.6V | 00:00:00 | 01:36:09 | 00:00:00 | |
| SONDE2-11 | 2026-09-04 01:10:43 | 50.15189 | 11.39380 | 351° | 9km/h | 26084m | 6.2m/s | -49.9°C | 0.8% | 22.5hPa | 2.6V | 00:00:00 | 00:00:00 | 00:00:00 | |
| DL1NUX | 2026-09-04 01:10:42 | 50.15170 | 11.39398 | 297° | 11km/h | 26048m | 4.9m/s | -50°C | 3.6% | 22.6hPa | 2.6V | 08:30:00 | 01:36:02 | 00:00:00 | |
| PG1ADW-2 | 2026-09-04 01:10:41 | 50.15182 | 11.39383 | 339° | 11km/h | 26072m | 5.7m/s | -49.8°C | 3.6% | 22.4hPa | 2.5V | 00:00:00 | 00:00:00 | 00:00:00 | |
| DL1XH1-15 | 2026-09-04 01:10:40 | 50.15171 | 11.39394 | 306° | 13km/h | 26054m | 5.7m/s | -50°C | 3.6% | 22.6hPa | 2.6V | 08:30:00 | 01:36:03 | 00:00:00 | |
| DL1XH-west | 2026-09-04 01:10:39 | 50.15174 | 11.39390 | 322° | 16km/h | 26060m | 6.6m/s | -50°C | 0.2% | 22.6hPa | 2.5V | 18:12:15 | 01:36:04 | 00:00:00 | |
| HSKMA3-T | 2026-09-04 01:10:36 | 50.15168 | 11.39402 | 301° | 11km/h | 26043m | 5.5m/s | -50°C | 0.3% | 22.6hPa | 2.5V | 18:12:15 | 01:36:01 | 00:00:00 | |
| DK7TD | 2026-09-04 01:10:34 | 50.15165 | 11.39407 | 334° | 9km/h | 26031m | 5.4m/s | -50°C | 0.2% | 22.6hPa | 2.5V | 18:12:15 | 01:35:59 | 00:00:00 | |
| DD8BA-10 | 2026-09-04 01:10:34 | 50.15165 | 11.39407 | 334° | 5km/h | 26031m | 5.4m/s | -50.0°C | 3.5% | 22.6hPa | 2.6V | 00:00:00 | 00:00:00 | 00:00:00 | |
| DL1NUX | 2026-09-04 01:10:32 | 50.15154 | 11.39412 | 343° | 15km/h | 25991m | 6m/s | -50.2°C | 3.6% | 22.8hPa | 2.6V | 08:30:00 | 01:35:52 | 00:00:00 | |
| DF2AP-13 | 2026-09-04 01:10:32 | 50.15161 | 11.39409 | 351° | 9km/h | 26020m | 6.6m/s | -50.0°C | 3.6% | 22.6hPa | 2.6V | 00:00:00 | 01:35:57 | 00:00:00 | |
| DL6DJ-15 | 2026-09-04 01:10:31 | 50.15160 | 11.39409 | 336° | 2km/h | 26008m | 5.0m/s | -50.1°C | 0.9% | 22.7hPa | 2.6V | 00:00:00 | 00:00:00 | 00:00:00 | |
| DL1XH1-15 | 2026-09-04 01:10:30 | 50.15157 | 11.39411 | 344° | 11km/h | 25997m | 6.6m/s | -50.2°C | 3.6% | 22.8hPa | 2.6V | 08:30:00 | 01:35:53 | 00:00:00 | |
| DF8AY | 2026-09-04 01:10:29 | 50.15159 | 11.39410 | 343° | 5km/h | 26003m | 5m/s | -50.1°C | 0.2% | 22.7hPa | 2.5V | 18:12:15 | 01:35:54 | 00:00:00 | |
| BIOWL1-15 | 2026-09-04 01:10:28 | 50.15137 | 11.39428 | 12° | 7km/h | 25952m | 6.3m/s | -50.4°C | 0.3% | 22.9hPa | 2.6V | 18:12:15 | 01:35:45 | 00:00:00 | |
| DL1XH-west | 2026-09-04 01:10:28 | 50.15157 | 11.39411 | 345° | 11km/h | 25997m | 6.6m/s | -50.2°C | 0.2% | 22.8hPa | 2.6V | 18:12:15 | 01:35:53 | 00:00:00 | |
| HSKMA3-T | 2026-09-04 01:10:25 | 50.15146 | 11.39417 | 329° | 16km/h | 25981m | 5.4m/s | -50.3°C | 0.3% | 22.8hPa | 2.6V | 18:12:15 | 01:35:50 | 00:00:00 | |
| DB0NH | 2026-09-04 01:10:25 | 50.15146 | 11.39417 | 330° | 9km/h | 25981m | 5.3m/s | -50.2°C | 3.7% | 22.8hPa | 2.5V | 00:00:00 | 01:35:50 | 00:00:00 | |
| DL1XH-15 | 2026-09-04 01:10:24 | 50.15138 | 11.39428 | 336° | 5km/h | 25958m | 6.1m/s | -50.3°C | 3.6% | 22.9hPa | 2.5V | 08:30:00 | 01:35:46 | 00:00:00 | |
| DK7TD | 2026-09-04 01:10:23 | 50.15140 | 11.39424 | 307° | 11km/h | 25969m | 5.5m/s | -50.3°C | 0.3% | 22.9hPa | 2.5V | 18:12:15 | 01:35:48 | 00:00:00 | |
| BIOWL1-15 | 2026-09-04 01:10:22 | 50.15131 | 11.39425 | 17° | 5km/h | 25935m | 6.5m/s | -50.5°C | 0.3% | 23hPa | 2.5V | 18:12:15 | 01:35:42 | 00:00:00 | |
| DL1NUX | 2026-09-04 01:10:22 | 50.15131 | 11.39425 | 16° | 5km/h | 25935m | 6.5m/s | -50.4°C | 3.7% | 23hPa | 2.5V | 08:30:00 | 01:35:42 | 00:00:00 | |
| DL1XH-west | 2026-09-04 01:10:18 | 50.15133 | 11.39426 | 24° | 7km/h | 25941m | 5.3m/s | -50.4°C | 0.3% | 23hPa | 2.5V | 18:12:15 | 01:35:43 | 00:00:00 | |
| NBG1-10 | 2026-09-04 01:10:18 | 50.15133 | 11.39426 | 25° | 11km/h | 25941m | 5.2m/s | -50.4°C | 3.6% | 22.9hPa | 2.6V | 00:00:00 | 01:35:43 | 00:00:00 | |
| OE5MMP-10 | 2026-09-04 01:10:17 | 50.15131 | 11.39425 | 17° | 7km/h | 25935m | 6.4m/s | -50.4°C | 3.7% | 22.9hPa | 2.6V | 00:00:00 | 01:35:42 | 00:00:00 | |
| AM1SDL-15 | 2026-09-04 01:10:16 | 50.15130 | 11.39425 | 343° | 7km/h | 25929m | 5.5m/s | -50.4°C | 3.7% | 23.0hPa | 2.6V | 00:00:00 | 01:35:41 | 00:00:00 | |
| DM0DOS-11 | 2026-09-04 01:10:15 | 50.15127 | 11.39429 | 324° | 11km/h | 25918m | 6.5m/s | -50.5°C | 3.7% | 23hPa | 2.6V | 08:30:00 | 01:35:39 | 00:00:00 | |
| HSKMA3-T | 2026-09-04 01:10:15 | 50.15129 | 11.39426 | 324° | 7km/h | 25924m | 4.9m/s | -50.5°C | 0.3% | 23hPa | 2.6V | 18:12:15 | 01:35:40 | 00:00:00 | |
| DL1XH-15 | 2026-09-04 01:10:14 | 50.15119 | 11.39439 | 307° | 15km/h | 25900m | 6.3m/s | -50.5°C | 3.6% | 23.1hPa | 2.5V | 08:30:00 | 01:35:36 | 00:00:00 | |
| DK7TD | 2026-09-04 01:10:13 | 50.15124 | 11.39431 | 325° | 15km/h | 25912m | 5.9m/s | -50.5°C | 0.3% | 23.1hPa | 2.5V | 18:12:15 | 01:35:38 | 00:00:00 | |
| BIOWL1-15 | 2026-09-04 01:10:10 | 50.15115 | 11.39456 | 326° | 5km/h | 25872m | 6m/s | -50.8°C | 0.4% | 23.2hPa | 2.5V | 18:12:15 | 01:35:31 | 00:00:00 | |
| DL1XH1-15 | 2026-09-04 01:10:10 | 50.15116 | 11.39451 | 276° | 7km/h | 25884m | 4.8m/s | -50.7°C | 3.7% | 23.2hPa | 2.6V | 08:30:00 | 01:35:33 | 00:00:00 | |
| DF8AY | 2026-09-04 01:10:08 | 50.15116 | 11.39451 | 277° | 9km/h | 25884m | 4.8m/s | -50.7°C | 0.3% | 23.2hPa | 2.6V | 18:12:15 | 01:35:33 | 00:00:00 | |
| DL1XH-west | 2026-09-04 01:10:07 | 50.15116 | 11.39454 | 293° | 5km/h | 25878m | 6.6m/s | -50.7°C | 0.3% | 23.2hPa | 2.6V | 18:12:15 | 01:35:32 | 00:00:00 | |
| PETON7-10 | 2026-09-04 01:10:06 | 50.15115 | 11.39456 | 326° | 11km/h | 25872m | 5.9m/s | -50.7°C | 3.7% | 23.2hPa | 2.5V | 00:00:00 | 00:00:00 | 00:00:00 | |
| DM0DOS-11 | 2026-09-04 01:10:05 | 50.15112 | 11.39458 | 325° | 5km/h | 25860m | 5.9m/s | -50.8°C | 3.7% | 23.2hPa | 2.5V | 08:30:00 | 01:35:29 | 00:00:00 | |
| HSKMA3-T | 2026-09-04 01:10:04 | 50.15112 | 11.39458 | 325° | 5km/h | 25860m | 5.9m/s | -50.8°C | 0.3% | 23.3hPa | 2.5V | 18:12:15 | 01:35:29 | 00:00:00 | |
| DK7TD | 2026-09-04 01:10:02 | 50.15110 | 11.39462 | 295° | 7km/h | 25849m | 4.8m/s | -50.9°C | 0.4% | 23.3hPa | 2.6V | 18:12:15 | 01:35:27 | 00:00:00 | |
| DF2AP-13 | 2026-09-04 01:10:02 | 50.15110 | 11.39462 | 295° | 15km/h | 25849m | 4.8m/s | -50.8°C | 3.8% | 23.3hPa | 2.6V | 00:00:00 | 01:35:27 | 00:00:00 | |
| OE5MMP-10 | 2026-09-04 01:10:01 | 50.15109 | 11.39465 | 306° | 13km/h | 25844m | 4.9m/s | -50.8°C | 3.8% | 23.3hPa | 2.6V | 00:00:00 | 01:35:26 | 00:00:00 | |
| DL1XH1-15 | 2026-09-04 01:10:00 | 50.15100 | 11.39474 | 340° | 16km/h | 25827m | 4.9m/s | -50.8°C | 3.7% | 23.4hPa | 2.6V | 08:30:00 | 01:35:23 | 00:00:00 | |
| DF8AY | 2026-09-04 01:09:57 | 50.15097 | 11.39476 | 339° | 15km/h | 25822m | 5.3m/s | -50.8°C | 0.3% | 23.4hPa | 2.6V | 18:12:15 | 01:35:22 | 00:00:00 | |
| DL1XH-west | 2026-09-04 01:09:56 | 50.15093 | 11.39478 | 330° | 13km/h | 25816m | 6.6m/s | -50.8°C | 0.4% | 23.4hPa | 2.6V | 18:12:15 | 01:35:21 | 00:00:00 | |
| HSKMA3-T | 2026-09-04 01:09:53 | 50.15088 | 11.39488 | 303° | 13km/h | 25800m | 5.1m/s | -50.8°C | 0.3% | 23.5hPa | 2.5V | 18:12:15 | 01:35:18 | 00:00:00 | |
| DL1NUX | 2026-09-04 01:09:52 | 50.15072 | 11.39519 | 298° | 15km/h | 25764m | 4.8m/s | -50.9°C | 3.8% | 23.6hPa | 2.5V | 08:30:00 | 01:35:12 | 00:00:00 | |
| DK7TD | 2026-09-04 01:09:51 | 50.15083 | 11.39498 | 315° | 18km/h | 25788m | 5.7m/s | -50.9°C | 0.4% | 23.5hPa | 2.6V | 18:12:15 | 01:35:16 | 00:00:00 | |
| DF8AY | 2026-09-04 01:09:47 | 50.15072 | 11.39519 | 299° | 15km/h | 25764m | 4.8m/s | -50.9°C | 0.4% | 23.6hPa | 2.5V | 18:12:15 | 01:35:12 | 00:00:00 | |
| DL1XH-west | 2026-09-04 01:09:45 | 50.15067 | 11.39530 | 311° | 16km/h | 25754m | 6.2m/s | -50.9°C | 0.4% | 23.6hPa | 2.5V | 18:12:15 | 01:35:10 | 00:00:00 | |
| BIOWL1-15 | 2026-09-04 01:09:43 | 50.15060 | 11.39538 | 329° | 18km/h | 25742m | 5.2m/s | -50.9°C | 0.4% | 23.7hPa | 2.6V | 18:12:15 | 01:35:08 | 00:00:00 | |
| DK7TD | 2026-09-04 01:09:41 | 50.15053 | 11.39544 | 333° | 11km/h | 25732m | 6m/s | -50.9°C | 0.3% | 23.7hPa | 2.5V | 18:12:15 | 01:35:06 | 00:00:00 | |
| OE5MMP-10 | 2026-09-04 01:09:41 | 50.15053 | 11.39544 | 333° | 15km/h | 25732m | 6.0m/s | -50.8°C | 3.7% | 23.7hPa | 2.6V | 00:00:00 | 01:35:06 | 00:00:00 | |
| DL1XH1-15 | 2026-09-04 01:09:40 | 50.15050 | 11.39552 | 285° | 11km/h | 25715m | 5.3m/s | -50.9°C | 3.8% | 23.8hPa | 2.6V | 08:30:00 | 01:35:03 | 00:00:00 | |
| AA1-15 | 2026-09-04 01:09:38 | 50.15050 | 11.39552 | 285° | 11km/h | 25715m | 5.4m/s | -50.9°C | 0.4% | 23.8hPa | 2.6V | 18:12:15 | 01:35:03 | 00:00:00 | |
| DF8AY | 2026-09-04 01:09:36 | 50.15047 | 11.39563 | 300° | 20km/h | 25704m | 4.8m/s | -50.9°C | 0.3% | 23.8hPa | 2.5V | 18:12:15 | 01:35:01 | 00:00:00 | |
| PETON7-10 | 2026-09-04 01:09:36 | 50.15047 | 11.39562 | 301° | 16km/h | 25704m | 4.7m/s | -50.9°C | 3.7% | 23.8hPa | 2.5V | 00:00:00 | 00:00:00 | 08:30:00 | |
| DM0DOS-11 | 2026-09-04 01:09:35 | 50.15041 | 11.39576 | 309° | 20km/h | 25693m | 6.5m/s | -51°C | 3.8% | 23.9hPa | 2.6V | 08:30:00 | 01:34:59 | 00:00:00 | |
| DL1XH-west | 2026-09-04 01:09:35 | 50.15044 | 11.39569 | 306° | 20km/h | 25699m | 4.8m/s | -50.9°C | 0.3% | 23.8hPa | 2.5V | 18:12:15 | 01:35:00 | 00:00:00 | |
| BIOWL1-15 | 2026-09-04 01:09:32 | 50.15027 | 11.39595 | 320° | 20km/h | 25670m | 5.8m/s | -51.2°C | 0.4% | 23.9hPa | 2.5V | 18:12:15 | 01:34:55 | 00:00:00 | |
| HSKMA3-T | 2026-09-04 01:09:32 | 50.15034 | 11.39586 | 319° | 18km/h | 25682m | 5.2m/s | -51.1°C | 0.4% | 23.9hPa | 2.6V | 18:12:15 | 01:34:57 | 00:00:00 | |
| S52SK | 2026-09-04 01:09:32 | 50.15034 | 11.39586 | 320° | 18km/h | 25682m | 5.2m/s | 0°C | 0% | 23.9hPa | 2.5V | 00:00:00 | 00:00:00 | 00:00:00 | |
| OE5MMP-10 | 2026-09-04 01:09:31 | 50.15031 | 11.39590 | 323° | 16km/h | 25676m | 6.4m/s | -51.1°C | 3.8% | 23.9hPa | 2.5V | 00:00:00 | 01:34:56 | 00:00:00 | |
| DL1XH1-15 | 2026-09-04 01:09:30 | 50.15021 | 11.39605 | 298° | 13km/h | 25660m | 6m/s | -51.2°C | 3.8% | 24hPa | 2.5V | 08:30:00 | 01:34:53 | 00:00:00 | |
| DK7TD | 2026-09-04 01:09:28 | 50.15021 | 11.39605 | 299° | 15km/h | 25660m | 6m/s | -51.2°C | 0.4% | 24hPa | 2.5V | 18:12:15 | 01:34:53 | 00:00:00 | |
| EDDB2-12 | 2026-09-04 01:09:26 | 50.15021 | 11.39615 | 253° | 13km/h | 25648m | 5.4m/s | -51.2°C | 0.9% | 24.0hPa | 2.5V | 00:00:00 | 00:00:00 | 00:00:00 | |
| DM0DOS-11 | 2026-09-04 01:09:25 | 50.15023 | 11.39626 | 261° | 16km/h | 25637m | 5.8m/s | -51.1°C | 3.9% | 24.1hPa | 2.5V | 08:30:00 | 01:34:49 | 00:00:00 | |
| DL1XH-west | 2026-09-04 01:09:25 | 50.15022 | 11.39620 | 251° | 15km/h | 25642m | 5.3m/s | -51.2°C | 0.4% | 24hPa | 2.6V | 18:12:15 | 01:34:50 | 00:00:00 | |
| HSKMA3-T | 2026-09-04 01:09:21 | 50.15020 | 11.39647 | 295° | 20km/h | 25621m | 4.7m/s | -51.2°C | 0.3% | 24.1hPa | 2.6V | 18:12:15 | 01:34:46 | 00:00:00 | |
| BIOWL1-15 | 2026-09-04 01:09:19 | 50.15016 | 11.39660 | 291° | 18km/h | 25610m | 5.9m/s | -51.2°C | 0.5% | 24.2hPa | 2.5V | 18:12:15 | 01:34:44 | 00:00:00 | |
| DK7TD | 2026-09-04 01:09:16 | 50.15012 | 11.39682 | 286° | 22km/h | 25593m | 6m/s | -51.1°C | 0.4% | 24.2hPa | 2.6V | 18:12:15 | 01:34:41 | 00:00:00 | |
| DM0DOS-11 | 2026-09-04 01:09:15 | 50.15008 | 11.39700 | 288° | 27km/h | 25582m | 4.5m/s | -51.1°C | 3.9% | 24.3hPa | 2.6V | 08:30:00 | 01:34:39 | 00:00:00 | |
| DF8AY | 2026-09-04 01:09:15 | 50.15010 | 11.39691 | 291° | 26km/h | 25587m | 6.2m/s | -51.1°C | 0.4% | 24.2hPa | 2.6V | 18:12:15 | 01:34:40 | 00:00:00 | |
| DL1XH-west | 2026-09-04 01:09:14 | 50.15008 | 11.39700 | 289° | 27km/h | 25582m | 4.5m/s | -51.1°C | 0.5% | 24.3hPa | 2.6V | 18:12:15 | 01:34:39 | 00:00:00 | |
| DL1XH-15 | 2026-09-04 01:09:14 | 50.15005 | 11.39721 | 275° | 26km/h | 25571m | 6.3m/s | -51.1°C | 0% | 24.3hPa | 2.5V | 08:30:00 | 01:34:37 | 00:00:00 | |
| BIOWL1-15 | 2026-09-04 01:09:12 | 50.15003 | 11.39802 | 273° | 20km/h | 25517m | 6.3m/s | -51.1°C | 0.4% | 24.6hPa | 2.6V | 18:12:15 | 01:34:27 | 00:00:00 | |
| DL1NUX | 2026-09-04 01:09:12 | 50.15003 | 11.39766 | 281° | 20km/h | 25544m | 4.6m/s | -51.1°C | 3.8% | 24.4hPa | 2.6V | 08:30:00 | 01:34:32 | 00:00:00 | |
| HSKMA3-T | 2026-09-04 01:09:11 | 50.15005 | 11.39731 | 270° | 26km/h | 25566m | 5m/s | -51.1°C | 0.4% | 24.4hPa | 2.5V | 18:12:15 | 01:34:36 | 00:00:00 | |
| OE5MMP-10 | 2026-09-04 01:09:11 | 50.15005 | 11.39731 | 270° | 20km/h | 25566m | 5.0m/s | -51.1°C | 3.8% | 24.3hPa | 2.6V | 00:00:00 | 01:34:36 | 00:00:00 | |
| DL1XH1-15 | 2026-09-04 01:09:10 | 50.15004 | 11.39758 | 280° | 22km/h | 25549m | 5.5m/s | -51.2°C | 3.8% | 24.4hPa | 2.6V | 08:30:00 | 01:34:33 | 00:00:00 | |
| SONDE2-11 | 2026-09-04 01:09:10 | 50.15005 | 11.39749 | 273° | 20km/h | 25555m | 6.4m/s | -51.2°C | 0.9% | 24.4hPa | 2.5V | 00:00:00 | 00:00:00 | 00:00:00 | |
| EDDB2-11 | 2026-09-04 01:09:07 | 50.15003 | 11.39766 | 281° | 18km/h | 25544m | 4.6m/s | -51.2°C | 0.9% | 24.4hPa | 2.5V | 00:00:00 | 00:00:00 | 00:00:00 | |
| PETON7-10 | 2026-09-04 01:09:06 | 50.15002 | 11.39773 | 276° | 22km/h | 25539m | 5.7m/s | -51.1°C | 3.8% | 24.4hPa | 2.5V | 00:00:00 | 01:34:31 | 00:00:00 | |
| DM0DOS-11 | 2026-09-04 01:09:05 | 50.15003 | 11.39787 | 263° | 18km/h | 25528m | 4.8m/s | -51.1°C | 3.8% | 24.5hPa | 2.5V | 08:30:00 | 01:34:29 | 00:00:00 | |
| DK7TD | 2026-09-04 01:09:05 | 50.15002 | 11.39780 | 267° | 18km/h | 25533m | 5.9m/s | -51.1°C | 0.4% | 24.5hPa | 2.5V | 18:12:15 | 01:34:30 | 00:00:00 | |
| DL1XH-west | 2026-09-04 01:09:04 | 50.15003 | 11.39787 | 263° | 18km/h | 25528m | 4.8m/s | -51.1°C | 0.4% | 24.5hPa | 2.5V | 18:12:15 | 01:34:29 | 00:00:00 | |
| DM7RM-13 | 2026-09-04 01:09:03 | 50.15003 | 11.39787 | 264° | 18km/h | 25528m | 4.8m/s | -51.1°C | 1.0% | 24.5hPa | 2.6V | 00:00:00 | 00:00:00 | 00:00:00 | |
| DD8BA-10 | 2026-09-04 01:09:02 | 50.15003 | 11.39802 | 274° | 22km/h | 25517m | 6.2m/s | -51.0°C | 3.8% | 24.5hPa | 2.6V | 00:00:00 | 00:00:00 | 00:00:00 | |
| DL1NUX | 2026-09-04 01:09:01 | 50.15005 | 11.39848 | 257° | 27km/h | 25490m | 4.6m/s | -51.2°C | 3.8% | 24.6hPa | 2.6V | 08:30:00 | 01:34:22 | 00:00:00 | |
| OE5MMP-10 | 2026-09-04 01:09:01 | 50.15003 | 11.39810 | 276° | 24km/h | 25511m | 4.6m/s | -51.0°C | 3.8% | 24.5hPa | 2.6V | 00:00:00 | 01:34:26 | 00:00:00 | |
| HSKMA3-T | 2026-09-04 01:09:01 | 50.15003 | 11.39810 | 276° | 22km/h | 25511m | 4.6m/s | -51.1°C | 0.3% | 24.6hPa | 2.5V | 18:12:15 | 01:34:26 | 00:00:00 | |
| DL1XH1-15 | 2026-09-04 01:09:00 | 50.15004 | 11.39838 | 258° | 26km/h | 25495m | 5.5m/s | -51.2°C | 3.8% | 24.6hPa | 2.6V | 08:30:00 | 01:34:23 | 00:00:00 | |
| BIOWL1-15 | 2026-09-04 01:08:55 | 50.15007 | 11.39868 | 268° | 24km/h | 25479m | 5.8m/s | -51.3°C | 0.4% | 24.7hPa | 2.5V | 18:12:15 | 01:34:20 | 00:00:00 | |
| DL1XH-west | 2026-09-04 01:08:53 | 50.15007 | 11.39886 | 269° | 22km/h | 25469m | 4.8m/s | -51.3°C | 0.3% | 24.7hPa | 2.6V | 18:12:15 | 01:34:18 | 00:00:00 | |
| HSKMA3-T | 2026-09-04 01:08:51 | 50.15010 | 11.39912 | 253° | 24km/h | 25453m | 4.8m/s | -51.3°C | 0.4% | 24.8hPa | 2.6V | 18:12:15 | 01:34:15 | 00:00:00 | |
| DL1NUX | 2026-09-04 01:08:50 | 50.15015 | 11.39942 | 252° | 29km/h | 25436m | 4.9m/s | -51.4°C | 3.8% | 24.8hPa | 2.5V | 08:30:00 | 01:34:12 | 00:00:00 | |
| BIOWL1-15 | 2026-09-04 01:08:45 | 50.15021 | 11.39964 | 242° | 31km/h | 25425m | 5m/s | -51.4°C | 0.5% | 24.9hPa | 2.6V | 18:12:15 | 01:34:10 | 00:00:00 | |
| DL1XH-west | 2026-09-04 01:08:43 | 50.15028 | 11.39984 | 245° | 27km/h | 25416m | 5.3m/s | -51.4°C | 0.4% | 24.9hPa | 2.5V | 18:12:15 | 01:34:08 | 00:00:00 | |
| DL1NUX | 2026-09-04 01:08:42 | 50.15046 | 11.40032 | 222° | 26km/h | 25385m | 5.1m/s | -51.4°C | 3.9% | 25hPa | 2.5V | 08:30:00 | 01:34:02 | 00:00:00 | |
| DK7TD | 2026-09-04 01:08:40 | 50.15035 | 11.40010 | 244° | 22km/h | 25401m | 4.6m/s | -51.4°C | 0.4% | 25hPa | 2.6V | 18:12:15 | 01:34:05 | 00:00:00 | |
| BIOWL1-15 | 2026-09-04 01:08:39 | 50.15055 | 11.40047 | 228° | 26km/h | 25374m | 5.8m/s | -51.4°C | 0.5% | 25.1hPa | 2.6V | 18:12:15 | 01:34:00 | 00:00:00 | |
| AA1-15 | 2026-09-04 01:08:38 | 50.15041 | 11.40025 | 227° | 24km/h | 25390m | 5.6m/s | -51.4°C | 0.5% | 0hPa | 2.5V | 18:12:15 | 01:34:03 | 00:00:00 | |
| DL1XH-west | 2026-09-04 01:08:33 | 50.15065 | 11.40063 | 226° | 27km/h | 25365m | 4.7m/s | -51.4°C | 0.4% | 25.1hPa | 2.6V | 18:12:15 | 01:33:58 | 00:00:00 | |
| DF8AY | 2026-09-04 01:08:32 | 50.15070 | 11.40071 | 222° | 29km/h | 25359m | 6.5m/s | -51.4°C | 0.4% | 25.2hPa | 2.6V | 18:12:15 | 01:33:57 | 00:00:00 | |
| DD8BA-10 | 2026-09-04 01:08:32 | 50.15070 | 11.40071 | 222° | 27km/h | 25359m | 6.4m/s | -51.4°C | 3.9% | 25.1hPa | 2.5V | 00:00:00 | 00:00:00 | 00:00:00 | |
| DL1XH1-15 | 2026-09-04 01:08:30 | 50.15092 | 11.40097 | 221° | 22km/h | 25337m | 6.1m/s | -51.4°C | 3.9% | 25.2hPa | 2.5V | 08:30:00 | 01:33:53 | 00:00:00 | |
| DM0DOS-11 | 2026-09-04 01:08:29 | 50.15110 | 11.40118 | 208° | 29km/h | 25316m | 5.6m/s | -51.4°C | 3.9% | 25.3hPa | 2.5V | 08:30:00 | 01:33:49 | 00:00:00 | |
| DK7TD | 2026-09-04 01:08:29 | 50.15087 | 11.40091 | 218° | 26km/h | 25343m | 6m/s | -51.4°C | 0.5% | 25.2hPa | 2.5V | 18:12:15 | 01:33:54 | 00:00:00 | |
| AA1-15 | 2026-09-04 01:08:28 | 50.15092 | 11.40097 | 222° | 22km/h | 25337m | 6.1m/s | -51.4°C | 0.4% | 0hPa | 2.5V | 18:12:15 | 01:33:53 | 00:00:00 | |
| DF8AY | 2026-09-04 01:08:22 | 50.15124 | 11.40130 | 209° | 33km/h | 25305m | 6.2m/s | -51.5°C | 0.4% | 25.4hPa | 2.6V | 18:12:15 | 01:33:47 | 00:00:00 | |
| DD8BA-10 | 2026-09-04 01:08:22 | 50.15124 | 11.40130 | 210° | 29km/h | 25306m | 6.1m/s | -51.4°C | 3.8% | 25.3hPa | 2.6V | 00:00:00 | 00:00:00 | 00:00:00 | |
| DL4BBY-15 | 2026-09-04 01:08:21 | 50.15131 | 11.40137 | 212° | 26km/h | 25300m | 5.6m/s | -53.0°C | 0% | 0hPa | 2.6V | 00:00:00 | 00:00:00 | 00:00:00 | |
| PETON7-10 | 2026-09-04 01:08:20 | 50.15138 | 11.40143 | 212° | 29km/h | 25295m | 3.9m/s | -51.4°C | 3.9% | 25.4hPa | 2.6V | 00:00:00 | 01:33:45 | 00:00:00 | |
| DM0DOS-11 | 2026-09-04 01:08:19 | 50.15181 | 11.40176 | 194° | 22km/h | 25262m | 5.1m/s | -51.5°C | 3.9% | 25.5hPa | 2.6V | 08:30:00 | 01:33:39 | 00:00:00 | |
| AA1-15 | 2026-09-04 01:08:18 | 50.15154 | 11.40157 | 208° | 37km/h | 25284m | 6.3m/s | -51.5°C | 0.4% | 0hPa | 2.5V | 18:12:15 | 01:33:43 | 00:00:00 | |
| DK7TD | 2026-09-04 01:08:17 | 50.15162 | 11.40164 | 206° | 35km/h | 25279m | 4.6m/s | -51.5°C | 0.4% | 25.4hPa | 2.6V | 18:12:15 | 01:33:42 | 00:00:00 | |
| DF8AY | 2026-09-04 01:08:11 | 50.15198 | 11.40178 | 181° | 27km/h | 25246m | 5m/s | -51.4°C | 0.5% | 25.6hPa | 2.5V | 18:12:15 | 01:33:36 | 00:00:00 | |
| DL1XH1-15 | 2026-09-04 01:08:10 | 50.15219 | 11.40181 | 193° | 27km/h | 25231m | 5.7m/s | -51.4°C | 3.9% | 25.6hPa | 2.6V | 08:30:00 | 01:33:33 | 00:00:00 | |
| DK7TD | 2026-09-04 01:08:07 | 50.15226 | 11.40185 | 200° | 27km/h | 25226m | 4.8m/s | -51.4°C | 0.4% | 25.7hPa | 2.5V | 18:12:15 | 01:33:32 | 00:00:00 | |
| NBG1-10 | 2026-09-04 01:08:06 | 50.15232 | 11.40188 | 201° | 20km/h | 25221m | 4.9m/s | -51.3°C | 3.9% | 25.7hPa | 2.5V | 00:00:00 | 01:33:31 | 00:00:00 | |
| PETON7-10 | 2026-09-04 01:08:05 | 50.15240 | 11.40192 | 199° | 24km/h | 25216m | 5.8m/s | -51.3°C | 3.9% | 25.7hPa | 2.5V | 00:00:00 | 00:00:00 | 00:00:00 | |
| PG1ADW-2 | 2026-09-04 01:08:04 | 50.15248 | 11.40196 | 196° | 22km/h | 25211m | 4.6m/s | -51.3°C | 3.9% | 25.7hPa | 2.7V | 00:00:00 | 00:00:00 | 00:00:00 | |
| DL1XH1-15 | 2026-09-04 01:08:03 | 50.15286 | 11.40198 | 162° | 26km/h | 25179m | 5.5m/s | -51.3°C | 3.9% | 25.9hPa | 2.7V | 08:30:00 | 01:33:23 | 00:00:00 | |
| BIOWL1-15 | 2026-09-04 01:08:02 | 50.15263 | 11.40202 | 189° | 26km/h | 25201m | 6.2m/s | -51.4°C | 0.5% | 25.8hPa | 2.5V | 18:12:15 | 01:33:27 | 00:00:00 | |
| DL1XH-west | 2026-09-04 01:08:01 | 50.15269 | 11.40202 | 181° | 22km/h | 25195m | 4.9m/s | -51.4°C | 0.5% | 25.8hPa | 2.5V | 18:12:15 | 01:33:26 | 00:00:00 | |
| DL1XH-15 | 2026-09-04 01:08:00 | 50.15292 | 11.40194 | 159° | 26km/h | 25173m | 4.7m/s | -51.3°C | 0% | 25.9hPa | 2.6V | 08:30:00 | 01:33:22 | 00:00:00 | |
| DK7TD | 2026-09-04 01:07:56 | 50.15297 | 11.40191 | 159° | 24km/h | 25169m | 5.2m/s | -51.3°C | 0.5% | 25.9hPa | 2.6V | 18:12:15 | 01:33:21 | 00:00:00 | |
| DO3MHA-11 | 2026-09-04 01:07:54 | 50.15306 | 11.40186 | 160° | 18km/h | 25157m | 5.6m/s | -51.3°C | 3.9% | 25.9hPa | 2.5V | 00:00:00 | 01:33:19 | 00:00:00 | |
| SO1NDE-10 | 2026-09-04 01:07:53 | 50.15310 | 11.40184 | 173° | 16km/h | 25153m | 3.8m/s | -51.2°C | 3.9% | 25.9hPa | 2.5V | 00:00:00 | 01:33:18 | 00:00:00 | |
| DL1XH1-15 | 2026-09-04 01:07:52 | 50.15334 | 11.40190 | 190° | 20km/h | 25125m | 5.9m/s | -51.3°C | 3.8% | 26.1hPa | 2.5V | 08:30:00 | 01:33:13 | 00:00:00 | |
| DL1NUX | 2026-09-04 01:07:52 | 50.15339 | 11.40191 | 180° | 18km/h | 25119m | 4.8m/s | -51.2°C | 3.8% | 26.1hPa | 2.5V | 08:30:00 | 01:33:12 | 00:00:00 | |
| DM0DOS-11 | 2026-09-04 01:07:51 | 50.15343 | 11.40190 | 165° | 18km/h | 25115m | 4.1m/s | -51.2°C | 3.8% | 26.1hPa | 2.7V | 08:30:00 | 01:33:11 | 00:00:00 | |
| DF8AY | 2026-09-04 01:07:51 | 50.15318 | 11.40185 | 189° | 20km/h | 25142m | 6m/s | -51.3°C | 0.4% | 26hPa | 2.6V | 18:12:15 | 01:33:16 | 00:00:00 | |
| DL1XH-west | 2026-09-04 01:07:50 | 50.15323 | 11.40186 | 192° | 22km/h | 25136m | 5.3m/s | -51.2°C | 0.4% | 26hPa | 2.6V | 18:12:15 | 01:33:15 | 00:00:00 | |
| DK7TD | 2026-09-04 01:07:45 | 50.15348 | 11.40188 | 157° | 20km/h | 25110m | 6.1m/s | -51.2°C | 0.4% | 26.1hPa | 2.6V | 18:12:15 | 01:33:10 | 00:00:00 | |
| OE5MMP-10 | 2026-09-04 01:07:45 | 50.15348 | 11.40188 | 157° | 16km/h | 25110m | 6.1m/s | -51.2°C | 3.8% | 26.1hPa | 2.6V | 00:00:00 | 01:33:10 | 08:30:00 | |
| DO3MHA-11 | 2026-09-04 01:07:44 | 50.15352 | 11.40184 | 147° | 16km/h | 25105m | 5.5m/s | -51.2°C | 3.9% | 26.1hPa | 2.5V | 00:00:00 | 01:33:09 | 00:00:00 | |
| DF7PN | 2026-09-04 01:07:43 | 50.15357 | 11.40178 | 136° | 22km/h | 25099m | 4.8m/s | -51.2°C | 0.9% | 26.2hPa | 2.5V | 00:00:00 | 00:00:00 | 00:00:00 | |
| DD8BA-10 | 2026-09-04 01:07:42 | 50.15360 | 11.40172 | 127° | 13km/h | 25094m | 5.9m/s | -51.2°C | 3.8% | 26.1hPa | 2.5V | 00:00:00 | 00:00:00 | 00:00:00 | |
| DM0DOS-11 | 2026-09-04 01:07:41 | 50.15372 | 11.40144 | 174° | 11km/h | 25061m | 5.1m/s | -51.2°C | 3.9% | 26.4hPa | 2.5V | 08:30:00 | 01:33:01 | 00:00:00 | |
| BIOWL1-15 | 2026-09-04 01:07:40 | 50.15367 | 11.40148 | 126° | 11km/h | 25073m | 6m/s | -51.2°C | 0.5% | 26.3hPa | 2.6V | 18:12:15 | 01:33:03 | 00:00:00 | |
| DF8AY | 2026-09-04 01:07:40 | 50.15365 | 11.40158 | 106° | 16km/h | 25082m | 4.4m/s | -51.2°C | 0.4% | 26.2hPa | 2.7V | 18:12:15 | 01:33:05 | 00:00:00 | |
| DL1XH1-15 | 2026-09-04 01:07:40 | 50.15367 | 11.40148 | 126° | 11km/h | 25073m | 6m/s | -51.2°C | 3.9% | 26.3hPa | 2.6V | 08:30:00 | 01:33:03 | 00:00:00 | |
| DL1XH-west | 2026-09-04 01:07:39 | 50.15366 | 11.40153 | 109° | 13km/h | 25078m | 4.4m/s | -51.2°C | 0.5% | 26.3hPa | 2.6V | 18:12:15 | 01:33:04 | 00:00:00 | |
| DJ8HS-15 | 2026-09-04 01:07:39 | 50.15366 | 11.40153 | 110° | 15km/h | 25078m | 4.3m/s | -51.1°C | 3.9% | 26.2hPa | 2.5V | 00:00:00 | 01:33:04 | 00:00:00 | |
| DL1NUX | 2026-09-04 01:07:38 | 50.15369 | 11.40146 | 151° | 11km/h | 25067m | 5.5m/s | -51.2°C | 3.9% | 26.3hPa | 2.5V | 08:30:00 | 01:33:02 | 00:00:00 | |
| HSKMA3-T | 2026-09-04 01:07:34 | 50.15377 | 11.40145 | 193° | 9km/h | 25050m | 5.2m/s | -51.2°C | 0.5% | 26.4hPa | 2.5V | 18:12:15 | 01:32:59 | 00:00:00 | |
| DO3MHA-11 | 2026-09-04 01:07:34 | 50.15377 | 11.40145 | 193° | 16km/h | 25050m | 5.2m/s | -51.1°C | 3.9% | 26.3hPa | 2.6V | 00:00:00 | 01:32:59 | 00:00:00 | |
| DL1XH1-15 | 2026-09-04 01:07:33 | 50.15397 | 11.40127 | 124° | 20km/h | 25019m | 6m/s | -51.1°C | 3.8% | 26.5hPa | 2.6V | 08:30:00 | 01:32:53 | 00:00:00 | |
| 13BRC | 2026-09-04 01:07:33 | 50.15379 | 11.40145 | 180° | 11km/h | 25046m | 4.0m/s | -51.2°C | 0.9% | 26.4hPa | 2.6V | 00:00:00 | 00:00:00 | 00:00:00 | |
| DL1NUX | 2026-09-04 01:07:32 | 50.15400 | 11.40121 | 119° | 16km/h | 25013m | 4.5m/s | -51.1°C | 3.8% | 26.6hPa | 2.6V | 08:30:00 | 01:32:52 | 00:00:00 | |
| DD8BA-10 | 2026-09-04 01:07:32 | 50.15382 | 11.40145 | 168° | 16km/h | 25041m | 5.9m/s | -51.1°C | 3.9% | 26.4hPa | 2.5V | 00:00:00 | 00:00:00 | 00:00:00 | |
| DM0DOS-11 | 2026-09-04 01:07:31 | 50.15401 | 11.40116 | 126° | 15km/h | 25009m | 4.1m/s | -51°C | 3.8% | 26.6hPa | 2.5V | 08:30:00 | 01:32:51 | 00:00:00 | |
| DF8AY | 2026-09-04 01:07:29 | 50.15394 | 11.40133 | 133° | 22km/h | 25024m | 5.3m/s | -51.1°C | 0.5% | 26.5hPa | 2.5V | 18:12:15 | 01:32:54 | 00:00:00 | |
| AA1-15 | 2026-09-04 01:07:28 | 50.15397 | 11.40127 | 125° | 20km/h | 25019m | 6m/s | -51.1°C | 0.4% | 0hPa | 2.6V | 18:12:15 | 01:32:53 | 00:00:00 | |
| BIOWL1-15 | 2026-09-04 01:07:27 | 50.15399 | 11.40121 | 120° | 16km/h | 25014m | 4.5m/s | -51.1°C | 0.4% | 26.6hPa | 2.6V | 18:12:15 | 01:32:52 | 00:00:00 | |
| HSKMA3-T | 2026-09-04 01:07:23 | 50.15410 | 11.40109 | 188° | 15km/h | 24994m | 4.7m/s | -51°C | 0.4% | 26.6hPa | 2.6V | 18:12:15 | 01:32:48 | 00:00:00 | |
| SO1NDE-10 | 2026-09-04 01:07:23 | 50.15410 | 11.40109 | 188° | 11km/h | 24994m | 4.6m/s | -51.0°C | 3.8% | 26.6hPa | 2.7V | 00:00:00 | 01:32:48 | 00:00:00 | |
| DD8BA-10 | 2026-09-04 01:07:22 | 50.15414 | 11.40110 | 205° | 15km/h | 24989m | 5.0m/s | -51.0°C | 3.8% | 26.6hPa | 2.7V | 00:00:00 | 00:00:00 | 08:30:00 | |
| DM0DOS-11 | 2026-09-04 01:07:21 | 50.15432 | 11.40120 | 153° | 18km/h | 24958m | 4.7m/s | -50.9°C | 3.7% | 26.8hPa | 2.5V | 08:30:00 | 01:32:41 | 00:00:00 | |
| DF8AY | 2026-09-04 01:07:19 | 50.15421 | 11.40120 | 215° | 13km/h | 24973m | 4m/s | -50.9°C | 0.4% | 26.7hPa | 2.5V | 18:12:15 | 01:32:44 | 00:00:00 | |
| DJ8HS-15 | 2026-09-04 01:07:19 | 50.15421 | 11.40120 | 216° | 11km/h | 24973m | 4.0m/s | -50.9°C | 3.8% | 26.7hPa | 2.5V | 00:00:00 | 01:32:44 | 00:00:00 | |
| DL1NUX | 2026-09-04 01:07:18 | 50.15428 | 11.40122 | 172° | 16km/h | 24963m | 5.6m/s | -50.9°C | 3.8% | 26.7hPa | 2.5V | 08:30:00 | 01:32:42 | 00:00:00 | |
| DL1XH-west | 2026-09-04 01:07:17 | 50.15428 | 11.40122 | 172° | 16km/h | 24963m | 5.6m/s | -50.9°C | 0.4% | 26.8hPa | 2.5V | 18:12:15 | 01:32:42 | 00:00:00 | |
| BIOWL1-15 | 2026-09-04 01:07:16 | 50.15432 | 11.40120 | 153° | 18km/h | 24958m | 4.7m/s | -50.9°C | 0.4% | 26.8hPa | 2.5V | 18:12:15 | 01:32:41 | 00:00:00 | |
| HSKMA3-T | 2026-09-04 01:07:13 | 50.15441 | 11.40104 | 109° | 16km/h | 24942m | 5.5m/s | -50.9°C | 0.4% | 26.8hPa | 2.5V | 18:12:15 | 01:32:38 | 00:00:00 | |
| DD8BA-10 | 2026-09-04 01:07:12 | 50.15442 | 11.40099 | 101° | 9km/h | 24938m | 4.2m/s | -50.8°C | 3.8% | 26.8hPa | 2.5V | 00:00:00 | 00:00:00 | 00:00:00 | |
| DL1NUX | 2026-09-04 01:07:12 | 50.15450 | 11.40092 | 196° | 11km/h | 24913m | 5m/s | -50.9°C | 3.8% | 27hPa | 2.5V | 08:30:00 | 01:32:32 | 00:00:00 | |
| DM0DOS-11 | 2026-09-04 01:07:11 | 50.15452 | 11.40094 | 199° | 9km/h | 24907m | 6.1m/s | -50.9°C | 3.8% | 27hPa | 2.5V | 08:30:00 | 01:32:31 | 00:00:00 | |
| DL1XH-west | 2026-09-04 01:07:07 | 50.15450 | 11.40092 | 197° | 11km/h | 24913m | 5m/s | -50.9°C | 0.4% | 27hPa | 2.5V | 18:12:15 | 01:32:32 | 00:00:00 | |
| BIOWL1-15 | 2026-09-04 01:07:06 | 50.15456 | 11.40096 | 194° | 9km/h | 24897m | 4.7m/s | -50.9°C | 0.4% | 27hPa | 2.7V | 18:12:15 | 01:32:29 | 00:00:00 | |
| SONDE2-11 | 2026-09-04 01:07:06 | 50.15454 | 11.40095 | 201° | 7km/h | 24902m | 4.6m/s | -50.9°C | 0.9% | 27.0hPa | 2.6V | 00:00:00 | 00:00:00 | 00:00:00 | |
| OE5MMP-10 | 2026-09-04 01:07:05 | 50.15454 | 11.40095 | 202° | 9km/h | 24902m | 4.6m/s | -50.9°C | 3.8% | 26.9hPa | 2.6V | 00:00:00 | 01:32:30 | 00:00:00 | |
| DO3MHA-11 | 2026-09-04 01:07:04 | 50.15456 | 11.40096 | 194° | 9km/h | 24897m | 4.7m/s | -50.9°C | 3.8% | 27.0hPa | 2.6V | 00:00:00 | 01:32:29 | 00:00:00 | |
| DL1XH1-15 | 2026-09-04 01:07:03 | 50.15468 | 11.40089 | 95° | 7km/h | 24864m | 4.7m/s | -50.9°C | 3.8% | 27.2hPa | 2.6V | 08:30:00 | 01:32:23 | 00:00:00 | |
| DK7TD | 2026-09-04 01:07:03 | 50.15459 | 11.40096 | 188° | 11km/h | 24891m | 6.1m/s | -50.9°C | 0.4% | 27hPa | 2.6V | 18:12:15 | 01:32:28 | 00:00:00 | |
| HSKMA3-T | 2026-09-04 01:07:02 | 50.15462 | 11.40097 | 178° | 11km/h | 24886m | 5.2m/s | -50.9°C | 0.4% | 27.1hPa | 2.6V | 18:12:15 | 01:32:27 | 00:00:00 | |
| DD8BA-10 | 2026-09-04 01:07:02 | 50.15462 | 11.40097 | 179° | 9km/h | 24886m | 5.2m/s | -50.9°C | 3.8% | 27.0hPa | 2.6V | 00:00:00 | 00:00:00 | 00:00:00 | |
| DM0DOS-11 | 2026-09-04 01:07:01 | 50.15469 | 11.40083 | 115° | 7km/h | 24853m | 5.4m/s | -50.9°C | 3.7% | 27.2hPa | 2.6V | 08:30:00 | 01:32:21 | 00:00:00 | |
| DF8AY | 2026-09-04 01:06:58 | 50.15468 | 11.40089 | 96° | 7km/h | 24864m | 4.7m/s | -50.9°C | 0.4% | 27.2hPa | 2.6V | 18:12:15 | 01:32:23 | 00:00:00 | |
| DL1XH-west | 2026-09-04 01:06:57 | 50.15468 | 11.40086 | 104° | 7km/h | 24858m | 5.8m/s | -50.9°C | 0.4% | 27.2hPa | 2.6V | 18:12:15 | 01:32:22 | 00:00:00 | |
| AA1-15 | 2026-09-04 01:06:55 | 50.15470 | 11.40080 | 125° | 7km/h | 24848m | 4.5m/s | 0°C | 0% | 0hPa | 2.5V | 18:12:15 | 01:32:20 | 00:00:00 | |
| BIOWL1-15 | 2026-09-04 01:06:54 | 50.15471 | 11.40078 | 123° | 7km/h | 24843m | 5.4m/s | -50.9°C | 0.4% | 27.2hPa | 2.5V | 18:12:15 | 01:32:19 | 00:00:00 | |
| SO1NDE-10 | 2026-09-04 01:06:53 | 50.15471 | 11.40076 | 113° | 9km/h | 24838m | 5.9m/s | -50.9°C | 3.8% | 27.2hPa | 2.5V | 00:00:00 | 01:32:18 | 00:00:00 | |
| DL1XH1-15 | 2026-09-04 01:06:52 | 50.15479 | 11.40078 | 216° | 13km/h | 24811m | 4.5m/s | -51.1°C | 3.8% | 27.4hPa | 2.5V | 08:30:00 | 01:32:13 | 00:00:00 | |
| HSKMA3-T | 2026-09-04 01:06:52 | 50.15472 | 11.40074 | 119° | 4km/h | 24832m | 5m/s | -51°C | 0.3% | 27.3hPa | 2.7V | 18:12:15 | 01:32:17 | 00:00:00 | |
| DL1NUX | 2026-09-04 01:06:52 | 50.15482 | 11.40081 | 227° | 11km/h | 24806m | 5.7m/s | -51.2°C | 3.7% | 27.4hPa | 2.5V | 08:30:00 | 01:32:12 | 00:00:00 | |
| DF8AY | 2026-09-04 01:06:47 | 50.15482 | 11.40081 | 228° | 11km/h | 24806m | 5.7m/s | -51.2°C | 0.3% | 27.4hPa | 2.5V | 18:12:15 | 01:32:12 | 00:00:00 | |
| DL1XH-west | 2026-09-04 01:06:46 | 50.15483 | 11.40085 | 250° | 9km/h | 24800m | 5.9m/s | -51.2°C | 0.4% | 27.4hPa | 2.7V | 18:12:15 | 01:32:11 | 00:00:00 | |
| BIOWL1-15 | 2026-09-04 01:06:44 | 50.15483 | 11.40090 | 304° | 5km/h | 24790m | 4.4m/s | -51.4°C | 0.4% | 27.5hPa | 2.6V | 18:12:15 | 01:32:09 | 00:00:00 | |
| DO9HM | 2026-09-04 01:06:44 | 50.15483 | 11.40090 | 305° | 5km/h | 24790m | 4.4m/s | 0°C | 0% | 0hPa | 2.5V | 00:00:00 | 00:00:00 | 00:00:00 | |
| DL1NUX | 2026-09-04 01:06:42 | 50.15488 | 11.40085 | 133° | 7km/h | 24752m | 4.7m/s | -51.3°C | 3.9% | 27.6hPa | 2.5V | 08:30:00 | 01:32:02 | 00:00:00 | |
| HSKMA3-T | 2026-09-04 01:06:41 | 50.15482 | 11.40092 | 160° | 5km/h | 24774m | 5.4m/s | -51.4°C | 0.5% | 27.6hPa | 2.5V | 18:12:15 | 01:32:06 | 00:00:00 | |
| DB0ND-19 | 2026-09-04 01:06:41 | 50.15484 | 11.40091 | 152° | 7km/h | 24769m | 4.8m/s | -51.4°C | 0.9% | 27.6hPa | 2.6V | 00:00:00 | 00:00:00 | 00:00:00 | |
| DL1XH1-15 | 2026-09-04 01:06:40 | 50.15487 | 11.40087 | 130° | 7km/h | 24758m | 6.1m/s | -51.3°C | 3.9% | 27.6hPa | 2.6V | 08:30:00 | 01:32:03 | 00:00:00 | |
| AA1-15 | 2026-09-04 01:06:39 | 50.15486 | 11.40089 | 145° | 9km/h | 24763m | 5.7m/s | 0°C | 0% | 0hPa | 2.7V | 18:12:15 | 01:32:04 | 00:00:00 | |
| DF8AY | 2026-09-04 01:06:36 | 50.15490 | 11.40083 | 149° | 7km/h | 24747m | 5.1m/s | -51.3°C | 0.5% | 27.7hPa | 2.5V | 18:12:15 | 01:32:01 | 00:00:00 | |
| DL1XH-west | 2026-09-04 01:06:35 | 50.15492 | 11.40081 | 165° | 9km/h | 24742m | 6.1m/s | -51.3°C | 0.4% | 27.7hPa | 2.5V | 18:12:15 | 01:32:00 | 00:00:00 | |
| SONDE2-11 | 2026-09-04 01:06:35 | 50.15494 | 11.40081 | 176° | 9km/h | 24736m | 4.7m/s | -51.2°C | 0.9% | 27.7hPa | 2.7V | 00:00:00 | 00:00:00 | 00:00:00 | |
| DF8AY-15 | 2026-09-04 01:06:34 | 50.15494 | 11.40081 | 177° | 9km/h | 24737m | 4.6m/s | -51.2°C | 3.9% | 27.7hPa | 2.7V | 00:00:00 | 01:31:59 | 00:00:00 | |
| BIOWL1-15 | 2026-09-04 01:06:34 | 50.15494 | 11.40081 | 176° | 9km/h | 24736m | 4.7m/s | -51.2°C | 0.4% | 27.7hPa | 2.6V | 18:12:15 | 01:31:59 | 00:00:00 | |
| DL1XH1-15 | 2026-09-04 01:06:33 | 50.15499 | 11.40070 | 113° | 11km/h | 24707m | 5.6m/s | -51.1°C | 3.8% | 27.8hPa | 2.7V | 08:30:00 | 01:31:53 | 00:00:00 | |
| HSKMA3-T | 2026-09-04 01:06:30 | 50.15499 | 11.40078 | 81° | 7km/h | 24716m | 4.6m/s | -51.1°C | 0.4% | 27.8hPa | 2.5V | 18:12:15 | 01:31:55 | 00:00:00 | |
| BIOWL1-15 | 2026-09-04 01:06:25 | 50.15524 | 11.40064 | 215° | 9km/h | 24660m | 5.7m/s | -51.1°C | 0.4% | 28.1hPa | 2.5V | 18:12:15 | 01:31:44 | 00:00:00 | |
| DF8AY | 2026-09-04 01:06:25 | 50.15509 | 11.40059 | 162° | 18km/h | 24691m | 4.4m/s | -51.1°C | 0.4% | 27.9hPa | 2.5V | 18:12:15 | 01:31:50 | 00:00:00 | |
| DL1XH-west | 2026-09-04 01:06:24 | 50.15513 | 11.40058 | 170° | 16km/h | 24686m | 5.5m/s | -51.1°C | 0.4% | 27.9hPa | 2.5V | 18:12:15 | 01:31:49 | 00:00:00 | |
| PG1ADW-2 | 2026-09-04 01:06:24 | 50.15513 | 11.40058 | 171° | 11km/h | 24686m | 5.4m/s | -51.0°C | 3.8% | 27.9hPa | 2.5V | 00:00:00 | 00:00:00 | 08:30:00 | |
| SO1NDE-10 | 2026-09-04 01:06:23 | 50.15517 | 11.40057 | 182° | 11km/h | 24681m | 5.5m/s | -51.0°C | 3.8% | 27.9hPa | 2.5V | 00:00:00 | 01:31:48 | 00:00:00 | |
| DL1XH1-15 | 2026-09-04 01:06:22 | 50.15526 | 11.40065 | 201° | 9km/h | 24654m | 5.2m/s | -51.1°C | 3.8% | 28.1hPa | 2.5V | 08:30:00 | 01:31:43 | 00:00:00 | |
| DL1NUX | 2026-09-04 01:06:22 | 50.15528 | 11.40066 | 184° | 7km/h | 24649m | 4.7m/s | -51.1°C | 3.8% | 28.1hPa | 2.5V | 08:30:00 | 01:31:42 | 00:00:00 | |
| DM0DOS-11 | 2026-09-04 01:06:21 | 50.15529 | 11.40066 | 161° | 5km/h | 24644m | 5.7m/s | -51.1°C | 3.8% | 28.1hPa | 2.7V | 08:30:00 | 01:31:41 | 00:00:00 | |
| HSKMA3-T | 2026-09-04 01:06:20 | 50.15522 | 11.40062 | 223° | 9km/h | 24665m | 5.3m/s | -51.1°C | 0.4% | 28hPa | 2.6V | 18:12:15 | 01:31:45 | 00:00:00 | |
| DF8AY | 2026-09-04 01:06:15 | 50.15530 | 11.40065 | 129° | 4km/h | 24639m | 6.1m/s | -51.2°C | 0.4% | 28.1hPa | 2.6V | 18:12:15 | 01:31:40 | 00:00:00 | |
| DL1XH-west | 2026-09-04 01:06:14 | 50.15531 | 11.40064 | 123° | 5km/h | 24633m | 4.5m/s | -51.2°C | 0.3% | 28.1hPa | 2.5V | 18:12:15 | 01:31:39 | 00:00:00 | |
| DO3MHA-11 | 2026-09-04 01:06:14 | 50.15531 | 11.40064 | 124° | 11km/h | 24633m | 4.5m/s | -51.1°C | 3.7% | 28.1hPa | 2.5V | 00:00:00 | 01:31:39 | 00:00:00 | |
| DF8AY-15 | 2026-09-04 01:06:13 | 50.15532 | 11.40062 | 148° | 11km/h | 24629m | 4.5m/s | -51.2°C | 3.8% | 28.1hPa | 2.5V | 00:00:00 | 01:31:38 | 00:00:00 | |
| DL1NUX | 2026-09-04 01:06:12 | 50.15553 | 11.40069 | 237° | 15km/h | 24596m | 5.2m/s | -51.4°C | 3.8% | 28.3hPa | 2.5V | 08:30:00 | 01:31:32 | 00:00:00 | |
| AA1-15 | 2026-09-04 01:06:11 | 50.15538 | 11.40060 | 178° | 16km/h | 24617m | 5.3m/s | 0°C | 0% | 0hPa | 2.6V | 18:12:15 | 01:31:36 | 00:00:00 | |
| DM0DOS-11 | 2026-09-04 01:06:10 | 50.15554 | 11.40074 | 247° | 13km/h | 24591m | 5.5m/s | -51.5°C | 3.8% | 28.3hPa | 2.5V | 08:30:00 | 01:31:31 | 00:00:00 | |
| DL1XH1-15 | 2026-09-04 01:06:10 | 50.15550 | 11.40065 | 217° | 15km/h | 24602m | 6.2m/s | -51.3°C | 3.8% | 28.3hPa | 2.6V | 08:30:00 | 01:31:33 | 00:00:00 | |
| DK7TD | 2026-09-04 01:06:10 | 50.15542 | 11.40060 | 189° | 18km/h | 24613m | 4.5m/s | -51.3°C | 0.3% | 0hPa | 2.7V | 18:12:15 | 01:31:35 | 00:00:00 | |
| HSKMA3-T | 2026-09-04 01:06:09 | 50.15546 | 11.40062 | 200° | 16km/h | 24608m | 5.6m/s | -51.3°C | 0.4% | 28.3hPa | 2.6V | 18:12:15 | 01:31:34 | 00:00:00 | |
| DL1XH-west | 2026-09-04 01:06:04 | 50.15555 | 11.40082 | 273° | 7km/h | 24580m | 4.6m/s | -51.7°C | 0.4% | 28.4hPa | 2.5V | 18:12:15 | 01:31:29 | 00:00:00 | |
| SONDE2-11 | 2026-09-04 01:06:04 | 50.15555 | 11.40084 | 326° | 5km/h | 24575m | 5.2m/s | -51.7°C | 0.9% | 28.4hPa | 2.7V | 00:00:00 | 00:00:00 | 00:00:00 | |
| DL1XH1-15 | 2026-09-04 01:06:03 | 50.15546 | 11.40081 | 168° | 4km/h | 24547m | 5.7m/s | -51.8°C | 4% | 28.6hPa | 2.7V | 08:30:00 | 01:31:23 | 00:00:00 | |
| DL1NUX | 2026-09-04 01:06:02 | 50.15547 | 11.40081 | 200° | 9km/h | 24542m | 4.9m/s | -51.8°C | 4% | 28.6hPa | 2.6V | 08:30:00 | 01:31:22 | 00:00:00 | |
| BIOWL1-15 | 2026-09-04 01:06:00 | 50.15547 | 11.40081 | 201° | 9km/h | 24542m | 4.9m/s | -51.8°C | 0.5% | 28.6hPa | 2.6V | 18:12:15 | 01:31:22 | 00:00:00 | |
| DM0DOS-11 | 2026-09-04 01:05:59 | 50.15550 | 11.40083 | 211° | 13km/h | 24537m | 5.5m/s | -51.8°C | 3.9% | 28.6hPa | 2.5V | 08:30:00 | 01:31:21 | 00:00:00 | |
| DK7TD | 2026-09-04 01:05:59 | 50.15546 | 11.40082 | 36° | 5km/h | 24553m | 6.2m/s | -51.8°C | 0.5% | 0hPa | 2.5V | 18:12:15 | 01:31:24 | 00:00:00 | |
| AA1-15 | 2026-09-04 01:05:58 | 50.15546 | 11.40081 | 169° | 4km/h | 24547m | 5.7m/s | 0°C | 0% | 0hPa | 2.7V | 18:12:15 | 01:31:23 | 00:00:00 | |
| DL1XH-west | 2026-09-04 01:05:54 | 50.15555 | 11.40091 | 234° | 15km/h | 24526m | 5.2m/s | -51.8°C | 0.5% | 28.6hPa | 2.5V | 18:12:15 | 01:31:19 | 00:00:00 | |
| SO1NDE-10 | 2026-09-04 01:05:53 | 50.15557 | 11.40096 | 238° | 13km/h | 24521m | 4.3m/s | -51.7°C | 4.0% | 28.6hPa | 2.5V | 00:00:00 | 01:31:18 | 00:00:00 | |
| DL1NUX | 2026-09-04 01:05:52 | 50.15566 | 11.40113 | 250° | 7km/h | 24487m | 4.7m/s | -51.8°C | 4% | 28.8hPa | 2.5V | 08:30:00 | 01:31:12 | 00:00:00 | |
| DL6DJ-15 | 2026-09-04 01:05:51 | 50.15561 | 11.40103 | 223° | 11km/h | 24510m | 6.1m/s | -51.8°C | 1.0% | 28.7hPa | 2.5V | 00:00:00 | 00:00:00 | 00:00:00 | |
| DM0DOS-11 | 2026-09-04 01:05:49 | 50.15567 | 11.40115 | 228° | 7km/h | 24483m | 4.4m/s | -51.7°C | 4% | 28.8hPa | 2.5V | 08:30:00 | 01:31:11 | 00:00:00 | |
| HSKMA3-T | 2026-09-04 01:05:48 | 50.15565 | 11.40110 | 243° | 7km/h | 24493m | 6.2m/s | -51.8°C | 0.5% | 28.8hPa | 2.5V | 18:12:15 | 01:31:13 | 00:00:00 | |
| DK7TD | 2026-09-04 01:05:47 | 50.15566 | 11.40113 | 251° | 7km/h | 24487m | 4.7m/s | -51.8°C | 0.5% | 0hPa | 2.5V | 18:12:15 | 01:31:12 | 00:00:00 | |
| BIOWL1-15 | 2026-09-04 01:05:47 | 50.15569 | 11.40117 | 206° | 9km/h | 24477m | 6.5m/s | -51.7°C | 0.4% | 28.8hPa | 2.7V | 18:12:15 | 01:31:10 | 00:00:00 | |
| DF8AY | 2026-09-04 01:05:43 | 50.15574 | 11.40118 | 181° | 15km/h | 24466m | 4.9m/s | -51.7°C | 0.5% | 28.9hPa | 2.5V | 18:12:15 | 01:31:08 | 00:00:00 | |
| DM0DOS-11 | 2026-09-04 01:05:39 | 50.15595 | 11.40125 | 177° | 15km/h | 24429m | 4.7m/s | -51.5°C | 3.9% | 29.1hPa | 2.5V | 08:30:00 | 01:31:01 | 00:00:00 | |
| DK7TD | 2026-09-04 01:05:37 | 50.15591 | 11.40124 | 186° | 13km/h | 24434m | 6.1m/s | -51.6°C | 0.5% | 0hPa | 2.5V | 18:12:15 | 01:31:02 | 00:00:00 | |
| BIOWL1-15 | 2026-09-04 01:05:37 | 50.15598 | 11.40124 | 172° | 15km/h | 24424m | 5m/s | -51.5°C | 0.4% | 29.1hPa | 2.5V | 18:12:15 | 01:31:00 | 00:00:00 | |
| DL1XH-west | 2026-09-04 01:05:32 | 50.15607 | 11.40121 | 165° | 13km/h | 24409m | 3.8m/s | -51.5°C | 0.5% | 29.2hPa | 2.6V | 18:12:15 | 01:30:57 | 00:00:00 | |
| EDDB2-11 | 2026-09-04 01:05:30 | 50.15620 | 11.40115 | 164° | 24km/h | 24393m | 5.5m/s | -51.5°C | 0.9% | 29.2hPa | 2.6V | 00:00:00 | 00:00:00 | 00:00:00 | |
| DM0DOS-11 | 2026-09-04 01:05:29 | 50.15638 | 11.40110 | 174° | 18km/h | 24376m | 5.5m/s | -51.4°C | 3.8% | 29.3hPa | 2.6V | 08:30:00 | 01:30:51 | 00:00:00 | |
| DK7TD | 2026-09-04 01:05:27 | 50.15632 | 11.40111 | 170° | 22km/h | 24382m | 5.8m/s | -51.4°C | 0.4% | 0hPa | 2.7V | 18:12:15 | 01:30:52 | 00:00:00 | |
| HSKMA3-T | 2026-09-04 01:05:26 | 50.15638 | 11.40110 | 175° | 18km/h | 24376m | 5.6m/s | -51.4°C | 0.4% | 29.3hPa | 2.6V | 18:12:15 | 01:30:51 | 00:00:00 | |
| DJ2DS-15 | 2026-09-04 01:05:25 | 50.15646 | 11.40108 | 164° | 15km/h | 24367m | 5.0m/s | -51.3°C | 1.0% | 29.4hPa | 2.5V | 00:00:00 | 00:00:00 | 00:00:00 | |
| SONCRA | 2026-09-04 01:05:24 | 50.15649 | 11.40106 | 154° | 16km/h | 24361m | 6.3m/s | -51.3°C | 0.9% | 29.4hPa | 2.5V | 00:00:00 | 00:00:00 | 00:00:00 | |
| SO1NDE-10 | 2026-09-04 01:05:23 | 50.15649 | 11.40106 | 155° | 29km/h | 24361m | 6.2m/s | -51.3°C | 3.8% | 29.3hPa | 2.5V | 00:00:00 | 01:30:48 | 08:30:00 | |
| DL1XH1-15 | 2026-09-04 01:05:22 | 50.15670 | 11.40084 | 152° | 18km/h | 24333m | 4.8m/s | -51.4°C | 3.7% | 29.5hPa | 2.5V | 08:30:00 | 01:30:43 | 00:00:00 | |
| DF8AY | 2026-09-04 01:05:22 | 50.15654 | 11.40102 | 148° | 20km/h | 24355m | 5.7m/s | -51.3°C | 0.4% | 29.4hPa | 2.7V | 18:12:15 | 01:30:47 | 00:00:00 | |
| DL1NUX | 2026-09-04 01:05:22 | 50.15675 | 11.40081 | 157° | 22km/h | 24329m | 4m/s | -51.5°C | 3.7% | 29.5hPa | 2.5V | 08:30:00 | 01:30:42 | 00:00:00 | |
| DL1XH-west | 2026-09-04 01:05:21 | 50.15658 | 11.40098 | 145° | 22km/h | 24350m | 5.2m/s | -51.4°C | 0.3% | 29.4hPa | 2.6V | 18:12:15 | 01:30:46 | 00:00:00 | |
| DB0UT-7 | 2026-09-04 01:05:21 | 50.15658 | 11.40097 | 145° | 31km/h | 24350m | 5.1m/s | -51.3°C | 3.7% | 29.4hPa | 2.6V | 00:00:00 | 01:30:46 | 00:00:00 | |
| DL6DJ-15 | 2026-09-04 01:05:20 | 50.15662 | 11.40093 | 143° | 20km/h | 24344m | 5.0m/s | -51.4°C | 0.9% | 29.5hPa | 2.5V | 00:00:00 | 00:00:00 | 00:00:00 | |
| DJ8HS-15 | 2026-09-04 01:05:19 | 50.15666 | 11.40088 | 146° | 31km/h | 24339m | 6.4m/s | -51.4°C | 3.8% | 29.4hPa | 2.5V | 00:00:00 | 01:30:44 | 08:30:00 | |
| DL1XH-15 | 2026-09-04 01:05:18 | 50.15687 | 11.40074 | 161° | 31km/h | 24317m | 6.2m/s | -51.7°C | 0% | 29.6hPa | 2.6V | 08:30:00 | 01:30:40 | 00:00:00 | |
| DK7TD | 2026-09-04 01:05:16 | 50.15680 | 11.40078 | 160° | 26km/h | 24323m | 6.3m/s | -51.5°C | 0.4% | 0hPa | 2.7V | 18:12:15 | 01:30:41 | 00:00:00 | |
| HSKMA3-T | 2026-09-04 01:05:15 | 50.15687 | 11.40074 | 161° | 31km/h | 24317m | 6.2m/s | -51.7°C | 0.4% | 29.6hPa | 2.6V | 18:12:15 | 01:30:40 | 00:00:00 | |
| AA1-15 | 2026-09-04 01:05:12 | 50.15711 | 11.40060 | 156° | 33km/h | 24301m | 5.9m/s | 0°C | 0% | 0hPa | 2.5V | 18:12:15 | 01:30:37 | 00:00:00 | |
| DL1NUX | 2026-09-04 01:05:12 | 50.15739 | 11.40028 | 132° | 35km/h | 24274m | 6.1m/s | -52.1°C | 3.9% | 29.8hPa | 2.5V | 08:30:00 | 01:30:32 | 00:00:00 | |
| DF8AY | 2026-09-04 01:05:11 | 50.15717 | 11.40055 | 154° | 27km/h | 24295m | 6m/s | -51.8°C | 0.4% | 29.7hPa | 2.5V | 18:12:15 | 01:30:36 | 00:00:00 | |
| DL1XH1-15 | 2026-09-04 01:05:10 | 50.15734 | 11.40037 | 135° | 29km/h | 24280m | 6.2m/s | -52°C | 3.9% | 29.8hPa | 2.6V | 08:30:00 | 01:30:33 | 00:00:00 | |
| DL1XH-west | 2026-09-04 01:05:10 | 50.15728 | 11.40044 | 141° | 26km/h | 24286m | 4.7m/s | -51.9°C | 0.4% | 29.7hPa | 2.6V | 18:12:15 | 01:30:34 | 00:00:00 | |
| DB0ND-19 | 2026-09-04 01:05:08 | 50.15739 | 11.40028 | 132° | 33km/h | 24274m | 6.1m/s | -52.1°C | 1.0% | 29.8hPa | 2.7V | 00:00:00 | 00:00:00 | 00:00:00 | |
| DL1XH-15 | 2026-09-04 01:05:06 | 50.15759 | 11.39994 | 134° | 38km/h | 24258m | 5.3m/s | -52.5°C | 0% | 29.9hPa | 2.7V | 08:30:00 | 01:30:29 | 00:00:00 | |
| DK7TD | 2026-09-04 01:05:06 | 50.15745 | 11.40017 | 132° | 38km/h | 24268m | 5.4m/s | -52.2°C | 0.5% | 0hPa | 2.5V | 18:12:15 | 01:30:31 | 00:00:00 | |
| HSKMA3-T | 2026-09-04 01:05:05 | 50.15752 | 11.40005 | 133° | 40km/h | 24263m | 4.6m/s | -52.3°C | 0.5% | 29.8hPa | 2.5V | 18:12:15 | 01:30:30 | 00:00:00 | |
| PG1ADW-2 | 2026-09-04 01:05:04 | 50.15759 | 11.39994 | 135° | 31km/h | 24259m | 5.3m/s | -52.4°C | 4.1% | 29.8hPa | 2.7V | 00:00:00 | 00:00:00 | 00:00:00 | |
| DL1XH1-15 | 2026-09-04 01:05:03 | 50.15793 | 11.39936 | 124° | 31km/h | 24226m | 4.7m/s | -52.4°C | 4% | 30hPa | 2.7V | 08:30:00 | 01:30:23 | 00:00:00 | |
| PETON7-10 | 2026-09-04 01:05:03 | 50.15766 | 11.39984 | 136° | 31km/h | 24253m | 6.1m/s | -52.4°C | 4.1% | 29.8hPa | 2.6V | 00:00:00 | 00:00:00 | 08:30:00 | |
| DL1NUX | 2026-09-04 01:05:02 | 50.15797 | 11.39926 | 121° | 29km/h | 24221m | 6.2m/s | -52.4°C | 4% | 30.1hPa | 2.7V | 08:30:00 | 01:30:22 | 00:00:00 | |
| DF8AY | 2026-09-04 01:05:00 | 50.15783 | 11.39956 | 131° | 33km/h | 24236m | 5.8m/s | -52.6°C | 0.6% | 30hPa | 2.5V | 18:12:15 | 01:30:25 | 00:00:00 | |
| DL1XH-west | 2026-09-04 01:04:58 | 50.15793 | 11.39936 | 125° | 31km/h | 24226m | 4.7m/s | -52.4°C | 0.5% | 30hPa | 2.7V | 18:12:15 | 01:30:23 | 00:00:00 | |
| DD8BA-10 | 2026-09-04 01:04:58 | 50.15793 | 11.39936 | 125° | 33km/h | 24226m | 4.6m/s | -52.4°C | 4.0% | 30.0hPa | 2.5V | 00:00:00 | 00:00:00 | 00:00:00 | |
| DM0DOS-11 | 2026-09-04 01:04:57 | 50.15817 | 11.39871 | 118° | 38km/h | 24194m | 4.4m/s | -52.4°C | 3.9% | 30.1hPa | 2.5V | 08:30:00 | 01:30:17 | 00:00:00 | |
| DK7TD | 2026-09-04 01:04:55 | 50.15805 | 11.39906 | 118° | 29km/h | 24210m | 4.5m/s | -52.3°C | 0.5% | 0hPa | 2.5V | 18:12:15 | 01:30:20 | 00:00:00 | |
| HSKMA3-T | 2026-09-04 01:04:54 | 50.15808 | 11.39896 | 118° | 33km/h | 24205m | 5.9m/s | -52.3°C | 0.4% | 30.1hPa | 2.5V | 18:12:15 | 01:30:19 | 00:00:00 | |
| DO3MHA-11 | 2026-09-04 01:04:54 | 50.15808 | 11.39895 | 118° | 29km/h | 24206m | 5.9m/s | -52.3°C | 3.9% | 30.0hPa | 2.5V | 00:00:00 | 01:30:19 | 00:00:00 | |
| SO1NDE-10 | 2026-09-04 01:04:53 | 50.15812 | 11.39884 | 119° | 20km/h | 24200m | 5.6m/s | -52.4°C | 4.0% | 30.1hPa | 2.5V | 00:00:00 | 01:30:18 | 00:00:00 | |
| DL1XH1-15 | 2026-09-04 01:04:52 | 50.15833 | 11.39828 | 124° | 24km/h | 24173m | 4.9m/s | -52.6°C | 4% | 30.2hPa | 2.5V | 08:30:00 | 01:30:13 | 00:00:00 | |
| DL1NUX | 2026-09-04 01:04:52 | 50.15836 | 11.39821 | 126° | 22km/h | 24168m | 5.7m/s | -52.7°C | 4% | 30.3hPa | 2.5V | 08:30:00 | 01:30:12 | 00:00:00 | |
| DF8AY | 2026-09-04 01:04:50 | 50.15826 | 11.39847 | 121° | 33km/h | 24185m | 6.1m/s | -52.5°C | 0.5% | 30.2hPa | 2.6V | 18:12:15 | 01:30:15 | 00:00:00 | |
| DJ2DS-15 | 2026-09-04 01:04:49 | 50.15833 | 11.39828 | 124° | 22km/h | 24174m | 4.9m/s | -52.6°C | 1.0% | 30.2hPa | 2.5V | 00:00:00 | 00:00:00 | 00:00:00 | |
| NBG1-10 | 2026-09-04 01:04:48 | 50.15833 | 11.39828 | 125° | 16km/h | 24174m | 4.9m/s | -52.6°C | 4.0% | 30.2hPa | 2.5V | 00:00:00 | 01:30:13 | 00:00:00 | |
| DM0DOS-11 | 2026-09-04 01:04:47 | 50.15850 | 11.39790 | 109° | 15km/h | 24140m | 6m/s | -52.9°C | 4.1% | 30.4hPa | 2.5V | 08:30:00 | 01:30:07 | 00:00:00 | |
| DL1XH-west | 2026-09-04 01:04:47 | 50.15836 | 11.39821 | 127° | 22km/h | 24168m | 5.7m/s | -52.7°C | 0.5% | 30.3hPa | 2.5V | 18:12:15 | 01:30:12 | 00:00:00 | |
| DK7TD | 2026-09-04 01:04:45 | 50.15843 | 11.39808 | 127° | 22km/h | 24157m | 4.9m/s | 0°C | 0% | 0hPa | 2.6V | 18:12:15 | 01:30:10 | 00:00:00 | |
| HSKMA3-T | 2026-09-04 01:04:44 | 50.15846 | 11.39802 | 123° | 18km/h | 24152m | 4.6m/s | -52.9°C | 0.5% | 30.3hPa | 2.5V | 18:12:15 | 01:30:09 | 00:00:00 | |
| PG1ADW-2 | 2026-09-04 01:04:44 | 50.15846 | 11.39802 | 124° | 16km/h | 24153m | 4.6m/s | -52.8°C | 4.0% | 30.3hPa | 2.5V | 00:00:00 | 00:00:00 | 00:00:00 | |
| 13BRC | 2026-09-04 01:04:43 | 50.15846 | 11.39802 | 124° | 18km/h | 24153m | 4.6m/s | -52.9°C | 1.0% | 30.3hPa | 2.5V | 00:00:00 | 00:00:00 | 00:00:00 | |
| DL1NUX | 2026-09-04 01:04:42 | 50.15859 | 11.39757 | 123° | 18km/h | 24114m | 4.7m/s | -53.1°C | 4.2% | 30.5hPa | 2.5V | 08:30:00 | 01:30:02 | 00:00:00 | |
| OE5MMP-10 | 2026-09-04 01:04:41 | 50.15851 | 11.39784 | 106° | 15km/h | 24135m | 5.2m/s | -52.9°C | 4.1% | 30.4hPa | 2.6V | 00:00:00 | 01:30:06 | 00:00:00 | |
| DL1XH1-15 | 2026-09-04 01:04:40 | 50.15857 | 11.39764 | 119° | 22km/h | 24119m | 4.3m/s | -53°C | 4.2% | 30.5hPa | 2.6V | 08:30:00 | 01:30:03 | 00:00:00 | |
| DF8AY | 2026-09-04 01:04:40 | 50.15852 | 11.39778 | 110° | 18km/h | 24129m | 6.1m/s | -53°C | 0.5% | 30.4hPa | 2.7V | 18:12:15 | 01:30:05 | 00:00:00 | |
| DL1XH-west | 2026-09-04 01:04:37 | 50.15859 | 11.39757 | 123° | 18km/h | 24114m | 4.7m/s | -53.1°C | 0.6% | 30.5hPa | 2.5V | 18:12:15 | 01:30:02 | 00:00:00 | |
| BIOWL1-15 | 2026-09-04 01:04:36 | 50.15864 | 11.39748 | 142° | 11km/h | 24103m | 5.1m/s | -53.1°C | 0.6% | 30.6hPa | 2.5V | 18:12:15 | 01:30:00 | 00:00:00 | |
| HSKMA3-T | 2026-09-04 01:04:33 | 50.15868 | 11.39745 | 159° | 11km/h | 24093m | 5.5m/s | -53.1°C | 0.6% | 30.6hPa | 2.7V | 18:12:15 | 01:29:58 | 00:00:00 | |
| BIOWL9-15 | 2026-09-04 01:04:33 | 50.15871 | 11.39743 | 153° | 13km/h | 24088m | 5.5m/s | -53.1°C | 1.0% | 30.7hPa | 2.6V | 00:00:00 | 00:00:00 | 00:00:00 | |
| DL1NUX | 2026-09-04 01:04:32 | 50.15887 | 11.39723 | 131° | 16km/h | 24062m | 4.6m/s | -53.1°C | 4.3% | 30.8hPa | 2.6V | 08:30:00 | 01:29:52 | 00:00:00 | |
| DF8AY | 2026-09-04 01:04:29 | 50.15882 | 11.39731 | 139° | 16km/h | 24072m | 5.4m/s | -53.2°C | 0.7% | 30.7hPa | 2.5V | 18:12:15 | 01:29:54 | 00:00:00 | |
| DL1XH-west | 2026-09-04 01:04:26 | 50.15894 | 11.39712 | 134° | 20km/h | 24051m | 6.3m/s | -53.1°C | 0.7% | 30.8hPa | 2.5V | 18:12:15 | 01:29:50 | 00:00:00 | |
| HSKMA3-T | 2026-09-04 01:04:23 | 50.15902 | 11.39701 | 142° | 22km/h | 24040m | 4.5m/s | -53.1°C | 0.7% | 30.9hPa | 2.6V | 18:12:15 | 01:29:48 | 00:00:00 | |
| SO1NDE-10 | 2026-09-04 01:04:23 | 50.15902 | 11.39701 | 143° | 18km/h | 24041m | 4.5m/s | -53.0°C | 4.3% | 30.8hPa | 2.5V | 00:00:00 | 01:29:48 | 00:00:00 | |
| DL1XH1-15 | 2026-09-04 01:04:22 | 50.15920 | 11.39685 | 147° | 16km/h | 24013m | 5.3m/s | -52.9°C | 4.2% | 31hPa | 2.5V | 08:30:00 | 01:29:43 | 00:00:00 | |
| BIOWL1-15 | 2026-09-04 01:04:21 | 50.15932 | 11.39656 | 116° | 24km/h | 23988m | 6.3m/s | -52.8°C | 0.7% | 31.1hPa | 2.5V | 18:12:15 | 01:29:38 | 00:00:00 | |
| DF8AY | 2026-09-04 01:04:18 | 50.15920 | 11.39685 | 148° | 16km/h | 24013m | 5.3m/s | -52.9°C | 0.6% | 31hPa | 2.5V | 18:12:15 | 01:29:43 | 00:00:00 | |
| DL1XH-west | 2026-09-04 01:04:16 | 50.15926 | 11.39676 | 128° | 15km/h | 24003m | 6m/s | -52.8°C | 0.6% | 31.1hPa | 2.5V | 18:12:15 | 01:29:41 | 00:00:00 | |
| PETON7-10 | 2026-09-04 01:04:16 | 50.15926 | 11.39676 | 128° | 20km/h | 24003m | 5.9m/s | -52.8°C | 4.2% | 31.0hPa | 2.5V | 00:00:00 | 00:00:00 | 00:00:00 | |
| NBG1-10 | 2026-09-04 01:04:15 | 50.15928 | 11.39671 | 117° | 18km/h | 23998m | 4.3m/s | -52.8°C | 4.2% | 31.1hPa | 2.7V | 00:00:00 | 01:29:40 | 08:30:00 | |
| DM0DOS-11 | 2026-09-04 01:04:14 | 50.15936 | 11.39647 | 119° | 27km/h | 23982m | 4.9m/s | -52.8°C | 4.2% | 31.2hPa | 2.5V | 08:30:00 | 01:29:37 | 00:00:00 | |
| HSKMA3-T | 2026-09-04 01:04:12 | 50.15935 | 11.39647 | 120° | 27km/h | 23982m | 4.9m/s | -52.8°C | 0.7% | 31.2hPa | 2.5V | 18:12:15 | 01:29:37 | 00:00:00 | |
| DF8AY-15 | 2026-09-04 01:04:12 | 50.15935 | 11.39647 | 120° | 18km/h | 23982m | 4.9m/s | -52.7°C | 4.2% | 31.1hPa | 2.5V | 00:00:00 | 01:29:37 | 00:00:00 | |
| OE5MMP-10 | 2026-09-04 01:04:11 | 50.15939 | 11.39638 | 126° | 20km/h | 23978m | 4.5m/s | 0°C | 0% | 0hPa | 2.5V | 00:00:00 | 01:29:36 | 00:00:00 | |
| DL1XH1-15 | 2026-09-04 01:04:10 | 50.15950 | 11.39623 | 163° | 15km/h | 23962m | 4.4m/s | -52.6°C | 4.1% | 31.3hPa | 2.5V | 08:30:00 | 01:29:33 | 00:00:00 | |
| DF8AY | 2026-09-04 01:04:08 | 50.15950 | 11.39623 | 164° | 15km/h | 23962m | 4.4m/s | -52.6°C | 0.6% | 31.3hPa | 2.5V | 18:12:15 | 01:29:33 | 00:00:00 | |
| DL1XH-west | 2026-09-04 01:04:06 | 50.15958 | 11.39622 | 176° | 20km/h | 23951m | 5.8m/s | -52.5°C | 0.6% | 31.3hPa | 2.5V | 18:12:15 | 01:29:31 | 00:00:00 | |
| DB0ND-19 | 2026-09-04 01:04:06 | 50.15963 | 11.39621 | 172° | 22km/h | 23946m | 5.0m/s | -52.5°C | 1.0% | 31.4hPa | 2.7V | 00:00:00 | 00:00:00 | 00:00:00 | |
| DD8BA-10 | 2026-09-04 01:04:04 | 50.15969 | 11.39619 | 166° | 18km/h | 23942m | 4.3m/s | -52.4°C | 4.1% | 31.3hPa | 2.7V | 00:00:00 | 00:00:00 | 00:00:00 | |
| DL1NUX | 2026-09-04 01:04:02 | 50.15989 | 11.39580 | 125° | 20km/h | 23905m | 4.1m/s | -52.5°C | 4.1% | 31.5hPa | 2.7V | 08:30:00 | 01:29:22 | 00:00:00 | |
| BIOWL1-15 | 2026-09-04 01:04:02 | 50.15986 | 11.39587 | 118° | 22km/h | 23910m | 4.9m/s | -52.5°C | 0.6% | 31.5hPa | 2.5V | 18:12:15 | 01:29:23 | 00:00:00 | |
| HSKMA3-T | 2026-09-04 01:04:01 | 50.15980 | 11.39608 | 123° | 16km/h | 23926m | 5.3m/s | -52.5°C | 0.6% | 31.4hPa | 2.5V | 18:12:15 | 01:29:26 | 00:00:00 | |
| OE5MMP-10 | 2026-09-04 01:04:01 | 50.15980 | 11.39608 | 123° | 16km/h | 23926m | 5.2m/s | 0°C | 0% | 0hPa | 2.5V | 00:00:00 | 01:29:26 | 00:00:00 | |
| DL1XH1-15 | 2026-09-04 01:04:00 | 50.15987 | 11.39587 | 117° | 22km/h | 23910m | 4.9m/s | -52.5°C | 4.1% | 31.5hPa | 2.5V | 08:30:00 | 01:29:23 | 00:00:00 | |
| DF8AY | 2026-09-04 01:03:57 | 50.15989 | 11.39580 | 125° | 20km/h | 23905m | 4.1m/s | -52.5°C | 0.5% | 31.5hPa | 2.7V | 18:12:15 | 01:29:22 | 00:00:00 | |
| DL1XH-west | 2026-09-04 01:03:55 | 50.15995 | 11.39571 | 144° | 13km/h | 23896m | 5.7m/s | -52.4°C | 0.6% | 31.6hPa | 2.5V | 18:12:15 | 01:29:20 | 00:00:00 | |
| OE5DXL-15 | 2026-09-04 01:03:55 | 50.15995 | 11.39571 | 145° | 15km/h | 23896m | 5.6m/s | -52.4°C | 4.1% | 31.5hPa | 2.5V | 00:00:00 | 00:00:00 | 00:00:00 | |
| DD8BA-10 | 2026-09-04 01:03:54 | 50.15998 | 11.39569 | 164° | 15km/h | 23891m | 4.2m/s | -52.4°C | 4.1% | 31.6hPa | 2.5V | 00:00:00 | 00:00:00 | 00:00:00 | |
| SO1NDE-10 | 2026-09-04 01:03:53 | 50.16001 | 11.39568 | 174° | 15km/h | 23887m | 5.0m/s | -52.4°C | 4.0% | 31.6hPa | 2.5V | 00:00:00 | 01:29:18 | 00:00:00 | |
| DL1NUX | 2026-09-04 01:03:52 | 50.16024 | 11.39561 | 157° | 11km/h | 23855m | 4.2m/s | -52.5°C | 4.1% | 31.8hPa | 2.5V | 08:30:00 | 01:29:12 | 00:00:00 | |
| HSKMA3-T | 2026-09-04 01:03:51 | 50.16010 | 11.39566 | 173° | 20km/h | 23875m | 5m/s | -52.5°C | 0.5% | 31.7hPa | 2.7V | 18:12:15 | 01:29:16 | 00:00:00 | |
| OE5MMP-10 | 2026-09-04 01:03:51 | 50.16010 | 11.39566 | 173° | 15km/h | 23876m | 4.9m/s | 0°C | 0% | 0hPa | 2.5V | 00:00:00 | 01:29:16 | 00:00:00 | |
| DL1XH1-15 | 2026-09-04 01:03:50 | 50.16022 | 11.39563 | 166° | 11km/h | 23859m | 5.2m/s | -52.5°C | 4.1% | 31.8hPa | 2.5V | 08:30:00 | 01:29:13 | 00:00:00 | |
| BIOWL1-15 | 2026-09-04 01:03:48 | 50.16050 | 11.39533 | 145° | 16km/h | 23809m | 5.9m/s | -52.5°C | 0.6% | 32hPa | 2.6V | 18:12:15 | 01:29:03 | 00:00:00 | |
| DF8AY | 2026-09-04 01:03:46 | 50.16027 | 11.39559 | 153° | 13km/h | 23850m | 5.7m/s | -52.6°C | 0.5% | 31.8hPa | 2.7V | 18:12:15 | 01:29:11 | 00:00:00 | |
| DL1XH-west | 2026-09-04 01:03:45 | 50.16034 | 11.39554 | 148° | 16km/h | 23839m | 4.3m/s | -52.5°C | 0.6% | 31.9hPa | 2.6V | 18:12:15 | 01:29:09 | 00:00:00 | |
| EDDB2-12 | 2026-09-04 01:03:45 | 50.16034 | 11.39554 | 148° | 16km/h | 23839m | 4.3m/s | -52.5°C | 1.0% | 31.9hPa | 2.5V | 00:00:00 | 00:00:00 | 00:00:00 | |
| DF8AY | 2026-09-04 01:03:41 | 50.16058 | 11.39525 | 147° | 18km/h | 23798m | 4.9m/s | -52.6°C | 0.5% | 32.1hPa | 2.5V | 18:12:15 | 01:29:01 | 00:00:00 | |
| HSKMA3-T | 2026-09-04 01:03:40 | 50.16045 | 11.39540 | 137° | 11km/h | 23819m | 4.7m/s | -52.5°C | 0.5% | 32hPa | 2.5V | 18:12:15 | 01:29:05 | 00:00:00 | |
| DL1XH1-15 | 2026-09-04 01:03:40 | 50.16050 | 11.39533 | 144° | 16km/h | 23809m | 5.9m/s | -52.5°C | 4.1% | 32hPa | 2.6V | 08:30:00 | 01:29:03 | 00:00:00 | |
| BIOWL1-15 | 2026-09-04 01:03:35 | 50.16062 | 11.39522 | 145° | 15km/h | 23793m | 5.9m/s | -52.6°C | 0.6% | 32.1hPa | 2.6V | 18:12:15 | 01:29:00 | 00:00:00 | |
| DL1XH-west | 2026-09-04 01:03:34 | 50.16064 | 11.39518 | 141° | 11km/h | 23787m | 5.6m/s | -52.6°C | 0.6% | 32.1hPa | 2.7V | 18:12:15 | 01:28:59 | 00:00:00 | |
| DD8BA-10 | 2026-09-04 01:03:34 | 50.16064 | 11.39518 | 141° | 15km/h | 23788m | 5.5m/s | -52.6°C | 4.1% | 32.1hPa | 2.7V | 00:00:00 | 00:00:00 | 00:00:00 | |
| DF8AY-15 | 2026-09-04 01:03:32 | 50.16068 | 11.39512 | 128° | 20km/h | 23778m | 5.1m/s | -52.6°C | 4.1% | 32.1hPa | 2.7V | 00:00:00 | 01:28:57 | 00:00:00 | |
| BIOWL9-15 | 2026-09-04 01:03:31 | 50.16072 | 11.39504 | 124° | 13km/h | 23767m | 5.0m/s | -52.7°C | 1.0% | 32.2hPa | 2.7V | 00:00:00 | 00:00:00 | 00:00:00 | |
| DL1XH1-15 | 2026-09-04 01:03:30 | 50.16075 | 11.39495 | 110° | 13km/h | 23756m | 5.6m/s | -52.7°C | 4.1% | 32.3hPa | 2.7V | 08:30:00 | 01:28:53 | 00:00:00 | |
| HSKMA3-T | 2026-09-04 01:03:29 | 50.16073 | 11.39500 | 116° | 15km/h | 23761m | 5.6m/s | -52.7°C | 0.6% | 32.3hPa | 2.6V | 18:12:15 | 01:28:54 | 00:00:00 | |
| OE5MMP-10 | 2026-09-04 01:03:29 | 50.16073 | 11.39499 | 117° | 16km/h | 23762m | 5.5m/s | 0°C | 0% | 0hPa | 2.7V | 00:00:00 | 01:28:54 | 00:00:00 | |
| PETON7-10 | 2026-09-04 01:03:28 | 50.16075 | 11.39495 | 111° | 20km/h | 23756m | 5.6m/s | -52.7°C | 4.1% | 32.2hPa | 2.7V | 00:00:00 | 00:00:00 | 00:00:00 | |
| DM0DOS-11 | 2026-09-04 01:03:27 | 50.16080 | 11.39478 | 129° | 20km/h | 23739m | 5.6m/s | -52.7°C | 4.1% | 32.4hPa | 2.5V | 08:30:00 | 01:28:50 | 00:00:00 | |
| DF8AY | 2026-09-04 01:03:25 | 50.16080 | 11.39478 | 129° | 20km/h | 23739m | 5.6m/s | -52.8°C | 0.6% | 32.4hPa | 2.5V | 18:12:15 | 01:28:50 | 00:00:00 | |
| BIOWL1-15 | 2026-09-04 01:03:24 | 50.16092 | 11.39452 | 106° | 20km/h | 23719m | 5.4m/s | -52.8°C | 0.6% | 32.5hPa | 2.7V | 18:12:15 | 01:28:46 | 00:00:00 | |
| DL1XH-west | 2026-09-04 01:03:24 | 50.16084 | 11.39472 | 130° | 20km/h | 23734m | 4.3m/s | -52.7°C | 0.6% | 32.4hPa | 2.5V | 18:12:15 | 01:28:49 | 00:00:00 | |
| DD8BA-10 | 2026-09-04 01:03:24 | 50.16084 | 11.39472 | 130° | 24km/h | 23734m | 4.3m/s | 0°C | 0% | 0hPa | 2.5V | 00:00:00 | 00:00:00 | 00:00:00 | |
| SO1NDE-10 | 2026-09-04 01:03:23 | 50.16087 | 11.39466 | 127° | 22km/h | 23730m | 4.1m/s | -52.7°C | 4.1% | 32.4hPa | 2.5V | 00:00:00 | 01:28:48 | 00:00:00 | |
| DL1NUX | 2026-09-04 01:03:22 | 50.16097 | 11.39415 | 108° | 27km/h | 23699m | 5m/s | -52.8°C | 4.1% | 32.6hPa | 2.5V | 08:30:00 | 01:28:42 | 00:00:00 | |
| 13BRC | 2026-09-04 01:03:21 | 50.16090 | 11.39459 | 120° | 20km/h | 23725m | 5.9m/s | -52.7°C | 1.0% | 32.4hPa | 2.7V | 00:00:00 | 00:00:00 | 00:00:00 | |
| DM0DOS-11 | 2026-09-04 01:03:20 | 50.16102 | 11.39396 | 114° | 26km/h | 23688m | 6.2m/s | -52.8°C | 4.1% | 32.6hPa | 2.7V | 08:30:00 | 01:28:40 | 00:00:00 | |
| HSKMA3-T | 2026-09-04 01:03:19 | 50.16094 | 11.39435 | 100° | 24km/h | 23710m | 5.1m/s | -52.8°C | 0.5% | 32.5hPa | 2.5V | 18:12:15 | 01:28:44 | 00:00:00 | |
| DL1XH-west | 2026-09-04 01:03:14 | 50.16105 | 11.39387 | 118° | 24km/h | 23682m | 4.8m/s | -52.8°C | 0.6% | 32.7hPa | 2.5V | 18:12:15 | 01:28:39 | 00:00:00 | |
| EDDB2-12 | 2026-09-04 01:03:14 | 50.16108 | 11.39379 | 123° | 22km/h | 23678m | 3.9m/s | -52.8°C | 1.0% | 32.7hPa | 2.5V | 00:00:00 | 00:00:00 | 00:00:00 | |
| PETON7-10 | 2026-09-04 01:03:13 | 50.16108 | 11.39379 | 124° | 24km/h | 23678m | 3.9m/s | -52.7°C | 4.0% | 32.6hPa | 2.5V | 00:00:00 | 00:00:00 | 00:00:00 | |
| DL1NUX | 2026-09-04 01:03:12 | 50.16126 | 11.39326 | 90° | 26km/h | 23648m | 4.8m/s | -53°C | 4.1% | 32.9hPa | 2.5V | 08:30:00 | 01:28:32 | 00:00:00 | |
| BIOWL1-15 | 2026-09-04 01:03:11 | 50.16116 | 11.39363 | 127° | 27km/h | 23667m | 5.1m/s | -52.8°C | 0.5% | 32.8hPa | 2.6V | 18:12:15 | 01:28:36 | 00:00:00 | |
| DF8AY-15 | 2026-09-04 01:03:11 | 50.16116 | 11.39363 | 128° | 20km/h | 23668m | 5.1m/s | -52.8°C | 4.0% | 32.7hPa | 2.5V | 00:00:00 | 01:28:36 | 00:00:00 | |
| DM0DOS-11 | 2026-09-04 01:03:09 | 50.16125 | 11.39304 | 83° | 31km/h | 23638m | 5.8m/s | -53°C | 4.1% | 32.9hPa | 2.5V | 08:30:00 | 01:28:30 | 00:00:00 | |
| HSKMA3-T | 2026-09-04 01:03:08 | 50.16125 | 11.39336 | 103° | 24km/h | 23653m | 5.6m/s | -52.9°C | 0.5% | 32.8hPa | 2.6V | 18:12:15 | 01:28:33 | 00:00:00 | |
| DL1XH-west | 2026-09-04 01:03:03 | 50.16124 | 11.39282 | 94° | 26km/h | 23628m | 3.8m/s | -53.2°C | 0.6% | 33hPa | 2.7V | 18:12:15 | 01:28:28 | 00:00:00 | |
| DF8AY | 2026-09-04 01:03:03 | 50.16125 | 11.39273 | 99° | 20km/h | 23624m | 4.7m/s | -53.2°C | 0.6% | 33hPa | 2.7V | 18:12:15 | 01:28:27 | 00:00:00 | |
| BIOWL1-15 | 2026-09-04 01:03:00 | 50.16130 | 11.39257 | 143° | 11km/h | 23603m | 4.6m/s | -53.5°C | 0.6% | 33.1hPa | 2.7V | 18:12:15 | 01:28:23 | 00:00:00 | |
| HSKMA3-T | 2026-09-04 01:02:57 | 50.16133 | 11.39254 | 135° | 15km/h | 23598m | 5.6m/s | -53.5°C | 0.7% | 33.1hPa | 2.7V | 18:12:15 | 01:28:22 | 00:00:00 | |
| EDDB2-11 | 2026-09-04 01:02:55 | 50.16137 | 11.39234 | 91° | 20km/h | 23584m | 5.8m/s | -53.6°C | 0% | 33.2hPa | 2.6V | 00:00:00 | 00:00:00 | 00:00:00 | |
| DM0DOS-11 | 2026-09-04 01:02:54 | 50.16137 | 11.39225 | 78° | 24km/h | 23578m | 5.4m/s | -53.6°C | 4.2% | 33.2hPa | 2.6V | 08:30:00 | 01:28:18 | 00:00:00 | |
| DF8AY | 2026-09-04 01:02:52 | 50.16135 | 11.39216 | 73° | 26km/h | 23573m | 4.8m/s | -53.6°C | 0.6% | 33.2hPa | 2.7V | 18:12:15 | 01:28:17 | 00:00:00 | |
| DL1XH1-15 | 2026-09-04 01:02:50 | 50.16129 | 11.39176 | 80° | 22km/h | 23555m | 3.8m/s | -53.7°C | 4.2% | 33.3hPa | 2.5V | 08:30:00 | 01:28:13 | 00:00:00 | |
| BIOWL1-15 | 2026-09-04 01:02:50 | 50.16132 | 11.39195 | 78° | 27km/h | 23563m | 5.3m/s | -53.6°C | 0.6% | 33.3hPa | 2.6V | 18:12:15 | 01:28:15 | 00:00:00 | |
| HSKMA3-T | 2026-09-04 01:02:47 | 50.16128 | 11.39169 | 76° | 16km/h | 23550m | 5.9m/s | -53.7°C | 0.6% | 33.4hPa | 2.5V | 18:12:15 | 01:28:12 | 00:00:00 | |
| DL6DJ-15 | 2026-09-04 01:02:45 | 50.16126 | 11.39157 | 94° | 5km/h | 23534m | 4.7m/s | -53.9°C | 1.1% | 33.4hPa | 2.5V | 00:00:00 | 00:00:00 | 00:00:00 | |
| DM0DOS-11 | 2026-09-04 01:02:44 | 50.16127 | 11.39154 | 116° | 9km/h | 23529m | 6.1m/s | -54°C | 4.4% | 33.5hPa | 2.5V | 08:30:00 | 01:28:08 | 00:00:00 | |
| SONCRA | 2026-09-04 01:02:44 | 50.16127 | 11.39154 | 116° | 9km/h | 23529m | 6.1m/s | -54.0°C | 1.1% | 33.5hPa | 2.5V | 00:00:00 | 00:00:00 | 00:00:00 | |
| AU51GT2 | 2026-09-04 01:02:43 | 50.16128 | 11.39150 | 118° | 13km/h | 23524m | 4.6m/s | -54.0°C | 1.1% | 33.5hPa | 2.5V | 00:00:00 | 00:00:00 | 00:00:00 | |
| DL1NUX | 2026-09-04 01:02:42 | 50.16130 | 11.39121 | 81° | 16km/h | 23499m | 5.6m/s | -54.2°C | 4.5% | 33.6hPa | 2.5V | 08:30:00 | 01:28:02 | 00:00:00 | |
| DL1XH-west | 2026-09-04 01:02:42 | 50.16128 | 11.39150 | 119° | 13km/h | 23524m | 4.6m/s | -54°C | 0.7% | 33.5hPa | 2.5V | 18:12:15 | 01:28:07 | 00:00:00 | |
| DF8AY | 2026-09-04 01:02:42 | 50.16129 | 11.39145 | 111° | 15km/h | 23519m | 4.6m/s | -54.1°C | 0.7% | 33.5hPa | 2.6V | 18:12:15 | 01:28:06 | 00:00:00 | |
| DF3TZ-5 | 2026-09-04 01:02:41 | 50.16129 | 11.39145 | 111° | 15km/h | 23519m | 4.6m/s | -54.1°C | 1.1% | 33.5hPa | 2.5V | 00:00:00 | 00:00:00 | 00:00:00 | |
| DL1XH1-15 | 2026-09-04 01:02:40 | 50.16130 | 11.39127 | 81° | 16km/h | 23504m | 3.8m/s | -54.2°C | 4.5% | 33.6hPa | 2.5V | 08:30:00 | 01:28:03 | 00:00:00 | |
| BIOWL1-15 | 2026-09-04 01:02:40 | 50.16130 | 11.39139 | 99° | 15km/h | 23513m | 5.5m/s | -54.1°C | 0.7% | 33.5hPa | 2.7V | 18:12:15 | 01:28:05 | 00:00:00 | |
| HSKMA3-T | 2026-09-04 01:02:36 | 50.16129 | 11.39115 | 82° | 15km/h | 23494m | 5.2m/s | -54.2°C | 0.8% | 33.6hPa | 2.5V | 18:12:15 | 01:28:01 | 00:00:00 | |
| NBG1-10 | 2026-09-04 01:02:36 | 50.16129 | 11.39115 | 82° | 7km/h | 23495m | 5.2m/s | -54.1°C | 4.5% | 33.6hPa | 2.5V | 00:00:00 | 01:28:01 | 00:00:00 | |
| DM0DOS-11 | 2026-09-04 01:02:34 | 50.16115 | 11.39090 | 59° | 5km/h | 23453m | 5.6m/s | -54.1°C | 4.5% | 33.9hPa | 2.7V | 08:30:00 | 01:27:53 | 00:00:00 | |
| DD8BA-10 | 2026-09-04 01:02:34 | 50.16127 | 11.39105 | 56° | 9km/h | 23485m | 4.9m/s | 0°C | 0% | 0hPa | 2.7V | 00:00:00 | 00:00:00 | 00:00:00 | |
| DL1XH1-15 | 2026-09-04 01:02:33 | 50.16115 | 11.39090 | 59° | 5km/h | 23453m | 5.6m/s | -54.1°C | 4.5% | 33.9hPa | 2.7V | 08:30:00 | 01:27:53 | 00:00:00 | |
| DF7PN | 2026-09-04 01:02:33 | 50.16122 | 11.39098 | 29° | 13km/h | 23474m | 4.7m/s | -54.2°C | 1.1% | 33.7hPa | 2.7V | 00:00:00 | 00:00:00 | 00:00:00 | |
| DL1NUX | 2026-09-04 01:02:32 | 50.16114 | 11.39088 | 62° | 5km/h | 23447m | 5.6m/s | -54.1°C | 4.5% | 33.9hPa | 2.7V | 08:30:00 | 01:27:52 | 00:00:00 | |
| DL1XH-west | 2026-09-04 01:02:31 | 50.16119 | 11.39096 | 26° | 11km/h | 23469m | 5.2m/s | -54.2°C | 0.8% | 33.8hPa | 2.5V | 18:12:15 | 01:27:56 | 00:00:00 | |
| DF8AY | 2026-09-04 01:02:30 | 50.16117 | 11.39094 | 34° | 7km/h | 23464m | 5.9m/s | -54.2°C | 0.8% | 33.8hPa | 2.6V | 18:12:15 | 01:27:55 | 00:00:00 | |
| BIOWL1-15 | 2026-09-04 01:02:29 | 50.16115 | 11.39080 | 118° | 9km/h | 23432m | 6m/s | -54.1°C | 0.8% | 34hPa | 2.5V | 18:12:15 | 01:27:49 | 00:00:00 | |
| HSKMA3-T | 2026-09-04 01:02:25 | 50.16114 | 11.39083 | 106° | 7km/h | 23437m | 5.3m/s | -54.1°C | 0.7% | 33.9hPa | 2.5V | 18:12:15 | 01:27:50 | 00:00:00 | |
| DB0NH | 2026-09-04 01:02:25 | 50.16114 | 11.39083 | 106° | 7km/h | 23438m | 5.2m/s | -54.1°C | 4.4% | 33.9hPa | 2.5V | 00:00:00 | 01:27:50 | 00:00:00 | |
| PG1ADW-2 | 2026-09-04 01:02:24 | 50.16115 | 11.39080 | 118° | 5km/h | 23432m | 5.9m/s | -54.1°C | 4.5% | 33.9hPa | 2.5V | 00:00:00 | 00:00:00 | 00:00:00 | |
| DM0DOS-11 | 2026-09-04 01:02:23 | 50.16114 | 11.39065 | 20° | 5km/h | 23407m | 4.4m/s | -54°C | 4.5% | 34.1hPa | 2.5V | 08:30:00 | 01:27:44 | 00:00:00 | |
| DF8AY-15 | 2026-09-04 01:02:23 | 50.16116 | 11.39076 | 114° | 5km/h | 23426m | 5.0m/s | -54.1°C | 4.5% | 34.0hPa | 2.7V | 00:00:00 | 01:27:48 | 00:00:00 | |
| DL1NUX | 2026-09-04 01:02:22 | 50.16113 | 11.39065 | 301° | 2km/h | 23396m | 5.5m/s | -54°C | 4.5% | 34.2hPa | 2.7V | 08:30:00 | 01:27:42 | 00:00:00 | |
| BIOWL1-15 | 2026-09-04 01:02:21 | 50.16114 | 11.39065 | 20° | 5km/h | 23407m | 4.4m/s | -54.1°C | 0.8% | 34.1hPa | 2.5V | 18:12:15 | 01:27:44 | 00:00:00 | |
| DL1XH-west | 2026-09-04 01:02:20 | 50.16116 | 11.39066 | 44° | 7km/h | 23411m | 4m/s | -54.1°C | 0.8% | 34.1hPa | 2.5V | 18:12:15 | 01:27:45 | 00:00:00 | |
| DL1XH1-15 | 2026-09-04 01:02:20 | 50.16113 | 11.39064 | 1° | 4km/h | 23401m | 5.8m/s | -54°C | 4.5% | 34.1hPa | 2.6V | 08:30:00 | 01:27:43 | 00:00:00 | |
| DF8AY | 2026-09-04 01:02:19 | 50.16113 | 11.39064 | 91° | 4km/h | 23380m | 6.2m/s | -53.9°C | 0.7% | 34.2hPa | 2.5V | 18:12:15 | 01:27:39 | 00:00:00 | |
| HSKMA3-T | 2026-09-04 01:02:15 | 50.16113 | 11.39065 | 146° | 2km/h | 23385m | 5.1m/s | -54°C | 0.8% | 34.2hPa | 2.5V | 18:12:15 | 01:27:40 | 00:00:00 | |
| DL6DJ-15 | 2026-09-04 01:02:14 | 50.16113 | 11.39063 | 81° | 5km/h | 23375m | 5.0m/s | -53.9°C | 1.1% | 34.3hPa | 2.7V | 00:00:00 | 00:00:00 | 00:00:00 | |
| DM0DOS-11 | 2026-09-04 01:02:13 | 50.16116 | 11.39052 | 123° | 9km/h | 23353m | 4.4m/s | -53.8°C | 4.4% | 34.4hPa | 2.7V | 08:30:00 | 01:27:34 | 00:00:00 | |
| PETON7-10 | 2026-09-04 01:02:13 | 50.16113 | 11.39062 | 82° | 5km/h | 23375m | 4.9m/s | -53.9°C | 4.4% | 34.2hPa | 2.5V | 00:00:00 | 01:27:38 | 00:00:00 | |
| DL1NUX | 2026-09-04 01:02:12 | 50.16117 | 11.39047 | 82° | 7km/h | 23343m | 5.1m/s | -53.7°C | 4.3% | 34.5hPa | 2.5V | 08:30:00 | 01:27:32 | 00:00:00 | |
| AU51GT2 | 2026-09-04 01:02:12 | 50.16114 | 11.39057 | 112° | 7km/h | 23364m | 6.3m/s | 0°C | -1.0% | 34.4hPa | 2.5V | 00:00:00 | 00:00:00 | 00:00:00 | |
| EDDB2-12 | 2026-09-04 01:02:11 | 50.16114 | 11.39057 | 112° | 7km/h | 23364m | 6.3m/s | -53.9°C | 1.1% | 34.4hPa | 2.5V | 00:00:00 | 00:00:00 | 00:00:00 | |
| DL1XH1-15 | 2026-09-04 01:02:10 | 50.16117 | 11.39049 | 107° | 7km/h | 23348m | 5.5m/s | -53.8°C | 4.4% | 34.4hPa | 2.5V | 08:30:00 | 01:27:33 | 00:00:00 | |
| BIOWL1-15 | 2026-09-04 01:02:09 | 50.16116 | 11.39052 | 124° | 9km/h | 23353m | 4.4m/s | -53.8°C | 0.7% | 34.4hPa | 2.7V | 18:12:15 | 01:27:34 | 00:00:00 | |
| HSKMA3-T | 2026-09-04 01:02:05 | 50.16116 | 11.39043 | 45° | 4km/h | 23333m | 5.5m/s | -53.7°C | 0.7% | 34.5hPa | 2.6V | 18:12:15 | 01:27:30 | 00:00:00 | |
| PG1ADW-2 | 2026-09-04 01:02:04 | 50.16115 | 11.39043 | 211° | 9km/h | 23328m | 5.8m/s | -53.6°C | 4.3% | 34.5hPa | 2.5V | 00:00:00 | 00:00:00 | 00:00:00 | |
| DO3MHA-11 | 2026-09-04 01:02:03 | 50.16116 | 11.39043 | 205° | 9km/h | 23322m | 4.7m/s | -53.6°C | 4.3% | 34.5hPa | 2.5V | 00:00:00 | 01:27:28 | 00:00:00 | |
| DL1NUX | 2026-09-04 01:02:02 | 50.16122 | 11.39029 | 120° | 15km/h | 23290m | 5.2m/s | -53.4°C | 4.3% | 34.8hPa | 2.5V | 08:30:00 | 01:27:22 | 00:00:00 | |
| DB0ND-19 | 2026-09-04 01:02:01 | 50.16118 | 11.39043 | 144° | 4km/h | 23312m | 6.0m/s | -53.6°C | 1.1% | 34.6hPa | 2.7V | 00:00:00 | 00:00:00 | 00:00:00 | |
| DL1XH1-15 | 2026-09-04 01:02:00 | 50.16121 | 11.39034 | 117° | 13km/h | 23296m | 6.1m/s | -53.5°C | 4.3% | 34.7hPa | 2.7V | 08:30:00 | 01:27:23 | 00:00:00 | |
| DL1XH-west | 2026-09-04 01:02:00 | 50.16119 | 11.39041 | 113° | 7km/h | 23307m | 5.5m/s | -53.6°C | 0.6% | 34.6hPa | 2.6V | 18:12:15 | 01:27:25 | 00:00:00 | |
| BIOWL1-15 | 2026-09-04 01:01:58 | 50.16124 | 11.39024 | 117° | 15km/h | 23285m | 4.7m/s | -53.4°C | 0.7% | 34.8hPa | 2.6V | 18:12:15 | 01:27:21 | 00:00:00 | |
| DF8AY | 2026-09-04 01:01:55 | 50.16126 | 11.39019 | 108° | 13km/h | 23279m | 6.2m/s | -53.4°C | 0.7% | 34.8hPa | 2.6V | 18:12:15 | 01:27:20 | 00:00:00 | |
| HSKMA3-T | 2026-09-04 01:01:54 | 50.16126 | 11.39014 | 97° | 13km/h | 23274m | 4.9m/s | -53.4°C | 0.7% | 34.8hPa | 2.7V | 18:12:15 | 01:27:19 | 00:00:00 | |
| DM0DOS-11 | 2026-09-04 01:01:53 | 50.16132 | 11.39000 | 158° | 9km/h | 23249m | 4.5m/s | -53.3°C | 4.3% | 35hPa | 2.6V | 08:30:00 | 01:27:14 | 00:00:00 | |
| DO3MHA-11 | 2026-09-04 01:01:53 | 50.16127 | 11.39010 | 94° | 11km/h | 23270m | 3.9m/s | -53.3°C | 4.3% | 34.8hPa | 2.7V | 00:00:00 | 01:27:18 | 00:00:00 | |
| DL1NUX | 2026-09-04 01:01:52 | 50.16135 | 11.38996 | 120° | 9km/h | 23238m | 5.4m/s | -53.3°C | 4.4% | 35hPa | 2.7V | 08:30:00 | 01:27:12 | 00:00:00 | |
| DL1XH-west | 2026-09-04 01:01:49 | 50.16132 | 11.39000 | 158° | 9km/h | 23249m | 4.6m/s | -53.3°C | 0.7% | 35hPa | 2.6V | 18:12:15 | 01:27:14 | 00:00:00 | |
| BIOWL1-15 | 2026-09-04 01:01:47 | 50.16135 | 11.38996 | 121° | 9km/h | 23238m | 5.4m/s | -53.3°C | 0.8% | 35hPa | 2.7V | 18:12:15 | 01:27:12 | 00:00:00 | |
| HSKMA3-T | 2026-09-04 01:01:43 | 50.16141 | 11.38979 | 126° | 13km/h | 23218m | 4.9m/s | -53.2°C | 0.7% | 35.1hPa | 2.5V | 18:12:15 | 01:27:08 | 00:00:00 | |
| DM0DOS-11 | 2026-09-04 01:01:43 | 50.16143 | 11.38969 | 59° | 4km/h | 23198m | 4.5m/s | -53.1°C | 4.1% | 35.2hPa | 2.5V | 08:30:00 | 01:27:04 | 00:00:00 | |
| DL6DJ-15 | 2026-09-04 01:01:43 | 50.16142 | 11.38975 | 125° | 9km/h | 23214m | 4.3m/s | -53.2°C | 1.1% | 35.2hPa | 2.6V | 00:00:00 | 00:00:00 | 00:00:00 | |
| DL1NUX | 2026-09-04 01:01:42 | 50.16143 | 11.38966 | 131° | 5km/h | 23188m | 5.9m/s | -53.2°C | 4.2% | 35.3hPa | 2.6V | 08:30:00 | 01:27:02 | 00:00:00 | |
| DL1XH-west | 2026-09-04 01:01:38 | 50.16143 | 11.38967 | 94° | 4km/h | 23193m | 5.1m/s | -53.2°C | 0.7% | 35.3hPa | 2.5V | 18:12:15 | 01:27:03 | 00:00:00 | |
| BIOWL1-15 | 2026-09-04 01:01:37 | 50.16144 | 11.38966 | 132° | 5km/h | 23188m | 5.9m/s | -53.2°C | 0.6% | 35.3hPa | 2.6V | 18:12:15 | 01:27:02 | 00:00:00 | |
| DH8WE-5 | 2026-09-04 01:01:35 | 50.16145 | 11.38964 | 136° | 11km/h | 23183m | 4.7m/s | -53.2°C | 1.0% | 35.3hPa | 2.7V | 00:00:00 | 00:00:00 | 00:00:00 | |
| S52SK | 2026-09-04 01:01:34 | 50.16147 | 11.38960 | 125° | 15km/h | 23178m | 4.8m/s | 0°C | 0% | 0hPa | 2.7V | 00:00:00 | 00:00:00 | 00:00:00 | |
| DM0DOS-11 | 2026-09-04 01:01:33 | 50.16154 | 11.38915 | 99° | 18km/h | 23145m | 4.6m/s | -53.3°C | 4.3% | 35.5hPa | 2.7V | 08:30:00 | 01:26:54 | 00:00:00 | |
| HSKMA3-T | 2026-09-04 01:01:32 | 50.16151 | 11.38939 | 98° | 22km/h | 23161m | 4.9m/s | -53.2°C | 0.7% | 35.5hPa | 2.5V | 18:12:15 | 01:26:57 | 00:00:00 | |
| DF2AP-13 | 2026-09-04 01:01:32 | 50.16151 | 11.38939 | 98° | 16km/h | 23161m | 4.8m/s | -53.2°C | 4.2% | 35.4hPa | 2.7V | 00:00:00 | 01:26:57 | 00:00:00 | |
| DF7PN | 2026-09-04 01:01:31 | 50.16153 | 11.38923 | 101° | 20km/h | 23150m | 5.7m/s | -53.3°C | 1.1% | 35.5hPa | 2.7V | 00:00:00 | 00:00:00 | 00:00:00 | |
| DL1XH1-15 | 2026-09-04 01:01:30 | 50.16154 | 11.38908 | 93° | 16km/h | 23140m | 6m/s | -53.3°C | 4.3% | 35.6hPa | 2.7V | 08:30:00 | 01:26:53 | 00:00:00 | |
| DL1XH-west | 2026-09-04 01:01:27 | 50.16154 | 11.38902 | 85° | 15km/h | 23134m | 5.5m/s | -53.3°C | 0.7% | 35.6hPa | 2.5V | 18:12:15 | 01:26:52 | 00:00:00 | |
| BIOWL1-15 | 2026-09-04 01:01:26 | 50.16154 | 11.38891 | 98° | 13km/h | 23124m | 6.1m/s | -53.3°C | 0.6% | 35.7hPa | 2.5V | 18:12:15 | 01:26:50 | 00:00:00 | |
| DB0NH | 2026-09-04 01:01:26 | 50.16154 | 11.38891 | 99° | 16km/h | 23124m | 6.1m/s | -53.3°C | 4.2% | 35.6hPa | 2.6V | 00:00:00 | 01:26:50 | 00:00:00 | |
| PG1ADW-2 | 2026-09-04 01:01:25 | 50.16155 | 11.38886 | 114° | 16km/h | 23118m | 5.7m/s | -53.3°C | 4.3% | 35.7hPa | 2.6V | 00:00:00 | 00:00:00 | 00:00:00 | |
| DM0DOS-11 | 2026-09-04 01:01:23 | 50.16161 | 11.38851 | 82° | 18km/h | 23091m | 4.5m/s | -53.3°C | 4.3% | 35.8hPa | 2.6V | 08:30:00 | 01:26:44 | 00:00:00 | |
| HSKMA3-T | 2026-09-04 01:01:22 | 50.16159 | 11.38874 | 113° | 18km/h | 23107m | 5m/s | -53.3°C | 0.7% | 35.8hPa | 2.7V | 18:12:15 | 01:26:47 | 00:00:00 | |
| DF8AY-15 | 2026-09-04 01:01:22 | 50.16159 | 11.38874 | 113° | 16km/h | 23108m | 5.0m/s | -53.3°C | 4.3% | 35.7hPa | 2.7V | 00:00:00 | 01:26:47 | 00:00:00 | |
| EDDB2-11 | 2026-09-04 01:01:21 | 50.16160 | 11.38867 | 101° | 18km/h | 23102m | 6.3m/s | -53.3°C | 1.1% | 35.8hPa | 2.7V | 00:00:00 | 00:00:00 | 00:00:00 | |
| DL1XH1-15 | 2026-09-04 01:01:20 | 50.16160 | 11.38844 | 81° | 16km/h | 23086m | 6m/s | -53.3°C | 4.3% | 35.9hPa | 2.7V | 08:30:00 | 01:26:43 | 00:00:00 | |
| DL1XH-west | 2026-09-04 01:01:17 | 50.16159 | 11.38838 | 81° | 15km/h | 23080m | 5.2m/s | -53.3°C | 0.7% | 35.9hPa | 2.7V | 18:12:15 | 01:26:42 | 00:00:00 | |
| BIOWL1-15 | 2026-09-04 01:01:16 | 50.16157 | 11.38829 | 62° | 11km/h | 23069m | 6m/s | -53.2°C | 0.6% | 36hPa | 2.5V | 18:12:15 | 01:26:40 | 00:00:00 | |
| DM0DOS-11 | 2026-09-04 01:01:13 | 50.16152 | 11.38800 | 82° | 18km/h | 23031m | 6.4m/s | -53.1°C | 4.2% | 36.2hPa | 2.5V | 08:30:00 | 01:26:33 | 00:00:00 | |
| PETON7-10 | 2026-09-04 01:01:13 | 50.16154 | 11.38822 | 50° | 15km/h | 23059m | 4.0m/s | -53.1°C | 4.2% | 36.0hPa | 2.6V | 00:00:00 | 00:00:00 | 00:00:00 | |
| DL1NUX | 2026-09-04 01:01:12 | 50.16151 | 11.38792 | 72° | 22km/h | 23025m | 5.8m/s | -53.1°C | 4.2% | 36.2hPa | 2.5V | 08:30:00 | 01:26:32 | 00:00:00 | |
| HSKMA3-T | 2026-09-04 01:01:11 | 50.16152 | 11.38815 | 85° | 9km/h | 23048m | 6m/s | -53.2°C | 0.6% | 36.1hPa | 2.7V | 18:12:15 | 01:26:36 | 00:00:00 | |
| DF8AY | 2026-09-04 01:01:07 | 50.16151 | 11.38792 | 72° | 22km/h | 23025m | 5.8m/s | -53.1°C | 0.6% | 36.2hPa | 2.5V | 18:12:15 | 01:26:32 | 00:00:00 | |
| DL1XH-west | 2026-09-04 01:01:06 | 50.16149 | 11.38784 | 68° | 24km/h | 23020m | 4.7m/s | -53.1°C | 0.6% | 36.3hPa | 2.6V | 18:12:15 | 01:26:31 | 00:00:00 | |
| PG1ADW-2 | 2026-09-04 01:01:04 | 50.16144 | 11.38766 | 67° | 20km/h | 23009m | 5.5m/s | -53.1°C | 4.2% | 36.3hPa | 2.5V | 00:00:00 | 00:00:00 | 00:00:00 | |
| DL1NUX | 2026-09-04 01:01:02 | 50.16126 | 11.38724 | 53° | 11km/h | 22972m | 4.8m/s | -53.2°C | 4.2% | 36.5hPa | 2.5V | 08:30:00 | 01:26:22 | 00:00:00 | |
| HSKMA3-T | 2026-09-04 01:01:01 | 50.16136 | 11.38745 | 54° | 20km/h | 22994m | 6.3m/s | -53.1°C | 0.6% | 36.4hPa | 2.5V | 18:12:15 | 01:26:26 | 00:00:00 | |
| DL1XH1-15 | 2026-09-04 01:01:00 | 50.16128 | 11.38728 | 53° | 13km/h | 22977m | 6.4m/s | -53.2°C | 4.2% | 36.5hPa | 2.5V | 08:30:00 | 01:26:23 | 00:00:00 | |
| DL1XH-west | 2026-09-04 01:00:55 | 50.16122 | 11.38717 | 48° | 15km/h | 22961m | 6.1m/s | -53.2°C | 0.6% | 36.6hPa | 2.7V | 18:12:15 | 01:26:20 | 00:00:00 | |
| DB0NH | 2026-09-04 01:00:55 | 50.16122 | 11.38717 | 49° | 20km/h | 22961m | 6.0m/s | -53.1°C | 4.2% | 36.6hPa | 2.5V | 00:00:00 | 01:26:20 | 00:00:00 | |
| SO1NDE-10 | 2026-09-04 01:00:53 | 50.16116 | 11.38706 | 52° | 20km/h | 22951m | 4.6m/s | -53.2°C | 4.2% | 36.6hPa | 2.5V | 00:00:00 | 01:26:18 | 08:30:00 | |
| DL1NUX | 2026-09-04 01:00:52 | 50.16097 | 11.38660 | 54° | 26km/h | 22919m | 4.3m/s | -53.2°C | 4.2% | 36.9hPa | 2.7V | 08:30:00 | 01:26:12 | 00:00:00 | |
| DL1XH1-15 | 2026-09-04 01:00:50 | 50.16101 | 11.38668 | 54° | 26km/h | 22924m | 5.9m/s | -53.2°C | 4.2% | 36.8hPa | 2.7V | 08:30:00 | 01:26:13 | 00:00:00 | |
| HSKMA3-T | 2026-09-04 01:00:50 | 50.16107 | 11.38684 | 63° | 22km/h | 22935m | 4.5m/s | -53.3°C | 0.6% | 36.8hPa | 2.6V | 18:12:15 | 01:26:15 | 00:00:00 | |
| DL1XH-west | 2026-09-04 01:00:44 | 50.16088 | 11.38636 | 66° | 20km/h | 22903m | 5.3m/s | -53.3°C | 0.7% | 36.9hPa | 2.5V | 18:12:15 | 01:26:09 | 00:00:00 | |
| PG1ADW-2 | 2026-09-04 01:00:44 | 50.16088 | 11.38636 | 67° | 20km/h | 22903m | 5.3m/s | -53.2°C | 4.2% | 36.9hPa | 2.7V | 00:00:00 | 00:00:00 | 00:00:00 | |
| PETON7-10 | 2026-09-04 01:00:43 | 50.16086 | 11.38629 | 62° | 20km/h | 22897m | 5.2m/s | -53.3°C | 0% | 36.9hPa | 2.7V | 00:00:00 | 01:26:08 | 00:00:00 | |
| DL1NUX | 2026-09-04 01:00:42 | 50.16068 | 11.38593 | 56° | 20km/h | 22865m | 4.7m/s | -53.6°C | 4.3% | 37.1hPa | 2.7V | 08:30:00 | 01:26:02 | 00:00:00 | |
| DL1XH-15 | 2026-09-04 01:00:41 | 50.16064 | 11.38587 | 52° | 20km/h | 22859m | 6.3m/s | -53.6°C | 0% | 0hPa | 2.7V | 08:30:00 | 01:26:01 | 00:00:00 | |
| HSKMA3-T | 2026-09-04 01:00:39 | 50.16073 | 11.38605 | 50° | 20km/h | 22876m | 6.3m/s | -53.6°C | 0.7% | 37.1hPa | 2.5V | 18:12:15 | 01:26:04 | 00:00:00 | |
| BIOWL1-15 | 2026-09-04 01:00:35 | 50.16061 | 11.38581 | 48° | 20km/h | 22853m | 5.4m/s | -53.6°C | 0.7% | 37.2hPa | 2.5V | 18:12:15 | 01:26:00 | 00:00:00 | |
| DL1XH-west | 2026-09-04 01:00:33 | 50.16055 | 11.38569 | 58° | 20km/h | 22842m | 6.2m/s | -53.6°C | 0.7% | 37.3hPa | 2.6V | 18:12:15 | 01:25:58 | 00:00:00 | |
| HSKMA3-T | 2026-09-04 01:00:29 | 50.16044 | 11.38544 | 36° | 20km/h | 22822m | 6.3m/s | -53.5°C | 0.7% | 37.4hPa | 2.5V | 18:12:15 | 01:25:54 | 00:00:00 | |
| BIOWL1-15 | 2026-09-04 01:00:23 | 50.16021 | 11.38529 | 26° | 9km/h | 22790m | 5.2m/s | -53.3°C | 0.7% | 37.6hPa | 2.5V | 18:12:15 | 01:25:48 | 00:00:00 | |
| DL1XH-west | 2026-09-04 01:00:22 | 50.16019 | 11.38528 | 16° | 9km/h | 22785m | 6m/s | -53.3°C | 0.7% | 37.6hPa | 2.5V | 18:12:15 | 01:25:47 | 00:00:00 | |
| SONDE2-11 | 2026-09-04 01:00:22 | 50.16017 | 11.38527 | 14° | 7km/h | 22780m | 4.6m/s | -53.3°C | 1.1% | 37.6hPa | 2.7V | 00:00:00 | 00:00:00 | 00:00:00 | |
| DF8AY-15 | 2026-09-04 01:00:21 | 50.16017 | 11.38527 | 15° | 11km/h | 22780m | 4.5m/s | -53.2°C | 4.4% | 37.6hPa | 2.7V | 00:00:00 | 01:25:46 | 00:00:00 | |
| DL1XH1-15 | 2026-09-04 01:00:20 | 50.16011 | 11.38521 | 48° | 11km/h | 22763m | 5.1m/s | -53.3°C | 4.3% | 37.7hPa | 2.7V | 08:30:00 | 01:25:43 | 00:00:00 | |
| HSKMA3-T | 2026-09-04 01:00:18 | 50.16011 | 11.38521 | 49° | 11km/h | 22763m | 5.1m/s | -53.3°C | 0.7% | 37.7hPa | 2.7V | 18:12:15 | 01:25:43 | 00:00:00 | |
| DL1XH-west | 2026-09-04 01:00:12 | 50.15988 | 11.38505 | 18° | 18km/h | 22732m | 4.9m/s | -53.1°C | 0.7% | 37.9hPa | 2.5V | 18:12:15 | 01:25:37 | 00:00:00 | |
| DF8AY | 2026-09-04 01:00:11 | 50.15984 | 11.38503 | 13° | 15km/h | 22728m | 4.7m/s | -53.1°C | 0.7% | 38hPa | 2.5V | 18:12:15 | 01:25:36 | 00:00:00 | |
| DM0DOS-11 | 2026-09-04 01:00:11 | 50.15973 | 11.38507 | 284° | 2km/h | 22701m | 6.2m/s | -53°C | 4.1% | 38.1hPa | 2.7V | 08:30:00 | 01:25:31 | 00:00:00 | |
| DL1XH1-15 | 2026-09-04 01:00:10 | 50.15975 | 11.38504 | 332° | 9km/h | 22712m | 4.2m/s | -53°C | 4.2% | 38hPa | 2.7V | 08:30:00 | 01:25:33 | 00:00:00 | |
| HSKMA3-T | 2026-09-04 01:00:08 | 50.15975 | 11.38504 | 333° | 9km/h | 22712m | 4.2m/s | -53°C | 0.6% | 38hPa | 2.7V | 18:12:15 | 01:25:33 | 00:00:00 | |
| DO3MHA-11 | 2026-09-04 01:00:08 | 50.15975 | 11.38504 | 333° | 5km/h | 22712m | 4.1m/s | -53.0°C | 4.2% | 38.0hPa | 2.7V | 00:00:00 | 01:25:33 | 00:00:00 | |
| EDDB2-12 | 2026-09-04 01:00:07 | 50.15973 | 11.38506 | 319° | 4km/h | 22707m | 5.6m/s | -53.0°C | 1.1% | 38.1hPa | 2.6V | 00:00:00 | 00:00:00 | 00:00:00 | |
| DF3TZ-5 | 2026-09-04 01:00:06 | 50.15973 | 11.38507 | 148° | 0km/h | 22696m | 5.2m/s | -52.9°C | 1.1% | 38.1hPa | 2.6V | 00:00:00 | 00:00:00 | 00:00:00 | |
| PG1ADW-2 | 2026-09-04 01:00:04 | 50.15973 | 11.38506 | 87° | 9km/h | 22691m | 5.4m/s | -52.9°C | 4.2% | 38.1hPa | 2.6V | 00:00:00 | 00:00:00 | 00:00:00 | |
| BIOWL1-15 | 2026-09-04 01:00:04 | 50.15965 | 11.38502 | 14° | 11km/h | 22663m | 4.8m/s | -52.9°C | 0.6% | 38.3hPa | 2.5V | 18:12:15 | 01:25:24 | 00:00:00 | |
| DL1NUX | 2026-09-04 01:00:02 | 50.15959 | 11.38502 | 344° | 15km/h | 22653m | 6.3m/s | -52.9°C | 4.1% | 38.4hPa | 2.6V | 08:30:00 | 01:25:22 | 00:00:00 | |
| DL1XH-west | 2026-09-04 01:00:01 | 50.15969 | 11.38504 | 16° | 9km/h | 22674m | 5.1m/s | -52.9°C | 0.6% | 38.3hPa | 2.7V | 18:12:15 | 01:25:26 | 00:00:00 | |
| DF8AY | 2026-09-04 01:00:00 | 50.15967 | 11.38503 | 20° | 9km/h | 22669m | 5.8m/s | -52.9°C | 0.6% | 38.3hPa | 2.7V | 18:12:15 | 01:25:25 | 00:00:00 | |
| DL1XH1-15 | 2026-09-04 01:00:00 | 50.15962 | 11.38501 | 358° | 11km/h | 22659m | 4.6m/s | -52.9°C | 4.1% | 38.4hPa | 2.5V | 08:30:00 | 01:25:23 | 00:00:00 | |
| DJ8HS-15 | 2026-09-04 00:59:59 | 50.15965 | 11.38502 | 15° | 9km/h | 22664m | 4.7m/s | -52.8°C | 4.2% | 38.3hPa | 2.5V | 00:00:00 | 01:25:24 | 00:00:00 | |
| DF8AY-15 | 2026-09-04 00:59:58 | 50.15962 | 11.38501 | 359° | 9km/h | 22659m | 4.5m/s | -52.8°C | 4.1% | 38.3hPa | 2.5V | 00:00:00 | 01:25:23 | 00:00:00 | |
| DL1XH-15 | 2026-09-04 00:59:57 | 50.15949 | 11.38520 | 237° | 7km/h | 22627m | 4.7m/s | -52.9°C | 0% | 0hPa | 2.5V | 08:30:00 | 01:25:17 | 00:00:00 | |
| HSKMA3-T | 2026-09-04 00:59:57 | 50.15959 | 11.38502 | 344° | 15km/h | 22653m | 6.3m/s | -52.9°C | 0.6% | 38.4hPa | 2.6V | 18:12:15 | 01:25:22 | 00:00:00 | |
| DB0NH | 2026-09-04 00:59:55 | 50.15952 | 11.38508 | 317° | 9km/h | 22643m | 4.4m/s | -52.8°C | 4.2% | 38.4hPa | 2.5V | 00:00:00 | 01:25:20 | 00:00:00 | |
| SO1NDE-10 | 2026-09-04 00:59:53 | 50.15949 | 11.38517 | 274° | 9km/h | 22632m | 5.7m/s | -52.8°C | 4.2% | 38.5hPa | 2.5V | 00:00:00 | 01:25:18 | 00:00:00 | |
| DL1NUX | 2026-09-04 00:59:52 | 50.15950 | 11.38527 | 357° | 7km/h | 22601m | 5.6m/s | -53°C | 4.1% | 38.7hPa | 2.5V | 08:30:00 | 01:25:12 | 00:00:00 | |
| DL1XH-west | 2026-09-04 00:59:51 | 50.15951 | 11.38522 | 223° | 7km/h | 22622m | 4.3m/s | -53°C | 0.6% | 38.6hPa | 2.7V | 18:12:15 | 01:25:16 | 00:00:00 | |
| DF8AY | 2026-09-04 00:59:50 | 50.15952 | 11.38526 | 285° | 4km/h | 22611m | 5m/s | -53°C | 0.6% | 38.6hPa | 2.5V | 18:12:15 | 01:25:14 | 00:00:00 | |
| DL1XH1-15 | 2026-09-04 00:59:50 | 50.15952 | 11.38527 | 336° | 5km/h | 22606m | 5.2m/s | -53°C | 4.2% | 38.7hPa | 2.5V | 08:30:00 | 01:25:13 | 00:00:00 | |
| HSKMA3-T | 2026-09-04 00:59:46 | 50.15948 | 11.38527 | 8° | 7km/h | 22595m | 5.8m/s | -53°C | 0.6% | 38.7hPa | 2.6V | 18:12:15 | 01:25:11 | 00:00:00 | |
| PG1ADW-2 | 2026-09-04 00:59:44 | 50.15945 | 11.38528 | 335° | 11km/h | 22585m | 4.3m/s | -53.0°C | 4.1% | 38.7hPa | 2.7V | 00:00:00 | 00:00:00 | 00:00:00 | |
| DB0UT-7 | 2026-09-04 00:59:43 | 50.15943 | 11.38530 | 317° | 13km/h | 22580m | 5.9m/s | -53.0°C | 4.1% | 38.8hPa | 2.7V | 00:00:00 | 00:00:00 | 00:00:00 | |
| DL1NUX | 2026-09-04 00:59:42 | 50.15947 | 11.38551 | 197° | 13km/h | 22549m | 5.3m/s | -53°C | 4.2% | 39hPa | 2.7V | 08:30:00 | 01:25:02 | 00:00:00 | |
| ANDY1245 | 2026-09-04 00:59:41 | 50.15941 | 11.38534 | 302° | 13km/h | 22575m | 4.6m/s | -53.0°C | 1.1% | 38.9hPa | 2.7V | 00:00:00 | 00:00:00 | 00:00:00 | |
| DL1XH1-15 | 2026-09-04 00:59:40 | 50.15944 | 11.38549 | 205° | 13km/h | 22554m | 5.2m/s | -53°C | 4.1% | 39hPa | 2.7V | 08:30:00 | 01:25:03 | 00:00:00 | |
| DM0DOS-11 | 2026-09-04 00:59:40 | 50.15953 | 11.38554 | 187° | 11km/h | 22538m | 4.1m/s | -53°C | 4.2% | 39.1hPa | 2.5V | 08:30:00 | 01:25:00 | 00:00:00 | |
| BIOWL1-15 | 2026-09-04 00:59:40 | 50.15940 | 11.38543 | 260° | 11km/h | 22566m | 6m/s | -53°C | 0.6% | 38.9hPa | 2.6V | 18:12:15 | 01:25:05 | 00:00:00 | |
| DF8AY | 2026-09-04 00:59:38 | 50.15943 | 11.38549 | 206° | 13km/h | 22554m | 5.2m/s | -53°C | 0.6% | 39hPa | 2.7V | 18:12:15 | 01:25:03 | 00:00:00 | |
| HSKMA3-T | 2026-09-04 00:59:35 | 50.15953 | 11.38553 | 187° | 11km/h | 22539m | 4.1m/s | -53°C | 0.7% | 39.1hPa | 2.5V | 18:12:15 | 01:25:00 | 00:00:00 | |
| 13BRC | 2026-09-04 00:59:34 | 50.15953 | 11.38553 | 188° | 11km/h | 22539m | 4.1m/s | -53.0°C | 1.1% | 39.1hPa | 2.7V | 00:00:00 | 00:00:00 | 00:00:00 | |
| DL1NUX | 2026-09-04 00:59:32 | 50.15965 | 11.38554 | 247° | 11km/h | 22499m | 4.8m/s | -53.2°C | 4.2% | 39.3hPa | 2.7V | 08:30:00 | 01:24:52 | 00:00:00 | |
| DL1XH1-15 | 2026-09-04 00:59:30 | 50.15964 | 11.38550 | 255° | 11km/h | 22503m | 4.1m/s | -53.2°C | 4.2% | 39.3hPa | 2.6V | 08:30:00 | 01:24:53 | 00:00:00 | |
| DM0DOS-11 | 2026-09-04 00:59:30 | 50.15969 | 11.38561 | 213° | 13km/h | 22489m | 5m/s | -53.3°C | 4.2% | 39.4hPa | 2.7V | 08:30:00 | 01:24:50 | 00:00:00 | |
| DL1XH-west | 2026-09-04 00:59:30 | 50.15963 | 11.38546 | 172° | 4km/h | 22514m | 5.6m/s | -53.2°C | 0.6% | 39.2hPa | 2.5V | 18:12:15 | 01:24:55 | 00:00:00 | |
| BIOWL1-15 | 2026-09-04 00:59:30 | 50.15963 | 11.38547 | 247° | 5km/h | 22508m | 5.5m/s | -53.2°C | 0.6% | 39.3hPa | 2.5V | 18:12:15 | 01:24:54 | 00:00:00 | |
| DF8AY | 2026-09-04 00:59:27 | 50.15965 | 11.38554 | 247° | 11km/h | 22499m | 4.9m/s | -53.2°C | 0.6% | 39.4hPa | 2.7V | 18:12:15 | 01:24:52 | 00:00:00 | |
| HSKMA3-T | 2026-09-04 00:59:25 | 50.15969 | 11.38561 | 213° | 13km/h | 22489m | 5m/s | -53.3°C | 0.6% | 39.4hPa | 2.7V | 18:12:15 | 01:24:50 | 00:00:00 | |
| PG1ADW-2 | 2026-09-04 00:59:25 | 50.15971 | 11.38563 | 199° | 7km/h | 22484m | 4.3m/s | -53.2°C | 4.3% | 39.4hPa | 2.5V | 00:00:00 | 00:00:00 | 00:00:00 | |
| SO1NDE-10 | 2026-09-04 00:59:23 | 50.15974 | 11.38564 | 190° | 7km/h | 22480m | 4.8m/s | -53.3°C | 4.2% | 39.4hPa | 2.5V | 00:00:00 | 01:24:48 | 00:00:00 | |
| DL1NUX | 2026-09-04 00:59:22 | 50.15994 | 11.38566 | 192° | 11km/h | 22450m | 5.4m/s | -53.2°C | 4.2% | 39.7hPa | 2.5V | 08:30:00 | 01:24:42 | 00:00:00 | |
| PETON7-10 | 2026-09-04 00:59:22 | 50.15977 | 11.38565 | 186° | 7km/h | 22475m | 5.5m/s | 0°C | 0% | 0hPa | 2.7V | 00:00:00 | 00:00:00 | 00:00:00 | |
| S52SK | 2026-09-04 00:59:21 | 50.15977 | 11.38565 | 186° | 11km/h | 22475m | 5.6m/s | 0°C | 0% | 0hPa | 2.7V | 00:00:00 | 00:00:00 | 00:00:00 | |
| DM0DOS-11 | 2026-09-04 00:59:20 | 50.15997 | 11.38569 | 248° | 4km/h | 22439m | 4.4m/s | -53.2°C | 4.3% | 39.7hPa | 2.7V | 08:30:00 | 01:24:40 | 00:00:00 | |
| DL1XH-west | 2026-09-04 00:59:19 | 50.15991 | 11.38565 | 185° | 15km/h | 22455m | 4.3m/s | -53.2°C | 0.6% | 39.6hPa | 2.5V | 18:12:15 | 01:24:43 | 00:00:00 | |
| DL1XH1-15 | 2026-09-04 00:59:19 | 50.15991 | 11.38565 | 184° | 15km/h | 22455m | 4.3m/s | -53.2°C | 4.2% | 39.6hPa | 2.5V | 08:30:00 | 01:24:43 | 00:00:00 | |
| DF8AY | 2026-09-04 00:59:16 | 50.15996 | 11.38567 | 212° | 7km/h | 22444m | 5.8m/s | -53.2°C | 0.7% | 39.7hPa | 2.6V | 18:12:15 | 01:24:41 | 00:00:00 | |
| HSKMA3-T | 2026-09-04 00:59:14 | 50.15997 | 11.38570 | 257° | 4km/h | 22434m | 5.4m/s | -53.2°C | 0.7% | 39.7hPa | 2.7V | 18:12:15 | 01:24:39 | 00:00:00 | |
| DL1NUX | 2026-09-04 00:59:13 | 50.15996 | 11.38566 | 146° | 4km/h | 22398m | 5.9m/s | -53.4°C | 4.4% | 40hPa | 2.5V | 08:30:00 | 01:24:32 | 00:00:00 | |
| DL4BBY-15 | 2026-09-04 00:59:11 | 50.15997 | 11.38570 | 56° | 7km/h | 22419m | 4.7m/s | -54.8°C | 0% | 0hPa | 2.6V | 00:00:00 | 00:00:00 | 00:00:00 | |
| DM0DOS-11 | 2026-09-04 00:59:10 | 50.15999 | 11.38565 | 174° | 7km/h | 22389m | 4.7m/s | -53.4°C | 4.3% | 40hPa | 2.6V | 08:30:00 | 01:24:30 | 00:00:00 | |
| DL1XH1-15 | 2026-09-04 00:59:09 | 50.15995 | 11.38567 | 83° | 4km/h | 22404m | 5m/s | -53.3°C | 4.3% | 39.9hPa | 2.5V | 08:30:00 | 01:24:33 | 00:00:00 | |
| DL1XH-west | 2026-09-04 00:59:08 | 50.15996 | 11.38567 | 84° | 4km/h | 22404m | 5m/s | -53.3°C | 0.7% | 39.9hPa | 2.5V | 18:12:15 | 01:24:33 | 00:00:00 | |
| BIOWL1-15 | 2026-09-04 00:59:06 | 50.15997 | 11.38565 | 167° | 7km/h | 22393m | 4.3m/s | -53.4°C | 0.6% | 40hPa | 2.5V | 18:12:15 | 01:24:31 | 00:00:00 | |
| DF8AY | 2026-09-04 00:59:05 | 50.15999 | 11.38565 | 175° | 7km/h | 22389m | 4.7m/s | -53.4°C | 0.7% | 40hPa | 2.6V | 18:12:15 | 01:24:30 | 00:00:00 | |
| HSKMA3-T | 2026-09-04 00:59:03 | 50.16002 | 11.38565 | 221° | 2km/h | 22378m | 5.2m/s | -53.3°C | 0.7% | 40.1hPa | 2.7V | 18:12:15 | 01:24:28 | 00:00:00 | |
| DL1NUX | 2026-09-04 00:59:02 | 50.15993 | 11.38559 | 14° | 15km/h | 22348m | 5.5m/s | -53.1°C | 4.2% | 40.3hPa | 2.7V | 08:30:00 | 01:24:22 | 00:00:00 | |
| DL1XH-west | 2026-09-04 00:58:57 | 50.15993 | 11.38559 | 15° | 15km/h | 22348m | 5.6m/s | -53.1°C | 0.6% | 40.3hPa | 2.7V | 18:12:15 | 01:24:22 | 00:00:00 | |
| DF8AY | 2026-09-04 00:58:55 | 50.15987 | 11.38558 | 4° | 11km/h | 22338m | 4.6m/s | -53.1°C | 0.7% | 40.4hPa | 2.5V | 18:12:15 | 01:24:20 | 00:00:00 | |
| BIOWL1-15 | 2026-09-04 00:58:55 | 50.15990 | 11.38569 | 225° | 16km/h | 22311m | 4.6m/s | -53°C | 0.7% | 40.5hPa | 2.5V | 18:12:15 | 01:24:15 | 00:00:00 | |
| HSKMA3-T | 2026-09-04 00:58:53 | 50.15984 | 11.38558 | 235° | 4km/h | 22328m | 4.7m/s | -53.1°C | 0.7% | 40.4hPa | 2.6V | 18:12:15 | 01:24:18 | 00:00:00 | |
| SO1NDE-10 | 2026-09-04 00:58:53 | 50.15984 | 11.38558 | 236° | 15km/h | 22328m | 4.7m/s | -53.1°C | 4.3% | 40.4hPa | 2.7V | 00:00:00 | 01:24:18 | 00:00:00 | |
| DL1NUX | 2026-09-04 00:58:52 | 50.16000 | 11.38578 | 187° | 13km/h | 22296m | 5.8m/s | -53°C | 4.2% | 40.6hPa | 2.7V | 08:30:00 | 01:24:12 | 00:00:00 | |
| DL1XH-west | 2026-09-04 00:58:47 | 50.16000 | 11.38578 | 188° | 13km/h | 22296m | 5.8m/s | -53°C | 0.6% | 40.6hPa | 2.7V | 18:12:15 | 01:24:12 | 00:00:00 | |
| EDDB2-11 | 2026-09-04 00:58:46 | 50.16003 | 11.38578 | 165° | 7km/h | 22291m | 4.1m/s | -53.0°C | 1.1% | 40.7hPa | 2.7V | 00:00:00 | 00:00:00 | 00:00:00 | |
| DF8AY | 2026-09-04 00:58:44 | 50.16001 | 11.38580 | 180° | 7km/h | 22256m | 5.8m/s | -53.1°C | 0.6% | 40.9hPa | 2.7V | 18:12:15 | 01:24:04 | 00:00:00 | |
| HSKMA3-T | 2026-09-04 00:58:43 | 50.16003 | 11.38576 | 342° | 5km/h | 22275m | 5.8m/s | -53°C | 0.6% | 40.7hPa | 2.5V | 18:12:15 | 01:24:08 | 00:00:00 | |
| BIOWL1-15 | 2026-09-04 00:58:42 | 50.16002 | 11.38577 | 330° | 7km/h | 22270m | 4.2m/s | -53°C | 0.6% | 40.8hPa | 2.6V | 18:12:15 | 01:24:07 | 00:00:00 | |
| DL1NUX | 2026-09-04 00:58:42 | 50.16008 | 11.38580 | 183° | 18km/h | 22246m | 5.1m/s | -53.1°C | 4.1% | 40.9hPa | 2.5V | 08:30:00 | 01:24:02 | 00:00:00 | |
| DM0DOS-11 | 2026-09-04 00:58:40 | 50.16018 | 11.38583 | 197° | 22km/h | 22235m | 5.9m/s | -53.1°C | 4.2% | 41hPa | 2.5V | 08:30:00 | 01:24:00 | 00:00:00 | |
| DF8AY | 2026-09-04 00:58:39 | 50.16049 | 11.38589 | 176° | 18km/h | 22203m | 6.1m/s | -53.3°C | 0.6% | 41.2hPa | 2.7V | 18:12:15 | 01:23:54 | 00:00:00 | |
| DL1XH-west | 2026-09-04 00:58:36 | 50.16013 | 11.38581 | 190° | 20km/h | 22241m | 6.1m/s | -53.1°C | 0.6% | 41hPa | 2.5V | 18:12:15 | 01:24:01 | 00:00:00 | |
| HSKMA3-T | 2026-09-04 00:58:32 | 50.16034 | 11.38590 | 186° | 22km/h | 22219m | 6.3m/s | -53.2°C | 0.6% | 41.1hPa | 2.5V | 18:12:15 | 01:23:57 | 00:00:00 | |
| DL1NUX | 2026-09-04 00:58:32 | 50.16058 | 11.38589 | 175° | 16km/h | 22193m | 4.1m/s | -53.3°C | 4.2% | 41.3hPa | 2.5V | 08:30:00 | 01:23:52 | 00:00:00 | |
| BIOWL1-15 | 2026-09-04 00:58:31 | 50.16044 | 11.38590 | 174° | 20km/h | 22208m | 4.7m/s | -53.2°C | 0.6% | 41.2hPa | 2.6V | 18:12:15 | 01:23:55 | 00:00:00 | |
| DB0UT-7 | 2026-09-04 00:58:31 | 50.16039 | 11.38590 | 178° | 24km/h | 22214m | 5.2m/s | -53.2°C | 4.2% | 41.1hPa | 2.5V | 00:00:00 | 01:23:56 | 00:00:00 | |
| DM0DOS-11 | 2026-09-04 00:58:30 | 50.16066 | 11.38586 | 164° | 20km/h | 22182m | 5.6m/s | -53.4°C | 4.1% | 41.4hPa | 2.5V | 08:30:00 | 01:23:50 | 00:00:00 | |
| DL1XH-west | 2026-09-04 00:58:25 | 50.16066 | 11.38586 | 164° | 20km/h | 22182m | 5.6m/s | -53.4°C | 0.6% | 41.4hPa | 2.5V | 18:12:15 | 01:23:50 | 00:00:00 | |
| DF8AY | 2026-09-04 00:58:23 | 50.16076 | 11.38582 | 170° | 22km/h | 22172m | 5.5m/s | -53.5°C | 0.7% | 41.4hPa | 2.7V | 18:12:15 | 01:23:48 | 00:00:00 | |
| HSKMA3-T | 2026-09-04 00:58:22 | 50.16082 | 11.38581 | 178° | 22km/h | 22167m | 5.3m/s | -53.5°C | 0.7% | 41.4hPa | 2.5V | 18:12:15 | 01:23:47 | 00:00:00 | |
| BIOWL1-15 | 2026-09-04 00:58:20 | 50.16094 | 11.38580 | 175° | 26km/h | 22158m | 4m/s | -53.7°C | 0.7% | 41.5hPa | 2.5V | 18:12:15 | 01:23:45 | 00:00:00 | |
| DM0DOS-11 | 2026-09-04 00:58:20 | 50.16129 | 11.38561 | 156° | 27km/h | 22132m | 5.4m/s | -53.8°C | 4.4% | 41.7hPa | 2.5V | 08:30:00 | 01:23:40 | 00:00:00 | |
| DF8AY-15 | 2026-09-04 00:58:20 | 50.16094 | 11.38580 | 175° | 29km/h | 22158m | 4.0m/s | -53.6°C | 4.3% | 41.4hPa | 2.5V | 00:00:00 | 01:23:45 | 00:00:00 | |
| DL1XH1-15 | 2026-09-04 00:58:19 | 50.16108 | 11.38575 | 160° | 31km/h | 22147m | 5.4m/s | -53.8°C | 4.3% | 41.5hPa | 2.7V | 08:30:00 | 01:23:43 | 00:00:00 | |
| DL1XH-west | 2026-09-04 00:58:15 | 50.16129 | 11.38561 | 157° | 27km/h | 22132m | 5.4m/s | -53.8°C | 0.8% | 41.7hPa | 2.5V | 18:12:15 | 01:23:40 | 00:00:00 | |
| DJTTGO | 2026-09-04 00:58:13 | 50.16135 | 11.38557 | 158° | 26km/h | 22127m | 4.1m/s | -53.8°C | 1.1% | 41.7hPa | 2.5V | 00:00:00 | 00:00:00 | 00:00:00 | |
| DL1NUX | 2026-09-04 00:58:12 | 50.16171 | 11.38524 | 158° | 18km/h | 22091m | 4.3m/s | -53.9°C | 4.4% | 41.9hPa | 2.5V | 08:30:00 | 01:23:32 | 00:00:00 | |
| HSKMA3-T | 2026-09-04 00:58:12 | 50.16147 | 11.38548 | 149° | 26km/h | 22117m | 5.7m/s | -53.8°C | 0.7% | 41.8hPa | 2.6V | 18:12:15 | 01:23:37 | 00:00:00 | |
| DM0DOS-11 | 2026-09-04 00:58:10 | 50.16180 | 11.38518 | 159° | 26km/h | 22081m | 5m/s | -53.9°C | 4.3% | 42hPa | 2.7V | 08:30:00 | 01:23:30 | 00:00:00 | |
| BIOWL1-15 | 2026-09-04 00:58:10 | 50.16187 | 11.38515 | 160° | 27km/h | 22076m | 4.5m/s | -54°C | 0.7% | 42hPa | 2.5V | 18:12:15 | 01:23:29 | 00:00:00 | |
| DL1XH1-15 | 2026-09-04 00:58:09 | 50.16166 | 11.38527 | 153° | 18km/h | 22096m | 5.8m/s | -53.9°C | 4.3% | 41.9hPa | 2.5V | 08:30:00 | 01:23:33 | 00:00:00 | |
| DL1XH-west | 2026-09-04 00:58:05 | 50.16180 | 11.38518 | 159° | 26km/h | 22081m | 5.1m/s | -54°C | 0.7% | 42hPa | 2.7V | 18:12:15 | 01:23:30 | 00:00:00 | |
| HSKMA3-T | 2026-09-04 00:58:01 | 50.16208 | 11.38505 | 163° | 29km/h | 22061m | 4.4m/s | -54°C | 0.8% | 42.1hPa | 2.7V | 18:12:15 | 01:23:26 | 00:00:00 | |
| DL1XH1-15 | 2026-09-04 00:57:59 | 50.16227 | 11.38487 | 133° | 29km/h | 22046m | 5.2m/s | -53.9°C | 4.4% | 42.2hPa | 2.5V | 08:30:00 | 01:23:23 | 00:00:00 | |
| DF8AY | 2026-09-04 00:57:58 | 50.16227 | 11.38487 | 134° | 29km/h | 22046m | 5.2m/s | -53.9°C | 0.7% | 42.2hPa | 2.5V | 18:12:15 | 01:23:23 | 00:00:00 | |
| DL1XH-15 | 2026-09-04 00:57:58 | 50.16232 | 11.38479 | 123° | 27km/h | 22041m | 4.7m/s | 0°C | 0% | 0hPa | 2.5V | 08:30:00 | 01:23:22 | 00:00:00 | |
| DL1XH-west | 2026-09-04 00:57:54 | 50.16239 | 11.38456 | 110° | 16km/h | 22026m | 4.2m/s | -53.9°C | 0.7% | 42.4hPa | 2.7V | 18:12:15 | 01:23:19 | 00:00:00 | |
| SO1NDE-10 | 2026-09-04 00:57:53 | 50.16240 | 11.38450 | 112° | 16km/h | 22022m | 5.3m/s | -53.9°C | 4.3% | 42.3hPa | 2.7V | 00:00:00 | 01:23:18 | 00:00:00 | |
| DL1NUX | 2026-09-04 00:57:52 | 50.16261 | 11.38422 | 155° | 22km/h | 21990m | 5.5m/s | -54.1°C | 4.3% | 42.6hPa | 2.7V | 08:30:00 | 01:23:12 | 00:00:00 | |
| HSKMA3-T | 2026-09-04 00:57:50 | 50.16248 | 11.38433 | 138° | 18km/h | 22006m | 5.4m/s | -54°C | 0.7% | 42.5hPa | 2.5V | 18:12:15 | 01:23:15 | 00:00:00 | |
| DL1XH1-15 | 2026-09-04 00:57:49 | 50.16256 | 11.38425 | 156° | 20km/h | 21995m | 4.8m/s | -54°C | 4.3% | 42.5hPa | 2.7V | 08:30:00 | 01:23:13 | 00:00:00 | |
| DF8AY | 2026-09-04 00:57:48 | 50.16256 | 11.38425 | 157° | 20km/h | 21995m | 4.8m/s | -54.1°C | 0.7% | 42.5hPa | 2.7V | 18:12:15 | 01:23:13 | 00:00:00 | |
| SONDE2-11 | 2026-09-04 00:57:47 | 50.16266 | 11.38417 | 150° | 24km/h | 21985m | 5.6m/s | -54.1°C | 1.1% | 42.6hPa | 2.7V | 00:00:00 | 00:00:00 | 00:00:00 | |
| DF8AY-15 | 2026-09-04 00:57:46 | 50.16266 | 11.38417 | 151° | 18km/h | 21985m | 5.5m/s | -54.1°C | 4.4% | 42.6hPa | 2.7V | 00:00:00 | 01:23:11 | 00:00:00 | |
| DM0DOS-11 | 2026-09-04 00:57:45 | 50.16280 | 11.38402 | 136° | 20km/h | 21969m | 4.7m/s | -54.3°C | 4.4% | 42.7hPa | 2.7V | 08:30:00 | 01:23:08 | 00:00:00 | |
| DL1XH-west | 2026-09-04 00:57:44 | 50.16276 | 11.38407 | 142° | 22km/h | 21974m | 5.8m/s | -54.3°C | 0.8% | 42.7hPa | 2.5V | 18:12:15 | 01:23:09 | 00:00:00 | |
| BIOWL1-15 | 2026-09-04 00:57:44 | 50.16296 | 11.38363 | 140° | 9km/h | 21934m | 4.4m/s | -54.4°C | 0.7% | 43hPa | 2.5V | 18:12:15 | 01:23:01 | 00:00:00 | |
| DH8WE-5 | 2026-09-04 00:57:43 | 50.16276 | 11.38407 | 143° | 22km/h | 21974m | 5.8m/s | -54.3°C | 1.2% | 42.7hPa | 2.7V | 00:00:00 | 00:00:00 | 00:00:00 | |
| DL1NUX | 2026-09-04 00:57:42 | 50.16294 | 11.38366 | 123° | 11km/h | 21939m | 5.7m/s | -54.4°C | 4.4% | 42.9hPa | 2.7V | 08:30:00 | 01:23:02 | 00:00:00 | |
| DL1XH1-15 | 2026-09-04 00:57:39 | 50.16293 | 11.38370 | 117° | 15km/h | 21944m | 5.2m/s | -54.3°C | 4.4% | 42.9hPa | 2.7V | 08:30:00 | 01:23:03 | 00:00:00 | |
| HSKMA3-T | 2026-09-04 00:57:39 | 50.16291 | 11.38376 | 116° | 18km/h | 21949m | 4.3m/s | -54.3°C | 0.7% | 42.9hPa | 2.6V | 18:12:15 | 01:23:04 | 00:00:00 | |
| DJ8HS-15 | 2026-09-04 00:57:39 | 50.16291 | 11.38376 | 116° | 15km/h | 21949m | 4.2m/s | -54.3°C | 4.4% | 42.8hPa | 2.6V | 00:00:00 | 01:23:04 | 00:00:00 | |
| DM0DOS-11 | 2026-09-04 00:57:38 | 50.16304 | 11.38355 | 141° | 16km/h | 21918m | 4.4m/s | -54.6°C | 4.5% | 43.1hPa | 2.6V | 08:30:00 | 01:22:58 | 00:00:00 | |
| DF8AY | 2026-09-04 00:57:37 | 50.16294 | 11.38366 | 124° | 11km/h | 21939m | 5.7m/s | -54.4°C | 0.7% | 43hPa | 2.7V | 18:12:15 | 01:23:02 | 00:00:00 | |
| DL1XH-west | 2026-09-04 00:57:34 | 50.16301 | 11.38358 | 149° | 15km/h | 21924m | 5.6m/s | -54.5°C | 0.8% | 43hPa | 2.5V | 18:12:15 | 01:22:59 | 00:00:00 | |
| SONCRA | 2026-09-04 00:57:33 | 50.16304 | 11.38355 | 141° | 15km/h | 21918m | 4.4m/s | -54.6°C | 1.2% | 43.1hPa | 2.5V | 00:00:00 | 00:00:00 | 00:00:00 | |
| DL1NUX | 2026-09-04 00:57:32 | 50.16315 | 11.38325 | 102° | 16km/h | 21889m | 5.3m/s | -54.6°C | 4.6% | 43.3hPa | 2.5V | 08:30:00 | 01:22:52 | 00:00:00 | |
| BIOWL1-15 | 2026-09-04 00:57:29 | 50.16313 | 11.38336 | 111° | 15km/h | 21899m | 4m/s | -54.5°C | 0.9% | 43.2hPa | 2.5V | 18:12:15 | 01:22:54 | 00:00:00 | |
| DM0DOS-11 | 2026-09-04 00:57:28 | 50.16315 | 11.38303 | 80° | 11km/h | 21868m | 3.9m/s | -54.5°C | 4.6% | 43.4hPa | 2.5V | 08:30:00 | 01:22:48 | 00:00:00 | |
| DO3MHA-11 | 2026-09-04 00:57:27 | 50.16315 | 11.38325 | 103° | 16km/h | 21889m | 5.2m/s | -54.5°C | 4.6% | 43.2hPa | 2.7V | 00:00:00 | 01:22:52 | 00:00:00 | |
| DL1XH-15 | 2026-09-04 00:57:26 | 50.16316 | 11.38312 | 86° | 15km/h | 21878m | 6.2m/s | 0°C | 0% | 0hPa | 2.7V | 00:00:00 | 01:22:50 | 00:00:00 | |
| DF8AY | 2026-09-04 00:57:26 | 50.16316 | 11.38312 | 87° | 15km/h | 21878m | 6.2m/s | -54.5°C | 0.9% | 43.3hPa | 2.7V | 18:12:15 | 01:22:50 | 00:00:00 | |
| DL1XH-west | 2026-09-04 00:57:23 | 50.16315 | 11.38303 | 81° | 11km/h | 21868m | 3.9m/s | -54.5°C | 0.8% | 43.4hPa | 2.5V | 18:12:15 | 01:22:48 | 00:00:00 | |
| SO1NDE-10 | 2026-09-04 00:57:23 | 50.16315 | 11.38303 | 81° | 13km/h | 21868m | 3.9m/s | -54.4°C | 4.6% | 43.4hPa | 2.5V | 00:00:00 | 01:22:48 | 00:00:00 | |
| DF7PN | 2026-09-04 00:57:22 | 50.16315 | 11.38298 | 91° | 11km/h | 21864m | 5.2m/s | -54.5°C | 1.2% | 43.5hPa | 2.5V | 00:00:00 | 00:00:00 | 00:00:00 | |
| DH8WE-5 | 2026-09-04 00:57:21 | 50.16315 | 11.38298 | 93° | 13km/h | 21864m | 5.2m/s | -54.5°C | 1.2% | 43.5hPa | 2.5V | 00:00:00 | 00:00:00 | 00:00:00 | |
| DL1XH1-15 | 2026-09-04 00:57:19 | 50.16317 | 11.38269 | 87° | 20km/h | 21844m | 5.9m/s | -54.4°C | 4.6% | 43.6hPa | 2.5V | 08:30:00 | 01:22:43 | 00:00:00 | |
| HSKMA3-T | 2026-09-04 00:57:19 | 50.16317 | 11.38278 | 95° | 20km/h | 21849m | 4m/s | -54.4°C | 0.8% | 43.6hPa | 2.7V | 18:12:15 | 01:22:44 | 00:00:00 | |
| BIOWL1-15 | 2026-09-04 00:57:19 | 50.16315 | 11.38254 | 76° | 18km/h | 21833m | 5.2m/s | -54.3°C | 0.8% | 43.7hPa | 2.5V | 18:12:15 | 01:22:41 | 00:00:00 | |
| DB0UT-7 | 2026-09-04 00:57:18 | 50.16317 | 11.38269 | 88° | 9km/h | 21845m | 5.8m/s | -54.3°C | 4.6% | 43.5hPa | 2.5V | 00:00:00 | 01:22:43 | 00:00:00 | |
| DO3MHA-11 | 2026-09-04 00:57:17 | 50.16316 | 11.38262 | 80° | 13km/h | 21839m | 5.5m/s | -54.3°C | 4.6% | 43.6hPa | 2.5V | 00:00:00 | 01:22:42 | 00:00:00 | |
| DM0DOS-11 | 2026-09-04 00:57:16 | 50.16313 | 11.38237 | 80° | 11km/h | 21818m | 4.2m/s | -54.2°C | 4.5% | 43.8hPa | 2.5V | 08:30:00 | 01:22:38 | 00:00:00 | |
| DF8AY | 2026-09-04 00:57:15 | 50.16314 | 11.38248 | 79° | 16km/h | 21828m | 5.9m/s | -54.3°C | 0.8% | 43.7hPa | 2.7V | 18:12:15 | 01:22:40 | 00:00:00 | |
| DL1XH-west | 2026-09-04 00:57:12 | 50.16313 | 11.38233 | 69° | 11km/h | 21813m | 5.7m/s | -54.2°C | 0.8% | 43.8hPa | 2.5V | 18:12:15 | 01:22:37 | 00:00:00 | |
| DF8AY | 2026-09-04 00:57:10 | 50.16306 | 11.38204 | 75° | 16km/h | 21775m | 5.3m/s | -54.1°C | 0.8% | 44hPa | 2.5V | 18:12:15 | 01:22:30 | 00:00:00 | |
| DL1XH1-15 | 2026-09-04 00:57:09 | 50.16308 | 11.38220 | 79° | 11km/h | 21791m | 5.3m/s | -54.2°C | 4.5% | 44hPa | 2.7V | 08:30:00 | 01:22:33 | 00:00:00 | |
| HSKMA3-T | 2026-09-04 00:57:08 | 50.16308 | 11.38220 | 80° | 11km/h | 21791m | 5.3m/s | -54.2°C | 0.7% | 44hPa | 2.7V | 18:12:15 | 01:22:33 | 00:00:00 | |
| DO3MHA-11 | 2026-09-04 00:57:07 | 50.16307 | 11.38215 | 85° | 13km/h | 21786m | 4.2m/s | -54.1°C | 4.5% | 43.9hPa | 2.7V | 00:00:00 | 01:22:32 | 00:00:00 | |
| DL4BBY-15 | 2026-09-04 00:57:06 | 50.16307 | 11.38210 | 79° | 7km/h | 21781m | 6.0m/s | -55.6°C | 0% | 0hPa | 2.6V | 00:00:00 | 00:00:00 | 00:00:00 | |
| DL1XH1-15 | 2026-09-04 00:57:04 | 50.16302 | 11.38169 | 46° | 7km/h | 21738m | 4.8m/s | -53.9°C | 4.5% | 44.3hPa | 2.6V | 08:30:00 | 01:22:23 | 00:00:00 | |
| DL1XH-west | 2026-09-04 00:57:01 | 50.16304 | 11.38180 | 89° | 13km/h | 21754m | 4.2m/s | -54°C | 0.8% | 44.2hPa | 2.7V | 18:12:15 | 01:22:26 | 00:00:00 | |
| HSKMA3-T | 2026-09-04 00:56:58 | 50.16302 | 11.38169 | 46° | 7km/h | 21738m | 4.8m/s | -53.9°C | 0.8% | 44.3hPa | 2.6V | 18:12:15 | 01:22:23 | 00:00:00 | |
| BIOWL1-15 | 2026-09-04 00:56:56 | 50.16300 | 11.38166 | 61° | 2km/h | 21728m | 5.7m/s | -53.8°C | 0.8% | 44.4hPa | 2.7V | 18:12:15 | 01:22:21 | 00:00:00 | |
| DF8AY | 2026-09-04 00:56:55 | 50.16300 | 11.38166 | 161° | 2km/h | 21722m | 4.8m/s | -53.7°C | 0.8% | 44.4hPa | 2.5V | 18:12:15 | 01:22:20 | 00:00:00 | |
| DB0NH | 2026-09-04 00:56:55 | 50.16300 | 11.38166 | 162° | 4km/h | 21723m | 4.8m/s | -53.7°C | 4.4% | 44.3hPa | 2.5V | 00:00:00 | 01:22:20 | 00:00:00 | |
| SO1NDE-10 | 2026-09-04 00:56:53 | 50.16301 | 11.38164 | 80° | 5km/h | 21712m | 6.1m/s | -53.6°C | 4.4% | 44.4hPa | 2.5V | 00:00:00 | 01:22:18 | 00:00:00 | |
| DL1XH1-15 | 2026-09-04 00:56:52 | 50.16298 | 11.38154 | 66° | 4km/h | 21686m | 4m/s | -53.4°C | 4.3% | 44.7hPa | 2.5V | 08:30:00 | 01:22:13 | 00:00:00 | |
| DL1NUX | 2026-09-04 00:56:52 | 50.16298 | 11.38153 | 32° | 5km/h | 21681m | 5.1m/s | -53.4°C | 4.3% | 44.7hPa | 2.6V | 08:30:00 | 01:22:12 | 00:00:00 | |
| DL1XH-west | 2026-09-04 00:56:51 | 50.16300 | 11.38160 | 63° | 7km/h | 21702m | 4.3m/s | -53.6°C | 0.8% | 44.5hPa | 2.7V | 18:12:15 | 01:22:16 | 00:00:00 | |
| HSKMA3-T | 2026-09-04 00:56:47 | 50.16298 | 11.38152 | 33° | 5km/h | 21681m | 5.1m/s | -53.4°C | 0.7% | 44.7hPa | 2.6V | 18:12:15 | 01:22:12 | 00:00:00 | |
| BIOWL1-15 | 2026-09-04 00:56:45 | 50.16292 | 11.38155 | 220° | 4km/h | 21650m | 4.3m/s | -53.2°C | 0.7% | 44.9hPa | 2.5V | 18:12:15 | 01:22:06 | 00:00:00 | |
| DM0DOS-11 | 2026-09-04 00:56:45 | 50.16291 | 11.38153 | 318° | 4km/h | 21660m | 5.8m/s | -53.3°C | 4.3% | 44.9hPa | 2.5V | 08:30:00 | 01:22:08 | 00:00:00 | |
| DF8AY | 2026-09-04 00:56:44 | 50.16291 | 11.38153 | 319° | 4km/h | 21660m | 5.8m/s | -53.3°C | 0.7% | 44.9hPa | 2.5V | 18:12:15 | 01:22:08 | 00:00:00 | |
| DF8AY-15 | 2026-09-04 00:56:44 | 50.16292 | 11.38152 | 347° | 4km/h | 21666m | 5.4m/s | -53.3°C | 4.3% | 44.8hPa | 2.5V | 00:00:00 | 01:22:09 | 00:00:00 | |
| DL1NUX | 2026-09-04 00:56:42 | 50.16295 | 11.38157 | 182° | 5km/h | 21629m | 6.4m/s | -53.1°C | 4.2% | 45.1hPa | 2.5V | 08:30:00 | 01:22:02 | 00:00:00 | |
| DL1XH-west | 2026-09-04 00:56:40 | 50.16292 | 11.38155 | 218° | 4km/h | 21645m | 5.8m/s | -53.2°C | 0.7% | 45hPa | 2.6V | 18:12:15 | 01:22:05 | 00:00:00 | |
| HSKMA3-T | 2026-09-04 00:56:37 | 50.16295 | 11.38157 | 182° | 5km/h | 21629m | 6.4m/s | -53.1°C | 0.7% | 45.1hPa | 2.5V | 18:12:15 | 01:22:02 | 00:00:00 | |
| DF8AY | 2026-09-04 00:56:33 | 50.16300 | 11.38155 | 46° | 2km/h | 21607m | 4.7m/s | -53.1°C | 0.6% | 45.2hPa | 2.7V | 18:12:15 | 01:21:58 | 00:00:00 | |
| DL1XH1-15 | 2026-09-04 00:56:33 | 50.16299 | 11.38152 | 200° | 0km/h | 21580m | 6.3m/s | -53.2°C | 4.2% | 45.4hPa | 2.7V | 08:30:00 | 01:21:53 | 00:00:00 | |
| DL1XH-west | 2026-09-04 00:56:29 | 50.16299 | 11.38152 | 137° | 2km/h | 21586m | 5.1m/s | -53.2°C | 0.6% | 45.4hPa | 2.7V | 18:12:15 | 01:21:54 | 00:00:00 | |
| HSKMA3-T | 2026-09-04 00:56:26 | 50.16301 | 11.38154 | 214° | 7km/h | 21570m | 3.8m/s | -53.2°C | 0.6% | 45.5hPa | 2.5V | 18:12:15 | 01:21:51 | 00:00:00 | |
| DM0DOS-11 | 2026-09-04 00:56:25 | 50.16309 | 11.38159 | 200° | 16km/h | 21555m | 4.4m/s | -53.6°C | 4.3% | 45.6hPa | 2.7V | 08:30:00 | 01:21:48 | 00:00:00 | |
| DB0NH | 2026-09-04 00:56:25 | 50.16302 | 11.38155 | 207° | 13km/h | 21565m | 6.5m/s | -53.3°C | 4.2% | 45.5hPa | 2.5V | 00:00:00 | 01:21:50 | 00:00:00 | |
| DJ2DS-15 | 2026-09-04 00:56:24 | 50.16309 | 11.38160 | 200° | 15km/h | 21555m | 4.4m/s | -53.6°C | 1.1% | 45.6hPa | 2.5V | 00:00:00 | 00:00:00 | 00:00:00 | |
| DL1XH1-15 | 2026-09-04 00:56:23 | 50.16321 | 11.38171 | 212° | 7km/h | 21530m | 5.8m/s | -53.6°C | 4.3% | 45.8hPa | 2.5V | 08:30:00 | 01:21:43 | 00:00:00 | |
| DF8AY | 2026-09-04 00:56:23 | 50.16313 | 11.38162 | 205° | 15km/h | 21550m | 5.5m/s | -53.6°C | 0.7% | 45.6hPa | 2.7V | 18:12:15 | 01:21:47 | 00:00:00 | |
| BIOWL1-15 | 2026-09-04 00:56:22 | 50.16323 | 11.38173 | 193° | 9km/h | 21525m | 5.5m/s | -53.6°C | 0.7% | 45.8hPa | 2.6V | 18:12:15 | 01:21:42 | 00:00:00 | |
| DL1NUX | 2026-09-04 00:56:22 | 50.16323 | 11.38173 | 192° | 9km/h | 21525m | 5.5m/s | -53.6°C | 4.4% | 45.8hPa | 2.6V | 08:30:00 | 01:21:42 | 00:00:00 | |
| DL1XH-west | 2026-09-04 00:56:19 | 50.16319 | 11.38169 | 225° | 7km/h | 21535m | 3.7m/s | -53.6°C | 0.7% | 45.8hPa | 2.5V | 18:12:15 | 01:21:44 | 00:00:00 | |
| HSKMA3-T | 2026-09-04 00:56:16 | 50.16325 | 11.38173 | 176° | 11km/h | 21519m | 4.7m/s | -53.6°C | 0.7% | 45.9hPa | 2.7V | 18:12:15 | 01:21:41 | 00:00:00 | |
| DM0DOS-11 | 2026-09-04 00:56:15 | 50.16331 | 11.38169 | 126° | 7km/h | 21503m | 6.2m/s | -53.7°C | 4.4% | 46hPa | 2.5V | 08:30:00 | 01:21:38 | 00:00:00 | |
| SP3BTT-10 | 2026-09-04 00:56:14 | 50.16330 | 11.38171 | 147° | 18km/h | 21509m | 5.7m/s | -53.6°C | 4.4% | 45.9hPa | 2.5V | 00:00:00 | 00:00:00 | 00:00:00 | |
| SONDE2-11 | 2026-09-04 00:56:13 | 50.16331 | 11.38169 | 126° | 7km/h | 21503m | 6.2m/s | -53.7°C | 1.1% | 46.0hPa | 2.5V | 00:00:00 | 00:00:00 | 00:00:00 | |
| DL1NUX | 2026-09-04 00:56:12 | 50.16344 | 11.38156 | 145° | 15km/h | 21472m | 5.5m/s | -53.6°C | 4.4% | 46.2hPa | 2.5V | 08:30:00 | 01:21:32 | 00:00:00 | |
| DF8AY | 2026-09-04 00:56:11 | 50.16334 | 11.38164 | 141° | 7km/h | 21493m | 5.4m/s | -53.7°C | 0.7% | 46hPa | 2.7V | 18:12:15 | 01:21:36 | 00:00:00 | |
| EDDB2-11 | 2026-09-04 00:56:11 | 50.16336 | 11.38162 | 155° | 9km/h | 21487m | 5.4m/s | -53.7°C | 1.1% | 46.1hPa | 2.5V | 00:00:00 | 00:00:00 | 00:00:00 | |
| DL1XH1-15 | 2026-09-04 00:56:09 | 50.16341 | 11.38158 | 153° | 15km/h | 21478m | 5.1m/s | -53.6°C | 4.4% | 46.1hPa | 2.5V | 08:30:00 | 01:21:33 | 00:00:00 | |
| DL1XH-west | 2026-09-04 00:56:09 | 50.16338 | 11.38161 | 158° | 13km/h | 21483m | 4.4m/s | -53.7°C | 0.8% | 46.1hPa | 2.5V | 18:12:15 | 01:21:34 | 00:00:00 | |
| HSKMA3-T | 2026-09-04 00:56:06 | 50.16348 | 11.38152 | 143° | 16km/h | 21467m | 4.5m/s | -53.6°C | 0.8% | 46.2hPa | 2.7V | 18:12:15 | 01:21:31 | 00:00:00 | |
| DL4BBY-15 | 2026-09-04 00:56:06 | 50.16347 | 11.38152 | 144° | 16km/h | 21468m | 4.4m/s | -55.1°C | 0% | 0hPa | 2.5V | 00:00:00 | 00:00:00 | 00:00:00 | |
| DM0DOS-11 | 2026-09-04 00:56:05 | 50.16363 | 11.38135 | 137° | 20km/h | 21447m | 4.7m/s | -53.5°C | 4.3% | 46.4hPa | 2.5V | 08:30:00 | 01:21:27 | 00:00:00 | |
| PG1ADW-2 | 2026-09-04 00:56:04 | 50.16355 | 11.38144 | 147° | 18km/h | 21457m | 5.5m/s | -53.5°C | 4.4% | 46.2hPa | 2.5V | 00:00:00 | 00:00:00 | 00:00:00 | |
| DL1NUX | 2026-09-04 00:56:02 | 50.16376 | 11.38109 | 143° | 18km/h | 21422m | 5.5m/s | -53.3°C | 4.3% | 46.5hPa | 2.5V | 08:30:00 | 01:21:22 | 00:00:00 | |
| DF8AY | 2026-09-04 00:56:01 | 50.16369 | 11.38124 | 122° | 16km/h | 21437m | 4.5m/s | -53.4°C | 0.7% | 46.4hPa | 2.7V | 18:12:15 | 01:21:25 | 00:00:00 | |
| DL1XH-west | 2026-09-04 00:55:59 | 50.16371 | 11.38118 | 122° | 16km/h | 21432m | 4.3m/s | -53.4°C | 0.7% | 46.5hPa | 2.7V | 18:12:15 | 01:21:24 | 00:00:00 | |
| HSKMA3-T | 2026-09-04 00:55:55 | 50.16385 | 11.38103 | 160° | 18km/h | 21412m | 4.7m/s | -53.4°C | 0.7% | 46.6hPa | 2.5V | 18:12:15 | 01:21:20 | 00:00:00 | |
| OE5DXL-15 | 2026-09-04 00:55:55 | 50.16384 | 11.38103 | 161° | 18km/h | 21412m | 4.6m/s | -53.3°C | 4.3% | 46.6hPa | 2.5V | 00:00:00 | 00:00:00 | 00:00:00 | |
| DM0DOS-11 | 2026-09-04 00:55:54 | 50.16403 | 11.38080 | 116° | 18km/h | 21381m | 6m/s | -53.5°C | 4.4% | 46.9hPa | 2.5V | 08:30:00 | 01:21:14 | 00:00:00 | |
| DF2AP-13 | 2026-09-04 00:55:53 | 50.16392 | 11.38098 | 153° | 18km/h | 21402m | 4.3m/s | -53.3°C | 4.3% | 46.6hPa | 2.7V | 00:00:00 | 01:21:18 | 08:30:00 | |
| DL1NUX | 2026-09-04 00:55:52 | 50.16406 | 11.38066 | 109° | 18km/h | 21370m | 4.2m/s | -53.5°C | 4.3% | 46.9hPa | 2.7V | 08:30:00 | 01:21:12 | 00:00:00 | |
| DF8AY | 2026-09-04 00:55:50 | 50.16401 | 11.38086 | 125° | 18km/h | 21386m | 5.1m/s | -53.5°C | 0.7% | 46.8hPa | 2.5V | 18:12:15 | 01:21:15 | 00:00:00 | |
| DL1XH-west | 2026-09-04 00:55:48 | 50.16405 | 11.38073 | 111° | 18km/h | 21375m | 5.1m/s | -53.5°C | 0.7% | 46.9hPa | 2.7V | 18:12:15 | 01:21:13 | 00:00:00 | |
| BIOWL9-15 | 2026-09-04 00:55:45 | 50.16413 | 11.38046 | 129° | 16km/h | 21356m | 4.5m/s | -53.4°C | 1.1% | 47.0hPa | 2.7V | 00:00:00 | 00:00:00 | 00:00:00 | |
| BIOWL1-15 | 2026-09-04 00:55:44 | 50.16419 | 11.38038 | 146° | 15km/h | 21345m | 4.4m/s | -53.4°C | 0.8% | 47.1hPa | 2.7V | 18:12:15 | 01:21:07 | 00:00:00 | |
| HSKMA3-T | 2026-09-04 00:55:44 | 50.16413 | 11.38046 | 130° | 18km/h | 21356m | 4.5m/s | -53.4°C | 0.7% | 47hPa | 2.5V | 18:12:15 | 01:21:09 | 00:00:00 | |
| PG1ADW-2 | 2026-09-04 00:55:44 | 50.16413 | 11.38046 | 130° | 18km/h | 21356m | 4.5m/s | -53.3°C | 4.3% | 47.0hPa | 2.7V | 00:00:00 | 00:00:00 | 00:00:00 | |
| DL1XH1-15 | 2026-09-04 00:55:42 | 50.16434 | 11.38025 | 143° | 18km/h | 21326m | 4.7m/s | -53.3°C | 4.3% | 47.2hPa | 2.7V | 08:30:00 | 01:21:03 | 00:00:00 | |
| DL1NUX | 2026-09-04 00:55:42 | 50.16437 | 11.38021 | 133° | 16km/h | 21321m | 5.9m/s | -53.3°C | 4.3% | 47.3hPa | 2.7V | 08:30:00 | 01:21:02 | 00:00:00 | |
| DF8AY | 2026-09-04 00:55:39 | 50.16430 | 11.38029 | 151° | 18km/h | 21331m | 4.4m/s | -53.4°C | 0.7% | 47.2hPa | 2.6V | 18:12:15 | 01:21:04 | 00:00:00 | |
| DL1XH-west | 2026-09-04 00:55:37 | 50.16437 | 11.38021 | 134° | 16km/h | 21321m | 5.9m/s | -53.3°C | 0.7% | 47.3hPa | 2.7V | 18:12:15 | 01:21:02 | 00:00:00 | |
| HSKMA3-T | 2026-09-04 00:55:34 | 50.16442 | 11.38002 | 107° | 22km/h | 21306m | 5.9m/s | -53.2°C | 0.7% | 47.4hPa | 2.5V | 18:12:15 | 01:20:59 | 00:00:00 | |
| DL4BBY-15 | 2026-09-04 00:55:33 | 50.16444 | 11.37993 | 110° | 22km/h | 21302m | 4.9m/s | -54.6°C | 0% | 0hPa | 2.5V | 00:00:00 | 00:00:00 | 00:00:00 | |
| DL1NUX | 2026-09-04 00:55:32 | 50.16462 | 11.37954 | 151° | 20km/h | 21273m | 6m/s | -53.1°C | 4.2% | 47.6hPa | 2.5V | 08:30:00 | 01:20:52 | 00:00:00 | |
| BIOWL1-15 | 2026-09-04 00:55:32 | 50.16446 | 11.37984 | 113° | 26km/h | 21297m | 3.6m/s | -53.1°C | 0.7% | 47.5hPa | 2.7V | 18:12:15 | 01:20:57 | 00:00:00 | |
| DM0DOS-11 | 2026-09-04 00:55:31 | 50.16466 | 11.37950 | 153° | 22km/h | 21267m | 5.4m/s | -53.1°C | 4.2% | 47.7hPa | 2.5V | 08:30:00 | 01:20:51 | 00:00:00 | |
| DL1XH1-15 | 2026-09-04 00:55:29 | 50.16457 | 11.37958 | 144° | 18km/h | 21278m | 4.5m/s | -53°C | 4.2% | 47.6hPa | 2.5V | 08:30:00 | 01:20:53 | 00:00:00 | |
| DF8AY | 2026-09-04 00:55:28 | 50.16461 | 11.37954 | 151° | 20km/h | 21273m | 6m/s | -53.1°C | 0.6% | 47.6hPa | 2.5V | 18:12:15 | 01:20:52 | 00:00:00 | |
| DL1XH-west | 2026-09-04 00:55:27 | 50.16466 | 11.37950 | 154° | 22km/h | 21267m | 5.4m/s | -53.1°C | 0.6% | 47.7hPa | 2.5V | 18:12:15 | 01:20:51 | 00:00:00 | |
| HSKMA3-T | 2026-09-04 00:55:24 | 50.16476 | 11.37943 | 157° | 22km/h | 21258m | 5.3m/s | -53.2°C | 0.6% | 47.8hPa | 2.7V | 18:12:15 | 01:20:49 | 00:00:00 | |
| PG1ADW-2 | 2026-09-04 00:55:24 | 50.16476 | 11.37943 | 157° | 22km/h | 21258m | 5.3m/s | -53.1°C | 4.2% | 47.7hPa | 2.7V | 00:00:00 | 00:00:00 | 00:00:00 | |
| DL1XH1-15 | 2026-09-04 00:55:23 | 50.16496 | 11.37911 | 114° | 26km/h | 21228m | 4.8m/s | -53.5°C | 4.3% | 48hPa | 2.5V | 08:30:00 | 01:20:43 | 00:00:00 | |
| SO1NDE-10 | 2026-09-04 00:55:23 | 50.16481 | 11.37940 | 157° | 22km/h | 21252m | 5.7m/s | -53.2°C | 4.2% | 47.8hPa | 2.5V | 00:00:00 | 01:20:48 | 00:00:00 | |
| DL1NUX | 2026-09-04 00:55:22 | 50.16499 | 11.37902 | 114° | 24km/h | 21223m | 5.8m/s | -53.5°C | 4.3% | 48.1hPa | 2.5V | 08:30:00 | 01:20:42 | 00:00:00 | |
| BIOWL1-15 | 2026-09-04 00:55:22 | 50.16494 | 11.37919 | 116° | 24km/h | 21233m | 5.2m/s | -53.5°C | 0.7% | 48hPa | 2.7V | 18:12:15 | 01:20:44 | 00:00:00 | |
| DF8AY | 2026-09-04 00:55:17 | 50.16499 | 11.37902 | 114° | 24km/h | 21223m | 5.8m/s | -53.5°C | 0.7% | 48.1hPa | 2.5V | 18:12:15 | 01:20:42 | 00:00:00 | |
| DL1XH-west | 2026-09-04 00:55:16 | 50.16504 | 11.37886 | 121° | 22km/h | 21213m | 4.1m/s | -53.5°C | 0.7% | 48.1hPa | 2.7V | 18:12:15 | 01:20:40 | 00:00:00 | |
| HSKMA3-T | 2026-09-04 00:55:13 | 50.16510 | 11.37872 | 131° | 22km/h | 21202m | 5m/s | -53.5°C | 0.7% | 48.2hPa | 2.5V | 18:12:15 | 01:20:38 | 00:00:00 | |
| DL1NUX | 2026-09-04 00:55:12 | 50.16537 | 11.37845 | 144° | 26km/h | 21175m | 5.8m/s | -53.5°C | 4.3% | 48.4hPa | 2.7V | 08:30:00 | 01:20:32 | 00:00:00 | |
| DF8AY | 2026-09-04 00:55:07 | 50.16537 | 11.37845 | 145° | 26km/h | 21175m | 5.8m/s | -53.5°C | 0.7% | 48.4hPa | 2.7V | 18:12:15 | 01:20:32 | 00:00:00 | |
| DL1XH-west | 2026-09-04 00:55:06 | 50.16542 | 11.37838 | 137° | 27km/h | 21169m | 5.2m/s | -53.5°C | 0.7% | 48.4hPa | 2.5V | 18:12:15 | 01:20:31 | 00:00:00 | |
| HSKMA3-T | 2026-09-04 00:55:03 | 50.16556 | 11.37812 | 125° | 26km/h | 21155m | 5.1m/s | -53.5°C | 0.7% | 48.5hPa | 2.6V | 18:12:15 | 01:20:28 | 00:00:00 | |
| DL4BBY-15 | 2026-09-04 00:55:03 | 50.16555 | 11.37812 | 126° | 29km/h | 21155m | 5.1m/s | -55.1°C | 0% | 0hPa | 2.5V | 00:00:00 | 00:00:00 | 00:00:00 | |
| DL1XH1-15 | 2026-09-04 00:55:02 | 50.16576 | 11.37774 | 134° | 24km/h | 21131m | 4.4m/s | -53.7°C | 4.3% | 48.7hPa | 2.5V | 08:30:00 | 01:20:23 | 00:00:00 | |
| DF8AY | 2026-09-04 00:54:57 | 50.16583 | 11.37762 | 131° | 18km/h | 21120m | 4.4m/s | -53.8°C | 0.7% | 48.8hPa | 2.7V | 18:12:15 | 01:20:21 | 00:00:00 | |
| DL1XH-west | 2026-09-04 00:54:55 | 50.16586 | 11.37756 | 122° | 20km/h | 21116m | 4.6m/s | -53.8°C | 0.7% | 48.9hPa | 2.5V | 18:12:15 | 01:20:20 | 00:00:00 | |
| HSKMA3-T | 2026-09-04 00:54:52 | 50.16593 | 11.37728 | 103° | 31km/h | 21100m | 4.8m/s | -53.7°C | 0.7% | 49hPa | 2.7V | 18:12:15 | 01:20:17 | 00:00:00 | |
| DL1XH1-15 | 2026-09-04 00:54:49 | 50.16595 | 11.37676 | 92° | 33km/h | 21080m | 5m/s | -53.6°C | 4.3% | 49.1hPa | 2.6V | 08:30:00 | 01:20:13 | 00:00:00 | |
| DF8AY | 2026-09-04 00:54:46 | 50.16598 | 11.37650 | 102° | 33km/h | 21070m | 4.5m/s | -53.8°C | 0.8% | 49.2hPa | 2.7V | 18:12:15 | 01:20:11 | 00:00:00 | |
| BIOWL1-15 | 2026-09-04 00:54:45 | 50.16603 | 11.37618 | 105° | 22km/h | 21056m | 5.2m/s | -53.8°C | 0.7% | 49.3hPa | 2.5V | 18:12:15 | 01:20:08 | 00:00:00 | |
| DL1XH-west | 2026-09-04 00:54:44 | 50.16602 | 11.37627 | 106° | 27km/h | 21061m | 5.6m/s | -53.8°C | 0.7% | 49.2hPa | 2.7V | 18:12:15 | 01:20:09 | 00:00:00 | |
| DM0DOS-11 | 2026-09-04 00:54:44 | 50.16608 | 11.37585 | 103° | 26km/h | 21037m | 4.5m/s | -53.7°C | 4.3% | 49.5hPa | 2.7V | 08:30:00 | 01:20:04 | 00:00:00 | |
| PG1ADW-2 | 2026-09-04 00:54:44 | 50.16601 | 11.37627 | 107° | 24km/h | 21061m | 5.5m/s | -53.7°C | 4.4% | 49.2hPa | 2.7V | 00:00:00 | 00:00:00 | 00:00:00 | |
| DL1XH1-15 | 2026-09-04 00:54:43 | 50.16610 | 11.37575 | 102° | 26km/h | 21032m | 4m/s | -53.7°C | 4.3% | 49.5hPa | 2.7V | 08:30:00 | 01:20:03 | 00:00:00 | |
| BIOWL9-15 | 2026-09-04 00:54:43 | 50.16604 | 11.37610 | 103° | 18km/h | 21051m | 4.1m/s | -53.8°C | 1.2% | 49.4hPa | 2.5V | 00:00:00 | 00:00:00 | 00:00:00 | |
| DL1NUX | 2026-09-04 00:54:42 | 50.16611 | 11.37565 | 101° | 26km/h | 21028m | 4.6m/s | -53.7°C | 4.3% | 49.5hPa | 2.5V | 08:30:00 | 01:20:02 | 00:00:00 | |
| HSKMA3-T | 2026-09-04 00:54:41 | 50.16606 | 11.37603 | 102° | 20km/h | 21046m | 5.1m/s | -53.7°C | 0.7% | 49.4hPa | 2.5V | 18:12:15 | 01:20:06 | 00:00:00 | |
| DL1XH-west | 2026-09-04 00:54:34 | 50.16615 | 11.37537 | 103° | 26km/h | 21013m | 4.2m/s | -53.8°C | 0.7% | 49.6hPa | 2.7V | 18:12:15 | 01:19:59 | 00:00:00 | |
| BIOWL1-15 | 2026-09-04 00:54:33 | 50.16621 | 11.37485 | 88° | 24km/h | 20989m | 5.5m/s | -53.8°C | 0.7% | 49.8hPa | 2.7V | 18:12:15 | 01:19:54 | 00:00:00 | |
| DL4BBY-15 | 2026-09-04 00:54:33 | 50.16616 | 11.37527 | 105° | 20km/h | 21008m | 5.5m/s | -55.3°C | 0% | 0hPa | 2.5V | 00:00:00 | 00:00:00 | 00:00:00 | |
| DL1NUX | 2026-09-04 00:54:32 | 50.16619 | 11.37468 | 84° | 20km/h | 20978m | 5.4m/s | -53.9°C | 4.4% | 49.9hPa | 2.5V | 08:30:00 | 01:19:52 | 00:00:00 | |
| HSKMA3-T | 2026-09-04 00:54:31 | 50.16620 | 11.37505 | 99° | 29km/h | 20999m | 3.8m/s | -53.8°C | 0.7% | 49.7hPa | 2.5V | 18:12:15 | 01:19:56 | 00:00:00 | |
| DL1XH1-15 | 2026-09-04 00:54:29 | 50.16620 | 11.37476 | 83° | 20km/h | 20983m | 4.6m/s | -53.9°C | 4.4% | 49.9hPa | 2.7V | 08:30:00 | 01:19:53 | 00:00:00 | |
| DL1XH-west | 2026-09-04 00:54:24 | 50.16620 | 11.37446 | 102° | 16km/h | 20964m | 5m/s | -53.9°C | 0.7% | 50hPa | 2.7V | 18:12:15 | 01:19:49 | 00:00:00 | |
| DF2AP-13 | 2026-09-04 00:54:23 | 50.16621 | 11.37441 | 110° | 18km/h | 20959m | 5.6m/s | -53.9°C | 4.4% | 50.0hPa | 2.7V | 00:00:00 | 01:19:48 | 00:00:00 | |
| DL1NUX | 2026-09-04 00:54:22 | 50.16635 | 11.37403 | 124° | 20km/h | 20929m | 5.9m/s | -54°C | 4.4% | 50.3hPa | 2.7V | 08:30:00 | 01:19:42 | 00:00:00 | |
| BIOWL1-15 | 2026-09-04 00:54:20 | 50.16635 | 11.37403 | 125° | 20km/h | 20929m | 5.9m/s | -54°C | 0.7% | 50.3hPa | 2.7V | 18:12:15 | 01:19:42 | 00:00:00 | |
| HSKMA3-T | 2026-09-04 00:54:20 | 50.16627 | 11.37425 | 120° | 20km/h | 20944m | 5.6m/s | -54°C | 0.7% | 50.2hPa | 2.5V | 18:12:15 | 01:19:45 | 00:00:00 | |
| DL1XH-west | 2026-09-04 00:54:13 | 50.16646 | 11.37381 | 127° | 18km/h | 20909m | 5.4m/s | -54.2°C | 0.8% | 50.5hPa | 2.5V | 18:12:15 | 01:19:38 | 00:00:00 | |
| DM7RM-13 | 2026-09-04 00:54:13 | 50.16646 | 11.37381 | 128° | 18km/h | 20910m | 5.4m/s | -54.2°C | 1.2% | 50.5hPa | 2.5V | 00:00:00 | 00:00:00 | 00:00:00 | |
| DL1NUX | 2026-09-04 00:54:12 | 50.16656 | 11.37363 | 101° | 5km/h | 20881m | 5.4m/s | -54.2°C | 4.5% | 50.7hPa | 2.5V | 08:30:00 | 01:19:32 | 00:00:00 | |
| HSKMA3-T | 2026-09-04 00:54:09 | 50.16655 | 11.37366 | 144° | 5km/h | 20889m | 4.3m/s | -54.3°C | 0.8% | 50.6hPa | 2.5V | 18:12:15 | 01:19:34 | 00:00:00 | |
| DL1XH1-15 | 2026-09-04 00:54:09 | 50.16655 | 11.37365 | 129° | 4km/h | 20886m | 3.6m/s | -54.3°C | 4.5% | 50.6hPa | 2.5V | 08:30:00 | 01:19:33 | 00:00:00 | |
| BIOWL1-15 | 2026-09-04 00:54:06 | 50.16659 | 11.37350 | 130° | 16km/h | 20868m | 4.2m/s | -54.2°C | 0.9% | 50.8hPa | 2.5V | 18:12:15 | 01:19:29 | 00:00:00 | |
| DL1XH-west | 2026-09-04 00:54:03 | 50.16663 | 11.37346 | 145° | 18km/h | 20863m | 5.4m/s | -54.2°C | 0.8% | 50.8hPa | 2.5V | 18:12:15 | 01:19:28 | 00:00:00 | |
| DF8AY | 2026-09-04 00:54:02 | 50.16667 | 11.37342 | 158° | 22km/h | 20857m | 5.2m/s | -54.2°C | 0.8% | 50.8hPa | 2.6V | 18:12:15 | 01:19:27 | 00:00:00 | |
| HSKMA3-T | 2026-09-04 00:53:59 | 50.16685 | 11.37334 | 162° | 26km/h | 20844m | 5.3m/s | -54.2°C | 0.8% | 51hPa | 2.5V | 18:12:15 | 01:19:24 | 00:00:00 | |
| DL6DJ-15 | 2026-09-04 00:53:57 | 50.16702 | 11.37325 | 159° | 20km/h | 20829m | 5.6m/s | -54.3°C | 1.2% | 51.1hPa | 2.7V | 00:00:00 | 00:00:00 | 00:00:00 | |
| SONCRA | 2026-09-04 00:53:56 | 50.16707 | 11.37322 | 157° | 20km/h | 20824m | 4.2m/s | -54.2°C | 1.2% | 51.1hPa | 2.7V | 00:00:00 | 00:00:00 | 00:00:00 | |
| EDDB2-12 | 2026-09-04 00:53:55 | 50.16712 | 11.37318 | 149° | 20km/h | 20820m | 3.8m/s | -54.2°C | 1.2% | 51.2hPa | 2.7V | 00:00:00 | 00:00:00 | 00:00:00 | |
| DM0DOS-11 | 2026-09-04 00:53:54 | 50.16735 | 11.37287 | 140° | 27km/h | 20796m | 4.2m/s | -54.2°C | 4.3% | 51.3hPa | 2.7V | 08:30:00 | 01:19:14 | 00:00:00 | |
| BIOWL1-15 | 2026-09-04 00:53:53 | 50.16730 | 11.37294 | 139° | 26km/h | 20800m | 5.2m/s | -54.2°C | 0.7% | 51.3hPa | 2.7V | 18:12:15 | 01:19:15 | 00:00:00 | |
| DL1XH-west | 2026-09-04 00:53:53 | 50.16716 | 11.37313 | 141° | 22km/h | 20815m | 5.4m/s | -54.2°C | 0.8% | 51.2hPa | 2.5V | 18:12:15 | 01:19:18 | 00:00:00 | |
| DF8AY | 2026-09-04 00:53:52 | 50.16751 | 11.37265 | 134° | 26km/h | 20781m | 3.9m/s | -54.3°C | 0.7% | 51.5hPa | 2.5V | 18:12:15 | 01:19:11 | 00:00:00 | |
| DL1NUX | 2026-09-04 00:53:52 | 50.16746 | 11.37272 | 135° | 29km/h | 20786m | 5.5m/s | -54.3°C | 4.3% | 51.4hPa | 2.5V | 08:30:00 | 01:19:12 | 00:00:00 | |
| HSKMA3-T | 2026-09-04 00:53:48 | 50.16740 | 11.37280 | 139° | 29km/h | 20791m | 5.2m/s | -54.3°C | 0.7% | 51.4hPa | 2.7V | 18:12:15 | 01:19:13 | 00:00:00 | |
| DL1XH-west | 2026-09-04 00:53:43 | 50.16762 | 11.37244 | 119° | 13km/h | 20762m | 5.5m/s | -54.4°C | 0.7% | 51.6hPa | 2.7V | 18:12:15 | 01:19:07 | 00:00:00 | |
| DM0DOS-11 | 2026-09-04 00:53:42 | 50.16768 | 11.37227 | 120° | 18km/h | 20747m | 4.9m/s | -54.5°C | 4.4% | 51.7hPa | 2.6V | 08:30:00 | 01:19:04 | 00:00:00 | |
| BIOWL1-15 | 2026-09-04 00:53:41 | 50.16764 | 11.37239 | 115° | 15km/h | 20757m | 4.7m/s | -54.5°C | 0.8% | 51.7hPa | 2.5V | 18:12:15 | 01:19:06 | 00:00:00 | |
| DF8AY | 2026-09-04 00:53:40 | 50.16766 | 11.37233 | 116° | 16km/h | 20752m | 4.5m/s | -54.5°C | 0.8% | 51.7hPa | 2.5V | 18:12:15 | 01:19:05 | 00:00:00 | |
| HSKMA3-T | 2026-09-04 00:53:38 | 50.16770 | 11.37220 | 125° | 20km/h | 20742m | 5.5m/s | -54.5°C | 0.7% | 51.8hPa | 2.7V | 18:12:15 | 01:19:03 | 00:00:00 | |
| DL1XH-west | 2026-09-04 00:53:32 | 50.16793 | 11.37164 | 115° | 29km/h | 20715m | 5.5m/s | -55°C | 0.8% | 52hPa | 2.7V | 18:12:15 | 01:18:57 | 00:00:00 | |
| BIOWL1-15 | 2026-09-04 00:53:30 | 50.16805 | 11.37103 | 125° | 20km/h | 20665m | 4.5m/s | -55.7°C | 0.9% | 52.4hPa | 2.7V | 18:12:15 | 01:18:47 | 00:00:00 | |
| DF8AY | 2026-09-04 00:53:29 | 50.16798 | 11.37138 | 98° | 18km/h | 20700m | 5.6m/s | -55.5°C | 0.9% | 52.1hPa | 2.5V | 18:12:15 | 01:18:54 | 00:00:00 | |
| DL1XH1-15 | 2026-09-04 00:53:29 | 50.16798 | 11.37131 | 94° | 18km/h | 20694m | 4.7m/s | -55.5°C | 4.7% | 52.2hPa | 2.7V | 08:30:00 | 01:18:53 | 00:00:00 | |
| HSKMA3-T | 2026-09-04 00:53:28 | 50.16798 | 11.37131 | 94° | 18km/h | 20694m | 4.7m/s | -55.6°C | 0.9% | 52.2hPa | 2.7V | 18:12:15 | 01:18:53 | 00:00:00 | |
| DL1XH-west | 2026-09-04 00:53:21 | 50.16808 | 11.37096 | 127° | 24km/h | 20661m | 3.7m/s | -55.7°C | 0.9% | 52.5hPa | 2.7V | 18:12:15 | 01:18:46 | 00:00:00 | |
| DL4BBY-15 | 2026-09-04 00:53:21 | 50.16808 | 11.37096 | 128° | 24km/h | 20662m | 3.7m/s | -57.2°C | 0% | 0hPa | 2.5V | 00:00:00 | 00:00:00 | 00:00:00 | |
| DM0DOS-11 | 2026-09-04 00:53:19 | 50.16821 | 11.37068 | 108° | 18km/h | 20643m | 5.1m/s | -55.6°C | 4.7% | 52.6hPa | 2.5V | 08:30:00 | 01:18:42 | 00:00:00 | |
| DF8AY | 2026-09-04 00:53:18 | 50.16819 | 11.37075 | 121° | 20km/h | 20647m | 3.5m/s | -55.6°C | 0.9% | 52.5hPa | 2.5V | 18:12:15 | 01:18:43 | 00:00:00 | |
| HSKMA3-T | 2026-09-04 00:53:17 | 50.16821 | 11.37068 | 108° | 18km/h | 20643m | 5.1m/s | -55.7°C | 0.9% | 52.6hPa | 2.5V | 18:12:15 | 01:18:42 | 00:00:00 | |
| BIOWL1-15 | 2026-09-04 00:53:13 | 50.16819 | 11.37037 | 80° | 20km/h | 20622m | 5.5m/s | -55.9°C | 0.9% | 52.8hPa | 2.5V | 18:12:15 | 01:18:38 | 00:00:00 | |
| SP3BTT-10 | 2026-09-04 00:53:13 | 50.16819 | 11.37037 | 80° | 13km/h | 20622m | 5.4m/s | -55.8°C | 4.7% | 52.7hPa | 2.5V | 00:00:00 | 00:00:00 | 00:00:00 | |
| DL1NUX | 2026-09-04 00:53:12 | 50.16826 | 11.36982 | 119° | 27km/h | 20593m | 4.3m/s | -55.9°C | 4.8% | 53hPa | 2.5V | 08:30:00 | 01:18:32 | 00:00:00 | |
| DL1XH-west | 2026-09-04 00:53:11 | 50.16819 | 11.37021 | 93° | 22km/h | 20613m | 5m/s | -55.9°C | 0.9% | 52.8hPa | 2.6V | 18:12:15 | 01:18:36 | 00:00:00 | |
| DL1XH1-15 | 2026-09-04 00:53:09 | 50.16823 | 11.36992 | 114° | 27km/h | 20598m | 5.9m/s | -55.9°C | 4.7% | 53hPa | 2.5V | 08:30:00 | 01:18:33 | 00:00:00 | |
| DF8AY | 2026-09-04 00:53:08 | 50.16823 | 11.36992 | 114° | 27km/h | 20598m | 5.9m/s | -55.9°C | 0.9% | 53hPa | 2.5V | 18:12:15 | 01:18:33 | 00:00:00 | |
| HSKMA3-T | 2026-09-04 00:53:07 | 50.16826 | 11.36982 | 120° | 27km/h | 20593m | 4.3m/s | -55.9°C | 0.9% | 53hPa | 2.5V | 18:12:15 | 01:18:32 | 00:00:00 | |
| BIOWL1-15 | 2026-09-04 00:53:03 | 50.16835 | 11.36932 | 82° | 24km/h | 20571m | 5.6m/s | -55.9°C | 0.9% | 53.2hPa | 2.5V | 18:12:15 | 01:18:27 | 00:00:00 | |
| DL1XH-west | 2026-09-04 00:53:00 | 50.16832 | 11.36915 | 66° | 20km/h | 20561m | 4.3m/s | -56°C | 1% | 53.3hPa | 2.7V | 18:12:15 | 01:18:25 | 00:00:00 | |
| DM0DOS-11 | 2026-09-04 00:52:59 | 50.16825 | 11.36889 | 72° | 29km/h | 20546m | 4.4m/s | -56°C | 4.9% | 53.4hPa | 2.5V | 08:30:00 | 01:18:22 | 00:00:00 | |
| DL1XH1-15 | 2026-09-04 00:52:59 | 50.16827 | 11.36899 | 67° | 26km/h | 20551m | 5.3m/s | -56°C | 4.9% | 53.4hPa | 2.5V | 08:30:00 | 01:18:23 | 00:00:00 | |
| DF8AY | 2026-09-04 00:52:58 | 50.16825 | 11.36889 | 72° | 29km/h | 20546m | 4.4m/s | -56°C | 1% | 53.4hPa | 2.5V | 18:12:15 | 01:18:22 | 00:00:00 | |
| HSKMA3-T | 2026-09-04 00:52:56 | 50.16823 | 11.36878 | 77° | 29km/h | 20542m | 4.6m/s | -55.9°C | 1% | 53.5hPa | 2.5V | 18:12:15 | 01:18:21 | 00:00:00 | |
| BIOWL1-15 | 2026-09-04 00:52:52 | 50.16822 | 11.36819 | 94° | 20km/h | 20514m | 3.3m/s | -56°C | 1% | 53.6hPa | 2.7V | 18:12:15 | 01:18:15 | 00:00:00 | |
| DF8AY | 2026-09-04 00:52:52 | 50.16823 | 11.36799 | 88° | 15km/h | 20500m | 3.9m/s | -55.9°C | 1% | 53.8hPa | 2.5V | 18:12:15 | 01:18:12 | 00:00:00 | |
| DL1XH-west | 2026-09-04 00:52:49 | 50.16823 | 11.36811 | 94° | 18km/h | 20510m | 5.1m/s | -56°C | 1% | 53.7hPa | 2.7V | 18:12:15 | 01:18:14 | 00:00:00 | |
| DM0DOS-11 | 2026-09-04 00:52:49 | 50.16823 | 11.36799 | 87° | 15km/h | 20500m | 3.9m/s | -55.9°C | 4.9% | 53.8hPa | 2.5V | 08:30:00 | 01:18:12 | 00:00:00 | |
| HSKMA3-T | 2026-09-04 00:52:45 | 50.16822 | 11.36786 | 76° | 20km/h | 20490m | 4.5m/s | -55.9°C | 1% | 53.9hPa | 2.5V | 18:12:15 | 01:18:10 | 00:00:00 | |
| DO3MHA-11 | 2026-09-04 00:52:45 | 50.16822 | 11.36786 | 77° | 18km/h | 20491m | 4.5m/s | -55.8°C | 4.9% | 53.8hPa | 2.7V | 00:00:00 | 01:18:10 | 00:00:00 | |
| PG1ADW-2 | 2026-09-04 00:52:44 | 50.16820 | 11.36778 | 71° | 15km/h | 20486m | 4.0m/s | -55.8°C | 4.9% | 53.9hPa | 2.7V | 00:00:00 | 00:00:00 | 00:00:00 | |
| DB0ND-19 | 2026-09-04 00:52:43 | 50.16814 | 11.36756 | 65° | 20km/h | 20472m | 4.2m/s | -55.7°C | 1.3% | 54.0hPa | 2.7V | 00:00:00 | 00:00:00 | 00:00:00 | |
| DL1NUX | 2026-09-04 00:52:42 | 50.16806 | 11.36728 | 62° | 15km/h | 20453m | 5.7m/s | -55.6°C | 4.8% | 54.2hPa | 2.7V | 08:30:00 | 01:18:02 | 00:00:00 | |
| DL1XH-west | 2026-09-04 00:52:39 | 50.16810 | 11.36741 | 68° | 22km/h | 20461m | 4.2m/s | -55.7°C | 1% | 54.1hPa | 2.6V | 18:12:15 | 01:18:04 | 00:00:00 | |
| BIOWL1-15 | 2026-09-04 00:52:39 | 50.16802 | 11.36711 | 87° | 11km/h | 20428m | 4.7m/s | -55.5°C | 1% | 54.4hPa | 2.7V | 18:12:15 | 01:17:57 | 00:00:00 | |
| DL1XH1-15 | 2026-09-04 00:52:39 | 50.16808 | 11.36734 | 66° | 20km/h | 20458m | 3.6m/s | -55.7°C | 4.8% | 54.2hPa | 2.6V | 08:30:00 | 01:18:03 | 00:00:00 | |
| HSKMA3-T | 2026-09-04 00:52:35 | 50.16803 | 11.36720 | 53° | 7km/h | 20443m | 4.1m/s | -55.6°C | 1% | 54.3hPa | 2.5V | 18:12:15 | 01:18:00 | 00:00:00 | |
| DO3MHA-11 | 2026-09-04 00:52:35 | 50.16803 | 11.36720 | 53° | 11km/h | 20443m | 4.1m/s | -55.5°C | 4.8% | 54.2hPa | 2.5V | 00:00:00 | 01:18:00 | 00:00:00 | |
| EDDB2-11 | 2026-09-04 00:52:34 | 50.16802 | 11.36715 | 81° | 7km/h | 20433m | 5.1m/s | -55.5°C | 1.3% | 54.4hPa | 2.6V | 00:00:00 | 00:00:00 | 00:00:00 | |
| DL1XH1-15 | 2026-09-04 00:52:33 | 50.16799 | 11.36692 | 75° | 15km/h | 20409m | 4.8m/s | -55.5°C | 4.7% | 54.5hPa | 2.6V | 08:30:00 | 01:17:53 | 00:00:00 | |
| DL1XH-west | 2026-09-04 00:52:28 | 50.16799 | 11.36692 | 75° | 15km/h | 20409m | 4.8m/s | -55.5°C | 0.9% | 54.6hPa | 2.6V | 18:12:15 | 01:17:53 | 00:00:00 | |
| BIOWL1-15 | 2026-09-04 00:52:24 | 50.16796 | 11.36670 | 65° | 11km/h | 20390m | 5.4m/s | -55.5°C | 0.9% | 54.7hPa | 2.6V | 18:12:15 | 01:17:49 | 00:00:00 | |
| PG1ADW-2 | 2026-09-04 00:52:24 | 50.16796 | 11.36670 | 66° | 11km/h | 20390m | 5.4m/s | -55.4°C | 4.7% | 54.7hPa | 2.6V | 00:00:00 | 01:17:49 | 00:00:00 | |
| SO1NDE-10 | 2026-09-04 00:52:23 | 50.16795 | 11.36667 | 58° | 13km/h | 20385m | 4.6m/s | -55.4°C | 4.7% | 54.7hPa | 2.7V | 00:00:00 | 01:17:48 | 00:00:00 | |
| DL1NUX | 2026-09-04 00:52:22 | 50.16793 | 11.36646 | 89° | 7km/h | 20354m | 4.8m/s | -55.5°C | 4.7% | 55hPa | 2.7V | 08:30:00 | 01:17:42 | 00:00:00 | |
| DF8AY-15 | 2026-09-04 00:52:22 | 50.16793 | 11.36663 | 64° | 11km/h | 20380m | 5.1m/s | -55.4°C | 4.7% | 54.8hPa | 2.7V | 00:00:00 | 01:17:47 | 00:00:00 | |
| DL4BBY-15 | 2026-09-04 00:52:21 | 50.16793 | 11.36660 | 79° | 13km/h | 20375m | 5.3m/s | -57.0°C | 0% | 0hPa | 2.7V | 00:00:00 | 00:00:00 | 00:00:00 | |
| DF3TZ-5 | 2026-09-04 00:52:20 | 50.16793 | 11.36657 | 90° | 7km/h | 20370m | 4.1m/s | 0°C | -1.0% | -1.0hPa | 2.7V | 00:00:00 | 00:00:00 | 00:00:00 | |
| DM0DOS-11 | 2026-09-04 00:52:19 | 50.16793 | 11.36643 | 98° | 9km/h | 20350m | 3.4m/s | -55.6°C | 4.8% | 55.1hPa | 2.7V | 08:30:00 | 01:17:41 | 00:00:00 | |
| DL1XH-west | 2026-09-04 00:52:17 | 50.16793 | 11.36646 | 90° | 7km/h | 20354m | 4.8m/s | -55.6°C | 0.9% | 55hPa | 2.7V | 18:12:15 | 01:17:42 | 00:00:00 | |
| DF8AY | 2026-09-04 00:52:16 | 50.16794 | 11.36639 | 112° | 13km/h | 20346m | 4.7m/s | -55.6°C | 0.9% | 55.1hPa | 2.5V | 18:12:15 | 01:17:40 | 00:00:00 | |
| HSKMA3-T | 2026-09-04 00:52:14 | 50.16798 | 11.36628 | 122° | 20km/h | 20335m | 4.7m/s | -55.6°C | 0.9% | 55.2hPa | 2.6V | 18:12:15 | 01:17:38 | 00:00:00 | |
| BIOWL1-15 | 2026-09-04 00:52:14 | 50.16802 | 11.36615 | 119° | 16km/h | 20326m | 5.5m/s | -55.6°C | 1% | 55.3hPa | 2.7V | 18:12:15 | 01:17:36 | 00:00:00 | |
| SP3BTT-10 | 2026-09-04 00:52:13 | 50.16797 | 11.36628 | 122° | 18km/h | 20336m | 4.6m/s | -55.5°C | 4.7% | 55.2hPa | 2.6V | 00:00:00 | 00:00:00 | 00:00:00 | |
| DL1XH1-15 | 2026-09-04 00:52:09 | 50.16807 | 11.36604 | 136° | 9km/h | 20312m | 5.8m/s | -55.7°C | 4.8% | 55.4hPa | 2.5V | 08:30:00 | 01:17:33 | 00:00:00 | |
| NBG1-10 | 2026-09-04 00:52:09 | 50.16806 | 11.36606 | 125° | 15km/h | 20317m | 4.0m/s | -55.6°C | 4.8% | 55.3hPa | 2.5V | 00:00:00 | 01:17:34 | 00:00:00 | |
| DM7RM-13 | 2026-09-04 00:52:07 | 50.16807 | 11.36603 | 137° | 9km/h | 20312m | 5.8m/s | -55.7°C | 1.4% | 55.4hPa | 2.5V | 00:00:00 | 00:00:00 | 00:00:00 | |
| DM0DOS-11 | 2026-09-04 00:52:06 | 50.16817 | 11.36595 | 136° | 9km/h | 20287m | 4m/s | -55.7°C | 4.8% | 55.6hPa | 2.5V | 08:30:00 | 01:17:28 | 00:00:00 | |
| DL1XH-west | 2026-09-04 00:52:06 | 50.16811 | 11.36600 | 160° | 9km/h | 20302m | 4.6m/s | -55.7°C | 1% | 55.5hPa | 2.7V | 18:12:15 | 01:17:31 | 00:00:00 | |
| DF8AY | 2026-09-04 00:52:05 | 50.16814 | 11.36599 | 157° | 9km/h | 20297m | 5.2m/s | -55.7°C | 1% | 55.5hPa | 2.7V | 18:12:15 | 01:17:30 | 00:00:00 | |
| BIOWL1-15 | 2026-09-04 00:52:05 | 50.16817 | 11.36595 | 137° | 9km/h | 20287m | 4m/s | -55.7°C | 1% | 55.6hPa | 2.5V | 18:12:15 | 01:17:28 | 00:00:00 | |
| DO3MHA-11 | 2026-09-04 00:52:05 | 50.16814 | 11.36599 | 157° | 15km/h | 20297m | 5.2m/s | -55.7°C | 4.8% | 55.5hPa | 2.7V | 00:00:00 | 01:17:30 | 08:30:00 | |
| PG1ADW-2 | 2026-09-04 00:52:04 | 50.16815 | 11.36597 | 147° | 15km/h | 20292m | 5.2m/s | -55.7°C | 4.8% | 55.6hPa | 2.5V | 00:00:00 | 00:00:00 | 00:00:00 | |
| EDDB2-11 | 2026-09-04 00:52:03 | 50.16819 | 11.36592 | 140° | 11km/h | 20282m | 6.0m/s | -55.7°C | 1.3% | 55.7hPa | 2.5V | 00:00:00 | 00:00:00 | 00:00:00 | |
| HSKMA3-T | 2026-09-04 00:52:03 | 50.16819 | 11.36592 | 140° | 13km/h | 20282m | 6m/s | -55.7°C | 1% | 55.7hPa | 2.5V | 18:12:15 | 01:17:27 | 00:00:00 | |
| DF8AY-15 | 2026-09-04 00:52:02 | 50.16819 | 11.36592 | 141° | 15km/h | 20282m | 5.9m/s | -55.6°C | 4.8% | 55.6hPa | 2.5V | 00:00:00 | 01:17:27 | 00:00:00 | |
| DL1XH1-15 | 2026-09-04 00:51:59 | 50.16834 | 11.36577 | 153° | 18km/h | 20261m | 5m/s | -55.6°C | 4.7% | 55.9hPa | 2.7V | 08:30:00 | 01:17:23 | 00:00:00 | |
| DL1XH-west | 2026-09-04 00:51:55 | 50.16847 | 11.36567 | 156° | 22km/h | 20245m | 4.7m/s | -55.7°C | 1% | 56hPa | 2.6V | 18:12:15 | 01:17:20 | 00:00:00 | |
| DO3MHA-11 | 2026-09-04 00:51:55 | 50.16847 | 11.36567 | 156° | 13km/h | 20245m | 4.7m/s | -55.7°C | 4.8% | 56.0hPa | 2.7V | 00:00:00 | 01:17:20 | 00:00:00 | |
| DL1XH1-15 | 2026-09-04 00:51:53 | 50.16867 | 11.36548 | 143° | 13km/h | 20210m | 4.8m/s | -55.8°C | 4.9% | 56.3hPa | 2.7V | 08:30:00 | 01:17:13 | 00:00:00 | |
| BIOWL1-15 | 2026-09-04 00:51:53 | 50.16856 | 11.36561 | 152° | 15km/h | 20236m | 6m/s | -55.8°C | 1% | 56.1hPa | 2.7V | 18:12:15 | 01:17:18 | 00:00:00 | |
| SO1NDE-10 | 2026-09-04 00:51:53 | 50.16856 | 11.36561 | 153° | 15km/h | 20236m | 5.9m/s | -55.7°C | 4.8% | 56.0hPa | 2.7V | 00:00:00 | 01:17:18 | 08:30:00 | |
| DL1NUX | 2026-09-04 00:51:52 | 50.16869 | 11.36545 | 148° | 13km/h | 20205m | 5.1m/s | -55.8°C | 4.9% | 56.3hPa | 2.5V | 08:30:00 | 01:17:12 | 00:00:00 | |
| HSKMA3-T | 2026-09-04 00:51:51 | 50.16861 | 11.36556 | 140° | 9km/h | 20226m | 4.7m/s | -55.8°C | 1% | 56.2hPa | 2.6V | 18:12:15 | 01:17:16 | 00:00:00 | |
| DF8AY | 2026-09-04 00:51:49 | 50.16878 | 11.36540 | 163° | 15km/h | 20189m | 5.2m/s | -55.7°C | 1% | 56.5hPa | 2.7V | 18:12:15 | 01:17:09 | 00:00:00 | |
| DL1XH-west | 2026-09-04 00:51:45 | 50.16875 | 11.36541 | 160° | 13km/h | 20194m | 4.8m/s | -55.7°C | 1% | 56.5hPa | 2.6V | 18:12:15 | 01:17:10 | 00:00:00 | |
| BIOWL1-15 | 2026-09-04 00:51:43 | 50.16882 | 11.36538 | 162° | 16km/h | 20184m | 5.4m/s | -55.6°C | 0.9% | 56.5hPa | 2.7V | 18:12:15 | 01:17:08 | 00:00:00 | |
| DL1NUX | 2026-09-04 00:51:42 | 50.16906 | 11.36530 | 165° | 15km/h | 20154m | 5.3m/s | -55.4°C | 4.8% | 56.8hPa | 2.5V | 08:30:00 | 01:17:02 | 00:00:00 | |
| HSKMA3-T | 2026-09-04 00:51:41 | 50.16890 | 11.36534 | 168° | 18km/h | 20174m | 4.9m/s | -55.6°C | 1% | 56.6hPa | 2.5V | 18:12:15 | 01:17:06 | 00:00:00 | |
| DF8AY | 2026-09-04 00:51:38 | 50.16920 | 11.36526 | 176° | 13km/h | 20134m | 3.8m/s | -55.4°C | 1% | 57hPa | 2.7V | 18:12:15 | 01:16:58 | 00:00:00 | |
| DL1XH-west | 2026-09-04 00:51:34 | 50.16917 | 11.36526 | 177° | 13km/h | 20139m | 5.1m/s | -55.4°C | 1% | 57hPa | 2.7V | 18:12:15 | 01:16:59 | 00:00:00 | |
| SONDE2-11 | 2026-09-04 00:51:34 | 50.16920 | 11.36526 | 176° | 13km/h | 20134m | 3.8m/s | -55.4°C | 1.3% | 57.0hPa | 2.5V | 00:00:00 | 00:00:00 | 00:00:00 | |
| DL1NUX | 2026-09-04 00:51:32 | 50.16945 | 11.36520 | 177° | 18km/h | 20104m | 3.7m/s | -55.3°C | 4.8% | 57.2hPa | 2.5V | 08:30:00 | 01:16:52 | 00:00:00 | |
| HSKMA3-T | 2026-09-04 00:51:30 | 50.16932 | 11.36523 | 167° | 18km/h | 20119m | 5.1m/s | -55.4°C | 1% | 57.1hPa | 2.6V | 18:12:15 | 01:16:55 | 00:00:00 | |
| DL1XH1-15 | 2026-09-04 00:51:29 | 50.16941 | 11.36521 | 177° | 18km/h | 20108m | 4.6m/s | -55.3°C | 4.8% | 57.2hPa | 2.7V | 08:30:00 | 01:16:53 | 00:00:00 | |
| DB0NH | 2026-09-04 00:51:25 | 50.16955 | 11.36518 | 168° | 22km/h | 20094m | 4.9m/s | -55.3°C | 4.7% | 57.3hPa | 2.6V | 00:00:00 | 01:16:50 | 08:30:00 | |
| PG1ADW-2 | 2026-09-04 00:51:24 | 50.16960 | 11.36517 | 167° | 20km/h | 20089m | 4.7m/s | -55.3°C | 4.8% | 57.3hPa | 2.7V | 00:00:00 | 00:00:00 | 08:30:00 | |
| DL1XH1-15 | 2026-09-04 00:51:23 | 50.16986 | 11.36512 | 170° | 18km/h | 20059m | 5m/s | -55.2°C | 4.7% | 57.6hPa | 2.7V | 08:30:00 | 01:16:43 | 00:00:00 | |
| DL1XH-west | 2026-09-04 00:51:23 | 50.16965 | 11.36515 | 173° | 18km/h | 20084m | 5.7m/s | -55.4°C | 1% | 57.4hPa | 2.7V | 18:12:15 | 01:16:48 | 00:00:00 | |
| DF8AY | 2026-09-04 00:51:23 | 50.16969 | 11.36515 | 180° | 16km/h | 20079m | 4.5m/s | -55.3°C | 1% | 57.5hPa | 2.5V | 18:12:15 | 01:16:47 | 00:00:00 | |
| DL1NUX | 2026-09-04 00:51:22 | 50.16991 | 11.36511 | 173° | 18km/h | 20054m | 5.5m/s | -55.2°C | 4.7% | 57.7hPa | 2.5V | 08:30:00 | 01:16:42 | 00:00:00 | |
| BIOWL1-15 | 2026-09-04 00:51:21 | 50.16978 | 11.36514 | 173° | 16km/h | 20069m | 5.5m/s | -55.3°C | 0.9% | 57.6hPa | 2.6V | 18:12:15 | 01:16:45 | 00:00:00 | |
| HSKMA3-T | 2026-09-04 00:51:19 | 50.16982 | 11.36513 | 169° | 18km/h | 20064m | 4.5m/s | -55.2°C | 0.9% | 57.6hPa | 2.7V | 18:12:15 | 01:16:44 | 00:00:00 | |
| DL1XH-west | 2026-09-04 00:51:13 | 50.17011 | 11.36505 | 156° | 22km/h | 20036m | 5m/s | -55.2°C | 1% | 57.9hPa | 2.7V | 18:12:15 | 01:16:38 | 00:00:00 | |
| DL1NUX | 2026-09-04 00:51:12 | 50.17037 | 11.36485 | 159° | 22km/h | 20008m | 4.5m/s | -55.2°C | 4.6% | 58.1hPa | 2.7V | 08:30:00 | 01:16:32 | 00:00:00 | |
| DF8AY | 2026-09-04 00:51:10 | 50.17024 | 11.36494 | 154° | 16km/h | 20022m | 3.8m/s | -55.2°C | 0.9% | 58hPa | 2.6V | 18:12:15 | 01:16:35 | 00:00:00 | |
| BIOWL1-15 | 2026-09-04 00:51:09 | 50.17037 | 11.36485 | 160° | 22km/h | 20008m | 4.5m/s | -55.2°C | 0.9% | 58.1hPa | 2.7V | 18:12:15 | 01:16:32 | 00:00:00 | |
| DL1XH1-15 | 2026-09-04 00:51:09 | 50.17032 | 11.36488 | 156° | 20km/h | 20013m | 5.6m/s | -55.2°C | 4.6% | 58.1hPa | 2.7V | 08:30:00 | 01:16:33 | 00:00:00 | |
| HSKMA3-T | 2026-09-04 00:51:09 | 50.17028 | 11.36491 | 156° | 16km/h | 20018m | 4.2m/s | -55.2°C | 0.8% | 58hPa | 2.6V | 18:12:15 | 01:16:34 | 00:00:00 | |
| DL1XH-west | 2026-09-04 00:51:03 | 50.17060 | 11.36480 | 175° | 26km/h | 19989m | 4.3m/s | -55.4°C | 0.9% | 58.3hPa | 2.6V | 18:12:15 | 01:16:28 | 00:00:00 | |
| ANDY1245 | 2026-09-04 00:51:03 | 50.17060 | 11.36480 | 176° | 26km/h | 19989m | 4.3m/s | -55.4°C | 1.3% | 58.3hPa | 2.6V | 00:00:00 | 00:00:00 | 00:00:00 | |
| DL1NUX | 2026-09-04 00:51:02 | 50.17100 | 11.36460 | 151° | 29km/h | 19962m | 4.4m/s | -55.6°C | 4.8% | 58.5hPa | 2.6V | 08:30:00 | 01:16:22 | 00:00:00 | |
| DF8AY | 2026-09-04 00:51:00 | 50.17081 | 11.36473 | 161° | 29km/h | 19975m | 4.5m/s | -55.6°C | 1% | 58.4hPa | 2.7V | 18:12:15 | 01:16:25 | 00:00:00 | |
| BIOWL1-15 | 2026-09-04 00:51:00 | 50.17094 | 11.36465 | 155° | 27km/h | 19966m | 3.6m/s | -55.6°C | 1% | 58.5hPa | 2.6V | 18:12:15 | 01:16:23 | 00:00:00 | |
| HSKMA3-T | 2026-09-04 00:50:59 | 50.17087 | 11.36469 | 159° | 27km/h | 19970m | 4.9m/s | -55.6°C | 1% | 58.5hPa | 2.5V | 18:12:15 | 01:16:24 | 00:00:00 | |
| DL1XH-west | 2026-09-04 00:50:53 | 50.17126 | 11.36438 | 157° | 26km/h | 19943m | 4.2m/s | -55.6°C | 0.9% | 58.7hPa | 2.5V | 18:12:15 | 01:16:18 | 00:00:00 | |
| DL6DJ-15 | 2026-09-04 00:50:50 | 50.17145 | 11.36426 | 155° | 29km/h | 19930m | 4.9m/s | -55.7°C | 1.3% | 58.8hPa | 2.6V | 00:00:00 | 00:00:00 | 00:00:00 | |
| DM0DOS-11 | 2026-09-04 00:50:49 | 50.17167 | 11.36411 | 159° | 31km/h | 19917m | 5.1m/s | -55.6°C | 4.8% | 59hPa | 2.6V | 08:30:00 | 01:16:12 | 00:00:00 | |
| HSKMA3-T | 2026-09-04 00:50:49 | 50.17152 | 11.36421 | 156° | 31km/h | 19926m | 4.5m/s | -55.7°C | 1% | 58.9hPa | 2.5V | 18:12:15 | 01:16:14 | 00:00:00 | |
| BIOWL1-15 | 2026-09-04 00:50:47 | 50.17182 | 11.36401 | 152° | 33km/h | 19908m | 4.7m/s | -55.6°C | 0.9% | 59.1hPa | 2.7V | 18:12:15 | 01:16:10 | 00:00:00 | |
| DO3MHA-11 | 2026-09-04 00:50:45 | 50.17182 | 11.36401 | 153° | 37km/h | 19908m | 4.7m/s | -55.5°C | 4.7% | 59.0hPa | 2.6V | 00:00:00 | 01:16:10 | 00:00:00 | |
| PG1ADW-2 | 2026-09-04 00:50:44 | 50.17189 | 11.36394 | 148° | 37km/h | 19903m | 5.1m/s | -55.5°C | 4.8% | 59.0hPa | 2.6V | 00:00:00 | 00:00:00 | 00:00:00 | |
| DL1XH1-15 | 2026-09-04 00:50:43 | 50.17236 | 11.36344 | 143° | 38km/h | 19874m | 5.8m/s | -55.6°C | 4.7% | 59.4hPa | 2.6V | 08:30:00 | 01:16:03 | 00:00:00 | |
| DL1XH-west | 2026-09-04 00:50:42 | 50.17205 | 11.36377 | 144° | 38km/h | 19893m | 5m/s | -55.5°C | 0.9% | 59.2hPa | 2.6V | 18:12:15 | 01:16:07 | 00:00:00 | |
| DF8AY | 2026-09-04 00:50:39 | 50.17268 | 11.36298 | 133° | 27km/h | 19851m | 4.4m/s | -55.7°C | 0.9% | 59.6hPa | 2.6V | 18:12:15 | 01:15:58 | 00:00:00 | |
| HSKMA3-T | 2026-09-04 00:50:38 | 50.17235 | 11.36344 | 143° | 38km/h | 19874m | 5.8m/s | -55.6°C | 0.9% | 59.4hPa | 2.6V | 18:12:15 | 01:16:03 | 00:00:00 | |
| BIOWL1-15 | 2026-09-04 00:50:37 | 50.17243 | 11.36334 | 140° | 40km/h | 19869m | 4.1m/s | -55.6°C | 1% | 59.4hPa | 2.6V | 18:12:15 | 01:16:02 | 00:00:00 | |
| DO3MHA-11 | 2026-09-04 00:50:34 | 50.17263 | 11.36306 | 136° | 35km/h | 19856m | 5.7m/s | -55.5°C | 4.7% | 59.5hPa | 2.6V | 00:00:00 | 01:15:59 | 08:30:00 | |
| DL1NUX | 2026-09-04 00:50:32 | 50.17299 | 11.36234 | 129° | 40km/h | 19822m | 5m/s | -55.9°C | 4.8% | 59.8hPa | 2.6V | 08:30:00 | 01:15:52 | 00:00:00 | |
| DL1XH-west | 2026-09-04 00:50:32 | 50.17272 | 11.36290 | 130° | 27km/h | 19846m | 4.5m/s | -55.8°C | 0.9% | 59.6hPa | 2.6V | 18:12:15 | 01:15:57 | 00:00:00 | |
| SONDE2-11 | 2026-09-04 00:50:32 | 50.17277 | 11.36281 | 126° | 29km/h | 19842m | 5.8m/s | -55.9°C | 1.3% | 59.7hPa | 2.6V | 00:00:00 | 00:00:00 | 00:00:00 | |
| NBG1-10 | 2026-09-04 00:50:30 | 50.17281 | 11.36271 | 125° | 35km/h | 19836m | 5.0m/s | -55.8°C | 4.8% | 59.7hPa | 2.6V | 00:00:00 | 01:15:55 | 00:00:00 | |
| DL1XH1-15 | 2026-09-04 00:50:29 | 50.17292 | 11.36247 | 127° | 40km/h | 19827m | 4.8m/s | -55.9°C | 4.8% | 59.8hPa | 2.6V | 08:30:00 | 01:15:53 | 00:00:00 | |
| BIOWL1-15 | 2026-09-04 00:50:28 | 50.17305 | 11.36222 | 130° | 40km/h | 19817m | 3.7m/s | -55.9°C | 1% | 59.9hPa | 2.7V | 18:12:15 | 01:15:51 | 00:00:00 | |
| HSKMA3-T | 2026-09-04 00:50:27 | 50.17299 | 11.36234 | 130° | 40km/h | 19822m | 5.1m/s | -55.9°C | 0.9% | 59.8hPa | 2.6V | 18:12:15 | 01:15:52 | 00:00:00 | |
| SP3BTT-10 | 2026-09-04 00:50:27 | 50.17299 | 11.36234 | 130° | 33km/h | 19822m | 5.0m/s | -55.8°C | 4.8% | 59.8hPa | 2.6V | 00:00:00 | 00:00:00 | 00:00:00 | |
| Es werden nur die letzten 3500 von 5575 Frames angezeigt. GPX/KML und Diagramme bleiben verfügbar. | |||||||||||||||